<?xml version='1.0' encoding='UTF-8'?><gpx version="1.1" creator="JPX - https://github.com/jenetics/jpx" xmlns="http://www.topografix.com/GPX/1/1"><trk><trkseg><trkpt lat="43.4673488" lon="11.4344403"><ele>354.0</ele><time>2026-05-02T08:29:34.246Z</time></trkpt><trkpt lat="43.4672823" lon="11.4344535"><ele>354.0</ele><time>2026-05-02T08:29:36.248Z</time></trkpt><trkpt lat="43.4673665" lon="11.4344593"><ele>354.0</ele><time>2026-05-02T08:29:41.248Z</time></trkpt><trkpt lat="43.4674388" lon="11.434438"><ele>354.0</ele><time>2026-05-02T08:29:44.254Z</time></trkpt><trkpt lat="43.467495" lon="11.4343652"><ele>354.0</ele><time>2026-05-02T08:30:12.246Z</time></trkpt><trkpt lat="43.4675115" lon="11.4342792"><ele>354.0</ele><time>2026-05-02T08:30:16.248Z</time></trkpt><trkpt lat="43.4674765" lon="11.4342067"><ele>354.0</ele><time>2026-05-02T08:30:19.25Z</time></trkpt><trkpt lat="43.4674025" lon="11.4341765"><ele>354.0</ele><time>2026-05-02T08:30:24.249Z</time></trkpt><trkpt lat="43.467288" lon="11.4342208"><ele>354.0</ele><time>2026-05-02T08:30:26.251Z</time></trkpt><trkpt lat="43.4672192" lon="11.4342445"><ele>354.0</ele><time>2026-05-02T08:30:27.25Z</time></trkpt><trkpt lat="43.467145" lon="11.4342662"><ele>354.0</ele><time>2026-05-02T08:30:28.25Z</time></trkpt><trkpt lat="43.4670678" lon="11.434282"><ele>354.0</ele><time>2026-05-02T08:30:29.249Z</time></trkpt><trkpt lat="43.4669867" lon="11.434301"><ele>354.0</ele><time>2026-05-02T08:30:30.249Z</time></trkpt><trkpt lat="43.4669005" lon="11.4343218"><ele>353.5</ele><time>2026-05-02T08:30:31.249Z</time></trkpt><trkpt lat="43.4668113" lon="11.4343395"><ele>353.0</ele><time>2026-05-02T08:30:32.25Z</time></trkpt><trkpt lat="43.4667223" lon="11.4343475"><ele>352.5</ele><time>2026-05-02T08:30:33.245Z</time></trkpt><trkpt lat="43.466635" lon="11.4343483"><ele>352.0</ele><time>2026-05-02T08:30:34.249Z</time></trkpt><trkpt lat="43.466549" lon="11.4343495"><ele>351.5</ele><time>2026-05-02T08:30:35.248Z</time></trkpt><trkpt lat="43.4664647" lon="11.434346"><ele>351.0</ele><time>2026-05-02T08:30:36.244Z</time></trkpt><trkpt lat="43.4663792" lon="11.4343443"><ele>351.0</ele><time>2026-05-02T08:30:37.248Z</time></trkpt><trkpt lat="43.4662933" lon="11.4343387"><ele>351.0</ele><time>2026-05-02T08:30:38.25Z</time></trkpt><trkpt lat="43.4662078" lon="11.4343267"><ele>351.0</ele><time>2026-05-02T08:30:39.249Z</time></trkpt><trkpt lat="43.4661232" lon="11.4343072"><ele>351.0</ele><time>2026-05-02T08:30:40.25Z</time></trkpt><trkpt lat="43.4660385" lon="11.4342808"><ele>351.0</ele><time>2026-05-02T08:30:41.249Z</time></trkpt><trkpt lat="43.4659552" lon="11.434252"><ele>351.0</ele><time>2026-05-02T08:30:42.248Z</time></trkpt><trkpt lat="43.4658677" lon="11.434219"><ele>350.4</ele><time>2026-05-02T08:30:43.249Z</time></trkpt><trkpt lat="43.4657787" lon="11.4341832"><ele>349.8</ele><time>2026-05-02T08:30:44.249Z</time></trkpt><trkpt lat="43.4656893" lon="11.4341413"><ele>349.2</ele><time>2026-05-02T08:30:45.251Z</time></trkpt><trkpt lat="43.4656013" lon="11.4340833"><ele>348.59999999999997</ele><time>2026-05-02T08:30:46.252Z</time></trkpt><trkpt lat="43.4655167" lon="11.4340063"><ele>348.0</ele><time>2026-05-02T08:30:47.255Z</time></trkpt><trkpt lat="43.4654385" lon="11.4339125"><ele>348.0</ele><time>2026-05-02T08:30:48.251Z</time></trkpt><trkpt lat="43.4653648" lon="11.4338128"><ele>348.0</ele><time>2026-05-02T08:30:49.248Z</time></trkpt><trkpt lat="43.4652933" lon="11.4337117"><ele>348.0</ele><time>2026-05-02T08:30:50.248Z</time></trkpt><trkpt lat="43.4652255" lon="11.4336063"><ele>348.0</ele><time>2026-05-02T08:30:51.25Z</time></trkpt><trkpt lat="43.4651578" lon="11.4335012"><ele>348.0</ele><time>2026-05-02T08:30:52.25Z</time></trkpt><trkpt lat="43.465082" lon="11.4334008"><ele>348.0</ele><time>2026-05-02T08:30:53.25Z</time></trkpt><trkpt lat="43.4649982" lon="11.433309"><ele>348.0</ele><time>2026-05-02T08:30:54.248Z</time></trkpt><trkpt lat="43.464908" lon="11.4332235"><ele>348.0</ele><time>2026-05-02T08:30:55.246Z</time></trkpt><trkpt lat="43.464812" lon="11.4331457"><ele>348.0</ele><time>2026-05-02T08:30:56.247Z</time></trkpt><trkpt lat="43.4647132" lon="11.4330715"><ele>348.0</ele><time>2026-05-02T08:30:57.247Z</time></trkpt><trkpt lat="43.4646193" lon="11.4329997"><ele>348.1666666666667</ele><time>2026-05-02T08:30:58.25Z</time></trkpt><trkpt lat="43.4645362" lon="11.4329285"><ele>348.3333333333333</ele><time>2026-05-02T08:30:59.251Z</time></trkpt><trkpt lat="43.4644638" lon="11.4328592"><ele>348.5</ele><time>2026-05-02T08:31:00.248Z</time></trkpt><trkpt lat="43.4643998" lon="11.4327902"><ele>348.66666666666663</ele><time>2026-05-02T08:31:01.249Z</time></trkpt><trkpt lat="43.4643458" lon="11.432719"><ele>348.8333333333333</ele><time>2026-05-02T08:31:02.253Z</time></trkpt><trkpt lat="43.4642987" lon="11.4326478"><ele>349.0</ele><time>2026-05-02T08:31:03.253Z</time></trkpt><trkpt lat="43.4642548" lon="11.4325753"><ele>348.99999999999994</ele><time>2026-05-02T08:31:04.254Z</time></trkpt><trkpt lat="43.4642102" lon="11.4324938"><ele>349.0</ele><time>2026-05-02T08:31:05.251Z</time></trkpt><trkpt lat="43.46417" lon="11.432408"><ele>349.0</ele><time>2026-05-02T08:31:06.253Z</time></trkpt><trkpt lat="43.464133" lon="11.4323252"><ele>349.0</ele><time>2026-05-02T08:31:07.249Z</time></trkpt><trkpt lat="43.4640973" lon="11.4322412"><ele>349.0</ele><time>2026-05-02T08:31:08.251Z</time></trkpt><trkpt lat="43.4640648" lon="11.4321573"><ele>348.99999999999994</ele><time>2026-05-02T08:31:09.249Z</time></trkpt><trkpt lat="43.4640335" lon="11.432074"><ele>349.0</ele><time>2026-05-02T08:31:10.249Z</time></trkpt><trkpt lat="43.4640032" lon="11.4319907"><ele>348.4285714285714</ele><time>2026-05-02T08:31:11.249Z</time></trkpt><trkpt lat="43.4639718" lon="11.4319072"><ele>347.85714285714283</ele><time>2026-05-02T08:31:12.249Z</time></trkpt><trkpt lat="43.4639403" lon="11.431822"><ele>347.2857142857143</ele><time>2026-05-02T08:31:13.249Z</time></trkpt><trkpt lat="43.4639085" lon="11.4317343"><ele>346.71428571428567</ele><time>2026-05-02T08:31:14.25Z</time></trkpt><trkpt lat="43.4638745" lon="11.4316458"><ele>346.1428571428571</ele><time>2026-05-02T08:31:15.248Z</time></trkpt><trkpt lat="43.4638392" lon="11.4315568"><ele>345.57142857142856</ele><time>2026-05-02T08:31:16.248Z</time></trkpt><trkpt lat="43.4638023" lon="11.4314683"><ele>345.0</ele><time>2026-05-02T08:31:17.253Z</time></trkpt><trkpt lat="43.4637685" lon="11.4313818"><ele>345.4</ele><time>2026-05-02T08:31:18.251Z</time></trkpt><trkpt lat="43.4637032" lon="11.4312733"><ele>345.8</ele><time>2026-05-02T08:31:20.249Z</time></trkpt><trkpt lat="43.4636353" lon="11.4311998"><ele>346.20000000000005</ele><time>2026-05-02T08:31:23.251Z</time></trkpt><trkpt lat="43.4635972" lon="11.431121"><ele>346.6</ele><time>2026-05-02T08:31:26.25Z</time></trkpt><trkpt lat="43.4635703" lon="11.4309888"><ele>347.0</ele><time>2026-05-02T08:32:02.247Z</time></trkpt><trkpt lat="43.4635217" lon="11.430865"><ele>347.0</ele><time>2026-05-02T08:32:04.25Z</time></trkpt><trkpt lat="43.463458" lon="11.4307848"><ele>347.0</ele><time>2026-05-02T08:32:06.252Z</time></trkpt><trkpt lat="43.4633805" lon="11.430755"><ele>347.0</ele><time>2026-05-02T08:32:08.247Z</time></trkpt><trkpt lat="43.4633342" lon="11.4306887"><ele>347.0</ele><time>2026-05-02T08:32:10.247Z</time></trkpt><trkpt lat="43.4633107" lon="11.4305843"><ele>347.0</ele><time>2026-05-02T08:32:17.249Z</time></trkpt><trkpt lat="43.4632498" lon="11.4304608"><ele>347.0</ele><time>2026-05-02T08:32:19.252Z</time></trkpt><trkpt lat="43.4632035" lon="11.430379"><ele>346.8</ele><time>2026-05-02T08:32:20.251Z</time></trkpt><trkpt lat="43.4631523" lon="11.4302847"><ele>346.6</ele><time>2026-05-02T08:32:21.252Z</time></trkpt><trkpt lat="43.4630977" lon="11.4301803"><ele>346.40000000000003</ele><time>2026-05-02T08:32:22.25Z</time></trkpt><trkpt lat="43.4630385" lon="11.430073"><ele>346.20000000000005</ele><time>2026-05-02T08:32:23.249Z</time></trkpt><trkpt lat="43.462974" lon="11.42996"><ele>346.0</ele><time>2026-05-02T08:32:24.249Z</time></trkpt><trkpt lat="43.4629057" lon="11.4298477"><ele>346.0</ele><time>2026-05-02T08:32:25.248Z</time></trkpt><trkpt lat="43.4628308" lon="11.429737"><ele>346.0</ele><time>2026-05-02T08:32:26.249Z</time></trkpt><trkpt lat="43.4627477" lon="11.4296252"><ele>346.0</ele><time>2026-05-02T08:32:27.249Z</time></trkpt><trkpt lat="43.4626568" lon="11.4295092"><ele>346.0</ele><time>2026-05-02T08:32:28.249Z</time></trkpt><trkpt lat="43.4625583" lon="11.429387"><ele>346.0</ele><time>2026-05-02T08:32:29.253Z</time></trkpt><trkpt lat="43.4624532" lon="11.4292578"><ele>346.0</ele><time>2026-05-02T08:32:30.254Z</time></trkpt><trkpt lat="43.4623438" lon="11.4291217"><ele>346.0</ele><time>2026-05-02T08:32:31.255Z</time></trkpt><trkpt lat="43.4622307" lon="11.4289772"><ele>346.0</ele><time>2026-05-02T08:32:32.251Z</time></trkpt><trkpt lat="43.4621103" lon="11.4288252"><ele>344.66666666666663</ele><time>2026-05-02T08:32:33.25Z</time></trkpt><trkpt lat="43.461984" lon="11.4286693"><ele>343.3333333333333</ele><time>2026-05-02T08:32:34.25Z</time></trkpt><trkpt lat="43.4618517" lon="11.4285122"><ele>342.0</ele><time>2026-05-02T08:32:35.25Z</time></trkpt><trkpt lat="43.4617142" lon="11.4283562"><ele>342.0</ele><time>2026-05-02T08:32:36.252Z</time></trkpt><trkpt lat="43.4615738" lon="11.428204"><ele>342.0</ele><time>2026-05-02T08:32:37.25Z</time></trkpt><trkpt lat="43.4614333" lon="11.4280553"><ele>342.0</ele><time>2026-05-02T08:32:38.252Z</time></trkpt><trkpt lat="43.461294" lon="11.4279105"><ele>341.3333333333333</ele><time>2026-05-02T08:32:39.249Z</time></trkpt><trkpt lat="43.4611525" lon="11.4277615"><ele>340.66666666666663</ele><time>2026-05-02T08:32:40.25Z</time></trkpt><trkpt lat="43.461011" lon="11.4276057"><ele>340.0</ele><time>2026-05-02T08:32:41.251Z</time></trkpt><trkpt lat="43.4608732" lon="11.4274525"><ele>340.0</ele><time>2026-05-02T08:32:42.249Z</time></trkpt><trkpt lat="43.4607315" lon="11.4273157"><ele>340.0</ele><time>2026-05-02T08:32:43.25Z</time></trkpt><trkpt lat="43.4605758" lon="11.4271952"><ele>340.0</ele><time>2026-05-02T08:32:44.25Z</time></trkpt><trkpt lat="43.4604042" lon="11.4270932"><ele>341.0</ele><time>2026-05-02T08:32:45.252Z</time></trkpt><trkpt lat="43.4602192" lon="11.4270065"><ele>342.0</ele><time>2026-05-02T08:32:46.253Z</time></trkpt><trkpt lat="43.4600262" lon="11.4269233"><ele>343.0</ele><time>2026-05-02T08:32:47.253Z</time></trkpt><trkpt lat="43.4598305" lon="11.426837"><ele>343.0</ele><time>2026-05-02T08:32:48.254Z</time></trkpt><trkpt lat="43.4596333" lon="11.4267478"><ele>343.0</ele><time>2026-05-02T08:32:49.25Z</time></trkpt><trkpt lat="43.4594365" lon="11.426659"><ele>343.0</ele><time>2026-05-02T08:32:50.254Z</time></trkpt><trkpt lat="43.4592463" lon="11.4265757"><ele>341.66666666666663</ele><time>2026-05-02T08:32:51.252Z</time></trkpt><trkpt lat="43.4590613" lon="11.426494"><ele>340.3333333333333</ele><time>2026-05-02T08:32:52.252Z</time></trkpt><trkpt lat="43.4588815" lon="11.4264145"><ele>339.0</ele><time>2026-05-02T08:32:53.249Z</time></trkpt><trkpt lat="43.4587062" lon="11.4263358"><ele>338.0</ele><time>2026-05-02T08:32:54.249Z</time></trkpt><trkpt lat="43.4585293" lon="11.4262593"><ele>337.0</ele><time>2026-05-02T08:32:55.252Z</time></trkpt><trkpt lat="43.4583493" lon="11.4261768"><ele>336.0</ele><time>2026-05-02T08:32:56.258Z</time></trkpt><trkpt lat="43.4581718" lon="11.4260918"><ele>336.0</ele><time>2026-05-02T08:32:57.248Z</time></trkpt><trkpt lat="43.4580015" lon="11.4260137"><ele>336.0</ele><time>2026-05-02T08:32:58.255Z</time></trkpt><trkpt lat="43.4578383" lon="11.4259413"><ele>336.0</ele><time>2026-05-02T08:32:59.247Z</time></trkpt><trkpt lat="43.457681" lon="11.4258697"><ele>336.0</ele><time>2026-05-02T08:33:00.249Z</time></trkpt><trkpt lat="43.4575292" lon="11.4257992"><ele>336.0</ele><time>2026-05-02T08:33:01.25Z</time></trkpt><trkpt lat="43.4573832" lon="11.4257332"><ele>336.0</ele><time>2026-05-02T08:33:02.251Z</time></trkpt><trkpt lat="43.4572398" lon="11.4256745"><ele>337.5</ele><time>2026-05-02T08:33:03.252Z</time></trkpt><trkpt lat="43.4570955" lon="11.4256225"><ele>339.0</ele><time>2026-05-02T08:33:04.253Z</time></trkpt><trkpt lat="43.4569512" lon="11.4255812"><ele>340.5</ele><time>2026-05-02T08:33:05.253Z</time></trkpt><trkpt lat="43.4568082" lon="11.4255477"><ele>342.0</ele><time>2026-05-02T08:33:06.25Z</time></trkpt><trkpt lat="43.4566662" lon="11.4255252"><ele>342.0</ele><time>2026-05-02T08:33:07.252Z</time></trkpt><trkpt lat="43.4565318" lon="11.4255162"><ele>342.0</ele><time>2026-05-02T08:33:08.25Z</time></trkpt><trkpt lat="43.4564002" lon="11.425505"><ele>342.0</ele><time>2026-05-02T08:33:09.251Z</time></trkpt><trkpt lat="43.456272" lon="11.425466"><ele>342.0</ele><time>2026-05-02T08:33:10.25Z</time></trkpt><trkpt lat="43.456148" lon="11.4253888"><ele>340.3333333333333</ele><time>2026-05-02T08:33:11.252Z</time></trkpt><trkpt lat="43.4560262" lon="11.4252788"><ele>338.66666666666663</ele><time>2026-05-02T08:33:12.251Z</time></trkpt><trkpt lat="43.4559042" lon="11.4251542"><ele>337.0</ele><time>2026-05-02T08:33:13.25Z</time></trkpt><trkpt lat="43.4557773" lon="11.4250238"><ele>337.0</ele><time>2026-05-02T08:33:14.25Z</time></trkpt><trkpt lat="43.4556465" lon="11.4248883"><ele>337.0</ele><time>2026-05-02T08:33:15.25Z</time></trkpt><trkpt lat="43.4555148" lon="11.424751"><ele>337.0</ele><time>2026-05-02T08:33:16.249Z</time></trkpt><trkpt lat="43.45539" lon="11.424619"><ele>336.0</ele><time>2026-05-02T08:33:17.253Z</time></trkpt><trkpt lat="43.455269" lon="11.424491"><ele>335.0</ele><time>2026-05-02T08:33:18.255Z</time></trkpt><trkpt lat="43.4551495" lon="11.4243643"><ele>334.0</ele><time>2026-05-02T08:33:19.253Z</time></trkpt><trkpt lat="43.4550348" lon="11.4242423"><ele>333.0</ele><time>2026-05-02T08:33:20.254Z</time></trkpt><trkpt lat="43.4549242" lon="11.4241273"><ele>333.0</ele><time>2026-05-02T08:33:21.249Z</time></trkpt><trkpt lat="43.4548148" lon="11.4240177"><ele>333.0</ele><time>2026-05-02T08:33:22.251Z</time></trkpt><trkpt lat="43.4547078" lon="11.4239098"><ele>333.0</ele><time>2026-05-02T08:33:23.251Z</time></trkpt><trkpt lat="43.4546023" lon="11.4238023"><ele>333.0</ele><time>2026-05-02T08:33:24.252Z</time></trkpt><trkpt lat="43.4544958" lon="11.4236933"><ele>332.5</ele><time>2026-05-02T08:33:25.25Z</time></trkpt><trkpt lat="43.454389" lon="11.4235743"><ele>332.0</ele><time>2026-05-02T08:33:26.252Z</time></trkpt><trkpt lat="43.4542837" lon="11.423436"><ele>331.5</ele><time>2026-05-02T08:33:27.253Z</time></trkpt><trkpt lat="43.454179" lon="11.4232767"><ele>331.0</ele><time>2026-05-02T08:33:28.25Z</time></trkpt><trkpt lat="43.454072" lon="11.4231065"><ele>332.3333333333333</ele><time>2026-05-02T08:33:29.251Z</time></trkpt><trkpt lat="43.4539617" lon="11.4229337"><ele>333.6666666666667</ele><time>2026-05-02T08:33:30.252Z</time></trkpt><trkpt lat="43.453848" lon="11.4227628"><ele>335.0</ele><time>2026-05-02T08:33:31.25Z</time></trkpt><trkpt lat="43.4537408" lon="11.4226003"><ele>334.25</ele><time>2026-05-02T08:33:32.254Z</time></trkpt><trkpt lat="43.4536412" lon="11.4224485"><ele>333.5</ele><time>2026-05-02T08:33:33.253Z</time></trkpt><trkpt lat="43.453548" lon="11.422306"><ele>332.75</ele><time>2026-05-02T08:33:34.253Z</time></trkpt><trkpt lat="43.4534632" lon="11.4221728"><ele>332.0</ele><time>2026-05-02T08:33:35.248Z</time></trkpt><trkpt lat="43.45339" lon="11.422055"><ele>332.0</ele><time>2026-05-02T08:33:36.248Z</time></trkpt><trkpt lat="43.4533255" lon="11.4219528"><ele>332.0</ele><time>2026-05-02T08:33:37.249Z</time></trkpt><trkpt lat="43.4532658" lon="11.4218588"><ele>332.0</ele><time>2026-05-02T08:33:38.25Z</time></trkpt><trkpt lat="43.4532057" lon="11.4217707"><ele>332.0</ele><time>2026-05-02T08:33:39.25Z</time></trkpt><trkpt lat="43.4531442" lon="11.421684"><ele>332.0</ele><time>2026-05-02T08:33:40.25Z</time></trkpt><trkpt lat="43.4530718" lon="11.4216058"><ele>332.0</ele><time>2026-05-02T08:33:41.252Z</time></trkpt><trkpt lat="43.4529862" lon="11.4215275"><ele>332.0</ele><time>2026-05-02T08:33:42.25Z</time></trkpt><trkpt lat="43.4528858" lon="11.4214518"><ele>332.0</ele><time>2026-05-02T08:33:43.25Z</time></trkpt><trkpt lat="43.452779" lon="11.4213738"><ele>332.0</ele><time>2026-05-02T08:33:44.25Z</time></trkpt><trkpt lat="43.4526725" lon="11.421282"><ele>332.75</ele><time>2026-05-02T08:33:45.25Z</time></trkpt><trkpt lat="43.4525693" lon="11.4211755"><ele>333.5</ele><time>2026-05-02T08:33:46.248Z</time></trkpt><trkpt lat="43.4524675" lon="11.421056"><ele>334.25</ele><time>2026-05-02T08:33:47.25Z</time></trkpt><trkpt lat="43.4523712" lon="11.4209222"><ele>335.0</ele><time>2026-05-02T08:33:48.25Z</time></trkpt><trkpt lat="43.4522763" lon="11.4207818"><ele>335.0</ele><time>2026-05-02T08:33:49.25Z</time></trkpt><trkpt lat="43.4521853" lon="11.4206403"><ele>335.0</ele><time>2026-05-02T08:33:50.249Z</time></trkpt><trkpt lat="43.4520992" lon="11.4205055"><ele>335.0</ele><time>2026-05-02T08:33:51.249Z</time></trkpt><trkpt lat="43.4520165" lon="11.420379"><ele>335.0</ele><time>2026-05-02T08:33:52.25Z</time></trkpt><trkpt lat="43.4519357" lon="11.4202515"><ele>334.0</ele><time>2026-05-02T08:33:53.251Z</time></trkpt><trkpt lat="43.4518593" lon="11.4201193"><ele>333.0</ele><time>2026-05-02T08:33:54.251Z</time></trkpt><trkpt lat="43.4517847" lon="11.4199922"><ele>332.0</ele><time>2026-05-02T08:33:55.248Z</time></trkpt><trkpt lat="43.4517082" lon="11.4198787"><ele>331.0</ele><time>2026-05-02T08:33:56.25Z</time></trkpt><trkpt lat="43.4516345" lon="11.419777"><ele>331.0</ele><time>2026-05-02T08:33:57.249Z</time></trkpt><trkpt lat="43.4515587" lon="11.4196918"><ele>331.0</ele><time>2026-05-02T08:33:58.25Z</time></trkpt><trkpt lat="43.4514827" lon="11.4196202"><ele>331.0</ele><time>2026-05-02T08:33:59.253Z</time></trkpt><trkpt lat="43.451409" lon="11.419551"><ele>331.0</ele><time>2026-05-02T08:34:00.252Z</time></trkpt><trkpt lat="43.451337" lon="11.419482"><ele>331.0</ele><time>2026-05-02T08:34:01.252Z</time></trkpt><trkpt lat="43.4512658" lon="11.4194165"><ele>330.0</ele><time>2026-05-02T08:34:02.25Z</time></trkpt><trkpt lat="43.451194" lon="11.4193483"><ele>329.0</ele><time>2026-05-02T08:34:03.249Z</time></trkpt><trkpt lat="43.4511178" lon="11.4192828"><ele>328.0</ele><time>2026-05-02T08:34:04.25Z</time></trkpt><trkpt lat="43.451032" lon="11.4192205"><ele>327.0</ele><time>2026-05-02T08:34:05.253Z</time></trkpt><trkpt lat="43.4509318" lon="11.4191682"><ele>326.0</ele><time>2026-05-02T08:34:06.252Z</time></trkpt><trkpt lat="43.4508193" lon="11.4191238"><ele>326.0</ele><time>2026-05-02T08:34:07.252Z</time></trkpt><trkpt lat="43.4506987" lon="11.419085"><ele>326.0</ele><time>2026-05-02T08:34:08.249Z</time></trkpt><trkpt lat="43.4505733" lon="11.4190498"><ele>326.0</ele><time>2026-05-02T08:34:09.249Z</time></trkpt><trkpt lat="43.4504428" lon="11.419025"><ele>326.0</ele><time>2026-05-02T08:34:10.248Z</time></trkpt><trkpt lat="43.4503103" lon="11.4190075"><ele>325.5</ele><time>2026-05-02T08:34:11.25Z</time></trkpt><trkpt lat="43.4501732" lon="11.4189827"><ele>325.0</ele><time>2026-05-02T08:34:12.249Z</time></trkpt><trkpt lat="43.4500347" lon="11.4189428"><ele>324.5</ele><time>2026-05-02T08:34:13.247Z</time></trkpt><trkpt lat="43.4499018" lon="11.4188885"><ele>324.0</ele><time>2026-05-02T08:34:14.251Z</time></trkpt><trkpt lat="43.4497762" lon="11.4188305"><ele>325.0</ele><time>2026-05-02T08:34:15.25Z</time></trkpt><trkpt lat="43.4496528" lon="11.418775"><ele>326.0</ele><time>2026-05-02T08:34:16.253Z</time></trkpt><trkpt lat="43.4495313" lon="11.418723"><ele>327.0</ele><time>2026-05-02T08:34:17.253Z</time></trkpt><trkpt lat="43.4494005" lon="11.4186787"><ele>328.0</ele><time>2026-05-02T08:34:18.252Z</time></trkpt><trkpt lat="43.4492475" lon="11.4186517"><ele>329.0</ele><time>2026-05-02T08:34:19.255Z</time></trkpt><trkpt lat="43.4490733" lon="11.4186282"><ele>330.0</ele><time>2026-05-02T08:34:20.255Z</time></trkpt><trkpt lat="43.448891" lon="11.4186023"><ele>331.0</ele><time>2026-05-02T08:34:21.254Z</time></trkpt><trkpt lat="43.448716" lon="11.4185733"><ele>331.0</ele><time>2026-05-02T08:34:22.254Z</time></trkpt><trkpt lat="43.448554" lon="11.4185338"><ele>331.0</ele><time>2026-05-02T08:34:23.259Z</time></trkpt><trkpt lat="43.448399" lon="11.4184758"><ele>331.0</ele><time>2026-05-02T08:34:24.253Z</time></trkpt><trkpt lat="43.4482472" lon="11.4183815"><ele>331.0</ele><time>2026-05-02T08:34:25.251Z</time></trkpt><trkpt lat="43.4480977" lon="11.4182562"><ele>331.0</ele><time>2026-05-02T08:34:26.252Z</time></trkpt><trkpt lat="43.4479485" lon="11.418116"><ele>331.0</ele><time>2026-05-02T08:34:27.252Z</time></trkpt><trkpt lat="43.4478028" lon="11.4179817"><ele>333.3333333333333</ele><time>2026-05-02T08:34:28.252Z</time></trkpt><trkpt lat="43.4476538" lon="11.4178725"><ele>335.6666666666667</ele><time>2026-05-02T08:34:29.252Z</time></trkpt><trkpt lat="43.4474942" lon="11.4177985"><ele>338.0</ele><time>2026-05-02T08:34:30.255Z</time></trkpt><trkpt lat="43.4473238" lon="11.4177463"><ele>338.0</ele><time>2026-05-02T08:34:31.254Z</time></trkpt><trkpt lat="43.4471435" lon="11.4176985"><ele>338.0</ele><time>2026-05-02T08:34:32.256Z</time></trkpt><trkpt lat="43.4469592" lon="11.4176497"><ele>338.0</ele><time>2026-05-02T08:34:33.252Z</time></trkpt><trkpt lat="43.4467767" lon="11.4176028"><ele>338.6666666666667</ele><time>2026-05-02T08:34:34.25Z</time></trkpt><trkpt lat="43.4466027" lon="11.4175605"><ele>339.3333333333333</ele><time>2026-05-02T08:34:35.249Z</time></trkpt><trkpt lat="43.4464417" lon="11.4175248"><ele>340.0</ele><time>2026-05-02T08:34:36.25Z</time></trkpt><trkpt lat="43.4462967" lon="11.417511"><ele>343.0</ele><time>2026-05-02T08:34:37.251Z</time></trkpt><trkpt lat="43.4461588" lon="11.4175372"><ele>346.0</ele><time>2026-05-02T08:34:38.251Z</time></trkpt><trkpt lat="43.4460345" lon="11.4176195"><ele>349.0</ele><time>2026-05-02T08:34:39.25Z</time></trkpt><trkpt lat="43.4459333" lon="11.417753"><ele>352.0</ele><time>2026-05-02T08:34:40.25Z</time></trkpt><trkpt lat="43.4458548" lon="11.4179225"><ele>348.66666666666663</ele><time>2026-05-02T08:34:41.252Z</time></trkpt><trkpt lat="43.4457887" lon="11.4181173"><ele>345.3333333333333</ele><time>2026-05-02T08:34:42.25Z</time></trkpt><trkpt lat="43.445733" lon="11.4183342"><ele>342.0</ele><time>2026-05-02T08:34:43.251Z</time></trkpt><trkpt lat="43.4456905" lon="11.4185677"><ele>342.0</ele><time>2026-05-02T08:34:44.251Z</time></trkpt><trkpt lat="43.4456677" lon="11.4187993"><ele>342.0</ele><time>2026-05-02T08:34:45.25Z</time></trkpt><trkpt lat="43.4456608" lon="11.419018"><ele>342.0</ele><time>2026-05-02T08:34:46.251Z</time></trkpt><trkpt lat="43.4456565" lon="11.4192227"><ele>341.25</ele><time>2026-05-02T08:34:47.256Z</time></trkpt><trkpt lat="43.445642" lon="11.4194095"><ele>340.5</ele><time>2026-05-02T08:34:48.254Z</time></trkpt><trkpt lat="43.4455992" lon="11.419569"><ele>339.75</ele><time>2026-05-02T08:34:49.255Z</time></trkpt><trkpt lat="43.4455177" lon="11.4196908"><ele>339.0</ele><time>2026-05-02T08:34:50.251Z</time></trkpt><trkpt lat="43.4453992" lon="11.419781"><ele>339.0</ele><time>2026-05-02T08:34:51.25Z</time></trkpt><trkpt lat="43.445254" lon="11.4198622"><ele>339.0</ele><time>2026-05-02T08:34:52.25Z</time></trkpt><trkpt lat="43.4451002" lon="11.4199487"><ele>339.0</ele><time>2026-05-02T08:34:53.254Z</time></trkpt><trkpt lat="43.4449503" lon="11.420037"><ele>339.0</ele><time>2026-05-02T08:34:54.254Z</time></trkpt><trkpt lat="43.4448078" lon="11.4201258"><ele>339.0</ele><time>2026-05-02T08:34:55.254Z</time></trkpt><trkpt lat="43.4446705" lon="11.4202387"><ele>339.0</ele><time>2026-05-02T08:34:56.25Z</time></trkpt><trkpt lat="43.4445412" lon="11.4203928"><ele>338.3333333333333</ele><time>2026-05-02T08:34:57.25Z</time></trkpt><trkpt lat="43.444424" lon="11.4205705"><ele>337.66666666666663</ele><time>2026-05-02T08:34:58.25Z</time></trkpt><trkpt lat="43.4443062" lon="11.42074"><ele>337.0</ele><time>2026-05-02T08:34:59.249Z</time></trkpt><trkpt lat="43.444173" lon="11.4208867"><ele>337.0</ele><time>2026-05-02T08:35:00.25Z</time></trkpt><trkpt lat="43.444021" lon="11.4210122"><ele>337.0</ele><time>2026-05-02T08:35:01.249Z</time></trkpt><trkpt lat="43.4438575" lon="11.4211293"><ele>337.0</ele><time>2026-05-02T08:35:02.248Z</time></trkpt><trkpt lat="43.4436927" lon="11.4212495"><ele>334.0</ele><time>2026-05-02T08:35:03.25Z</time></trkpt><trkpt lat="43.4435365" lon="11.4213662"><ele>331.0</ele><time>2026-05-02T08:35:04.255Z</time></trkpt><trkpt lat="43.443383" lon="11.421462"><ele>328.0</ele><time>2026-05-02T08:35:05.254Z</time></trkpt><trkpt lat="43.443225" lon="11.4215278"><ele>328.0</ele><time>2026-05-02T08:35:06.254Z</time></trkpt><trkpt lat="43.443053" lon="11.4215628"><ele>328.0</ele><time>2026-05-02T08:35:07.251Z</time></trkpt><trkpt lat="43.4428722" lon="11.4215747"><ele>328.0</ele><time>2026-05-02T08:35:08.252Z</time></trkpt><trkpt lat="43.4426863" lon="11.4215717"><ele>328.0</ele><time>2026-05-02T08:35:09.259Z</time></trkpt><trkpt lat="43.442489" lon="11.4215553"><ele>328.0</ele><time>2026-05-02T08:35:10.254Z</time></trkpt><trkpt lat="43.442284" lon="11.4215278"><ele>328.0</ele><time>2026-05-02T08:35:11.256Z</time></trkpt><trkpt lat="43.442075" lon="11.4214987"><ele>326.3333333333333</ele><time>2026-05-02T08:35:12.253Z</time></trkpt><trkpt lat="43.4418695" lon="11.4214705"><ele>324.6666666666667</ele><time>2026-05-02T08:35:13.253Z</time></trkpt><trkpt lat="43.4416715" lon="11.4214438"><ele>323.0</ele><time>2026-05-02T08:35:14.252Z</time></trkpt><trkpt lat="43.441481" lon="11.4214147"><ele>323.0</ele><time>2026-05-02T08:35:15.252Z</time></trkpt><trkpt lat="43.4412998" lon="11.4213748"><ele>323.0</ele><time>2026-05-02T08:35:16.251Z</time></trkpt><trkpt lat="43.4411268" lon="11.4213057"><ele>323.0</ele><time>2026-05-02T08:35:17.25Z</time></trkpt><trkpt lat="43.4409592" lon="11.4212002"><ele>325.33333333333337</ele><time>2026-05-02T08:35:18.251Z</time></trkpt><trkpt lat="43.4407958" lon="11.4210708"><ele>327.6666666666667</ele><time>2026-05-02T08:35:19.249Z</time></trkpt><trkpt lat="43.4406333" lon="11.4209352"><ele>330.0</ele><time>2026-05-02T08:35:20.249Z</time></trkpt><trkpt lat="43.440472" lon="11.4208003"><ele>329.6666666666667</ele><time>2026-05-02T08:35:21.249Z</time></trkpt><trkpt lat="43.4403118" lon="11.4206657"><ele>329.33333333333337</ele><time>2026-05-02T08:35:22.25Z</time></trkpt><trkpt lat="43.4401532" lon="11.42053"><ele>329.0</ele><time>2026-05-02T08:35:23.254Z</time></trkpt><trkpt lat="43.4399972" lon="11.4203942"><ele>329.0</ele><time>2026-05-02T08:35:24.25Z</time></trkpt><trkpt lat="43.4398433" lon="11.4202603"><ele>329.0</ele><time>2026-05-02T08:35:25.25Z</time></trkpt><trkpt lat="43.4396898" lon="11.4201303"><ele>329.0</ele><time>2026-05-02T08:35:26.251Z</time></trkpt><trkpt lat="43.4395393" lon="11.4200092"><ele>325.33333333333337</ele><time>2026-05-02T08:35:27.252Z</time></trkpt><trkpt lat="43.4393897" lon="11.4198985"><ele>321.6666666666667</ele><time>2026-05-02T08:35:28.254Z</time></trkpt><trkpt lat="43.4392327" lon="11.4198027"><ele>318.0</ele><time>2026-05-02T08:35:29.254Z</time></trkpt><trkpt lat="43.4390643" lon="11.4197275"><ele>318.0</ele><time>2026-05-02T08:35:30.253Z</time></trkpt><trkpt lat="43.4388812" lon="11.4196812"><ele>318.0</ele><time>2026-05-02T08:35:31.251Z</time></trkpt><trkpt lat="43.4386863" lon="11.4196523"><ele>318.0</ele><time>2026-05-02T08:35:32.25Z</time></trkpt><trkpt lat="43.4384835" lon="11.4196303"><ele>319.6666666666667</ele><time>2026-05-02T08:35:33.251Z</time></trkpt><trkpt lat="43.4382775" lon="11.4196045"><ele>321.33333333333337</ele><time>2026-05-02T08:35:34.251Z</time></trkpt><trkpt lat="43.4380753" lon="11.4195737"><ele>323.0</ele><time>2026-05-02T08:35:35.25Z</time></trkpt><trkpt lat="43.4378807" lon="11.4195415"><ele>323.0</ele><time>2026-05-02T08:35:36.255Z</time></trkpt><trkpt lat="43.4376957" lon="11.4195088"><ele>323.0</ele><time>2026-05-02T08:35:37.255Z</time></trkpt><trkpt lat="43.4375152" lon="11.4194777"><ele>323.0</ele><time>2026-05-02T08:35:38.253Z</time></trkpt><trkpt lat="43.4373343" lon="11.4194442"><ele>323.0</ele><time>2026-05-02T08:35:39.25Z</time></trkpt><trkpt lat="43.4371525" lon="11.419409"><ele>323.0</ele><time>2026-05-02T08:35:40.252Z</time></trkpt><trkpt lat="43.4369682" lon="11.4193728"><ele>323.0</ele><time>2026-05-02T08:35:41.253Z</time></trkpt><trkpt lat="43.436784" lon="11.4193387"><ele>322.0</ele><time>2026-05-02T08:35:42.252Z</time></trkpt><trkpt lat="43.4366028" lon="11.4193073"><ele>321.0</ele><time>2026-05-02T08:35:43.253Z</time></trkpt><trkpt lat="43.436427" lon="11.4192763"><ele>320.0</ele><time>2026-05-02T08:35:44.251Z</time></trkpt><trkpt lat="43.4362528" lon="11.4192442"><ele>318.6666666666667</ele><time>2026-05-02T08:35:45.251Z</time></trkpt><trkpt lat="43.4360813" lon="11.4192143"><ele>317.3333333333333</ele><time>2026-05-02T08:35:46.251Z</time></trkpt><trkpt lat="43.4359112" lon="11.4191835"><ele>316.0</ele><time>2026-05-02T08:35:47.25Z</time></trkpt><trkpt lat="43.4357457" lon="11.4191473"><ele>316.0</ele><time>2026-05-02T08:35:48.247Z</time></trkpt><trkpt lat="43.4355827" lon="11.4191193"><ele>316.0</ele><time>2026-05-02T08:35:49.248Z</time></trkpt><trkpt lat="43.4354253" lon="11.4191123"><ele>316.0</ele><time>2026-05-02T08:35:50.247Z</time></trkpt><trkpt lat="43.4352723" lon="11.4191453"><ele>317.0</ele><time>2026-05-02T08:35:51.249Z</time></trkpt><trkpt lat="43.4351192" lon="11.4192205"><ele>318.0</ele><time>2026-05-02T08:35:52.25Z</time></trkpt><trkpt lat="43.4349703" lon="11.4193292"><ele>319.0</ele><time>2026-05-02T08:35:53.251Z</time></trkpt><trkpt lat="43.4348237" lon="11.4194538"><ele>319.0</ele><time>2026-05-02T08:35:54.249Z</time></trkpt><trkpt lat="43.4346792" lon="11.419596"><ele>319.0</ele><time>2026-05-02T08:35:55.248Z</time></trkpt><trkpt lat="43.4345353" lon="11.4197495"><ele>319.0</ele><time>2026-05-02T08:35:56.25Z</time></trkpt><trkpt lat="43.434391" lon="11.4199105"><ele>318.0</ele><time>2026-05-02T08:35:57.25Z</time></trkpt><trkpt lat="43.4342507" lon="11.4200713"><ele>317.0</ele><time>2026-05-02T08:35:58.25Z</time></trkpt><trkpt lat="43.4341163" lon="11.4202238"><ele>316.0</ele><time>2026-05-02T08:35:59.248Z</time></trkpt><trkpt lat="43.4339877" lon="11.4203708"><ele>312.75</ele><time>2026-05-02T08:36:00.248Z</time></trkpt><trkpt lat="43.4338693" lon="11.42052"><ele>309.5</ele><time>2026-05-02T08:36:01.248Z</time></trkpt><trkpt lat="43.4337625" lon="11.4206648"><ele>306.25</ele><time>2026-05-02T08:36:02.248Z</time></trkpt><trkpt lat="43.4336558" lon="11.4207858"><ele>303.0</ele><time>2026-05-02T08:36:03.249Z</time></trkpt><trkpt lat="43.4335423" lon="11.4208652"><ele>303.0</ele><time>2026-05-02T08:36:04.246Z</time></trkpt><trkpt lat="43.4334253" lon="11.4208778"><ele>303.0</ele><time>2026-05-02T08:36:05.248Z</time></trkpt><trkpt lat="43.4333157" lon="11.4208262"><ele>303.0</ele><time>2026-05-02T08:36:06.246Z</time></trkpt><trkpt lat="43.4332172" lon="11.4207155"><ele>303.0</ele><time>2026-05-02T08:36:07.248Z</time></trkpt><trkpt lat="43.4331267" lon="11.420561"><ele>302.3333333333333</ele><time>2026-05-02T08:36:08.249Z</time></trkpt><trkpt lat="43.4330452" lon="11.4203787"><ele>301.66666666666663</ele><time>2026-05-02T08:36:09.249Z</time></trkpt><trkpt lat="43.4329628" lon="11.4201808"><ele>301.0</ele><time>2026-05-02T08:36:10.247Z</time></trkpt><trkpt lat="43.4328767" lon="11.4199762"><ele>301.0</ele><time>2026-05-02T08:36:11.251Z</time></trkpt><trkpt lat="43.4327847" lon="11.4197773"><ele>301.0</ele><time>2026-05-02T08:36:12.25Z</time></trkpt><trkpt lat="43.43268" lon="11.4195875"><ele>301.0</ele><time>2026-05-02T08:36:13.249Z</time></trkpt><trkpt lat="43.4325633" lon="11.4194032"><ele>302.0</ele><time>2026-05-02T08:36:14.247Z</time></trkpt><trkpt lat="43.43244" lon="11.4192222"><ele>303.0</ele><time>2026-05-02T08:36:15.246Z</time></trkpt><trkpt lat="43.4323215" lon="11.4190472"><ele>304.0</ele><time>2026-05-02T08:36:16.25Z</time></trkpt><trkpt lat="43.4322068" lon="11.418873"><ele>302.3333333333333</ele><time>2026-05-02T08:36:17.249Z</time></trkpt><trkpt lat="43.4320927" lon="11.4187033"><ele>300.6666666666667</ele><time>2026-05-02T08:36:18.249Z</time></trkpt><trkpt lat="43.4319845" lon="11.4185435"><ele>299.0</ele><time>2026-05-02T08:36:19.25Z</time></trkpt><trkpt lat="43.431882" lon="11.4183943"><ele>299.0</ele><time>2026-05-02T08:36:20.249Z</time></trkpt><trkpt lat="43.431786" lon="11.41825"><ele>299.0</ele><time>2026-05-02T08:36:21.249Z</time></trkpt><trkpt lat="43.4316937" lon="11.418111"><ele>299.0</ele><time>2026-05-02T08:36:22.249Z</time></trkpt><trkpt lat="43.4316062" lon="11.4179828"><ele>299.0</ele><time>2026-05-02T08:36:23.25Z</time></trkpt><trkpt lat="43.4315265" lon="11.4178648"><ele>299.33333333333337</ele><time>2026-05-02T08:36:24.253Z</time></trkpt><trkpt lat="43.4314585" lon="11.4177623"><ele>299.6666666666667</ele><time>2026-05-02T08:36:25.253Z</time></trkpt><trkpt lat="43.4313992" lon="11.4176757"><ele>300.0</ele><time>2026-05-02T08:36:26.252Z</time></trkpt><trkpt lat="43.4313353" lon="11.41762"><ele>300.3333333333333</ele><time>2026-05-02T08:36:27.249Z</time></trkpt><trkpt lat="43.4312628" lon="11.4176088"><ele>300.66666666666663</ele><time>2026-05-02T08:36:28.253Z</time></trkpt><trkpt lat="43.431183" lon="11.4176437"><ele>301.0</ele><time>2026-05-02T08:36:29.252Z</time></trkpt><trkpt lat="43.4310922" lon="11.4177133"><ele>301.0</ele><time>2026-05-02T08:36:30.249Z</time></trkpt><trkpt lat="43.4309823" lon="11.4177983"><ele>301.0</ele><time>2026-05-02T08:36:31.247Z</time></trkpt><trkpt lat="43.4308552" lon="11.41789"><ele>301.0</ele><time>2026-05-02T08:36:32.249Z</time></trkpt><trkpt lat="43.4307143" lon="11.4179887"><ele>301.0</ele><time>2026-05-02T08:36:33.249Z</time></trkpt><trkpt lat="43.4305707" lon="11.418093"><ele>301.3333333333333</ele><time>2026-05-02T08:36:34.247Z</time></trkpt><trkpt lat="43.4304208" lon="11.418202"><ele>301.6666666666667</ele><time>2026-05-02T08:36:35.248Z</time></trkpt><trkpt lat="43.4302678" lon="11.418313"><ele>302.0</ele><time>2026-05-02T08:36:36.248Z</time></trkpt><trkpt lat="43.4301168" lon="11.4184213"><ele>302.0</ele><time>2026-05-02T08:36:37.245Z</time></trkpt><trkpt lat="43.4299683" lon="11.4185292"><ele>302.0</ele><time>2026-05-02T08:36:38.246Z</time></trkpt><trkpt lat="43.4298237" lon="11.4186372"><ele>302.0</ele><time>2026-05-02T08:36:39.248Z</time></trkpt><trkpt lat="43.4296797" lon="11.4187455"><ele>304.6666666666667</ele><time>2026-05-02T08:36:40.248Z</time></trkpt><trkpt lat="43.429537" lon="11.4188508"><ele>307.3333333333333</ele><time>2026-05-02T08:36:41.253Z</time></trkpt><trkpt lat="43.4293895" lon="11.4189473"><ele>310.0</ele><time>2026-05-02T08:36:42.248Z</time></trkpt><trkpt lat="43.4292325" lon="11.4190325"><ele>310.0</ele><time>2026-05-02T08:36:43.247Z</time></trkpt><trkpt lat="43.4290685" lon="11.4190978"><ele>310.0</ele><time>2026-05-02T08:36:44.25Z</time></trkpt><trkpt lat="43.4288945" lon="11.419148"><ele>310.0</ele><time>2026-05-02T08:36:45.247Z</time></trkpt><trkpt lat="43.4287217" lon="11.4191873"><ele>310.3333333333333</ele><time>2026-05-02T08:36:46.249Z</time></trkpt><trkpt lat="43.4285587" lon="11.419239"><ele>310.6666666666667</ele><time>2026-05-02T08:36:47.249Z</time></trkpt><trkpt lat="43.4284028" lon="11.419323"><ele>311.0</ele><time>2026-05-02T08:36:48.25Z</time></trkpt><trkpt lat="43.4282538" lon="11.4194387"><ele>311.0</ele><time>2026-05-02T08:36:49.249Z</time></trkpt><trkpt lat="43.4281098" lon="11.419585"><ele>311.0</ele><time>2026-05-02T08:36:50.247Z</time></trkpt><trkpt lat="43.4279777" lon="11.419743"><ele>311.0</ele><time>2026-05-02T08:36:51.247Z</time></trkpt><trkpt lat="43.4278698" lon="11.4199013"><ele>311.0</ele><time>2026-05-02T08:36:52.248Z</time></trkpt><trkpt lat="43.4277873" lon="11.4200628"><ele>311.0</ele><time>2026-05-02T08:36:53.247Z</time></trkpt><trkpt lat="43.4277435" lon="11.4202272"><ele>311.0</ele><time>2026-05-02T08:36:54.247Z</time></trkpt><trkpt lat="43.4277448" lon="11.4204018"><ele>311.0</ele><time>2026-05-02T08:36:55.246Z</time></trkpt><trkpt lat="43.4277753" lon="11.4205943"><ele>311.0</ele><time>2026-05-02T08:36:56.25Z</time></trkpt><trkpt lat="43.427813" lon="11.4208043"><ele>311.0</ele><time>2026-05-02T08:36:57.248Z</time></trkpt><trkpt lat="43.4278458" lon="11.4210272"><ele>311.0</ele><time>2026-05-02T08:36:58.252Z</time></trkpt><trkpt lat="43.4278615" lon="11.4212692"><ele>310.6666666666667</ele><time>2026-05-02T08:36:59.248Z</time></trkpt><trkpt lat="43.4278558" lon="11.42152"><ele>310.3333333333333</ele><time>2026-05-02T08:37:00.25Z</time></trkpt><trkpt lat="43.4278317" lon="11.4217663"><ele>310.0</ele><time>2026-05-02T08:37:01.241Z</time></trkpt><trkpt lat="43.4277903" lon="11.4219978"><ele>312.66666666666663</ele><time>2026-05-02T08:37:02.248Z</time></trkpt><trkpt lat="43.4277323" lon="11.4222122"><ele>315.3333333333333</ele><time>2026-05-02T08:37:03.248Z</time></trkpt><trkpt lat="43.4276613" lon="11.4224003"><ele>318.0</ele><time>2026-05-02T08:37:04.247Z</time></trkpt><trkpt lat="43.4275793" lon="11.4225527"><ele>318.0</ele><time>2026-05-02T08:37:05.246Z</time></trkpt><trkpt lat="43.4274755" lon="11.4226582"><ele>318.0</ele><time>2026-05-02T08:37:06.247Z</time></trkpt><trkpt lat="43.4273522" lon="11.4227233"><ele>318.0</ele><time>2026-05-02T08:37:07.246Z</time></trkpt><trkpt lat="43.4272088" lon="11.4227687"><ele>318.0</ele><time>2026-05-02T08:37:08.248Z</time></trkpt><trkpt lat="43.4270552" lon="11.422802"><ele>316.6666666666667</ele><time>2026-05-02T08:37:09.248Z</time></trkpt><trkpt lat="43.4268935" lon="11.4228262"><ele>315.33333333333337</ele><time>2026-05-02T08:37:10.249Z</time></trkpt><trkpt lat="43.4267298" lon="11.4228555"><ele>314.0</ele><time>2026-05-02T08:37:11.251Z</time></trkpt><trkpt lat="43.426574" lon="11.4228923"><ele>314.0</ele><time>2026-05-02T08:37:12.248Z</time></trkpt><trkpt lat="43.4264323" lon="11.4229417"><ele>314.0</ele><time>2026-05-02T08:37:13.25Z</time></trkpt><trkpt lat="43.4263132" lon="11.4230132"><ele>314.0</ele><time>2026-05-02T08:37:14.25Z</time></trkpt><trkpt lat="43.4262245" lon="11.4231178"><ele>314.0</ele><time>2026-05-02T08:37:15.25Z</time></trkpt><trkpt lat="43.4261748" lon="11.4232582"><ele>314.25</ele><time>2026-05-02T08:37:16.25Z</time></trkpt><trkpt lat="43.4261708" lon="11.4234237"><ele>314.5</ele><time>2026-05-02T08:37:17.251Z</time></trkpt><trkpt lat="43.4262015" lon="11.4236093"><ele>314.75</ele><time>2026-05-02T08:37:18.249Z</time></trkpt><trkpt lat="43.4262532" lon="11.423817"><ele>315.0</ele><time>2026-05-02T08:37:19.249Z</time></trkpt><trkpt lat="43.4263085" lon="11.424051"><ele>319.6666666666667</ele><time>2026-05-02T08:37:20.25Z</time></trkpt><trkpt lat="43.4263613" lon="11.4242995"><ele>324.33333333333337</ele><time>2026-05-02T08:37:21.25Z</time></trkpt><trkpt lat="43.426417" lon="11.4245627"><ele>329.0</ele><time>2026-05-02T08:37:22.249Z</time></trkpt><trkpt lat="43.4264707" lon="11.4248155"><ele>329.0</ele><time>2026-05-02T08:37:23.252Z</time></trkpt><trkpt lat="43.4265177" lon="11.4250502"><ele>329.0</ele><time>2026-05-02T08:37:24.249Z</time></trkpt><trkpt lat="43.4265535" lon="11.4252832"><ele>329.0</ele><time>2026-05-02T08:37:25.25Z</time></trkpt><trkpt lat="43.4265663" lon="11.4255312"><ele>329.33333333333337</ele><time>2026-05-02T08:37:26.252Z</time></trkpt><trkpt lat="43.4265542" lon="11.4257952"><ele>329.6666666666667</ele><time>2026-05-02T08:37:27.25Z</time></trkpt><trkpt lat="43.4265255" lon="11.4260653"><ele>330.0</ele><time>2026-05-02T08:37:28.249Z</time></trkpt><trkpt lat="43.4264808" lon="11.4263322"><ele>330.3333333333333</ele><time>2026-05-02T08:37:29.252Z</time></trkpt><trkpt lat="43.4264223" lon="11.4265893"><ele>330.66666666666663</ele><time>2026-05-02T08:37:30.25Z</time></trkpt><trkpt lat="43.426346" lon="11.426825"><ele>331.0</ele><time>2026-05-02T08:37:31.253Z</time></trkpt><trkpt lat="43.4262452" lon="11.4270278"><ele>330.0</ele><time>2026-05-02T08:37:32.251Z</time></trkpt><trkpt lat="43.426134" lon="11.4271925"><ele>329.0</ele><time>2026-05-02T08:37:33.249Z</time></trkpt><trkpt lat="43.4260302" lon="11.4273375"><ele>328.0</ele><time>2026-05-02T08:37:34.25Z</time></trkpt><trkpt lat="43.4259537" lon="11.4274953"><ele>327.0</ele><time>2026-05-02T08:37:35.249Z</time></trkpt><trkpt lat="43.4259203" lon="11.4276863"><ele>327.0</ele><time>2026-05-02T08:37:36.251Z</time></trkpt><trkpt lat="43.4259157" lon="11.427914"><ele>327.0</ele><time>2026-05-02T08:37:37.247Z</time></trkpt><trkpt lat="43.4259178" lon="11.4281745"><ele>327.0</ele><time>2026-05-02T08:37:38.249Z</time></trkpt><trkpt lat="43.4259222" lon="11.4284555"><ele>327.3333333333333</ele><time>2026-05-02T08:37:39.252Z</time></trkpt><trkpt lat="43.4259262" lon="11.4287457"><ele>327.66666666666663</ele><time>2026-05-02T08:37:40.251Z</time></trkpt><trkpt lat="43.4259292" lon="11.4290433"><ele>328.0</ele><time>2026-05-02T08:37:41.252Z</time></trkpt><trkpt lat="43.4259312" lon="11.4293292"><ele>329.3333333333333</ele><time>2026-05-02T08:37:42.252Z</time></trkpt><trkpt lat="43.4259313" lon="11.429595"><ele>330.6666666666667</ele><time>2026-05-02T08:37:43.253Z</time></trkpt><trkpt lat="43.4259312" lon="11.4298432"><ele>332.0</ele><time>2026-05-02T08:37:44.253Z</time></trkpt><trkpt lat="43.4259265" lon="11.4300768"><ele>332.0</ele><time>2026-05-02T08:37:45.253Z</time></trkpt><trkpt lat="43.4259082" lon="11.4303082"><ele>332.0</ele><time>2026-05-02T08:37:46.253Z</time></trkpt><trkpt lat="43.4258672" lon="11.4305408"><ele>332.0</ele><time>2026-05-02T08:37:47.252Z</time></trkpt><trkpt lat="43.4257978" lon="11.4307758"><ele>332.6666666666667</ele><time>2026-05-02T08:37:48.251Z</time></trkpt><trkpt lat="43.425713" lon="11.4310123"><ele>333.3333333333333</ele><time>2026-05-02T08:37:49.251Z</time></trkpt><trkpt lat="43.4256315" lon="11.431232"><ele>334.0</ele><time>2026-05-02T08:37:50.251Z</time></trkpt><trkpt lat="43.4255583" lon="11.4314295"><ele>335.5</ele><time>2026-05-02T08:37:51.248Z</time></trkpt><trkpt lat="43.4254948" lon="11.4316075"><ele>337.0</ele><time>2026-05-02T08:37:52.248Z</time></trkpt><trkpt lat="43.4254388" lon="11.4317687"><ele>338.5</ele><time>2026-05-02T08:37:53.249Z</time></trkpt><trkpt lat="43.4253898" lon="11.4319133"><ele>340.0</ele><time>2026-05-02T08:37:54.25Z</time></trkpt><trkpt lat="43.425341" lon="11.4320387"><ele>340.0</ele><time>2026-05-02T08:37:55.253Z</time></trkpt><trkpt lat="43.4252788" lon="11.432137"><ele>340.0</ele><time>2026-05-02T08:37:56.253Z</time></trkpt><trkpt lat="43.4251973" lon="11.4321938"><ele>340.0</ele><time>2026-05-02T08:37:57.251Z</time></trkpt><trkpt lat="43.425106" lon="11.4322335"><ele>340.0</ele><time>2026-05-02T08:37:58.25Z</time></trkpt><trkpt lat="43.4250218" lon="11.432301"><ele>340.0</ele><time>2026-05-02T08:37:59.251Z</time></trkpt><trkpt lat="43.4249503" lon="11.4324142"><ele>340.0</ele><time>2026-05-02T08:38:00.249Z</time></trkpt><trkpt lat="43.4248827" lon="11.4325732"><ele>340.0</ele><time>2026-05-02T08:38:01.251Z</time></trkpt><trkpt lat="43.4248145" lon="11.4327582"><ele>340.0</ele><time>2026-05-02T08:38:02.251Z</time></trkpt><trkpt lat="43.4247435" lon="11.4329492"><ele>340.0</ele><time>2026-05-02T08:38:03.248Z</time></trkpt><trkpt lat="43.4246648" lon="11.4331555"><ele>343.66666666666663</ele><time>2026-05-02T08:38:04.248Z</time></trkpt><trkpt lat="43.4245812" lon="11.4333723"><ele>347.3333333333333</ele><time>2026-05-02T08:38:05.247Z</time></trkpt><trkpt lat="43.4245003" lon="11.4335935"><ele>351.0</ele><time>2026-05-02T08:38:06.248Z</time></trkpt><trkpt lat="43.4244338" lon="11.4338143"><ele>351.0</ele><time>2026-05-02T08:38:07.25Z</time></trkpt><trkpt lat="43.42439" lon="11.4340247"><ele>351.0</ele><time>2026-05-02T08:38:08.251Z</time></trkpt><trkpt lat="43.4243647" lon="11.4342198"><ele>351.0</ele><time>2026-05-02T08:38:09.249Z</time></trkpt><trkpt lat="43.4243545" lon="11.4344"><ele>351.0</ele><time>2026-05-02T08:38:10.25Z</time></trkpt><trkpt lat="43.4243653" lon="11.4345717"><ele>350.5</ele><time>2026-05-02T08:38:11.247Z</time></trkpt><trkpt lat="43.4244103" lon="11.4347367"><ele>350.0</ele><time>2026-05-02T08:38:12.249Z</time></trkpt><trkpt lat="43.4244925" lon="11.4348855"><ele>349.5</ele><time>2026-05-02T08:38:13.251Z</time></trkpt><trkpt lat="43.4246105" lon="11.4350148"><ele>349.0</ele><time>2026-05-02T08:38:14.247Z</time></trkpt><trkpt lat="43.4247603" lon="11.4351258"><ele>347.0</ele><time>2026-05-02T08:38:15.245Z</time></trkpt><trkpt lat="43.4249218" lon="11.4352288"><ele>345.0</ele><time>2026-05-02T08:38:16.247Z</time></trkpt><trkpt lat="43.4250695" lon="11.4353255"><ele>343.0</ele><time>2026-05-02T08:38:17.245Z</time></trkpt><trkpt lat="43.4251968" lon="11.4354317"><ele>345.25</ele><time>2026-05-02T08:38:18.246Z</time></trkpt><trkpt lat="43.4252927" lon="11.4355572"><ele>347.5</ele><time>2026-05-02T08:38:19.248Z</time></trkpt><trkpt lat="43.4253357" lon="11.4357003"><ele>349.75</ele><time>2026-05-02T08:38:20.249Z</time></trkpt><trkpt lat="43.4253158" lon="11.435845"><ele>352.0</ele><time>2026-05-02T08:38:21.251Z</time></trkpt><trkpt lat="43.4252497" lon="11.4359782"><ele>352.0</ele><time>2026-05-02T08:38:22.251Z</time></trkpt><trkpt lat="43.4251575" lon="11.4361205"><ele>352.0</ele><time>2026-05-02T08:38:23.252Z</time></trkpt><trkpt lat="43.4250723" lon="11.4362903"><ele>352.0</ele><time>2026-05-02T08:38:24.249Z</time></trkpt><trkpt lat="43.4250052" lon="11.4364892"><ele>352.0</ele><time>2026-05-02T08:38:25.247Z</time></trkpt><trkpt lat="43.4249627" lon="11.4367175"><ele>353.0</ele><time>2026-05-02T08:38:26.248Z</time></trkpt><trkpt lat="43.4249377" lon="11.4369695"><ele>354.0</ele><time>2026-05-02T08:38:27.247Z</time></trkpt><trkpt lat="43.4249283" lon="11.4372285"><ele>355.0</ele><time>2026-05-02T08:38:28.246Z</time></trkpt><trkpt lat="43.4249403" lon="11.4374928"><ele>355.0</ele><time>2026-05-02T08:38:29.248Z</time></trkpt><trkpt lat="43.424974" lon="11.4377565"><ele>355.0</ele><time>2026-05-02T08:38:30.249Z</time></trkpt><trkpt lat="43.4250315" lon="11.438036"><ele>355.0</ele><time>2026-05-02T08:38:31.251Z</time></trkpt><trkpt lat="43.4250945" lon="11.438303"><ele>357.0</ele><time>2026-05-02T08:38:32.251Z</time></trkpt><trkpt lat="43.4251538" lon="11.4385472"><ele>359.0</ele><time>2026-05-02T08:38:33.25Z</time></trkpt><trkpt lat="43.425208" lon="11.4387693"><ele>361.0</ele><time>2026-05-02T08:38:34.248Z</time></trkpt><trkpt lat="43.4252528" lon="11.4389647"><ele>359.5</ele><time>2026-05-02T08:38:35.25Z</time></trkpt><trkpt lat="43.425296" lon="11.4391258"><ele>358.0</ele><time>2026-05-02T08:38:36.247Z</time></trkpt><trkpt lat="43.4253662" lon="11.4392412"><ele>356.5</ele><time>2026-05-02T08:38:37.248Z</time></trkpt><trkpt lat="43.4254658" lon="11.439307"><ele>355.0</ele><time>2026-05-02T08:38:38.247Z</time></trkpt><trkpt lat="43.4255902" lon="11.4393183"><ele>355.0</ele><time>2026-05-02T08:38:39.25Z</time></trkpt><trkpt lat="43.4257247" lon="11.439311"><ele>355.0</ele><time>2026-05-02T08:38:40.246Z</time></trkpt><trkpt lat="43.4258467" lon="11.4393415"><ele>355.0</ele><time>2026-05-02T08:38:41.246Z</time></trkpt><trkpt lat="43.4259545" lon="11.4394343"><ele>355.0</ele><time>2026-05-02T08:38:42.25Z</time></trkpt><trkpt lat="43.4260333" lon="11.43958"><ele>357.0</ele><time>2026-05-02T08:38:43.251Z</time></trkpt><trkpt lat="43.4260772" lon="11.4397645"><ele>359.0</ele><time>2026-05-02T08:38:44.252Z</time></trkpt><trkpt lat="43.4260997" lon="11.4399765"><ele>361.0</ele><time>2026-05-02T08:38:45.248Z</time></trkpt><trkpt lat="43.426113" lon="11.4402103"><ele>361.0</ele><time>2026-05-02T08:38:46.253Z</time></trkpt><trkpt lat="43.426126" lon="11.4404457"><ele>361.0</ele><time>2026-05-02T08:38:47.253Z</time></trkpt><trkpt lat="43.4261373" lon="11.4406732"><ele>361.0</ele><time>2026-05-02T08:38:48.254Z</time></trkpt><trkpt lat="43.4261453" lon="11.440878"><ele>361.75</ele><time>2026-05-02T08:38:49.252Z</time></trkpt><trkpt lat="43.4261467" lon="11.441064"><ele>362.5</ele><time>2026-05-02T08:38:50.248Z</time></trkpt><trkpt lat="43.4261247" lon="11.4412283"><ele>363.25</ele><time>2026-05-02T08:38:51.25Z</time></trkpt><trkpt lat="43.426066" lon="11.441365"><ele>364.0</ele><time>2026-05-02T08:38:52.25Z</time></trkpt><trkpt lat="43.4259682" lon="11.4414678"><ele>364.0</ele><time>2026-05-02T08:38:53.249Z</time></trkpt><trkpt lat="43.425838" lon="11.4415507"><ele>364.0</ele><time>2026-05-02T08:38:54.248Z</time></trkpt><trkpt lat="43.4256915" lon="11.4416265"><ele>364.0</ele><time>2026-05-02T08:38:55.248Z</time></trkpt><trkpt lat="43.4255405" lon="11.4417032"><ele>366.66666666666663</ele><time>2026-05-02T08:38:56.251Z</time></trkpt><trkpt lat="43.4253968" lon="11.4417907"><ele>369.3333333333333</ele><time>2026-05-02T08:38:57.251Z</time></trkpt><trkpt lat="43.4252635" lon="11.4419027"><ele>372.0</ele><time>2026-05-02T08:38:58.25Z</time></trkpt><trkpt lat="43.4251478" lon="11.442059"><ele>371.0</ele><time>2026-05-02T08:38:59.252Z</time></trkpt><trkpt lat="43.4250537" lon="11.4422538"><ele>370.0</ele><time>2026-05-02T08:39:00.25Z</time></trkpt><trkpt lat="43.4249728" lon="11.4424768"><ele>369.0</ele><time>2026-05-02T08:39:01.25Z</time></trkpt><trkpt lat="43.4249068" lon="11.4427162"><ele>368.6666666666667</ele><time>2026-05-02T08:39:02.25Z</time></trkpt><trkpt lat="43.4248667" lon="11.4429677"><ele>368.33333333333337</ele><time>2026-05-02T08:39:03.249Z</time></trkpt><trkpt lat="43.4248493" lon="11.4432178"><ele>368.0</ele><time>2026-05-02T08:39:04.247Z</time></trkpt><trkpt lat="43.4248385" lon="11.443444"><ele>368.0</ele><time>2026-05-02T08:39:05.247Z</time></trkpt><trkpt lat="43.4248163" lon="11.443647"><ele>368.0</ele><time>2026-05-02T08:39:06.246Z</time></trkpt><trkpt lat="43.4247647" lon="11.44383"><ele>368.0</ele><time>2026-05-02T08:39:07.247Z</time></trkpt><trkpt lat="43.424681" lon="11.443998"><ele>368.0</ele><time>2026-05-02T08:39:08.248Z</time></trkpt><trkpt lat="43.4245713" lon="11.4441543"><ele>372.0</ele><time>2026-05-02T08:39:09.248Z</time></trkpt><trkpt lat="43.4244565" lon="11.4443198"><ele>376.0</ele><time>2026-05-02T08:39:10.25Z</time></trkpt><trkpt lat="43.4243487" lon="11.4445113"><ele>380.0</ele><time>2026-05-02T08:39:11.251Z</time></trkpt><trkpt lat="43.4242493" lon="11.4447252"><ele>380.0</ele><time>2026-05-02T08:39:12.247Z</time></trkpt><trkpt lat="43.4241552" lon="11.4449448"><ele>380.0</ele><time>2026-05-02T08:39:13.252Z</time></trkpt><trkpt lat="43.4240685" lon="11.4451495"><ele>380.0</ele><time>2026-05-02T08:39:14.253Z</time></trkpt><trkpt lat="43.4239927" lon="11.445335"><ele>380.0</ele><time>2026-05-02T08:39:15.252Z</time></trkpt><trkpt lat="43.4239305" lon="11.4455055"><ele>380.0</ele><time>2026-05-02T08:39:16.251Z</time></trkpt><trkpt lat="43.4238852" lon="11.4456632"><ele>380.0</ele><time>2026-05-02T08:39:17.249Z</time></trkpt><trkpt lat="43.4238728" lon="11.445812"><ele>380.0</ele><time>2026-05-02T08:39:18.249Z</time></trkpt><trkpt lat="43.4238957" lon="11.4459452"><ele>380.0</ele><time>2026-05-02T08:39:19.249Z</time></trkpt><trkpt lat="43.4239617" lon="11.4460412"><ele>380.0</ele><time>2026-05-02T08:39:20.248Z</time></trkpt><trkpt lat="43.4240578" lon="11.4461013"><ele>380.0</ele><time>2026-05-02T08:39:21.247Z</time></trkpt><trkpt lat="43.4241788" lon="11.4461452"><ele>380.0</ele><time>2026-05-02T08:39:22.248Z</time></trkpt><trkpt lat="43.4242975" lon="11.4462337"><ele>382.5</ele><time>2026-05-02T08:39:23.246Z</time></trkpt><trkpt lat="43.4243928" lon="11.44637"><ele>385.0</ele><time>2026-05-02T08:39:24.248Z</time></trkpt><trkpt lat="43.4244493" lon="11.4465465"><ele>387.5</ele><time>2026-05-02T08:39:25.248Z</time></trkpt><trkpt lat="43.4244625" lon="11.4467488"><ele>390.0</ele><time>2026-05-02T08:39:26.251Z</time></trkpt><trkpt lat="43.4244508" lon="11.4469578"><ele>391.33333333333337</ele><time>2026-05-02T08:39:27.25Z</time></trkpt><trkpt lat="43.4244128" lon="11.4471645"><ele>392.6666666666667</ele><time>2026-05-02T08:39:28.249Z</time></trkpt><trkpt lat="43.424345" lon="11.4473603"><ele>394.0</ele><time>2026-05-02T08:39:29.246Z</time></trkpt><trkpt lat="43.4242397" lon="11.4475312"><ele>394.0</ele><time>2026-05-02T08:39:30.249Z</time></trkpt><trkpt lat="43.4241088" lon="11.4476787"><ele>394.0</ele><time>2026-05-02T08:39:31.249Z</time></trkpt><trkpt lat="43.4239843" lon="11.4478225"><ele>394.0</ele><time>2026-05-02T08:39:32.248Z</time></trkpt><trkpt lat="43.423883" lon="11.4479732"><ele>393.5</ele><time>2026-05-02T08:39:33.246Z</time></trkpt><trkpt lat="43.4238243" lon="11.4481412"><ele>393.0</ele><time>2026-05-02T08:39:34.249Z</time></trkpt><trkpt lat="43.423815" lon="11.448323"><ele>392.5</ele><time>2026-05-02T08:39:35.25Z</time></trkpt><trkpt lat="43.4238483" lon="11.4485135"><ele>392.0</ele><time>2026-05-02T08:39:36.247Z</time></trkpt><trkpt lat="43.4239053" lon="11.4487183"><ele>392.0</ele><time>2026-05-02T08:39:37.249Z</time></trkpt><trkpt lat="43.4239583" lon="11.4489292"><ele>392.0</ele><time>2026-05-02T08:39:38.251Z</time></trkpt><trkpt lat="43.423984" lon="11.4491423"><ele>392.0</ele><time>2026-05-02T08:39:39.25Z</time></trkpt><trkpt lat="43.423974" lon="11.4493577"><ele>392.0</ele><time>2026-05-02T08:39:40.252Z</time></trkpt><trkpt lat="43.4239378" lon="11.4495668"><ele>392.0</ele><time>2026-05-02T08:39:41.252Z</time></trkpt><trkpt lat="43.423874" lon="11.4497623"><ele>392.0</ele><time>2026-05-02T08:39:42.251Z</time></trkpt><trkpt lat="43.4237813" lon="11.449942"><ele>393.66666666666663</ele><time>2026-05-02T08:39:43.246Z</time></trkpt><trkpt lat="43.4236657" lon="11.4501118"><ele>395.33333333333337</ele><time>2026-05-02T08:39:44.247Z</time></trkpt><trkpt lat="43.423547" lon="11.4502863"><ele>397.0</ele><time>2026-05-02T08:39:45.248Z</time></trkpt><trkpt lat="43.4234238" lon="11.450462"><ele>397.0</ele><time>2026-05-02T08:39:46.249Z</time></trkpt><trkpt lat="43.4232898" lon="11.4506268"><ele>397.0</ele><time>2026-05-02T08:39:47.25Z</time></trkpt><trkpt lat="43.4231418" lon="11.450775"><ele>397.0</ele><time>2026-05-02T08:39:48.25Z</time></trkpt><trkpt lat="43.4229882" lon="11.4509178"><ele>404.6666666666667</ele><time>2026-05-02T08:39:49.247Z</time></trkpt><trkpt lat="43.4228378" lon="11.451049"><ele>412.33333333333337</ele><time>2026-05-02T08:39:50.247Z</time></trkpt><trkpt lat="43.4226895" lon="11.451153"><ele>420.0</ele><time>2026-05-02T08:39:51.247Z</time></trkpt><trkpt lat="43.4225368" lon="11.4512307"><ele>420.0</ele><time>2026-05-02T08:39:52.246Z</time></trkpt><trkpt lat="43.4223792" lon="11.4512787"><ele>420.0</ele><time>2026-05-02T08:39:53.245Z</time></trkpt><trkpt lat="43.4222267" lon="11.451297"><ele>420.0</ele><time>2026-05-02T08:39:54.243Z</time></trkpt><trkpt lat="43.422092" lon="11.4513128"><ele>422.0</ele><time>2026-05-02T08:39:55.243Z</time></trkpt><trkpt lat="43.4219725" lon="11.4513517"><ele>424.0</ele><time>2026-05-02T08:39:56.243Z</time></trkpt><trkpt lat="43.4218768" lon="11.4514328"><ele>426.0</ele><time>2026-05-02T08:39:57.245Z</time></trkpt><trkpt lat="43.4218123" lon="11.451564"><ele>428.0</ele><time>2026-05-02T08:39:58.246Z</time></trkpt><trkpt lat="43.421786" lon="11.4517227"><ele>428.0</ele><time>2026-05-02T08:39:59.247Z</time></trkpt><trkpt lat="43.4217838" lon="11.451898"><ele>428.0</ele><time>2026-05-02T08:40:00.247Z</time></trkpt><trkpt lat="43.4217748" lon="11.45208"><ele>428.0</ele><time>2026-05-02T08:40:01.248Z</time></trkpt><trkpt lat="43.4217357" lon="11.4522602"><ele>428.0</ele><time>2026-05-02T08:40:02.246Z</time></trkpt><trkpt lat="43.4216787" lon="11.4524275"><ele>425.75</ele><time>2026-05-02T08:40:03.246Z</time></trkpt><trkpt lat="43.421627" lon="11.45258"><ele>423.5</ele><time>2026-05-02T08:40:04.248Z</time></trkpt><trkpt lat="43.4215943" lon="11.4527307"><ele>421.25</ele><time>2026-05-02T08:40:05.249Z</time></trkpt><trkpt lat="43.421589" lon="11.4528958"><ele>419.0</ele><time>2026-05-02T08:40:06.246Z</time></trkpt><trkpt lat="43.4216253" lon="11.4530587"><ele>418.0</ele><time>2026-05-02T08:40:07.247Z</time></trkpt><trkpt lat="43.4216955" lon="11.453209"><ele>417.0</ele><time>2026-05-02T08:40:08.248Z</time></trkpt><trkpt lat="43.4217778" lon="11.4533477"><ele>416.0</ele><time>2026-05-02T08:40:09.248Z</time></trkpt><trkpt lat="43.4218313" lon="11.4535097"><ele>415.0</ele><time>2026-05-02T08:40:10.249Z</time></trkpt><trkpt lat="43.4218443" lon="11.4536807"><ele>414.5</ele><time>2026-05-02T08:40:11.248Z</time></trkpt><trkpt lat="43.421812" lon="11.4538538"><ele>414.0</ele><time>2026-05-02T08:40:12.25Z</time></trkpt><trkpt lat="43.4217455" lon="11.4540167"><ele>413.5</ele><time>2026-05-02T08:40:13.25Z</time></trkpt><trkpt lat="43.4216413" lon="11.4541593"><ele>413.0</ele><time>2026-05-02T08:40:14.251Z</time></trkpt><trkpt lat="43.421512" lon="11.4542838"><ele>413.0</ele><time>2026-05-02T08:40:15.249Z</time></trkpt><trkpt lat="43.421371" lon="11.4543975"><ele>413.0</ele><time>2026-05-02T08:40:16.248Z</time></trkpt><trkpt lat="43.4212295" lon="11.4545092"><ele>413.0</ele><time>2026-05-02T08:40:17.247Z</time></trkpt><trkpt lat="43.4210953" lon="11.4546322"><ele>416.0</ele><time>2026-05-02T08:40:18.247Z</time></trkpt><trkpt lat="43.4209775" lon="11.4547978"><ele>419.0</ele><time>2026-05-02T08:40:19.248Z</time></trkpt><trkpt lat="43.4208682" lon="11.455"><ele>422.0</ele><time>2026-05-02T08:40:20.246Z</time></trkpt><trkpt lat="43.4207433" lon="11.4552038"><ele>422.0</ele><time>2026-05-02T08:40:21.242Z</time></trkpt><trkpt lat="43.4206077" lon="11.4553997"><ele>422.0</ele><time>2026-05-02T08:40:22.246Z</time></trkpt><trkpt lat="43.4204728" lon="11.4555868"><ele>422.0</ele><time>2026-05-02T08:40:23.245Z</time></trkpt><trkpt lat="43.420342" lon="11.4557708"><ele>422.3333333333333</ele><time>2026-05-02T08:40:24.246Z</time></trkpt><trkpt lat="43.4202138" lon="11.4559492"><ele>422.66666666666663</ele><time>2026-05-02T08:40:25.245Z</time></trkpt><trkpt lat="43.420094" lon="11.4561285"><ele>423.0</ele><time>2026-05-02T08:40:26.247Z</time></trkpt><trkpt lat="43.419975" lon="11.4563057"><ele>423.0</ele><time>2026-05-02T08:40:27.248Z</time></trkpt><trkpt lat="43.4198632" lon="11.4564663"><ele>423.0</ele><time>2026-05-02T08:40:28.247Z</time></trkpt><trkpt lat="43.4197522" lon="11.456609"><ele>423.0</ele><time>2026-05-02T08:40:29.248Z</time></trkpt><trkpt lat="43.4196317" lon="11.456724"><ele>426.25</ele><time>2026-05-02T08:40:30.248Z</time></trkpt><trkpt lat="43.4194943" lon="11.4567963"><ele>429.5</ele><time>2026-05-02T08:40:31.249Z</time></trkpt><trkpt lat="43.4193607" lon="11.4568338"><ele>432.75</ele><time>2026-05-02T08:40:32.248Z</time></trkpt><trkpt lat="43.4192377" lon="11.4568742"><ele>436.0</ele><time>2026-05-02T08:40:33.245Z</time></trkpt><trkpt lat="43.4191377" lon="11.456955"><ele>436.0</ele><time>2026-05-02T08:40:34.248Z</time></trkpt><trkpt lat="43.4190693" lon="11.457083"><ele>436.0</ele><time>2026-05-02T08:40:35.25Z</time></trkpt><trkpt lat="43.4190302" lon="11.4572388"><ele>436.0</ele><time>2026-05-02T08:40:36.248Z</time></trkpt><trkpt lat="43.4190067" lon="11.4574115"><ele>436.0</ele><time>2026-05-02T08:40:37.248Z</time></trkpt><trkpt lat="43.4189612" lon="11.4575767"><ele>435.25</ele><time>2026-05-02T08:40:38.248Z</time></trkpt><trkpt lat="43.4188788" lon="11.4577128"><ele>434.5</ele><time>2026-05-02T08:40:39.246Z</time></trkpt><trkpt lat="43.4187633" lon="11.4578232"><ele>433.75</ele><time>2026-05-02T08:40:40.247Z</time></trkpt><trkpt lat="43.41863" lon="11.4579293"><ele>433.0</ele><time>2026-05-02T08:40:41.247Z</time></trkpt><trkpt lat="43.4184938" lon="11.4580387"><ele>433.0</ele><time>2026-05-02T08:40:42.246Z</time></trkpt><trkpt lat="43.4183605" lon="11.4581492"><ele>433.0</ele><time>2026-05-02T08:40:43.248Z</time></trkpt><trkpt lat="43.4182323" lon="11.4582505"><ele>433.0</ele><time>2026-05-02T08:40:44.25Z</time></trkpt><trkpt lat="43.418109" lon="11.4583255"><ele>433.0</ele><time>2026-05-02T08:40:45.245Z</time></trkpt><trkpt lat="43.417979" lon="11.4583675"><ele>434.5</ele><time>2026-05-02T08:40:46.245Z</time></trkpt><trkpt lat="43.4178422" lon="11.4583647"><ele>436.0</ele><time>2026-05-02T08:40:47.245Z</time></trkpt><trkpt lat="43.417705" lon="11.4583175"><ele>437.5</ele><time>2026-05-02T08:40:48.246Z</time></trkpt><trkpt lat="43.417568" lon="11.4582315"><ele>439.0</ele><time>2026-05-02T08:40:49.251Z</time></trkpt><trkpt lat="43.4174343" lon="11.4581363"><ele>439.0</ele><time>2026-05-02T08:40:50.25Z</time></trkpt><trkpt lat="43.4172982" lon="11.4580613"><ele>439.0</ele><time>2026-05-02T08:40:51.251Z</time></trkpt><trkpt lat="43.4171562" lon="11.4580187"><ele>439.0</ele><time>2026-05-02T08:40:52.25Z</time></trkpt><trkpt lat="43.4170098" lon="11.4579985"><ele>439.0</ele><time>2026-05-02T08:40:53.249Z</time></trkpt><trkpt lat="43.4168687" lon="11.4579822"><ele>439.4</ele><time>2026-05-02T08:40:54.249Z</time></trkpt><trkpt lat="43.4167393" lon="11.4579693"><ele>439.79999999999995</ele><time>2026-05-02T08:40:55.249Z</time></trkpt><trkpt lat="43.4166223" lon="11.4579682"><ele>440.20000000000005</ele><time>2026-05-02T08:40:56.248Z</time></trkpt><trkpt lat="43.4165158" lon="11.457985"><ele>440.6</ele><time>2026-05-02T08:40:57.248Z</time></trkpt><trkpt lat="43.416428" lon="11.458018"><ele>441.0</ele><time>2026-05-02T08:40:58.249Z</time></trkpt><trkpt lat="43.416361" lon="11.458061"><ele>441.8333333333333</ele><time>2026-05-02T08:40:59.25Z</time></trkpt><trkpt lat="43.416306" lon="11.4581068"><ele>442.66666666666663</ele><time>2026-05-02T08:41:00.25Z</time></trkpt><trkpt lat="43.4162097" lon="11.4582043"><ele>443.5</ele><time>2026-05-02T08:41:02.253Z</time></trkpt><trkpt lat="43.4161605" lon="11.458259"><ele>444.3333333333333</ele><time>2026-05-02T08:41:03.248Z</time></trkpt><trkpt lat="43.4161127" lon="11.4583155"><ele>445.16666666666663</ele><time>2026-05-02T08:41:04.249Z</time></trkpt><trkpt lat="43.4160638" lon="11.4583843"><ele>446.0</ele><time>2026-05-02T08:41:05.249Z</time></trkpt><trkpt lat="43.4160153" lon="11.4584658"><ele>445.99999999999994</ele><time>2026-05-02T08:41:06.247Z</time></trkpt><trkpt lat="43.415974" lon="11.4585573"><ele>446.0</ele><time>2026-05-02T08:41:07.249Z</time></trkpt><trkpt lat="43.4159397" lon="11.4586595"><ele>446.0</ele><time>2026-05-02T08:41:08.253Z</time></trkpt><trkpt lat="43.4159122" lon="11.4587705"><ele>446.0</ele><time>2026-05-02T08:41:09.249Z</time></trkpt><trkpt lat="43.4158903" lon="11.4588867"><ele>445.99999999999994</ele><time>2026-05-02T08:41:10.246Z</time></trkpt><trkpt lat="43.4158757" lon="11.4589935"><ele>446.0</ele><time>2026-05-02T08:41:11.249Z</time></trkpt><trkpt lat="43.415869" lon="11.4590893"><ele>446.8</ele><time>2026-05-02T08:41:12.249Z</time></trkpt><trkpt lat="43.415868" lon="11.459241"><ele>447.6</ele><time>2026-05-02T08:41:14.248Z</time></trkpt><trkpt lat="43.4158788" lon="11.4593425"><ele>448.4</ele><time>2026-05-02T08:41:16.247Z</time></trkpt><trkpt lat="43.4159043" lon="11.4594447"><ele>449.2</ele><time>2026-05-02T08:42:02.25Z</time></trkpt><trkpt lat="43.4159062" lon="11.4595665"><ele>450.0</ele><time>2026-05-02T08:42:04.249Z</time></trkpt><trkpt lat="43.4159167" lon="11.4597452"><ele>451.1666666666667</ele><time>2026-05-02T08:42:06.248Z</time></trkpt><trkpt lat="43.4159232" lon="11.4598532"><ele>452.33333333333337</ele><time>2026-05-02T08:42:07.248Z</time></trkpt><trkpt lat="43.4159283" lon="11.459965"><ele>453.5</ele><time>2026-05-02T08:42:08.246Z</time></trkpt><trkpt lat="43.415926" lon="11.4600807"><ele>454.6666666666667</ele><time>2026-05-02T08:42:09.25Z</time></trkpt><trkpt lat="43.4159257" lon="11.4601987"><ele>455.83333333333337</ele><time>2026-05-02T08:42:10.25Z</time></trkpt><trkpt lat="43.4159325" lon="11.4603145"><ele>457.0</ele><time>2026-05-02T08:42:11.249Z</time></trkpt><trkpt lat="43.4159363" lon="11.4604287"><ele>459.33333333333337</ele><time>2026-05-02T08:42:12.247Z</time></trkpt><trkpt lat="43.4159438" lon="11.460536"><ele>461.6666666666667</ele><time>2026-05-02T08:42:13.245Z</time></trkpt><trkpt lat="43.4159582" lon="11.4606435"><ele>464.0</ele><time>2026-05-02T08:42:14.247Z</time></trkpt><trkpt lat="43.4159977" lon="11.4607375"><ele>466.33333333333337</ele><time>2026-05-02T08:42:15.247Z</time></trkpt><trkpt lat="43.4160473" lon="11.4608128"><ele>468.6666666666667</ele><time>2026-05-02T08:42:16.247Z</time></trkpt><trkpt lat="43.4160982" lon="11.4608823"><ele>471.0</ele><time>2026-05-02T08:42:17.247Z</time></trkpt><trkpt lat="43.4161498" lon="11.4609493"><ele>471.0</ele><time>2026-05-02T08:42:18.244Z</time></trkpt><trkpt lat="43.4161607" lon="11.4611153"><ele>471.0</ele><time>2026-05-02T08:42:20.244Z</time></trkpt><trkpt lat="43.4161208" lon="11.4611933"><ele>471.0</ele><time>2026-05-02T08:42:21.243Z</time></trkpt><trkpt lat="43.416069" lon="11.4612597"><ele>471.0</ele><time>2026-05-02T08:42:22.246Z</time></trkpt><trkpt lat="43.4160148" lon="11.4613177"><ele>471.0</ele><time>2026-05-02T08:42:23.245Z</time></trkpt><trkpt lat="43.4159418" lon="11.4613517"><ele>471.0</ele><time>2026-05-02T08:42:24.246Z</time></trkpt><trkpt lat="43.4158667" lon="11.4613565"><ele>471.0</ele><time>2026-05-02T08:42:25.245Z</time></trkpt><trkpt lat="43.415798" lon="11.4613277"><ele>471.0</ele><time>2026-05-02T08:42:26.245Z</time></trkpt><trkpt lat="43.4157463" lon="11.4612593"><ele>471.0</ele><time>2026-05-02T08:42:27.246Z</time></trkpt><trkpt lat="43.4157163" lon="11.4611708"><ele>471.0</ele><time>2026-05-02T08:42:28.245Z</time></trkpt><trkpt lat="43.4156978" lon="11.4610803"><ele>471.0</ele><time>2026-05-02T08:42:29.249Z</time></trkpt><trkpt lat="43.4156813" lon="11.4609935"><ele>471.0</ele><time>2026-05-02T08:42:30.249Z</time></trkpt><trkpt lat="43.4156245" lon="11.4608552"><ele>471.0</ele><time>2026-05-02T08:42:32.247Z</time></trkpt><trkpt lat="43.4155823" lon="11.4607897"><ele>471.0</ele><time>2026-05-02T08:42:33.246Z</time></trkpt><trkpt lat="43.4155198" lon="11.4607375"><ele>471.0</ele><time>2026-05-02T08:42:34.246Z</time></trkpt><trkpt lat="43.4154615" lon="11.4606865"><ele>471.0</ele><time>2026-05-02T08:42:35.246Z</time></trkpt><trkpt lat="43.4153613" lon="11.4606438"><ele>471.0</ele><time>2026-05-02T08:42:37.247Z</time></trkpt><trkpt lat="43.4153373" lon="11.4607422"><ele>471.0</ele><time>2026-05-02T08:42:40.25Z</time></trkpt><trkpt lat="43.4154087" lon="11.4608037"><ele>471.0</ele><time>2026-05-02T08:42:42.248Z</time></trkpt><trkpt lat="43.415492" lon="11.4609135"><ele>471.0</ele><time>2026-05-02T08:42:44.249Z</time></trkpt><trkpt lat="43.4155177" lon="11.4610608"><ele>471.0</ele><time>2026-05-02T08:42:46.244Z</time></trkpt><trkpt lat="43.4155075" lon="11.4611505"><ele>471.0</ele><time>2026-05-02T08:42:49.247Z</time></trkpt><trkpt lat="43.4154745" lon="11.4612757"><ele>471.0</ele><time>2026-05-02T08:42:52.247Z</time></trkpt><trkpt lat="43.4154482" lon="11.4614147"><ele>474.1666666666667</ele><time>2026-05-02T08:42:54.248Z</time></trkpt><trkpt lat="43.415433" lon="11.4615625"><ele>477.33333333333337</ele><time>2026-05-02T08:42:56.249Z</time></trkpt><trkpt lat="43.4153983" lon="11.4616667"><ele>480.5</ele><time>2026-05-02T08:42:58.245Z</time></trkpt><trkpt lat="43.415336" lon="11.4616883"><ele>483.6666666666667</ele><time>2026-05-02T08:43:00.245Z</time></trkpt><trkpt lat="43.4153005" lon="11.461613"><ele>486.83333333333337</ele><time>2026-05-02T08:43:02.246Z</time></trkpt><trkpt lat="43.4152695" lon="11.4614822"><ele>490.0</ele><time>2026-05-02T08:43:04.249Z</time></trkpt><trkpt lat="43.4151997" lon="11.4613782"><ele>490.00000000000006</ele><time>2026-05-02T08:43:06.247Z</time></trkpt><trkpt lat="43.415104" lon="11.4613748"><ele>490.0</ele><time>2026-05-02T08:43:08.246Z</time></trkpt><trkpt lat="43.4150507" lon="11.461458"><ele>490.0</ele><time>2026-05-02T08:43:10.244Z</time></trkpt><trkpt lat="43.4150218" lon="11.4616208"><ele>490.0</ele><time>2026-05-02T08:43:12.244Z</time></trkpt><trkpt lat="43.415008" lon="11.4617152"><ele>490.00000000000006</ele><time>2026-05-02T08:43:13.246Z</time></trkpt><trkpt lat="43.4149882" lon="11.4618125"><ele>490.0</ele><time>2026-05-02T08:43:14.249Z</time></trkpt><trkpt lat="43.4149508" lon="11.4619118"><ele>490.0</ele><time>2026-05-02T08:43:15.249Z</time></trkpt><trkpt lat="43.4149003" lon="11.4620028"><ele>490.0</ele><time>2026-05-02T08:43:16.247Z</time></trkpt><trkpt lat="43.4148502" lon="11.4620817"><ele>490.0</ele><time>2026-05-02T08:43:17.245Z</time></trkpt><trkpt lat="43.4148093" lon="11.4621608"><ele>490.0</ele><time>2026-05-02T08:43:18.246Z</time></trkpt><trkpt lat="43.4147878" lon="11.4622465"><ele>490.0</ele><time>2026-05-02T08:43:19.249Z</time></trkpt><trkpt lat="43.4147743" lon="11.4623377"><ele>490.0</ele><time>2026-05-02T08:43:20.248Z</time></trkpt><trkpt lat="43.4147562" lon="11.4624332"><ele>490.0</ele><time>2026-05-02T08:43:21.248Z</time></trkpt><trkpt lat="43.414732" lon="11.4625313"><ele>491.33333333333337</ele><time>2026-05-02T08:43:22.247Z</time></trkpt><trkpt lat="43.4146935" lon="11.462636"><ele>492.6666666666667</ele><time>2026-05-02T08:43:23.245Z</time></trkpt><trkpt lat="43.4146668" lon="11.4627417"><ele>494.0</ele><time>2026-05-02T08:43:24.245Z</time></trkpt><trkpt lat="43.4146485" lon="11.4628478"><ele>495.33333333333337</ele><time>2026-05-02T08:43:25.245Z</time></trkpt><trkpt lat="43.4146527" lon="11.4629558"><ele>496.6666666666667</ele><time>2026-05-02T08:43:26.244Z</time></trkpt><trkpt lat="43.4146543" lon="11.4630765"><ele>498.0</ele><time>2026-05-02T08:43:27.245Z</time></trkpt><trkpt lat="43.4146653" lon="11.4631957"><ele>500.0</ele><time>2026-05-02T08:43:28.245Z</time></trkpt><trkpt lat="43.4146667" lon="11.4633323"><ele>501.99999999999994</ele><time>2026-05-02T08:43:29.243Z</time></trkpt><trkpt lat="43.4146672" lon="11.4634547"><ele>503.99999999999994</ele><time>2026-05-02T08:43:30.244Z</time></trkpt><trkpt lat="43.4146498" lon="11.4635803"><ele>506.0</ele><time>2026-05-02T08:43:31.247Z</time></trkpt><trkpt lat="43.4146205" lon="11.4637072"><ele>508.0</ele><time>2026-05-02T08:43:32.248Z</time></trkpt><trkpt lat="43.4145777" lon="11.4638232"><ele>510.6666666666667</ele><time>2026-05-02T08:43:33.247Z</time></trkpt><trkpt lat="43.4145277" lon="11.4639138"><ele>513.3333333333334</ele><time>2026-05-02T08:43:34.246Z</time></trkpt><trkpt lat="43.4144822" lon="11.4639872"><ele>516.0</ele><time>2026-05-02T08:43:35.245Z</time></trkpt><trkpt lat="43.4144178" lon="11.4640458"><ele>518.6666666666666</ele><time>2026-05-02T08:43:36.244Z</time></trkpt><trkpt lat="43.4143537" lon="11.4641215"><ele>521.3333333333333</ele><time>2026-05-02T08:43:37.248Z</time></trkpt><trkpt lat="43.4142852" lon="11.4641992"><ele>524.0</ele><time>2026-05-02T08:43:38.25Z</time></trkpt><trkpt lat="43.414213" lon="11.4642775"><ele>524.0</ele><time>2026-05-02T08:43:39.248Z</time></trkpt><trkpt lat="43.4141307" lon="11.4643418"><ele>524.0</ele><time>2026-05-02T08:43:40.249Z</time></trkpt><trkpt lat="43.4140437" lon="11.4643927"><ele>524.0</ele><time>2026-05-02T08:43:41.247Z</time></trkpt><trkpt lat="43.4139515" lon="11.4644397"><ele>524.0</ele><time>2026-05-02T08:43:42.246Z</time></trkpt><trkpt lat="43.4138612" lon="11.4644955"><ele>524.0</ele><time>2026-05-02T08:43:43.246Z</time></trkpt><trkpt lat="43.4137613" lon="11.4645372"><ele>525.4</ele><time>2026-05-02T08:43:44.246Z</time></trkpt><trkpt lat="43.4136628" lon="11.464554"><ele>526.8</ele><time>2026-05-02T08:43:45.244Z</time></trkpt><trkpt lat="43.413562" lon="11.4645603"><ele>528.2</ele><time>2026-05-02T08:43:46.244Z</time></trkpt><trkpt lat="43.4134593" lon="11.4645452"><ele>529.6</ele><time>2026-05-02T08:43:47.246Z</time></trkpt><trkpt lat="43.413364" lon="11.4645198"><ele>531.0</ele><time>2026-05-02T08:43:48.246Z</time></trkpt><trkpt lat="43.4132897" lon="11.4644958"><ele>531.0</ele><time>2026-05-02T08:43:49.247Z</time></trkpt><trkpt lat="43.4131855" lon="11.4644302"><ele>531.0</ele><time>2026-05-02T08:43:51.246Z</time></trkpt><trkpt lat="43.4131118" lon="11.4643737"><ele>531.0</ele><time>2026-05-02T08:43:53.248Z</time></trkpt><trkpt lat="43.4130053" lon="11.4643725"><ele>531.0</ele><time>2026-05-02T08:43:55.246Z</time></trkpt><trkpt lat="43.4129385" lon="11.4643742"><ele>531.0</ele><time>2026-05-02T08:43:56.245Z</time></trkpt><trkpt lat="43.41287" lon="11.4643812"><ele>531.0</ele><time>2026-05-02T08:43:57.245Z</time></trkpt><trkpt lat="43.4127973" lon="11.4643753"><ele>528.1666666666666</ele><time>2026-05-02T08:43:58.244Z</time></trkpt><trkpt lat="43.4127272" lon="11.4643677"><ele>525.3333333333334</ele><time>2026-05-02T08:43:59.243Z</time></trkpt><trkpt lat="43.4126547" lon="11.4643742"><ele>522.5</ele><time>2026-05-02T08:44:00.245Z</time></trkpt><trkpt lat="43.4125783" lon="11.464398"><ele>519.6666666666667</ele><time>2026-05-02T08:44:01.245Z</time></trkpt><trkpt lat="43.4124988" lon="11.4644362"><ele>516.8333333333334</ele><time>2026-05-02T08:44:02.245Z</time></trkpt><trkpt lat="43.4124235" lon="11.4644922"><ele>514.0</ele><time>2026-05-02T08:44:03.246Z</time></trkpt><trkpt lat="43.4123513" lon="11.4645492"><ele>514.0</ele><time>2026-05-02T08:44:04.247Z</time></trkpt><trkpt lat="43.4122722" lon="11.4645927"><ele>514.0</ele><time>2026-05-02T08:44:05.245Z</time></trkpt><trkpt lat="43.4121892" lon="11.4646427"><ele>514.0</ele><time>2026-05-02T08:44:06.244Z</time></trkpt><trkpt lat="43.4121023" lon="11.4646907"><ele>514.0</ele><time>2026-05-02T08:44:07.246Z</time></trkpt><trkpt lat="43.4120213" lon="11.4647422"><ele>514.0</ele><time>2026-05-02T08:44:08.248Z</time></trkpt><trkpt lat="43.411946" lon="11.4647858"><ele>514.0</ele><time>2026-05-02T08:44:09.249Z</time></trkpt><trkpt lat="43.4118782" lon="11.464819"><ele>512.1666666666667</ele><time>2026-05-02T08:44:10.249Z</time></trkpt><trkpt lat="43.41181" lon="11.4648403"><ele>510.33333333333337</ele><time>2026-05-02T08:44:11.245Z</time></trkpt><trkpt lat="43.4117463" lon="11.4648512"><ele>508.5</ele><time>2026-05-02T08:44:12.248Z</time></trkpt><trkpt lat="43.4116717" lon="11.4648315"><ele>506.66666666666663</ele><time>2026-05-02T08:44:13.248Z</time></trkpt><trkpt lat="43.4115917" lon="11.4648"><ele>504.8333333333333</ele><time>2026-05-02T08:44:14.248Z</time></trkpt><trkpt lat="43.4115065" lon="11.4647615"><ele>503.0</ele><time>2026-05-02T08:44:15.252Z</time></trkpt><trkpt lat="43.4114267" lon="11.4647255"><ele>502.99999999999994</ele><time>2026-05-02T08:44:16.246Z</time></trkpt><trkpt lat="43.4113508" lon="11.4646735"><ele>503.0</ele><time>2026-05-02T08:44:17.246Z</time></trkpt><trkpt lat="43.4112822" lon="11.4646243"><ele>503.0</ele><time>2026-05-02T08:44:18.246Z</time></trkpt><trkpt lat="43.4112162" lon="11.4645785"><ele>503.0</ele><time>2026-05-02T08:44:19.246Z</time></trkpt><trkpt lat="43.411141" lon="11.4645505"><ele>502.99999999999994</ele><time>2026-05-02T08:44:20.247Z</time></trkpt><trkpt lat="43.4110618" lon="11.4645443"><ele>503.0</ele><time>2026-05-02T08:44:21.249Z</time></trkpt><trkpt lat="43.4109788" lon="11.4645457"><ele>501.49999999999994</ele><time>2026-05-02T08:44:22.248Z</time></trkpt><trkpt lat="43.4109002" lon="11.4645497"><ele>500.0</ele><time>2026-05-02T08:44:23.247Z</time></trkpt><trkpt lat="43.4108235" lon="11.4645598"><ele>498.5</ele><time>2026-05-02T08:44:24.244Z</time></trkpt><trkpt lat="43.4107367" lon="11.4645705"><ele>497.0</ele><time>2026-05-02T08:44:25.244Z</time></trkpt><trkpt lat="43.4106517" lon="11.4645725"><ele>495.49999999999994</ele><time>2026-05-02T08:44:26.247Z</time></trkpt><trkpt lat="43.4105652" lon="11.4645675"><ele>494.0</ele><time>2026-05-02T08:44:27.251Z</time></trkpt><trkpt lat="43.4104737" lon="11.4645597"><ele>493.6</ele><time>2026-05-02T08:44:28.251Z</time></trkpt><trkpt lat="43.4103762" lon="11.4645513"><ele>493.2</ele><time>2026-05-02T08:44:29.248Z</time></trkpt><trkpt lat="43.410274" lon="11.4645487"><ele>492.80000000000007</ele><time>2026-05-02T08:44:30.248Z</time></trkpt><trkpt lat="43.410167" lon="11.464549"><ele>492.40000000000003</ele><time>2026-05-02T08:44:31.249Z</time></trkpt><trkpt lat="43.41006" lon="11.4645467"><ele>492.0</ele><time>2026-05-02T08:44:32.248Z</time></trkpt><trkpt lat="43.409958" lon="11.4645472"><ele>492.0</ele><time>2026-05-02T08:44:33.248Z</time></trkpt><trkpt lat="43.4098622" lon="11.4645493"><ele>492.0</ele><time>2026-05-02T08:44:34.247Z</time></trkpt><trkpt lat="43.4097717" lon="11.4645523"><ele>492.0</ele><time>2026-05-02T08:44:35.251Z</time></trkpt><trkpt lat="43.4096835" lon="11.4645537"><ele>492.0</ele><time>2026-05-02T08:44:36.246Z</time></trkpt><trkpt lat="43.4096003" lon="11.4645533"><ele>492.0</ele><time>2026-05-02T08:44:37.252Z</time></trkpt><trkpt lat="43.4095197" lon="11.4645553"><ele>492.0</ele><time>2026-05-02T08:44:38.251Z</time></trkpt><trkpt lat="43.409441" lon="11.4645598"><ele>492.1666666666667</ele><time>2026-05-02T08:44:39.249Z</time></trkpt><trkpt lat="43.4093642" lon="11.4645672"><ele>492.33333333333337</ele><time>2026-05-02T08:44:40.248Z</time></trkpt><trkpt lat="43.409287" lon="11.4645748"><ele>492.5</ele><time>2026-05-02T08:44:41.252Z</time></trkpt><trkpt lat="43.4092045" lon="11.4645825"><ele>492.6666666666667</ele><time>2026-05-02T08:44:42.25Z</time></trkpt><trkpt lat="43.4091187" lon="11.464588"><ele>492.83333333333337</ele><time>2026-05-02T08:44:43.25Z</time></trkpt><trkpt lat="43.4090297" lon="11.4645968"><ele>493.0</ele><time>2026-05-02T08:44:44.251Z</time></trkpt><trkpt lat="43.4089433" lon="11.4646075"><ele>492.2</ele><time>2026-05-02T08:44:45.247Z</time></trkpt><trkpt lat="43.4088548" lon="11.4646138"><ele>491.4</ele><time>2026-05-02T08:44:46.248Z</time></trkpt><trkpt lat="43.4087667" lon="11.4646088"><ele>490.59999999999997</ele><time>2026-05-02T08:44:47.246Z</time></trkpt><trkpt lat="43.408678" lon="11.4646007"><ele>489.79999999999995</ele><time>2026-05-02T08:44:48.245Z</time></trkpt><trkpt lat="43.408584" lon="11.4645927"><ele>489.0</ele><time>2026-05-02T08:44:49.247Z</time></trkpt><trkpt lat="43.4084875" lon="11.4645835"><ele>489.0</ele><time>2026-05-02T08:44:50.246Z</time></trkpt><trkpt lat="43.4083897" lon="11.464576"><ele>489.0</ele><time>2026-05-02T08:44:51.25Z</time></trkpt><trkpt lat="43.4082837" lon="11.464575"><ele>489.0</ele><time>2026-05-02T08:44:52.251Z</time></trkpt><trkpt lat="43.4081678" lon="11.4645803"><ele>489.0</ele><time>2026-05-02T08:44:53.254Z</time></trkpt><trkpt lat="43.4080412" lon="11.4645872"><ele>489.0</ele><time>2026-05-02T08:44:54.251Z</time></trkpt><trkpt lat="43.407911" lon="11.4645952"><ele>487.0</ele><time>2026-05-02T08:44:55.252Z</time></trkpt><trkpt lat="43.407783" lon="11.4646065"><ele>485.0</ele><time>2026-05-02T08:44:56.253Z</time></trkpt><trkpt lat="43.4076577" lon="11.4646238"><ele>483.0</ele><time>2026-05-02T08:44:57.252Z</time></trkpt><trkpt lat="43.4075373" lon="11.4646413"><ele>481.0</ele><time>2026-05-02T08:44:58.254Z</time></trkpt><trkpt lat="43.4074253" lon="11.4646568"><ele>481.0</ele><time>2026-05-02T08:44:59.25Z</time></trkpt><trkpt lat="43.4073208" lon="11.4646715"><ele>481.0</ele><time>2026-05-02T08:45:00.25Z</time></trkpt><trkpt lat="43.4072233" lon="11.4646847"><ele>481.0</ele><time>2026-05-02T08:45:01.25Z</time></trkpt><trkpt lat="43.4071277" lon="11.4646883"><ele>481.0</ele><time>2026-05-02T08:45:02.251Z</time></trkpt><trkpt lat="43.4070353" lon="11.4646808"><ele>481.0</ele><time>2026-05-02T08:45:03.25Z</time></trkpt><trkpt lat="43.4069452" lon="11.464662"><ele>480.50000000000006</ele><time>2026-05-02T08:45:04.249Z</time></trkpt><trkpt lat="43.4068592" lon="11.4646348"><ele>480.0</ele><time>2026-05-02T08:45:05.25Z</time></trkpt><trkpt lat="43.4067715" lon="11.464604"><ele>479.5</ele><time>2026-05-02T08:45:06.253Z</time></trkpt><trkpt lat="43.4066865" lon="11.4645773"><ele>479.0</ele><time>2026-05-02T08:45:07.254Z</time></trkpt><trkpt lat="43.4066042" lon="11.4645558"><ele>478.50000000000006</ele><time>2026-05-02T08:45:08.252Z</time></trkpt><trkpt lat="43.4065247" lon="11.4645308"><ele>478.0</ele><time>2026-05-02T08:45:09.248Z</time></trkpt><trkpt lat="43.4064455" lon="11.4645023"><ele>477.33333333333337</ele><time>2026-05-02T08:45:10.253Z</time></trkpt><trkpt lat="43.4063653" lon="11.4644743"><ele>476.6666666666667</ele><time>2026-05-02T08:45:11.253Z</time></trkpt><trkpt lat="43.4062855" lon="11.4644478"><ele>476.0</ele><time>2026-05-02T08:45:12.248Z</time></trkpt><trkpt lat="43.4062055" lon="11.464419"><ele>475.33333333333337</ele><time>2026-05-02T08:45:13.249Z</time></trkpt><trkpt lat="43.4061265" lon="11.4643792"><ele>474.6666666666667</ele><time>2026-05-02T08:45:14.247Z</time></trkpt><trkpt lat="43.4060502" lon="11.4643322"><ele>474.0</ele><time>2026-05-02T08:45:15.247Z</time></trkpt><trkpt lat="43.4059732" lon="11.4642807"><ele>473.0</ele><time>2026-05-02T08:45:16.25Z</time></trkpt><trkpt lat="43.4058972" lon="11.4642253"><ele>472.0</ele><time>2026-05-02T08:45:17.252Z</time></trkpt><trkpt lat="43.4058238" lon="11.464164"><ele>471.0</ele><time>2026-05-02T08:45:18.249Z</time></trkpt><trkpt lat="43.4057522" lon="11.4641"><ele>470.0</ele><time>2026-05-02T08:45:19.249Z</time></trkpt><trkpt lat="43.4056828" lon="11.464037"><ele>469.0</ele><time>2026-05-02T08:45:20.25Z</time></trkpt><trkpt lat="43.4056137" lon="11.463979"><ele>468.0</ele><time>2026-05-02T08:45:21.25Z</time></trkpt><trkpt lat="43.4055507" lon="11.46393"><ele>465.5</ele><time>2026-05-02T08:45:22.248Z</time></trkpt><trkpt lat="43.4054857" lon="11.4638667"><ele>463.0</ele><time>2026-05-02T08:45:23.252Z</time></trkpt><trkpt lat="43.4054232" lon="11.4637963"><ele>460.5</ele><time>2026-05-02T08:45:24.252Z</time></trkpt><trkpt lat="43.4053615" lon="11.4637205"><ele>458.0</ele><time>2026-05-02T08:45:25.252Z</time></trkpt><trkpt lat="43.4053" lon="11.4636435"><ele>455.5</ele><time>2026-05-02T08:45:26.248Z</time></trkpt><trkpt lat="43.40524" lon="11.463567"><ele>453.0</ele><time>2026-05-02T08:45:27.25Z</time></trkpt><trkpt lat="43.4051815" lon="11.4634915"><ele>453.0</ele><time>2026-05-02T08:45:28.252Z</time></trkpt><trkpt lat="43.4051248" lon="11.4634207"><ele>453.0</ele><time>2026-05-02T08:45:29.249Z</time></trkpt><trkpt lat="43.4050727" lon="11.4633517"><ele>453.0</ele><time>2026-05-02T08:45:30.25Z</time></trkpt><trkpt lat="43.4050265" lon="11.4632853"><ele>453.0</ele><time>2026-05-02T08:45:31.249Z</time></trkpt><trkpt lat="43.4049842" lon="11.4632205"><ele>453.0</ele><time>2026-05-02T08:45:32.249Z</time></trkpt><trkpt lat="43.4049037" lon="11.4630948"><ele>453.0</ele><time>2026-05-02T08:45:34.247Z</time></trkpt><trkpt lat="43.4048615" lon="11.463025"><ele>452.3333333333333</ele><time>2026-05-02T08:45:35.248Z</time></trkpt><trkpt lat="43.4048257" lon="11.4629475"><ele>451.66666666666663</ele><time>2026-05-02T08:45:36.249Z</time></trkpt><trkpt lat="43.4047917" lon="11.4628602"><ele>451.0</ele><time>2026-05-02T08:45:37.247Z</time></trkpt><trkpt lat="43.4047652" lon="11.4627552"><ele>450.3333333333333</ele><time>2026-05-02T08:45:38.252Z</time></trkpt><trkpt lat="43.4047422" lon="11.4626355"><ele>449.66666666666663</ele><time>2026-05-02T08:45:39.248Z</time></trkpt><trkpt lat="43.4047212" lon="11.4625073"><ele>449.0</ele><time>2026-05-02T08:45:40.249Z</time></trkpt><trkpt lat="43.4047013" lon="11.4623725"><ele>449.0</ele><time>2026-05-02T08:45:41.255Z</time></trkpt><trkpt lat="43.4046798" lon="11.4622333"><ele>449.0</ele><time>2026-05-02T08:45:42.248Z</time></trkpt><trkpt lat="43.4046575" lon="11.4620938"><ele>449.0</ele><time>2026-05-02T08:45:43.247Z</time></trkpt><trkpt lat="43.4046345" lon="11.461957"><ele>449.0</ele><time>2026-05-02T08:45:44.249Z</time></trkpt><trkpt lat="43.4046115" lon="11.461823"><ele>449.0</ele><time>2026-05-02T08:45:45.249Z</time></trkpt><trkpt lat="43.4045837" lon="11.4616987"><ele>450.4</ele><time>2026-05-02T08:45:46.248Z</time></trkpt><trkpt lat="43.4045423" lon="11.461584"><ele>451.79999999999995</ele><time>2026-05-02T08:45:47.249Z</time></trkpt><trkpt lat="43.4044895" lon="11.4614712"><ele>453.20000000000005</ele><time>2026-05-02T08:45:48.253Z</time></trkpt><trkpt lat="43.4044318" lon="11.4613527"><ele>454.6</ele><time>2026-05-02T08:45:49.251Z</time></trkpt><trkpt lat="43.4043743" lon="11.4612288"><ele>456.0</ele><time>2026-05-02T08:45:50.252Z</time></trkpt><trkpt lat="43.404318" lon="11.4611043"><ele>456.4</ele><time>2026-05-02T08:45:51.25Z</time></trkpt><trkpt lat="43.4042623" lon="11.4609835"><ele>456.8</ele><time>2026-05-02T08:45:52.252Z</time></trkpt><trkpt lat="43.4042085" lon="11.4608642"><ele>457.19999999999993</ele><time>2026-05-02T08:45:53.249Z</time></trkpt><trkpt lat="43.4041597" lon="11.4607425"><ele>457.59999999999997</ele><time>2026-05-02T08:45:54.251Z</time></trkpt><trkpt lat="43.404124" lon="11.460619"><ele>458.0</ele><time>2026-05-02T08:45:55.25Z</time></trkpt><trkpt lat="43.4041043" lon="11.4604977"><ele>457.66666666666663</ele><time>2026-05-02T08:45:56.247Z</time></trkpt><trkpt lat="43.404101" lon="11.4603748"><ele>457.3333333333333</ele><time>2026-05-02T08:45:57.247Z</time></trkpt><trkpt lat="43.4041075" lon="11.4602527"><ele>457.0</ele><time>2026-05-02T08:45:58.247Z</time></trkpt><trkpt lat="43.4041163" lon="11.4601413"><ele>456.66666666666663</ele><time>2026-05-02T08:45:59.254Z</time></trkpt><trkpt lat="43.4041275" lon="11.460033"><ele>456.3333333333333</ele><time>2026-05-02T08:46:00.25Z</time></trkpt><trkpt lat="43.4041423" lon="11.459916"><ele>456.0</ele><time>2026-05-02T08:46:01.25Z</time></trkpt><trkpt lat="43.4041637" lon="11.4598"><ele>456.0</ele><time>2026-05-02T08:46:02.253Z</time></trkpt><trkpt lat="43.4041937" lon="11.4596815"><ele>456.0</ele><time>2026-05-02T08:46:03.248Z</time></trkpt><trkpt lat="43.4042352" lon="11.4595627"><ele>456.0</ele><time>2026-05-02T08:46:04.249Z</time></trkpt><trkpt lat="43.4042858" lon="11.4594483"><ele>456.0</ele><time>2026-05-02T08:46:05.254Z</time></trkpt><trkpt lat="43.4043432" lon="11.459337"><ele>456.0</ele><time>2026-05-02T08:46:06.252Z</time></trkpt><trkpt lat="43.404403" lon="11.4592312"><ele>455.8</ele><time>2026-05-02T08:46:07.25Z</time></trkpt><trkpt lat="43.4044665" lon="11.4591332"><ele>455.6</ele><time>2026-05-02T08:46:08.252Z</time></trkpt><trkpt lat="43.4045348" lon="11.4590432"><ele>455.4</ele><time>2026-05-02T08:46:09.252Z</time></trkpt><trkpt lat="43.4046013" lon="11.4589535"><ele>455.2</ele><time>2026-05-02T08:46:10.25Z</time></trkpt><trkpt lat="43.4046637" lon="11.4588623"><ele>455.0</ele><time>2026-05-02T08:46:11.255Z</time></trkpt><trkpt lat="43.404721" lon="11.4587698"><ele>454.3333333333333</ele><time>2026-05-02T08:46:12.255Z</time></trkpt><trkpt lat="43.4047683" lon="11.4586667"><ele>453.66666666666663</ele><time>2026-05-02T08:46:13.254Z</time></trkpt><trkpt lat="43.4048013" lon="11.458555"><ele>453.0</ele><time>2026-05-02T08:46:14.252Z</time></trkpt><trkpt lat="43.4048247" lon="11.4584387"><ele>452.33333333333337</ele><time>2026-05-02T08:46:15.251Z</time></trkpt><trkpt lat="43.404852" lon="11.4583265"><ele>451.6666666666667</ele><time>2026-05-02T08:46:16.252Z</time></trkpt><trkpt lat="43.4048892" lon="11.4582268"><ele>451.0</ele><time>2026-05-02T08:46:17.256Z</time></trkpt><trkpt lat="43.4049358" lon="11.4581468"><ele>451.00000000000006</ele><time>2026-05-02T08:46:18.252Z</time></trkpt><trkpt lat="43.4049817" lon="11.4580713"><ele>451.0</ele><time>2026-05-02T08:46:19.252Z</time></trkpt><trkpt lat="43.4050142" lon="11.4579837"><ele>451.0</ele><time>2026-05-02T08:46:20.254Z</time></trkpt><trkpt lat="43.4050292" lon="11.457881"><ele>451.0</ele><time>2026-05-02T08:46:21.25Z</time></trkpt><trkpt lat="43.4050293" lon="11.4577608"><ele>451.00000000000006</ele><time>2026-05-02T08:46:22.251Z</time></trkpt><trkpt lat="43.4050208" lon="11.4576238"><ele>451.0</ele><time>2026-05-02T08:46:23.254Z</time></trkpt><trkpt lat="43.4050085" lon="11.457479"><ele>449.4</ele><time>2026-05-02T08:46:24.252Z</time></trkpt><trkpt lat="43.4049952" lon="11.4573352"><ele>447.8</ele><time>2026-05-02T08:46:25.253Z</time></trkpt><trkpt lat="43.4049797" lon="11.4571928"><ele>446.19999999999993</ele><time>2026-05-02T08:46:26.265Z</time></trkpt><trkpt lat="43.4049552" lon="11.4570557"><ele>444.59999999999997</ele><time>2026-05-02T08:46:27.252Z</time></trkpt><trkpt lat="43.40492" lon="11.4569257"><ele>443.0</ele><time>2026-05-02T08:46:28.252Z</time></trkpt><trkpt lat="43.4048795" lon="11.4568033"><ele>441.59999999999997</ele><time>2026-05-02T08:46:29.253Z</time></trkpt><trkpt lat="43.4048437" lon="11.4566945"><ele>440.19999999999993</ele><time>2026-05-02T08:46:30.255Z</time></trkpt><trkpt lat="43.404818" lon="11.456604"><ele>438.8</ele><time>2026-05-02T08:46:31.251Z</time></trkpt><trkpt lat="43.4048287" lon="11.4564538"><ele>437.4</ele><time>2026-05-02T08:46:33.251Z</time></trkpt><trkpt lat="43.4049372" lon="11.456376"><ele>436.0</ele><time>2026-05-02T08:46:35.252Z</time></trkpt><trkpt lat="43.4050163" lon="11.45637"><ele>436.0</ele><time>2026-05-02T08:46:36.252Z</time></trkpt><trkpt lat="43.4051067" lon="11.45638"><ele>436.0</ele><time>2026-05-02T08:46:37.256Z</time></trkpt><trkpt lat="43.4052005" lon="11.4563938"><ele>436.0</ele><time>2026-05-02T08:46:38.256Z</time></trkpt><trkpt lat="43.4052922" lon="11.4564015"><ele>436.0</ele><time>2026-05-02T08:46:39.255Z</time></trkpt><trkpt lat="43.4053805" lon="11.4564113"><ele>436.0</ele><time>2026-05-02T08:46:40.253Z</time></trkpt><trkpt lat="43.4054652" lon="11.4564202"><ele>434.50000000000006</ele><time>2026-05-02T08:46:41.251Z</time></trkpt><trkpt lat="43.4055452" lon="11.4564162"><ele>433.0</ele><time>2026-05-02T08:46:42.25Z</time></trkpt><trkpt lat="43.4056233" lon="11.4563912"><ele>431.5</ele><time>2026-05-02T08:46:43.254Z</time></trkpt><trkpt lat="43.4056992" lon="11.4563427"><ele>430.0</ele><time>2026-05-02T08:46:44.254Z</time></trkpt><trkpt lat="43.4057742" lon="11.4562728"><ele>428.50000000000006</ele><time>2026-05-02T08:46:45.25Z</time></trkpt><trkpt lat="43.4058457" lon="11.4561855"><ele>427.0</ele><time>2026-05-02T08:46:46.254Z</time></trkpt><trkpt lat="43.4059113" lon="11.4560818"><ele>426.8</ele><time>2026-05-02T08:46:47.252Z</time></trkpt><trkpt lat="43.4059677" lon="11.455965"><ele>426.6</ele><time>2026-05-02T08:46:48.251Z</time></trkpt><trkpt lat="43.4060105" lon="11.4558362"><ele>426.40000000000003</ele><time>2026-05-02T08:46:49.251Z</time></trkpt><trkpt lat="43.4060387" lon="11.4556953"><ele>426.20000000000005</ele><time>2026-05-02T08:46:50.248Z</time></trkpt><trkpt lat="43.4060573" lon="11.4555522"><ele>426.0</ele><time>2026-05-02T08:46:51.249Z</time></trkpt><trkpt lat="43.4060785" lon="11.4554182"><ele>425.20000000000005</ele><time>2026-05-02T08:46:52.251Z</time></trkpt><trkpt lat="43.4061007" lon="11.455293"><ele>424.40000000000003</ele><time>2026-05-02T08:46:53.252Z</time></trkpt><trkpt lat="43.4061255" lon="11.4551728"><ele>423.6</ele><time>2026-05-02T08:46:54.253Z</time></trkpt><trkpt lat="43.406154" lon="11.455053"><ele>422.8</ele><time>2026-05-02T08:46:55.252Z</time></trkpt><trkpt lat="43.4061835" lon="11.454937"><ele>422.0</ele><time>2026-05-02T08:46:56.249Z</time></trkpt><trkpt lat="43.4062133" lon="11.4548258"><ele>421.99999999999994</ele><time>2026-05-02T08:46:57.252Z</time></trkpt><trkpt lat="43.4062518" lon="11.4547208"><ele>422.0</ele><time>2026-05-02T08:46:58.251Z</time></trkpt><trkpt lat="43.4063052" lon="11.4546233"><ele>422.0</ele><time>2026-05-02T08:46:59.251Z</time></trkpt><trkpt lat="43.4063635" lon="11.4545332"><ele>422.0</ele><time>2026-05-02T08:47:00.251Z</time></trkpt><trkpt lat="43.406417" lon="11.4544405"><ele>421.99999999999994</ele><time>2026-05-02T08:47:01.25Z</time></trkpt><trkpt lat="43.4064592" lon="11.4543393"><ele>422.0</ele><time>2026-05-02T08:47:02.252Z</time></trkpt><trkpt lat="43.4064928" lon="11.4542292"><ele>420.3333333333333</ele><time>2026-05-02T08:47:03.251Z</time></trkpt><trkpt lat="43.4065223" lon="11.4541147"><ele>418.66666666666663</ele><time>2026-05-02T08:47:04.255Z</time></trkpt><trkpt lat="43.4065428" lon="11.454001"><ele>417.0</ele><time>2026-05-02T08:47:05.256Z</time></trkpt><trkpt lat="43.4065572" lon="11.4538892"><ele>415.33333333333337</ele><time>2026-05-02T08:47:06.255Z</time></trkpt><trkpt lat="43.406559" lon="11.4537813"><ele>413.6666666666667</ele><time>2026-05-02T08:47:07.249Z</time></trkpt><trkpt lat="43.4065447" lon="11.4536733"><ele>412.0</ele><time>2026-05-02T08:47:08.254Z</time></trkpt><trkpt lat="43.4065138" lon="11.4535632"><ele>412.0</ele><time>2026-05-02T08:47:09.251Z</time></trkpt><trkpt lat="43.40648" lon="11.4534448"><ele>412.0</ele><time>2026-05-02T08:47:10.252Z</time></trkpt><trkpt lat="43.406454" lon="11.4533178"><ele>412.0</ele><time>2026-05-02T08:47:11.253Z</time></trkpt><trkpt lat="43.4064405" lon="11.4531905"><ele>412.0</ele><time>2026-05-02T08:47:12.252Z</time></trkpt><trkpt lat="43.4064407" lon="11.4530675"><ele>412.0</ele><time>2026-05-02T08:47:13.253Z</time></trkpt><trkpt lat="43.406456" lon="11.452948"><ele>411.40000000000003</ele><time>2026-05-02T08:47:14.251Z</time></trkpt><trkpt lat="43.4064785" lon="11.4528255"><ele>410.8</ele><time>2026-05-02T08:47:15.252Z</time></trkpt><trkpt lat="43.4064973" lon="11.4526957"><ele>410.2</ele><time>2026-05-02T08:47:16.251Z</time></trkpt><trkpt lat="43.4065068" lon="11.452569"><ele>409.6</ele><time>2026-05-02T08:47:17.253Z</time></trkpt><trkpt lat="43.4065125" lon="11.4524425"><ele>409.0</ele><time>2026-05-02T08:47:18.25Z</time></trkpt><trkpt lat="43.4065142" lon="11.4523153"><ele>409.0</ele><time>2026-05-02T08:47:19.249Z</time></trkpt><trkpt lat="43.4065082" lon="11.4521868"><ele>409.0</ele><time>2026-05-02T08:47:20.277Z</time></trkpt><trkpt lat="43.406491" lon="11.452058"><ele>409.0</ele><time>2026-05-02T08:47:21.25Z</time></trkpt><trkpt lat="43.40646" lon="11.4519308"><ele>409.0</ele><time>2026-05-02T08:47:22.27Z</time></trkpt><trkpt lat="43.4064157" lon="11.4518078"><ele>409.0</ele><time>2026-05-02T08:47:23.251Z</time></trkpt><trkpt lat="43.4063653" lon="11.4516913"><ele>409.4</ele><time>2026-05-02T08:47:24.252Z</time></trkpt><trkpt lat="43.4063107" lon="11.4515768"><ele>409.79999999999995</ele><time>2026-05-02T08:47:25.251Z</time></trkpt><trkpt lat="43.4062537" lon="11.4514623"><ele>410.20000000000005</ele><time>2026-05-02T08:47:26.25Z</time></trkpt><trkpt lat="43.4061935" lon="11.4513507"><ele>410.6</ele><time>2026-05-02T08:47:27.249Z</time></trkpt><trkpt lat="43.4061322" lon="11.4512415"><ele>411.0</ele><time>2026-05-02T08:47:28.254Z</time></trkpt><trkpt lat="43.4060728" lon="11.4511303"><ele>411.0</ele><time>2026-05-02T08:47:29.257Z</time></trkpt><trkpt lat="43.40602" lon="11.451015"><ele>411.0</ele><time>2026-05-02T08:47:30.253Z</time></trkpt><trkpt lat="43.4059762" lon="11.4508893"><ele>411.0</ele><time>2026-05-02T08:47:31.253Z</time></trkpt><trkpt lat="43.4059392" lon="11.4507562"><ele>411.0</ele><time>2026-05-02T08:47:32.252Z</time></trkpt><trkpt lat="43.4059075" lon="11.4506215"><ele>411.0</ele><time>2026-05-02T08:47:33.252Z</time></trkpt><trkpt lat="43.4058765" lon="11.4504893"><ele>410.4</ele><time>2026-05-02T08:47:34.255Z</time></trkpt><trkpt lat="43.4058392" lon="11.4503587"><ele>409.8</ele><time>2026-05-02T08:47:35.252Z</time></trkpt><trkpt lat="43.4057935" lon="11.4502287"><ele>409.2</ele><time>2026-05-02T08:47:36.251Z</time></trkpt><trkpt lat="43.4057422" lon="11.4501022"><ele>408.59999999999997</ele><time>2026-05-02T08:47:37.25Z</time></trkpt><trkpt lat="43.4056877" lon="11.4499815"><ele>408.0</ele><time>2026-05-02T08:47:38.248Z</time></trkpt><trkpt lat="43.4056303" lon="11.4498623"><ele>408.0</ele><time>2026-05-02T08:47:39.249Z</time></trkpt><trkpt lat="43.4055695" lon="11.4497442"><ele>408.0</ele><time>2026-05-02T08:47:40.255Z</time></trkpt><trkpt lat="43.405502" lon="11.4496307"><ele>408.0</ele><time>2026-05-02T08:47:41.248Z</time></trkpt><trkpt lat="43.4054327" lon="11.4495203"><ele>408.0</ele><time>2026-05-02T08:47:42.247Z</time></trkpt><trkpt lat="43.4053655" lon="11.4494152"><ele>408.0</ele><time>2026-05-02T08:47:43.249Z</time></trkpt><trkpt lat="43.4053022" lon="11.449317"><ele>406.59999999999997</ele><time>2026-05-02T08:47:44.254Z</time></trkpt><trkpt lat="43.4052417" lon="11.4492237"><ele>405.2</ele><time>2026-05-02T08:47:45.252Z</time></trkpt><trkpt lat="43.4051905" lon="11.4491357"><ele>403.8</ele><time>2026-05-02T08:47:46.253Z</time></trkpt><trkpt lat="43.4051503" lon="11.4490583"><ele>402.4</ele><time>2026-05-02T08:47:47.25Z</time></trkpt><trkpt lat="43.4050807" lon="11.4489312"><ele>401.0</ele><time>2026-05-02T08:47:49.25Z</time></trkpt><trkpt lat="43.4050165" lon="11.4488383"><ele>400.66666666666663</ele><time>2026-05-02T08:47:51.25Z</time></trkpt><trkpt lat="43.4049508" lon="11.4487553"><ele>400.3333333333333</ele><time>2026-05-02T08:47:53.25Z</time></trkpt><trkpt lat="43.4048983" lon="11.4486918"><ele>400.0</ele><time>2026-05-02T08:47:55.254Z</time></trkpt><trkpt lat="43.4048477" lon="11.4486213"><ele>399.66666666666663</ele><time>2026-05-02T08:48:17.253Z</time></trkpt><trkpt lat="43.4047673" lon="11.4485167"><ele>399.3333333333333</ele><time>2026-05-02T08:48:20.256Z</time></trkpt><trkpt lat="43.4047067" lon="11.4484557"><ele>399.0</ele><time>2026-05-02T08:48:21.255Z</time></trkpt><trkpt lat="43.4046263" lon="11.4483868"><ele>398.75</ele><time>2026-05-02T08:48:22.254Z</time></trkpt><trkpt lat="43.4045337" lon="11.448314"><ele>398.5</ele><time>2026-05-02T08:48:23.25Z</time></trkpt><trkpt lat="43.4044282" lon="11.4482302"><ele>398.25</ele><time>2026-05-02T08:48:24.253Z</time></trkpt><trkpt lat="43.4043117" lon="11.4481397"><ele>398.0</ele><time>2026-05-02T08:48:25.251Z</time></trkpt><trkpt lat="43.4041852" lon="11.4480497"><ele>398.0</ele><time>2026-05-02T08:48:26.25Z</time></trkpt><trkpt lat="43.4040522" lon="11.4479638"><ele>398.0</ele><time>2026-05-02T08:48:27.249Z</time></trkpt><trkpt lat="43.4039138" lon="11.447887"><ele>398.0</ele><time>2026-05-02T08:48:28.247Z</time></trkpt><trkpt lat="43.4037702" lon="11.4478188"><ele>398.0</ele><time>2026-05-02T08:48:29.249Z</time></trkpt><trkpt lat="43.4036197" lon="11.4477558"><ele>398.3333333333333</ele><time>2026-05-02T08:48:30.248Z</time></trkpt><trkpt lat="43.4034643" lon="11.4476872"><ele>398.66666666666663</ele><time>2026-05-02T08:48:31.252Z</time></trkpt><trkpt lat="43.4033072" lon="11.4476058"><ele>399.0</ele><time>2026-05-02T08:48:32.254Z</time></trkpt><trkpt lat="43.4031488" lon="11.4475133"><ele>396.33333333333337</ele><time>2026-05-02T08:48:33.252Z</time></trkpt><trkpt lat="43.4029902" lon="11.447416"><ele>393.6666666666667</ele><time>2026-05-02T08:48:34.251Z</time></trkpt><trkpt lat="43.4028263" lon="11.4473203"><ele>391.0</ele><time>2026-05-02T08:48:35.253Z</time></trkpt><trkpt lat="43.4026595" lon="11.4472252"><ele>393.6666666666667</ele><time>2026-05-02T08:48:36.253Z</time></trkpt><trkpt lat="43.4024937" lon="11.447127"><ele>396.33333333333337</ele><time>2026-05-02T08:48:37.253Z</time></trkpt><trkpt lat="43.4023298" lon="11.4470258"><ele>399.0</ele><time>2026-05-02T08:48:38.254Z</time></trkpt><trkpt lat="43.4021748" lon="11.4469192"><ele>395.33333333333337</ele><time>2026-05-02T08:48:39.252Z</time></trkpt><trkpt lat="43.4020285" lon="11.4468035"><ele>391.6666666666667</ele><time>2026-05-02T08:48:40.25Z</time></trkpt><trkpt lat="43.4018875" lon="11.4466717"><ele>388.0</ele><time>2026-05-02T08:48:41.252Z</time></trkpt><trkpt lat="43.4017467" lon="11.4465155"><ele>388.0</ele><time>2026-05-02T08:48:42.25Z</time></trkpt><trkpt lat="43.4016075" lon="11.4463478"><ele>388.0</ele><time>2026-05-02T08:48:43.252Z</time></trkpt><trkpt lat="43.4014722" lon="11.4461767"><ele>388.0</ele><time>2026-05-02T08:48:44.252Z</time></trkpt><trkpt lat="43.4013397" lon="11.44599"><ele>386.33333333333337</ele><time>2026-05-02T08:48:45.254Z</time></trkpt><trkpt lat="43.4012118" lon="11.4457867"><ele>384.6666666666667</ele><time>2026-05-02T08:48:46.255Z</time></trkpt><trkpt lat="43.4010877" lon="11.445577"><ele>383.0</ele><time>2026-05-02T08:48:47.254Z</time></trkpt><trkpt lat="43.40096" lon="11.4453682"><ele>382.6666666666667</ele><time>2026-05-02T08:48:48.254Z</time></trkpt><trkpt lat="43.4008238" lon="11.4451658"><ele>382.3333333333333</ele><time>2026-05-02T08:48:49.251Z</time></trkpt><trkpt lat="43.4006783" lon="11.4449718"><ele>382.0</ele><time>2026-05-02T08:48:50.251Z</time></trkpt><trkpt lat="43.4005298" lon="11.4447808"><ele>380.3333333333333</ele><time>2026-05-02T08:48:51.255Z</time></trkpt><trkpt lat="43.4003878" lon="11.4445963"><ele>378.6666666666667</ele><time>2026-05-02T08:48:52.25Z</time></trkpt><trkpt lat="43.4002535" lon="11.4444195"><ele>377.0</ele><time>2026-05-02T08:48:53.251Z</time></trkpt><trkpt lat="43.4001278" lon="11.44425"><ele>377.0</ele><time>2026-05-02T08:48:54.25Z</time></trkpt><trkpt lat="43.4000095" lon="11.4440908"><ele>377.0</ele><time>2026-05-02T08:48:55.25Z</time></trkpt><trkpt lat="43.3999002" lon="11.4439468"><ele>377.0</ele><time>2026-05-02T08:48:56.254Z</time></trkpt><trkpt lat="43.3997895" lon="11.4438267"><ele>376.75</ele><time>2026-05-02T08:48:57.255Z</time></trkpt><trkpt lat="43.3996732" lon="11.4437402"><ele>376.5</ele><time>2026-05-02T08:48:58.254Z</time></trkpt><trkpt lat="43.399556" lon="11.4436807"><ele>376.25</ele><time>2026-05-02T08:48:59.254Z</time></trkpt><trkpt lat="43.3994398" lon="11.4436282"><ele>376.0</ele><time>2026-05-02T08:49:00.25Z</time></trkpt><trkpt lat="43.3993307" lon="11.443574"><ele>376.0</ele><time>2026-05-02T08:49:01.248Z</time></trkpt><trkpt lat="43.3992248" lon="11.4435238"><ele>376.0</ele><time>2026-05-02T08:49:02.249Z</time></trkpt><trkpt lat="43.3991158" lon="11.4434898"><ele>376.0</ele><time>2026-05-02T08:49:03.253Z</time></trkpt><trkpt lat="43.3990025" lon="11.4434737"><ele>376.0</ele><time>2026-05-02T08:49:04.252Z</time></trkpt><trkpt lat="43.3988837" lon="11.4434793"><ele>376.0</ele><time>2026-05-02T08:49:05.25Z</time></trkpt><trkpt lat="43.3987672" lon="11.4434952"><ele>376.0</ele><time>2026-05-02T08:49:06.251Z</time></trkpt><trkpt lat="43.3986555" lon="11.4435138"><ele>376.0</ele><time>2026-05-02T08:49:07.253Z</time></trkpt><trkpt lat="43.3985482" lon="11.4435333"><ele>376.0</ele><time>2026-05-02T08:49:08.252Z</time></trkpt><trkpt lat="43.3984397" lon="11.4435542"><ele>376.0</ele><time>2026-05-02T08:49:09.252Z</time></trkpt><trkpt lat="43.3983345" lon="11.4435775"><ele>376.0</ele><time>2026-05-02T08:49:10.25Z</time></trkpt><trkpt lat="43.398231" lon="11.4436012"><ele>376.0</ele><time>2026-05-02T08:49:11.252Z</time></trkpt><trkpt lat="43.3981285" lon="11.4436243"><ele>376.0</ele><time>2026-05-02T08:49:12.25Z</time></trkpt><trkpt lat="43.398025" lon="11.443643"><ele>376.0</ele><time>2026-05-02T08:49:13.25Z</time></trkpt><trkpt lat="43.3979197" lon="11.4436487"><ele>376.0</ele><time>2026-05-02T08:49:14.25Z</time></trkpt><trkpt lat="43.3978142" lon="11.4436302"><ele>375.4</ele><time>2026-05-02T08:49:15.249Z</time></trkpt><trkpt lat="43.3977097" lon="11.4435965"><ele>374.8</ele><time>2026-05-02T08:49:16.249Z</time></trkpt><trkpt lat="43.3976018" lon="11.4435607"><ele>374.2</ele><time>2026-05-02T08:49:17.257Z</time></trkpt><trkpt lat="43.3974895" lon="11.4435255"><ele>373.59999999999997</ele><time>2026-05-02T08:49:18.248Z</time></trkpt><trkpt lat="43.3973768" lon="11.4434877"><ele>373.0</ele><time>2026-05-02T08:49:19.248Z</time></trkpt><trkpt lat="43.3972697" lon="11.4434503"><ele>372.59999999999997</ele><time>2026-05-02T08:49:20.249Z</time></trkpt><trkpt lat="43.3971633" lon="11.4434112"><ele>372.2</ele><time>2026-05-02T08:49:21.249Z</time></trkpt><trkpt lat="43.397061" lon="11.4433717"><ele>371.8</ele><time>2026-05-02T08:49:22.25Z</time></trkpt><trkpt lat="43.3969653" lon="11.4433352"><ele>371.4</ele><time>2026-05-02T08:49:23.249Z</time></trkpt><trkpt lat="43.3968733" lon="11.4433"><ele>371.0</ele><time>2026-05-02T08:49:24.249Z</time></trkpt><trkpt lat="43.3967848" lon="11.4432635"><ele>371.0</ele><time>2026-05-02T08:49:25.248Z</time></trkpt><trkpt lat="43.396694" lon="11.443226"><ele>371.0</ele><time>2026-05-02T08:49:26.25Z</time></trkpt><trkpt lat="43.396599" lon="11.4431848"><ele>371.0</ele><time>2026-05-02T08:49:27.248Z</time></trkpt><trkpt lat="43.3964993" lon="11.4431445"><ele>371.0</ele><time>2026-05-02T08:49:28.248Z</time></trkpt><trkpt lat="43.396396" lon="11.4430993"><ele>371.0</ele><time>2026-05-02T08:49:29.249Z</time></trkpt><trkpt lat="43.3962893" lon="11.4430478"><ele>370.0</ele><time>2026-05-02T08:49:30.248Z</time></trkpt><trkpt lat="43.3961762" lon="11.4429927"><ele>369.0</ele><time>2026-05-02T08:49:31.25Z</time></trkpt><trkpt lat="43.3960562" lon="11.4429415"><ele>368.0</ele><time>2026-05-02T08:49:32.249Z</time></trkpt><trkpt lat="43.3959318" lon="11.4428935"><ele>367.0</ele><time>2026-05-02T08:49:33.249Z</time></trkpt><trkpt lat="43.3958095" lon="11.4428462"><ele>367.0</ele><time>2026-05-02T08:49:34.248Z</time></trkpt><trkpt lat="43.395694" lon="11.4428015"><ele>367.0</ele><time>2026-05-02T08:49:35.249Z</time></trkpt><trkpt lat="43.3955832" lon="11.442759"><ele>367.0</ele><time>2026-05-02T08:49:36.249Z</time></trkpt><trkpt lat="43.3954792" lon="11.4427238"><ele>367.0</ele><time>2026-05-02T08:49:37.251Z</time></trkpt><trkpt lat="43.39538" lon="11.4426978"><ele>367.0</ele><time>2026-05-02T08:49:38.248Z</time></trkpt><trkpt lat="43.3952795" lon="11.4426857"><ele>367.25</ele><time>2026-05-02T08:49:39.249Z</time></trkpt><trkpt lat="43.3951753" lon="11.4426908"><ele>367.5</ele><time>2026-05-02T08:49:40.249Z</time></trkpt><trkpt lat="43.3950547" lon="11.442708"><ele>367.75</ele><time>2026-05-02T08:49:41.247Z</time></trkpt><trkpt lat="43.3949162" lon="11.4427227"><ele>368.0</ele><time>2026-05-02T08:49:42.248Z</time></trkpt><trkpt lat="43.394769" lon="11.442732"><ele>368.0</ele><time>2026-05-02T08:49:43.25Z</time></trkpt><trkpt lat="43.3946173" lon="11.4427305"><ele>368.0</ele><time>2026-05-02T08:49:44.248Z</time></trkpt><trkpt lat="43.3944632" lon="11.4427127"><ele>368.0</ele><time>2026-05-02T08:49:45.249Z</time></trkpt><trkpt lat="43.3943088" lon="11.442689"><ele>368.0</ele><time>2026-05-02T08:49:46.249Z</time></trkpt><trkpt lat="43.394149" lon="11.4426652"><ele>368.0</ele><time>2026-05-02T08:49:47.249Z</time></trkpt><trkpt lat="43.3939868" lon="11.4426428"><ele>368.0</ele><time>2026-05-02T08:49:48.253Z</time></trkpt><trkpt lat="43.393826" lon="11.4426202"><ele>368.0</ele><time>2026-05-02T08:49:49.251Z</time></trkpt><trkpt lat="43.393669" lon="11.4425855"><ele>368.0</ele><time>2026-05-02T08:49:50.25Z</time></trkpt><trkpt lat="43.3935148" lon="11.4425295"><ele>368.0</ele><time>2026-05-02T08:49:51.251Z</time></trkpt><trkpt lat="43.3933617" lon="11.4424575"><ele>368.0</ele><time>2026-05-02T08:49:52.251Z</time></trkpt><trkpt lat="43.3932155" lon="11.4423868"><ele>368.0</ele><time>2026-05-02T08:49:53.252Z</time></trkpt><trkpt lat="43.393076" lon="11.4423338"><ele>368.0</ele><time>2026-05-02T08:49:54.249Z</time></trkpt><trkpt lat="43.3929335" lon="11.4423118"><ele>368.0</ele><time>2026-05-02T08:49:55.25Z</time></trkpt><trkpt lat="43.3927838" lon="11.4423197"><ele>368.33333333333337</ele><time>2026-05-02T08:49:56.251Z</time></trkpt><trkpt lat="43.3926285" lon="11.4423465"><ele>368.6666666666667</ele><time>2026-05-02T08:49:57.248Z</time></trkpt><trkpt lat="43.3924712" lon="11.442396"><ele>369.0</ele><time>2026-05-02T08:49:58.249Z</time></trkpt><trkpt lat="43.3923153" lon="11.4424712"><ele>368.0</ele><time>2026-05-02T08:49:59.249Z</time></trkpt><trkpt lat="43.3921628" lon="11.4425655"><ele>367.0</ele><time>2026-05-02T08:50:00.248Z</time></trkpt><trkpt lat="43.392017" lon="11.4426693"><ele>366.0</ele><time>2026-05-02T08:50:01.249Z</time></trkpt><trkpt lat="43.391872" lon="11.4427618"><ele>366.0</ele><time>2026-05-02T08:50:02.25Z</time></trkpt><trkpt lat="43.391719" lon="11.442829"><ele>366.0</ele><time>2026-05-02T08:50:03.25Z</time></trkpt><trkpt lat="43.3915608" lon="11.4428587"><ele>366.0</ele><time>2026-05-02T08:50:04.249Z</time></trkpt><trkpt lat="43.3913998" lon="11.4428637"><ele>366.6666666666667</ele><time>2026-05-02T08:50:05.249Z</time></trkpt><trkpt lat="43.3912315" lon="11.442874"><ele>367.33333333333337</ele><time>2026-05-02T08:50:06.246Z</time></trkpt><trkpt lat="43.3910645" lon="11.4429017"><ele>368.0</ele><time>2026-05-02T08:50:07.249Z</time></trkpt><trkpt lat="43.390907" lon="11.4429338"><ele>368.0</ele><time>2026-05-02T08:50:08.248Z</time></trkpt><trkpt lat="43.3907548" lon="11.4429612"><ele>368.0</ele><time>2026-05-02T08:50:09.248Z</time></trkpt><trkpt lat="43.3906035" lon="11.4429762"><ele>368.0</ele><time>2026-05-02T08:50:10.249Z</time></trkpt><trkpt lat="43.3904513" lon="11.4429695"><ele>367.25</ele><time>2026-05-02T08:50:11.249Z</time></trkpt><trkpt lat="43.390302" lon="11.4429532"><ele>366.5</ele><time>2026-05-02T08:50:12.25Z</time></trkpt><trkpt lat="43.3901633" lon="11.4429338"><ele>365.75</ele><time>2026-05-02T08:50:13.251Z</time></trkpt><trkpt lat="43.3900353" lon="11.4429037"><ele>365.0</ele><time>2026-05-02T08:50:14.25Z</time></trkpt><trkpt lat="43.3899155" lon="11.442844"><ele>365.0</ele><time>2026-05-02T08:50:15.25Z</time></trkpt><trkpt lat="43.3898172" lon="11.4427355"><ele>365.0</ele><time>2026-05-02T08:50:16.249Z</time></trkpt><trkpt lat="43.3897402" lon="11.442584"><ele>365.0</ele><time>2026-05-02T08:50:17.25Z</time></trkpt><trkpt lat="43.3896668" lon="11.4424123"><ele>365.0</ele><time>2026-05-02T08:50:18.249Z</time></trkpt><trkpt lat="43.3895877" lon="11.4422417"><ele>362.33333333333337</ele><time>2026-05-02T08:50:19.248Z</time></trkpt><trkpt lat="43.3894907" lon="11.4420713"><ele>359.6666666666667</ele><time>2026-05-02T08:50:20.249Z</time></trkpt><trkpt lat="43.3893845" lon="11.4419007"><ele>357.0</ele><time>2026-05-02T08:50:21.248Z</time></trkpt><trkpt lat="43.3892755" lon="11.4417313"><ele>357.0</ele><time>2026-05-02T08:50:22.25Z</time></trkpt><trkpt lat="43.3891672" lon="11.441563"><ele>357.0</ele><time>2026-05-02T08:50:23.254Z</time></trkpt><trkpt lat="43.3890583" lon="11.4413973"><ele>357.0</ele><time>2026-05-02T08:50:24.248Z</time></trkpt><trkpt lat="43.388949" lon="11.4412332"><ele>356.0</ele><time>2026-05-02T08:50:25.25Z</time></trkpt><trkpt lat="43.388834" lon="11.4410752"><ele>355.0</ele><time>2026-05-02T08:50:26.249Z</time></trkpt><trkpt lat="43.3887105" lon="11.4409272"><ele>354.0</ele><time>2026-05-02T08:50:27.25Z</time></trkpt><trkpt lat="43.3885785" lon="11.4407865"><ele>354.0</ele><time>2026-05-02T08:50:28.249Z</time></trkpt><trkpt lat="43.3884473" lon="11.4406363"><ele>354.0</ele><time>2026-05-02T08:50:29.249Z</time></trkpt><trkpt lat="43.388325" lon="11.4404747"><ele>354.0</ele><time>2026-05-02T08:50:30.248Z</time></trkpt><trkpt lat="43.3882077" lon="11.440309"><ele>351.3333333333333</ele><time>2026-05-02T08:50:31.247Z</time></trkpt><trkpt lat="43.3880915" lon="11.440143"><ele>348.66666666666663</ele><time>2026-05-02T08:50:32.248Z</time></trkpt><trkpt lat="43.3879823" lon="11.4399698"><ele>346.0</ele><time>2026-05-02T08:50:33.247Z</time></trkpt><trkpt lat="43.3878828" lon="11.4397847"><ele>344.66666666666663</ele><time>2026-05-02T08:50:34.249Z</time></trkpt><trkpt lat="43.3877827" lon="11.4395925"><ele>343.3333333333333</ele><time>2026-05-02T08:50:35.251Z</time></trkpt><trkpt lat="43.3876783" lon="11.4394085"><ele>342.0</ele><time>2026-05-02T08:50:36.251Z</time></trkpt><trkpt lat="43.3875712" lon="11.4392358"><ele>342.0</ele><time>2026-05-02T08:50:37.253Z</time></trkpt><trkpt lat="43.3874682" lon="11.439071"><ele>342.0</ele><time>2026-05-02T08:50:38.253Z</time></trkpt><trkpt lat="43.3873698" lon="11.4389158"><ele>342.0</ele><time>2026-05-02T08:50:39.249Z</time></trkpt><trkpt lat="43.3872792" lon="11.4387668"><ele>342.0</ele><time>2026-05-02T08:50:40.25Z</time></trkpt><trkpt lat="43.3872003" lon="11.4386112"><ele>342.3333333333333</ele><time>2026-05-02T08:50:41.25Z</time></trkpt><trkpt lat="43.3871333" lon="11.4384378"><ele>342.66666666666663</ele><time>2026-05-02T08:50:42.25Z</time></trkpt><trkpt lat="43.3870772" lon="11.4382447"><ele>343.0</ele><time>2026-05-02T08:50:43.249Z</time></trkpt><trkpt lat="43.3870237" lon="11.4380417"><ele>343.3333333333333</ele><time>2026-05-02T08:50:44.247Z</time></trkpt><trkpt lat="43.3869682" lon="11.4378378"><ele>343.6666666666667</ele><time>2026-05-02T08:50:45.247Z</time></trkpt><trkpt lat="43.3869128" lon="11.437644"><ele>344.0</ele><time>2026-05-02T08:50:46.248Z</time></trkpt><trkpt lat="43.3868648" lon="11.437461"><ele>344.0</ele><time>2026-05-02T08:50:47.249Z</time></trkpt><trkpt lat="43.3868162" lon="11.4372873"><ele>344.0</ele><time>2026-05-02T08:50:48.25Z</time></trkpt><trkpt lat="43.3867575" lon="11.437132"><ele>344.0</ele><time>2026-05-02T08:50:49.247Z</time></trkpt><trkpt lat="43.3866773" lon="11.4369965"><ele>344.0</ele><time>2026-05-02T08:50:50.252Z</time></trkpt><trkpt lat="43.3865757" lon="11.4368715"><ele>342.75</ele><time>2026-05-02T08:50:51.247Z</time></trkpt><trkpt lat="43.3864617" lon="11.436751"><ele>341.5</ele><time>2026-05-02T08:50:52.248Z</time></trkpt><trkpt lat="43.3863443" lon="11.4366288"><ele>340.25</ele><time>2026-05-02T08:50:53.251Z</time></trkpt><trkpt lat="43.3862323" lon="11.4365062"><ele>339.0</ele><time>2026-05-02T08:50:54.248Z</time></trkpt><trkpt lat="43.3861312" lon="11.4363843"><ele>338.25</ele><time>2026-05-02T08:50:55.249Z</time></trkpt><trkpt lat="43.3860417" lon="11.4362625"><ele>337.5</ele><time>2026-05-02T08:50:56.248Z</time></trkpt><trkpt lat="43.385961" lon="11.4361448"><ele>336.75</ele><time>2026-05-02T08:50:57.248Z</time></trkpt><trkpt lat="43.385884" lon="11.4360387"><ele>336.0</ele><time>2026-05-02T08:50:58.25Z</time></trkpt><trkpt lat="43.3858018" lon="11.4359508"><ele>336.0</ele><time>2026-05-02T08:50:59.251Z</time></trkpt><trkpt lat="43.3857173" lon="11.4358777"><ele>336.0</ele><time>2026-05-02T08:51:00.25Z</time></trkpt><trkpt lat="43.3856342" lon="11.4358128"><ele>336.0</ele><time>2026-05-02T08:51:01.249Z</time></trkpt><trkpt lat="43.3855487" lon="11.4357477"><ele>336.0</ele><time>2026-05-02T08:51:02.249Z</time></trkpt><trkpt lat="43.3854613" lon="11.4356745"><ele>336.0</ele><time>2026-05-02T08:51:03.252Z</time></trkpt><trkpt lat="43.3853698" lon="11.435596"><ele>334.75</ele><time>2026-05-02T08:51:04.251Z</time></trkpt><trkpt lat="43.3852727" lon="11.4355117"><ele>333.5</ele><time>2026-05-02T08:51:05.25Z</time></trkpt><trkpt lat="43.3851723" lon="11.435429"><ele>332.25</ele><time>2026-05-02T08:51:06.249Z</time></trkpt><trkpt lat="43.3850697" lon="11.4353508"><ele>331.0</ele><time>2026-05-02T08:51:07.252Z</time></trkpt><trkpt lat="43.384961" lon="11.435284"><ele>330.5</ele><time>2026-05-02T08:51:08.25Z</time></trkpt><trkpt lat="43.3848442" lon="11.435229"><ele>330.0</ele><time>2026-05-02T08:51:09.251Z</time></trkpt><trkpt lat="43.3847212" lon="11.4351855"><ele>329.5</ele><time>2026-05-02T08:51:10.251Z</time></trkpt><trkpt lat="43.3845917" lon="11.435152"><ele>329.0</ele><time>2026-05-02T08:51:11.252Z</time></trkpt><trkpt lat="43.384458" lon="11.4351188"><ele>328.0</ele><time>2026-05-02T08:51:12.252Z</time></trkpt><trkpt lat="43.3843215" lon="11.435084"><ele>327.0</ele><time>2026-05-02T08:51:13.251Z</time></trkpt><trkpt lat="43.3841822" lon="11.4350498"><ele>326.0</ele><time>2026-05-02T08:51:14.251Z</time></trkpt><trkpt lat="43.3840405" lon="11.4350158"><ele>325.0</ele><time>2026-05-02T08:51:15.253Z</time></trkpt><trkpt lat="43.3838992" lon="11.4349793"><ele>324.75</ele><time>2026-05-02T08:51:16.254Z</time></trkpt><trkpt lat="43.3837593" lon="11.4349367"><ele>324.5</ele><time>2026-05-02T08:51:17.253Z</time></trkpt><trkpt lat="43.3836232" lon="11.4348813"><ele>324.25</ele><time>2026-05-02T08:51:18.252Z</time></trkpt><trkpt lat="43.3834912" lon="11.4348113"><ele>324.0</ele><time>2026-05-02T08:51:19.25Z</time></trkpt><trkpt lat="43.3833652" lon="11.4347282"><ele>324.75</ele><time>2026-05-02T08:51:20.249Z</time></trkpt><trkpt lat="43.3832452" lon="11.4346328"><ele>325.5</ele><time>2026-05-02T08:51:21.251Z</time></trkpt><trkpt lat="43.3831332" lon="11.4345257"><ele>326.25</ele><time>2026-05-02T08:51:22.249Z</time></trkpt><trkpt lat="43.3830257" lon="11.4344135"><ele>327.0</ele><time>2026-05-02T08:51:23.251Z</time></trkpt><trkpt lat="43.3829163" lon="11.4343102"><ele>327.0</ele><time>2026-05-02T08:51:24.251Z</time></trkpt><trkpt lat="43.3828" lon="11.4342245"><ele>327.0</ele><time>2026-05-02T08:51:25.25Z</time></trkpt><trkpt lat="43.3826753" lon="11.4341593"><ele>327.0</ele><time>2026-05-02T08:51:26.251Z</time></trkpt><trkpt lat="43.3825468" lon="11.4341103"><ele>327.0</ele><time>2026-05-02T08:51:27.251Z</time></trkpt><trkpt lat="43.3824158" lon="11.4340725"><ele>327.0</ele><time>2026-05-02T08:51:28.252Z</time></trkpt><trkpt lat="43.3822828" lon="11.4340405"><ele>327.0</ele><time>2026-05-02T08:51:29.25Z</time></trkpt><trkpt lat="43.3821522" lon="11.4340183"><ele>327.0</ele><time>2026-05-02T08:51:30.249Z</time></trkpt><trkpt lat="43.3820285" lon="11.4340085"><ele>327.0</ele><time>2026-05-02T08:51:31.249Z</time></trkpt><trkpt lat="43.3819132" lon="11.4339992"><ele>326.5</ele><time>2026-05-02T08:51:32.251Z</time></trkpt><trkpt lat="43.3818007" lon="11.4339788"><ele>326.0</ele><time>2026-05-02T08:51:33.249Z</time></trkpt><trkpt lat="43.3816908" lon="11.4339398"><ele>325.5</ele><time>2026-05-02T08:51:34.249Z</time></trkpt><trkpt lat="43.38158" lon="11.4338773"><ele>325.0</ele><time>2026-05-02T08:51:35.25Z</time></trkpt><trkpt lat="43.3814635" lon="11.4337998"><ele>323.0</ele><time>2026-05-02T08:51:36.249Z</time></trkpt><trkpt lat="43.3813398" lon="11.4337252"><ele>321.0</ele><time>2026-05-02T08:51:37.25Z</time></trkpt><trkpt lat="43.3812173" lon="11.4336473"><ele>319.0</ele><time>2026-05-02T08:51:38.251Z</time></trkpt><trkpt lat="43.381102" lon="11.433558"><ele>317.0</ele><time>2026-05-02T08:51:39.253Z</time></trkpt><trkpt lat="43.3809957" lon="11.433452"><ele>317.0</ele><time>2026-05-02T08:51:40.25Z</time></trkpt><trkpt lat="43.3808982" lon="11.4333305"><ele>317.0</ele><time>2026-05-02T08:51:41.251Z</time></trkpt><trkpt lat="43.3808135" lon="11.4331937"><ele>317.0</ele><time>2026-05-02T08:51:42.249Z</time></trkpt><trkpt lat="43.3807448" lon="11.4330532"><ele>317.0</ele><time>2026-05-02T08:51:43.249Z</time></trkpt><trkpt lat="43.380677" lon="11.432923"><ele>317.2</ele><time>2026-05-02T08:51:44.247Z</time></trkpt><trkpt lat="43.3805945" lon="11.4328233"><ele>317.4</ele><time>2026-05-02T08:51:45.249Z</time></trkpt><trkpt lat="43.3804918" lon="11.4327547"><ele>317.6</ele><time>2026-05-02T08:51:46.248Z</time></trkpt><trkpt lat="43.3803873" lon="11.4327087"><ele>317.8</ele><time>2026-05-02T08:51:47.247Z</time></trkpt><trkpt lat="43.3803003" lon="11.4326787"><ele>318.0</ele><time>2026-05-02T08:51:48.249Z</time></trkpt><trkpt lat="43.380233" lon="11.4326563"><ele>318.0</ele><time>2026-05-02T08:51:49.251Z</time></trkpt><trkpt lat="43.3801663" lon="11.4326388"><ele>318.0</ele><time>2026-05-02T08:51:50.25Z</time></trkpt><trkpt lat="43.3800892" lon="11.4326258"><ele>318.0</ele><time>2026-05-02T08:51:51.25Z</time></trkpt><trkpt lat="43.3799987" lon="11.4326187"><ele>318.0</ele><time>2026-05-02T08:51:52.249Z</time></trkpt><trkpt lat="43.3798968" lon="11.4326078"><ele>318.0</ele><time>2026-05-02T08:51:53.249Z</time></trkpt><trkpt lat="43.3797868" lon="11.4325873"><ele>318.0</ele><time>2026-05-02T08:51:54.25Z</time></trkpt><trkpt lat="43.3796707" lon="11.4325522"><ele>318.0</ele><time>2026-05-02T08:51:55.249Z</time></trkpt><trkpt lat="43.3795482" lon="11.432502"><ele>318.0</ele><time>2026-05-02T08:51:56.249Z</time></trkpt><trkpt lat="43.3794235" lon="11.4324432"><ele>318.0</ele><time>2026-05-02T08:51:57.25Z</time></trkpt><trkpt lat="43.3792955" lon="11.4323807"><ele>318.0</ele><time>2026-05-02T08:51:58.249Z</time></trkpt><trkpt lat="43.3791603" lon="11.4323177"><ele>318.0</ele><time>2026-05-02T08:51:59.252Z</time></trkpt><trkpt lat="43.3790187" lon="11.4322528"><ele>318.0</ele><time>2026-05-02T08:52:00.249Z</time></trkpt><trkpt lat="43.3788717" lon="11.4321842"><ele>318.0</ele><time>2026-05-02T08:52:01.252Z</time></trkpt><trkpt lat="43.378721" lon="11.4321105"><ele>317.6666666666667</ele><time>2026-05-02T08:52:02.251Z</time></trkpt><trkpt lat="43.3785662" lon="11.4320352"><ele>317.33333333333337</ele><time>2026-05-02T08:52:03.249Z</time></trkpt><trkpt lat="43.3784092" lon="11.4319588"><ele>317.0</ele><time>2026-05-02T08:52:04.249Z</time></trkpt><trkpt lat="43.3782508" lon="11.4318768"><ele>317.0</ele><time>2026-05-02T08:52:05.249Z</time></trkpt><trkpt lat="43.3780922" lon="11.431789"><ele>317.0</ele><time>2026-05-02T08:52:06.251Z</time></trkpt><trkpt lat="43.3779362" lon="11.4317057"><ele>317.0</ele><time>2026-05-02T08:52:07.249Z</time></trkpt><trkpt lat="43.3777883" lon="11.4316275"><ele>317.5</ele><time>2026-05-02T08:52:08.249Z</time></trkpt><trkpt lat="43.3776478" lon="11.4315545"><ele>318.0</ele><time>2026-05-02T08:52:09.247Z</time></trkpt><trkpt lat="43.3775112" lon="11.4314873"><ele>318.5</ele><time>2026-05-02T08:52:10.248Z</time></trkpt><trkpt lat="43.3773715" lon="11.431435"><ele>319.0</ele><time>2026-05-02T08:52:11.247Z</time></trkpt><trkpt lat="43.377226" lon="11.4313968"><ele>318.0</ele><time>2026-05-02T08:52:12.248Z</time></trkpt><trkpt lat="43.377073" lon="11.4313663"><ele>317.0</ele><time>2026-05-02T08:52:13.251Z</time></trkpt><trkpt lat="43.3769165" lon="11.4313417"><ele>316.0</ele><time>2026-05-02T08:52:14.249Z</time></trkpt><trkpt lat="43.376763" lon="11.4313217"><ele>315.25</ele><time>2026-05-02T08:52:15.249Z</time></trkpt><trkpt lat="43.3766152" lon="11.4313065"><ele>314.5</ele><time>2026-05-02T08:52:16.249Z</time></trkpt><trkpt lat="43.3764745" lon="11.4312932"><ele>313.75</ele><time>2026-05-02T08:52:17.248Z</time></trkpt><trkpt lat="43.376337" lon="11.4312762"><ele>313.0</ele><time>2026-05-02T08:52:18.258Z</time></trkpt><trkpt lat="43.3761982" lon="11.431251"><ele>313.0</ele><time>2026-05-02T08:52:19.25Z</time></trkpt><trkpt lat="43.3760575" lon="11.4312238"><ele>313.0</ele><time>2026-05-02T08:52:20.25Z</time></trkpt><trkpt lat="43.375915" lon="11.4311848"><ele>313.0</ele><time>2026-05-02T08:52:21.248Z</time></trkpt><trkpt lat="43.375774" lon="11.4311222"><ele>313.0</ele><time>2026-05-02T08:52:22.251Z</time></trkpt><trkpt lat="43.375633" lon="11.4310333"><ele>310.0</ele><time>2026-05-02T08:52:23.249Z</time></trkpt><trkpt lat="43.3754913" lon="11.4309332"><ele>307.0</ele><time>2026-05-02T08:52:24.249Z</time></trkpt><trkpt lat="43.3753455" lon="11.430828"><ele>304.0</ele><time>2026-05-02T08:52:25.251Z</time></trkpt><trkpt lat="43.3751958" lon="11.430722"><ele>304.0</ele><time>2026-05-02T08:52:26.25Z</time></trkpt><trkpt lat="43.3750437" lon="11.4306265"><ele>304.0</ele><time>2026-05-02T08:52:27.252Z</time></trkpt><trkpt lat="43.3748887" lon="11.4305437"><ele>304.0</ele><time>2026-05-02T08:52:28.251Z</time></trkpt><trkpt lat="43.3747323" lon="11.4304753"><ele>304.3333333333333</ele><time>2026-05-02T08:52:29.251Z</time></trkpt><trkpt lat="43.3745753" lon="11.4304158"><ele>304.6666666666667</ele><time>2026-05-02T08:52:30.25Z</time></trkpt><trkpt lat="43.3744182" lon="11.4303583"><ele>305.0</ele><time>2026-05-02T08:52:31.251Z</time></trkpt><trkpt lat="43.3742585" lon="11.4303063"><ele>305.0</ele><time>2026-05-02T08:52:32.25Z</time></trkpt><trkpt lat="43.3740967" lon="11.430256"><ele>305.0</ele><time>2026-05-02T08:52:33.247Z</time></trkpt><trkpt lat="43.3739327" lon="11.4302033"><ele>305.0</ele><time>2026-05-02T08:52:34.248Z</time></trkpt><trkpt lat="43.373769" lon="11.430138"><ele>304.6666666666667</ele><time>2026-05-02T08:52:35.248Z</time></trkpt><trkpt lat="43.3736043" lon="11.430061"><ele>304.3333333333333</ele><time>2026-05-02T08:52:36.248Z</time></trkpt><trkpt lat="43.3734395" lon="11.4299757"><ele>304.0</ele><time>2026-05-02T08:52:37.25Z</time></trkpt><trkpt lat="43.3732757" lon="11.4298835"><ele>304.0</ele><time>2026-05-02T08:52:38.251Z</time></trkpt><trkpt lat="43.3731117" lon="11.429791"><ele>304.0</ele><time>2026-05-02T08:52:39.249Z</time></trkpt><trkpt lat="43.3729495" lon="11.429697"><ele>304.0</ele><time>2026-05-02T08:52:40.249Z</time></trkpt><trkpt lat="43.3727905" lon="11.4296018"><ele>301.66666666666663</ele><time>2026-05-02T08:52:41.25Z</time></trkpt><trkpt lat="43.3726303" lon="11.429507"><ele>299.3333333333333</ele><time>2026-05-02T08:52:42.251Z</time></trkpt><trkpt lat="43.3724698" lon="11.4294153"><ele>297.0</ele><time>2026-05-02T08:52:43.249Z</time></trkpt><trkpt lat="43.3723067" lon="11.4293272"><ele>295.6666666666667</ele><time>2026-05-02T08:52:44.25Z</time></trkpt><trkpt lat="43.3721423" lon="11.4292375"><ele>294.33333333333337</ele><time>2026-05-02T08:52:45.25Z</time></trkpt><trkpt lat="43.3719773" lon="11.4291465"><ele>293.0</ele><time>2026-05-02T08:52:46.25Z</time></trkpt><trkpt lat="43.3718162" lon="11.4290577"><ele>293.0</ele><time>2026-05-02T08:52:47.25Z</time></trkpt><trkpt lat="43.3716637" lon="11.4289702"><ele>293.0</ele><time>2026-05-02T08:52:48.249Z</time></trkpt><trkpt lat="43.3715157" lon="11.4288932"><ele>293.0</ele><time>2026-05-02T08:52:49.25Z</time></trkpt><trkpt lat="43.3713672" lon="11.428824"><ele>293.33333333333337</ele><time>2026-05-02T08:52:50.25Z</time></trkpt><trkpt lat="43.3712115" lon="11.4287728"><ele>293.6666666666667</ele><time>2026-05-02T08:52:51.248Z</time></trkpt><trkpt lat="43.3710497" lon="11.4287317"><ele>294.0</ele><time>2026-05-02T08:52:52.252Z</time></trkpt><trkpt lat="43.3708843" lon="11.4286947"><ele>294.0</ele><time>2026-05-02T08:52:53.254Z</time></trkpt><trkpt lat="43.3707147" lon="11.4286608"><ele>294.0</ele><time>2026-05-02T08:52:54.25Z</time></trkpt><trkpt lat="43.3705413" lon="11.4286348"><ele>294.0</ele><time>2026-05-02T08:52:55.25Z</time></trkpt><trkpt lat="43.3703663" lon="11.4286108"><ele>291.6666666666667</ele><time>2026-05-02T08:52:56.25Z</time></trkpt><trkpt lat="43.3701908" lon="11.4285835"><ele>289.33333333333337</ele><time>2026-05-02T08:52:57.249Z</time></trkpt><trkpt lat="43.370015" lon="11.4285593"><ele>287.0</ele><time>2026-05-02T08:52:58.248Z</time></trkpt><trkpt lat="43.3698422" lon="11.4285395"><ele>285.33333333333337</ele><time>2026-05-02T08:52:59.25Z</time></trkpt><trkpt lat="43.3696728" lon="11.4285208"><ele>283.6666666666667</ele><time>2026-05-02T08:53:00.247Z</time></trkpt><trkpt lat="43.3695085" lon="11.4285018"><ele>282.0</ele><time>2026-05-02T08:53:01.25Z</time></trkpt><trkpt lat="43.3693512" lon="11.4284873"><ele>282.0</ele><time>2026-05-02T08:53:02.249Z</time></trkpt><trkpt lat="43.369201" lon="11.4284798"><ele>282.0</ele><time>2026-05-02T08:53:03.253Z</time></trkpt><trkpt lat="43.3690545" lon="11.428476"><ele>282.0</ele><time>2026-05-02T08:53:04.251Z</time></trkpt><trkpt lat="43.3689098" lon="11.4284647"><ele>282.0</ele><time>2026-05-02T08:53:05.25Z</time></trkpt><trkpt lat="43.3687658" lon="11.4284297"><ele>282.6666666666667</ele><time>2026-05-02T08:53:06.251Z</time></trkpt><trkpt lat="43.3686243" lon="11.42836"><ele>283.33333333333337</ele><time>2026-05-02T08:53:07.25Z</time></trkpt><trkpt lat="43.3684868" lon="11.4282607"><ele>284.0</ele><time>2026-05-02T08:53:08.25Z</time></trkpt><trkpt lat="43.3683582" lon="11.4281402"><ele>284.0</ele><time>2026-05-02T08:53:09.25Z</time></trkpt><trkpt lat="43.3682448" lon="11.4279962"><ele>284.0</ele><time>2026-05-02T08:53:10.253Z</time></trkpt><trkpt lat="43.368152" lon="11.4278255"><ele>284.0</ele><time>2026-05-02T08:53:11.252Z</time></trkpt><trkpt lat="43.3680837" lon="11.4276327"><ele>284.0</ele><time>2026-05-02T08:53:12.25Z</time></trkpt><trkpt lat="43.3680288" lon="11.4274332"><ele>284.0</ele><time>2026-05-02T08:53:13.253Z</time></trkpt><trkpt lat="43.3679733" lon="11.4272478"><ele>284.0</ele><time>2026-05-02T08:53:14.25Z</time></trkpt><trkpt lat="43.3679083" lon="11.4270827"><ele>284.0</ele><time>2026-05-02T08:53:15.25Z</time></trkpt><trkpt lat="43.3678245" lon="11.42694"><ele>284.0</ele><time>2026-05-02T08:53:16.25Z</time></trkpt><trkpt lat="43.3677173" lon="11.4268248"><ele>284.0</ele><time>2026-05-02T08:53:17.251Z</time></trkpt><trkpt lat="43.367589" lon="11.4267407"><ele>284.0</ele><time>2026-05-02T08:53:18.251Z</time></trkpt><trkpt lat="43.3674445" lon="11.4266765"><ele>284.0</ele><time>2026-05-02T08:53:19.25Z</time></trkpt><trkpt lat="43.3672887" lon="11.426619"><ele>285.6666666666667</ele><time>2026-05-02T08:53:20.251Z</time></trkpt><trkpt lat="43.3671298" lon="11.4265545"><ele>287.3333333333333</ele><time>2026-05-02T08:53:21.249Z</time></trkpt><trkpt lat="43.3669738" lon="11.4264865"><ele>289.0</ele><time>2026-05-02T08:53:22.248Z</time></trkpt><trkpt lat="43.3668222" lon="11.4264225"><ele>289.0</ele><time>2026-05-02T08:53:23.249Z</time></trkpt><trkpt lat="43.3666787" lon="11.4263705"><ele>289.0</ele><time>2026-05-02T08:53:24.247Z</time></trkpt><trkpt lat="43.3665405" lon="11.4263392"><ele>289.0</ele><time>2026-05-02T08:53:25.247Z</time></trkpt><trkpt lat="43.3664063" lon="11.4263363"><ele>289.0</ele><time>2026-05-02T08:53:26.248Z</time></trkpt><trkpt lat="43.366275" lon="11.4263552"><ele>289.25</ele><time>2026-05-02T08:53:27.248Z</time></trkpt><trkpt lat="43.366151" lon="11.4263785"><ele>289.5</ele><time>2026-05-02T08:53:28.248Z</time></trkpt><trkpt lat="43.3660328" lon="11.4263822"><ele>289.75</ele><time>2026-05-02T08:53:29.247Z</time></trkpt><trkpt lat="43.3659208" lon="11.4263482"><ele>290.0</ele><time>2026-05-02T08:53:30.249Z</time></trkpt><trkpt lat="43.365823" lon="11.4262735"><ele>290.0</ele><time>2026-05-02T08:53:31.248Z</time></trkpt><trkpt lat="43.3657368" lon="11.4261673"><ele>290.0</ele><time>2026-05-02T08:53:32.253Z</time></trkpt><trkpt lat="43.3656542" lon="11.4260407"><ele>290.0</ele><time>2026-05-02T08:53:33.251Z</time></trkpt><trkpt lat="43.3655687" lon="11.4259013"><ele>290.0</ele><time>2026-05-02T08:53:34.25Z</time></trkpt><trkpt lat="43.3654767" lon="11.4257535"><ele>288.0</ele><time>2026-05-02T08:53:35.249Z</time></trkpt><trkpt lat="43.3653805" lon="11.4256003"><ele>286.0</ele><time>2026-05-02T08:53:36.248Z</time></trkpt><trkpt lat="43.3652833" lon="11.4254503"><ele>284.0</ele><time>2026-05-02T08:53:37.247Z</time></trkpt><trkpt lat="43.3651892" lon="11.425303"><ele>282.0</ele><time>2026-05-02T08:53:38.248Z</time></trkpt><trkpt lat="43.365098" lon="11.4251563"><ele>281.75</ele><time>2026-05-02T08:53:39.248Z</time></trkpt><trkpt lat="43.3650077" lon="11.425008"><ele>281.5</ele><time>2026-05-02T08:53:40.249Z</time></trkpt><trkpt lat="43.3649203" lon="11.4248563"><ele>281.25</ele><time>2026-05-02T08:53:41.248Z</time></trkpt><trkpt lat="43.364836" lon="11.424707"><ele>281.0</ele><time>2026-05-02T08:53:42.247Z</time></trkpt><trkpt lat="43.364756" lon="11.424565"><ele>280.25</ele><time>2026-05-02T08:53:43.248Z</time></trkpt><trkpt lat="43.364695" lon="11.4244055"><ele>279.5</ele><time>2026-05-02T08:53:44.249Z</time></trkpt><trkpt lat="43.3646462" lon="11.4242268"><ele>278.75</ele><time>2026-05-02T08:53:45.25Z</time></trkpt><trkpt lat="43.3646042" lon="11.4240345"><ele>278.0</ele><time>2026-05-02T08:53:46.248Z</time></trkpt><trkpt lat="43.3645698" lon="11.4238342"><ele>275.6666666666667</ele><time>2026-05-02T08:53:47.247Z</time></trkpt><trkpt lat="43.3645447" lon="11.4236215"><ele>273.3333333333333</ele><time>2026-05-02T08:53:48.248Z</time></trkpt><trkpt lat="43.3645263" lon="11.4233973"><ele>271.0</ele><time>2026-05-02T08:53:49.248Z</time></trkpt><trkpt lat="43.364514" lon="11.4231725"><ele>268.66666666666663</ele><time>2026-05-02T08:53:50.248Z</time></trkpt><trkpt lat="43.3645057" lon="11.4229437"><ele>266.3333333333333</ele><time>2026-05-02T08:53:51.249Z</time></trkpt><trkpt lat="43.3644995" lon="11.422722"><ele>264.0</ele><time>2026-05-02T08:53:52.248Z</time></trkpt><trkpt lat="43.3644908" lon="11.4225053"><ele>264.0</ele><time>2026-05-02T08:53:53.25Z</time></trkpt><trkpt lat="43.3644795" lon="11.4222973"><ele>264.0</ele><time>2026-05-02T08:53:54.247Z</time></trkpt><trkpt lat="43.3644737" lon="11.422098"><ele>264.0</ele><time>2026-05-02T08:53:55.247Z</time></trkpt><trkpt lat="43.364468" lon="11.4219045"><ele>264.0</ele><time>2026-05-02T08:53:56.247Z</time></trkpt><trkpt lat="43.3644607" lon="11.4217222"><ele>262.25</ele><time>2026-05-02T08:53:57.247Z</time></trkpt><trkpt lat="43.3644378" lon="11.4215475"><ele>260.5</ele><time>2026-05-02T08:53:58.251Z</time></trkpt><trkpt lat="43.364403" lon="11.4213795"><ele>258.75</ele><time>2026-05-02T08:53:59.249Z</time></trkpt><trkpt lat="43.3643543" lon="11.421216"><ele>257.0</ele><time>2026-05-02T08:54:00.249Z</time></trkpt><trkpt lat="43.3643028" lon="11.421048"><ele>256.75</ele><time>2026-05-02T08:54:01.248Z</time></trkpt><trkpt lat="43.3642512" lon="11.4208778"><ele>256.5</ele><time>2026-05-02T08:54:02.249Z</time></trkpt><trkpt lat="43.3641987" lon="11.4207093"><ele>256.25</ele><time>2026-05-02T08:54:03.247Z</time></trkpt><trkpt lat="43.3641558" lon="11.4205348"><ele>256.0</ele><time>2026-05-02T08:54:04.249Z</time></trkpt><trkpt lat="43.364124" lon="11.4203532"><ele>255.5</ele><time>2026-05-02T08:54:05.249Z</time></trkpt><trkpt lat="43.3641017" lon="11.4201675"><ele>255.0</ele><time>2026-05-02T08:54:06.249Z</time></trkpt><trkpt lat="43.3640813" lon="11.4199712"><ele>254.5</ele><time>2026-05-02T08:54:07.251Z</time></trkpt><trkpt lat="43.3640607" lon="11.4197788"><ele>254.0</ele><time>2026-05-02T08:54:08.249Z</time></trkpt><trkpt lat="43.3640447" lon="11.4195962"><ele>253.0</ele><time>2026-05-02T08:54:09.251Z</time></trkpt><trkpt lat="43.3640353" lon="11.4194235"><ele>252.0</ele><time>2026-05-02T08:54:10.249Z</time></trkpt><trkpt lat="43.3640298" lon="11.4192588"><ele>251.0</ele><time>2026-05-02T08:54:11.247Z</time></trkpt><trkpt lat="43.3640257" lon="11.4191068"><ele>250.0</ele><time>2026-05-02T08:54:12.249Z</time></trkpt><trkpt lat="43.3640217" lon="11.4189688"><ele>249.99999999999997</ele><time>2026-05-02T08:54:13.249Z</time></trkpt><trkpt lat="43.3640127" lon="11.4188478"><ele>250.0</ele><time>2026-05-02T08:54:14.25Z</time></trkpt><trkpt lat="43.3639825" lon="11.4187463"><ele>250.0</ele><time>2026-05-02T08:54:15.252Z</time></trkpt><trkpt lat="43.3639287" lon="11.4186663"><ele>250.0</ele><time>2026-05-02T08:54:16.249Z</time></trkpt><trkpt lat="43.3638722" lon="11.4186138"><ele>249.99999999999997</ele><time>2026-05-02T08:54:17.249Z</time></trkpt><trkpt lat="43.3637883" lon="11.4185665"><ele>250.0</ele><time>2026-05-02T08:54:19.25Z</time></trkpt><trkpt lat="43.3636933" lon="11.4185157"><ele>248.0</ele><time>2026-05-02T08:54:22.249Z</time></trkpt><trkpt lat="43.363627" lon="11.4185012"><ele>246.0</ele><time>2026-05-02T08:54:23.249Z</time></trkpt><trkpt lat="43.3635457" lon="11.4184947"><ele>244.0</ele><time>2026-05-02T08:54:24.249Z</time></trkpt><trkpt lat="43.3634425" lon="11.4184857"><ele>242.0</ele><time>2026-05-02T08:54:25.249Z</time></trkpt><trkpt lat="43.3633328" lon="11.4184762"><ele>240.0</ele><time>2026-05-02T08:54:26.251Z</time></trkpt><trkpt lat="43.3632157" lon="11.4184627"><ele>240.0</ele><time>2026-05-02T08:54:27.25Z</time></trkpt><trkpt lat="43.3630905" lon="11.4184447"><ele>240.0</ele><time>2026-05-02T08:54:28.248Z</time></trkpt><trkpt lat="43.3629665" lon="11.4184178"><ele>240.0</ele><time>2026-05-02T08:54:29.249Z</time></trkpt><trkpt lat="43.3628417" lon="11.4183863"><ele>240.0</ele><time>2026-05-02T08:54:30.247Z</time></trkpt><trkpt lat="43.3627115" lon="11.4183433"><ele>239.25</ele><time>2026-05-02T08:54:31.248Z</time></trkpt><trkpt lat="43.3625838" lon="11.4183007"><ele>238.5</ele><time>2026-05-02T08:54:32.248Z</time></trkpt><trkpt lat="43.3624622" lon="11.4182697"><ele>237.75</ele><time>2026-05-02T08:54:33.256Z</time></trkpt><trkpt lat="43.3623453" lon="11.4182672"><ele>237.0</ele><time>2026-05-02T08:54:34.248Z</time></trkpt><trkpt lat="43.3622345" lon="11.4183048"><ele>235.5</ele><time>2026-05-02T08:54:35.248Z</time></trkpt><trkpt lat="43.362132" lon="11.418377"><ele>234.0</ele><time>2026-05-02T08:54:36.246Z</time></trkpt><trkpt lat="43.3620362" lon="11.4184785"><ele>232.5</ele><time>2026-05-02T08:54:37.247Z</time></trkpt><trkpt lat="43.3619427" lon="11.4185988"><ele>231.0</ele><time>2026-05-02T08:54:38.246Z</time></trkpt><trkpt lat="43.3618605" lon="11.4187333"><ele>232.75</ele><time>2026-05-02T08:54:39.248Z</time></trkpt><trkpt lat="43.3617858" lon="11.4188662"><ele>234.5</ele><time>2026-05-02T08:54:40.248Z</time></trkpt><trkpt lat="43.3617062" lon="11.4189855"><ele>236.25</ele><time>2026-05-02T08:54:41.253Z</time></trkpt><trkpt lat="43.3616107" lon="11.4190775"><ele>238.0</ele><time>2026-05-02T08:54:42.248Z</time></trkpt><trkpt lat="43.3615002" lon="11.419143"><ele>238.0</ele><time>2026-05-02T08:54:43.249Z</time></trkpt><trkpt lat="43.3613787" lon="11.419196"><ele>238.0</ele><time>2026-05-02T08:54:44.25Z</time></trkpt><trkpt lat="43.3612462" lon="11.4192468"><ele>238.0</ele><time>2026-05-02T08:54:45.252Z</time></trkpt><trkpt lat="43.3611047" lon="11.419298"><ele>238.0</ele><time>2026-05-02T08:54:46.252Z</time></trkpt><trkpt lat="43.3609573" lon="11.4193492"><ele>236.0</ele><time>2026-05-02T08:54:47.253Z</time></trkpt><trkpt lat="43.3608047" lon="11.4193997"><ele>234.0</ele><time>2026-05-02T08:54:48.25Z</time></trkpt><trkpt lat="43.3606505" lon="11.4194538"><ele>232.0</ele><time>2026-05-02T08:54:49.251Z</time></trkpt><trkpt lat="43.3604958" lon="11.419509"><ele>232.0</ele><time>2026-05-02T08:54:50.252Z</time></trkpt><trkpt lat="43.3603405" lon="11.419565"><ele>232.0</ele><time>2026-05-02T08:54:51.25Z</time></trkpt><trkpt lat="43.360183" lon="11.4196175"><ele>232.0</ele><time>2026-05-02T08:54:52.25Z</time></trkpt><trkpt lat="43.3600242" lon="11.4196705"><ele>232.0</ele><time>2026-05-02T08:54:53.251Z</time></trkpt><trkpt lat="43.3598657" lon="11.4197287"><ele>232.0</ele><time>2026-05-02T08:54:54.25Z</time></trkpt><trkpt lat="43.3597102" lon="11.4197855"><ele>232.0</ele><time>2026-05-02T08:54:55.25Z</time></trkpt><trkpt lat="43.3595622" lon="11.4198418"><ele>231.0</ele><time>2026-05-02T08:54:56.25Z</time></trkpt><trkpt lat="43.3594228" lon="11.4198952"><ele>230.0</ele><time>2026-05-02T08:54:57.251Z</time></trkpt><trkpt lat="43.3592913" lon="11.4199337"><ele>229.0</ele><time>2026-05-02T08:54:58.249Z</time></trkpt><trkpt lat="43.3591638" lon="11.4199378"><ele>228.0</ele><time>2026-05-02T08:54:59.249Z</time></trkpt><trkpt lat="43.3590468" lon="11.4198958"><ele>228.0</ele><time>2026-05-02T08:55:00.248Z</time></trkpt><trkpt lat="43.3589412" lon="11.4198027"><ele>228.0</ele><time>2026-05-02T08:55:01.247Z</time></trkpt><trkpt lat="43.3588447" lon="11.4196703"><ele>228.0</ele><time>2026-05-02T08:55:02.249Z</time></trkpt><trkpt lat="43.3587468" lon="11.4195192"><ele>228.0</ele><time>2026-05-02T08:55:03.249Z</time></trkpt><trkpt lat="43.3586463" lon="11.4193637"><ele>226.0</ele><time>2026-05-02T08:55:04.249Z</time></trkpt><trkpt lat="43.358542" lon="11.419207"><ele>224.0</ele><time>2026-05-02T08:55:05.257Z</time></trkpt><trkpt lat="43.3584357" lon="11.4190455"><ele>222.0</ele><time>2026-05-02T08:55:06.253Z</time></trkpt><trkpt lat="43.3583283" lon="11.418879"><ele>221.66666666666669</ele><time>2026-05-02T08:55:07.252Z</time></trkpt><trkpt lat="43.3582208" lon="11.4187113"><ele>221.33333333333334</ele><time>2026-05-02T08:55:08.251Z</time></trkpt><trkpt lat="43.3581133" lon="11.4185498"><ele>221.0</ele><time>2026-05-02T08:55:09.251Z</time></trkpt><trkpt lat="43.3580048" lon="11.4183882"><ele>220.66666666666669</ele><time>2026-05-02T08:55:10.25Z</time></trkpt><trkpt lat="43.3578968" lon="11.4182232"><ele>220.33333333333331</ele><time>2026-05-02T08:55:11.251Z</time></trkpt><trkpt lat="43.3577938" lon="11.4180618"><ele>220.0</ele><time>2026-05-02T08:55:12.253Z</time></trkpt><trkpt lat="43.357692" lon="11.4179068"><ele>220.0</ele><time>2026-05-02T08:55:13.263Z</time></trkpt><trkpt lat="43.3575873" lon="11.4177485"><ele>220.0</ele><time>2026-05-02T08:55:14.252Z</time></trkpt><trkpt lat="43.357484" lon="11.4175913"><ele>220.0</ele><time>2026-05-02T08:55:15.253Z</time></trkpt><trkpt lat="43.3573832" lon="11.4174382"><ele>220.0</ele><time>2026-05-02T08:55:16.251Z</time></trkpt><trkpt lat="43.3572862" lon="11.4172912"><ele>220.0</ele><time>2026-05-02T08:55:17.251Z</time></trkpt><trkpt lat="43.357193" lon="11.4171518"><ele>220.0</ele><time>2026-05-02T08:55:18.252Z</time></trkpt><trkpt lat="43.3571027" lon="11.4170188"><ele>220.0</ele><time>2026-05-02T08:55:19.252Z</time></trkpt><trkpt lat="43.3570165" lon="11.416891"><ele>219.75</ele><time>2026-05-02T08:55:20.251Z</time></trkpt><trkpt lat="43.3569362" lon="11.416764"><ele>219.5</ele><time>2026-05-02T08:55:21.251Z</time></trkpt><trkpt lat="43.3568552" lon="11.4166393"><ele>219.25</ele><time>2026-05-02T08:55:22.251Z</time></trkpt><trkpt lat="43.3567743" lon="11.416508"><ele>219.0</ele><time>2026-05-02T08:55:23.254Z</time></trkpt><trkpt lat="43.3566937" lon="11.4163683"><ele>219.5</ele><time>2026-05-02T08:55:24.248Z</time></trkpt><trkpt lat="43.3566137" lon="11.416228"><ele>220.0</ele><time>2026-05-02T08:55:25.249Z</time></trkpt><trkpt lat="43.356535" lon="11.4160992"><ele>220.5</ele><time>2026-05-02T08:55:26.251Z</time></trkpt><trkpt lat="43.3564572" lon="11.4159867"><ele>221.0</ele><time>2026-05-02T08:55:27.249Z</time></trkpt><trkpt lat="43.3563713" lon="11.4159037"><ele>221.25</ele><time>2026-05-02T08:55:28.251Z</time></trkpt><trkpt lat="43.3562708" lon="11.4158643"><ele>221.5</ele><time>2026-05-02T08:55:29.251Z</time></trkpt><trkpt lat="43.3561525" lon="11.415866"><ele>221.75</ele><time>2026-05-02T08:55:30.252Z</time></trkpt><trkpt lat="43.356023" lon="11.4159005"><ele>222.0</ele><time>2026-05-02T08:55:31.25Z</time></trkpt><trkpt lat="43.3558903" lon="11.4159658"><ele>222.0</ele><time>2026-05-02T08:55:32.249Z</time></trkpt><trkpt lat="43.3557563" lon="11.416055"><ele>222.0</ele><time>2026-05-02T08:55:33.25Z</time></trkpt><trkpt lat="43.355625" lon="11.4161443"><ele>222.0</ele><time>2026-05-02T08:55:34.251Z</time></trkpt><trkpt lat="43.3554963" lon="11.4162103"><ele>222.0</ele><time>2026-05-02T08:55:35.252Z</time></trkpt><trkpt lat="43.3553618" lon="11.416239"><ele>223.66666666666669</ele><time>2026-05-02T08:55:36.25Z</time></trkpt><trkpt lat="43.3552153" lon="11.4162325"><ele>225.33333333333334</ele><time>2026-05-02T08:55:37.25Z</time></trkpt><trkpt lat="43.3550555" lon="11.4162153"><ele>227.0</ele><time>2026-05-02T08:55:38.249Z</time></trkpt><trkpt lat="43.3548878" lon="11.4161967"><ele>227.0</ele><time>2026-05-02T08:55:39.251Z</time></trkpt><trkpt lat="43.354717" lon="11.4161743"><ele>227.0</ele><time>2026-05-02T08:55:40.25Z</time></trkpt><trkpt lat="43.3545432" lon="11.4161545"><ele>227.0</ele><time>2026-05-02T08:55:41.251Z</time></trkpt><trkpt lat="43.3543687" lon="11.416134"><ele>226.33333333333334</ele><time>2026-05-02T08:55:42.25Z</time></trkpt><trkpt lat="43.3541957" lon="11.4161138"><ele>225.66666666666669</ele><time>2026-05-02T08:55:43.259Z</time></trkpt><trkpt lat="43.3540255" lon="11.416096"><ele>225.0</ele><time>2026-05-02T08:55:44.249Z</time></trkpt><trkpt lat="43.3538588" lon="11.4160775"><ele>224.33333333333331</ele><time>2026-05-02T08:55:45.25Z</time></trkpt><trkpt lat="43.3536928" lon="11.4160477"><ele>223.66666666666666</ele><time>2026-05-02T08:55:46.249Z</time></trkpt><trkpt lat="43.3535238" lon="11.4160092"><ele>223.0</ele><time>2026-05-02T08:55:47.25Z</time></trkpt><trkpt lat="43.3533517" lon="11.4159613"><ele>223.0</ele><time>2026-05-02T08:55:48.248Z</time></trkpt><trkpt lat="43.353176" lon="11.415908"><ele>223.0</ele><time>2026-05-02T08:55:49.247Z</time></trkpt><trkpt lat="43.3529973" lon="11.4158537"><ele>223.0</ele><time>2026-05-02T08:55:50.248Z</time></trkpt><trkpt lat="43.352818" lon="11.4157993"><ele>223.0</ele><time>2026-05-02T08:55:51.248Z</time></trkpt><trkpt lat="43.3526363" lon="11.4157465"><ele>223.0</ele><time>2026-05-02T08:55:52.248Z</time></trkpt><trkpt lat="43.3524513" lon="11.4156963"><ele>223.0</ele><time>2026-05-02T08:55:53.252Z</time></trkpt><trkpt lat="43.3522752" lon="11.4156478"><ele>221.5</ele><time>2026-05-02T08:55:54.25Z</time></trkpt><trkpt lat="43.352118" lon="11.4156042"><ele>220.0</ele><time>2026-05-02T08:55:55.252Z</time></trkpt><trkpt lat="43.3518142" lon="11.4155143"><ele>220.0</ele><time>2026-05-02T08:55:57.25Z</time></trkpt><trkpt lat="43.3516562" lon="11.415469"><ele>220.0</ele><time>2026-05-02T08:55:58.251Z</time></trkpt><trkpt lat="43.351496" lon="11.4154223"><ele>220.0</ele><time>2026-05-02T08:55:59.25Z</time></trkpt><trkpt lat="43.3513378" lon="11.4153763"><ele>220.0</ele><time>2026-05-02T08:56:00.248Z</time></trkpt><trkpt lat="43.3511825" lon="11.4153312"><ele>220.0</ele><time>2026-05-02T08:56:01.247Z</time></trkpt><trkpt lat="43.3510312" lon="11.4152923"><ele>220.0</ele><time>2026-05-02T08:56:02.251Z</time></trkpt><trkpt lat="43.3508862" lon="11.4152583"><ele>220.0</ele><time>2026-05-02T08:56:03.248Z</time></trkpt><trkpt lat="43.3507487" lon="11.4152202"><ele>220.0</ele><time>2026-05-02T08:56:04.247Z</time></trkpt><trkpt lat="43.3506205" lon="11.4151805"><ele>220.0</ele><time>2026-05-02T08:56:05.249Z</time></trkpt><trkpt lat="43.3504987" lon="11.4151448"><ele>220.0</ele><time>2026-05-02T08:56:06.248Z</time></trkpt><trkpt lat="43.3503783" lon="11.41511"><ele>221.5</ele><time>2026-05-02T08:56:07.249Z</time></trkpt><trkpt lat="43.350266" lon="11.4150593"><ele>223.0</ele><time>2026-05-02T08:56:08.248Z</time></trkpt><trkpt lat="43.35016" lon="11.4149857"><ele>224.5</ele><time>2026-05-02T08:56:09.248Z</time></trkpt><trkpt lat="43.3500642" lon="11.414881"><ele>226.0</ele><time>2026-05-02T08:56:10.247Z</time></trkpt><trkpt lat="43.3499782" lon="11.4147517"><ele>226.25</ele><time>2026-05-02T08:56:11.249Z</time></trkpt><trkpt lat="43.3498933" lon="11.4146052"><ele>226.5</ele><time>2026-05-02T08:56:12.248Z</time></trkpt><trkpt lat="43.3498058" lon="11.4144492"><ele>226.75</ele><time>2026-05-02T08:56:13.249Z</time></trkpt><trkpt lat="43.3497192" lon="11.4142858"><ele>227.0</ele><time>2026-05-02T08:56:14.248Z</time></trkpt><trkpt lat="43.349636" lon="11.4141223"><ele>227.0</ele><time>2026-05-02T08:56:15.246Z</time></trkpt><trkpt lat="43.3495602" lon="11.4139518"><ele>227.0</ele><time>2026-05-02T08:56:16.248Z</time></trkpt><trkpt lat="43.3494927" lon="11.4137752"><ele>227.0</ele><time>2026-05-02T08:56:17.249Z</time></trkpt><trkpt lat="43.3494283" lon="11.413595"><ele>227.0</ele><time>2026-05-02T08:56:18.249Z</time></trkpt><trkpt lat="43.3493597" lon="11.413417"><ele>227.0</ele><time>2026-05-02T08:56:19.247Z</time></trkpt><trkpt lat="43.3492758" lon="11.413246"><ele>227.0</ele><time>2026-05-02T08:56:20.247Z</time></trkpt><trkpt lat="43.3491723" lon="11.4130815"><ele>227.0</ele><time>2026-05-02T08:56:21.249Z</time></trkpt><trkpt lat="43.3490592" lon="11.4129222"><ele>226.33333333333334</ele><time>2026-05-02T08:56:22.249Z</time></trkpt><trkpt lat="43.3489488" lon="11.4127562"><ele>225.66666666666669</ele><time>2026-05-02T08:56:23.248Z</time></trkpt><trkpt lat="43.3488432" lon="11.4125742"><ele>225.0</ele><time>2026-05-02T08:56:24.249Z</time></trkpt><trkpt lat="43.3487517" lon="11.4123765"><ele>227.33333333333331</ele><time>2026-05-02T08:56:25.248Z</time></trkpt><trkpt lat="43.3486742" lon="11.4121657"><ele>229.66666666666666</ele><time>2026-05-02T08:56:26.248Z</time></trkpt><trkpt lat="43.3486107" lon="11.4119428"><ele>232.0</ele><time>2026-05-02T08:56:27.252Z</time></trkpt><trkpt lat="43.3485653" lon="11.4117013"><ele>232.0</ele><time>2026-05-02T08:56:28.25Z</time></trkpt><trkpt lat="43.3485367" lon="11.4114428"><ele>232.0</ele><time>2026-05-02T08:56:29.249Z</time></trkpt><trkpt lat="43.3485168" lon="11.4111768"><ele>232.0</ele><time>2026-05-02T08:56:30.25Z</time></trkpt><trkpt lat="43.3484905" lon="11.4109097"><ele>234.0</ele><time>2026-05-02T08:56:31.248Z</time></trkpt><trkpt lat="43.3484488" lon="11.4106422"><ele>236.0</ele><time>2026-05-02T08:56:32.249Z</time></trkpt><trkpt lat="43.3483913" lon="11.4103728"><ele>238.0</ele><time>2026-05-02T08:56:33.258Z</time></trkpt><trkpt lat="43.3483267" lon="11.4101065"><ele>238.66666666666666</ele><time>2026-05-02T08:56:34.249Z</time></trkpt><trkpt lat="43.3482593" lon="11.409838"><ele>239.33333333333331</ele><time>2026-05-02T08:56:35.25Z</time></trkpt><trkpt lat="43.3481938" lon="11.4095727"><ele>240.0</ele><time>2026-05-02T08:56:36.25Z</time></trkpt><trkpt lat="43.3481315" lon="11.4093163"><ele>240.0</ele><time>2026-05-02T08:56:37.25Z</time></trkpt><trkpt lat="43.3480818" lon="11.4090642"><ele>240.0</ele><time>2026-05-02T08:56:38.25Z</time></trkpt><trkpt lat="43.3480513" lon="11.4088037"><ele>240.0</ele><time>2026-05-02T08:56:39.247Z</time></trkpt><trkpt lat="43.3480355" lon="11.408531"><ele>248.0</ele><time>2026-05-02T08:56:40.25Z</time></trkpt><trkpt lat="43.3480265" lon="11.408253"><ele>256.0</ele><time>2026-05-02T08:56:41.248Z</time></trkpt><trkpt lat="43.3480243" lon="11.4079707"><ele>264.0</ele><time>2026-05-02T08:56:42.249Z</time></trkpt><trkpt lat="43.3480297" lon="11.4076848"><ele>266.0</ele><time>2026-05-02T08:56:43.248Z</time></trkpt><trkpt lat="43.3480412" lon="11.4073962"><ele>268.0</ele><time>2026-05-02T08:56:44.249Z</time></trkpt><trkpt lat="43.3480573" lon="11.4071097"><ele>270.0</ele><time>2026-05-02T08:56:45.248Z</time></trkpt><trkpt lat="43.3480797" lon="11.4068287"><ele>265.3333333333333</ele><time>2026-05-02T08:56:46.251Z</time></trkpt><trkpt lat="43.3481177" lon="11.4065578"><ele>260.66666666666663</ele><time>2026-05-02T08:56:47.249Z</time></trkpt><trkpt lat="43.3481757" lon="11.4062932"><ele>256.0</ele><time>2026-05-02T08:56:48.248Z</time></trkpt><trkpt lat="43.3482482" lon="11.4060343"><ele>256.0</ele><time>2026-05-02T08:56:49.249Z</time></trkpt><trkpt lat="43.3483183" lon="11.4057843"><ele>256.0</ele><time>2026-05-02T08:56:50.25Z</time></trkpt><trkpt lat="43.3483777" lon="11.4055313"><ele>256.0</ele><time>2026-05-02T08:56:51.249Z</time></trkpt><trkpt lat="43.3484215" lon="11.4052745"><ele>259.66666666666663</ele><time>2026-05-02T08:56:52.248Z</time></trkpt><trkpt lat="43.34845" lon="11.4050238"><ele>263.3333333333333</ele><time>2026-05-02T08:56:53.249Z</time></trkpt><trkpt lat="43.348479" lon="11.4047935"><ele>267.0</ele><time>2026-05-02T08:56:54.249Z</time></trkpt><trkpt lat="43.3485252" lon="11.4045767"><ele>267.6666666666667</ele><time>2026-05-02T08:56:55.248Z</time></trkpt><trkpt lat="43.3485952" lon="11.4043772"><ele>268.33333333333337</ele><time>2026-05-02T08:56:56.249Z</time></trkpt><trkpt lat="43.348688" lon="11.4041938"><ele>269.0</ele><time>2026-05-02T08:56:57.249Z</time></trkpt><trkpt lat="43.3487938" lon="11.4040277"><ele>270.0</ele><time>2026-05-02T08:56:58.25Z</time></trkpt><trkpt lat="43.348899" lon="11.4038672"><ele>271.0</ele><time>2026-05-02T08:56:59.252Z</time></trkpt><trkpt lat="43.3489922" lon="11.4036928"><ele>272.0</ele><time>2026-05-02T08:57:00.249Z</time></trkpt><trkpt lat="43.3490667" lon="11.4034993"><ele>272.0</ele><time>2026-05-02T08:57:01.249Z</time></trkpt><trkpt lat="43.3491103" lon="11.4032867"><ele>272.0</ele><time>2026-05-02T08:57:02.246Z</time></trkpt><trkpt lat="43.3491387" lon="11.4030515"><ele>272.0</ele><time>2026-05-02T08:57:03.246Z</time></trkpt><trkpt lat="43.3491548" lon="11.4028123"><ele>274.33333333333337</ele><time>2026-05-02T08:57:04.247Z</time></trkpt><trkpt lat="43.3491732" lon="11.4025772"><ele>276.6666666666667</ele><time>2026-05-02T08:57:05.246Z</time></trkpt><trkpt lat="43.349194" lon="11.4023577"><ele>279.0</ele><time>2026-05-02T08:57:06.247Z</time></trkpt><trkpt lat="43.3492217" lon="11.4021562"><ele>281.0</ele><time>2026-05-02T08:57:07.25Z</time></trkpt><trkpt lat="43.3492572" lon="11.401976"><ele>283.0</ele><time>2026-05-02T08:57:08.247Z</time></trkpt><trkpt lat="43.3493093" lon="11.4018115"><ele>285.0</ele><time>2026-05-02T08:57:09.247Z</time></trkpt><trkpt lat="43.3493907" lon="11.40167"><ele>287.0</ele><time>2026-05-02T08:57:10.248Z</time></trkpt><trkpt lat="43.349496" lon="11.401574"><ele>287.0</ele><time>2026-05-02T08:57:11.247Z</time></trkpt><trkpt lat="43.3496107" lon="11.4015378"><ele>287.0</ele><time>2026-05-02T08:57:12.249Z</time></trkpt><trkpt lat="43.349734" lon="11.4015598"><ele>287.0</ele><time>2026-05-02T08:57:13.249Z</time></trkpt><trkpt lat="43.3498565" lon="11.4016082"><ele>287.0</ele><time>2026-05-02T08:57:14.249Z</time></trkpt><trkpt lat="43.3499685" lon="11.4016375"><ele>286.0</ele><time>2026-05-02T08:57:15.26Z</time></trkpt><trkpt lat="43.350068" lon="11.4016327"><ele>285.0</ele><time>2026-05-02T08:57:16.25Z</time></trkpt><trkpt lat="43.3501493" lon="11.4015755"><ele>284.0</ele><time>2026-05-02T08:57:17.249Z</time></trkpt><trkpt lat="43.3502025" lon="11.4014747"><ele>283.0</ele><time>2026-05-02T08:57:18.248Z</time></trkpt><trkpt lat="43.3502183" lon="11.4013438"><ele>282.0</ele><time>2026-05-02T08:57:19.247Z</time></trkpt><trkpt lat="43.3501913" lon="11.401204"><ele>284.5</ele><time>2026-05-02T08:57:20.249Z</time></trkpt><trkpt lat="43.3501177" lon="11.4010608"><ele>287.0</ele><time>2026-05-02T08:57:21.248Z</time></trkpt><trkpt lat="43.3500163" lon="11.4009175"><ele>289.5</ele><time>2026-05-02T08:57:22.251Z</time></trkpt><trkpt lat="43.3499005" lon="11.400784"><ele>292.0</ele><time>2026-05-02T08:57:23.249Z</time></trkpt><trkpt lat="43.3497703" lon="11.4006833"><ele>292.66666666666663</ele><time>2026-05-02T08:57:24.249Z</time></trkpt><trkpt lat="43.3496255" lon="11.4006393"><ele>293.3333333333333</ele><time>2026-05-02T08:57:25.25Z</time></trkpt><trkpt lat="43.3494742" lon="11.40066"><ele>294.0</ele><time>2026-05-02T08:57:26.249Z</time></trkpt><trkpt lat="43.3493127" lon="11.4007288"><ele>294.0</ele><time>2026-05-02T08:57:27.25Z</time></trkpt><trkpt lat="43.3491502" lon="11.4008238"><ele>294.0</ele><time>2026-05-02T08:57:28.248Z</time></trkpt><trkpt lat="43.3489985" lon="11.4009232"><ele>294.0</ele><time>2026-05-02T08:57:29.248Z</time></trkpt><trkpt lat="43.348859" lon="11.4010107"><ele>295.5</ele><time>2026-05-02T08:57:30.248Z</time></trkpt><trkpt lat="43.3487297" lon="11.4010567"><ele>297.0</ele><time>2026-05-02T08:57:31.249Z</time></trkpt><trkpt lat="43.3486157" lon="11.4010417"><ele>298.5</ele><time>2026-05-02T08:57:32.249Z</time></trkpt><trkpt lat="43.3485102" lon="11.4009658"><ele>300.0</ele><time>2026-05-02T08:57:33.25Z</time></trkpt><trkpt lat="43.3484035" lon="11.4008468"><ele>300.0</ele><time>2026-05-02T08:57:34.25Z</time></trkpt><trkpt lat="43.3482868" lon="11.400708"><ele>300.0</ele><time>2026-05-02T08:57:35.251Z</time></trkpt><trkpt lat="43.348159" lon="11.4005717"><ele>300.0</ele><time>2026-05-02T08:57:36.249Z</time></trkpt><trkpt lat="43.3480142" lon="11.4004462"><ele>302.3333333333333</ele><time>2026-05-02T08:57:37.249Z</time></trkpt><trkpt lat="43.3478625" lon="11.4003427"><ele>304.66666666666663</ele><time>2026-05-02T08:57:38.249Z</time></trkpt><trkpt lat="43.3477253" lon="11.400255"><ele>307.0</ele><time>2026-05-02T08:57:39.248Z</time></trkpt><trkpt lat="43.3476043" lon="11.4001683"><ele>307.0</ele><time>2026-05-02T08:57:40.25Z</time></trkpt><trkpt lat="43.3475088" lon="11.400064"><ele>307.0</ele><time>2026-05-02T08:57:41.249Z</time></trkpt><trkpt lat="43.3474487" lon="11.3999327"><ele>307.0</ele><time>2026-05-02T08:57:42.248Z</time></trkpt><trkpt lat="43.347424" lon="11.399785"><ele>307.0</ele><time>2026-05-02T08:57:43.249Z</time></trkpt><trkpt lat="43.3474365" lon="11.399645"><ele>307.0</ele><time>2026-05-02T08:57:44.249Z</time></trkpt><trkpt lat="43.3474857" lon="11.3995213"><ele>307.25</ele><time>2026-05-02T08:57:45.249Z</time></trkpt><trkpt lat="43.3475613" lon="11.3994103"><ele>307.5</ele><time>2026-05-02T08:57:46.25Z</time></trkpt><trkpt lat="43.3476608" lon="11.399313"><ele>307.75</ele><time>2026-05-02T08:57:47.248Z</time></trkpt><trkpt lat="43.3477768" lon="11.3992243"><ele>308.0</ele><time>2026-05-02T08:57:48.25Z</time></trkpt><trkpt lat="43.3479045" lon="11.399146"><ele>308.0</ele><time>2026-05-02T08:57:49.252Z</time></trkpt><trkpt lat="43.3480422" lon="11.3990872"><ele>308.0</ele><time>2026-05-02T08:57:50.249Z</time></trkpt><trkpt lat="43.3481662" lon="11.399048"><ele>308.0</ele><time>2026-05-02T08:57:51.248Z</time></trkpt><trkpt lat="43.3482692" lon="11.3990217"><ele>308.0</ele><time>2026-05-02T08:57:52.249Z</time></trkpt><trkpt lat="43.3483472" lon="11.398999"><ele>308.33333333333337</ele><time>2026-05-02T08:57:53.248Z</time></trkpt><trkpt lat="43.3484177" lon="11.3989325"><ele>308.6666666666667</ele><time>2026-05-02T08:57:55.247Z</time></trkpt><trkpt lat="43.3483893" lon="11.3988243"><ele>309.0</ele><time>2026-05-02T08:57:57.248Z</time></trkpt><trkpt lat="43.348351" lon="11.3987472"><ele>309.3333333333333</ele><time>2026-05-02T08:57:58.247Z</time></trkpt><trkpt lat="43.348302" lon="11.3986592"><ele>309.66666666666663</ele><time>2026-05-02T08:57:59.25Z</time></trkpt><trkpt lat="43.348247" lon="11.398577"><ele>310.0</ele><time>2026-05-02T08:58:00.249Z</time></trkpt><trkpt lat="43.3481843" lon="11.3985213"><ele>309.0</ele><time>2026-05-02T08:58:01.248Z</time></trkpt><trkpt lat="43.3481152" lon="11.3985013"><ele>308.0</ele><time>2026-05-02T08:58:02.251Z</time></trkpt><trkpt lat="43.3480338" lon="11.3985153"><ele>307.0</ele><time>2026-05-02T08:58:03.248Z</time></trkpt><trkpt lat="43.3479405" lon="11.3985565"><ele>306.0</ele><time>2026-05-02T08:58:04.248Z</time></trkpt><trkpt lat="43.3478348" lon="11.3986085"><ele>305.0</ele><time>2026-05-02T08:58:05.249Z</time></trkpt><trkpt lat="43.347706" lon="11.3986537"><ele>303.5</ele><time>2026-05-02T08:58:06.248Z</time></trkpt><trkpt lat="43.3475663" lon="11.3986878"><ele>302.0</ele><time>2026-05-02T08:58:07.251Z</time></trkpt><trkpt lat="43.3474203" lon="11.3987133"><ele>300.5</ele><time>2026-05-02T08:58:08.249Z</time></trkpt><trkpt lat="43.3472783" lon="11.3987373"><ele>299.0</ele><time>2026-05-02T08:58:09.25Z</time></trkpt><trkpt lat="43.347146" lon="11.3987602"><ele>299.75</ele><time>2026-05-02T08:58:10.25Z</time></trkpt><trkpt lat="43.347023" lon="11.3987888"><ele>300.5</ele><time>2026-05-02T08:58:11.249Z</time></trkpt><trkpt lat="43.346914" lon="11.3988395"><ele>301.25</ele><time>2026-05-02T08:58:12.248Z</time></trkpt><trkpt lat="43.3468173" lon="11.3989205"><ele>302.0</ele><time>2026-05-02T08:58:13.248Z</time></trkpt><trkpt lat="43.3467237" lon="11.3990332"><ele>302.0</ele><time>2026-05-02T08:58:14.25Z</time></trkpt><trkpt lat="43.3466297" lon="11.3991675"><ele>302.0</ele><time>2026-05-02T08:58:15.25Z</time></trkpt><trkpt lat="43.3465373" lon="11.3993065"><ele>302.0</ele><time>2026-05-02T08:58:16.248Z</time></trkpt><trkpt lat="43.3464505" lon="11.3994398"><ele>302.0</ele><time>2026-05-02T08:58:17.249Z</time></trkpt><trkpt lat="43.3463702" lon="11.3995658"><ele>301.4</ele><time>2026-05-02T08:58:18.246Z</time></trkpt><trkpt lat="43.3462962" lon="11.3996825"><ele>300.79999999999995</ele><time>2026-05-02T08:58:19.247Z</time></trkpt><trkpt lat="43.346223" lon="11.399794"><ele>300.2</ele><time>2026-05-02T08:58:20.249Z</time></trkpt><trkpt lat="43.3461493" lon="11.3999053"><ele>299.59999999999997</ele><time>2026-05-02T08:58:21.251Z</time></trkpt><trkpt lat="43.34608" lon="11.4000168"><ele>299.0</ele><time>2026-05-02T08:58:22.251Z</time></trkpt><trkpt lat="43.346009" lon="11.4001275"><ele>299.0</ele><time>2026-05-02T08:58:23.249Z</time></trkpt><trkpt lat="43.345936" lon="11.4002387"><ele>299.0</ele><time>2026-05-02T08:58:24.25Z</time></trkpt><trkpt lat="43.3458595" lon="11.4003517"><ele>299.0</ele><time>2026-05-02T08:58:25.249Z</time></trkpt><trkpt lat="43.3457813" lon="11.4004637"><ele>299.0</ele><time>2026-05-02T08:58:26.251Z</time></trkpt><trkpt lat="43.3457067" lon="11.4005767"><ele>299.0</ele><time>2026-05-02T08:58:27.25Z</time></trkpt><trkpt lat="43.3456343" lon="11.4006853"><ele>299.0</ele><time>2026-05-02T08:58:28.249Z</time></trkpt><trkpt lat="43.3455685" lon="11.4007857"><ele>299.0</ele><time>2026-05-02T08:58:29.249Z</time></trkpt><trkpt lat="43.3455103" lon="11.4008808"><ele>299.0</ele><time>2026-05-02T08:58:30.25Z</time></trkpt><trkpt lat="43.3454523" lon="11.4009678"><ele>299.0</ele><time>2026-05-02T08:58:31.248Z</time></trkpt><trkpt lat="43.3453917" lon="11.4010425"><ele>299.0</ele><time>2026-05-02T08:58:32.249Z</time></trkpt><trkpt lat="43.3453193" lon="11.4011002"><ele>299.0</ele><time>2026-05-02T08:58:33.25Z</time></trkpt><trkpt lat="43.3452325" lon="11.4011468"><ele>299.0</ele><time>2026-05-02T08:58:34.249Z</time></trkpt><trkpt lat="43.3451403" lon="11.4011882"><ele>299.0</ele><time>2026-05-02T08:58:35.252Z</time></trkpt><trkpt lat="43.3450487" lon="11.4012303"><ele>299.0</ele><time>2026-05-02T08:58:36.249Z</time></trkpt><trkpt lat="43.344957" lon="11.4012702"><ele>299.0</ele><time>2026-05-02T08:58:37.249Z</time></trkpt><trkpt lat="43.3448655" lon="11.4013008"><ele>299.0</ele><time>2026-05-02T08:58:38.249Z</time></trkpt><trkpt lat="43.344772" lon="11.4013235"><ele>297.8</ele><time>2026-05-02T08:58:39.249Z</time></trkpt><trkpt lat="43.3446735" lon="11.4013408"><ele>296.59999999999997</ele><time>2026-05-02T08:58:40.246Z</time></trkpt><trkpt lat="43.3445725" lon="11.4013475"><ele>295.4</ele><time>2026-05-02T08:58:41.245Z</time></trkpt><trkpt lat="43.3444687" lon="11.4013502"><ele>294.2</ele><time>2026-05-02T08:58:42.246Z</time></trkpt><trkpt lat="43.3443613" lon="11.4013515"><ele>293.0</ele><time>2026-05-02T08:58:43.247Z</time></trkpt><trkpt lat="43.3442522" lon="11.4013637"><ele>293.0</ele><time>2026-05-02T08:58:44.248Z</time></trkpt><trkpt lat="43.344142" lon="11.4013892"><ele>293.0</ele><time>2026-05-02T08:58:45.249Z</time></trkpt><trkpt lat="43.3440268" lon="11.4014323"><ele>293.0</ele><time>2026-05-02T08:58:46.247Z</time></trkpt><trkpt lat="43.3439077" lon="11.4014913"><ele>293.0</ele><time>2026-05-02T08:58:47.25Z</time></trkpt><trkpt lat="43.3437848" lon="11.4015572"><ele>292.75</ele><time>2026-05-02T08:58:48.248Z</time></trkpt><trkpt lat="43.3436668" lon="11.4016292"><ele>292.5</ele><time>2026-05-02T08:58:49.248Z</time></trkpt><trkpt lat="43.343558" lon="11.4016928"><ele>292.25</ele><time>2026-05-02T08:58:50.251Z</time></trkpt><trkpt lat="43.3434585" lon="11.4017625"><ele>292.0</ele><time>2026-05-02T08:58:51.248Z</time></trkpt><trkpt lat="43.3433668" lon="11.4018502"><ele>292.0</ele><time>2026-05-02T08:58:52.249Z</time></trkpt><trkpt lat="43.3432848" lon="11.4019545"><ele>292.0</ele><time>2026-05-02T08:58:53.249Z</time></trkpt><trkpt lat="43.3432153" lon="11.4020755"><ele>292.0</ele><time>2026-05-02T08:58:54.25Z</time></trkpt><trkpt lat="43.3431582" lon="11.4022142"><ele>292.0</ele><time>2026-05-02T08:58:55.251Z</time></trkpt><trkpt lat="43.3431137" lon="11.4023677"><ele>291.4</ele><time>2026-05-02T08:58:56.25Z</time></trkpt><trkpt lat="43.3430892" lon="11.4025185"><ele>290.79999999999995</ele><time>2026-05-02T08:58:57.251Z</time></trkpt><trkpt lat="43.3430753" lon="11.4026648"><ele>290.2</ele><time>2026-05-02T08:58:58.25Z</time></trkpt><trkpt lat="43.3430638" lon="11.4028072"><ele>289.59999999999997</ele><time>2026-05-02T08:58:59.25Z</time></trkpt><trkpt lat="43.3430413" lon="11.402947"><ele>289.0</ele><time>2026-05-02T08:59:00.25Z</time></trkpt><trkpt lat="43.342998" lon="11.4030828"><ele>289.0</ele><time>2026-05-02T08:59:01.25Z</time></trkpt><trkpt lat="43.3429338" lon="11.4031995"><ele>289.0</ele><time>2026-05-02T08:59:02.253Z</time></trkpt><trkpt lat="43.3428543" lon="11.4032735"><ele>289.0</ele><time>2026-05-02T08:59:03.25Z</time></trkpt><trkpt lat="43.3427585" lon="11.403308"><ele>289.0</ele><time>2026-05-02T08:59:04.249Z</time></trkpt><trkpt lat="43.3426502" lon="11.4033287"><ele>289.0</ele><time>2026-05-02T08:59:05.248Z</time></trkpt><trkpt lat="43.3425433" lon="11.4033528"><ele>289.0</ele><time>2026-05-02T08:59:06.249Z</time></trkpt><trkpt lat="43.3424433" lon="11.4033893"><ele>289.0</ele><time>2026-05-02T08:59:07.25Z</time></trkpt><trkpt lat="43.3423502" lon="11.4034502"><ele>289.0</ele><time>2026-05-02T08:59:08.247Z</time></trkpt><trkpt lat="43.3422572" lon="11.403541"><ele>289.0</ele><time>2026-05-02T08:59:09.248Z</time></trkpt><trkpt lat="43.3421615" lon="11.403645"><ele>289.0</ele><time>2026-05-02T08:59:10.248Z</time></trkpt><trkpt lat="43.342062" lon="11.4037528"><ele>287.75</ele><time>2026-05-02T08:59:11.25Z</time></trkpt><trkpt lat="43.3419588" lon="11.4038652"><ele>286.5</ele><time>2026-05-02T08:59:12.25Z</time></trkpt><trkpt lat="43.341855" lon="11.4039833"><ele>285.25</ele><time>2026-05-02T08:59:13.251Z</time></trkpt><trkpt lat="43.3417507" lon="11.4041037"><ele>284.0</ele><time>2026-05-02T08:59:14.25Z</time></trkpt><trkpt lat="43.3416457" lon="11.4042223"><ele>284.0</ele><time>2026-05-02T08:59:15.252Z</time></trkpt><trkpt lat="43.3415423" lon="11.4043372"><ele>284.0</ele><time>2026-05-02T08:59:16.251Z</time></trkpt><trkpt lat="43.3414438" lon="11.4044553"><ele>284.0</ele><time>2026-05-02T08:59:17.252Z</time></trkpt><trkpt lat="43.3413523" lon="11.4045798"><ele>284.0</ele><time>2026-05-02T08:59:18.248Z</time></trkpt><trkpt lat="43.3412693" lon="11.4047108"><ele>285.5</ele><time>2026-05-02T08:59:19.251Z</time></trkpt><trkpt lat="43.3411915" lon="11.4048433"><ele>287.0</ele><time>2026-05-02T08:59:20.252Z</time></trkpt><trkpt lat="43.3411138" lon="11.4049685"><ele>288.5</ele><time>2026-05-02T08:59:21.252Z</time></trkpt><trkpt lat="43.341033" lon="11.405084"><ele>290.0</ele><time>2026-05-02T08:59:22.25Z</time></trkpt><trkpt lat="43.3409477" lon="11.4051897"><ele>290.0</ele><time>2026-05-02T08:59:23.251Z</time></trkpt><trkpt lat="43.3408555" lon="11.405281"><ele>290.0</ele><time>2026-05-02T08:59:24.249Z</time></trkpt><trkpt lat="43.3407557" lon="11.4053603"><ele>290.0</ele><time>2026-05-02T08:59:25.251Z</time></trkpt><trkpt lat="43.3406513" lon="11.405431"><ele>290.0</ele><time>2026-05-02T08:59:26.252Z</time></trkpt><trkpt lat="43.3405495" lon="11.4054987"><ele>290.0</ele><time>2026-05-02T08:59:27.25Z</time></trkpt><trkpt lat="43.3404478" lon="11.4055628"><ele>290.0</ele><time>2026-05-02T08:59:28.25Z</time></trkpt><trkpt lat="43.3403493" lon="11.4056213"><ele>290.0</ele><time>2026-05-02T08:59:29.249Z</time></trkpt><trkpt lat="43.340256" lon="11.4056758"><ele>290.0</ele><time>2026-05-02T08:59:30.249Z</time></trkpt><trkpt lat="43.3401642" lon="11.4057305"><ele>290.0</ele><time>2026-05-02T08:59:31.247Z</time></trkpt><trkpt lat="43.3400723" lon="11.40579"><ele>290.0</ele><time>2026-05-02T08:59:32.248Z</time></trkpt><trkpt lat="43.3399805" lon="11.4058508"><ele>290.0</ele><time>2026-05-02T08:59:33.249Z</time></trkpt><trkpt lat="43.3398888" lon="11.4059097"><ele>290.0</ele><time>2026-05-02T08:59:34.25Z</time></trkpt><trkpt lat="43.3397987" lon="11.4059657"><ele>290.0</ele><time>2026-05-02T08:59:35.251Z</time></trkpt><trkpt lat="43.339715" lon="11.4060295"><ele>290.0</ele><time>2026-05-02T08:59:36.249Z</time></trkpt><trkpt lat="43.3396397" lon="11.4061058"><ele>289.4</ele><time>2026-05-02T08:59:37.25Z</time></trkpt><trkpt lat="43.3395767" lon="11.4061987"><ele>288.8</ele><time>2026-05-02T08:59:38.25Z</time></trkpt><trkpt lat="43.339527" lon="11.4063077"><ele>288.2</ele><time>2026-05-02T08:59:39.25Z</time></trkpt><trkpt lat="43.3394785" lon="11.406431"><ele>287.6</ele><time>2026-05-02T08:59:40.25Z</time></trkpt><trkpt lat="43.339415" lon="11.4065585"><ele>287.0</ele><time>2026-05-02T08:59:41.25Z</time></trkpt><trkpt lat="43.3393363" lon="11.4066827"><ele>287.0</ele><time>2026-05-02T08:59:42.249Z</time></trkpt><trkpt lat="43.3392477" lon="11.4067947"><ele>287.0</ele><time>2026-05-02T08:59:43.251Z</time></trkpt><trkpt lat="43.3391527" lon="11.4069075"><ele>287.0</ele><time>2026-05-02T08:59:44.253Z</time></trkpt><trkpt lat="43.3390563" lon="11.4070217"><ele>287.0</ele><time>2026-05-02T08:59:45.253Z</time></trkpt><trkpt lat="43.3389613" lon="11.4071342"><ele>287.5</ele><time>2026-05-02T08:59:46.25Z</time></trkpt><trkpt lat="43.3388672" lon="11.4072492"><ele>288.0</ele><time>2026-05-02T08:59:47.252Z</time></trkpt><trkpt lat="43.338773" lon="11.407364"><ele>288.5</ele><time>2026-05-02T08:59:48.251Z</time></trkpt><trkpt lat="43.3386752" lon="11.407472"><ele>289.0</ele><time>2026-05-02T08:59:49.251Z</time></trkpt><trkpt lat="43.3385718" lon="11.4075682"><ele>289.0</ele><time>2026-05-02T08:59:50.251Z</time></trkpt><trkpt lat="43.3384683" lon="11.4076512"><ele>289.0</ele><time>2026-05-02T08:59:51.252Z</time></trkpt><trkpt lat="43.3383707" lon="11.4077217"><ele>289.0</ele><time>2026-05-02T08:59:52.25Z</time></trkpt><trkpt lat="43.3382763" lon="11.407783"><ele>289.0</ele><time>2026-05-02T08:59:53.25Z</time></trkpt><trkpt lat="43.3381828" lon="11.4078207"><ele>289.0</ele><time>2026-05-02T08:59:54.247Z</time></trkpt><trkpt lat="43.3380968" lon="11.4078188"><ele>289.4</ele><time>2026-05-02T08:59:55.248Z</time></trkpt><trkpt lat="43.3380155" lon="11.407777"><ele>289.79999999999995</ele><time>2026-05-02T08:59:56.249Z</time></trkpt><trkpt lat="43.3379302" lon="11.407709"><ele>290.20000000000005</ele><time>2026-05-02T08:59:57.249Z</time></trkpt><trkpt lat="43.3378397" lon="11.4076258"><ele>290.6</ele><time>2026-05-02T08:59:58.251Z</time></trkpt><trkpt lat="43.3377472" lon="11.4075373"><ele>291.0</ele><time>2026-05-02T08:59:59.25Z</time></trkpt><trkpt lat="43.3376498" lon="11.4074483"><ele>291.0</ele><time>2026-05-02T09:00:00.252Z</time></trkpt><trkpt lat="43.3375507" lon="11.40736"><ele>291.0</ele><time>2026-05-02T09:00:01.25Z</time></trkpt><trkpt lat="43.3374555" lon="11.4072702"><ele>291.0</ele><time>2026-05-02T09:00:02.249Z</time></trkpt><trkpt lat="43.3373665" lon="11.407188"><ele>291.0</ele><time>2026-05-02T09:00:03.249Z</time></trkpt><trkpt lat="43.3372763" lon="11.407113"><ele>291.0</ele><time>2026-05-02T09:00:04.247Z</time></trkpt><trkpt lat="43.3371757" lon="11.4070438"><ele>291.25</ele><time>2026-05-02T09:00:05.25Z</time></trkpt><trkpt lat="43.337062" lon="11.406978"><ele>291.5</ele><time>2026-05-02T09:00:06.25Z</time></trkpt><trkpt lat="43.3369368" lon="11.4069178"><ele>291.75</ele><time>2026-05-02T09:00:07.255Z</time></trkpt><trkpt lat="43.3368078" lon="11.4068675"><ele>292.0</ele><time>2026-05-02T09:00:08.249Z</time></trkpt><trkpt lat="43.3366798" lon="11.4068158"><ele>292.0</ele><time>2026-05-02T09:00:09.249Z</time></trkpt><trkpt lat="43.3365587" lon="11.4067638"><ele>292.0</ele><time>2026-05-02T09:00:10.251Z</time></trkpt><trkpt lat="43.3364438" lon="11.4067197"><ele>292.0</ele><time>2026-05-02T09:00:11.249Z</time></trkpt><trkpt lat="43.3363332" lon="11.4066933"><ele>292.0</ele><time>2026-05-02T09:00:12.248Z</time></trkpt><trkpt lat="43.3362283" lon="11.4066892"><ele>293.75</ele><time>2026-05-02T09:00:13.251Z</time></trkpt><trkpt lat="43.336128" lon="11.4067157"><ele>295.5</ele><time>2026-05-02T09:00:14.248Z</time></trkpt><trkpt lat="43.3360283" lon="11.4067728"><ele>297.25</ele><time>2026-05-02T09:00:15.249Z</time></trkpt><trkpt lat="43.3359278" lon="11.4068577"><ele>299.0</ele><time>2026-05-02T09:00:16.249Z</time></trkpt><trkpt lat="43.3358308" lon="11.4069598"><ele>299.0</ele><time>2026-05-02T09:00:17.25Z</time></trkpt><trkpt lat="43.3357442" lon="11.4070612"><ele>299.0</ele><time>2026-05-02T09:00:18.248Z</time></trkpt><trkpt lat="43.3356635" lon="11.4071597"><ele>299.0</ele><time>2026-05-02T09:00:19.249Z</time></trkpt><trkpt lat="43.3355782" lon="11.4072515"><ele>299.0</ele><time>2026-05-02T09:00:20.248Z</time></trkpt><trkpt lat="43.3354895" lon="11.4073193"><ele>299.0</ele><time>2026-05-02T09:00:21.248Z</time></trkpt><trkpt lat="43.3354053" lon="11.4073682"><ele>298.59999999999997</ele><time>2026-05-02T09:00:22.248Z</time></trkpt><trkpt lat="43.3353173" lon="11.4073935"><ele>298.2</ele><time>2026-05-02T09:00:23.247Z</time></trkpt><trkpt lat="43.3352207" lon="11.4074048"><ele>297.79999999999995</ele><time>2026-05-02T09:00:24.249Z</time></trkpt><trkpt lat="43.3351148" lon="11.4074168"><ele>297.4</ele><time>2026-05-02T09:00:25.248Z</time></trkpt><trkpt lat="43.3350017" lon="11.4074457"><ele>297.0</ele><time>2026-05-02T09:00:26.249Z</time></trkpt><trkpt lat="43.3348872" lon="11.407475"><ele>297.0</ele><time>2026-05-02T09:00:27.25Z</time></trkpt><trkpt lat="43.3347728" lon="11.4074872"><ele>297.0</ele><time>2026-05-02T09:00:28.252Z</time></trkpt><trkpt lat="43.3346638" lon="11.4074917"><ele>297.0</ele><time>2026-05-02T09:00:29.251Z</time></trkpt><trkpt lat="43.334562" lon="11.4074953"><ele>297.0</ele><time>2026-05-02T09:00:30.25Z</time></trkpt><trkpt lat="43.3344688" lon="11.4074955"><ele>297.0</ele><time>2026-05-02T09:00:31.249Z</time></trkpt><trkpt lat="43.3343885" lon="11.4074815"><ele>295.8333333333333</ele><time>2026-05-02T09:00:32.25Z</time></trkpt><trkpt lat="43.334324" lon="11.4074437"><ele>294.6666666666667</ele><time>2026-05-02T09:00:33.25Z</time></trkpt><trkpt lat="43.3342817" lon="11.4073788"><ele>293.5</ele><time>2026-05-02T09:00:34.249Z</time></trkpt><trkpt lat="43.334256" lon="11.4072888"><ele>292.33333333333337</ele><time>2026-05-02T09:00:35.253Z</time></trkpt><trkpt lat="43.33424" lon="11.4071755"><ele>291.1666666666667</ele><time>2026-05-02T09:00:36.249Z</time></trkpt><trkpt lat="43.3342257" lon="11.407047"><ele>290.0</ele><time>2026-05-02T09:00:37.248Z</time></trkpt><trkpt lat="43.3342082" lon="11.4069012"><ele>289.8</ele><time>2026-05-02T09:00:38.254Z</time></trkpt><trkpt lat="43.3341872" lon="11.4067403"><ele>289.6</ele><time>2026-05-02T09:00:39.248Z</time></trkpt><trkpt lat="43.3341652" lon="11.4065795"><ele>289.4</ele><time>2026-05-02T09:00:40.25Z</time></trkpt><trkpt lat="43.3341438" lon="11.4064318"><ele>289.2</ele><time>2026-05-02T09:00:41.249Z</time></trkpt><trkpt lat="43.3341243" lon="11.406295"><ele>289.0</ele><time>2026-05-02T09:00:42.247Z</time></trkpt><trkpt lat="43.3341042" lon="11.4061688"><ele>288.5</ele><time>2026-05-02T09:00:43.248Z</time></trkpt><trkpt lat="43.3340825" lon="11.4060533"><ele>288.0</ele><time>2026-05-02T09:00:44.246Z</time></trkpt><trkpt lat="43.3340703" lon="11.405943"><ele>287.5</ele><time>2026-05-02T09:00:45.248Z</time></trkpt><trkpt lat="43.3340737" lon="11.4058338"><ele>287.0</ele><time>2026-05-02T09:00:46.249Z</time></trkpt><trkpt lat="43.3340847" lon="11.4057162"><ele>286.5</ele><time>2026-05-02T09:00:47.253Z</time></trkpt><trkpt lat="43.3340992" lon="11.4055878"><ele>286.0</ele><time>2026-05-02T09:00:48.252Z</time></trkpt><trkpt lat="43.3341135" lon="11.4054438"><ele>285.0</ele><time>2026-05-02T09:00:49.251Z</time></trkpt><trkpt lat="43.3341272" lon="11.4052913"><ele>284.0</ele><time>2026-05-02T09:00:50.249Z</time></trkpt><trkpt lat="43.334141" lon="11.405129"><ele>283.0</ele><time>2026-05-02T09:00:51.263Z</time></trkpt><trkpt lat="43.3341528" lon="11.4049597"><ele>282.0</ele><time>2026-05-02T09:00:52.254Z</time></trkpt><trkpt lat="43.334165" lon="11.4047883"><ele>282.0</ele><time>2026-05-02T09:00:53.25Z</time></trkpt><trkpt lat="43.3341783" lon="11.4046252"><ele>282.0</ele><time>2026-05-02T09:00:54.252Z</time></trkpt><trkpt lat="43.3341917" lon="11.4044757"><ele>282.0</ele><time>2026-05-02T09:00:55.249Z</time></trkpt><trkpt lat="43.3342005" lon="11.40434"><ele>282.0</ele><time>2026-05-02T09:00:56.249Z</time></trkpt><trkpt lat="43.3341983" lon="11.4042227"><ele>282.0</ele><time>2026-05-02T09:00:57.248Z</time></trkpt><trkpt lat="43.334181" lon="11.4041287"><ele>282.0</ele><time>2026-05-02T09:00:58.25Z</time></trkpt><trkpt lat="43.3341055" lon="11.4040368"><ele>282.0</ele><time>2026-05-02T09:01:00.251Z</time></trkpt><trkpt lat="43.3339805" lon="11.4040635"><ele>282.0</ele><time>2026-05-02T09:01:02.25Z</time></trkpt><trkpt lat="43.3338972" lon="11.4041093"><ele>282.0</ele><time>2026-05-02T09:01:03.254Z</time></trkpt><trkpt lat="43.3338027" lon="11.4041652"><ele>282.0</ele><time>2026-05-02T09:01:04.252Z</time></trkpt><trkpt lat="43.3336995" lon="11.4042178"><ele>281.6</ele><time>2026-05-02T09:01:05.251Z</time></trkpt><trkpt lat="43.3335958" lon="11.4042675"><ele>281.2</ele><time>2026-05-02T09:01:06.25Z</time></trkpt><trkpt lat="43.3334922" lon="11.40432"><ele>280.8</ele><time>2026-05-02T09:01:07.249Z</time></trkpt><trkpt lat="43.3333898" lon="11.4043728"><ele>280.4</ele><time>2026-05-02T09:01:08.251Z</time></trkpt><trkpt lat="43.3332863" lon="11.404426"><ele>280.0</ele><time>2026-05-02T09:01:09.248Z</time></trkpt><trkpt lat="43.3331775" lon="11.4044782"><ele>280.0</ele><time>2026-05-02T09:01:10.251Z</time></trkpt><trkpt lat="43.3330647" lon="11.4045342"><ele>280.0</ele><time>2026-05-02T09:01:11.253Z</time></trkpt><trkpt lat="43.3329495" lon="11.4045945"><ele>280.0</ele><time>2026-05-02T09:01:12.253Z</time></trkpt><trkpt lat="43.3328357" lon="11.4046545"><ele>280.0</ele><time>2026-05-02T09:01:13.25Z</time></trkpt><trkpt lat="43.3327268" lon="11.4047133"><ele>279.25</ele><time>2026-05-02T09:01:14.253Z</time></trkpt><trkpt lat="43.33262" lon="11.4047755"><ele>278.5</ele><time>2026-05-02T09:01:15.25Z</time></trkpt><trkpt lat="43.332509" lon="11.4048385"><ele>277.75</ele><time>2026-05-02T09:01:16.253Z</time></trkpt><trkpt lat="43.3323937" lon="11.4048973"><ele>277.0</ele><time>2026-05-02T09:01:17.257Z</time></trkpt><trkpt lat="43.332277" lon="11.4049573"><ele>277.25</ele><time>2026-05-02T09:01:18.25Z</time></trkpt><trkpt lat="43.3321592" lon="11.4050187"><ele>277.5</ele><time>2026-05-02T09:01:19.248Z</time></trkpt><trkpt lat="43.3320452" lon="11.40508"><ele>277.75</ele><time>2026-05-02T09:01:20.248Z</time></trkpt><trkpt lat="43.331934" lon="11.4051425"><ele>278.0</ele><time>2026-05-02T09:01:21.247Z</time></trkpt><trkpt lat="43.3318223" lon="11.4051958"><ele>278.0</ele><time>2026-05-02T09:01:22.247Z</time></trkpt><trkpt lat="43.3317013" lon="11.4052348"><ele>278.0</ele><time>2026-05-02T09:01:23.246Z</time></trkpt><trkpt lat="43.3315758" lon="11.4052638"><ele>278.0</ele><time>2026-05-02T09:01:24.245Z</time></trkpt><trkpt lat="43.3314458" lon="11.4052923"><ele>278.0</ele><time>2026-05-02T09:01:25.25Z</time></trkpt><trkpt lat="43.3313098" lon="11.4053257"><ele>276.5</ele><time>2026-05-02T09:01:26.253Z</time></trkpt><trkpt lat="43.33117" lon="11.405362"><ele>275.0</ele><time>2026-05-02T09:01:27.253Z</time></trkpt><trkpt lat="43.3310338" lon="11.4053975"><ele>273.5</ele><time>2026-05-02T09:01:28.252Z</time></trkpt><trkpt lat="43.3309047" lon="11.4054317"><ele>272.0</ele><time>2026-05-02T09:01:29.253Z</time></trkpt><trkpt lat="43.3307822" lon="11.4054718"><ele>271.25</ele><time>2026-05-02T09:01:30.252Z</time></trkpt><trkpt lat="43.3306667" lon="11.4055153"><ele>270.5</ele><time>2026-05-02T09:01:31.25Z</time></trkpt><trkpt lat="43.3305472" lon="11.4055565"><ele>269.75</ele><time>2026-05-02T09:01:32.25Z</time></trkpt><trkpt lat="43.3304268" lon="11.4056015"><ele>269.0</ele><time>2026-05-02T09:01:33.249Z</time></trkpt><trkpt lat="43.3303097" lon="11.4056533"><ele>267.75</ele><time>2026-05-02T09:01:34.247Z</time></trkpt><trkpt lat="43.3301963" lon="11.4057088"><ele>266.5</ele><time>2026-05-02T09:01:35.249Z</time></trkpt><trkpt lat="43.3300862" lon="11.4057653"><ele>265.25</ele><time>2026-05-02T09:01:36.251Z</time></trkpt><trkpt lat="43.3299803" lon="11.4058268"><ele>264.0</ele><time>2026-05-02T09:01:37.253Z</time></trkpt><trkpt lat="43.3298808" lon="11.4058913"><ele>264.0</ele><time>2026-05-02T09:01:38.254Z</time></trkpt><trkpt lat="43.3297863" lon="11.4059595"><ele>264.0</ele><time>2026-05-02T09:01:39.253Z</time></trkpt><trkpt lat="43.3296973" lon="11.4060317"><ele>264.0</ele><time>2026-05-02T09:01:40.252Z</time></trkpt><trkpt lat="43.3296147" lon="11.4061097"><ele>264.0</ele><time>2026-05-02T09:01:41.25Z</time></trkpt><trkpt lat="43.329533" lon="11.4061942"><ele>264.0</ele><time>2026-05-02T09:01:42.253Z</time></trkpt><trkpt lat="43.3294563" lon="11.4062822"><ele>262.8</ele><time>2026-05-02T09:01:43.253Z</time></trkpt><trkpt lat="43.3293805" lon="11.4063683"><ele>261.59999999999997</ele><time>2026-05-02T09:01:44.252Z</time></trkpt><trkpt lat="43.3293018" lon="11.4064582"><ele>260.4</ele><time>2026-05-02T09:01:45.247Z</time></trkpt><trkpt lat="43.329223" lon="11.4065528"><ele>259.2</ele><time>2026-05-02T09:01:46.249Z</time></trkpt><trkpt lat="43.3291428" lon="11.4066465"><ele>258.0</ele><time>2026-05-02T09:01:47.249Z</time></trkpt><trkpt lat="43.3290625" lon="11.4067405"><ele>258.0</ele><time>2026-05-02T09:01:48.25Z</time></trkpt><trkpt lat="43.3289807" lon="11.406836"><ele>258.0</ele><time>2026-05-02T09:01:49.249Z</time></trkpt><trkpt lat="43.3288982" lon="11.4069315"><ele>258.0</ele><time>2026-05-02T09:01:50.249Z</time></trkpt><trkpt lat="43.3288145" lon="11.4070337"><ele>258.0</ele><time>2026-05-02T09:01:51.247Z</time></trkpt><trkpt lat="43.3287288" lon="11.4071337"><ele>258.0</ele><time>2026-05-02T09:01:52.25Z</time></trkpt><trkpt lat="43.3286402" lon="11.407238"><ele>256.75</ele><time>2026-05-02T09:01:53.254Z</time></trkpt><trkpt lat="43.3285508" lon="11.407344"><ele>255.5</ele><time>2026-05-02T09:01:54.251Z</time></trkpt><trkpt lat="43.3284608" lon="11.4074507"><ele>254.25</ele><time>2026-05-02T09:01:55.252Z</time></trkpt><trkpt lat="43.3283717" lon="11.407557"><ele>253.0</ele><time>2026-05-02T09:01:56.25Z</time></trkpt><trkpt lat="43.3282833" lon="11.4076612"><ele>253.0</ele><time>2026-05-02T09:01:57.248Z</time></trkpt><trkpt lat="43.3281945" lon="11.4077652"><ele>253.0</ele><time>2026-05-02T09:01:58.246Z</time></trkpt><trkpt lat="43.3281045" lon="11.4078692"><ele>253.0</ele><time>2026-05-02T09:01:59.246Z</time></trkpt><trkpt lat="43.3280153" lon="11.4079752"><ele>253.0</ele><time>2026-05-02T09:02:00.249Z</time></trkpt><trkpt lat="43.3279278" lon="11.4080817"><ele>253.0</ele><time>2026-05-02T09:02:01.248Z</time></trkpt><trkpt lat="43.3278377" lon="11.408188"><ele>253.0</ele><time>2026-05-02T09:02:02.25Z</time></trkpt><trkpt lat="43.3277452" lon="11.4082958"><ele>253.0</ele><time>2026-05-02T09:02:03.25Z</time></trkpt><trkpt lat="43.3276508" lon="11.408405"><ele>253.0</ele><time>2026-05-02T09:02:04.248Z</time></trkpt><trkpt lat="43.327555" lon="11.4085127"><ele>253.0</ele><time>2026-05-02T09:02:05.251Z</time></trkpt><trkpt lat="43.3274553" lon="11.408623"><ele>253.0</ele><time>2026-05-02T09:02:06.252Z</time></trkpt><trkpt lat="43.3273555" lon="11.408739"><ele>253.0</ele><time>2026-05-02T09:02:07.254Z</time></trkpt><trkpt lat="43.3272562" lon="11.4088563"><ele>253.0</ele><time>2026-05-02T09:02:08.252Z</time></trkpt><trkpt lat="43.3271603" lon="11.4089658"><ele>251.25</ele><time>2026-05-02T09:02:09.247Z</time></trkpt><trkpt lat="43.3270725" lon="11.4090783"><ele>249.5</ele><time>2026-05-02T09:02:10.247Z</time></trkpt><trkpt lat="43.3269917" lon="11.409191"><ele>247.75</ele><time>2026-05-02T09:02:11.25Z</time></trkpt><trkpt lat="43.3269165" lon="11.4093178"><ele>246.0</ele><time>2026-05-02T09:02:12.252Z</time></trkpt><trkpt lat="43.3268407" lon="11.4094465"><ele>246.0</ele><time>2026-05-02T09:02:13.253Z</time></trkpt><trkpt lat="43.3267567" lon="11.4095688"><ele>246.0</ele><time>2026-05-02T09:02:14.251Z</time></trkpt><trkpt lat="43.3266652" lon="11.409677"><ele>246.0</ele><time>2026-05-02T09:02:15.25Z</time></trkpt><trkpt lat="43.3265733" lon="11.4097732"><ele>246.0</ele><time>2026-05-02T09:02:16.249Z</time></trkpt><trkpt lat="43.326489" lon="11.409863"><ele>245.5</ele><time>2026-05-02T09:02:17.25Z</time></trkpt><trkpt lat="43.3264123" lon="11.4099463"><ele>245.0</ele><time>2026-05-02T09:02:18.25Z</time></trkpt><trkpt lat="43.3263438" lon="11.410026"><ele>244.5</ele><time>2026-05-02T09:02:19.248Z</time></trkpt><trkpt lat="43.3262838" lon="11.4100982"><ele>244.0</ele><time>2026-05-02T09:02:20.247Z</time></trkpt><trkpt lat="43.3262287" lon="11.4101615"><ele>243.5</ele><time>2026-05-02T09:02:21.249Z</time></trkpt><trkpt lat="43.3261763" lon="11.4102203"><ele>243.0</ele><time>2026-05-02T09:02:22.248Z</time></trkpt><trkpt lat="43.3261242" lon="11.4102725"><ele>243.0</ele><time>2026-05-02T09:02:23.25Z</time></trkpt><trkpt lat="43.3260665" lon="11.4103078"><ele>243.0</ele><time>2026-05-02T09:02:24.251Z</time></trkpt><trkpt lat="43.3259523" lon="11.4102457"><ele>243.0</ele><time>2026-05-02T09:02:26.25Z</time></trkpt><trkpt lat="43.3259057" lon="11.4101535"><ele>243.0</ele><time>2026-05-02T09:02:27.25Z</time></trkpt><trkpt lat="43.3258647" lon="11.4100453"><ele>243.0</ele><time>2026-05-02T09:02:28.25Z</time></trkpt><trkpt lat="43.3258318" lon="11.4099197"><ele>243.0</ele><time>2026-05-02T09:02:29.253Z</time></trkpt><trkpt lat="43.3258153" lon="11.4097722"><ele>243.0</ele><time>2026-05-02T09:02:30.25Z</time></trkpt><trkpt lat="43.3258197" lon="11.4096062"><ele>243.0</ele><time>2026-05-02T09:02:31.25Z</time></trkpt><trkpt lat="43.3258335" lon="11.409433"><ele>243.0</ele><time>2026-05-02T09:02:32.249Z</time></trkpt><trkpt lat="43.325839" lon="11.4092625"><ele>241.0</ele><time>2026-05-02T09:02:33.248Z</time></trkpt><trkpt lat="43.3258392" lon="11.4090918"><ele>239.0</ele><time>2026-05-02T09:02:34.248Z</time></trkpt><trkpt lat="43.3258282" lon="11.4089165"><ele>237.0</ele><time>2026-05-02T09:02:35.248Z</time></trkpt><trkpt lat="43.3258133" lon="11.408738"><ele>235.0</ele><time>2026-05-02T09:02:36.248Z</time></trkpt><trkpt lat="43.3257967" lon="11.4085603"><ele>234.0</ele><time>2026-05-02T09:02:37.252Z</time></trkpt><trkpt lat="43.3257785" lon="11.4083823"><ele>233.0</ele><time>2026-05-02T09:02:38.264Z</time></trkpt><trkpt lat="43.3257598" lon="11.408206"><ele>232.0</ele><time>2026-05-02T09:02:39.252Z</time></trkpt><trkpt lat="43.3257393" lon="11.4080333"><ele>231.0</ele><time>2026-05-02T09:02:40.253Z</time></trkpt><trkpt lat="43.3257192" lon="11.4078653"><ele>230.0</ele><time>2026-05-02T09:02:41.25Z</time></trkpt><trkpt lat="43.3257028" lon="11.407698"><ele>229.0</ele><time>2026-05-02T09:02:42.248Z</time></trkpt><trkpt lat="43.325685" lon="11.4075285"><ele>228.0</ele><time>2026-05-02T09:02:43.253Z</time></trkpt><trkpt lat="43.3256668" lon="11.407356"><ele>227.0</ele><time>2026-05-02T09:02:44.253Z</time></trkpt><trkpt lat="43.3256455" lon="11.407177"><ele>226.0</ele><time>2026-05-02T09:02:45.248Z</time></trkpt><trkpt lat="43.3256177" lon="11.4069985"><ele>225.0</ele><time>2026-05-02T09:02:46.248Z</time></trkpt><trkpt lat="43.3255798" lon="11.4068308"><ele>224.0</ele><time>2026-05-02T09:02:47.248Z</time></trkpt><trkpt lat="43.3255283" lon="11.4066742"><ele>223.0</ele><time>2026-05-02T09:02:48.248Z</time></trkpt><trkpt lat="43.3254632" lon="11.4065253"><ele>223.0</ele><time>2026-05-02T09:02:49.249Z</time></trkpt><trkpt lat="43.3253918" lon="11.4063792"><ele>223.0</ele><time>2026-05-02T09:02:50.25Z</time></trkpt><trkpt lat="43.325319" lon="11.406233"><ele>223.0</ele><time>2026-05-02T09:02:51.248Z</time></trkpt><trkpt lat="43.3252512" lon="11.4060778"><ele>223.0</ele><time>2026-05-02T09:02:52.251Z</time></trkpt><trkpt lat="43.325188" lon="11.4059095"><ele>221.5</ele><time>2026-05-02T09:02:53.256Z</time></trkpt><trkpt lat="43.3251312" lon="11.4057338"><ele>220.0</ele><time>2026-05-02T09:02:54.253Z</time></trkpt><trkpt lat="43.3250818" lon="11.4055545"><ele>218.5</ele><time>2026-05-02T09:02:55.25Z</time></trkpt><trkpt lat="43.3250372" lon="11.4053733"><ele>217.0</ele><time>2026-05-02T09:02:56.253Z</time></trkpt><trkpt lat="43.3249998" lon="11.4051778"><ele>216.5</ele><time>2026-05-02T09:02:57.253Z</time></trkpt><trkpt lat="43.3249725" lon="11.4049737"><ele>216.0</ele><time>2026-05-02T09:02:58.251Z</time></trkpt><trkpt lat="43.3249568" lon="11.4047678"><ele>215.5</ele><time>2026-05-02T09:02:59.252Z</time></trkpt><trkpt lat="43.324952" lon="11.4045705"><ele>215.0</ele><time>2026-05-02T09:03:00.251Z</time></trkpt><trkpt lat="43.32495" lon="11.404382"><ele>214.75</ele><time>2026-05-02T09:03:01.252Z</time></trkpt><trkpt lat="43.3249462" lon="11.4041947"><ele>214.5</ele><time>2026-05-02T09:03:02.251Z</time></trkpt><trkpt lat="43.3249457" lon="11.4040165"><ele>214.25</ele><time>2026-05-02T09:03:03.254Z</time></trkpt><trkpt lat="43.3249468" lon="11.4038402"><ele>214.0</ele><time>2026-05-02T09:03:04.255Z</time></trkpt><trkpt lat="43.3249525" lon="11.4036577"><ele>213.5</ele><time>2026-05-02T09:03:05.255Z</time></trkpt><trkpt lat="43.3249677" lon="11.4034643"><ele>213.0</ele><time>2026-05-02T09:03:06.252Z</time></trkpt><trkpt lat="43.3249843" lon="11.4032638"><ele>212.5</ele><time>2026-05-02T09:03:07.25Z</time></trkpt><trkpt lat="43.3250022" lon="11.4030637"><ele>212.0</ele><time>2026-05-02T09:03:08.255Z</time></trkpt><trkpt lat="43.3250197" lon="11.4028668"><ele>213.0</ele><time>2026-05-02T09:03:09.248Z</time></trkpt><trkpt lat="43.3250365" lon="11.4026705"><ele>214.0</ele><time>2026-05-02T09:03:10.248Z</time></trkpt><trkpt lat="43.3250513" lon="11.4024762"><ele>215.0</ele><time>2026-05-02T09:03:11.248Z</time></trkpt><trkpt lat="43.3250633" lon="11.4022852"><ele>216.0</ele><time>2026-05-02T09:03:12.247Z</time></trkpt><trkpt lat="43.3250745" lon="11.4020962"><ele>218.5</ele><time>2026-05-02T09:03:13.247Z</time></trkpt><trkpt lat="43.325083" lon="11.4019113"><ele>221.0</ele><time>2026-05-02T09:03:14.249Z</time></trkpt><trkpt lat="43.3250885" lon="11.401732"><ele>223.5</ele><time>2026-05-02T09:03:15.25Z</time></trkpt><trkpt lat="43.3250902" lon="11.401557"><ele>226.0</ele><time>2026-05-02T09:03:16.255Z</time></trkpt><trkpt lat="43.3250865" lon="11.401381"><ele>227.25</ele><time>2026-05-02T09:03:17.252Z</time></trkpt><trkpt lat="43.325079" lon="11.4012043"><ele>228.5</ele><time>2026-05-02T09:03:18.254Z</time></trkpt><trkpt lat="43.3250748" lon="11.4010297"><ele>229.75</ele><time>2026-05-02T09:03:19.253Z</time></trkpt><trkpt lat="43.325079" lon="11.4008562"><ele>231.0</ele><time>2026-05-02T09:03:20.249Z</time></trkpt><trkpt lat="43.325095" lon="11.4006822"><ele>231.0</ele><time>2026-05-02T09:03:21.249Z</time></trkpt><trkpt lat="43.3251195" lon="11.4005077"><ele>231.0</ele><time>2026-05-02T09:03:22.251Z</time></trkpt><trkpt lat="43.3251435" lon="11.4003293"><ele>231.0</ele><time>2026-05-02T09:03:23.238Z</time></trkpt><trkpt lat="43.3251608" lon="11.4001463"><ele>231.0</ele><time>2026-05-02T09:03:24.25Z</time></trkpt><trkpt lat="43.325168" lon="11.399958"><ele>232.25</ele><time>2026-05-02T09:03:25.25Z</time></trkpt><trkpt lat="43.3251643" lon="11.3997637"><ele>233.5</ele><time>2026-05-02T09:03:26.252Z</time></trkpt><trkpt lat="43.3251543" lon="11.3995663"><ele>234.75</ele><time>2026-05-02T09:03:27.251Z</time></trkpt><trkpt lat="43.3251427" lon="11.3993707"><ele>236.0</ele><time>2026-05-02T09:03:28.252Z</time></trkpt><trkpt lat="43.32513" lon="11.3991788"><ele>237.25</ele><time>2026-05-02T09:03:29.252Z</time></trkpt><trkpt lat="43.3251185" lon="11.398993"><ele>238.5</ele><time>2026-05-02T09:03:30.252Z</time></trkpt><trkpt lat="43.3251057" lon="11.3988163"><ele>239.75</ele><time>2026-05-02T09:03:31.25Z</time></trkpt><trkpt lat="43.3250925" lon="11.398655"><ele>241.0</ele><time>2026-05-02T09:03:32.253Z</time></trkpt><trkpt lat="43.3250845" lon="11.3985132"><ele>242.20000000000002</ele><time>2026-05-02T09:03:33.25Z</time></trkpt><trkpt lat="43.3250785" lon="11.3983863"><ele>243.40000000000003</ele><time>2026-05-02T09:03:34.249Z</time></trkpt><trkpt lat="43.3250755" lon="11.3982753"><ele>244.6</ele><time>2026-05-02T09:03:35.249Z</time></trkpt><trkpt lat="43.3250783" lon="11.3981308"><ele>245.8</ele><time>2026-05-02T09:03:37.248Z</time></trkpt><trkpt lat="43.3250565" lon="11.39822"><ele>247.0</ele><time>2026-05-02T09:09:17.251Z</time></trkpt><trkpt lat="43.3250578" lon="11.398378"><ele>246.99999999999997</ele><time>2026-05-02T09:09:19.248Z</time></trkpt><trkpt lat="43.3250615" lon="11.398521"><ele>247.0</ele><time>2026-05-02T09:09:21.254Z</time></trkpt><trkpt lat="43.3250755" lon="11.3984275"><ele>247.0</ele><time>2026-05-02T09:09:27.253Z</time></trkpt><trkpt lat="43.3250625" lon="11.3983353"><ele>247.0</ele><time>2026-05-02T09:09:28.248Z</time></trkpt><trkpt lat="43.3250538" lon="11.3981902"><ele>246.99999999999997</ele><time>2026-05-02T09:09:30.249Z</time></trkpt><trkpt lat="43.3250553" lon="11.3980848"><ele>247.0</ele><time>2026-05-02T09:09:48.25Z</time></trkpt><trkpt lat="43.325065" lon="11.397948"><ele>247.39999999999998</ele><time>2026-05-02T09:09:50.252Z</time></trkpt><trkpt lat="43.3250768" lon="11.3978547"><ele>247.79999999999998</ele><time>2026-05-02T09:09:51.251Z</time></trkpt><trkpt lat="43.3251012" lon="11.3977447"><ele>248.2</ele><time>2026-05-02T09:09:52.252Z</time></trkpt><trkpt lat="43.3251392" lon="11.3976283"><ele>248.6</ele><time>2026-05-02T09:09:53.248Z</time></trkpt><trkpt lat="43.3251898" lon="11.397507"><ele>249.0</ele><time>2026-05-02T09:09:54.25Z</time></trkpt><trkpt lat="43.3252443" lon="11.3973753"><ele>249.0</ele><time>2026-05-02T09:09:55.254Z</time></trkpt><trkpt lat="43.3252908" lon="11.3972285"><ele>249.0</ele><time>2026-05-02T09:09:56.252Z</time></trkpt><trkpt lat="43.3253357" lon="11.3970767"><ele>249.0</ele><time>2026-05-02T09:09:57.25Z</time></trkpt><trkpt lat="43.3253827" lon="11.396921"><ele>249.0</ele><time>2026-05-02T09:09:58.25Z</time></trkpt><trkpt lat="43.3254272" lon="11.396767"><ele>249.25</ele><time>2026-05-02T09:09:59.252Z</time></trkpt><trkpt lat="43.3254683" lon="11.396614"><ele>249.5</ele><time>2026-05-02T09:10:00.25Z</time></trkpt><trkpt lat="43.3255083" lon="11.3964617"><ele>249.75</ele><time>2026-05-02T09:10:01.25Z</time></trkpt><trkpt lat="43.3255555" lon="11.3963042"><ele>250.0</ele><time>2026-05-02T09:10:02.253Z</time></trkpt><trkpt lat="43.325607" lon="11.3961403"><ele>250.0</ele><time>2026-05-02T09:10:03.254Z</time></trkpt><trkpt lat="43.3256492" lon="11.3959763"><ele>250.0</ele><time>2026-05-02T09:10:04.253Z</time></trkpt><trkpt lat="43.325673" lon="11.3958003"><ele>250.0</ele><time>2026-05-02T09:10:05.253Z</time></trkpt><trkpt lat="43.325679" lon="11.3955987"><ele>250.0</ele><time>2026-05-02T09:10:06.25Z</time></trkpt><trkpt lat="43.3256795" lon="11.3953828"><ele>250.66666666666666</ele><time>2026-05-02T09:10:07.252Z</time></trkpt><trkpt lat="43.3256795" lon="11.3951558"><ele>251.33333333333331</ele><time>2026-05-02T09:10:08.248Z</time></trkpt><trkpt lat="43.3256802" lon="11.3949295"><ele>252.0</ele><time>2026-05-02T09:10:09.249Z</time></trkpt><trkpt lat="43.3256717" lon="11.3947092"><ele>253.0</ele><time>2026-05-02T09:10:10.25Z</time></trkpt><trkpt lat="43.3256443" lon="11.3944988"><ele>254.0</ele><time>2026-05-02T09:10:11.25Z</time></trkpt><trkpt lat="43.3256003" lon="11.394286"><ele>255.0</ele><time>2026-05-02T09:10:12.251Z</time></trkpt><trkpt lat="43.3255448" lon="11.3940735"><ele>255.0</ele><time>2026-05-02T09:10:13.25Z</time></trkpt><trkpt lat="43.3254828" lon="11.3938588"><ele>255.0</ele><time>2026-05-02T09:10:14.251Z</time></trkpt><trkpt lat="43.3254157" lon="11.393641"><ele>255.0</ele><time>2026-05-02T09:10:15.251Z</time></trkpt><trkpt lat="43.32535" lon="11.3934275"><ele>256.6666666666667</ele><time>2026-05-02T09:10:16.253Z</time></trkpt><trkpt lat="43.3252868" lon="11.393221"><ele>258.33333333333337</ele><time>2026-05-02T09:10:17.253Z</time></trkpt><trkpt lat="43.3252268" lon="11.3930298"><ele>260.0</ele><time>2026-05-02T09:10:18.253Z</time></trkpt><trkpt lat="43.3251698" lon="11.3928557"><ele>260.8</ele><time>2026-05-02T09:10:19.25Z</time></trkpt><trkpt lat="43.3251133" lon="11.3927062"><ele>261.6</ele><time>2026-05-02T09:10:20.249Z</time></trkpt><trkpt lat="43.3250487" lon="11.3925935"><ele>262.4</ele><time>2026-05-02T09:10:21.251Z</time></trkpt><trkpt lat="43.3249638" lon="11.3925332"><ele>263.2</ele><time>2026-05-02T09:10:22.251Z</time></trkpt><trkpt lat="43.3248652" lon="11.3925225"><ele>264.0</ele><time>2026-05-02T09:10:23.25Z</time></trkpt><trkpt lat="43.324757" lon="11.3925468"><ele>264.2</ele><time>2026-05-02T09:10:24.253Z</time></trkpt><trkpt lat="43.3246515" lon="11.3925672"><ele>264.4</ele><time>2026-05-02T09:10:25.254Z</time></trkpt><trkpt lat="43.3245545" lon="11.392565"><ele>264.6</ele><time>2026-05-02T09:10:26.25Z</time></trkpt><trkpt lat="43.3244583" lon="11.3925418"><ele>264.8</ele><time>2026-05-02T09:10:27.249Z</time></trkpt><trkpt lat="43.3243603" lon="11.3925007"><ele>265.0</ele><time>2026-05-02T09:10:28.252Z</time></trkpt><trkpt lat="43.324259" lon="11.3924537"><ele>265.0</ele><time>2026-05-02T09:10:29.253Z</time></trkpt><trkpt lat="43.3241532" lon="11.3924037"><ele>265.0</ele><time>2026-05-02T09:10:30.25Z</time></trkpt><trkpt lat="43.3240382" lon="11.3923618"><ele>265.0</ele><time>2026-05-02T09:10:31.247Z</time></trkpt><trkpt lat="43.3239172" lon="11.3923293"><ele>265.0</ele><time>2026-05-02T09:10:32.25Z</time></trkpt><trkpt lat="43.3237975" lon="11.3922987"><ele>264.8</ele><time>2026-05-02T09:10:33.247Z</time></trkpt><trkpt lat="43.3236838" lon="11.392271"><ele>264.6</ele><time>2026-05-02T09:10:34.249Z</time></trkpt><trkpt lat="43.3235753" lon="11.3922433"><ele>264.4</ele><time>2026-05-02T09:10:35.253Z</time></trkpt><trkpt lat="43.3234663" lon="11.392219"><ele>264.2</ele><time>2026-05-02T09:10:36.251Z</time></trkpt><trkpt lat="43.3233565" lon="11.3921945"><ele>264.0</ele><time>2026-05-02T09:10:37.251Z</time></trkpt><trkpt lat="43.3232467" lon="11.3921707"><ele>262.59999999999997</ele><time>2026-05-02T09:10:38.25Z</time></trkpt><trkpt lat="43.3231365" lon="11.3921458"><ele>261.2</ele><time>2026-05-02T09:10:39.253Z</time></trkpt><trkpt lat="43.3230245" lon="11.3921155"><ele>259.79999999999995</ele><time>2026-05-02T09:10:40.251Z</time></trkpt><trkpt lat="43.3229178" lon="11.3920817"><ele>258.4</ele><time>2026-05-02T09:10:41.252Z</time></trkpt><trkpt lat="43.3228122" lon="11.3920528"><ele>257.0</ele><time>2026-05-02T09:10:42.251Z</time></trkpt><trkpt lat="43.3227072" lon="11.3920223"><ele>257.0</ele><time>2026-05-02T09:10:43.251Z</time></trkpt><trkpt lat="43.3226017" lon="11.3919925"><ele>257.0</ele><time>2026-05-02T09:10:44.248Z</time></trkpt><trkpt lat="43.3224935" lon="11.391964"><ele>257.0</ele><time>2026-05-02T09:10:45.247Z</time></trkpt><trkpt lat="43.3223818" lon="11.391933"><ele>257.0</ele><time>2026-05-02T09:10:46.248Z</time></trkpt><trkpt lat="43.3222663" lon="11.3919"><ele>256.0</ele><time>2026-05-02T09:10:47.248Z</time></trkpt><trkpt lat="43.3221488" lon="11.391866"><ele>255.0</ele><time>2026-05-02T09:10:48.248Z</time></trkpt><trkpt lat="43.3220245" lon="11.3918303"><ele>254.0</ele><time>2026-05-02T09:10:49.252Z</time></trkpt><trkpt lat="43.3218973" lon="11.3917942"><ele>253.0</ele><time>2026-05-02T09:10:50.252Z</time></trkpt><trkpt lat="43.3217643" lon="11.391751"><ele>253.0</ele><time>2026-05-02T09:10:51.253Z</time></trkpt><trkpt lat="43.3216283" lon="11.3916995"><ele>253.0</ele><time>2026-05-02T09:10:52.254Z</time></trkpt><trkpt lat="43.321492" lon="11.3916313"><ele>253.0</ele><time>2026-05-02T09:10:53.251Z</time></trkpt><trkpt lat="43.3213562" lon="11.3915462"><ele>253.0</ele><time>2026-05-02T09:10:54.254Z</time></trkpt><trkpt lat="43.3212195" lon="11.3914487"><ele>252.0</ele><time>2026-05-02T09:10:55.249Z</time></trkpt><trkpt lat="43.321085" lon="11.3913525"><ele>251.0</ele><time>2026-05-02T09:10:56.248Z</time></trkpt><trkpt lat="43.3209587" lon="11.3912628"><ele>250.0</ele><time>2026-05-02T09:10:57.248Z</time></trkpt><trkpt lat="43.3208392" lon="11.3911845"><ele>249.0</ele><time>2026-05-02T09:10:58.248Z</time></trkpt><trkpt lat="43.320727" lon="11.391115"><ele>249.0</ele><time>2026-05-02T09:10:59.249Z</time></trkpt><trkpt lat="43.3206245" lon="11.3910523"><ele>248.99999999999997</ele><time>2026-05-02T09:11:00.25Z</time></trkpt><trkpt lat="43.3205275" lon="11.3910002"><ele>248.99999999999997</ele><time>2026-05-02T09:11:01.249Z</time></trkpt><trkpt lat="43.3204347" lon="11.3909657"><ele>249.0</ele><time>2026-05-02T09:11:02.25Z</time></trkpt><trkpt lat="43.3203415" lon="11.3909465"><ele>249.0</ele><time>2026-05-02T09:11:03.25Z</time></trkpt><trkpt lat="43.320253" lon="11.3909203"><ele>249.0</ele><time>2026-05-02T09:11:04.249Z</time></trkpt><trkpt lat="43.3201813" lon="11.3908683"><ele>249.0</ele><time>2026-05-02T09:11:05.251Z</time></trkpt><trkpt lat="43.3201312" lon="11.3907937"><ele>249.0</ele><time>2026-05-02T09:11:06.253Z</time></trkpt><trkpt lat="43.3201005" lon="11.3906893"><ele>249.0</ele><time>2026-05-02T09:11:07.253Z</time></trkpt><trkpt lat="43.3200808" lon="11.3905593"><ele>249.0</ele><time>2026-05-02T09:11:08.254Z</time></trkpt><trkpt lat="43.320059" lon="11.3904153"><ele>249.0</ele><time>2026-05-02T09:11:09.25Z</time></trkpt><trkpt lat="43.320033" lon="11.3902598"><ele>248.5</ele><time>2026-05-02T09:11:10.253Z</time></trkpt><trkpt lat="43.3200045" lon="11.390094"><ele>248.0</ele><time>2026-05-02T09:11:11.255Z</time></trkpt><trkpt lat="43.3199713" lon="11.3899267"><ele>247.5</ele><time>2026-05-02T09:11:12.252Z</time></trkpt><trkpt lat="43.319931" lon="11.3897602"><ele>247.0</ele><time>2026-05-02T09:11:13.253Z</time></trkpt><trkpt lat="43.3198835" lon="11.389592"><ele>246.0</ele><time>2026-05-02T09:11:14.253Z</time></trkpt><trkpt lat="43.3198312" lon="11.3894198"><ele>245.0</ele><time>2026-05-02T09:11:15.249Z</time></trkpt><trkpt lat="43.3197793" lon="11.3892405"><ele>244.0</ele><time>2026-05-02T09:11:16.25Z</time></trkpt><trkpt lat="43.3197318" lon="11.3890573"><ele>243.0</ele><time>2026-05-02T09:11:17.25Z</time></trkpt><trkpt lat="43.3196895" lon="11.3888775"><ele>239.5</ele><time>2026-05-02T09:11:18.248Z</time></trkpt><trkpt lat="43.3196505" lon="11.3887025"><ele>236.0</ele><time>2026-05-02T09:11:19.247Z</time></trkpt><trkpt lat="43.3196158" lon="11.3885322"><ele>232.5</ele><time>2026-05-02T09:11:20.246Z</time></trkpt><trkpt lat="43.319584" lon="11.3883668"><ele>229.0</ele><time>2026-05-02T09:11:21.248Z</time></trkpt><trkpt lat="43.3195535" lon="11.3882072"><ele>229.0</ele><time>2026-05-02T09:11:22.247Z</time></trkpt><trkpt lat="43.319525" lon="11.3880532"><ele>228.99999999999997</ele><time>2026-05-02T09:11:23.249Z</time></trkpt><trkpt lat="43.3194988" lon="11.3879077"><ele>228.99999999999997</ele><time>2026-05-02T09:11:24.253Z</time></trkpt><trkpt lat="43.3194735" lon="11.3877712"><ele>229.0</ele><time>2026-05-02T09:11:25.254Z</time></trkpt><trkpt lat="43.3194403" lon="11.3876452"><ele>229.0</ele><time>2026-05-02T09:11:26.253Z</time></trkpt><trkpt lat="43.3193858" lon="11.387535"><ele>229.0</ele><time>2026-05-02T09:11:27.249Z</time></trkpt><trkpt lat="43.3193098" lon="11.3874505"><ele>228.99999999999997</ele><time>2026-05-02T09:11:28.248Z</time></trkpt><trkpt lat="43.319222" lon="11.3873943"><ele>228.99999999999997</ele><time>2026-05-02T09:11:29.25Z</time></trkpt><trkpt lat="43.3191378" lon="11.3873395"><ele>229.0</ele><time>2026-05-02T09:11:30.251Z</time></trkpt><trkpt lat="43.3190727" lon="11.3872585"><ele>229.0</ele><time>2026-05-02T09:11:31.25Z</time></trkpt><trkpt lat="43.3190393" lon="11.3871495"><ele>228.6</ele><time>2026-05-02T09:11:32.25Z</time></trkpt><trkpt lat="43.319039" lon="11.3870245"><ele>228.2</ele><time>2026-05-02T09:11:33.253Z</time></trkpt><trkpt lat="43.319061" lon="11.3868903"><ele>227.79999999999998</ele><time>2026-05-02T09:11:34.25Z</time></trkpt><trkpt lat="43.3190962" lon="11.386764"><ele>227.39999999999998</ele><time>2026-05-02T09:11:35.252Z</time></trkpt><trkpt lat="43.3191413" lon="11.3866567"><ele>227.0</ele><time>2026-05-02T09:11:36.25Z</time></trkpt><trkpt lat="43.3191942" lon="11.3865695"><ele>227.0</ele><time>2026-05-02T09:11:37.25Z</time></trkpt><trkpt lat="43.319249" lon="11.3864973"><ele>227.0</ele><time>2026-05-02T09:11:38.25Z</time></trkpt><trkpt lat="43.3193127" lon="11.3864352"><ele>227.0</ele><time>2026-05-02T09:11:39.248Z</time></trkpt><trkpt lat="43.3193932" lon="11.3863847"><ele>227.0</ele><time>2026-05-02T09:11:40.253Z</time></trkpt><trkpt lat="43.319487" lon="11.3863393"><ele>227.0</ele><time>2026-05-02T09:11:41.25Z</time></trkpt><trkpt lat="43.3195887" lon="11.3862865"><ele>226.2</ele><time>2026-05-02T09:11:42.251Z</time></trkpt><trkpt lat="43.3196903" lon="11.3862285"><ele>225.39999999999998</ele><time>2026-05-02T09:11:43.25Z</time></trkpt><trkpt lat="43.3197878" lon="11.3861718"><ele>224.60000000000002</ele><time>2026-05-02T09:11:44.25Z</time></trkpt><trkpt lat="43.31988" lon="11.3861125"><ele>223.8</ele><time>2026-05-02T09:11:45.247Z</time></trkpt><trkpt lat="43.319962" lon="11.3860387"><ele>223.0</ele><time>2026-05-02T09:11:46.249Z</time></trkpt><trkpt lat="43.32003" lon="11.3859387"><ele>222.8</ele><time>2026-05-02T09:11:47.249Z</time></trkpt><trkpt lat="43.3200803" lon="11.3858142"><ele>222.60000000000002</ele><time>2026-05-02T09:11:48.25Z</time></trkpt><trkpt lat="43.3201055" lon="11.3856667"><ele>222.39999999999998</ele><time>2026-05-02T09:11:49.247Z</time></trkpt><trkpt lat="43.3201107" lon="11.3855038"><ele>222.2</ele><time>2026-05-02T09:11:50.249Z</time></trkpt><trkpt lat="43.3201082" lon="11.3853433"><ele>222.0</ele><time>2026-05-02T09:11:51.247Z</time></trkpt><trkpt lat="43.3201172" lon="11.3851897"><ele>220.75</ele><time>2026-05-02T09:11:52.248Z</time></trkpt><trkpt lat="43.3201465" lon="11.385047"><ele>219.5</ele><time>2026-05-02T09:11:53.25Z</time></trkpt><trkpt lat="43.3201988" lon="11.3849138"><ele>218.25</ele><time>2026-05-02T09:11:54.247Z</time></trkpt><trkpt lat="43.320268" lon="11.3847827"><ele>217.0</ele><time>2026-05-02T09:11:55.246Z</time></trkpt><trkpt lat="43.320348" lon="11.3846542"><ele>216.2</ele><time>2026-05-02T09:11:56.248Z</time></trkpt><trkpt lat="43.3204317" lon="11.3845387"><ele>215.39999999999998</ele><time>2026-05-02T09:11:57.247Z</time></trkpt><trkpt lat="43.3205133" lon="11.3844373"><ele>214.60000000000002</ele><time>2026-05-02T09:11:58.251Z</time></trkpt><trkpt lat="43.3205917" lon="11.3843467"><ele>213.8</ele><time>2026-05-02T09:11:59.248Z</time></trkpt><trkpt lat="43.3206622" lon="11.3842545"><ele>213.0</ele><time>2026-05-02T09:12:00.25Z</time></trkpt><trkpt lat="43.3207155" lon="11.384151"><ele>212.4</ele><time>2026-05-02T09:12:01.248Z</time></trkpt><trkpt lat="43.320752" lon="11.3840412"><ele>211.8</ele><time>2026-05-02T09:12:02.249Z</time></trkpt><trkpt lat="43.3207675" lon="11.3839198"><ele>211.2</ele><time>2026-05-02T09:12:03.248Z</time></trkpt><trkpt lat="43.3207583" lon="11.3837872"><ele>210.6</ele><time>2026-05-02T09:12:04.25Z</time></trkpt><trkpt lat="43.3207262" lon="11.3836483"><ele>210.0</ele><time>2026-05-02T09:12:05.249Z</time></trkpt><trkpt lat="43.320684" lon="11.3835"><ele>208.0</ele><time>2026-05-02T09:12:06.247Z</time></trkpt><trkpt lat="43.3206462" lon="11.3833428"><ele>206.0</ele><time>2026-05-02T09:12:07.249Z</time></trkpt><trkpt lat="43.3206215" lon="11.3831765"><ele>204.0</ele><time>2026-05-02T09:12:08.249Z</time></trkpt><trkpt lat="43.3206058" lon="11.3830032"><ele>202.0</ele><time>2026-05-02T09:12:09.248Z</time></trkpt><trkpt lat="43.3205867" lon="11.3828255"><ele>201.25</ele><time>2026-05-02T09:12:10.249Z</time></trkpt><trkpt lat="43.3205627" lon="11.3826453"><ele>200.5</ele><time>2026-05-02T09:12:11.25Z</time></trkpt><trkpt lat="43.3205357" lon="11.382462"><ele>199.75</ele><time>2026-05-02T09:12:12.25Z</time></trkpt><trkpt lat="43.3205068" lon="11.3822753"><ele>199.0</ele><time>2026-05-02T09:12:13.253Z</time></trkpt><trkpt lat="43.3204775" lon="11.3820855"><ele>198.75</ele><time>2026-05-02T09:12:14.253Z</time></trkpt><trkpt lat="43.3204483" lon="11.3818948"><ele>198.5</ele><time>2026-05-02T09:12:15.25Z</time></trkpt><trkpt lat="43.320418" lon="11.3817052"><ele>198.25</ele><time>2026-05-02T09:12:16.25Z</time></trkpt><trkpt lat="43.3203872" lon="11.3815178"><ele>198.0</ele><time>2026-05-02T09:12:17.25Z</time></trkpt><trkpt lat="43.3203585" lon="11.3813342"><ele>197.75</ele><time>2026-05-02T09:12:18.25Z</time></trkpt><trkpt lat="43.3203342" lon="11.3811478"><ele>197.5</ele><time>2026-05-02T09:12:19.251Z</time></trkpt><trkpt lat="43.3203228" lon="11.3809583"><ele>197.25</ele><time>2026-05-02T09:12:20.251Z</time></trkpt><trkpt lat="43.3203292" lon="11.3807645"><ele>197.0</ele><time>2026-05-02T09:12:21.25Z</time></trkpt><trkpt lat="43.3203487" lon="11.3805738"><ele>197.0</ele><time>2026-05-02T09:12:22.25Z</time></trkpt><trkpt lat="43.320371" lon="11.3803907"><ele>197.0</ele><time>2026-05-02T09:12:23.253Z</time></trkpt><trkpt lat="43.3203917" lon="11.3802175"><ele>197.0</ele><time>2026-05-02T09:12:24.249Z</time></trkpt><trkpt lat="43.3204132" lon="11.3800573"><ele>197.0</ele><time>2026-05-02T09:12:25.249Z</time></trkpt><trkpt lat="43.3204333" lon="11.3799093"><ele>197.0</ele><time>2026-05-02T09:12:26.25Z</time></trkpt><trkpt lat="43.3204513" lon="11.3797605"><ele>197.0</ele><time>2026-05-02T09:12:27.251Z</time></trkpt><trkpt lat="43.3204738" lon="11.3796067"><ele>197.0</ele><time>2026-05-02T09:12:28.248Z</time></trkpt><trkpt lat="43.3204982" lon="11.379447"><ele>197.0</ele><time>2026-05-02T09:12:29.248Z</time></trkpt><trkpt lat="43.3205208" lon="11.3792818"><ele>197.75</ele><time>2026-05-02T09:12:30.249Z</time></trkpt><trkpt lat="43.3205383" lon="11.3791113"><ele>198.5</ele><time>2026-05-02T09:12:31.249Z</time></trkpt><trkpt lat="43.3205575" lon="11.3789367"><ele>199.25</ele><time>2026-05-02T09:12:32.25Z</time></trkpt><trkpt lat="43.3205773" lon="11.3787532"><ele>200.0</ele><time>2026-05-02T09:12:33.248Z</time></trkpt><trkpt lat="43.32059" lon="11.378561"><ele>202.0</ele><time>2026-05-02T09:12:34.247Z</time></trkpt><trkpt lat="43.3205873" lon="11.3783575"><ele>204.0</ele><time>2026-05-02T09:12:35.248Z</time></trkpt><trkpt lat="43.3205702" lon="11.378147"><ele>206.0</ele><time>2026-05-02T09:12:36.247Z</time></trkpt><trkpt lat="43.3205452" lon="11.3779302"><ele>208.66666666666669</ele><time>2026-05-02T09:12:37.251Z</time></trkpt><trkpt lat="43.3205165" lon="11.3777095"><ele>211.33333333333331</ele><time>2026-05-02T09:12:38.25Z</time></trkpt><trkpt lat="43.3204852" lon="11.3774897"><ele>214.0</ele><time>2026-05-02T09:12:39.249Z</time></trkpt><trkpt lat="43.3204577" lon="11.3772775"><ele>217.33333333333331</ele><time>2026-05-02T09:12:40.248Z</time></trkpt><trkpt lat="43.320441" lon="11.3770682"><ele>220.66666666666669</ele><time>2026-05-02T09:12:41.249Z</time></trkpt><trkpt lat="43.3204287" lon="11.376858"><ele>224.0</ele><time>2026-05-02T09:12:42.249Z</time></trkpt><trkpt lat="43.3204343" lon="11.3766445"><ele>224.0</ele><time>2026-05-02T09:12:43.248Z</time></trkpt><trkpt lat="43.320451" lon="11.3764243"><ele>224.0</ele><time>2026-05-02T09:12:44.249Z</time></trkpt><trkpt lat="43.3204758" lon="11.3762037"><ele>224.0</ele><time>2026-05-02T09:12:45.246Z</time></trkpt><trkpt lat="43.3204947" lon="11.3759982"><ele>223.25</ele><time>2026-05-02T09:12:46.249Z</time></trkpt><trkpt lat="43.3204987" lon="11.375815"><ele>222.5</ele><time>2026-05-02T09:12:47.247Z</time></trkpt><trkpt lat="43.3204817" lon="11.3756637"><ele>221.75</ele><time>2026-05-02T09:12:48.246Z</time></trkpt><trkpt lat="43.3204485" lon="11.3755258"><ele>221.0</ele><time>2026-05-02T09:12:49.245Z</time></trkpt><trkpt lat="43.320382" lon="11.375398"><ele>220.60000000000002</ele><time>2026-05-02T09:12:50.246Z</time></trkpt><trkpt lat="43.3203115" lon="11.3752767"><ele>220.20000000000002</ele><time>2026-05-02T09:12:51.246Z</time></trkpt><trkpt lat="43.3202573" lon="11.3751648"><ele>219.79999999999998</ele><time>2026-05-02T09:12:52.247Z</time></trkpt><trkpt lat="43.320229" lon="11.3750452"><ele>219.39999999999998</ele><time>2026-05-02T09:12:53.248Z</time></trkpt><trkpt lat="43.3202317" lon="11.3749203"><ele>219.0</ele><time>2026-05-02T09:12:54.248Z</time></trkpt><trkpt lat="43.3202572" lon="11.3747842"><ele>219.5</ele><time>2026-05-02T09:12:55.247Z</time></trkpt><trkpt lat="43.3202915" lon="11.3746322"><ele>220.0</ele><time>2026-05-02T09:12:56.249Z</time></trkpt><trkpt lat="43.320332" lon="11.3744623"><ele>220.5</ele><time>2026-05-02T09:12:57.247Z</time></trkpt><trkpt lat="43.3203772" lon="11.3742772"><ele>221.0</ele><time>2026-05-02T09:12:58.249Z</time></trkpt><trkpt lat="43.3204285" lon="11.3740863"><ele>221.0</ele><time>2026-05-02T09:12:59.247Z</time></trkpt><trkpt lat="43.3204867" lon="11.3738988"><ele>221.0</ele><time>2026-05-02T09:13:00.247Z</time></trkpt><trkpt lat="43.3205562" lon="11.3737115"><ele>221.0</ele><time>2026-05-02T09:13:01.246Z</time></trkpt><trkpt lat="43.3206348" lon="11.3735275"><ele>223.0</ele><time>2026-05-02T09:13:02.248Z</time></trkpt><trkpt lat="43.3207162" lon="11.373345"><ele>225.0</ele><time>2026-05-02T09:13:03.248Z</time></trkpt><trkpt lat="43.3207985" lon="11.3731743"><ele>227.0</ele><time>2026-05-02T09:13:04.25Z</time></trkpt><trkpt lat="43.3208777" lon="11.373029"><ele>229.0</ele><time>2026-05-02T09:13:05.25Z</time></trkpt><trkpt lat="43.3209445" lon="11.3728937"><ele>231.25</ele><time>2026-05-02T09:13:06.249Z</time></trkpt><trkpt lat="43.3209938" lon="11.3727403"><ele>233.5</ele><time>2026-05-02T09:13:07.249Z</time></trkpt><trkpt lat="43.3210318" lon="11.3725652"><ele>235.75</ele><time>2026-05-02T09:13:08.249Z</time></trkpt><trkpt lat="43.3210623" lon="11.3723647"><ele>238.0</ele><time>2026-05-02T09:13:09.248Z</time></trkpt><trkpt lat="43.3210932" lon="11.3721548"><ele>241.0</ele><time>2026-05-02T09:13:10.248Z</time></trkpt><trkpt lat="43.3211315" lon="11.3719467"><ele>244.0</ele><time>2026-05-02T09:13:11.25Z</time></trkpt><trkpt lat="43.3211622" lon="11.3717328"><ele>247.0</ele><time>2026-05-02T09:13:12.249Z</time></trkpt><trkpt lat="43.3211843" lon="11.371516"><ele>248.66666666666666</ele><time>2026-05-02T09:13:13.248Z</time></trkpt><trkpt lat="43.3212055" lon="11.3713043"><ele>250.33333333333331</ele><time>2026-05-02T09:13:14.247Z</time></trkpt><trkpt lat="43.3212405" lon="11.3711002"><ele>252.0</ele><time>2026-05-02T09:13:15.247Z</time></trkpt><trkpt lat="43.3212925" lon="11.370902"><ele>252.0</ele><time>2026-05-02T09:13:16.248Z</time></trkpt><trkpt lat="43.3213643" lon="11.3707045"><ele>252.0</ele><time>2026-05-02T09:13:17.248Z</time></trkpt><trkpt lat="43.3214535" lon="11.3705027"><ele>252.0</ele><time>2026-05-02T09:13:18.251Z</time></trkpt><trkpt lat="43.32155" lon="11.3702985"><ele>252.0</ele><time>2026-05-02T09:13:19.249Z</time></trkpt><trkpt lat="43.3216487" lon="11.3700988"><ele>252.0</ele><time>2026-05-02T09:13:20.253Z</time></trkpt><trkpt lat="43.3217443" lon="11.3699115"><ele>252.0</ele><time>2026-05-02T09:13:21.248Z</time></trkpt><trkpt lat="43.3218315" lon="11.369741"><ele>253.8</ele><time>2026-05-02T09:13:22.255Z</time></trkpt><trkpt lat="43.3219085" lon="11.3695875"><ele>255.6</ele><time>2026-05-02T09:13:23.25Z</time></trkpt><trkpt lat="43.3219718" lon="11.3694578"><ele>257.40000000000003</ele><time>2026-05-02T09:13:24.25Z</time></trkpt><trkpt lat="43.322013" lon="11.3693522"><ele>259.2</ele><time>2026-05-02T09:13:25.247Z</time></trkpt><trkpt lat="43.3220205" lon="11.3692588"><ele>261.0</ele><time>2026-05-02T09:13:26.248Z</time></trkpt><trkpt lat="43.321928" lon="11.3691647"><ele>261.0</ele><time>2026-05-02T09:13:28.247Z</time></trkpt><trkpt lat="43.3218505" lon="11.3691937"><ele>261.0</ele><time>2026-05-02T09:13:29.248Z</time></trkpt><trkpt lat="43.3217672" lon="11.3692695"><ele>261.0</ele><time>2026-05-02T09:13:30.248Z</time></trkpt><trkpt lat="43.3216842" lon="11.3693533"><ele>261.0</ele><time>2026-05-02T09:13:31.249Z</time></trkpt><trkpt lat="43.3215993" lon="11.3694118"><ele>261.0</ele><time>2026-05-02T09:13:32.251Z</time></trkpt><trkpt lat="43.3215107" lon="11.3694318"><ele>261.0</ele><time>2026-05-02T09:13:33.248Z</time></trkpt><trkpt lat="43.3214198" lon="11.3694023"><ele>261.0</ele><time>2026-05-02T09:13:34.252Z</time></trkpt><trkpt lat="43.3213245" lon="11.3693233"><ele>261.0</ele><time>2026-05-02T09:13:35.25Z</time></trkpt><trkpt lat="43.3212282" lon="11.3692247"><ele>261.0</ele><time>2026-05-02T09:13:36.25Z</time></trkpt><trkpt lat="43.3211325" lon="11.3691215"><ele>261.0</ele><time>2026-05-02T09:13:37.249Z</time></trkpt><trkpt lat="43.3210497" lon="11.3690277"><ele>261.40000000000003</ele><time>2026-05-02T09:13:38.248Z</time></trkpt><trkpt lat="43.3209875" lon="11.368942"><ele>261.8</ele><time>2026-05-02T09:13:39.246Z</time></trkpt><trkpt lat="43.3209465" lon="11.3688628"><ele>262.20000000000005</ele><time>2026-05-02T09:13:40.247Z</time></trkpt><trkpt lat="43.3209535" lon="11.368694"><ele>262.6</ele><time>2026-05-02T09:13:42.248Z</time></trkpt><trkpt lat="43.320981" lon="11.3685927"><ele>263.0</ele><time>2026-05-02T09:13:43.246Z</time></trkpt><trkpt lat="43.321012" lon="11.3684712"><ele>263.0</ele><time>2026-05-02T09:13:44.248Z</time></trkpt><trkpt lat="43.3210393" lon="11.3683347"><ele>263.0</ele><time>2026-05-02T09:13:45.245Z</time></trkpt><trkpt lat="43.3210555" lon="11.3681833"><ele>263.0</ele><time>2026-05-02T09:13:46.247Z</time></trkpt><trkpt lat="43.3210673" lon="11.3680133"><ele>263.0</ele><time>2026-05-02T09:13:47.247Z</time></trkpt><trkpt lat="43.3210747" lon="11.3678357"><ele>264.0</ele><time>2026-05-02T09:13:48.245Z</time></trkpt><trkpt lat="43.3210833" lon="11.3676443"><ele>265.0</ele><time>2026-05-02T09:13:49.245Z</time></trkpt><trkpt lat="43.3210912" lon="11.367449"><ele>266.0</ele><time>2026-05-02T09:13:50.245Z</time></trkpt><trkpt lat="43.3210993" lon="11.367255"><ele>267.0</ele><time>2026-05-02T09:13:51.249Z</time></trkpt><trkpt lat="43.3211047" lon="11.3670637"><ele>268.0</ele><time>2026-05-02T09:13:52.246Z</time></trkpt><trkpt lat="43.3211057" lon="11.3668833"><ele>269.0</ele><time>2026-05-02T09:13:53.246Z</time></trkpt><trkpt lat="43.3211015" lon="11.3667148"><ele>270.0</ele><time>2026-05-02T09:13:54.246Z</time></trkpt><trkpt lat="43.3210935" lon="11.366559"><ele>271.0</ele><time>2026-05-02T09:13:55.247Z</time></trkpt><trkpt lat="43.3210673" lon="11.366418"><ele>271.0</ele><time>2026-05-02T09:13:56.248Z</time></trkpt><trkpt lat="43.321043" lon="11.3662907"><ele>271.0</ele><time>2026-05-02T09:13:57.246Z</time></trkpt><trkpt lat="43.321027" lon="11.3661682"><ele>271.0</ele><time>2026-05-02T09:13:58.245Z</time></trkpt><trkpt lat="43.3210088" lon="11.366035"><ele>271.0</ele><time>2026-05-02T09:13:59.246Z</time></trkpt><trkpt lat="43.3209833" lon="11.3658937"><ele>271.0</ele><time>2026-05-02T09:14:00.247Z</time></trkpt><trkpt lat="43.3209485" lon="11.3657455"><ele>271.0</ele><time>2026-05-02T09:14:01.247Z</time></trkpt><trkpt lat="43.3209025" lon="11.3655903"><ele>271.0</ele><time>2026-05-02T09:14:02.248Z</time></trkpt><trkpt lat="43.3208482" lon="11.365432"><ele>271.0</ele><time>2026-05-02T09:14:03.258Z</time></trkpt><trkpt lat="43.3207907" lon="11.3652725"><ele>271.0</ele><time>2026-05-02T09:14:04.249Z</time></trkpt><trkpt lat="43.3207278" lon="11.3651127"><ele>271.25</ele><time>2026-05-02T09:14:05.25Z</time></trkpt><trkpt lat="43.3206593" lon="11.364956"><ele>271.5</ele><time>2026-05-02T09:14:06.248Z</time></trkpt><trkpt lat="43.3205877" lon="11.3648052"><ele>271.75</ele><time>2026-05-02T09:14:07.248Z</time></trkpt><trkpt lat="43.3205153" lon="11.3646582"><ele>272.0</ele><time>2026-05-02T09:14:08.248Z</time></trkpt><trkpt lat="43.3204372" lon="11.3645237"><ele>272.5</ele><time>2026-05-02T09:14:09.249Z</time></trkpt><trkpt lat="43.3203593" lon="11.3643923"><ele>273.0</ele><time>2026-05-02T09:14:10.249Z</time></trkpt><trkpt lat="43.32028" lon="11.3642587"><ele>273.5</ele><time>2026-05-02T09:14:11.247Z</time></trkpt><trkpt lat="43.320199" lon="11.3641163"><ele>274.0</ele><time>2026-05-02T09:14:12.247Z</time></trkpt><trkpt lat="43.320111" lon="11.3639695"><ele>274.75</ele><time>2026-05-02T09:14:13.251Z</time></trkpt><trkpt lat="43.3200185" lon="11.3638175"><ele>275.5</ele><time>2026-05-02T09:14:14.248Z</time></trkpt><trkpt lat="43.31992" lon="11.3636703"><ele>276.25</ele><time>2026-05-02T09:14:15.248Z</time></trkpt><trkpt lat="43.3198212" lon="11.363539"><ele>277.0</ele><time>2026-05-02T09:14:16.248Z</time></trkpt><trkpt lat="43.319727" lon="11.3634177"><ele>277.0</ele><time>2026-05-02T09:14:17.249Z</time></trkpt><trkpt lat="43.3196422" lon="11.363303"><ele>277.0</ele><time>2026-05-02T09:14:18.248Z</time></trkpt><trkpt lat="43.3195708" lon="11.36319"><ele>277.0</ele><time>2026-05-02T09:14:19.248Z</time></trkpt><trkpt lat="43.3195125" lon="11.3630717"><ele>277.0</ele><time>2026-05-02T09:14:20.25Z</time></trkpt><trkpt lat="43.3194652" lon="11.362948"><ele>277.0</ele><time>2026-05-02T09:14:21.248Z</time></trkpt><trkpt lat="43.319428" lon="11.3628152"><ele>275.25</ele><time>2026-05-02T09:14:22.248Z</time></trkpt><trkpt lat="43.3193888" lon="11.3626812"><ele>273.5</ele><time>2026-05-02T09:14:23.248Z</time></trkpt><trkpt lat="43.319332" lon="11.3625562"><ele>271.75</ele><time>2026-05-02T09:14:24.249Z</time></trkpt><trkpt lat="43.3192568" lon="11.3624342"><ele>270.0</ele><time>2026-05-02T09:14:25.248Z</time></trkpt><trkpt lat="43.3191698" lon="11.362304"><ele>269.0</ele><time>2026-05-02T09:14:26.25Z</time></trkpt><trkpt lat="43.3190797" lon="11.3621682"><ele>268.0</ele><time>2026-05-02T09:14:27.248Z</time></trkpt><trkpt lat="43.3189875" lon="11.3620337"><ele>267.0</ele><time>2026-05-02T09:14:28.25Z</time></trkpt><trkpt lat="43.3188978" lon="11.3619027"><ele>266.0</ele><time>2026-05-02T09:14:29.248Z</time></trkpt><trkpt lat="43.318814" lon="11.3617705"><ele>266.0</ele><time>2026-05-02T09:14:30.249Z</time></trkpt><trkpt lat="43.318735" lon="11.3616253"><ele>266.0</ele><time>2026-05-02T09:14:31.248Z</time></trkpt><trkpt lat="43.318666" lon="11.3614578"><ele>266.0</ele><time>2026-05-02T09:14:32.251Z</time></trkpt><trkpt lat="43.3186097" lon="11.3612757"><ele>266.0</ele><time>2026-05-02T09:14:33.249Z</time></trkpt><trkpt lat="43.318557" lon="11.3610948"><ele>264.0</ele><time>2026-05-02T09:14:34.249Z</time></trkpt><trkpt lat="43.3184935" lon="11.3609238"><ele>262.0</ele><time>2026-05-02T09:14:35.249Z</time></trkpt><trkpt lat="43.3184175" lon="11.3607597"><ele>260.0</ele><time>2026-05-02T09:14:36.247Z</time></trkpt><trkpt lat="43.3183428" lon="11.360599"><ele>258.0</ele><time>2026-05-02T09:14:37.255Z</time></trkpt><trkpt lat="43.3182778" lon="11.3604365"><ele>256.25</ele><time>2026-05-02T09:14:38.247Z</time></trkpt><trkpt lat="43.3182097" lon="11.3602827"><ele>254.5</ele><time>2026-05-02T09:14:39.246Z</time></trkpt><trkpt lat="43.3181357" lon="11.3601415"><ele>252.75</ele><time>2026-05-02T09:14:40.25Z</time></trkpt><trkpt lat="43.3180565" lon="11.3600098"><ele>251.0</ele><time>2026-05-02T09:14:41.249Z</time></trkpt><trkpt lat="43.3179745" lon="11.3598747"><ele>251.0</ele><time>2026-05-02T09:14:42.247Z</time></trkpt><trkpt lat="43.3179008" lon="11.3597278"><ele>251.0</ele><time>2026-05-02T09:14:43.248Z</time></trkpt><trkpt lat="43.3178393" lon="11.3595745"><ele>251.0</ele><time>2026-05-02T09:14:44.249Z</time></trkpt><trkpt lat="43.3177947" lon="11.359414"><ele>251.0</ele><time>2026-05-02T09:14:45.248Z</time></trkpt><trkpt lat="43.3177583" lon="11.3592462"><ele>248.5</ele><time>2026-05-02T09:14:46.248Z</time></trkpt><trkpt lat="43.3177247" lon="11.359072"><ele>246.0</ele><time>2026-05-02T09:14:47.248Z</time></trkpt><trkpt lat="43.317686" lon="11.3589"><ele>243.5</ele><time>2026-05-02T09:14:48.248Z</time></trkpt><trkpt lat="43.3176325" lon="11.3587428"><ele>241.0</ele><time>2026-05-02T09:14:49.247Z</time></trkpt><trkpt lat="43.3175593" lon="11.3586052"><ele>240.0</ele><time>2026-05-02T09:14:50.248Z</time></trkpt><trkpt lat="43.3174682" lon="11.3584937"><ele>239.0</ele><time>2026-05-02T09:14:51.246Z</time></trkpt><trkpt lat="43.3173628" lon="11.3584087"><ele>238.0</ele><time>2026-05-02T09:14:52.249Z</time></trkpt><trkpt lat="43.3172397" lon="11.3583525"><ele>237.0</ele><time>2026-05-02T09:14:53.25Z</time></trkpt><trkpt lat="43.3171095" lon="11.3583247"><ele>235.25</ele><time>2026-05-02T09:14:54.251Z</time></trkpt><trkpt lat="43.316981" lon="11.358311"><ele>233.5</ele><time>2026-05-02T09:14:55.249Z</time></trkpt><trkpt lat="43.3168567" lon="11.3582868"><ele>231.75</ele><time>2026-05-02T09:14:56.248Z</time></trkpt><trkpt lat="43.3167408" lon="11.3582335"><ele>230.0</ele><time>2026-05-02T09:14:57.247Z</time></trkpt><trkpt lat="43.316641" lon="11.3581425"><ele>230.5</ele><time>2026-05-02T09:14:58.249Z</time></trkpt><trkpt lat="43.316555" lon="11.3580243"><ele>231.0</ele><time>2026-05-02T09:14:59.248Z</time></trkpt><trkpt lat="43.3164787" lon="11.357891"><ele>231.5</ele><time>2026-05-02T09:15:00.246Z</time></trkpt><trkpt lat="43.316404" lon="11.3577598"><ele>232.0</ele><time>2026-05-02T09:15:01.246Z</time></trkpt><trkpt lat="43.3163275" lon="11.3576392"><ele>231.0</ele><time>2026-05-02T09:15:02.245Z</time></trkpt><trkpt lat="43.3162503" lon="11.3575288"><ele>230.0</ele><time>2026-05-02T09:15:03.246Z</time></trkpt><trkpt lat="43.3161837" lon="11.3574117"><ele>229.0</ele><time>2026-05-02T09:15:04.249Z</time></trkpt><trkpt lat="43.3161317" lon="11.35728"><ele>228.0</ele><time>2026-05-02T09:15:05.249Z</time></trkpt><trkpt lat="43.3160928" lon="11.3571388"><ele>227.0</ele><time>2026-05-02T09:15:06.248Z</time></trkpt><trkpt lat="43.3160673" lon="11.3569927"><ele>226.83333333333334</ele><time>2026-05-02T09:15:07.247Z</time></trkpt><trkpt lat="43.3160535" lon="11.356853"><ele>226.66666666666669</ele><time>2026-05-02T09:15:08.249Z</time></trkpt><trkpt lat="43.3160483" lon="11.3567248"><ele>226.5</ele><time>2026-05-02T09:15:09.258Z</time></trkpt><trkpt lat="43.3160462" lon="11.3566232"><ele>226.33333333333331</ele><time>2026-05-02T09:15:10.248Z</time></trkpt><trkpt lat="43.3160433" lon="11.3564857"><ele>226.16666666666666</ele><time>2026-05-02T09:15:12.248Z</time></trkpt><trkpt lat="43.3160287" lon="11.3563813"><ele>226.0</ele><time>2026-05-02T09:15:15.248Z</time></trkpt><trkpt lat="43.316015" lon="11.3562938"><ele>225.8</ele><time>2026-05-02T09:15:22.249Z</time></trkpt><trkpt lat="43.3160028" lon="11.356206"><ele>225.60000000000002</ele><time>2026-05-02T09:15:26.247Z</time></trkpt><trkpt lat="43.3160247" lon="11.356104"><ele>225.4</ele><time>2026-05-02T09:15:44.246Z</time></trkpt><trkpt lat="43.3160948" lon="11.3559735"><ele>225.2</ele><time>2026-05-02T09:15:46.248Z</time></trkpt><trkpt lat="43.3161717" lon="11.3558512"><ele>225.0</ele><time>2026-05-02T09:15:48.248Z</time></trkpt><trkpt lat="43.3162378" lon="11.3557488"><ele>225.0</ele><time>2026-05-02T09:15:50.246Z</time></trkpt><trkpt lat="43.3163238" lon="11.355618"><ele>225.0</ele><time>2026-05-02T09:15:52.247Z</time></trkpt><trkpt lat="43.316357" lon="11.3555347"><ele>225.0</ele><time>2026-05-02T09:15:53.248Z</time></trkpt><trkpt lat="43.3163675" lon="11.3554487"><ele>225.0</ele><time>2026-05-02T09:15:54.249Z</time></trkpt><trkpt lat="43.3163525" lon="11.3553592"><ele>225.0</ele><time>2026-05-02T09:15:55.249Z</time></trkpt><trkpt lat="43.3162682" lon="11.3552602"><ele>225.0</ele><time>2026-05-02T09:15:57.248Z</time></trkpt><trkpt lat="43.316186" lon="11.3552608"><ele>225.00000000000003</ele><time>2026-05-02T09:15:59.249Z</time></trkpt><trkpt lat="43.316109" lon="11.3553548"><ele>225.0</ele><time>2026-05-02T09:16:01.25Z</time></trkpt><trkpt lat="43.3160873" lon="11.3554385"><ele>225.00000000000003</ele><time>2026-05-02T09:16:02.25Z</time></trkpt><trkpt lat="43.316073" lon="11.3555257"><ele>225.00000000000003</ele><time>2026-05-02T09:16:03.249Z</time></trkpt><trkpt lat="43.3160608" lon="11.3556137"><ele>225.0</ele><time>2026-05-02T09:16:04.251Z</time></trkpt><trkpt lat="43.3160417" lon="11.3557047"><ele>225.00000000000003</ele><time>2026-05-02T09:16:05.25Z</time></trkpt><trkpt lat="43.3160102" lon="11.355794"><ele>225.00000000000003</ele><time>2026-05-02T09:16:06.249Z</time></trkpt><trkpt lat="43.3159705" lon="11.355872"><ele>225.0</ele><time>2026-05-02T09:16:07.249Z</time></trkpt><trkpt lat="43.3159302" lon="11.3559393"><ele>225.0</ele><time>2026-05-02T09:16:08.25Z</time></trkpt><trkpt lat="43.3158435" lon="11.3559997"><ele>225.0</ele><time>2026-05-02T09:16:10.248Z</time></trkpt><trkpt lat="43.3157383" lon="11.3559423"><ele>225.0</ele><time>2026-05-02T09:16:12.248Z</time></trkpt><trkpt lat="43.3156795" lon="11.3559085"><ele>225.0</ele><time>2026-05-02T09:16:13.251Z</time></trkpt><trkpt lat="43.3156132" lon="11.355881"><ele>225.0</ele><time>2026-05-02T09:16:14.246Z</time></trkpt><trkpt lat="43.3155417" lon="11.3558578"><ele>225.66666666666666</ele><time>2026-05-02T09:16:15.247Z</time></trkpt><trkpt lat="43.315465" lon="11.3558372"><ele>226.33333333333331</ele><time>2026-05-02T09:16:16.249Z</time></trkpt><trkpt lat="43.3153828" lon="11.3558173"><ele>227.0</ele><time>2026-05-02T09:16:17.247Z</time></trkpt><trkpt lat="43.3152983" lon="11.3558097"><ele>227.66666666666666</ele><time>2026-05-02T09:16:18.249Z</time></trkpt><trkpt lat="43.3152277" lon="11.3558158"><ele>228.33333333333331</ele><time>2026-05-02T09:16:19.25Z</time></trkpt><trkpt lat="43.3151443" lon="11.3558693"><ele>229.0</ele><time>2026-05-02T09:16:22.249Z</time></trkpt><trkpt lat="43.3150758" lon="11.3559295"><ele>228.99999999999997</ele><time>2026-05-02T09:16:24.25Z</time></trkpt><trkpt lat="43.3149862" lon="11.3560173"><ele>229.0</ele><time>2026-05-02T09:16:26.252Z</time></trkpt><trkpt lat="43.31493" lon="11.3560668"><ele>229.0</ele><time>2026-05-02T09:16:27.251Z</time></trkpt><trkpt lat="43.3148678" lon="11.3561213"><ele>229.0</ele><time>2026-05-02T09:16:28.25Z</time></trkpt><trkpt lat="43.3148043" lon="11.3561768"><ele>228.99999999999997</ele><time>2026-05-02T09:16:29.25Z</time></trkpt><trkpt lat="43.314743" lon="11.3562325"><ele>229.0</ele><time>2026-05-02T09:16:30.25Z</time></trkpt><trkpt lat="43.3146867" lon="11.3562877"><ele>229.79999999999998</ele><time>2026-05-02T09:16:31.25Z</time></trkpt><trkpt lat="43.3145982" lon="11.3563697"><ele>230.59999999999997</ele><time>2026-05-02T09:16:33.25Z</time></trkpt><trkpt lat="43.3145072" lon="11.356399"><ele>231.4</ele><time>2026-05-02T09:16:35.252Z</time></trkpt><trkpt lat="43.3144367" lon="11.3562997"><ele>232.2</ele><time>2026-05-02T09:16:37.25Z</time></trkpt><trkpt lat="43.3144602" lon="11.3561295"><ele>233.0</ele><time>2026-05-02T09:16:39.248Z</time></trkpt><trkpt lat="43.3144947" lon="11.3560282"><ele>235.0</ele><time>2026-05-02T09:16:40.25Z</time></trkpt><trkpt lat="43.3145342" lon="11.3559165"><ele>237.0</ele><time>2026-05-02T09:16:41.249Z</time></trkpt><trkpt lat="43.3145717" lon="11.3557997"><ele>239.0</ele><time>2026-05-02T09:16:42.249Z</time></trkpt><trkpt lat="43.3146012" lon="11.355674"><ele>241.0</ele><time>2026-05-02T09:16:43.25Z</time></trkpt><trkpt lat="43.3146242" lon="11.3555442"><ele>243.0</ele><time>2026-05-02T09:16:44.252Z</time></trkpt><trkpt lat="43.3146418" lon="11.3554067"><ele>245.2</ele><time>2026-05-02T09:16:45.249Z</time></trkpt><trkpt lat="43.3146538" lon="11.3552632"><ele>247.4</ele><time>2026-05-02T09:16:46.25Z</time></trkpt><trkpt lat="43.3146637" lon="11.3551158"><ele>249.59999999999997</ele><time>2026-05-02T09:16:47.249Z</time></trkpt><trkpt lat="43.3146655" lon="11.3549722"><ele>251.79999999999998</ele><time>2026-05-02T09:16:48.25Z</time></trkpt><trkpt lat="43.3146602" lon="11.3548382"><ele>254.0</ele><time>2026-05-02T09:16:49.249Z</time></trkpt><trkpt lat="43.3146462" lon="11.3547147"><ele>254.83333333333334</ele><time>2026-05-02T09:16:50.249Z</time></trkpt><trkpt lat="43.3146235" lon="11.3546013"><ele>255.66666666666669</ele><time>2026-05-02T09:16:51.249Z</time></trkpt><trkpt lat="43.3145937" lon="11.3545062"><ele>256.5</ele><time>2026-05-02T09:16:52.25Z</time></trkpt><trkpt lat="43.314552" lon="11.354426"><ele>257.3333333333333</ele><time>2026-05-02T09:16:53.249Z</time></trkpt><trkpt lat="43.314498" lon="11.3543512"><ele>258.16666666666663</ele><time>2026-05-02T09:16:54.249Z</time></trkpt><trkpt lat="43.3144405" lon="11.3542738"><ele>259.0</ele><time>2026-05-02T09:16:55.248Z</time></trkpt><trkpt lat="43.3143827" lon="11.354194"><ele>259.0</ele><time>2026-05-02T09:16:56.249Z</time></trkpt><trkpt lat="43.3143305" lon="11.3541013"><ele>259.0</ele><time>2026-05-02T09:16:57.25Z</time></trkpt><trkpt lat="43.314286" lon="11.3539952"><ele>259.0</ele><time>2026-05-02T09:16:58.25Z</time></trkpt><trkpt lat="43.3142445" lon="11.3538798"><ele>259.0</ele><time>2026-05-02T09:16:59.251Z</time></trkpt><trkpt lat="43.3141957" lon="11.3537635"><ele>259.0</ele><time>2026-05-02T09:17:00.249Z</time></trkpt><trkpt lat="43.3141313" lon="11.3536537"><ele>258.2</ele><time>2026-05-02T09:17:01.249Z</time></trkpt><trkpt lat="43.3140487" lon="11.3535603"><ele>257.4</ele><time>2026-05-02T09:17:02.249Z</time></trkpt><trkpt lat="43.3139628" lon="11.3534673"><ele>256.6</ele><time>2026-05-02T09:17:03.245Z</time></trkpt><trkpt lat="43.31388" lon="11.3533718"><ele>255.8</ele><time>2026-05-02T09:17:04.247Z</time></trkpt><trkpt lat="43.3137997" lon="11.3532807"><ele>255.0</ele><time>2026-05-02T09:17:05.246Z</time></trkpt><trkpt lat="43.3137273" lon="11.3531898"><ele>257.8</ele><time>2026-05-02T09:17:06.249Z</time></trkpt><trkpt lat="43.3136618" lon="11.3531033"><ele>260.6</ele><time>2026-05-02T09:17:07.249Z</time></trkpt><trkpt lat="43.3135965" lon="11.3530197"><ele>263.4</ele><time>2026-05-02T09:17:08.251Z</time></trkpt><trkpt lat="43.3135332" lon="11.3529307"><ele>266.2</ele><time>2026-05-02T09:17:09.26Z</time></trkpt><trkpt lat="43.3134695" lon="11.3528352"><ele>269.0</ele><time>2026-05-02T09:17:10.25Z</time></trkpt><trkpt lat="43.3134075" lon="11.3527345"><ele>269.0</ele><time>2026-05-02T09:17:11.251Z</time></trkpt><trkpt lat="43.3133508" lon="11.3526403"><ele>269.0</ele><time>2026-05-02T09:17:12.249Z</time></trkpt><trkpt lat="43.3133047" lon="11.3525572"><ele>269.0</ele><time>2026-05-02T09:17:13.251Z</time></trkpt><trkpt lat="43.3132647" lon="11.3524828"><ele>269.0</ele><time>2026-05-02T09:17:14.251Z</time></trkpt><trkpt lat="43.3132128" lon="11.3523835"><ele>269.0</ele><time>2026-05-02T09:17:16.252Z</time></trkpt><trkpt lat="43.3131578" lon="11.3522638"><ele>269.0</ele><time>2026-05-02T09:17:19.25Z</time></trkpt><trkpt lat="43.3130802" lon="11.352118"><ele>270.4</ele><time>2026-05-02T09:17:21.251Z</time></trkpt><trkpt lat="43.3130335" lon="11.352017"><ele>271.79999999999995</ele><time>2026-05-02T09:17:22.25Z</time></trkpt><trkpt lat="43.3129855" lon="11.3519002"><ele>273.20000000000005</ele><time>2026-05-02T09:17:23.252Z</time></trkpt><trkpt lat="43.312939" lon="11.3517625"><ele>274.6</ele><time>2026-05-02T09:17:24.25Z</time></trkpt><trkpt lat="43.3128992" lon="11.3516023"><ele>276.0</ele><time>2026-05-02T09:17:25.25Z</time></trkpt><trkpt lat="43.3128605" lon="11.3514275"><ele>277.25</ele><time>2026-05-02T09:17:26.251Z</time></trkpt><trkpt lat="43.3128223" lon="11.3512525"><ele>278.5</ele><time>2026-05-02T09:17:27.245Z</time></trkpt><trkpt lat="43.3127875" lon="11.3510837"><ele>279.75</ele><time>2026-05-02T09:17:28.248Z</time></trkpt><trkpt lat="43.3127525" lon="11.350926"><ele>281.0</ele><time>2026-05-02T09:17:29.249Z</time></trkpt><trkpt lat="43.3127123" lon="11.3507793"><ele>281.0</ele><time>2026-05-02T09:17:30.246Z</time></trkpt><trkpt lat="43.3126693" lon="11.3506385"><ele>281.0</ele><time>2026-05-02T09:17:31.251Z</time></trkpt><trkpt lat="43.3126268" lon="11.3505017"><ele>281.0</ele><time>2026-05-02T09:17:32.248Z</time></trkpt><trkpt lat="43.31258" lon="11.3503635"><ele>281.0</ele><time>2026-05-02T09:17:33.248Z</time></trkpt><trkpt lat="43.3125367" lon="11.3502412"><ele>281.0</ele><time>2026-05-02T09:17:34.248Z</time></trkpt><trkpt lat="43.3125067" lon="11.3501375"><ele>280.6</ele><time>2026-05-02T09:17:35.259Z</time></trkpt><trkpt lat="43.3124857" lon="11.3500523"><ele>280.20000000000005</ele><time>2026-05-02T09:17:36.248Z</time></trkpt><trkpt lat="43.3124872" lon="11.3498858"><ele>279.79999999999995</ele><time>2026-05-02T09:17:38.246Z</time></trkpt><trkpt lat="43.3125385" lon="11.3497135"><ele>279.4</ele><time>2026-05-02T09:17:40.249Z</time></trkpt><trkpt lat="43.3125882" lon="11.3496112"><ele>279.0</ele><time>2026-05-02T09:17:41.248Z</time></trkpt><trkpt lat="43.3126352" lon="11.3495003"><ele>278.1666666666667</ele><time>2026-05-02T09:17:42.247Z</time></trkpt><trkpt lat="43.3126755" lon="11.3493915"><ele>277.3333333333333</ele><time>2026-05-02T09:17:43.245Z</time></trkpt><trkpt lat="43.3127093" lon="11.3492908"><ele>276.5</ele><time>2026-05-02T09:17:44.246Z</time></trkpt><trkpt lat="43.3127342" lon="11.3491953"><ele>275.66666666666663</ele><time>2026-05-02T09:17:45.246Z</time></trkpt><trkpt lat="43.312742" lon="11.3491078"><ele>274.8333333333333</ele><time>2026-05-02T09:17:46.248Z</time></trkpt><trkpt lat="43.3127277" lon="11.3490152"><ele>274.0</ele><time>2026-05-02T09:17:47.246Z</time></trkpt><trkpt lat="43.3127013" lon="11.348905"><ele>273.2</ele><time>2026-05-02T09:17:48.247Z</time></trkpt><trkpt lat="43.3126775" lon="11.3487812"><ele>272.4</ele><time>2026-05-02T09:17:49.256Z</time></trkpt><trkpt lat="43.3126457" lon="11.348656"><ele>271.6</ele><time>2026-05-02T09:17:50.248Z</time></trkpt><trkpt lat="43.3126045" lon="11.3485332"><ele>270.8</ele><time>2026-05-02T09:17:51.247Z</time></trkpt><trkpt lat="43.3125535" lon="11.3484202"><ele>270.0</ele><time>2026-05-02T09:17:52.246Z</time></trkpt><trkpt lat="43.3124985" lon="11.3483202"><ele>270.0</ele><time>2026-05-02T09:17:53.246Z</time></trkpt><trkpt lat="43.3124485" lon="11.3482328"><ele>270.0</ele><time>2026-05-02T09:17:54.245Z</time></trkpt><trkpt lat="43.3123998" lon="11.348161"><ele>270.0</ele><time>2026-05-02T09:17:55.245Z</time></trkpt><trkpt lat="43.3123225" lon="11.3480622"><ele>270.0</ele><time>2026-05-02T09:17:57.251Z</time></trkpt><trkpt lat="43.3122345" lon="11.3481"><ele>270.0</ele><time>2026-05-02T09:18:00.249Z</time></trkpt><trkpt lat="43.3122008" lon="11.3481793"><ele>270.0</ele><time>2026-05-02T09:18:01.249Z</time></trkpt><trkpt lat="43.3121573" lon="11.3482772"><ele>269.0</ele><time>2026-05-02T09:18:02.248Z</time></trkpt><trkpt lat="43.3121053" lon="11.3483815"><ele>268.0</ele><time>2026-05-02T09:18:03.247Z</time></trkpt><trkpt lat="43.3120585" lon="11.3485058"><ele>267.0</ele><time>2026-05-02T09:18:04.249Z</time></trkpt><trkpt lat="43.312021" lon="11.3486478"><ele>266.0</ele><time>2026-05-02T09:18:05.249Z</time></trkpt><trkpt lat="43.3119795" lon="11.348809"><ele>265.0</ele><time>2026-05-02T09:18:06.248Z</time></trkpt><trkpt lat="43.3119377" lon="11.3489705"><ele>264.25</ele><time>2026-05-02T09:18:07.257Z</time></trkpt><trkpt lat="43.311893" lon="11.3491223"><ele>263.5</ele><time>2026-05-02T09:18:08.248Z</time></trkpt><trkpt lat="43.311847" lon="11.349267"><ele>262.75</ele><time>2026-05-02T09:18:09.247Z</time></trkpt><trkpt lat="43.3117898" lon="11.349406"><ele>262.0</ele><time>2026-05-02T09:18:10.247Z</time></trkpt><trkpt lat="43.3117197" lon="11.3495312"><ele>262.0</ele><time>2026-05-02T09:18:11.248Z</time></trkpt><trkpt lat="43.3116413" lon="11.349623"><ele>262.0</ele><time>2026-05-02T09:18:12.247Z</time></trkpt><trkpt lat="43.3115568" lon="11.3497062"><ele>262.0</ele><time>2026-05-02T09:18:13.248Z</time></trkpt><trkpt lat="43.3114587" lon="11.3497788"><ele>262.0</ele><time>2026-05-02T09:18:14.249Z</time></trkpt><trkpt lat="43.3113552" lon="11.3498287"><ele>262.0</ele><time>2026-05-02T09:18:15.246Z</time></trkpt><trkpt lat="43.3112595" lon="11.3498748"><ele>262.0</ele><time>2026-05-02T09:18:16.246Z</time></trkpt><trkpt lat="43.3111735" lon="11.3499203"><ele>262.0</ele><time>2026-05-02T09:18:17.245Z</time></trkpt><trkpt lat="43.3110923" lon="11.3499582"><ele>262.0</ele><time>2026-05-02T09:18:18.247Z</time></trkpt><trkpt lat="43.3110203" lon="11.3499908"><ele>262.0</ele><time>2026-05-02T09:18:19.245Z</time></trkpt><trkpt lat="43.3109568" lon="11.3500182"><ele>262.0</ele><time>2026-05-02T09:18:20.249Z</time></trkpt><trkpt lat="43.3108925" lon="11.3500427"><ele>262.0</ele><time>2026-05-02T09:18:21.249Z</time></trkpt><trkpt lat="43.3108252" lon="11.3500607"><ele>262.0</ele><time>2026-05-02T09:18:22.248Z</time></trkpt><trkpt lat="43.3107502" lon="11.3500808"><ele>262.0</ele><time>2026-05-02T09:18:23.249Z</time></trkpt><trkpt lat="43.3106722" lon="11.3501088"><ele>262.0</ele><time>2026-05-02T09:18:24.248Z</time></trkpt><trkpt lat="43.3105985" lon="11.35015"><ele>262.0</ele><time>2026-05-02T09:18:25.248Z</time></trkpt><trkpt lat="43.3105257" lon="11.350203"><ele>262.0</ele><time>2026-05-02T09:18:26.25Z</time></trkpt><trkpt lat="43.3104512" lon="11.3502585"><ele>262.0</ele><time>2026-05-02T09:18:27.243Z</time></trkpt><trkpt lat="43.310374" lon="11.3503135"><ele>262.0</ele><time>2026-05-02T09:18:28.244Z</time></trkpt><trkpt lat="43.3103003" lon="11.3503918"><ele>262.0</ele><time>2026-05-02T09:18:29.243Z</time></trkpt><trkpt lat="43.3102283" lon="11.3504877"><ele>262.0</ele><time>2026-05-02T09:18:30.245Z</time></trkpt><trkpt lat="43.3101582" lon="11.3505803"><ele>262.0</ele><time>2026-05-02T09:18:31.246Z</time></trkpt><trkpt lat="43.3100897" lon="11.350666"><ele>262.0</ele><time>2026-05-02T09:18:32.247Z</time></trkpt><trkpt lat="43.3100238" lon="11.350751"><ele>261.8</ele><time>2026-05-02T09:18:33.246Z</time></trkpt><trkpt lat="43.309959" lon="11.3508397"><ele>261.6</ele><time>2026-05-02T09:18:34.246Z</time></trkpt><trkpt lat="43.3098918" lon="11.3509377"><ele>261.40000000000003</ele><time>2026-05-02T09:18:35.248Z</time></trkpt><trkpt lat="43.3098313" lon="11.3510498"><ele>261.2</ele><time>2026-05-02T09:18:36.25Z</time></trkpt><trkpt lat="43.3097743" lon="11.3511752"><ele>261.0</ele><time>2026-05-02T09:18:37.248Z</time></trkpt><trkpt lat="43.309721" lon="11.3513167"><ele>262.0</ele><time>2026-05-02T09:18:38.25Z</time></trkpt><trkpt lat="43.3096677" lon="11.3514677"><ele>263.0</ele><time>2026-05-02T09:18:39.25Z</time></trkpt><trkpt lat="43.3096233" lon="11.351631"><ele>264.0</ele><time>2026-05-02T09:18:40.249Z</time></trkpt><trkpt lat="43.3095887" lon="11.351804"><ele>265.0</ele><time>2026-05-02T09:18:41.248Z</time></trkpt><trkpt lat="43.3095517" lon="11.3519793"><ele>265.0</ele><time>2026-05-02T09:18:42.249Z</time></trkpt><trkpt lat="43.3095165" lon="11.3521537"><ele>265.0</ele><time>2026-05-02T09:18:43.247Z</time></trkpt><trkpt lat="43.3094833" lon="11.3523318"><ele>265.0</ele><time>2026-05-02T09:18:44.248Z</time></trkpt><trkpt lat="43.309451" lon="11.3525087"><ele>265.0</ele><time>2026-05-02T09:18:45.248Z</time></trkpt><trkpt lat="43.3094232" lon="11.352679"><ele>265.0</ele><time>2026-05-02T09:18:46.251Z</time></trkpt><trkpt lat="43.3093985" lon="11.3528437"><ele>265.0</ele><time>2026-05-02T09:18:47.253Z</time></trkpt><trkpt lat="43.3093758" lon="11.353001"><ele>265.0</ele><time>2026-05-02T09:18:48.25Z</time></trkpt><trkpt lat="43.3093507" lon="11.3531458"><ele>265.0</ele><time>2026-05-02T09:18:49.25Z</time></trkpt><trkpt lat="43.3093253" lon="11.35327"><ele>265.0</ele><time>2026-05-02T09:18:50.25Z</time></trkpt><trkpt lat="43.3093032" lon="11.3533782"><ele>265.0</ele><time>2026-05-02T09:18:51.25Z</time></trkpt><trkpt lat="43.3092857" lon="11.3534698"><ele>265.0</ele><time>2026-05-02T09:18:52.25Z</time></trkpt><trkpt lat="43.3092668" lon="11.3536233"><ele>265.0</ele><time>2026-05-02T09:18:54.248Z</time></trkpt><trkpt lat="43.3092593" lon="11.3537862"><ele>265.0</ele><time>2026-05-02T09:18:56.25Z</time></trkpt><trkpt lat="43.3092533" lon="11.3539613"><ele>265.0</ele><time>2026-05-02T09:18:58.251Z</time></trkpt><trkpt lat="43.3092498" lon="11.3540725"><ele>264.6</ele><time>2026-05-02T09:18:59.25Z</time></trkpt><trkpt lat="43.3092425" lon="11.3542005"><ele>264.2</ele><time>2026-05-02T09:19:00.25Z</time></trkpt><trkpt lat="43.3092347" lon="11.3543477"><ele>263.8</ele><time>2026-05-02T09:19:01.251Z</time></trkpt><trkpt lat="43.309228" lon="11.3545033"><ele>263.4</ele><time>2026-05-02T09:19:02.249Z</time></trkpt><trkpt lat="43.3092257" lon="11.3546552"><ele>263.0</ele><time>2026-05-02T09:19:03.249Z</time></trkpt><trkpt lat="43.3092277" lon="11.354793"><ele>263.0</ele><time>2026-05-02T09:19:04.248Z</time></trkpt><trkpt lat="43.3092385" lon="11.3549227"><ele>263.0</ele><time>2026-05-02T09:19:05.247Z</time></trkpt><trkpt lat="43.3092592" lon="11.3550527"><ele>263.0</ele><time>2026-05-02T09:19:06.248Z</time></trkpt><trkpt lat="43.3092832" lon="11.3551947"><ele>263.0</ele><time>2026-05-02T09:19:07.247Z</time></trkpt><trkpt lat="43.3093125" lon="11.3553435"><ele>263.0</ele><time>2026-05-02T09:19:08.247Z</time></trkpt><trkpt lat="43.3093495" lon="11.3554912"><ele>262.5</ele><time>2026-05-02T09:19:09.249Z</time></trkpt><trkpt lat="43.3093855" lon="11.355648"><ele>262.0</ele><time>2026-05-02T09:19:10.249Z</time></trkpt><trkpt lat="43.3094208" lon="11.3558017"><ele>261.5</ele><time>2026-05-02T09:19:11.251Z</time></trkpt><trkpt lat="43.3094548" lon="11.3559477"><ele>261.0</ele><time>2026-05-02T09:19:12.25Z</time></trkpt><trkpt lat="43.3094845" lon="11.3560833"><ele>261.0</ele><time>2026-05-02T09:19:13.25Z</time></trkpt><trkpt lat="43.3095073" lon="11.3562148"><ele>261.0</ele><time>2026-05-02T09:19:14.251Z</time></trkpt><trkpt lat="43.3095185" lon="11.3563525"><ele>261.0</ele><time>2026-05-02T09:19:15.252Z</time></trkpt><trkpt lat="43.3095125" lon="11.3564955"><ele>261.0</ele><time>2026-05-02T09:19:16.251Z</time></trkpt><trkpt lat="43.3094897" lon="11.3566437"><ele>261.0</ele><time>2026-05-02T09:19:17.251Z</time></trkpt><trkpt lat="43.3094585" lon="11.3567938"><ele>259.8</ele><time>2026-05-02T09:19:18.25Z</time></trkpt><trkpt lat="43.3094203" lon="11.3569232"><ele>258.6</ele><time>2026-05-02T09:19:19.25Z</time></trkpt><trkpt lat="43.309379" lon="11.3570417"><ele>257.4</ele><time>2026-05-02T09:19:20.249Z</time></trkpt><trkpt lat="43.3093348" lon="11.3571605"><ele>256.2</ele><time>2026-05-02T09:19:21.248Z</time></trkpt><trkpt lat="43.3092733" lon="11.357275"><ele>255.0</ele><time>2026-05-02T09:19:22.247Z</time></trkpt><trkpt lat="43.3091952" lon="11.3573808"><ele>254.5</ele><time>2026-05-02T09:19:23.25Z</time></trkpt><trkpt lat="43.3091052" lon="11.3574837"><ele>254.0</ele><time>2026-05-02T09:19:24.248Z</time></trkpt><trkpt lat="43.309003" lon="11.3575842"><ele>253.5</ele><time>2026-05-02T09:19:25.248Z</time></trkpt><trkpt lat="43.308897" lon="11.3576872"><ele>253.0</ele><time>2026-05-02T09:19:26.25Z</time></trkpt><trkpt lat="43.3087903" lon="11.3577935"><ele>251.5</ele><time>2026-05-02T09:19:27.251Z</time></trkpt><trkpt lat="43.3086857" lon="11.3578995"><ele>250.0</ele><time>2026-05-02T09:19:28.247Z</time></trkpt><trkpt lat="43.3085843" lon="11.3580002"><ele>248.5</ele><time>2026-05-02T09:19:29.249Z</time></trkpt><trkpt lat="43.3084808" lon="11.3580885"><ele>247.0</ele><time>2026-05-02T09:19:30.249Z</time></trkpt><trkpt lat="43.3083702" lon="11.3581692"><ele>247.0</ele><time>2026-05-02T09:19:31.248Z</time></trkpt><trkpt lat="43.3082553" lon="11.3582527"><ele>247.0</ele><time>2026-05-02T09:19:32.246Z</time></trkpt><trkpt lat="43.308141" lon="11.3583435"><ele>247.0</ele><time>2026-05-02T09:19:33.247Z</time></trkpt><trkpt lat="43.3080278" lon="11.3584515"><ele>247.0</ele><time>2026-05-02T09:19:34.251Z</time></trkpt><trkpt lat="43.3079158" lon="11.3585722"><ele>244.0</ele><time>2026-05-02T09:19:35.249Z</time></trkpt><trkpt lat="43.3078052" lon="11.3587092"><ele>241.0</ele><time>2026-05-02T09:19:36.251Z</time></trkpt><trkpt lat="43.3076893" lon="11.3588548"><ele>238.0</ele><time>2026-05-02T09:19:37.25Z</time></trkpt><trkpt lat="43.307568" lon="11.3589993"><ele>238.0</ele><time>2026-05-02T09:19:38.251Z</time></trkpt><trkpt lat="43.3074438" lon="11.3591425"><ele>238.0</ele><time>2026-05-02T09:19:39.25Z</time></trkpt><trkpt lat="43.3073187" lon="11.3592853"><ele>238.0</ele><time>2026-05-02T09:19:40.251Z</time></trkpt><trkpt lat="43.3071987" lon="11.3594218"><ele>238.75</ele><time>2026-05-02T09:19:41.25Z</time></trkpt><trkpt lat="43.3070877" lon="11.3595537"><ele>239.5</ele><time>2026-05-02T09:19:42.247Z</time></trkpt><trkpt lat="43.3069838" lon="11.3596813"><ele>240.25</ele><time>2026-05-02T09:19:43.248Z</time></trkpt><trkpt lat="43.3068817" lon="11.3598117"><ele>241.0</ele><time>2026-05-02T09:19:44.25Z</time></trkpt><trkpt lat="43.3067853" lon="11.3599473"><ele>241.0</ele><time>2026-05-02T09:19:45.249Z</time></trkpt><trkpt lat="43.306693" lon="11.360089"><ele>241.0</ele><time>2026-05-02T09:19:46.249Z</time></trkpt><trkpt lat="43.3066052" lon="11.3602335"><ele>241.0</ele><time>2026-05-02T09:19:47.249Z</time></trkpt><trkpt lat="43.3065172" lon="11.3603765"><ele>241.0</ele><time>2026-05-02T09:19:48.249Z</time></trkpt><trkpt lat="43.3064252" lon="11.3605162"><ele>243.75</ele><time>2026-05-02T09:19:49.249Z</time></trkpt><trkpt lat="43.306334" lon="11.360636"><ele>246.5</ele><time>2026-05-02T09:19:50.251Z</time></trkpt><trkpt lat="43.3062517" lon="11.3607437"><ele>249.25</ele><time>2026-05-02T09:19:51.251Z</time></trkpt><trkpt lat="43.3061812" lon="11.360861"><ele>252.0</ele><time>2026-05-02T09:19:52.249Z</time></trkpt><trkpt lat="43.3061228" lon="11.3609942"><ele>252.0</ele><time>2026-05-02T09:19:53.25Z</time></trkpt><trkpt lat="43.306068" lon="11.3611305"><ele>252.0</ele><time>2026-05-02T09:19:54.248Z</time></trkpt><trkpt lat="43.306013" lon="11.3612577"><ele>252.0</ele><time>2026-05-02T09:19:55.248Z</time></trkpt><trkpt lat="43.305951" lon="11.3613725"><ele>252.0</ele><time>2026-05-02T09:19:56.248Z</time></trkpt><trkpt lat="43.3058805" lon="11.3614693"><ele>252.0</ele><time>2026-05-02T09:19:57.248Z</time></trkpt><trkpt lat="43.3057962" lon="11.3615457"><ele>250.75</ele><time>2026-05-02T09:19:58.248Z</time></trkpt><trkpt lat="43.3057002" lon="11.3616097"><ele>249.5</ele><time>2026-05-02T09:19:59.25Z</time></trkpt><trkpt lat="43.3055927" lon="11.3616535"><ele>248.25</ele><time>2026-05-02T09:20:00.248Z</time></trkpt><trkpt lat="43.3054737" lon="11.3616813"><ele>247.0</ele><time>2026-05-02T09:20:01.249Z</time></trkpt><trkpt lat="43.3053502" lon="11.3617032"><ele>247.0</ele><time>2026-05-02T09:20:02.25Z</time></trkpt><trkpt lat="43.3052347" lon="11.3617243"><ele>247.0</ele><time>2026-05-02T09:20:03.25Z</time></trkpt><trkpt lat="43.3051302" lon="11.3617423"><ele>247.0</ele><time>2026-05-02T09:20:04.251Z</time></trkpt><trkpt lat="43.305032" lon="11.3617613"><ele>247.0</ele><time>2026-05-02T09:20:05.249Z</time></trkpt><trkpt lat="43.3049405" lon="11.3617813"><ele>247.0</ele><time>2026-05-02T09:20:06.251Z</time></trkpt><trkpt lat="43.3048552" lon="11.3617988"><ele>247.0</ele><time>2026-05-02T09:20:07.25Z</time></trkpt><trkpt lat="43.3047717" lon="11.361809"><ele>247.0</ele><time>2026-05-02T09:20:08.249Z</time></trkpt><trkpt lat="43.3046837" lon="11.361812"><ele>247.0</ele><time>2026-05-02T09:20:09.25Z</time></trkpt><trkpt lat="43.3045878" lon="11.3618193"><ele>247.0</ele><time>2026-05-02T09:20:10.249Z</time></trkpt><trkpt lat="43.3044887" lon="11.3618412"><ele>247.0</ele><time>2026-05-02T09:20:11.252Z</time></trkpt><trkpt lat="43.3043887" lon="11.3618842"><ele>244.5</ele><time>2026-05-02T09:20:12.25Z</time></trkpt><trkpt lat="43.3042875" lon="11.361946"><ele>242.0</ele><time>2026-05-02T09:20:13.25Z</time></trkpt><trkpt lat="43.3041842" lon="11.3620215"><ele>239.5</ele><time>2026-05-02T09:20:14.25Z</time></trkpt><trkpt lat="43.3040788" lon="11.3621052"><ele>237.0</ele><time>2026-05-02T09:20:15.248Z</time></trkpt><trkpt lat="43.303969" lon="11.3621938"><ele>239.25</ele><time>2026-05-02T09:20:16.251Z</time></trkpt><trkpt lat="43.3038568" lon="11.3622882"><ele>241.5</ele><time>2026-05-02T09:20:17.251Z</time></trkpt><trkpt lat="43.303745" lon="11.3623858"><ele>243.75</ele><time>2026-05-02T09:20:18.25Z</time></trkpt><trkpt lat="43.3036413" lon="11.3624877"><ele>246.0</ele><time>2026-05-02T09:20:19.251Z</time></trkpt><trkpt lat="43.3035507" lon="11.362596"><ele>246.0</ele><time>2026-05-02T09:20:20.249Z</time></trkpt><trkpt lat="43.3034812" lon="11.3627127"><ele>246.00000000000003</ele><time>2026-05-02T09:20:21.248Z</time></trkpt><trkpt lat="43.303438" lon="11.362845"><ele>246.00000000000003</ele><time>2026-05-02T09:20:22.252Z</time></trkpt><trkpt lat="43.3034147" lon="11.3629873"><ele>246.0</ele><time>2026-05-02T09:20:23.253Z</time></trkpt><trkpt lat="43.3033985" lon="11.3631352"><ele>246.0</ele><time>2026-05-02T09:20:24.251Z</time></trkpt><trkpt lat="43.3033845" lon="11.3632902"><ele>246.0</ele><time>2026-05-02T09:20:25.25Z</time></trkpt><trkpt lat="43.3033635" lon="11.3634413"><ele>246.00000000000003</ele><time>2026-05-02T09:20:26.255Z</time></trkpt><trkpt lat="43.3033348" lon="11.3635765"><ele>246.00000000000003</ele><time>2026-05-02T09:20:27.252Z</time></trkpt><trkpt lat="43.3032955" lon="11.363694"><ele>246.0</ele><time>2026-05-02T09:20:28.252Z</time></trkpt><trkpt lat="43.3032407" lon="11.3637953"><ele>246.0</ele><time>2026-05-02T09:20:29.25Z</time></trkpt><trkpt lat="43.3031737" lon="11.3638682"><ele>246.0</ele><time>2026-05-02T09:20:30.25Z</time></trkpt><trkpt lat="43.303095" lon="11.3639137"><ele>246.00000000000003</ele><time>2026-05-02T09:20:31.25Z</time></trkpt><trkpt lat="43.3030028" lon="11.3639408"><ele>246.00000000000003</ele><time>2026-05-02T09:20:32.249Z</time></trkpt><trkpt lat="43.3029017" lon="11.363952"><ele>246.0</ele><time>2026-05-02T09:20:33.25Z</time></trkpt><trkpt lat="43.3028018" lon="11.3639523"><ele>246.0</ele><time>2026-05-02T09:20:34.25Z</time></trkpt><trkpt lat="43.3027043" lon="11.3639555"><ele>244.5</ele><time>2026-05-02T09:20:35.25Z</time></trkpt><trkpt lat="43.3025985" lon="11.3639783"><ele>243.0</ele><time>2026-05-02T09:20:36.252Z</time></trkpt><trkpt lat="43.3024853" lon="11.3640243"><ele>241.5</ele><time>2026-05-02T09:20:37.252Z</time></trkpt><trkpt lat="43.3023645" lon="11.3640862"><ele>240.0</ele><time>2026-05-02T09:20:38.25Z</time></trkpt><trkpt lat="43.3022425" lon="11.3641557"><ele>240.0</ele><time>2026-05-02T09:20:39.249Z</time></trkpt><trkpt lat="43.3021263" lon="11.364238"><ele>240.0</ele><time>2026-05-02T09:20:40.249Z</time></trkpt><trkpt lat="43.3020228" lon="11.3643363"><ele>240.0</ele><time>2026-05-02T09:20:41.25Z</time></trkpt><trkpt lat="43.3019358" lon="11.3644565"><ele>240.0</ele><time>2026-05-02T09:20:42.251Z</time></trkpt><trkpt lat="43.3018632" lon="11.3646032"><ele>240.75</ele><time>2026-05-02T09:20:43.247Z</time></trkpt><trkpt lat="43.3018045" lon="11.3647648"><ele>241.5</ele><time>2026-05-02T09:20:44.247Z</time></trkpt><trkpt lat="43.3017577" lon="11.3649263"><ele>242.25</ele><time>2026-05-02T09:20:45.247Z</time></trkpt><trkpt lat="43.3016988" lon="11.3650735"><ele>243.0</ele><time>2026-05-02T09:20:46.249Z</time></trkpt><trkpt lat="43.3016202" lon="11.3651938"><ele>243.0</ele><time>2026-05-02T09:20:47.25Z</time></trkpt><trkpt lat="43.301519" lon="11.3652872"><ele>243.0</ele><time>2026-05-02T09:20:48.252Z</time></trkpt><trkpt lat="43.301402" lon="11.3653707"><ele>243.0</ele><time>2026-05-02T09:20:49.251Z</time></trkpt><trkpt lat="43.3012765" lon="11.3654537"><ele>243.0</ele><time>2026-05-02T09:20:50.251Z</time></trkpt><trkpt lat="43.30115" lon="11.365533"><ele>242.5</ele><time>2026-05-02T09:20:51.249Z</time></trkpt><trkpt lat="43.3010305" lon="11.3656028"><ele>242.0</ele><time>2026-05-02T09:20:52.249Z</time></trkpt><trkpt lat="43.3009208" lon="11.365664"><ele>241.5</ele><time>2026-05-02T09:20:53.249Z</time></trkpt><trkpt lat="43.3008193" lon="11.3657063"><ele>241.0</ele><time>2026-05-02T09:20:54.25Z</time></trkpt><trkpt lat="43.3007172" lon="11.3657228"><ele>241.0</ele><time>2026-05-02T09:20:55.25Z</time></trkpt><trkpt lat="43.3006017" lon="11.365721"><ele>241.00000000000003</ele><time>2026-05-02T09:20:56.249Z</time></trkpt><trkpt lat="43.300489" lon="11.3657205"><ele>241.00000000000003</ele><time>2026-05-02T09:20:57.251Z</time></trkpt><trkpt lat="43.3003732" lon="11.3657238"><ele>241.0</ele><time>2026-05-02T09:20:58.25Z</time></trkpt><trkpt lat="43.3002683" lon="11.365736"><ele>241.0</ele><time>2026-05-02T09:20:59.248Z</time></trkpt><trkpt lat="43.3001733" lon="11.3657682"><ele>241.60000000000002</ele><time>2026-05-02T09:21:00.247Z</time></trkpt><trkpt lat="43.3000813" lon="11.3658213"><ele>242.20000000000002</ele><time>2026-05-02T09:21:01.248Z</time></trkpt><trkpt lat="43.2999877" lon="11.3658872"><ele>242.79999999999998</ele><time>2026-05-02T09:21:02.249Z</time></trkpt><trkpt lat="43.2998973" lon="11.3659643"><ele>243.39999999999998</ele><time>2026-05-02T09:21:03.249Z</time></trkpt><trkpt lat="43.2998112" lon="11.3660515"><ele>244.0</ele><time>2026-05-02T09:21:04.249Z</time></trkpt><trkpt lat="43.2997242" lon="11.3661582"><ele>242.25</ele><time>2026-05-02T09:21:05.249Z</time></trkpt><trkpt lat="43.299635" lon="11.3662757"><ele>240.5</ele><time>2026-05-02T09:21:06.251Z</time></trkpt><trkpt lat="43.2995397" lon="11.3664012"><ele>238.75</ele><time>2026-05-02T09:21:07.249Z</time></trkpt><trkpt lat="43.2994368" lon="11.3665242"><ele>237.0</ele><time>2026-05-02T09:21:08.248Z</time></trkpt><trkpt lat="43.2993368" lon="11.366641"><ele>237.0</ele><time>2026-05-02T09:21:09.248Z</time></trkpt><trkpt lat="43.2992458" lon="11.3667615"><ele>237.0</ele><time>2026-05-02T09:21:10.247Z</time></trkpt><trkpt lat="43.2991673" lon="11.3668862"><ele>237.0</ele><time>2026-05-02T09:21:11.249Z</time></trkpt><trkpt lat="43.2990987" lon="11.3670242"><ele>237.0</ele><time>2026-05-02T09:21:12.249Z</time></trkpt><trkpt lat="43.2990378" lon="11.3671802"><ele>237.5</ele><time>2026-05-02T09:21:13.251Z</time></trkpt><trkpt lat="43.298971" lon="11.3673533"><ele>238.0</ele><time>2026-05-02T09:21:14.25Z</time></trkpt><trkpt lat="43.2989018" lon="11.3675317"><ele>238.5</ele><time>2026-05-02T09:21:15.25Z</time></trkpt><trkpt lat="43.2988335" lon="11.3677058"><ele>239.0</ele><time>2026-05-02T09:21:16.252Z</time></trkpt><trkpt lat="43.2987658" lon="11.367866"><ele>238.2</ele><time>2026-05-02T09:21:17.253Z</time></trkpt><trkpt lat="43.2987012" lon="11.3680147"><ele>237.39999999999998</ele><time>2026-05-02T09:21:18.251Z</time></trkpt><trkpt lat="43.2986327" lon="11.3681433"><ele>236.6</ele><time>2026-05-02T09:21:19.252Z</time></trkpt><trkpt lat="43.2985608" lon="11.368252"><ele>235.8</ele><time>2026-05-02T09:21:20.249Z</time></trkpt><trkpt lat="43.2984827" lon="11.3683337"><ele>235.0</ele><time>2026-05-02T09:21:21.251Z</time></trkpt><trkpt lat="43.2983975" lon="11.368392"><ele>234.99999999999997</ele><time>2026-05-02T09:21:22.249Z</time></trkpt><trkpt lat="43.2983083" lon="11.3684387"><ele>235.0</ele><time>2026-05-02T09:21:23.249Z</time></trkpt><trkpt lat="43.2982247" lon="11.3684715"><ele>235.0</ele><time>2026-05-02T09:21:24.249Z</time></trkpt><trkpt lat="43.2981472" lon="11.3684932"><ele>235.0</ele><time>2026-05-02T09:21:25.249Z</time></trkpt><trkpt lat="43.2980727" lon="11.3685067"><ele>234.99999999999997</ele><time>2026-05-02T09:21:26.249Z</time></trkpt><trkpt lat="43.2980005" lon="11.3685163"><ele>235.0</ele><time>2026-05-02T09:21:27.251Z</time></trkpt><trkpt lat="43.2979198" lon="11.3685152"><ele>235.6</ele><time>2026-05-02T09:21:28.249Z</time></trkpt><trkpt lat="43.2978287" lon="11.3684963"><ele>236.2</ele><time>2026-05-02T09:21:29.25Z</time></trkpt><trkpt lat="43.2977295" lon="11.368456"><ele>236.8</ele><time>2026-05-02T09:21:30.248Z</time></trkpt><trkpt lat="43.2976235" lon="11.3683943"><ele>237.4</ele><time>2026-05-02T09:21:31.249Z</time></trkpt><trkpt lat="43.297513" lon="11.3683265"><ele>238.0</ele><time>2026-05-02T09:21:32.247Z</time></trkpt><trkpt lat="43.2974022" lon="11.3682633"><ele>238.0</ele><time>2026-05-02T09:21:33.247Z</time></trkpt><trkpt lat="43.2972845" lon="11.3682005"><ele>238.0</ele><time>2026-05-02T09:21:34.247Z</time></trkpt><trkpt lat="43.2971615" lon="11.3681512"><ele>238.0</ele><time>2026-05-02T09:21:35.25Z</time></trkpt><trkpt lat="43.297035" lon="11.368109"><ele>238.0</ele><time>2026-05-02T09:21:36.25Z</time></trkpt><trkpt lat="43.296908" lon="11.368071"><ele>237.25</ele><time>2026-05-02T09:21:37.25Z</time></trkpt><trkpt lat="43.2967832" lon="11.3680413"><ele>236.5</ele><time>2026-05-02T09:21:38.251Z</time></trkpt><trkpt lat="43.2966593" lon="11.3680232"><ele>235.75</ele><time>2026-05-02T09:21:39.25Z</time></trkpt><trkpt lat="43.2965348" lon="11.3680223"><ele>235.0</ele><time>2026-05-02T09:21:40.25Z</time></trkpt><trkpt lat="43.2964135" lon="11.3680312"><ele>237.0</ele><time>2026-05-02T09:21:41.251Z</time></trkpt><trkpt lat="43.2963053" lon="11.3680482"><ele>239.0</ele><time>2026-05-02T09:21:42.25Z</time></trkpt><trkpt lat="43.2961993" lon="11.3680775"><ele>241.0</ele><time>2026-05-02T09:21:43.251Z</time></trkpt><trkpt lat="43.2960937" lon="11.3681245"><ele>243.0</ele><time>2026-05-02T09:21:44.25Z</time></trkpt><trkpt lat="43.2959837" lon="11.3681798"><ele>245.0</ele><time>2026-05-02T09:21:45.251Z</time></trkpt><trkpt lat="43.2958797" lon="11.3682287"><ele>245.0</ele><time>2026-05-02T09:21:46.253Z</time></trkpt><trkpt lat="43.295786" lon="11.3682708"><ele>245.0</ele><time>2026-05-02T09:21:47.252Z</time></trkpt><trkpt lat="43.2956948" lon="11.368298"><ele>245.0</ele><time>2026-05-02T09:21:48.249Z</time></trkpt><trkpt lat="43.2956033" lon="11.3683148"><ele>245.0</ele><time>2026-05-02T09:21:49.251Z</time></trkpt><trkpt lat="43.2955088" lon="11.368328"><ele>245.0</ele><time>2026-05-02T09:21:50.251Z</time></trkpt><trkpt lat="43.2954188" lon="11.368341"><ele>243.83333333333334</ele><time>2026-05-02T09:21:51.25Z</time></trkpt><trkpt lat="43.2953325" lon="11.3683632"><ele>242.66666666666669</ele><time>2026-05-02T09:21:52.251Z</time></trkpt><trkpt lat="43.2952513" lon="11.3683997"><ele>241.5</ele><time>2026-05-02T09:21:53.249Z</time></trkpt><trkpt lat="43.2951722" lon="11.3684513"><ele>240.33333333333331</ele><time>2026-05-02T09:21:54.252Z</time></trkpt><trkpt lat="43.2950938" lon="11.3685172"><ele>239.16666666666666</ele><time>2026-05-02T09:21:55.25Z</time></trkpt><trkpt lat="43.2950222" lon="11.3685955"><ele>238.0</ele><time>2026-05-02T09:21:56.25Z</time></trkpt><trkpt lat="43.29496" lon="11.3686927"><ele>238.0</ele><time>2026-05-02T09:21:57.247Z</time></trkpt><trkpt lat="43.2949045" lon="11.368808"><ele>238.0</ele><time>2026-05-02T09:21:58.248Z</time></trkpt><trkpt lat="43.294843" lon="11.3689313"><ele>238.0</ele><time>2026-05-02T09:21:59.249Z</time></trkpt><trkpt lat="43.2947657" lon="11.3690485"><ele>238.0</ele><time>2026-05-02T09:22:00.248Z</time></trkpt><trkpt lat="43.2946708" lon="11.36915"><ele>238.0</ele><time>2026-05-02T09:22:01.254Z</time></trkpt><trkpt lat="43.294569" lon="11.369233"><ele>236.0</ele><time>2026-05-02T09:22:02.249Z</time></trkpt><trkpt lat="43.2944652" lon="11.369306"><ele>234.0</ele><time>2026-05-02T09:22:03.251Z</time></trkpt><trkpt lat="43.2943588" lon="11.3693753"><ele>232.0</ele><time>2026-05-02T09:22:04.251Z</time></trkpt><trkpt lat="43.294251" lon="11.3694435"><ele>230.0</ele><time>2026-05-02T09:22:05.25Z</time></trkpt><trkpt lat="43.2941398" lon="11.369511"><ele>230.0</ele><time>2026-05-02T09:22:06.25Z</time></trkpt><trkpt lat="43.2940285" lon="11.3695845"><ele>230.0</ele><time>2026-05-02T09:22:07.249Z</time></trkpt><trkpt lat="43.2939157" lon="11.369661"><ele>230.0</ele><time>2026-05-02T09:22:08.249Z</time></trkpt><trkpt lat="43.2938008" lon="11.3697352"><ele>230.0</ele><time>2026-05-02T09:22:09.25Z</time></trkpt><trkpt lat="43.2936873" lon="11.3698055"><ele>228.75</ele><time>2026-05-02T09:22:10.249Z</time></trkpt><trkpt lat="43.2935785" lon="11.3698693"><ele>227.5</ele><time>2026-05-02T09:22:11.252Z</time></trkpt><trkpt lat="43.293472" lon="11.3699252"><ele>226.25</ele><time>2026-05-02T09:22:12.249Z</time></trkpt><trkpt lat="43.2933617" lon="11.3699635"><ele>225.0</ele><time>2026-05-02T09:22:13.25Z</time></trkpt><trkpt lat="43.293245" lon="11.3699963"><ele>225.0</ele><time>2026-05-02T09:22:14.251Z</time></trkpt><trkpt lat="43.2931217" lon="11.370033"><ele>225.0</ele><time>2026-05-02T09:22:15.25Z</time></trkpt><trkpt lat="43.2929887" lon="11.3700593"><ele>225.0</ele><time>2026-05-02T09:22:16.25Z</time></trkpt><trkpt lat="43.2928557" lon="11.3700715"><ele>225.0</ele><time>2026-05-02T09:22:17.252Z</time></trkpt><trkpt lat="43.2927248" lon="11.3700717"><ele>224.5</ele><time>2026-05-02T09:22:18.25Z</time></trkpt><trkpt lat="43.292601" lon="11.3700683"><ele>224.0</ele><time>2026-05-02T09:22:19.25Z</time></trkpt><trkpt lat="43.2924788" lon="11.3700612"><ele>223.5</ele><time>2026-05-02T09:22:20.25Z</time></trkpt><trkpt lat="43.2923567" lon="11.3700528"><ele>223.0</ele><time>2026-05-02T09:22:21.248Z</time></trkpt><trkpt lat="43.2922305" lon="11.3700517"><ele>223.0</ele><time>2026-05-02T09:22:22.248Z</time></trkpt><trkpt lat="43.2921" lon="11.3700595"><ele>223.0</ele><time>2026-05-02T09:22:23.249Z</time></trkpt><trkpt lat="43.2919735" lon="11.3700765"><ele>223.0</ele><time>2026-05-02T09:22:24.249Z</time></trkpt><trkpt lat="43.291856" lon="11.3701002"><ele>223.0</ele><time>2026-05-02T09:22:25.251Z</time></trkpt><trkpt lat="43.2917458" lon="11.37014"><ele>223.0</ele><time>2026-05-02T09:22:26.252Z</time></trkpt><trkpt lat="43.2916358" lon="11.3701942"><ele>223.0</ele><time>2026-05-02T09:22:27.251Z</time></trkpt><trkpt lat="43.2915248" lon="11.3702558"><ele>223.0</ele><time>2026-05-02T09:22:28.253Z</time></trkpt><trkpt lat="43.2914128" lon="11.3703265"><ele>223.0</ele><time>2026-05-02T09:22:29.251Z</time></trkpt><trkpt lat="43.2913005" lon="11.3704057"><ele>223.5</ele><time>2026-05-02T09:22:30.251Z</time></trkpt><trkpt lat="43.2911897" lon="11.3704803"><ele>224.0</ele><time>2026-05-02T09:22:31.251Z</time></trkpt><trkpt lat="43.291078" lon="11.3705445"><ele>224.5</ele><time>2026-05-02T09:22:32.249Z</time></trkpt><trkpt lat="43.290962" lon="11.3705958"><ele>225.0</ele><time>2026-05-02T09:22:33.251Z</time></trkpt><trkpt lat="43.2908475" lon="11.3706338"><ele>225.0</ele><time>2026-05-02T09:22:34.251Z</time></trkpt><trkpt lat="43.2907423" lon="11.3706765"><ele>225.0</ele><time>2026-05-02T09:22:35.25Z</time></trkpt><trkpt lat="43.2906505" lon="11.3707342"><ele>225.0</ele><time>2026-05-02T09:22:36.25Z</time></trkpt><trkpt lat="43.2905657" lon="11.3708132"><ele>225.0</ele><time>2026-05-02T09:22:37.25Z</time></trkpt><trkpt lat="43.29049" lon="11.370913"><ele>225.0</ele><time>2026-05-02T09:22:38.249Z</time></trkpt><trkpt lat="43.2904312" lon="11.3710178"><ele>225.0</ele><time>2026-05-02T09:22:39.248Z</time></trkpt><trkpt lat="43.2903902" lon="11.3711298"><ele>225.0</ele><time>2026-05-02T09:22:40.25Z</time></trkpt><trkpt lat="43.2903413" lon="11.3712415"><ele>225.0</ele><time>2026-05-02T09:22:41.252Z</time></trkpt><trkpt lat="43.2902697" lon="11.3713403"><ele>225.0</ele><time>2026-05-02T09:22:42.251Z</time></trkpt><trkpt lat="43.2901812" lon="11.3714203"><ele>225.0</ele><time>2026-05-02T09:22:43.251Z</time></trkpt><trkpt lat="43.29009" lon="11.3714798"><ele>225.0</ele><time>2026-05-02T09:22:44.252Z</time></trkpt><trkpt lat="43.2900123" lon="11.3715357"><ele>225.0</ele><time>2026-05-02T09:22:45.249Z</time></trkpt><trkpt lat="43.2899595" lon="11.3716138"><ele>225.0</ele><time>2026-05-02T09:22:46.248Z</time></trkpt><trkpt lat="43.2899332" lon="11.3717158"><ele>225.0</ele><time>2026-05-02T09:22:47.25Z</time></trkpt><trkpt lat="43.2899273" lon="11.371812"><ele>225.0</ele><time>2026-05-02T09:22:48.251Z</time></trkpt><trkpt lat="43.2899117" lon="11.371967"><ele>225.0</ele><time>2026-05-02T09:22:50.252Z</time></trkpt><trkpt lat="43.289837" lon="11.3720985"><ele>225.0</ele><time>2026-05-02T09:22:52.251Z</time></trkpt><trkpt lat="43.289775" lon="11.3721475"><ele>225.0</ele><time>2026-05-02T09:22:53.252Z</time></trkpt><trkpt lat="43.2897018" lon="11.3721927"><ele>225.0</ele><time>2026-05-02T09:22:54.249Z</time></trkpt><trkpt lat="43.2896268" lon="11.3722372"><ele>225.0</ele><time>2026-05-02T09:22:55.25Z</time></trkpt><trkpt lat="43.2895497" lon="11.372278"><ele>225.0</ele><time>2026-05-02T09:22:56.251Z</time></trkpt><trkpt lat="43.2894763" lon="11.3723213"><ele>225.0</ele><time>2026-05-02T09:22:57.25Z</time></trkpt><trkpt lat="43.2894058" lon="11.3723645"><ele>223.66666666666666</ele><time>2026-05-02T09:22:58.25Z</time></trkpt><trkpt lat="43.2893388" lon="11.3724005"><ele>222.33333333333331</ele><time>2026-05-02T09:22:59.251Z</time></trkpt><trkpt lat="43.2892785" lon="11.3724308"><ele>221.0</ele><time>2026-05-02T09:23:00.25Z</time></trkpt><trkpt lat="43.2891822" lon="11.3725078"><ele>219.66666666666666</ele><time>2026-05-02T09:23:02.25Z</time></trkpt><trkpt lat="43.2891368" lon="11.3726465"><ele>218.33333333333331</ele><time>2026-05-02T09:23:04.251Z</time></trkpt><trkpt lat="43.2891272" lon="11.3727415"><ele>217.0</ele><time>2026-05-02T09:23:05.251Z</time></trkpt><trkpt lat="43.2891238" lon="11.3728498"><ele>216.99999999999997</ele><time>2026-05-02T09:23:06.252Z</time></trkpt><trkpt lat="43.2891213" lon="11.3729635"><ele>217.0</ele><time>2026-05-02T09:23:07.251Z</time></trkpt><trkpt lat="43.2891185" lon="11.3730848"><ele>217.0</ele><time>2026-05-02T09:23:08.251Z</time></trkpt><trkpt lat="43.289113" lon="11.3732063"><ele>217.0</ele><time>2026-05-02T09:23:09.251Z</time></trkpt><trkpt lat="43.2891067" lon="11.3733282"><ele>216.99999999999997</ele><time>2026-05-02T09:23:10.25Z</time></trkpt><trkpt lat="43.2891013" lon="11.3734537"><ele>217.0</ele><time>2026-05-02T09:23:11.25Z</time></trkpt><trkpt lat="43.2890977" lon="11.3735813"><ele>215.6</ele><time>2026-05-02T09:23:12.252Z</time></trkpt><trkpt lat="43.289097" lon="11.3737107"><ele>214.2</ele><time>2026-05-02T09:23:13.25Z</time></trkpt><trkpt lat="43.2890997" lon="11.3738433"><ele>212.8</ele><time>2026-05-02T09:23:14.251Z</time></trkpt><trkpt lat="43.2891042" lon="11.3739807"><ele>211.4</ele><time>2026-05-02T09:23:15.251Z</time></trkpt><trkpt lat="43.2891097" lon="11.3741233"><ele>210.0</ele><time>2026-05-02T09:23:16.252Z</time></trkpt><trkpt lat="43.289115" lon="11.3742703"><ele>208.0</ele><time>2026-05-02T09:23:17.25Z</time></trkpt><trkpt lat="43.2891213" lon="11.3744217"><ele>206.0</ele><time>2026-05-02T09:23:18.251Z</time></trkpt><trkpt lat="43.2891283" lon="11.3745768"><ele>204.0</ele><time>2026-05-02T09:23:19.252Z</time></trkpt><trkpt lat="43.2891343" lon="11.3747335"><ele>202.0</ele><time>2026-05-02T09:23:20.251Z</time></trkpt><trkpt lat="43.2891398" lon="11.3748913"><ele>200.0</ele><time>2026-05-02T09:23:21.252Z</time></trkpt><trkpt lat="43.2891445" lon="11.3750508"><ele>198.0</ele><time>2026-05-02T09:23:22.25Z</time></trkpt><trkpt lat="43.2891513" lon="11.3752108"><ele>196.0</ele><time>2026-05-02T09:23:23.25Z</time></trkpt><trkpt lat="43.2891602" lon="11.3753678"><ele>194.0</ele><time>2026-05-02T09:23:24.251Z</time></trkpt><trkpt lat="43.289168" lon="11.3755292"><ele>192.0</ele><time>2026-05-02T09:23:25.252Z</time></trkpt><trkpt lat="43.2891732" lon="11.3756935"><ele>190.0</ele><time>2026-05-02T09:23:26.253Z</time></trkpt><trkpt lat="43.2891768" lon="11.37586"><ele>188.0</ele><time>2026-05-02T09:23:27.252Z</time></trkpt><trkpt lat="43.2891802" lon="11.3760272"><ele>186.0</ele><time>2026-05-02T09:23:28.252Z</time></trkpt><trkpt lat="43.289182" lon="11.3761932"><ele>185.25</ele><time>2026-05-02T09:23:29.253Z</time></trkpt><trkpt lat="43.2891823" lon="11.3763563"><ele>184.5</ele><time>2026-05-02T09:23:30.252Z</time></trkpt><trkpt lat="43.2891865" lon="11.3765155"><ele>183.75</ele><time>2026-05-02T09:23:31.252Z</time></trkpt><trkpt lat="43.2891953" lon="11.3766688"><ele>183.0</ele><time>2026-05-02T09:23:32.252Z</time></trkpt><trkpt lat="43.289206" lon="11.3768107"><ele>183.0</ele><time>2026-05-02T09:23:33.253Z</time></trkpt><trkpt lat="43.2892163" lon="11.3769437"><ele>183.0</ele><time>2026-05-02T09:23:34.253Z</time></trkpt><trkpt lat="43.289226" lon="11.3770707"><ele>183.0</ele><time>2026-05-02T09:23:35.249Z</time></trkpt><trkpt lat="43.2892338" lon="11.3771943"><ele>183.0</ele><time>2026-05-02T09:23:36.249Z</time></trkpt><trkpt lat="43.2892415" lon="11.3773153"><ele>183.0</ele><time>2026-05-02T09:23:37.248Z</time></trkpt><trkpt lat="43.2892483" lon="11.3774273"><ele>183.33333333333334</ele><time>2026-05-02T09:23:38.249Z</time></trkpt><trkpt lat="43.2892508" lon="11.3775273"><ele>183.66666666666666</ele><time>2026-05-02T09:23:39.251Z</time></trkpt><trkpt lat="43.2892328" lon="11.3776578"><ele>184.0</ele><time>2026-05-02T09:23:41.253Z</time></trkpt><trkpt lat="43.289204" lon="11.3777678"><ele>184.33333333333331</ele><time>2026-05-02T09:24:41.25Z</time></trkpt><trkpt lat="43.2891328" lon="11.3778443"><ele>184.66666666666666</ele><time>2026-05-02T09:24:43.25Z</time></trkpt><trkpt lat="43.2890723" lon="11.3778775"><ele>185.0</ele><time>2026-05-02T09:24:44.251Z</time></trkpt><trkpt lat="43.2889988" lon="11.3779185"><ele>184.5</ele><time>2026-05-02T09:24:45.248Z</time></trkpt><trkpt lat="43.2889045" lon="11.3779723"><ele>184.0</ele><time>2026-05-02T09:24:46.251Z</time></trkpt><trkpt lat="43.2887963" lon="11.3780402"><ele>183.5</ele><time>2026-05-02T09:24:47.249Z</time></trkpt><trkpt lat="43.2886768" lon="11.378111"><ele>183.0</ele><time>2026-05-02T09:24:48.246Z</time></trkpt><trkpt lat="43.2885777" lon="11.3781732"><ele>185.14285714285714</ele><time>2026-05-02T09:24:49.247Z</time></trkpt><trkpt lat="43.2885007" lon="11.3782278"><ele>187.28571428571428</ele><time>2026-05-02T09:24:50.248Z</time></trkpt><trkpt lat="43.2884412" lon="11.3782782"><ele>189.42857142857144</ele><time>2026-05-02T09:24:51.247Z</time></trkpt><trkpt lat="43.2883857" lon="11.3783345"><ele>191.57142857142856</ele><time>2026-05-02T09:24:52.249Z</time></trkpt><trkpt lat="43.2883343" lon="11.3784013"><ele>193.7142857142857</ele><time>2026-05-02T09:24:53.25Z</time></trkpt><trkpt lat="43.2882798" lon="11.3784692"><ele>195.85714285714286</ele><time>2026-05-02T09:24:54.25Z</time></trkpt><trkpt lat="43.288227" lon="11.3785382"><ele>198.0</ele><time>2026-05-02T09:24:55.26Z</time></trkpt><trkpt lat="43.2881745" lon="11.3786182"><ele>198.0</ele><time>2026-05-02T09:24:56.249Z</time></trkpt><trkpt lat="43.2881203" lon="11.3786987"><ele>198.0</ele><time>2026-05-02T09:24:57.249Z</time></trkpt><trkpt lat="43.2880758" lon="11.3787785"><ele>198.0</ele><time>2026-05-02T09:24:58.25Z</time></trkpt><trkpt lat="43.2880557" lon="11.3788677"><ele>198.0</ele><time>2026-05-02T09:24:59.25Z</time></trkpt><trkpt lat="43.2880513" lon="11.378976"><ele>198.0</ele><time>2026-05-02T09:25:00.249Z</time></trkpt><trkpt lat="43.2880537" lon="11.3790857"><ele>198.0</ele><time>2026-05-02T09:25:01.252Z</time></trkpt><trkpt lat="43.2880568" lon="11.379184"><ele>198.4</ele><time>2026-05-02T09:25:02.253Z</time></trkpt><trkpt lat="43.2880618" lon="11.3793408"><ele>198.8</ele><time>2026-05-02T09:25:04.253Z</time></trkpt><trkpt lat="43.2880415" lon="11.3794398"><ele>199.2</ele><time>2026-05-02T09:25:07.25Z</time></trkpt><trkpt lat="43.2879595" lon="11.3795147"><ele>199.6</ele><time>2026-05-02T09:25:18.252Z</time></trkpt><trkpt lat="43.2878857" lon="11.379555"><ele>200.0</ele><time>2026-05-02T09:25:19.251Z</time></trkpt><trkpt lat="43.2877917" lon="11.3796003"><ele>200.0</ele><time>2026-05-02T09:25:20.25Z</time></trkpt><trkpt lat="43.2876828" lon="11.3796522"><ele>200.0</ele><time>2026-05-02T09:25:21.252Z</time></trkpt><trkpt lat="43.2875638" lon="11.3797123"><ele>200.0</ele><time>2026-05-02T09:25:22.251Z</time></trkpt><trkpt lat="43.2874373" lon="11.379779"><ele>200.0</ele><time>2026-05-02T09:25:23.25Z</time></trkpt><trkpt lat="43.2873062" lon="11.3798293"><ele>198.33333333333334</ele><time>2026-05-02T09:25:24.253Z</time></trkpt><trkpt lat="43.2871595" lon="11.3798482"><ele>196.66666666666669</ele><time>2026-05-02T09:25:25.251Z</time></trkpt><trkpt lat="43.2869948" lon="11.3798413"><ele>195.0</ele><time>2026-05-02T09:25:26.249Z</time></trkpt><trkpt lat="43.2868213" lon="11.3798103"><ele>195.0</ele><time>2026-05-02T09:25:27.249Z</time></trkpt><trkpt lat="43.2866432" lon="11.3797647"><ele>195.0</ele><time>2026-05-02T09:25:28.25Z</time></trkpt><trkpt lat="43.2864655" lon="11.3797003"><ele>195.0</ele><time>2026-05-02T09:25:29.252Z</time></trkpt><trkpt lat="43.2862922" lon="11.379618"><ele>195.66666666666669</ele><time>2026-05-02T09:25:30.249Z</time></trkpt><trkpt lat="43.2861205" lon="11.3795142"><ele>196.33333333333334</ele><time>2026-05-02T09:25:31.25Z</time></trkpt><trkpt lat="43.2859503" lon="11.379396"><ele>197.0</ele><time>2026-05-02T09:25:32.251Z</time></trkpt><trkpt lat="43.285787" lon="11.3792753"><ele>197.0</ele><time>2026-05-02T09:25:33.252Z</time></trkpt><trkpt lat="43.2856315" lon="11.3791653"><ele>197.0</ele><time>2026-05-02T09:25:34.249Z</time></trkpt><trkpt lat="43.285477" lon="11.3790723"><ele>197.0</ele><time>2026-05-02T09:25:35.251Z</time></trkpt><trkpt lat="43.2853182" lon="11.3790085"><ele>196.0</ele><time>2026-05-02T09:25:36.249Z</time></trkpt><trkpt lat="43.2851555" lon="11.3789747"><ele>195.0</ele><time>2026-05-02T09:25:37.249Z</time></trkpt><trkpt lat="43.2849917" lon="11.3789525"><ele>194.0</ele><time>2026-05-02T09:25:38.25Z</time></trkpt><trkpt lat="43.2848327" lon="11.3789388"><ele>193.75</ele><time>2026-05-02T09:25:39.25Z</time></trkpt><trkpt lat="43.2846803" lon="11.378927"><ele>193.5</ele><time>2026-05-02T09:25:40.249Z</time></trkpt><trkpt lat="43.2845333" lon="11.3789113"><ele>193.25</ele><time>2026-05-02T09:25:41.252Z</time></trkpt><trkpt lat="43.2843958" lon="11.3788828"><ele>193.0</ele><time>2026-05-02T09:25:42.253Z</time></trkpt><trkpt lat="43.284268" lon="11.37883"><ele>191.5</ele><time>2026-05-02T09:25:43.251Z</time></trkpt><trkpt lat="43.2841552" lon="11.378745"><ele>190.0</ele><time>2026-05-02T09:25:44.251Z</time></trkpt><trkpt lat="43.284059" lon="11.3786328"><ele>188.5</ele><time>2026-05-02T09:25:45.251Z</time></trkpt><trkpt lat="43.2839818" lon="11.3785033"><ele>187.0</ele><time>2026-05-02T09:25:46.252Z</time></trkpt><trkpt lat="43.28392" lon="11.3783652"><ele>185.5</ele><time>2026-05-02T09:25:47.264Z</time></trkpt><trkpt lat="43.283864" lon="11.3782257"><ele>184.0</ele><time>2026-05-02T09:25:48.25Z</time></trkpt><trkpt lat="43.2837995" lon="11.3780985"><ele>182.5</ele><time>2026-05-02T09:25:49.251Z</time></trkpt><trkpt lat="43.2837218" lon="11.37799"><ele>181.0</ele><time>2026-05-02T09:25:50.253Z</time></trkpt><trkpt lat="43.2836307" lon="11.3778987"><ele>180.5</ele><time>2026-05-02T09:25:51.253Z</time></trkpt><trkpt lat="43.2835252" lon="11.3778252"><ele>180.0</ele><time>2026-05-02T09:25:52.252Z</time></trkpt><trkpt lat="43.2834078" lon="11.3777745"><ele>179.5</ele><time>2026-05-02T09:25:53.251Z</time></trkpt><trkpt lat="43.2832827" lon="11.3777523"><ele>179.0</ele><time>2026-05-02T09:25:54.252Z</time></trkpt><trkpt lat="43.2831542" lon="11.3777573"><ele>178.75</ele><time>2026-05-02T09:25:55.25Z</time></trkpt><trkpt lat="43.2830243" lon="11.3777833"><ele>178.5</ele><time>2026-05-02T09:25:56.25Z</time></trkpt><trkpt lat="43.2828982" lon="11.3778273"><ele>178.25</ele><time>2026-05-02T09:25:57.249Z</time></trkpt><trkpt lat="43.2827822" lon="11.3778715"><ele>178.0</ele><time>2026-05-02T09:25:58.25Z</time></trkpt><trkpt lat="43.2826727" lon="11.3779078"><ele>178.0</ele><time>2026-05-02T09:25:59.25Z</time></trkpt><trkpt lat="43.282566" lon="11.3779255"><ele>178.0</ele><time>2026-05-02T09:26:00.252Z</time></trkpt><trkpt lat="43.2824603" lon="11.3779202"><ele>178.0</ele><time>2026-05-02T09:26:01.252Z</time></trkpt><trkpt lat="43.2823573" lon="11.3778928"><ele>178.0</ele><time>2026-05-02T09:26:02.251Z</time></trkpt><trkpt lat="43.2822583" lon="11.3778358"><ele>178.0</ele><time>2026-05-02T09:26:03.25Z</time></trkpt><trkpt lat="43.282168" lon="11.3777448"><ele>177.75</ele><time>2026-05-02T09:26:04.25Z</time></trkpt><trkpt lat="43.2820888" lon="11.3776263"><ele>177.5</ele><time>2026-05-02T09:26:05.25Z</time></trkpt><trkpt lat="43.2820272" lon="11.3774917"><ele>177.25</ele><time>2026-05-02T09:26:06.254Z</time></trkpt><trkpt lat="43.281983" lon="11.3773482"><ele>177.0</ele><time>2026-05-02T09:26:07.252Z</time></trkpt><trkpt lat="43.2819495" lon="11.377212"><ele>176.6</ele><time>2026-05-02T09:26:08.25Z</time></trkpt><trkpt lat="43.2819213" lon="11.3770878"><ele>176.2</ele><time>2026-05-02T09:26:09.249Z</time></trkpt><trkpt lat="43.2818973" lon="11.3769828"><ele>175.8</ele><time>2026-05-02T09:26:10.25Z</time></trkpt><trkpt lat="43.281875" lon="11.376894"><ele>175.4</ele><time>2026-05-02T09:26:11.249Z</time></trkpt><trkpt lat="43.2818555" lon="11.3767463"><ele>175.0</ele><time>2026-05-02T09:26:13.25Z</time></trkpt><trkpt lat="43.2818918" lon="11.376577"><ele>175.0</ele><time>2026-05-02T09:26:15.249Z</time></trkpt><trkpt lat="43.2819232" lon="11.3764787"><ele>175.0</ele><time>2026-05-02T09:26:16.249Z</time></trkpt><trkpt lat="43.2819467" lon="11.376374"><ele>175.0</ele><time>2026-05-02T09:26:17.249Z</time></trkpt><trkpt lat="43.2819493" lon="11.3762693"><ele>175.0</ele><time>2026-05-02T09:26:18.25Z</time></trkpt><trkpt lat="43.2819288" lon="11.376175"><ele>175.0</ele><time>2026-05-02T09:26:19.25Z</time></trkpt><trkpt lat="43.281891" lon="11.3760973"><ele>175.0</ele><time>2026-05-02T09:26:20.252Z</time></trkpt><trkpt lat="43.2818368" lon="11.3760295"><ele>175.0</ele><time>2026-05-02T09:26:21.252Z</time></trkpt><trkpt lat="43.2817652" lon="11.3759647"><ele>175.5</ele><time>2026-05-02T09:26:22.252Z</time></trkpt><trkpt lat="43.2816898" lon="11.3758823"><ele>176.0</ele><time>2026-05-02T09:26:23.251Z</time></trkpt><trkpt lat="43.2816257" lon="11.375765"><ele>176.5</ele><time>2026-05-02T09:26:24.249Z</time></trkpt><trkpt lat="43.2815817" lon="11.3756173"><ele>177.0</ele><time>2026-05-02T09:26:25.26Z</time></trkpt><trkpt lat="43.2815525" lon="11.375437"><ele>178.66666666666666</ele><time>2026-05-02T09:26:26.25Z</time></trkpt><trkpt lat="43.2815405" lon="11.375238"><ele>180.33333333333331</ele><time>2026-05-02T09:26:27.25Z</time></trkpt><trkpt lat="43.281548" lon="11.3750315"><ele>182.0</ele><time>2026-05-02T09:26:28.248Z</time></trkpt><trkpt lat="43.2815778" lon="11.3748167"><ele>184.33333333333331</ele><time>2026-05-02T09:26:29.25Z</time></trkpt><trkpt lat="43.2816298" lon="11.3746013"><ele>186.66666666666666</ele><time>2026-05-02T09:26:30.25Z</time></trkpt><trkpt lat="43.281705" lon="11.3743873"><ele>189.0</ele><time>2026-05-02T09:26:31.25Z</time></trkpt><trkpt lat="43.2817993" lon="11.3741777"><ele>189.0</ele><time>2026-05-02T09:26:32.256Z</time></trkpt><trkpt lat="43.2819055" lon="11.3739712"><ele>189.0</ele><time>2026-05-02T09:26:33.25Z</time></trkpt><trkpt lat="43.2820102" lon="11.3737667"><ele>189.0</ele><time>2026-05-02T09:26:34.25Z</time></trkpt><trkpt lat="43.282105" lon="11.373552"><ele>190.33333333333331</ele><time>2026-05-02T09:26:35.249Z</time></trkpt><trkpt lat="43.2821778" lon="11.3733205"><ele>191.66666666666666</ele><time>2026-05-02T09:26:36.25Z</time></trkpt><trkpt lat="43.2822287" lon="11.3730763"><ele>193.0</ele><time>2026-05-02T09:26:37.25Z</time></trkpt><trkpt lat="43.2822612" lon="11.3728148"><ele>193.66666666666666</ele><time>2026-05-02T09:26:38.25Z</time></trkpt><trkpt lat="43.282286" lon="11.3725433"><ele>194.33333333333331</ele><time>2026-05-02T09:26:39.249Z</time></trkpt><trkpt lat="43.282309" lon="11.3722628"><ele>195.0</ele><time>2026-05-02T09:26:40.249Z</time></trkpt><trkpt lat="43.28233" lon="11.3719805"><ele>196.33333333333331</ele><time>2026-05-02T09:26:41.249Z</time></trkpt><trkpt lat="43.2823493" lon="11.3717"><ele>197.66666666666666</ele><time>2026-05-02T09:26:42.249Z</time></trkpt><trkpt lat="43.28237" lon="11.3714212"><ele>199.0</ele><time>2026-05-02T09:26:43.249Z</time></trkpt><trkpt lat="43.2823935" lon="11.3711468"><ele>199.66666666666666</ele><time>2026-05-02T09:26:44.25Z</time></trkpt><trkpt lat="43.2824225" lon="11.3708807"><ele>200.33333333333331</ele><time>2026-05-02T09:26:45.249Z</time></trkpt><trkpt lat="43.2824625" lon="11.3706222"><ele>201.0</ele><time>2026-05-02T09:26:46.25Z</time></trkpt><trkpt lat="43.2825208" lon="11.370367"><ele>202.0</ele><time>2026-05-02T09:26:47.247Z</time></trkpt><trkpt lat="43.2825995" lon="11.3701108"><ele>203.0</ele><time>2026-05-02T09:26:48.25Z</time></trkpt><trkpt lat="43.282698" lon="11.3698575"><ele>204.0</ele><time>2026-05-02T09:26:49.252Z</time></trkpt><trkpt lat="43.2828103" lon="11.3696102"><ele>204.0</ele><time>2026-05-02T09:26:50.251Z</time></trkpt><trkpt lat="43.2829282" lon="11.3693728"><ele>204.0</ele><time>2026-05-02T09:26:51.251Z</time></trkpt><trkpt lat="43.2830453" lon="11.3691475"><ele>204.0</ele><time>2026-05-02T09:26:52.25Z</time></trkpt><trkpt lat="43.2831573" lon="11.3689298"><ele>205.33333333333331</ele><time>2026-05-02T09:26:53.249Z</time></trkpt><trkpt lat="43.2832558" lon="11.368717"><ele>206.66666666666666</ele><time>2026-05-02T09:26:54.25Z</time></trkpt><trkpt lat="43.2833375" lon="11.3685047"><ele>208.0</ele><time>2026-05-02T09:26:55.251Z</time></trkpt><trkpt lat="43.283401" lon="11.3682847"><ele>208.0</ele><time>2026-05-02T09:26:56.251Z</time></trkpt><trkpt lat="43.2834447" lon="11.3680537"><ele>208.0</ele><time>2026-05-02T09:26:57.25Z</time></trkpt><trkpt lat="43.2834722" lon="11.3678108"><ele>208.0</ele><time>2026-05-02T09:26:58.251Z</time></trkpt><trkpt lat="43.2834752" lon="11.3675578"><ele>208.0</ele><time>2026-05-02T09:26:59.251Z</time></trkpt><trkpt lat="43.283458" lon="11.3673007"><ele>208.0</ele><time>2026-05-02T09:27:00.25Z</time></trkpt><trkpt lat="43.2834158" lon="11.367052"><ele>208.0</ele><time>2026-05-02T09:27:01.251Z</time></trkpt><trkpt lat="43.283348" lon="11.3668128"><ele>209.0</ele><time>2026-05-02T09:27:02.25Z</time></trkpt><trkpt lat="43.2832545" lon="11.3665888"><ele>210.0</ele><time>2026-05-02T09:27:03.249Z</time></trkpt><trkpt lat="43.2831433" lon="11.3663792"><ele>211.0</ele><time>2026-05-02T09:27:04.249Z</time></trkpt><trkpt lat="43.2830158" lon="11.3661843"><ele>212.33333333333331</ele><time>2026-05-02T09:27:05.249Z</time></trkpt><trkpt lat="43.282872" lon="11.3660097"><ele>213.66666666666669</ele><time>2026-05-02T09:27:06.248Z</time></trkpt><trkpt lat="43.2827212" lon="11.3658498"><ele>215.0</ele><time>2026-05-02T09:27:07.249Z</time></trkpt><trkpt lat="43.2825827" lon="11.3656967"><ele>215.0</ele><time>2026-05-02T09:27:08.249Z</time></trkpt><trkpt lat="43.2824565" lon="11.3655503"><ele>215.0</ele><time>2026-05-02T09:27:09.249Z</time></trkpt><trkpt lat="43.2823463" lon="11.3653985"><ele>215.0</ele><time>2026-05-02T09:27:10.253Z</time></trkpt><trkpt lat="43.2822593" lon="11.365228"><ele>215.0</ele><time>2026-05-02T09:27:11.25Z</time></trkpt><trkpt lat="43.2822025" lon="11.365035"><ele>215.0</ele><time>2026-05-02T09:27:12.251Z</time></trkpt><trkpt lat="43.2821742" lon="11.3648232"><ele>215.0</ele><time>2026-05-02T09:27:13.251Z</time></trkpt><trkpt lat="43.2821717" lon="11.3646017"><ele>213.66666666666669</ele><time>2026-05-02T09:27:14.252Z</time></trkpt><trkpt lat="43.282192" lon="11.364379"><ele>212.33333333333331</ele><time>2026-05-02T09:27:15.248Z</time></trkpt><trkpt lat="43.2822265" lon="11.3641577"><ele>211.0</ele><time>2026-05-02T09:27:16.25Z</time></trkpt><trkpt lat="43.2822772" lon="11.3639407"><ele>214.0</ele><time>2026-05-02T09:27:17.249Z</time></trkpt><trkpt lat="43.2823482" lon="11.3637293"><ele>217.0</ele><time>2026-05-02T09:27:18.248Z</time></trkpt><trkpt lat="43.2824332" lon="11.3635175"><ele>220.0</ele><time>2026-05-02T09:27:19.251Z</time></trkpt><trkpt lat="43.2825287" lon="11.3633033"><ele>220.0</ele><time>2026-05-02T09:27:20.252Z</time></trkpt><trkpt lat="43.2826302" lon="11.3630945"><ele>220.0</ele><time>2026-05-02T09:27:21.251Z</time></trkpt><trkpt lat="43.2827345" lon="11.3628943"><ele>220.0</ele><time>2026-05-02T09:27:22.252Z</time></trkpt><trkpt lat="43.2828378" lon="11.362698"><ele>222.0</ele><time>2026-05-02T09:27:23.256Z</time></trkpt><trkpt lat="43.2829348" lon="11.3624957"><ele>224.0</ele><time>2026-05-02T09:27:24.252Z</time></trkpt><trkpt lat="43.2830262" lon="11.362287"><ele>226.0</ele><time>2026-05-02T09:27:25.252Z</time></trkpt><trkpt lat="43.2831098" lon="11.362073"><ele>226.0</ele><time>2026-05-02T09:27:26.252Z</time></trkpt><trkpt lat="43.2831862" lon="11.3618535"><ele>226.0</ele><time>2026-05-02T09:27:27.25Z</time></trkpt><trkpt lat="43.283251" lon="11.3616237"><ele>226.0</ele><time>2026-05-02T09:27:28.25Z</time></trkpt><trkpt lat="43.2833017" lon="11.3613828"><ele>225.0</ele><time>2026-05-02T09:27:29.251Z</time></trkpt><trkpt lat="43.283345" lon="11.3611322"><ele>224.0</ele><time>2026-05-02T09:27:30.25Z</time></trkpt><trkpt lat="43.2833923" lon="11.360878"><ele>223.0</ele><time>2026-05-02T09:27:31.25Z</time></trkpt><trkpt lat="43.2834463" lon="11.3606218"><ele>221.0</ele><time>2026-05-02T09:27:32.25Z</time></trkpt><trkpt lat="43.2835148" lon="11.360367"><ele>219.0</ele><time>2026-05-02T09:27:33.249Z</time></trkpt><trkpt lat="43.2835887" lon="11.3601103"><ele>217.0</ele><time>2026-05-02T09:27:34.25Z</time></trkpt><trkpt lat="43.2836615" lon="11.3598513"><ele>216.33333333333331</ele><time>2026-05-02T09:27:35.25Z</time></trkpt><trkpt lat="43.2837355" lon="11.3595922"><ele>215.66666666666669</ele><time>2026-05-02T09:27:36.253Z</time></trkpt><trkpt lat="43.2838107" lon="11.3593328"><ele>215.0</ele><time>2026-05-02T09:27:37.249Z</time></trkpt><trkpt lat="43.2838872" lon="11.3590748"><ele>219.66666666666669</ele><time>2026-05-02T09:27:38.25Z</time></trkpt><trkpt lat="43.2839638" lon="11.3588228"><ele>224.33333333333331</ele><time>2026-05-02T09:27:39.249Z</time></trkpt><trkpt lat="43.2840367" lon="11.3585738"><ele>229.0</ele><time>2026-05-02T09:27:40.247Z</time></trkpt><trkpt lat="43.2841022" lon="11.3583227"><ele>229.0</ele><time>2026-05-02T09:27:41.247Z</time></trkpt><trkpt lat="43.2841588" lon="11.3580678"><ele>229.0</ele><time>2026-05-02T09:27:42.246Z</time></trkpt><trkpt lat="43.2842077" lon="11.3578107"><ele>229.0</ele><time>2026-05-02T09:27:43.247Z</time></trkpt><trkpt lat="43.2842555" lon="11.357557"><ele>228.66666666666666</ele><time>2026-05-02T09:27:44.25Z</time></trkpt><trkpt lat="43.2843107" lon="11.3573065"><ele>228.33333333333331</ele><time>2026-05-02T09:27:45.248Z</time></trkpt><trkpt lat="43.2843753" lon="11.3570558"><ele>228.0</ele><time>2026-05-02T09:27:46.25Z</time></trkpt><trkpt lat="43.284446" lon="11.3568035"><ele>227.66666666666669</ele><time>2026-05-02T09:27:47.249Z</time></trkpt><trkpt lat="43.2845227" lon="11.3565515"><ele>227.33333333333334</ele><time>2026-05-02T09:27:48.248Z</time></trkpt><trkpt lat="43.2846057" lon="11.3563017"><ele>227.0</ele><time>2026-05-02T09:27:49.249Z</time></trkpt><trkpt lat="43.2846935" lon="11.3560548"><ele>230.0</ele><time>2026-05-02T09:27:50.252Z</time></trkpt><trkpt lat="43.284782" lon="11.355812"><ele>233.0</ele><time>2026-05-02T09:27:51.25Z</time></trkpt><trkpt lat="43.284867" lon="11.3555807"><ele>236.0</ele><time>2026-05-02T09:27:52.25Z</time></trkpt><trkpt lat="43.2849462" lon="11.3553628"><ele>236.0</ele><time>2026-05-02T09:27:53.25Z</time></trkpt><trkpt lat="43.285015" lon="11.355156"><ele>236.0</ele><time>2026-05-02T09:27:54.249Z</time></trkpt><trkpt lat="43.2850625" lon="11.3549577"><ele>236.0</ele><time>2026-05-02T09:27:55.249Z</time></trkpt><trkpt lat="43.2850802" lon="11.3547675"><ele>236.5</ele><time>2026-05-02T09:27:56.25Z</time></trkpt><trkpt lat="43.2850668" lon="11.3545772"><ele>237.0</ele><time>2026-05-02T09:27:57.25Z</time></trkpt><trkpt lat="43.2850207" lon="11.3543892"><ele>237.5</ele><time>2026-05-02T09:27:58.251Z</time></trkpt><trkpt lat="43.2849398" lon="11.3542142"><ele>238.0</ele><time>2026-05-02T09:27:59.25Z</time></trkpt><trkpt lat="43.2848397" lon="11.3540605"><ele>237.5</ele><time>2026-05-02T09:28:00.251Z</time></trkpt><trkpt lat="43.2847455" lon="11.3539242"><ele>237.0</ele><time>2026-05-02T09:28:01.25Z</time></trkpt><trkpt lat="43.2846603" lon="11.3537973"><ele>236.5</ele><time>2026-05-02T09:28:02.251Z</time></trkpt><trkpt lat="43.2845868" lon="11.353682"><ele>236.0</ele><time>2026-05-02T09:28:03.25Z</time></trkpt><trkpt lat="43.2845268" lon="11.353578"><ele>236.0</ele><time>2026-05-02T09:28:04.249Z</time></trkpt><trkpt lat="43.2844857" lon="11.3534908"><ele>236.00000000000003</ele><time>2026-05-02T09:28:05.249Z</time></trkpt><trkpt lat="43.2844268" lon="11.3533807"><ele>236.00000000000003</ele><time>2026-05-02T09:28:07.249Z</time></trkpt><trkpt lat="43.28437" lon="11.3533348"><ele>236.0</ele><time>2026-05-02T09:28:15.25Z</time></trkpt><trkpt lat="43.2842438" lon="11.3533743"><ele>236.0</ele><time>2026-05-02T09:28:17.252Z</time></trkpt><trkpt lat="43.2841615" lon="11.3534285"><ele>236.0</ele><time>2026-05-02T09:28:18.25Z</time></trkpt><trkpt lat="43.2840615" lon="11.3534933"><ele>236.0</ele><time>2026-05-02T09:28:19.251Z</time></trkpt><trkpt lat="43.2839397" lon="11.3535577"><ele>236.0</ele><time>2026-05-02T09:28:20.252Z</time></trkpt><trkpt lat="43.2837997" lon="11.3536142"><ele>236.0</ele><time>2026-05-02T09:28:21.252Z</time></trkpt><trkpt lat="43.2836485" lon="11.3536578"><ele>236.66666666666669</ele><time>2026-05-02T09:28:22.251Z</time></trkpt><trkpt lat="43.2834833" lon="11.3536798"><ele>237.33333333333331</ele><time>2026-05-02T09:28:23.251Z</time></trkpt><trkpt lat="43.2833073" lon="11.353678"><ele>238.0</ele><time>2026-05-02T09:28:24.249Z</time></trkpt><trkpt lat="43.2831268" lon="11.353652"><ele>238.0</ele><time>2026-05-02T09:28:25.249Z</time></trkpt><trkpt lat="43.2829387" lon="11.3536145"><ele>238.0</ele><time>2026-05-02T09:28:26.25Z</time></trkpt><trkpt lat="43.2827483" lon="11.3535735"><ele>238.0</ele><time>2026-05-02T09:28:27.248Z</time></trkpt><trkpt lat="43.2825608" lon="11.3535323"><ele>238.0</ele><time>2026-05-02T09:28:28.248Z</time></trkpt><trkpt lat="43.2823753" lon="11.3534905"><ele>238.0</ele><time>2026-05-02T09:28:29.247Z</time></trkpt><trkpt lat="43.2821933" lon="11.3534488"><ele>238.0</ele><time>2026-05-02T09:28:30.249Z</time></trkpt><trkpt lat="43.2820135" lon="11.3534092"><ele>238.0</ele><time>2026-05-02T09:28:31.247Z</time></trkpt><trkpt lat="43.2818345" lon="11.3533708"><ele>238.0</ele><time>2026-05-02T09:28:32.259Z</time></trkpt><trkpt lat="43.2816625" lon="11.3533322"><ele>238.0</ele><time>2026-05-02T09:28:33.251Z</time></trkpt><trkpt lat="43.2815023" lon="11.3532905"><ele>238.0</ele><time>2026-05-02T09:28:34.252Z</time></trkpt><trkpt lat="43.2813518" lon="11.3532477"><ele>238.0</ele><time>2026-05-02T09:28:35.252Z</time></trkpt><trkpt lat="43.281209" lon="11.3532037"><ele>238.0</ele><time>2026-05-02T09:28:36.25Z</time></trkpt><trkpt lat="43.2810645" lon="11.3531538"><ele>238.0</ele><time>2026-05-02T09:28:37.25Z</time></trkpt><trkpt lat="43.2809122" lon="11.3530988"><ele>238.0</ele><time>2026-05-02T09:28:38.251Z</time></trkpt><trkpt lat="43.2807482" lon="11.3530422"><ele>238.0</ele><time>2026-05-02T09:28:39.25Z</time></trkpt><trkpt lat="43.280577" lon="11.3529852"><ele>238.0</ele><time>2026-05-02T09:28:40.25Z</time></trkpt><trkpt lat="43.2804042" lon="11.3529247"><ele>235.33333333333331</ele><time>2026-05-02T09:28:41.261Z</time></trkpt><trkpt lat="43.2802277" lon="11.3528622"><ele>232.66666666666669</ele><time>2026-05-02T09:28:42.252Z</time></trkpt><trkpt lat="43.2800472" lon="11.3528048"><ele>230.0</ele><time>2026-05-02T09:28:43.254Z</time></trkpt><trkpt lat="43.2798657" lon="11.3527532"><ele>229.0</ele><time>2026-05-02T09:28:44.252Z</time></trkpt><trkpt lat="43.2796848" lon="11.3527055"><ele>228.0</ele><time>2026-05-02T09:28:45.252Z</time></trkpt><trkpt lat="43.2795082" lon="11.3526675"><ele>227.0</ele><time>2026-05-02T09:28:46.253Z</time></trkpt><trkpt lat="43.2793337" lon="11.3526398"><ele>227.0</ele><time>2026-05-02T09:28:47.255Z</time></trkpt><trkpt lat="43.2791628" lon="11.352622"><ele>227.0</ele><time>2026-05-02T09:28:48.252Z</time></trkpt><trkpt lat="43.2789965" lon="11.352619"><ele>227.0</ele><time>2026-05-02T09:28:49.253Z</time></trkpt><trkpt lat="43.2788355" lon="11.3526383"><ele>227.0</ele><time>2026-05-02T09:28:50.254Z</time></trkpt><trkpt lat="43.2786825" lon="11.3526883"><ele>227.0</ele><time>2026-05-02T09:28:51.253Z</time></trkpt><trkpt lat="43.2785322" lon="11.3527668"><ele>227.0</ele><time>2026-05-02T09:28:52.252Z</time></trkpt><trkpt lat="43.2783825" lon="11.3528568"><ele>227.0</ele><time>2026-05-02T09:28:53.25Z</time></trkpt><trkpt lat="43.2782318" lon="11.3529485"><ele>227.0</ele><time>2026-05-02T09:28:54.249Z</time></trkpt><trkpt lat="43.2780823" lon="11.3530403"><ele>227.0</ele><time>2026-05-02T09:28:55.251Z</time></trkpt><trkpt lat="43.2779358" lon="11.353133"><ele>228.33333333333334</ele><time>2026-05-02T09:28:56.25Z</time></trkpt><trkpt lat="43.2777903" lon="11.3532247"><ele>229.66666666666669</ele><time>2026-05-02T09:28:57.254Z</time></trkpt><trkpt lat="43.2776445" lon="11.3533128"><ele>231.0</ele><time>2026-05-02T09:28:58.252Z</time></trkpt><trkpt lat="43.2774997" lon="11.3533983"><ele>231.0</ele><time>2026-05-02T09:28:59.252Z</time></trkpt><trkpt lat="43.2773598" lon="11.3534772"><ele>231.0</ele><time>2026-05-02T09:29:00.251Z</time></trkpt><trkpt lat="43.2772203" lon="11.3535488"><ele>231.0</ele><time>2026-05-02T09:29:01.253Z</time></trkpt><trkpt lat="43.2770773" lon="11.3536055"><ele>231.0</ele><time>2026-05-02T09:29:02.25Z</time></trkpt><trkpt lat="43.2769325" lon="11.3536497"><ele>231.25</ele><time>2026-05-02T09:29:03.253Z</time></trkpt><trkpt lat="43.2767873" lon="11.3536865"><ele>231.5</ele><time>2026-05-02T09:29:04.28Z</time></trkpt><trkpt lat="43.2766412" lon="11.3537178"><ele>231.75</ele><time>2026-05-02T09:29:05.25Z</time></trkpt><trkpt lat="43.2764942" lon="11.353747"><ele>232.0</ele><time>2026-05-02T09:29:06.258Z</time></trkpt><trkpt lat="43.2763473" lon="11.3537763"><ele>230.33333333333331</ele><time>2026-05-02T09:29:07.25Z</time></trkpt><trkpt lat="43.276196" lon="11.3538083"><ele>228.66666666666669</ele><time>2026-05-02T09:29:08.25Z</time></trkpt><trkpt lat="43.2760405" lon="11.3538393"><ele>227.0</ele><time>2026-05-02T09:29:09.249Z</time></trkpt><trkpt lat="43.275881" lon="11.3538698"><ele>225.66666666666669</ele><time>2026-05-02T09:29:10.251Z</time></trkpt><trkpt lat="43.2757183" lon="11.353902"><ele>224.33333333333331</ele><time>2026-05-02T09:29:11.252Z</time></trkpt><trkpt lat="43.275556" lon="11.3539333"><ele>223.0</ele><time>2026-05-02T09:29:12.251Z</time></trkpt><trkpt lat="43.2753985" lon="11.3539637"><ele>222.66666666666666</ele><time>2026-05-02T09:29:13.251Z</time></trkpt><trkpt lat="43.2752452" lon="11.3539948"><ele>222.33333333333331</ele><time>2026-05-02T09:29:14.254Z</time></trkpt><trkpt lat="43.2750942" lon="11.3540282"><ele>222.0</ele><time>2026-05-02T09:29:15.249Z</time></trkpt><trkpt lat="43.274945" lon="11.3540658"><ele>222.0</ele><time>2026-05-02T09:29:16.251Z</time></trkpt><trkpt lat="43.2747987" lon="11.3541187"><ele>222.0</ele><time>2026-05-02T09:29:17.251Z</time></trkpt><trkpt lat="43.2746583" lon="11.3541985"><ele>222.0</ele><time>2026-05-02T09:29:18.248Z</time></trkpt><trkpt lat="43.2745258" lon="11.3543083"><ele>222.0</ele><time>2026-05-02T09:29:19.248Z</time></trkpt><trkpt lat="43.2744022" lon="11.3544492"><ele>222.0</ele><time>2026-05-02T09:29:20.25Z</time></trkpt><trkpt lat="43.2742852" lon="11.3546132"><ele>222.0</ele><time>2026-05-02T09:29:21.249Z</time></trkpt><trkpt lat="43.2741697" lon="11.3547868"><ele>222.0</ele><time>2026-05-02T09:29:22.251Z</time></trkpt><trkpt lat="43.2740497" lon="11.3549573"><ele>222.0</ele><time>2026-05-02T09:29:23.252Z</time></trkpt><trkpt lat="43.2739212" lon="11.355118"><ele>222.0</ele><time>2026-05-02T09:29:24.252Z</time></trkpt><trkpt lat="43.27379" lon="11.3552717"><ele>222.33333333333331</ele><time>2026-05-02T09:29:25.251Z</time></trkpt><trkpt lat="43.2736635" lon="11.3554168"><ele>222.66666666666666</ele><time>2026-05-02T09:29:26.251Z</time></trkpt><trkpt lat="43.2735433" lon="11.3555548"><ele>223.0</ele><time>2026-05-02T09:29:27.252Z</time></trkpt><trkpt lat="43.273426" lon="11.3556888"><ele>223.0</ele><time>2026-05-02T09:29:28.251Z</time></trkpt><trkpt lat="43.2733072" lon="11.3558203"><ele>223.0</ele><time>2026-05-02T09:29:29.251Z</time></trkpt><trkpt lat="43.2731873" lon="11.35595"><ele>223.0</ele><time>2026-05-02T09:29:30.251Z</time></trkpt><trkpt lat="43.2730697" lon="11.3560815"><ele>224.0</ele><time>2026-05-02T09:29:31.25Z</time></trkpt><trkpt lat="43.2729542" lon="11.356211"><ele>225.0</ele><time>2026-05-02T09:29:32.25Z</time></trkpt><trkpt lat="43.2728398" lon="11.3563392"><ele>226.0</ele><time>2026-05-02T09:29:33.253Z</time></trkpt><trkpt lat="43.2727302" lon="11.356462"><ele>227.0</ele><time>2026-05-02T09:29:34.253Z</time></trkpt><trkpt lat="43.2726235" lon="11.3565802"><ele>227.0</ele><time>2026-05-02T09:29:35.252Z</time></trkpt><trkpt lat="43.27252" lon="11.3566937"><ele>227.0</ele><time>2026-05-02T09:29:36.25Z</time></trkpt><trkpt lat="43.2724182" lon="11.3568068"><ele>227.0</ele><time>2026-05-02T09:29:37.253Z</time></trkpt><trkpt lat="43.2723175" lon="11.3569173"><ele>227.0</ele><time>2026-05-02T09:29:38.249Z</time></trkpt><trkpt lat="43.2722212" lon="11.3570225"><ele>226.2</ele><time>2026-05-02T09:29:39.249Z</time></trkpt><trkpt lat="43.2721322" lon="11.3571212"><ele>225.39999999999998</ele><time>2026-05-02T09:29:40.25Z</time></trkpt><trkpt lat="43.272052" lon="11.3572113"><ele>224.60000000000002</ele><time>2026-05-02T09:29:41.251Z</time></trkpt><trkpt lat="43.2719808" lon="11.3572913"><ele>223.8</ele><time>2026-05-02T09:29:42.249Z</time></trkpt><trkpt lat="43.2719158" lon="11.357353"><ele>223.0</ele><time>2026-05-02T09:29:43.249Z</time></trkpt><trkpt lat="43.27185" lon="11.3573797"><ele>223.0</ele><time>2026-05-02T09:29:44.252Z</time></trkpt><trkpt lat="43.2717772" lon="11.3573643"><ele>223.0</ele><time>2026-05-02T09:29:45.243Z</time></trkpt><trkpt lat="43.2717008" lon="11.3573077"><ele>223.0</ele><time>2026-05-02T09:29:46.247Z</time></trkpt><trkpt lat="43.2716235" lon="11.3572283"><ele>223.0</ele><time>2026-05-02T09:29:47.251Z</time></trkpt><trkpt lat="43.2715427" lon="11.3571415"><ele>223.0</ele><time>2026-05-02T09:29:48.247Z</time></trkpt><trkpt lat="43.2714618" lon="11.3570535"><ele>222.8</ele><time>2026-05-02T09:29:49.248Z</time></trkpt><trkpt lat="43.2713783" lon="11.3569672"><ele>222.60000000000002</ele><time>2026-05-02T09:29:50.248Z</time></trkpt><trkpt lat="43.2712967" lon="11.3568833"><ele>222.39999999999998</ele><time>2026-05-02T09:29:51.249Z</time></trkpt><trkpt lat="43.2712197" lon="11.3568017"><ele>222.2</ele><time>2026-05-02T09:29:52.251Z</time></trkpt><trkpt lat="43.2711488" lon="11.3567227"><ele>222.0</ele><time>2026-05-02T09:29:53.251Z</time></trkpt><trkpt lat="43.2710813" lon="11.3566445"><ele>222.0</ele><time>2026-05-02T09:29:54.251Z</time></trkpt><trkpt lat="43.2710052" lon="11.3565675"><ele>222.0</ele><time>2026-05-02T09:29:55.249Z</time></trkpt><trkpt lat="43.2709212" lon="11.3564883"><ele>222.0</ele><time>2026-05-02T09:29:56.252Z</time></trkpt><trkpt lat="43.270834" lon="11.3564023"><ele>222.0</ele><time>2026-05-02T09:29:57.25Z</time></trkpt><trkpt lat="43.2707502" lon="11.3563195"><ele>222.0</ele><time>2026-05-02T09:29:58.25Z</time></trkpt><trkpt lat="43.2706713" lon="11.3562402"><ele>220.0</ele><time>2026-05-02T09:29:59.249Z</time></trkpt><trkpt lat="43.270597" lon="11.3561622"><ele>218.0</ele><time>2026-05-02T09:30:00.25Z</time></trkpt><trkpt lat="43.2705255" lon="11.3560883"><ele>216.0</ele><time>2026-05-02T09:30:01.25Z</time></trkpt><trkpt lat="43.2704563" lon="11.3560235"><ele>214.0</ele><time>2026-05-02T09:30:02.249Z</time></trkpt><trkpt lat="43.2703862" lon="11.3559712"><ele>212.0</ele><time>2026-05-02T09:30:03.249Z</time></trkpt><trkpt lat="43.2703112" lon="11.3559338"><ele>210.0</ele><time>2026-05-02T09:30:04.25Z</time></trkpt><trkpt lat="43.2702255" lon="11.355912"><ele>210.0</ele><time>2026-05-02T09:30:05.251Z</time></trkpt><trkpt lat="43.270134" lon="11.3559047"><ele>210.0</ele><time>2026-05-02T09:30:06.248Z</time></trkpt><trkpt lat="43.2700407" lon="11.3559082"><ele>210.0</ele><time>2026-05-02T09:30:07.247Z</time></trkpt><trkpt lat="43.2699458" lon="11.355917"><ele>210.0</ele><time>2026-05-02T09:30:08.248Z</time></trkpt><trkpt lat="43.2698502" lon="11.3559327"><ele>210.0</ele><time>2026-05-02T09:30:09.248Z</time></trkpt><trkpt lat="43.2697537" lon="11.35596"><ele>207.6</ele><time>2026-05-02T09:30:10.248Z</time></trkpt><trkpt lat="43.2696568" lon="11.3560023"><ele>205.2</ele><time>2026-05-02T09:30:11.25Z</time></trkpt><trkpt lat="43.269564" lon="11.3560622"><ele>202.8</ele><time>2026-05-02T09:30:12.25Z</time></trkpt><trkpt lat="43.269473" lon="11.3561382"><ele>200.4</ele><time>2026-05-02T09:30:13.251Z</time></trkpt><trkpt lat="43.2693847" lon="11.3562218"><ele>198.0</ele><time>2026-05-02T09:30:14.25Z</time></trkpt><trkpt lat="43.2693038" lon="11.3563152"><ele>198.8</ele><time>2026-05-02T09:30:15.251Z</time></trkpt><trkpt lat="43.2692302" lon="11.3564187"><ele>199.60000000000002</ele><time>2026-05-02T09:30:16.252Z</time></trkpt><trkpt lat="43.2691633" lon="11.3565307"><ele>200.39999999999998</ele><time>2026-05-02T09:30:17.251Z</time></trkpt><trkpt lat="43.2691037" lon="11.3566498"><ele>201.2</ele><time>2026-05-02T09:30:18.252Z</time></trkpt><trkpt lat="43.2690528" lon="11.3567752"><ele>202.0</ele><time>2026-05-02T09:30:19.251Z</time></trkpt><trkpt lat="43.2690127" lon="11.3569057"><ele>202.0</ele><time>2026-05-02T09:30:20.252Z</time></trkpt><trkpt lat="43.2689823" lon="11.3570422"><ele>202.0</ele><time>2026-05-02T09:30:21.252Z</time></trkpt><trkpt lat="43.268962" lon="11.357187"><ele>202.0</ele><time>2026-05-02T09:30:22.252Z</time></trkpt><trkpt lat="43.2689512" lon="11.3573393"><ele>202.0</ele><time>2026-05-02T09:30:23.253Z</time></trkpt><trkpt lat="43.268946" lon="11.3574975"><ele>202.0</ele><time>2026-05-02T09:30:24.252Z</time></trkpt><trkpt lat="43.2689432" lon="11.3576597"><ele>198.75</ele><time>2026-05-02T09:30:25.251Z</time></trkpt><trkpt lat="43.26894" lon="11.3578238"><ele>195.5</ele><time>2026-05-02T09:30:26.252Z</time></trkpt><trkpt lat="43.2689365" lon="11.3579895"><ele>192.25</ele><time>2026-05-02T09:30:27.252Z</time></trkpt><trkpt lat="43.2689292" lon="11.3581573"><ele>189.0</ele><time>2026-05-02T09:30:28.251Z</time></trkpt><trkpt lat="43.2689133" lon="11.3583182"><ele>189.0</ele><time>2026-05-02T09:30:29.251Z</time></trkpt><trkpt lat="43.2688862" lon="11.358468"><ele>189.0</ele><time>2026-05-02T09:30:30.252Z</time></trkpt><trkpt lat="43.26885" lon="11.3586057"><ele>189.0</ele><time>2026-05-02T09:30:31.249Z</time></trkpt><trkpt lat="43.268809" lon="11.3587327"><ele>189.0</ele><time>2026-05-02T09:30:32.25Z</time></trkpt><trkpt lat="43.2687608" lon="11.3588492"><ele>189.0</ele><time>2026-05-02T09:30:33.249Z</time></trkpt><trkpt lat="43.2686998" lon="11.3589593"><ele>189.2</ele><time>2026-05-02T09:30:34.249Z</time></trkpt><trkpt lat="43.2686247" lon="11.3590617"><ele>189.39999999999998</ele><time>2026-05-02T09:30:35.252Z</time></trkpt><trkpt lat="43.268537" lon="11.359153"><ele>189.6</ele><time>2026-05-02T09:30:36.252Z</time></trkpt><trkpt lat="43.2684388" lon="11.359233"><ele>189.8</ele><time>2026-05-02T09:30:37.252Z</time></trkpt><trkpt lat="43.2683322" lon="11.3593013"><ele>190.0</ele><time>2026-05-02T09:30:38.252Z</time></trkpt><trkpt lat="43.2682205" lon="11.3593545"><ele>189.0</ele><time>2026-05-02T09:30:39.252Z</time></trkpt><trkpt lat="43.2681062" lon="11.3593902"><ele>188.0</ele><time>2026-05-02T09:30:40.249Z</time></trkpt><trkpt lat="43.267991" lon="11.3594033"><ele>187.0</ele><time>2026-05-02T09:30:41.25Z</time></trkpt><trkpt lat="43.2678768" lon="11.3593908"><ele>186.0</ele><time>2026-05-02T09:30:42.249Z</time></trkpt><trkpt lat="43.2677647" lon="11.3593602"><ele>186.0</ele><time>2026-05-02T09:30:43.252Z</time></trkpt><trkpt lat="43.267656" lon="11.3593228"><ele>186.0</ele><time>2026-05-02T09:30:44.252Z</time></trkpt><trkpt lat="43.2675515" lon="11.3592818"><ele>186.0</ele><time>2026-05-02T09:30:45.252Z</time></trkpt><trkpt lat="43.2674487" lon="11.3592383"><ele>186.0</ele><time>2026-05-02T09:30:46.251Z</time></trkpt><trkpt lat="43.2673467" lon="11.359192"><ele>186.0</ele><time>2026-05-02T09:30:47.251Z</time></trkpt><trkpt lat="43.267244" lon="11.359146"><ele>185.8</ele><time>2026-05-02T09:30:48.251Z</time></trkpt><trkpt lat="43.26714" lon="11.3591042"><ele>185.60000000000002</ele><time>2026-05-02T09:30:49.251Z</time></trkpt><trkpt lat="43.267035" lon="11.3590622"><ele>185.4</ele><time>2026-05-02T09:30:50.253Z</time></trkpt><trkpt lat="43.2669292" lon="11.3590197"><ele>185.2</ele><time>2026-05-02T09:30:51.252Z</time></trkpt><trkpt lat="43.2668233" lon="11.3589782"><ele>185.0</ele><time>2026-05-02T09:30:52.252Z</time></trkpt><trkpt lat="43.2667185" lon="11.3589353"><ele>185.0</ele><time>2026-05-02T09:30:53.252Z</time></trkpt><trkpt lat="43.2666172" lon="11.3588863"><ele>185.0</ele><time>2026-05-02T09:30:54.253Z</time></trkpt><trkpt lat="43.2665162" lon="11.3588367"><ele>185.0</ele><time>2026-05-02T09:30:55.251Z</time></trkpt><trkpt lat="43.2664117" lon="11.3587927"><ele>185.0</ele><time>2026-05-02T09:30:56.25Z</time></trkpt><trkpt lat="43.2662957" lon="11.358746"><ele>185.0</ele><time>2026-05-02T09:30:57.248Z</time></trkpt><trkpt lat="43.266166" lon="11.3586972"><ele>185.0</ele><time>2026-05-02T09:30:58.249Z</time></trkpt><trkpt lat="43.2660407" lon="11.3586443"><ele>185.0</ele><time>2026-05-02T09:30:59.251Z</time></trkpt><trkpt lat="43.2659168" lon="11.3585932"><ele>185.0</ele><time>2026-05-02T09:31:00.249Z</time></trkpt><trkpt lat="43.265791" lon="11.3585413"><ele>185.0</ele><time>2026-05-02T09:31:01.249Z</time></trkpt><trkpt lat="43.265662" lon="11.3584908"><ele>184.75</ele><time>2026-05-02T09:31:02.25Z</time></trkpt><trkpt lat="43.2655348" lon="11.3584348"><ele>184.5</ele><time>2026-05-02T09:31:03.249Z</time></trkpt><trkpt lat="43.2654117" lon="11.3583808"><ele>184.25</ele><time>2026-05-02T09:31:04.249Z</time></trkpt><trkpt lat="43.2652928" lon="11.3583278"><ele>184.0</ele><time>2026-05-02T09:31:05.25Z</time></trkpt><trkpt lat="43.265179" lon="11.3582793"><ele>184.0</ele><time>2026-05-02T09:31:06.252Z</time></trkpt><trkpt lat="43.2650728" lon="11.3582392"><ele>184.0</ele><time>2026-05-02T09:31:07.252Z</time></trkpt><trkpt lat="43.2649728" lon="11.358216"><ele>184.0</ele><time>2026-05-02T09:31:08.254Z</time></trkpt><trkpt lat="43.2648765" lon="11.358219"><ele>184.0</ele><time>2026-05-02T09:31:09.252Z</time></trkpt><trkpt lat="43.2647828" lon="11.3582457"><ele>184.0</ele><time>2026-05-02T09:31:10.251Z</time></trkpt><trkpt lat="43.2646907" lon="11.3582953"><ele>184.0</ele><time>2026-05-02T09:31:11.253Z</time></trkpt><trkpt lat="43.2646063" lon="11.358375"><ele>184.0</ele><time>2026-05-02T09:31:12.251Z</time></trkpt><trkpt lat="43.2645378" lon="11.3584817"><ele>184.0</ele><time>2026-05-02T09:31:13.252Z</time></trkpt><trkpt lat="43.2644712" lon="11.3586097"><ele>184.0</ele><time>2026-05-02T09:31:14.25Z</time></trkpt><trkpt lat="43.2643985" lon="11.3587435"><ele>184.0</ele><time>2026-05-02T09:31:15.249Z</time></trkpt><trkpt lat="43.264319" lon="11.3588817"><ele>184.0</ele><time>2026-05-02T09:31:16.25Z</time></trkpt><trkpt lat="43.2642395" lon="11.3590103"><ele>184.0</ele><time>2026-05-02T09:31:17.252Z</time></trkpt><trkpt lat="43.2641527" lon="11.3591238"><ele>184.0</ele><time>2026-05-02T09:31:18.249Z</time></trkpt><trkpt lat="43.2640523" lon="11.3592288"><ele>184.0</ele><time>2026-05-02T09:31:19.251Z</time></trkpt><trkpt lat="43.2639382" lon="11.3593243"><ele>183.75</ele><time>2026-05-02T09:31:20.249Z</time></trkpt><trkpt lat="43.2638168" lon="11.359409"><ele>183.5</ele><time>2026-05-02T09:31:21.249Z</time></trkpt><trkpt lat="43.2636925" lon="11.3594912"><ele>183.25</ele><time>2026-05-02T09:31:22.249Z</time></trkpt><trkpt lat="43.2635718" lon="11.3595782"><ele>183.0</ele><time>2026-05-02T09:31:23.25Z</time></trkpt><trkpt lat="43.2634547" lon="11.3596752"><ele>182.75</ele><time>2026-05-02T09:31:24.25Z</time></trkpt><trkpt lat="43.2633398" lon="11.3597827"><ele>182.5</ele><time>2026-05-02T09:31:25.252Z</time></trkpt><trkpt lat="43.263226" lon="11.3598947"><ele>182.25</ele><time>2026-05-02T09:31:26.251Z</time></trkpt><trkpt lat="43.2631122" lon="11.3600083"><ele>182.0</ele><time>2026-05-02T09:31:27.25Z</time></trkpt><trkpt lat="43.263" lon="11.3601293"><ele>182.25</ele><time>2026-05-02T09:31:28.249Z</time></trkpt><trkpt lat="43.2628883" lon="11.3602537"><ele>182.5</ele><time>2026-05-02T09:31:29.249Z</time></trkpt><trkpt lat="43.2627755" lon="11.3603807"><ele>182.75</ele><time>2026-05-02T09:31:30.249Z</time></trkpt><trkpt lat="43.2626635" lon="11.3605085"><ele>183.0</ele><time>2026-05-02T09:31:31.249Z</time></trkpt><trkpt lat="43.2625553" lon="11.3606407"><ele>183.0</ele><time>2026-05-02T09:31:32.25Z</time></trkpt><trkpt lat="43.2624483" lon="11.3607778"><ele>183.0</ele><time>2026-05-02T09:31:33.249Z</time></trkpt><trkpt lat="43.262344" lon="11.360913"><ele>183.0</ele><time>2026-05-02T09:31:34.251Z</time></trkpt><trkpt lat="43.2622465" lon="11.3610397"><ele>183.0</ele><time>2026-05-02T09:31:35.255Z</time></trkpt><trkpt lat="43.2621503" lon="11.361161"><ele>182.75</ele><time>2026-05-02T09:31:36.251Z</time></trkpt><trkpt lat="43.262046" lon="11.3612773"><ele>182.5</ele><time>2026-05-02T09:31:37.256Z</time></trkpt><trkpt lat="43.261933" lon="11.3613842"><ele>182.25</ele><time>2026-05-02T09:31:38.252Z</time></trkpt><trkpt lat="43.2618188" lon="11.3614825"><ele>182.0</ele><time>2026-05-02T09:31:39.25Z</time></trkpt><trkpt lat="43.2617122" lon="11.3615663"><ele>182.0</ele><time>2026-05-02T09:31:40.252Z</time></trkpt><trkpt lat="43.2616135" lon="11.3616345"><ele>182.0</ele><time>2026-05-02T09:31:41.252Z</time></trkpt><trkpt lat="43.2615262" lon="11.361691"><ele>182.0</ele><time>2026-05-02T09:31:42.249Z</time></trkpt><trkpt lat="43.2614473" lon="11.3617438"><ele>182.0</ele><time>2026-05-02T09:31:43.251Z</time></trkpt><trkpt lat="43.2613698" lon="11.361796"><ele>182.0</ele><time>2026-05-02T09:31:44.249Z</time></trkpt><trkpt lat="43.2612828" lon="11.3618455"><ele>182.0</ele><time>2026-05-02T09:31:45.249Z</time></trkpt><trkpt lat="43.2611828" lon="11.3618863"><ele>182.0</ele><time>2026-05-02T09:31:46.248Z</time></trkpt><trkpt lat="43.2610718" lon="11.3619163"><ele>182.0</ele><time>2026-05-02T09:31:47.248Z</time></trkpt><trkpt lat="43.2609523" lon="11.361941"><ele>182.0</ele><time>2026-05-02T09:31:48.248Z</time></trkpt><trkpt lat="43.2608303" lon="11.3619615"><ele>182.0</ele><time>2026-05-02T09:31:49.248Z</time></trkpt><trkpt lat="43.2607008" lon="11.3619668"><ele>182.0</ele><time>2026-05-02T09:31:50.249Z</time></trkpt><trkpt lat="43.2605633" lon="11.3619502"><ele>182.0</ele><time>2026-05-02T09:31:51.25Z</time></trkpt><trkpt lat="43.2604207" lon="11.3619167"><ele>182.0</ele><time>2026-05-02T09:31:52.251Z</time></trkpt><trkpt lat="43.2602747" lon="11.3618777"><ele>183.0</ele><time>2026-05-02T09:31:53.252Z</time></trkpt><trkpt lat="43.2601253" lon="11.3618357"><ele>184.0</ele><time>2026-05-02T09:31:54.249Z</time></trkpt><trkpt lat="43.259977" lon="11.3617903"><ele>185.0</ele><time>2026-05-02T09:31:55.251Z</time></trkpt><trkpt lat="43.259829" lon="11.3617418"><ele>187.66666666666666</ele><time>2026-05-02T09:31:56.251Z</time></trkpt><trkpt lat="43.2596813" lon="11.3616895"><ele>190.33333333333331</ele><time>2026-05-02T09:31:57.251Z</time></trkpt><trkpt lat="43.259537" lon="11.3616267"><ele>193.0</ele><time>2026-05-02T09:31:58.25Z</time></trkpt><trkpt lat="43.2594002" lon="11.3615532"><ele>193.0</ele><time>2026-05-02T09:31:59.251Z</time></trkpt><trkpt lat="43.2592635" lon="11.3614805"><ele>193.0</ele><time>2026-05-02T09:32:00.25Z</time></trkpt><trkpt lat="43.2591262" lon="11.36141"><ele>193.0</ele><time>2026-05-02T09:32:01.249Z</time></trkpt><trkpt lat="43.2589892" lon="11.3613355"><ele>193.0</ele><time>2026-05-02T09:32:02.251Z</time></trkpt><trkpt lat="43.2588587" lon="11.3612423"><ele>193.66666666666666</ele><time>2026-05-02T09:32:03.251Z</time></trkpt><trkpt lat="43.2587322" lon="11.3611358"><ele>194.33333333333331</ele><time>2026-05-02T09:32:04.25Z</time></trkpt><trkpt lat="43.2586052" lon="11.3610217"><ele>195.0</ele><time>2026-05-02T09:32:05.253Z</time></trkpt><trkpt lat="43.2584793" lon="11.3609043"><ele>195.0</ele><time>2026-05-02T09:32:06.25Z</time></trkpt><trkpt lat="43.2583513" lon="11.360787"><ele>195.0</ele><time>2026-05-02T09:32:07.25Z</time></trkpt><trkpt lat="43.2582275" lon="11.3606717"><ele>195.0</ele><time>2026-05-02T09:32:08.25Z</time></trkpt><trkpt lat="43.2581127" lon="11.3605627"><ele>195.0</ele><time>2026-05-02T09:32:09.247Z</time></trkpt><trkpt lat="43.2579927" lon="11.3604657"><ele>195.0</ele><time>2026-05-02T09:32:10.247Z</time></trkpt><trkpt lat="43.2578653" lon="11.3603843"><ele>195.0</ele><time>2026-05-02T09:32:11.249Z</time></trkpt><trkpt lat="43.2577303" lon="11.3603168"><ele>195.0</ele><time>2026-05-02T09:32:12.248Z</time></trkpt><trkpt lat="43.2575888" lon="11.3602548"><ele>195.0</ele><time>2026-05-02T09:32:13.25Z</time></trkpt><trkpt lat="43.2574467" lon="11.3601948"><ele>195.0</ele><time>2026-05-02T09:32:14.251Z</time></trkpt><trkpt lat="43.2573083" lon="11.3601438"><ele>195.0</ele><time>2026-05-02T09:32:15.25Z</time></trkpt><trkpt lat="43.2571677" lon="11.3601083"><ele>195.0</ele><time>2026-05-02T09:32:16.251Z</time></trkpt><trkpt lat="43.2570205" lon="11.3600858"><ele>195.0</ele><time>2026-05-02T09:32:17.253Z</time></trkpt><trkpt lat="43.2568675" lon="11.3600787"><ele>196.33333333333331</ele><time>2026-05-02T09:32:18.251Z</time></trkpt><trkpt lat="43.2567102" lon="11.3600887"><ele>197.66666666666666</ele><time>2026-05-02T09:32:19.252Z</time></trkpt><trkpt lat="43.2565508" lon="11.360112"><ele>199.0</ele><time>2026-05-02T09:32:20.252Z</time></trkpt><trkpt lat="43.2563933" lon="11.3601438"><ele>200.33333333333331</ele><time>2026-05-02T09:32:21.252Z</time></trkpt><trkpt lat="43.2562417" lon="11.3601868"><ele>201.66666666666669</ele><time>2026-05-02T09:32:22.253Z</time></trkpt><trkpt lat="43.2560992" lon="11.3602498"><ele>203.0</ele><time>2026-05-02T09:32:23.254Z</time></trkpt><trkpt lat="43.25596" lon="11.3603368"><ele>203.0</ele><time>2026-05-02T09:32:24.252Z</time></trkpt><trkpt lat="43.2558208" lon="11.3604392"><ele>203.0</ele><time>2026-05-02T09:32:25.252Z</time></trkpt><trkpt lat="43.2556772" lon="11.3605425"><ele>203.0</ele><time>2026-05-02T09:32:26.254Z</time></trkpt><trkpt lat="43.2555317" lon="11.36064"><ele>205.75</ele><time>2026-05-02T09:32:27.253Z</time></trkpt><trkpt lat="43.255399" lon="11.360738"><ele>208.5</ele><time>2026-05-02T09:32:28.251Z</time></trkpt><trkpt lat="43.2552808" lon="11.3608505"><ele>211.25</ele><time>2026-05-02T09:32:29.253Z</time></trkpt><trkpt lat="43.2551723" lon="11.360986"><ele>214.0</ele><time>2026-05-02T09:32:30.251Z</time></trkpt><trkpt lat="43.2550712" lon="11.361142"><ele>214.0</ele><time>2026-05-02T09:32:31.252Z</time></trkpt><trkpt lat="43.2549738" lon="11.3613085"><ele>214.0</ele><time>2026-05-02T09:32:32.252Z</time></trkpt><trkpt lat="43.2548812" lon="11.36148"><ele>214.0</ele><time>2026-05-02T09:32:33.251Z</time></trkpt><trkpt lat="43.2547973" lon="11.3616532"><ele>216.75</ele><time>2026-05-02T09:32:34.248Z</time></trkpt><trkpt lat="43.2547162" lon="11.3618138"><ele>219.5</ele><time>2026-05-02T09:32:35.249Z</time></trkpt><trkpt lat="43.2546227" lon="11.3619577"><ele>222.25</ele><time>2026-05-02T09:32:36.252Z</time></trkpt><trkpt lat="43.2545152" lon="11.3620805"><ele>225.0</ele><time>2026-05-02T09:32:37.256Z</time></trkpt><trkpt lat="43.2544035" lon="11.3621782"><ele>223.75</ele><time>2026-05-02T09:32:38.253Z</time></trkpt><trkpt lat="43.2542952" lon="11.3622497"><ele>222.5</ele><time>2026-05-02T09:32:39.253Z</time></trkpt><trkpt lat="43.254188" lon="11.3623002"><ele>221.25</ele><time>2026-05-02T09:32:40.251Z</time></trkpt><trkpt lat="43.2540745" lon="11.3623357"><ele>220.0</ele><time>2026-05-02T09:32:41.253Z</time></trkpt><trkpt lat="43.2539588" lon="11.3623578"><ele>221.25</ele><time>2026-05-02T09:32:42.252Z</time></trkpt><trkpt lat="43.2538388" lon="11.3623705"><ele>222.5</ele><time>2026-05-02T09:32:43.251Z</time></trkpt><trkpt lat="43.2537115" lon="11.362387"><ele>223.75</ele><time>2026-05-02T09:32:44.252Z</time></trkpt><trkpt lat="43.2535805" lon="11.3624098"><ele>225.0</ele><time>2026-05-02T09:32:45.255Z</time></trkpt><trkpt lat="43.2534443" lon="11.362446"><ele>225.0</ele><time>2026-05-02T09:32:46.251Z</time></trkpt><trkpt lat="43.2533043" lon="11.3624943"><ele>225.0</ele><time>2026-05-02T09:32:47.252Z</time></trkpt><trkpt lat="43.2531645" lon="11.3625535"><ele>225.0</ele><time>2026-05-02T09:32:48.251Z</time></trkpt><trkpt lat="43.2530222" lon="11.3626215"><ele>225.0</ele><time>2026-05-02T09:32:49.253Z</time></trkpt><trkpt lat="43.2528798" lon="11.3626975"><ele>225.75</ele><time>2026-05-02T09:32:50.251Z</time></trkpt><trkpt lat="43.252747" lon="11.3627743"><ele>226.5</ele><time>2026-05-02T09:32:51.251Z</time></trkpt><trkpt lat="43.2526312" lon="11.362844"><ele>227.25</ele><time>2026-05-02T09:32:52.252Z</time></trkpt><trkpt lat="43.252536" lon="11.3629107"><ele>228.0</ele><time>2026-05-02T09:32:53.254Z</time></trkpt><trkpt lat="43.2524603" lon="11.3629758"><ele>229.0</ele><time>2026-05-02T09:32:54.253Z</time></trkpt><trkpt lat="43.2524012" lon="11.3630333"><ele>230.0</ele><time>2026-05-02T09:32:55.252Z</time></trkpt><trkpt lat="43.2523153" lon="11.3631205"><ele>231.0</ele><time>2026-05-02T09:32:57.254Z</time></trkpt><trkpt lat="43.2522578" lon="11.3631897"><ele>232.0</ele><time>2026-05-02T09:35:14.253Z</time></trkpt><trkpt lat="43.252187" lon="11.3632705"><ele>233.0</ele><time>2026-05-02T09:35:16.252Z</time></trkpt><trkpt lat="43.2520898" lon="11.3633717"><ele>233.0</ele><time>2026-05-02T09:35:18.253Z</time></trkpt><trkpt lat="43.2520278" lon="11.3634317"><ele>233.0</ele><time>2026-05-02T09:35:19.252Z</time></trkpt><trkpt lat="43.2519582" lon="11.3634895"><ele>233.0</ele><time>2026-05-02T09:35:20.251Z</time></trkpt><trkpt lat="43.2518768" lon="11.3635403"><ele>233.0</ele><time>2026-05-02T09:35:21.251Z</time></trkpt><trkpt lat="43.2517813" lon="11.36358"><ele>233.0</ele><time>2026-05-02T09:35:22.249Z</time></trkpt><trkpt lat="43.2516747" lon="11.3636062"><ele>233.0</ele><time>2026-05-02T09:35:23.251Z</time></trkpt><trkpt lat="43.2515627" lon="11.363615"><ele>233.0</ele><time>2026-05-02T09:35:24.253Z</time></trkpt><trkpt lat="43.25145" lon="11.3636045"><ele>233.0</ele><time>2026-05-02T09:35:25.25Z</time></trkpt><trkpt lat="43.2513318" lon="11.363576"><ele>233.0</ele><time>2026-05-02T09:35:26.25Z</time></trkpt><trkpt lat="43.2512057" lon="11.3635332"><ele>231.0</ele><time>2026-05-02T09:35:27.248Z</time></trkpt><trkpt lat="43.2510697" lon="11.3634797"><ele>229.0</ele><time>2026-05-02T09:35:28.251Z</time></trkpt><trkpt lat="43.2509252" lon="11.3634208"><ele>227.0</ele><time>2026-05-02T09:35:29.253Z</time></trkpt><trkpt lat="43.250775" lon="11.3633613"><ele>225.0</ele><time>2026-05-02T09:35:30.253Z</time></trkpt><trkpt lat="43.2506242" lon="11.36331"><ele>224.33333333333331</ele><time>2026-05-02T09:35:31.253Z</time></trkpt><trkpt lat="43.2504695" lon="11.3632692"><ele>223.66666666666666</ele><time>2026-05-02T09:35:32.253Z</time></trkpt><trkpt lat="43.2503148" lon="11.3632322"><ele>223.0</ele><time>2026-05-02T09:35:33.251Z</time></trkpt><trkpt lat="43.2501687" lon="11.3631915"><ele>223.0</ele><time>2026-05-02T09:35:34.253Z</time></trkpt><trkpt lat="43.2500312" lon="11.3631473"><ele>223.0</ele><time>2026-05-02T09:35:35.253Z</time></trkpt><trkpt lat="43.2499023" lon="11.3631042"><ele>223.0</ele><time>2026-05-02T09:35:36.253Z</time></trkpt><trkpt lat="43.2497743" lon="11.363072"><ele>223.0</ele><time>2026-05-02T09:35:37.252Z</time></trkpt><trkpt lat="43.2496422" lon="11.3630582"><ele>224.25</ele><time>2026-05-02T09:35:38.253Z</time></trkpt><trkpt lat="43.2495118" lon="11.3630713"><ele>225.5</ele><time>2026-05-02T09:35:39.253Z</time></trkpt><trkpt lat="43.2493825" lon="11.3631165"><ele>226.75</ele><time>2026-05-02T09:35:40.252Z</time></trkpt><trkpt lat="43.2492552" lon="11.3631908"><ele>228.0</ele><time>2026-05-02T09:35:41.25Z</time></trkpt><trkpt lat="43.2491337" lon="11.3632912"><ele>228.0</ele><time>2026-05-02T09:35:42.253Z</time></trkpt><trkpt lat="43.2490215" lon="11.3634087"><ele>228.0</ele><time>2026-05-02T09:35:43.252Z</time></trkpt><trkpt lat="43.2489177" lon="11.3635403"><ele>228.0</ele><time>2026-05-02T09:35:44.253Z</time></trkpt><trkpt lat="43.2488113" lon="11.3636935"><ele>228.0</ele><time>2026-05-02T09:35:45.251Z</time></trkpt><trkpt lat="43.2487033" lon="11.3638548"><ele>227.75</ele><time>2026-05-02T09:35:46.254Z</time></trkpt><trkpt lat="43.2485992" lon="11.3640028"><ele>227.5</ele><time>2026-05-02T09:35:47.252Z</time></trkpt><trkpt lat="43.2485" lon="11.3641362"><ele>227.25</ele><time>2026-05-02T09:35:48.251Z</time></trkpt><trkpt lat="43.2484137" lon="11.3642595"><ele>227.0</ele><time>2026-05-02T09:35:49.252Z</time></trkpt><trkpt lat="43.248345" lon="11.3643808"><ele>227.0</ele><time>2026-05-02T09:35:50.25Z</time></trkpt><trkpt lat="43.2482968" lon="11.3645067"><ele>227.0</ele><time>2026-05-02T09:35:51.249Z</time></trkpt><trkpt lat="43.2482705" lon="11.3646458"><ele>227.0</ele><time>2026-05-02T09:35:52.249Z</time></trkpt><trkpt lat="43.248263" lon="11.3648047"><ele>227.0</ele><time>2026-05-02T09:35:53.251Z</time></trkpt><trkpt lat="43.2482637" lon="11.3649757"><ele>227.0</ele><time>2026-05-02T09:35:54.253Z</time></trkpt><trkpt lat="43.2482573" lon="11.3651437"><ele>227.2</ele><time>2026-05-02T09:35:55.252Z</time></trkpt><trkpt lat="43.2482347" lon="11.3652925"><ele>227.39999999999998</ele><time>2026-05-02T09:35:56.252Z</time></trkpt><trkpt lat="43.2481925" lon="11.365425"><ele>227.60000000000002</ele><time>2026-05-02T09:35:57.252Z</time></trkpt><trkpt lat="43.2481308" lon="11.3655495"><ele>227.8</ele><time>2026-05-02T09:35:58.254Z</time></trkpt><trkpt lat="43.2480555" lon="11.3656705"><ele>228.0</ele><time>2026-05-02T09:35:59.252Z</time></trkpt><trkpt lat="43.2479717" lon="11.3657845"><ele>226.75</ele><time>2026-05-02T09:36:00.253Z</time></trkpt><trkpt lat="43.24788" lon="11.3658853"><ele>225.5</ele><time>2026-05-02T09:36:01.252Z</time></trkpt><trkpt lat="43.247781" lon="11.3659645"><ele>224.25</ele><time>2026-05-02T09:36:02.253Z</time></trkpt><trkpt lat="43.247673" lon="11.3660178"><ele>223.0</ele><time>2026-05-02T09:36:03.252Z</time></trkpt><trkpt lat="43.2475572" lon="11.3660527"><ele>223.0</ele><time>2026-05-02T09:36:04.252Z</time></trkpt><trkpt lat="43.247437" lon="11.366081"><ele>223.0</ele><time>2026-05-02T09:36:05.251Z</time></trkpt><trkpt lat="43.2473103" lon="11.3661092"><ele>223.0</ele><time>2026-05-02T09:36:06.251Z</time></trkpt><trkpt lat="43.247173" lon="11.3661418"><ele>223.0</ele><time>2026-05-02T09:36:07.254Z</time></trkpt><trkpt lat="43.2470267" lon="11.3661853"><ele>223.0</ele><time>2026-05-02T09:36:08.254Z</time></trkpt><trkpt lat="43.2468708" lon="11.366241"><ele>223.0</ele><time>2026-05-02T09:36:09.251Z</time></trkpt><trkpt lat="43.246717" lon="11.3663043"><ele>223.0</ele><time>2026-05-02T09:36:10.251Z</time></trkpt><trkpt lat="43.2465802" lon="11.366368"><ele>222.99999999999997</ele><time>2026-05-02T09:36:11.252Z</time></trkpt><trkpt lat="43.2464633" lon="11.3664285"><ele>223.0</ele><time>2026-05-02T09:36:12.251Z</time></trkpt><trkpt lat="43.246374" lon="11.3664803"><ele>223.0</ele><time>2026-05-02T09:36:13.252Z</time></trkpt><trkpt lat="43.2463105" lon="11.3665257"><ele>223.0</ele><time>2026-05-02T09:36:14.251Z</time></trkpt><trkpt lat="43.2462458" lon="11.3665743"><ele>222.99999999999997</ele><time>2026-05-02T09:36:16.249Z</time></trkpt><trkpt lat="43.2463017" lon="11.3665245"><ele>223.0</ele><time>2026-05-02T09:39:52.257Z</time></trkpt><trkpt lat="43.2464458" lon="11.366449"><ele>223.0</ele><time>2026-05-02T09:39:54.256Z</time></trkpt><trkpt lat="43.2465755" lon="11.3663892"><ele>223.0</ele><time>2026-05-02T09:39:55.253Z</time></trkpt><trkpt lat="43.2467253" lon="11.3663232"><ele>223.0</ele><time>2026-05-02T09:39:56.254Z</time></trkpt><trkpt lat="43.2468652" lon="11.3662653"><ele>223.0</ele><time>2026-05-02T09:39:57.255Z</time></trkpt><trkpt lat="43.2469963" lon="11.3662158"><ele>223.0</ele><time>2026-05-02T09:39:58.255Z</time></trkpt><trkpt lat="43.247143" lon="11.36617"><ele>223.0</ele><time>2026-05-02T09:39:59.254Z</time></trkpt><trkpt lat="43.247316" lon="11.366124"><ele>223.0</ele><time>2026-05-02T09:40:00.255Z</time></trkpt><trkpt lat="43.2474935" lon="11.3660858"><ele>223.0</ele><time>2026-05-02T09:40:01.257Z</time></trkpt><trkpt lat="43.247644" lon="11.3660475"><ele>223.0</ele><time>2026-05-02T09:40:02.257Z</time></trkpt><trkpt lat="43.2477713" lon="11.3659853"><ele>223.0</ele><time>2026-05-02T09:40:03.257Z</time></trkpt><trkpt lat="43.2478833" lon="11.365897"><ele>223.0</ele><time>2026-05-02T09:40:04.255Z</time></trkpt><trkpt lat="43.247984" lon="11.365784"><ele>223.0</ele><time>2026-05-02T09:40:05.258Z</time></trkpt><trkpt lat="43.2480782" lon="11.3656523"><ele>223.0</ele><time>2026-05-02T09:40:06.256Z</time></trkpt><trkpt lat="43.24815" lon="11.3655228"><ele>223.0</ele><time>2026-05-02T09:40:07.258Z</time></trkpt><trkpt lat="43.2482047" lon="11.3653853"><ele>223.0</ele><time>2026-05-02T09:40:08.259Z</time></trkpt><trkpt lat="43.2482403" lon="11.3652462"><ele>223.5</ele><time>2026-05-02T09:40:09.259Z</time></trkpt><trkpt lat="43.2482592" lon="11.3650892"><ele>224.0</ele><time>2026-05-02T09:40:10.257Z</time></trkpt><trkpt lat="43.2482643" lon="11.3649147"><ele>224.5</ele><time>2026-05-02T09:40:11.257Z</time></trkpt><trkpt lat="43.248268" lon="11.3647527"><ele>225.0</ele><time>2026-05-02T09:40:12.258Z</time></trkpt><trkpt lat="43.2482852" lon="11.364611"><ele>225.5</ele><time>2026-05-02T09:40:13.257Z</time></trkpt><trkpt lat="43.2483187" lon="11.364483"><ele>226.0</ele><time>2026-05-02T09:40:14.257Z</time></trkpt><trkpt lat="43.2483735" lon="11.3643558"><ele>226.5</ele><time>2026-05-02T09:40:15.259Z</time></trkpt><trkpt lat="43.2484557" lon="11.3642158"><ele>227.0</ele><time>2026-05-02T09:40:16.257Z</time></trkpt><trkpt lat="43.2485648" lon="11.3640545"><ele>227.0</ele><time>2026-05-02T09:40:17.257Z</time></trkpt><trkpt lat="43.2486698" lon="11.3639045"><ele>227.0</ele><time>2026-05-02T09:40:18.263Z</time></trkpt><trkpt lat="43.2487712" lon="11.3637592"><ele>227.0</ele><time>2026-05-02T09:40:19.254Z</time></trkpt><trkpt lat="43.2488668" lon="11.3636232"><ele>227.0</ele><time>2026-05-02T09:40:20.256Z</time></trkpt><trkpt lat="43.2490542" lon="11.3633828"><ele>227.25</ele><time>2026-05-02T09:40:22.254Z</time></trkpt><trkpt lat="43.2491613" lon="11.36328"><ele>227.5</ele><time>2026-05-02T09:40:23.255Z</time></trkpt><trkpt lat="43.2492755" lon="11.3631973"><ele>227.75</ele><time>2026-05-02T09:40:24.257Z</time></trkpt><trkpt lat="43.2494013" lon="11.3631362"><ele>228.0</ele><time>2026-05-02T09:40:25.256Z</time></trkpt><trkpt lat="43.249531" lon="11.3631017"><ele>228.0</ele><time>2026-05-02T09:40:26.255Z</time></trkpt><trkpt lat="43.2496635" lon="11.3630932"><ele>228.0</ele><time>2026-05-02T09:40:27.255Z</time></trkpt><trkpt lat="43.2497973" lon="11.3631105"><ele>228.0</ele><time>2026-05-02T09:40:28.255Z</time></trkpt><trkpt lat="43.2499388" lon="11.363144"><ele>228.0</ele><time>2026-05-02T09:40:29.255Z</time></trkpt><trkpt lat="43.2501037" lon="11.3631862"><ele>227.0</ele><time>2026-05-02T09:40:30.256Z</time></trkpt><trkpt lat="43.2503015" lon="11.363235"><ele>226.0</ele><time>2026-05-02T09:40:31.255Z</time></trkpt><trkpt lat="43.2505025" lon="11.3632862"><ele>225.0</ele><time>2026-05-02T09:40:32.257Z</time></trkpt><trkpt lat="43.2506857" lon="11.3633425"><ele>225.0</ele><time>2026-05-02T09:40:33.255Z</time></trkpt><trkpt lat="43.2508463" lon="11.3634008"><ele>225.0</ele><time>2026-05-02T09:40:34.258Z</time></trkpt><trkpt lat="43.2509858" lon="11.3634595"><ele>225.0</ele><time>2026-05-02T09:40:35.256Z</time></trkpt><trkpt lat="43.2511118" lon="11.3635137"><ele>225.0</ele><time>2026-05-02T09:40:36.256Z</time></trkpt><trkpt lat="43.2512327" lon="11.3635632"><ele>225.0</ele><time>2026-05-02T09:40:37.255Z</time></trkpt><trkpt lat="43.2513543" lon="11.3635993"><ele>225.0</ele><time>2026-05-02T09:40:38.256Z</time></trkpt><trkpt lat="43.2514758" lon="11.3636225"><ele>225.0</ele><time>2026-05-02T09:40:39.255Z</time></trkpt><trkpt lat="43.251583" lon="11.3636328"><ele>225.0</ele><time>2026-05-02T09:40:40.254Z</time></trkpt><trkpt lat="43.2516898" lon="11.3636262"><ele>226.6</ele><time>2026-05-02T09:40:41.252Z</time></trkpt><trkpt lat="43.2517832" lon="11.3635998"><ele>228.2</ele><time>2026-05-02T09:40:42.253Z</time></trkpt><trkpt lat="43.2518717" lon="11.3635525"><ele>229.8</ele><time>2026-05-02T09:40:43.254Z</time></trkpt><trkpt lat="43.2519585" lon="11.3634838"><ele>231.4</ele><time>2026-05-02T09:40:44.253Z</time></trkpt><trkpt lat="43.2520448" lon="11.363404"><ele>233.0</ele><time>2026-05-02T09:40:45.253Z</time></trkpt><trkpt lat="43.2521242" lon="11.3633268"><ele>233.0</ele><time>2026-05-02T09:40:46.253Z</time></trkpt><trkpt lat="43.2521983" lon="11.3632482"><ele>233.0</ele><time>2026-05-02T09:40:47.254Z</time></trkpt><trkpt lat="43.2522817" lon="11.3631572"><ele>233.0</ele><time>2026-05-02T09:40:48.255Z</time></trkpt><trkpt lat="43.2523672" lon="11.3630697"><ele>233.0</ele><time>2026-05-02T09:40:49.255Z</time></trkpt><trkpt lat="43.2524472" lon="11.3629968"><ele>233.0</ele><time>2026-05-02T09:40:50.256Z</time></trkpt><trkpt lat="43.2525258" lon="11.3629315"><ele>232.16666666666669</ele><time>2026-05-02T09:40:51.256Z</time></trkpt><trkpt lat="43.2526003" lon="11.3628748"><ele>231.33333333333334</ele><time>2026-05-02T09:40:52.255Z</time></trkpt><trkpt lat="43.2526768" lon="11.3628227"><ele>230.5</ele><time>2026-05-02T09:40:53.256Z</time></trkpt><trkpt lat="43.2527503" lon="11.3627777"><ele>229.66666666666669</ele><time>2026-05-02T09:40:54.255Z</time></trkpt><trkpt lat="43.2528158" lon="11.362743"><ele>228.83333333333334</ele><time>2026-05-02T09:40:55.253Z</time></trkpt><trkpt lat="43.252914" lon="11.3627213"><ele>228.0</ele><time>2026-05-02T09:40:58.254Z</time></trkpt><trkpt lat="43.2528252" lon="11.3627155"><ele>228.0</ele><time>2026-05-02T09:41:09.254Z</time></trkpt><trkpt lat="43.2527707" lon="11.3627588"><ele>228.0</ele><time>2026-05-02T09:41:10.254Z</time></trkpt><trkpt lat="43.2527" lon="11.3628078"><ele>228.0</ele><time>2026-05-02T09:41:11.255Z</time></trkpt><trkpt lat="43.2525968" lon="11.3628765"><ele>228.0</ele><time>2026-05-02T09:41:12.255Z</time></trkpt><trkpt lat="43.252484" lon="11.3629633"><ele>228.0</ele><time>2026-05-02T09:41:13.256Z</time></trkpt><trkpt lat="43.2523638" lon="11.3630757"><ele>229.25</ele><time>2026-05-02T09:41:14.256Z</time></trkpt><trkpt lat="43.2522573" lon="11.3631853"><ele>230.5</ele><time>2026-05-02T09:41:15.255Z</time></trkpt><trkpt lat="43.2521655" lon="11.3632872"><ele>231.75</ele><time>2026-05-02T09:41:16.254Z</time></trkpt><trkpt lat="43.252082" lon="11.3633758"><ele>233.0</ele><time>2026-05-02T09:41:17.255Z</time></trkpt><trkpt lat="43.2520043" lon="11.3634473"><ele>233.0</ele><time>2026-05-02T09:41:18.255Z</time></trkpt><trkpt lat="43.2519322" lon="11.3635012"><ele>233.0</ele><time>2026-05-02T09:41:19.257Z</time></trkpt><trkpt lat="43.2518673" lon="11.36354"><ele>233.0</ele><time>2026-05-02T09:41:20.255Z</time></trkpt><trkpt lat="43.2518023" lon="11.3635748"><ele>233.0</ele><time>2026-05-02T09:41:21.255Z</time></trkpt><trkpt lat="43.2517355" lon="11.3636038"><ele>233.0</ele><time>2026-05-02T09:41:22.258Z</time></trkpt><trkpt lat="43.2516638" lon="11.3636232"><ele>233.0</ele><time>2026-05-02T09:41:23.255Z</time></trkpt><trkpt lat="43.2515908" lon="11.3636312"><ele>233.0</ele><time>2026-05-02T09:41:24.259Z</time></trkpt><trkpt lat="43.251517" lon="11.3636287"><ele>231.4</ele><time>2026-05-02T09:41:25.255Z</time></trkpt><trkpt lat="43.2514323" lon="11.3636158"><ele>229.8</ele><time>2026-05-02T09:41:26.255Z</time></trkpt><trkpt lat="43.2513433" lon="11.3635927"><ele>228.2</ele><time>2026-05-02T09:41:27.255Z</time></trkpt><trkpt lat="43.2512528" lon="11.3635623"><ele>226.6</ele><time>2026-05-02T09:41:28.255Z</time></trkpt><trkpt lat="43.2511633" lon="11.3635268"><ele>225.0</ele><time>2026-05-02T09:41:29.258Z</time></trkpt><trkpt lat="43.2510732" lon="11.3634902"><ele>225.0</ele><time>2026-05-02T09:41:30.256Z</time></trkpt><trkpt lat="43.2509677" lon="11.3634512"><ele>225.0</ele><time>2026-05-02T09:41:31.257Z</time></trkpt><trkpt lat="43.2508437" lon="11.3634073"><ele>225.0</ele><time>2026-05-02T09:41:32.255Z</time></trkpt><trkpt lat="43.2507167" lon="11.3633645"><ele>225.0</ele><time>2026-05-02T09:41:33.254Z</time></trkpt><trkpt lat="43.2505843" lon="11.3633233"><ele>224.5</ele><time>2026-05-02T09:41:34.253Z</time></trkpt><trkpt lat="43.2504448" lon="11.363282"><ele>224.0</ele><time>2026-05-02T09:41:35.253Z</time></trkpt><trkpt lat="43.2503002" lon="11.3632353"><ele>223.5</ele><time>2026-05-02T09:41:36.253Z</time></trkpt><trkpt lat="43.2501507" lon="11.3631835"><ele>223.0</ele><time>2026-05-02T09:41:37.255Z</time></trkpt><trkpt lat="43.2500092" lon="11.3631363"><ele>223.0</ele><time>2026-05-02T09:41:38.256Z</time></trkpt><trkpt lat="43.2498662" lon="11.3630937"><ele>223.0</ele><time>2026-05-02T09:41:39.259Z</time></trkpt><trkpt lat="43.2497238" lon="11.3630697"><ele>223.0</ele><time>2026-05-02T09:41:40.255Z</time></trkpt><trkpt lat="43.2495827" lon="11.363067"><ele>223.0</ele><time>2026-05-02T09:41:41.255Z</time></trkpt><trkpt lat="43.2494423" lon="11.363097"><ele>224.66666666666666</ele><time>2026-05-02T09:41:42.257Z</time></trkpt><trkpt lat="43.2493052" lon="11.3631615"><ele>226.33333333333331</ele><time>2026-05-02T09:41:43.256Z</time></trkpt><trkpt lat="43.2491702" lon="11.3632595"><ele>228.0</ele><time>2026-05-02T09:41:44.255Z</time></trkpt><trkpt lat="43.24904" lon="11.363388"><ele>228.0</ele><time>2026-05-02T09:41:45.253Z</time></trkpt><trkpt lat="43.2489127" lon="11.3635473"><ele>228.0</ele><time>2026-05-02T09:41:46.255Z</time></trkpt><trkpt lat="43.248778" lon="11.363738"><ele>228.0</ele><time>2026-05-02T09:41:47.254Z</time></trkpt><trkpt lat="43.2486435" lon="11.3639292"><ele>227.75</ele><time>2026-05-02T09:41:48.254Z</time></trkpt><trkpt lat="43.2485242" lon="11.3640943"><ele>227.5</ele><time>2026-05-02T09:41:49.259Z</time></trkpt><trkpt lat="43.2484257" lon="11.3642385"><ele>227.25</ele><time>2026-05-02T09:41:50.257Z</time></trkpt><trkpt lat="43.2483497" lon="11.3643792"><ele>227.0</ele><time>2026-05-02T09:41:51.255Z</time></trkpt><trkpt lat="43.2482947" lon="11.3645363"><ele>226.5</ele><time>2026-05-02T09:41:52.256Z</time></trkpt><trkpt lat="43.2482678" lon="11.364706"><ele>226.0</ele><time>2026-05-02T09:41:53.255Z</time></trkpt><trkpt lat="43.2482615" lon="11.3648985"><ele>225.5</ele><time>2026-05-02T09:41:54.255Z</time></trkpt><trkpt lat="43.248258" lon="11.3650925"><ele>225.0</ele><time>2026-05-02T09:41:55.256Z</time></trkpt><trkpt lat="43.248235" lon="11.3652613"><ele>225.0</ele><time>2026-05-02T09:41:56.254Z</time></trkpt><trkpt lat="43.2481848" lon="11.3654208"><ele>225.0</ele><time>2026-05-02T09:41:57.252Z</time></trkpt><trkpt lat="43.248108" lon="11.365581"><ele>225.0</ele><time>2026-05-02T09:41:58.253Z</time></trkpt><trkpt lat="43.2480132" lon="11.3657282"><ele>225.0</ele><time>2026-05-02T09:41:59.253Z</time></trkpt><trkpt lat="43.2479075" lon="11.3658532"><ele>224.5</ele><time>2026-05-02T09:42:00.255Z</time></trkpt><trkpt lat="43.2477905" lon="11.3659542"><ele>224.0</ele><time>2026-05-02T09:42:01.255Z</time></trkpt><trkpt lat="43.2476687" lon="11.3660207"><ele>223.5</ele><time>2026-05-02T09:42:02.255Z</time></trkpt><trkpt lat="43.2475467" lon="11.3660595"><ele>223.0</ele><time>2026-05-02T09:42:03.255Z</time></trkpt><trkpt lat="43.24742" lon="11.3660935"><ele>222.33333333333331</ele><time>2026-05-02T09:42:04.254Z</time></trkpt><trkpt lat="43.2472817" lon="11.3661382"><ele>221.66666666666669</ele><time>2026-05-02T09:42:05.255Z</time></trkpt><trkpt lat="43.247132" lon="11.3661878"><ele>221.0</ele><time>2026-05-02T09:42:06.255Z</time></trkpt><trkpt lat="43.2469737" lon="11.366239"><ele>221.0</ele><time>2026-05-02T09:42:07.255Z</time></trkpt><trkpt lat="43.2468045" lon="11.3662947"><ele>221.0</ele><time>2026-05-02T09:42:08.255Z</time></trkpt><trkpt lat="43.2466297" lon="11.3663632"><ele>221.0</ele><time>2026-05-02T09:42:09.254Z</time></trkpt><trkpt lat="43.246472" lon="11.3664438"><ele>222.0</ele><time>2026-05-02T09:42:10.258Z</time></trkpt><trkpt lat="43.246332" lon="11.3665328"><ele>223.0</ele><time>2026-05-02T09:42:11.257Z</time></trkpt><trkpt lat="43.2461995" lon="11.366643"><ele>224.0</ele><time>2026-05-02T09:42:12.256Z</time></trkpt><trkpt lat="43.2460515" lon="11.3667917"><ele>224.0</ele><time>2026-05-02T09:42:13.256Z</time></trkpt><trkpt lat="43.24589" lon="11.3669627"><ele>224.0</ele><time>2026-05-02T09:42:14.255Z</time></trkpt><trkpt lat="43.2457222" lon="11.3671253"><ele>224.0</ele><time>2026-05-02T09:42:15.254Z</time></trkpt><trkpt lat="43.2455342" lon="11.3672692"><ele>222.0</ele><time>2026-05-02T09:42:16.255Z</time></trkpt><trkpt lat="43.2453263" lon="11.3673848"><ele>220.0</ele><time>2026-05-02T09:42:17.255Z</time></trkpt><trkpt lat="43.245092" lon="11.367479"><ele>220.0</ele><time>2026-05-02T09:42:18.255Z</time></trkpt><trkpt lat="43.2448387" lon="11.3675622"><ele>220.0</ele><time>2026-05-02T09:42:19.257Z</time></trkpt><trkpt lat="43.2446115" lon="11.3676313"><ele>221.0</ele><time>2026-05-02T09:42:20.256Z</time></trkpt><trkpt lat="43.2444142" lon="11.3676932"><ele>222.0</ele><time>2026-05-02T09:42:21.254Z</time></trkpt><trkpt lat="43.2442365" lon="11.3677507"><ele>223.0</ele><time>2026-05-02T09:42:22.254Z</time></trkpt><trkpt lat="43.2440747" lon="11.3678032"><ele>223.75</ele><time>2026-05-02T09:42:23.254Z</time></trkpt><trkpt lat="43.2439328" lon="11.367848"><ele>224.5</ele><time>2026-05-02T09:42:24.253Z</time></trkpt><trkpt lat="43.2438078" lon="11.367886"><ele>225.25</ele><time>2026-05-02T09:42:25.254Z</time></trkpt><trkpt lat="43.2436892" lon="11.3679197"><ele>226.0</ele><time>2026-05-02T09:42:26.256Z</time></trkpt><trkpt lat="43.2435767" lon="11.3679472"><ele>225.99999999999997</ele><time>2026-05-02T09:42:27.255Z</time></trkpt><trkpt lat="43.243476" lon="11.3679682"><ele>226.0</ele><time>2026-05-02T09:42:28.255Z</time></trkpt><trkpt lat="43.2433933" lon="11.3679785"><ele>226.0</ele><time>2026-05-02T09:42:29.255Z</time></trkpt><trkpt lat="43.2433272" lon="11.3679805"><ele>226.0</ele><time>2026-05-02T09:42:30.257Z</time></trkpt><trkpt lat="43.2432572" lon="11.3679763"><ele>225.99999999999997</ele><time>2026-05-02T09:42:32.257Z</time></trkpt><trkpt lat="43.2431912" lon="11.367917"><ele>226.0</ele><time>2026-05-02T09:42:39.253Z</time></trkpt><trkpt lat="43.2431738" lon="11.3678225"><ele>225.99999999999997</ele><time>2026-05-02T09:42:42.255Z</time></trkpt><trkpt lat="43.2432383" lon="11.36779"><ele>226.0</ele><time>2026-05-02T09:42:46.253Z</time></trkpt><trkpt lat="43.2432543" lon="11.3679217"><ele>226.0</ele><time>2026-05-02T09:42:49.255Z</time></trkpt><trkpt lat="43.2433095" lon="11.3680202"><ele>226.0</ele><time>2026-05-02T09:42:54.256Z</time></trkpt><trkpt lat="43.243411" lon="11.368016"><ele>225.99999999999997</ele><time>2026-05-02T09:42:56.255Z</time></trkpt><trkpt lat="43.2434843" lon="11.3680018"><ele>226.0</ele><time>2026-05-02T09:42:57.256Z</time></trkpt><trkpt lat="43.2435712" lon="11.3679828"><ele>225.99999999999997</ele><time>2026-05-02T09:42:58.257Z</time></trkpt><trkpt lat="43.2436468" lon="11.367964"><ele>226.0</ele><time>2026-05-02T09:42:59.256Z</time></trkpt><trkpt lat="43.243709" lon="11.3679472"><ele>226.0</ele><time>2026-05-02T09:43:00.259Z</time></trkpt><trkpt lat="43.2437875" lon="11.3679247"><ele>226.0</ele><time>2026-05-02T09:43:02.256Z</time></trkpt><trkpt lat="43.2438842" lon="11.3678852"><ele>225.99999999999997</ele><time>2026-05-02T09:43:16.255Z</time></trkpt><trkpt lat="43.243975" lon="11.3678512"><ele>226.0</ele><time>2026-05-02T09:43:17.256Z</time></trkpt><trkpt lat="43.2441137" lon="11.3678027"><ele>225.0</ele><time>2026-05-02T09:43:18.255Z</time></trkpt><trkpt lat="43.2442942" lon="11.3677388"><ele>224.0</ele><time>2026-05-02T09:43:19.254Z</time></trkpt><trkpt lat="43.2445153" lon="11.3676635"><ele>223.0</ele><time>2026-05-02T09:43:20.255Z</time></trkpt><trkpt lat="43.2447432" lon="11.36759"><ele>222.0</ele><time>2026-05-02T09:43:21.256Z</time></trkpt><trkpt lat="43.2449585" lon="11.3675228"><ele>221.0</ele><time>2026-05-02T09:43:22.258Z</time></trkpt><trkpt lat="43.2451593" lon="11.367457"><ele>220.0</ele><time>2026-05-02T09:43:23.256Z</time></trkpt><trkpt lat="43.2453507" lon="11.3673773"><ele>220.0</ele><time>2026-05-02T09:43:24.254Z</time></trkpt><trkpt lat="43.2455362" lon="11.3672708"><ele>220.0</ele><time>2026-05-02T09:43:25.255Z</time></trkpt><trkpt lat="43.2457102" lon="11.3671333"><ele>220.0</ele><time>2026-05-02T09:43:26.254Z</time></trkpt><trkpt lat="43.2458597" lon="11.3669907"><ele>221.0</ele><time>2026-05-02T09:43:27.257Z</time></trkpt><trkpt lat="43.245982" lon="11.3668618"><ele>222.0</ele><time>2026-05-02T09:43:28.258Z</time></trkpt><trkpt lat="43.2460845" lon="11.3667503"><ele>223.0</ele><time>2026-05-02T09:43:29.257Z</time></trkpt><trkpt lat="43.2461683" lon="11.3666667"><ele>224.0</ele><time>2026-05-02T09:43:30.255Z</time></trkpt><trkpt lat="43.2462273" lon="11.3666165"><ele>224.0</ele><time>2026-05-02T09:43:31.255Z</time></trkpt><trkpt lat="43.2462817" lon="11.366563"><ele>224.0</ele><time>2026-05-02T09:43:36.254Z</time></trkpt><trkpt lat="43.2462228" lon="11.3665247"><ele>224.0</ele><time>2026-05-02T09:43:46.258Z</time></trkpt></trkseg><trkseg><trkpt lat="43.2458713" lon="11.3665827"><ele>224.0</ele><time>2026-05-02T10:10:56.453Z</time></trkpt><trkpt lat="43.2459265" lon="11.3668757"><ele>223.99999999999997</ele><time>2026-05-02T10:11:00.25Z</time></trkpt><trkpt lat="43.2458967" lon="11.3669678"><ele>223.99999999999997</ele><time>2026-05-02T10:11:03.251Z</time></trkpt><trkpt lat="43.2458492" lon="11.367029"><ele>224.0</ele><time>2026-05-02T10:11:05.248Z</time></trkpt><trkpt lat="43.2457782" lon="11.3670987"><ele>224.0</ele><time>2026-05-02T10:11:07.253Z</time></trkpt><trkpt lat="43.2456857" lon="11.3671848"><ele>223.33333333333334</ele><time>2026-05-02T10:11:09.253Z</time></trkpt><trkpt lat="43.2456218" lon="11.3672385"><ele>222.66666666666669</ele><time>2026-05-02T10:11:10.254Z</time></trkpt><trkpt lat="43.2455467" lon="11.367294"><ele>222.0</ele><time>2026-05-02T10:11:11.252Z</time></trkpt><trkpt lat="43.2454635" lon="11.3673438"><ele>221.33333333333331</ele><time>2026-05-02T10:11:12.252Z</time></trkpt><trkpt lat="43.2453772" lon="11.3673883"><ele>220.66666666666666</ele><time>2026-05-02T10:11:13.251Z</time></trkpt><trkpt lat="43.2452907" lon="11.3674265"><ele>220.0</ele><time>2026-05-02T10:11:14.255Z</time></trkpt><trkpt lat="43.2452" lon="11.3674602"><ele>220.0</ele><time>2026-05-02T10:11:15.251Z</time></trkpt><trkpt lat="43.2451023" lon="11.3674967"><ele>220.0</ele><time>2026-05-02T10:11:16.253Z</time></trkpt><trkpt lat="43.2449947" lon="11.3675365"><ele>220.0</ele><time>2026-05-02T10:11:17.253Z</time></trkpt><trkpt lat="43.2448738" lon="11.3675768"><ele>220.0</ele><time>2026-05-02T10:11:18.251Z</time></trkpt><trkpt lat="43.2447417" lon="11.3676188"><ele>220.75</ele><time>2026-05-02T10:11:19.25Z</time></trkpt><trkpt lat="43.2446043" lon="11.3676602"><ele>221.5</ele><time>2026-05-02T10:11:20.251Z</time></trkpt><trkpt lat="43.2444657" lon="11.3677013"><ele>222.25</ele><time>2026-05-02T10:11:21.25Z</time></trkpt><trkpt lat="43.2443253" lon="11.3677438"><ele>223.0</ele><time>2026-05-02T10:11:22.253Z</time></trkpt><trkpt lat="43.244185" lon="11.3677887"><ele>223.0</ele><time>2026-05-02T10:11:23.253Z</time></trkpt><trkpt lat="43.2440497" lon="11.3678315"><ele>223.0</ele><time>2026-05-02T10:11:24.25Z</time></trkpt><trkpt lat="43.243921" lon="11.3678717"><ele>223.0</ele><time>2026-05-02T10:11:25.25Z</time></trkpt><trkpt lat="43.2437972" lon="11.3679088"><ele>223.0</ele><time>2026-05-02T10:11:26.251Z</time></trkpt><trkpt lat="43.2436718" lon="11.3679447"><ele>222.75</ele><time>2026-05-02T10:11:27.252Z</time></trkpt><trkpt lat="43.2435407" lon="11.3679752"><ele>222.5</ele><time>2026-05-02T10:11:28.254Z</time></trkpt><trkpt lat="43.2434045" lon="11.3679998"><ele>222.25</ele><time>2026-05-02T10:11:29.253Z</time></trkpt><trkpt lat="43.2432757" lon="11.3680243"><ele>222.0</ele><time>2026-05-02T10:11:30.248Z</time></trkpt><trkpt lat="43.2431492" lon="11.3680547"><ele>222.0</ele><time>2026-05-02T10:11:31.249Z</time></trkpt><trkpt lat="43.2430242" lon="11.3680948"><ele>222.0</ele><time>2026-05-02T10:11:32.249Z</time></trkpt><trkpt lat="43.2429048" lon="11.368145"><ele>222.0</ele><time>2026-05-02T10:11:33.251Z</time></trkpt><trkpt lat="43.2427972" lon="11.3682035"><ele>222.0</ele><time>2026-05-02T10:11:34.25Z</time></trkpt><trkpt lat="43.2426992" lon="11.3682722"><ele>222.0</ele><time>2026-05-02T10:11:35.251Z</time></trkpt><trkpt lat="43.2426068" lon="11.3683547"><ele>222.0</ele><time>2026-05-02T10:11:36.25Z</time></trkpt><trkpt lat="43.2425138" lon="11.3684558"><ele>222.0</ele><time>2026-05-02T10:11:37.254Z</time></trkpt><trkpt lat="43.242416" lon="11.36858"><ele>222.0</ele><time>2026-05-02T10:11:38.252Z</time></trkpt><trkpt lat="43.2423082" lon="11.3687215"><ele>221.5</ele><time>2026-05-02T10:11:39.252Z</time></trkpt><trkpt lat="43.2421945" lon="11.368868"><ele>221.0</ele><time>2026-05-02T10:11:40.255Z</time></trkpt><trkpt lat="43.242084" lon="11.3690093"><ele>220.5</ele><time>2026-05-02T10:11:41.251Z</time></trkpt><trkpt lat="43.2419815" lon="11.3691407"><ele>220.0</ele><time>2026-05-02T10:11:42.252Z</time></trkpt><trkpt lat="43.241881" lon="11.3692685"><ele>220.0</ele><time>2026-05-02T10:11:43.251Z</time></trkpt><trkpt lat="43.2417815" lon="11.3693953"><ele>220.0</ele><time>2026-05-02T10:11:44.252Z</time></trkpt><trkpt lat="43.241683" lon="11.3695232"><ele>220.0</ele><time>2026-05-02T10:11:45.254Z</time></trkpt><trkpt lat="43.2415797" lon="11.3696487"><ele>220.0</ele><time>2026-05-02T10:11:46.253Z</time></trkpt><trkpt lat="43.2414668" lon="11.3697717"><ele>218.33333333333331</ele><time>2026-05-02T10:11:47.254Z</time></trkpt><trkpt lat="43.2413485" lon="11.3698933"><ele>216.66666666666669</ele><time>2026-05-02T10:11:48.252Z</time></trkpt><trkpt lat="43.2412235" lon="11.3700125"><ele>215.0</ele><time>2026-05-02T10:11:49.251Z</time></trkpt><trkpt lat="43.2410955" lon="11.3701302"><ele>215.0</ele><time>2026-05-02T10:11:50.252Z</time></trkpt><trkpt lat="43.240967" lon="11.370245"><ele>215.0</ele><time>2026-05-02T10:11:51.25Z</time></trkpt><trkpt lat="43.2408425" lon="11.370358"><ele>215.0</ele><time>2026-05-02T10:11:52.252Z</time></trkpt><trkpt lat="43.2407248" lon="11.3704718"><ele>215.0</ele><time>2026-05-02T10:11:53.25Z</time></trkpt><trkpt lat="43.2406165" lon="11.3705922"><ele>215.5</ele><time>2026-05-02T10:11:54.25Z</time></trkpt><trkpt lat="43.2405155" lon="11.3707233"><ele>216.0</ele><time>2026-05-02T10:11:55.25Z</time></trkpt><trkpt lat="43.2404195" lon="11.370867"><ele>216.5</ele><time>2026-05-02T10:11:56.249Z</time></trkpt><trkpt lat="43.2403238" lon="11.371019"><ele>217.0</ele><time>2026-05-02T10:11:57.25Z</time></trkpt><trkpt lat="43.2402295" lon="11.3711788"><ele>217.0</ele><time>2026-05-02T10:11:58.254Z</time></trkpt><trkpt lat="43.2401373" lon="11.3713398"><ele>217.0</ele><time>2026-05-02T10:11:59.253Z</time></trkpt><trkpt lat="43.2400472" lon="11.3715005"><ele>217.0</ele><time>2026-05-02T10:12:00.251Z</time></trkpt><trkpt lat="43.2399652" lon="11.3716557"><ele>217.0</ele><time>2026-05-02T10:12:01.251Z</time></trkpt><trkpt lat="43.239891" lon="11.3718067"><ele>216.25</ele><time>2026-05-02T10:12:02.254Z</time></trkpt><trkpt lat="43.2398215" lon="11.3719475"><ele>215.5</ele><time>2026-05-02T10:12:03.252Z</time></trkpt><trkpt lat="43.2397535" lon="11.3720873"><ele>214.75</ele><time>2026-05-02T10:12:04.254Z</time></trkpt><trkpt lat="43.239689" lon="11.3722258"><ele>214.0</ele><time>2026-05-02T10:12:05.251Z</time></trkpt><trkpt lat="43.2396293" lon="11.3723552"><ele>213.79999999999998</ele><time>2026-05-02T10:12:06.251Z</time></trkpt><trkpt lat="43.239569" lon="11.3724725"><ele>213.59999999999997</ele><time>2026-05-02T10:12:07.258Z</time></trkpt><trkpt lat="43.2394988" lon="11.3725693"><ele>213.4</ele><time>2026-05-02T10:12:08.255Z</time></trkpt><trkpt lat="43.2394133" lon="11.372635"><ele>213.2</ele><time>2026-05-02T10:12:09.252Z</time></trkpt><trkpt lat="43.2393108" lon="11.3726697"><ele>213.0</ele><time>2026-05-02T10:12:10.25Z</time></trkpt><trkpt lat="43.2391933" lon="11.3726847"><ele>213.0</ele><time>2026-05-02T10:12:11.252Z</time></trkpt><trkpt lat="43.2390682" lon="11.3726897"><ele>213.0</ele><time>2026-05-02T10:12:12.252Z</time></trkpt><trkpt lat="43.2389413" lon="11.372695"><ele>213.0</ele><time>2026-05-02T10:12:13.253Z</time></trkpt><trkpt lat="43.2388168" lon="11.3727122"><ele>213.0</ele><time>2026-05-02T10:12:14.254Z</time></trkpt><trkpt lat="43.2386943" lon="11.372753"><ele>213.0</ele><time>2026-05-02T10:12:15.251Z</time></trkpt><trkpt lat="43.2385795" lon="11.3728102"><ele>213.0</ele><time>2026-05-02T10:12:16.249Z</time></trkpt><trkpt lat="43.2384735" lon="11.3728685"><ele>213.0</ele><time>2026-05-02T10:12:17.253Z</time></trkpt><trkpt lat="43.23838" lon="11.3729345"><ele>213.0</ele><time>2026-05-02T10:12:18.249Z</time></trkpt><trkpt lat="43.238306" lon="11.3730195"><ele>213.0</ele><time>2026-05-02T10:12:19.248Z</time></trkpt><trkpt lat="43.2382558" lon="11.3731228"><ele>211.4</ele><time>2026-05-02T10:12:20.249Z</time></trkpt><trkpt lat="43.2382285" lon="11.3732408"><ele>209.8</ele><time>2026-05-02T10:12:21.249Z</time></trkpt><trkpt lat="43.2382188" lon="11.3733692"><ele>208.2</ele><time>2026-05-02T10:12:22.252Z</time></trkpt><trkpt lat="43.2382262" lon="11.373506"><ele>206.6</ele><time>2026-05-02T10:12:23.252Z</time></trkpt><trkpt lat="43.2382427" lon="11.3736522"><ele>205.0</ele><time>2026-05-02T10:12:24.251Z</time></trkpt><trkpt lat="43.2382582" lon="11.373807"><ele>204.75</ele><time>2026-05-02T10:12:25.253Z</time></trkpt><trkpt lat="43.2382702" lon="11.3739697"><ele>204.5</ele><time>2026-05-02T10:12:26.251Z</time></trkpt><trkpt lat="43.2382797" lon="11.3741355"><ele>204.25</ele><time>2026-05-02T10:12:27.251Z</time></trkpt><trkpt lat="43.2382888" lon="11.3743028"><ele>204.0</ele><time>2026-05-02T10:12:28.254Z</time></trkpt><trkpt lat="43.2382965" lon="11.3744685"><ele>204.0</ele><time>2026-05-02T10:12:29.253Z</time></trkpt><trkpt lat="43.2382967" lon="11.374629"><ele>204.0</ele><time>2026-05-02T10:12:30.252Z</time></trkpt><trkpt lat="43.2382837" lon="11.3747845"><ele>204.0</ele><time>2026-05-02T10:12:31.252Z</time></trkpt><trkpt lat="43.238254" lon="11.3749277"><ele>204.0</ele><time>2026-05-02T10:12:32.254Z</time></trkpt><trkpt lat="43.2382032" lon="11.3750493"><ele>204.0</ele><time>2026-05-02T10:12:33.254Z</time></trkpt><trkpt lat="43.2381332" lon="11.3751478"><ele>204.0</ele><time>2026-05-02T10:12:34.252Z</time></trkpt><trkpt lat="43.238044" lon="11.3752348"><ele>204.0</ele><time>2026-05-02T10:12:35.251Z</time></trkpt><trkpt lat="43.2379397" lon="11.3753197"><ele>204.0</ele><time>2026-05-02T10:12:36.251Z</time></trkpt><trkpt lat="43.237829" lon="11.375412"><ele>204.0</ele><time>2026-05-02T10:12:37.251Z</time></trkpt><trkpt lat="43.2377163" lon="11.3755168"><ele>202.75</ele><time>2026-05-02T10:12:38.252Z</time></trkpt><trkpt lat="43.237605" lon="11.375632"><ele>201.5</ele><time>2026-05-02T10:12:39.253Z</time></trkpt><trkpt lat="43.2374948" lon="11.3757535"><ele>200.25</ele><time>2026-05-02T10:12:40.251Z</time></trkpt><trkpt lat="43.2373867" lon="11.3758785"><ele>199.0</ele><time>2026-05-02T10:12:41.251Z</time></trkpt><trkpt lat="43.2372805" lon="11.376"><ele>198.25</ele><time>2026-05-02T10:12:42.25Z</time></trkpt><trkpt lat="43.2371758" lon="11.3761183"><ele>197.5</ele><time>2026-05-02T10:12:43.248Z</time></trkpt><trkpt lat="43.2370728" lon="11.3762233"><ele>196.75</ele><time>2026-05-02T10:12:44.24Z</time></trkpt><trkpt lat="43.2369642" lon="11.3763"><ele>196.0</ele><time>2026-05-02T10:12:45.248Z</time></trkpt><trkpt lat="43.2368423" lon="11.3763443"><ele>196.0</ele><time>2026-05-02T10:12:46.25Z</time></trkpt><trkpt lat="43.2367133" lon="11.3763568"><ele>196.0</ele><time>2026-05-02T10:12:47.249Z</time></trkpt><trkpt lat="43.2365853" lon="11.3763385"><ele>196.0</ele><time>2026-05-02T10:12:48.252Z</time></trkpt><trkpt lat="43.2364707" lon="11.3762877"><ele>196.0</ele><time>2026-05-02T10:12:49.251Z</time></trkpt><trkpt lat="43.2363752" lon="11.3762033"><ele>194.0</ele><time>2026-05-02T10:12:50.251Z</time></trkpt><trkpt lat="43.2363008" lon="11.376093"><ele>192.0</ele><time>2026-05-02T10:12:51.252Z</time></trkpt><trkpt lat="43.2362447" lon="11.3759632"><ele>190.0</ele><time>2026-05-02T10:12:52.252Z</time></trkpt><trkpt lat="43.2362098" lon="11.3758223"><ele>188.0</ele><time>2026-05-02T10:12:53.255Z</time></trkpt><trkpt lat="43.2361927" lon="11.3756757"><ele>186.0</ele><time>2026-05-02T10:12:54.254Z</time></trkpt><trkpt lat="43.236189" lon="11.3755292"><ele>185.20000000000002</ele><time>2026-05-02T10:12:55.252Z</time></trkpt><trkpt lat="43.2362007" lon="11.3753903"><ele>184.4</ele><time>2026-05-02T10:12:56.253Z</time></trkpt><trkpt lat="43.2362253" lon="11.3752628"><ele>183.6</ele><time>2026-05-02T10:12:57.251Z</time></trkpt><trkpt lat="43.2362622" lon="11.3751487"><ele>182.8</ele><time>2026-05-02T10:12:58.254Z</time></trkpt><trkpt lat="43.236312" lon="11.3750415"><ele>182.0</ele><time>2026-05-02T10:12:59.252Z</time></trkpt><trkpt lat="43.236367" lon="11.374932"><ele>182.0</ele><time>2026-05-02T10:13:00.254Z</time></trkpt><trkpt lat="43.2364173" lon="11.3748123"><ele>182.0</ele><time>2026-05-02T10:13:01.251Z</time></trkpt><trkpt lat="43.2364592" lon="11.3746782"><ele>182.0</ele><time>2026-05-02T10:13:02.253Z</time></trkpt><trkpt lat="43.2364935" lon="11.3745345"><ele>182.0</ele><time>2026-05-02T10:13:03.252Z</time></trkpt><trkpt lat="43.2365248" lon="11.3743868"><ele>182.0</ele><time>2026-05-02T10:13:04.256Z</time></trkpt><trkpt lat="43.2365502" lon="11.3742413"><ele>183.0</ele><time>2026-05-02T10:13:05.253Z</time></trkpt><trkpt lat="43.236565" lon="11.3741032"><ele>184.0</ele><time>2026-05-02T10:13:06.251Z</time></trkpt><trkpt lat="43.2365663" lon="11.3739722"><ele>185.0</ele><time>2026-05-02T10:13:07.25Z</time></trkpt><trkpt lat="43.2365525" lon="11.3738462"><ele>186.0</ele><time>2026-05-02T10:13:08.249Z</time></trkpt><trkpt lat="43.2365218" lon="11.3737247"><ele>187.0</ele><time>2026-05-02T10:13:09.249Z</time></trkpt><trkpt lat="43.2364712" lon="11.373615"><ele>186.0</ele><time>2026-05-02T10:13:10.249Z</time></trkpt><trkpt lat="43.2364027" lon="11.3735203"><ele>185.0</ele><time>2026-05-02T10:13:11.25Z</time></trkpt><trkpt lat="43.2363217" lon="11.3734533"><ele>184.0</ele><time>2026-05-02T10:13:12.25Z</time></trkpt><trkpt lat="43.2362313" lon="11.3734177"><ele>183.0</ele><time>2026-05-02T10:13:13.25Z</time></trkpt><trkpt lat="43.2361317" lon="11.3734083"><ele>182.0</ele><time>2026-05-02T10:13:14.25Z</time></trkpt><trkpt lat="43.2360232" lon="11.3734162"><ele>182.0</ele><time>2026-05-02T10:13:15.251Z</time></trkpt><trkpt lat="43.235904" lon="11.3734277"><ele>182.0</ele><time>2026-05-02T10:13:16.252Z</time></trkpt><trkpt lat="43.2357785" lon="11.3734382"><ele>182.0</ele><time>2026-05-02T10:13:17.252Z</time></trkpt><trkpt lat="43.2356462" lon="11.3734505"><ele>182.0</ele><time>2026-05-02T10:13:18.251Z</time></trkpt><trkpt lat="43.235506" lon="11.3734652"><ele>180.33333333333331</ele><time>2026-05-02T10:13:19.253Z</time></trkpt><trkpt lat="43.2353595" lon="11.3734808"><ele>178.66666666666666</ele><time>2026-05-02T10:13:20.251Z</time></trkpt><trkpt lat="43.2352083" lon="11.3734973"><ele>177.0</ele><time>2026-05-02T10:13:21.251Z</time></trkpt><trkpt lat="43.235053" lon="11.3735137"><ele>177.0</ele><time>2026-05-02T10:13:22.253Z</time></trkpt><trkpt lat="43.2348972" lon="11.3735282"><ele>177.0</ele><time>2026-05-02T10:13:23.253Z</time></trkpt><trkpt lat="43.2347412" lon="11.3735413"><ele>177.0</ele><time>2026-05-02T10:13:24.252Z</time></trkpt><trkpt lat="43.2345828" lon="11.373553"><ele>177.33333333333334</ele><time>2026-05-02T10:13:25.251Z</time></trkpt><trkpt lat="43.234425" lon="11.3735635"><ele>177.66666666666669</ele><time>2026-05-02T10:13:26.25Z</time></trkpt><trkpt lat="43.234273" lon="11.3735743"><ele>178.0</ele><time>2026-05-02T10:13:27.252Z</time></trkpt><trkpt lat="43.234128" lon="11.3735848"><ele>178.0</ele><time>2026-05-02T10:13:28.25Z</time></trkpt><trkpt lat="43.2339922" lon="11.3735937"><ele>178.0</ele><time>2026-05-02T10:13:29.249Z</time></trkpt><trkpt lat="43.2338632" lon="11.3736063"><ele>178.0</ele><time>2026-05-02T10:13:30.248Z</time></trkpt><trkpt lat="43.233736" lon="11.373641"><ele>178.0</ele><time>2026-05-02T10:13:31.249Z</time></trkpt><trkpt lat="43.2336073" lon="11.3737058"><ele>178.25</ele><time>2026-05-02T10:13:32.248Z</time></trkpt><trkpt lat="43.2334755" lon="11.3737905"><ele>178.5</ele><time>2026-05-02T10:13:33.248Z</time></trkpt><trkpt lat="43.2333408" lon="11.3738825"><ele>178.75</ele><time>2026-05-02T10:13:34.247Z</time></trkpt><trkpt lat="43.233204" lon="11.3739765"><ele>179.0</ele><time>2026-05-02T10:13:35.247Z</time></trkpt><trkpt lat="43.2330667" lon="11.374073"><ele>179.0</ele><time>2026-05-02T10:13:36.25Z</time></trkpt><trkpt lat="43.2329282" lon="11.374168"><ele>179.0</ele><time>2026-05-02T10:13:37.249Z</time></trkpt><trkpt lat="43.2327908" lon="11.3742628"><ele>179.0</ele><time>2026-05-02T10:13:38.249Z</time></trkpt><trkpt lat="43.2326517" lon="11.3743602"><ele>179.0</ele><time>2026-05-02T10:13:39.248Z</time></trkpt><trkpt lat="43.2325123" lon="11.3744573"><ele>179.0</ele><time>2026-05-02T10:13:40.249Z</time></trkpt><trkpt lat="43.2323725" lon="11.3745577"><ele>179.0</ele><time>2026-05-02T10:13:41.25Z</time></trkpt><trkpt lat="43.2322322" lon="11.3746558"><ele>179.0</ele><time>2026-05-02T10:13:42.25Z</time></trkpt><trkpt lat="43.2320935" lon="11.3747522"><ele>179.0</ele><time>2026-05-02T10:13:43.25Z</time></trkpt><trkpt lat="43.2319578" lon="11.374848"><ele>179.0</ele><time>2026-05-02T10:13:44.251Z</time></trkpt><trkpt lat="43.2318255" lon="11.374943"><ele>179.0</ele><time>2026-05-02T10:13:45.25Z</time></trkpt><trkpt lat="43.2316943" lon="11.3750368"><ele>179.0</ele><time>2026-05-02T10:13:46.251Z</time></trkpt><trkpt lat="43.2315638" lon="11.3751285"><ele>179.0</ele><time>2026-05-02T10:13:47.25Z</time></trkpt><trkpt lat="43.2314318" lon="11.3752208"><ele>179.0</ele><time>2026-05-02T10:13:48.25Z</time></trkpt><trkpt lat="43.2312977" lon="11.3753163"><ele>179.0</ele><time>2026-05-02T10:13:49.25Z</time></trkpt><trkpt lat="43.2311622" lon="11.3754133"><ele>179.0</ele><time>2026-05-02T10:13:50.25Z</time></trkpt><trkpt lat="43.2310267" lon="11.3755115"><ele>179.0</ele><time>2026-05-02T10:13:51.251Z</time></trkpt><trkpt lat="43.23089" lon="11.3756102"><ele>179.0</ele><time>2026-05-02T10:13:52.252Z</time></trkpt><trkpt lat="43.2307525" lon="11.375708"><ele>179.0</ele><time>2026-05-02T10:13:53.25Z</time></trkpt><trkpt lat="43.2306165" lon="11.3758067"><ele>179.0</ele><time>2026-05-02T10:13:54.251Z</time></trkpt><trkpt lat="43.230482" lon="11.3759052"><ele>180.66666666666666</ele><time>2026-05-02T10:13:55.252Z</time></trkpt><trkpt lat="43.230348" lon="11.3760018"><ele>182.33333333333334</ele><time>2026-05-02T10:13:56.251Z</time></trkpt><trkpt lat="43.2302138" lon="11.3760988"><ele>184.0</ele><time>2026-05-02T10:13:57.249Z</time></trkpt><trkpt lat="43.2300822" lon="11.3761948"><ele>184.0</ele><time>2026-05-02T10:13:58.249Z</time></trkpt><trkpt lat="43.229954" lon="11.3762925"><ele>184.0</ele><time>2026-05-02T10:13:59.25Z</time></trkpt><trkpt lat="43.2298262" lon="11.3763937"><ele>184.0</ele><time>2026-05-02T10:14:00.25Z</time></trkpt><trkpt lat="43.2296982" lon="11.3764983"><ele>184.0</ele><time>2026-05-02T10:14:01.25Z</time></trkpt><trkpt lat="43.2295712" lon="11.376605"><ele>184.5</ele><time>2026-05-02T10:14:02.25Z</time></trkpt><trkpt lat="43.2294463" lon="11.3767118"><ele>185.0</ele><time>2026-05-02T10:14:03.25Z</time></trkpt><trkpt lat="43.2293238" lon="11.376817"><ele>185.5</ele><time>2026-05-02T10:14:04.25Z</time></trkpt><trkpt lat="43.2292027" lon="11.3769158"><ele>186.0</ele><time>2026-05-02T10:14:05.252Z</time></trkpt><trkpt lat="43.2290798" lon="11.3770057"><ele>187.0</ele><time>2026-05-02T10:14:06.25Z</time></trkpt><trkpt lat="43.2289542" lon="11.3770852"><ele>188.0</ele><time>2026-05-02T10:14:07.251Z</time></trkpt><trkpt lat="43.2288255" lon="11.3771512"><ele>189.0</ele><time>2026-05-02T10:14:08.252Z</time></trkpt><trkpt lat="43.228693" lon="11.3772023"><ele>190.0</ele><time>2026-05-02T10:14:09.251Z</time></trkpt><trkpt lat="43.2285568" lon="11.3772383"><ele>187.0</ele><time>2026-05-02T10:14:10.25Z</time></trkpt><trkpt lat="43.2284177" lon="11.3772583"><ele>184.0</ele><time>2026-05-02T10:14:11.251Z</time></trkpt><trkpt lat="43.2282765" lon="11.3772733"><ele>181.0</ele><time>2026-05-02T10:14:12.25Z</time></trkpt><trkpt lat="43.2281368" lon="11.3772848"><ele>178.0</ele><time>2026-05-02T10:14:13.25Z</time></trkpt><trkpt lat="43.2280028" lon="11.3772942"><ele>178.0</ele><time>2026-05-02T10:14:14.251Z</time></trkpt><trkpt lat="43.2278707" lon="11.3773032"><ele>178.0</ele><time>2026-05-02T10:14:15.251Z</time></trkpt><trkpt lat="43.2277363" lon="11.3773113"><ele>178.0</ele><time>2026-05-02T10:14:16.251Z</time></trkpt><trkpt lat="43.2276" lon="11.3773128"><ele>178.0</ele><time>2026-05-02T10:14:17.251Z</time></trkpt><trkpt lat="43.2274647" lon="11.3773033"><ele>178.0</ele><time>2026-05-02T10:14:18.252Z</time></trkpt><trkpt lat="43.2273318" lon="11.3772797"><ele>178.0</ele><time>2026-05-02T10:14:19.252Z</time></trkpt><trkpt lat="43.2272032" lon="11.3772395"><ele>178.0</ele><time>2026-05-02T10:14:20.251Z</time></trkpt><trkpt lat="43.2270798" lon="11.377184"><ele>178.0</ele><time>2026-05-02T10:14:21.25Z</time></trkpt><trkpt lat="43.2269595" lon="11.377117"><ele>178.75</ele><time>2026-05-02T10:14:22.249Z</time></trkpt><trkpt lat="43.2268425" lon="11.3770368"><ele>179.5</ele><time>2026-05-02T10:14:23.249Z</time></trkpt><trkpt lat="43.2267278" lon="11.3769458"><ele>180.25</ele><time>2026-05-02T10:14:24.25Z</time></trkpt><trkpt lat="43.2266148" lon="11.3768447"><ele>181.0</ele><time>2026-05-02T10:14:25.249Z</time></trkpt><trkpt lat="43.2265055" lon="11.3767313"><ele>180.5</ele><time>2026-05-02T10:14:26.25Z</time></trkpt><trkpt lat="43.2264033" lon="11.3766038"><ele>180.0</ele><time>2026-05-02T10:14:27.251Z</time></trkpt><trkpt lat="43.2263098" lon="11.376465"><ele>179.5</ele><time>2026-05-02T10:14:28.251Z</time></trkpt><trkpt lat="43.2262282" lon="11.3763103"><ele>179.0</ele><time>2026-05-02T10:14:29.251Z</time></trkpt><trkpt lat="43.2261598" lon="11.3761455"><ele>179.0</ele><time>2026-05-02T10:14:30.249Z</time></trkpt><trkpt lat="43.2261033" lon="11.375972"><ele>179.0</ele><time>2026-05-02T10:14:31.255Z</time></trkpt><trkpt lat="43.2260573" lon="11.3757958"><ele>179.0</ele><time>2026-05-02T10:14:32.25Z</time></trkpt><trkpt lat="43.2260268" lon="11.3756188"><ele>179.0</ele><time>2026-05-02T10:14:33.25Z</time></trkpt><trkpt lat="43.2260133" lon="11.375444"><ele>178.75</ele><time>2026-05-02T10:14:34.25Z</time></trkpt><trkpt lat="43.2260155" lon="11.3752702"><ele>178.5</ele><time>2026-05-02T10:14:35.248Z</time></trkpt><trkpt lat="43.226029" lon="11.3750923"><ele>178.25</ele><time>2026-05-02T10:14:36.248Z</time></trkpt><trkpt lat="43.2260472" lon="11.3749093"><ele>178.0</ele><time>2026-05-02T10:14:37.251Z</time></trkpt><trkpt lat="43.2260665" lon="11.3747207"><ele>177.75</ele><time>2026-05-02T10:14:38.25Z</time></trkpt><trkpt lat="43.226086" lon="11.3745283"><ele>177.5</ele><time>2026-05-02T10:14:39.25Z</time></trkpt><trkpt lat="43.2261055" lon="11.374337"><ele>177.25</ele><time>2026-05-02T10:14:40.25Z</time></trkpt><trkpt lat="43.226118" lon="11.374146"><ele>177.0</ele><time>2026-05-02T10:14:41.251Z</time></trkpt><trkpt lat="43.2261213" lon="11.3739535"><ele>177.25</ele><time>2026-05-02T10:14:42.252Z</time></trkpt><trkpt lat="43.226111" lon="11.3737628"><ele>177.5</ele><time>2026-05-02T10:14:43.251Z</time></trkpt><trkpt lat="43.2260828" lon="11.3735753"><ele>177.75</ele><time>2026-05-02T10:14:44.251Z</time></trkpt><trkpt lat="43.2260375" lon="11.373394"><ele>178.0</ele><time>2026-05-02T10:14:45.249Z</time></trkpt><trkpt lat="43.2259822" lon="11.373221"><ele>178.0</ele><time>2026-05-02T10:14:46.247Z</time></trkpt><trkpt lat="43.2259273" lon="11.3730517"><ele>178.0</ele><time>2026-05-02T10:14:47.249Z</time></trkpt><trkpt lat="43.2258775" lon="11.3728867"><ele>178.0</ele><time>2026-05-02T10:14:48.247Z</time></trkpt><trkpt lat="43.2258293" lon="11.3727297"><ele>178.0</ele><time>2026-05-02T10:14:49.247Z</time></trkpt><trkpt lat="43.2257833" lon="11.3725858"><ele>178.33333333333334</ele><time>2026-05-02T10:14:50.249Z</time></trkpt><trkpt lat="43.2257393" lon="11.3724575"><ele>178.66666666666669</ele><time>2026-05-02T10:14:51.249Z</time></trkpt><trkpt lat="43.2256937" lon="11.3723495"><ele>179.0</ele><time>2026-05-02T10:14:52.25Z</time></trkpt><trkpt lat="43.2256408" lon="11.3722612"><ele>179.33333333333334</ele><time>2026-05-02T10:14:53.249Z</time></trkpt><trkpt lat="43.2255792" lon="11.3721997"><ele>179.66666666666666</ele><time>2026-05-02T10:14:54.25Z</time></trkpt><trkpt lat="43.2255085" lon="11.3721745"><ele>180.0</ele><time>2026-05-02T10:14:55.249Z</time></trkpt><trkpt lat="43.225438" lon="11.3721853"><ele>180.0</ele><time>2026-05-02T10:14:56.251Z</time></trkpt><trkpt lat="43.2253773" lon="11.3722282"><ele>180.0</ele><time>2026-05-02T10:14:57.251Z</time></trkpt><trkpt lat="43.225321" lon="11.3722987"><ele>180.0</ele><time>2026-05-02T10:14:58.249Z</time></trkpt><trkpt lat="43.2252725" lon="11.3723947"><ele>180.0</ele><time>2026-05-02T10:14:59.253Z</time></trkpt><trkpt lat="43.2252285" lon="11.3725097"><ele>180.0</ele><time>2026-05-02T10:15:00.25Z</time></trkpt><trkpt lat="43.225185" lon="11.3726335"><ele>180.0</ele><time>2026-05-02T10:15:01.25Z</time></trkpt><trkpt lat="43.2251383" lon="11.372757"><ele>180.0</ele><time>2026-05-02T10:15:02.249Z</time></trkpt><trkpt lat="43.2250898" lon="11.3728818"><ele>180.0</ele><time>2026-05-02T10:15:03.249Z</time></trkpt><trkpt lat="43.2250398" lon="11.3730057"><ele>180.0</ele><time>2026-05-02T10:15:04.25Z</time></trkpt><trkpt lat="43.2249823" lon="11.3731225"><ele>180.0</ele><time>2026-05-02T10:15:05.252Z</time></trkpt><trkpt lat="43.2249155" lon="11.3732283"><ele>180.0</ele><time>2026-05-02T10:15:06.251Z</time></trkpt><trkpt lat="43.224839" lon="11.3733162"><ele>181.6</ele><time>2026-05-02T10:15:07.25Z</time></trkpt><trkpt lat="43.2247537" lon="11.3733852"><ele>183.2</ele><time>2026-05-02T10:15:08.251Z</time></trkpt><trkpt lat="43.224662" lon="11.3734408"><ele>184.8</ele><time>2026-05-02T10:15:09.25Z</time></trkpt><trkpt lat="43.2245678" lon="11.3734842"><ele>186.4</ele><time>2026-05-02T10:15:10.25Z</time></trkpt><trkpt lat="43.2244697" lon="11.373511"><ele>188.0</ele><time>2026-05-02T10:15:11.249Z</time></trkpt><trkpt lat="43.2243672" lon="11.3735202"><ele>188.0</ele><time>2026-05-02T10:15:12.248Z</time></trkpt><trkpt lat="43.2242615" lon="11.3735118"><ele>188.0</ele><time>2026-05-02T10:15:13.248Z</time></trkpt><trkpt lat="43.2241563" lon="11.3734833"><ele>188.0</ele><time>2026-05-02T10:15:14.25Z</time></trkpt><trkpt lat="43.2240538" lon="11.3734392"><ele>188.0</ele><time>2026-05-02T10:15:15.248Z</time></trkpt><trkpt lat="43.2239582" lon="11.373374"><ele>188.0</ele><time>2026-05-02T10:15:16.249Z</time></trkpt><trkpt lat="43.2238685" lon="11.3732947"><ele>191.60000000000002</ele><time>2026-05-02T10:15:17.249Z</time></trkpt><trkpt lat="43.2237878" lon="11.3731973"><ele>195.20000000000002</ele><time>2026-05-02T10:15:18.249Z</time></trkpt><trkpt lat="43.2237175" lon="11.3730848"><ele>198.8</ele><time>2026-05-02T10:15:19.249Z</time></trkpt><trkpt lat="43.2236575" lon="11.3729605"><ele>202.4</ele><time>2026-05-02T10:15:20.252Z</time></trkpt><trkpt lat="43.2236103" lon="11.3728313"><ele>206.0</ele><time>2026-05-02T10:15:21.249Z</time></trkpt><trkpt lat="43.2235858" lon="11.3727042"><ele>206.0</ele><time>2026-05-02T10:15:22.25Z</time></trkpt><trkpt lat="43.223583" lon="11.3725803"><ele>206.0</ele><time>2026-05-02T10:15:23.247Z</time></trkpt><trkpt lat="43.2235975" lon="11.3724627"><ele>206.0</ele><time>2026-05-02T10:15:24.247Z</time></trkpt><trkpt lat="43.2236142" lon="11.3723373"><ele>206.0</ele><time>2026-05-02T10:15:25.248Z</time></trkpt><trkpt lat="43.2236303" lon="11.3722052"><ele>206.0</ele><time>2026-05-02T10:15:26.248Z</time></trkpt><trkpt lat="43.223641" lon="11.372068"><ele>206.00000000000003</ele><time>2026-05-02T10:15:27.247Z</time></trkpt><trkpt lat="43.22364" lon="11.37193"><ele>206.0</ele><time>2026-05-02T10:15:28.247Z</time></trkpt><trkpt lat="43.2236248" lon="11.3718077"><ele>206.0</ele><time>2026-05-02T10:15:29.248Z</time></trkpt><trkpt lat="43.2235968" lon="11.3716903"><ele>206.0</ele><time>2026-05-02T10:15:30.246Z</time></trkpt><trkpt lat="43.223556" lon="11.3715863"><ele>206.00000000000003</ele><time>2026-05-02T10:15:31.249Z</time></trkpt><trkpt lat="43.2235128" lon="11.3715073"><ele>206.0</ele><time>2026-05-02T10:15:32.251Z</time></trkpt><trkpt lat="43.2234693" lon="11.3714413"><ele>206.00000000000003</ele><time>2026-05-02T10:15:33.247Z</time></trkpt><trkpt lat="43.2234188" lon="11.3713792"><ele>206.0</ele><time>2026-05-02T10:15:34.247Z</time></trkpt><trkpt lat="43.2233602" lon="11.3713207"><ele>206.0</ele><time>2026-05-02T10:15:35.247Z</time></trkpt><trkpt lat="43.2232905" lon="11.3712627"><ele>206.0</ele><time>2026-05-02T10:15:36.247Z</time></trkpt><trkpt lat="43.2232108" lon="11.3712225"><ele>206.00000000000003</ele><time>2026-05-02T10:15:37.248Z</time></trkpt><trkpt lat="43.2231288" lon="11.371215"><ele>206.0</ele><time>2026-05-02T10:15:38.249Z</time></trkpt><trkpt lat="43.2230483" lon="11.3712345"><ele>206.4</ele><time>2026-05-02T10:15:39.25Z</time></trkpt><trkpt lat="43.2229698" lon="11.371286"><ele>206.8</ele><time>2026-05-02T10:15:40.251Z</time></trkpt><trkpt lat="43.2228953" lon="11.3713643"><ele>207.20000000000002</ele><time>2026-05-02T10:15:41.251Z</time></trkpt><trkpt lat="43.2228268" lon="11.3714602"><ele>207.60000000000002</ele><time>2026-05-02T10:15:42.248Z</time></trkpt><trkpt lat="43.2227598" lon="11.3715717"><ele>208.0</ele><time>2026-05-02T10:15:43.25Z</time></trkpt><trkpt lat="43.2226892" lon="11.3717057"><ele>208.0</ele><time>2026-05-02T10:15:44.251Z</time></trkpt><trkpt lat="43.2226105" lon="11.3718587"><ele>208.0</ele><time>2026-05-02T10:15:45.25Z</time></trkpt><trkpt lat="43.2225227" lon="11.3720087"><ele>208.0</ele><time>2026-05-02T10:15:46.251Z</time></trkpt><trkpt lat="43.2224278" lon="11.3721468"><ele>208.0</ele><time>2026-05-02T10:15:47.252Z</time></trkpt><trkpt lat="43.2223237" lon="11.3722765"><ele>211.25</ele><time>2026-05-02T10:15:48.251Z</time></trkpt><trkpt lat="43.2222113" lon="11.3723977"><ele>214.5</ele><time>2026-05-02T10:15:49.251Z</time></trkpt><trkpt lat="43.222092" lon="11.3725013"><ele>217.75</ele><time>2026-05-02T10:15:50.25Z</time></trkpt><trkpt lat="43.2219655" lon="11.3725813"><ele>221.0</ele><time>2026-05-02T10:15:51.25Z</time></trkpt><trkpt lat="43.2218365" lon="11.3726393"><ele>221.0</ele><time>2026-05-02T10:15:52.251Z</time></trkpt><trkpt lat="43.2217055" lon="11.3726798"><ele>221.0</ele><time>2026-05-02T10:15:53.25Z</time></trkpt><trkpt lat="43.2215702" lon="11.3727112"><ele>221.0</ele><time>2026-05-02T10:15:54.249Z</time></trkpt><trkpt lat="43.2214315" lon="11.3727397"><ele>221.0</ele><time>2026-05-02T10:15:55.249Z</time></trkpt><trkpt lat="43.2212887" lon="11.3727687"><ele>222.5</ele><time>2026-05-02T10:15:56.249Z</time></trkpt><trkpt lat="43.2211438" lon="11.3728002"><ele>224.0</ele><time>2026-05-02T10:15:57.25Z</time></trkpt><trkpt lat="43.2209967" lon="11.3728327"><ele>225.5</ele><time>2026-05-02T10:15:58.247Z</time></trkpt><trkpt lat="43.220848" lon="11.3728635"><ele>227.0</ele><time>2026-05-02T10:15:59.25Z</time></trkpt><trkpt lat="43.2206993" lon="11.3728937"><ele>229.0</ele><time>2026-05-02T10:16:00.247Z</time></trkpt><trkpt lat="43.2205512" lon="11.372924"><ele>231.0</ele><time>2026-05-02T10:16:01.248Z</time></trkpt><trkpt lat="43.2204063" lon="11.372956"><ele>233.0</ele><time>2026-05-02T10:16:02.249Z</time></trkpt><trkpt lat="43.2202657" lon="11.3729842"><ele>235.0</ele><time>2026-05-02T10:16:03.25Z</time></trkpt><trkpt lat="43.2201248" lon="11.373011"><ele>234.0</ele><time>2026-05-02T10:16:04.251Z</time></trkpt><trkpt lat="43.2199852" lon="11.373039"><ele>233.0</ele><time>2026-05-02T10:16:05.249Z</time></trkpt><trkpt lat="43.2198497" lon="11.3730637"><ele>232.0</ele><time>2026-05-02T10:16:06.251Z</time></trkpt><trkpt lat="43.219723" lon="11.3730803"><ele>231.0</ele><time>2026-05-02T10:16:07.249Z</time></trkpt><trkpt lat="43.2196027" lon="11.3730867"><ele>234.25</ele><time>2026-05-02T10:16:08.249Z</time></trkpt><trkpt lat="43.2194788" lon="11.3730818"><ele>237.5</ele><time>2026-05-02T10:16:09.251Z</time></trkpt><trkpt lat="43.2193568" lon="11.3730647"><ele>240.75</ele><time>2026-05-02T10:16:10.25Z</time></trkpt><trkpt lat="43.2192412" lon="11.373046"><ele>244.0</ele><time>2026-05-02T10:16:11.249Z</time></trkpt><trkpt lat="43.2191377" lon="11.3730198"><ele>245.6</ele><time>2026-05-02T10:16:12.249Z</time></trkpt><trkpt lat="43.2190463" lon="11.3730033"><ele>247.2</ele><time>2026-05-02T10:16:13.249Z</time></trkpt><trkpt lat="43.2189583" lon="11.3729852"><ele>248.79999999999998</ele><time>2026-05-02T10:16:14.248Z</time></trkpt><trkpt lat="43.2188692" lon="11.3729545"><ele>250.39999999999998</ele><time>2026-05-02T10:16:15.25Z</time></trkpt><trkpt lat="43.2187773" lon="11.3729107"><ele>252.0</ele><time>2026-05-02T10:16:16.249Z</time></trkpt><trkpt lat="43.218679" lon="11.3728623"><ele>252.0</ele><time>2026-05-02T10:16:17.25Z</time></trkpt><trkpt lat="43.2185713" lon="11.3728123"><ele>252.0</ele><time>2026-05-02T10:16:18.249Z</time></trkpt><trkpt lat="43.2184565" lon="11.3727627"><ele>252.0</ele><time>2026-05-02T10:16:19.251Z</time></trkpt><trkpt lat="43.2183332" lon="11.3727088"><ele>252.0</ele><time>2026-05-02T10:16:20.251Z</time></trkpt><trkpt lat="43.2182032" lon="11.3726517"><ele>249.5</ele><time>2026-05-02T10:16:21.251Z</time></trkpt><trkpt lat="43.2180772" lon="11.3725908"><ele>247.0</ele><time>2026-05-02T10:16:22.249Z</time></trkpt><trkpt lat="43.2179617" lon="11.3725293"><ele>244.5</ele><time>2026-05-02T10:16:23.249Z</time></trkpt><trkpt lat="43.2178545" lon="11.3724677"><ele>242.0</ele><time>2026-05-02T10:16:24.249Z</time></trkpt><trkpt lat="43.2177595" lon="11.372413"><ele>242.00000000000003</ele><time>2026-05-02T10:16:25.248Z</time></trkpt><trkpt lat="43.2176798" lon="11.3723693"><ele>242.0</ele><time>2026-05-02T10:16:26.251Z</time></trkpt><trkpt lat="43.2176085" lon="11.3723343"><ele>242.0</ele><time>2026-05-02T10:16:27.249Z</time></trkpt><trkpt lat="43.217547" lon="11.372303"><ele>242.0</ele><time>2026-05-02T10:16:28.25Z</time></trkpt><trkpt lat="43.2174577" lon="11.3722585"><ele>242.00000000000003</ele><time>2026-05-02T10:16:30.249Z</time></trkpt><trkpt lat="43.2173762" lon="11.372224"><ele>242.0</ele><time>2026-05-02T10:16:32.25Z</time></trkpt><trkpt lat="43.2172627" lon="11.3721643"><ele>241.2</ele><time>2026-05-02T10:16:34.251Z</time></trkpt><trkpt lat="43.2171907" lon="11.3721252"><ele>240.39999999999998</ele><time>2026-05-02T10:16:35.25Z</time></trkpt><trkpt lat="43.2171063" lon="11.372079"><ele>239.60000000000002</ele><time>2026-05-02T10:16:36.25Z</time></trkpt><trkpt lat="43.2170145" lon="11.3720252"><ele>238.8</ele><time>2026-05-02T10:16:37.25Z</time></trkpt><trkpt lat="43.2169213" lon="11.371974"><ele>238.0</ele><time>2026-05-02T10:16:38.251Z</time></trkpt><trkpt lat="43.2168228" lon="11.3719223"><ele>238.0</ele><time>2026-05-02T10:16:39.251Z</time></trkpt><trkpt lat="43.216721" lon="11.3718723"><ele>238.0</ele><time>2026-05-02T10:16:40.251Z</time></trkpt><trkpt lat="43.2166177" lon="11.371819"><ele>238.0</ele><time>2026-05-02T10:16:41.25Z</time></trkpt><trkpt lat="43.2165133" lon="11.3717657"><ele>238.0</ele><time>2026-05-02T10:16:42.251Z</time></trkpt><trkpt lat="43.2164123" lon="11.3717158"><ele>238.0</ele><time>2026-05-02T10:16:43.251Z</time></trkpt><trkpt lat="43.2163183" lon="11.3716705"><ele>238.99999999999997</ele><time>2026-05-02T10:16:44.25Z</time></trkpt><trkpt lat="43.216233" lon="11.3716283"><ele>240.0</ele><time>2026-05-02T10:16:45.25Z</time></trkpt><trkpt lat="43.2161523" lon="11.3715882"><ele>241.0</ele><time>2026-05-02T10:16:46.251Z</time></trkpt><trkpt lat="43.216075" lon="11.3715498"><ele>242.0</ele><time>2026-05-02T10:16:47.252Z</time></trkpt><trkpt lat="43.2160042" lon="11.3715147"><ele>242.99999999999997</ele><time>2026-05-02T10:16:48.251Z</time></trkpt><trkpt lat="43.215941" lon="11.3714733"><ele>244.0</ele><time>2026-05-02T10:16:49.25Z</time></trkpt><trkpt lat="43.2158793" lon="11.3714273"><ele>243.99999999999997</ele><time>2026-05-02T10:16:50.249Z</time></trkpt><trkpt lat="43.2158237" lon="11.3713855"><ele>244.0</ele><time>2026-05-02T10:16:51.25Z</time></trkpt><trkpt lat="43.2157237" lon="11.3712887"><ele>244.0</ele><time>2026-05-02T10:16:53.252Z</time></trkpt><trkpt lat="43.2156732" lon="11.3712203"><ele>244.0</ele><time>2026-05-02T10:16:54.254Z</time></trkpt><trkpt lat="43.2156157" lon="11.3711528"><ele>243.99999999999997</ele><time>2026-05-02T10:16:55.252Z</time></trkpt><trkpt lat="43.2155515" lon="11.3710845"><ele>244.0</ele><time>2026-05-02T10:16:56.253Z</time></trkpt><trkpt lat="43.2154812" lon="11.3710142"><ele>243.2</ele><time>2026-05-02T10:16:57.253Z</time></trkpt><trkpt lat="43.2154035" lon="11.370948"><ele>242.39999999999998</ele><time>2026-05-02T10:16:58.253Z</time></trkpt><trkpt lat="43.2153218" lon="11.370884"><ele>241.6</ele><time>2026-05-02T10:16:59.252Z</time></trkpt><trkpt lat="43.2152388" lon="11.370826"><ele>240.8</ele><time>2026-05-02T10:17:00.252Z</time></trkpt><trkpt lat="43.2151537" lon="11.3707785"><ele>240.0</ele><time>2026-05-02T10:17:01.253Z</time></trkpt><trkpt lat="43.2150678" lon="11.3707397"><ele>240.0</ele><time>2026-05-02T10:17:02.251Z</time></trkpt><trkpt lat="43.2149815" lon="11.370711"><ele>240.0</ele><time>2026-05-02T10:17:03.252Z</time></trkpt><trkpt lat="43.2148943" lon="11.3706933"><ele>240.0</ele><time>2026-05-02T10:17:04.251Z</time></trkpt><trkpt lat="43.2148042" lon="11.3706937"><ele>240.0</ele><time>2026-05-02T10:17:05.254Z</time></trkpt><trkpt lat="43.2147087" lon="11.3707163"><ele>240.0</ele><time>2026-05-02T10:17:06.253Z</time></trkpt><trkpt lat="43.2146037" lon="11.3707668"><ele>236.0</ele><time>2026-05-02T10:17:07.253Z</time></trkpt><trkpt lat="43.2144857" lon="11.3708455"><ele>232.0</ele><time>2026-05-02T10:17:08.252Z</time></trkpt><trkpt lat="43.21435" lon="11.3709393"><ele>228.0</ele><time>2026-05-02T10:17:09.254Z</time></trkpt><trkpt lat="43.2141948" lon="11.371037"><ele>228.0</ele><time>2026-05-02T10:17:10.254Z</time></trkpt><trkpt lat="43.2140425" lon="11.371132"><ele>228.0</ele><time>2026-05-02T10:17:11.251Z</time></trkpt><trkpt lat="43.2138958" lon="11.3712197"><ele>228.0</ele><time>2026-05-02T10:17:12.25Z</time></trkpt><trkpt lat="43.2137572" lon="11.371296"><ele>226.5</ele><time>2026-05-02T10:17:13.25Z</time></trkpt><trkpt lat="43.2136298" lon="11.3713562"><ele>225.0</ele><time>2026-05-02T10:17:14.249Z</time></trkpt><trkpt lat="43.2135142" lon="11.3713818"><ele>223.5</ele><time>2026-05-02T10:17:15.251Z</time></trkpt><trkpt lat="43.2134097" lon="11.3713638"><ele>222.0</ele><time>2026-05-02T10:17:16.252Z</time></trkpt><trkpt lat="43.2133192" lon="11.3712998"><ele>222.0</ele><time>2026-05-02T10:17:17.256Z</time></trkpt><trkpt lat="43.2132395" lon="11.3711993"><ele>222.0</ele><time>2026-05-02T10:17:18.253Z</time></trkpt><trkpt lat="43.2131628" lon="11.3710715"><ele>222.0</ele><time>2026-05-02T10:17:19.251Z</time></trkpt><trkpt lat="43.2130862" lon="11.3709322"><ele>222.0</ele><time>2026-05-02T10:17:20.25Z</time></trkpt><trkpt lat="43.2130185" lon="11.370802"><ele>222.0</ele><time>2026-05-02T10:17:21.25Z</time></trkpt><trkpt lat="43.21296" lon="11.3706787"><ele>222.0</ele><time>2026-05-02T10:17:22.251Z</time></trkpt><trkpt lat="43.2129025" lon="11.3705607"><ele>222.0</ele><time>2026-05-02T10:17:23.252Z</time></trkpt><trkpt lat="43.2128438" lon="11.370441"><ele>222.0</ele><time>2026-05-02T10:17:24.251Z</time></trkpt><trkpt lat="43.2127832" lon="11.3703192"><ele>222.0</ele><time>2026-05-02T10:17:25.251Z</time></trkpt><trkpt lat="43.2127232" lon="11.3701972"><ele>223.25</ele><time>2026-05-02T10:17:26.253Z</time></trkpt><trkpt lat="43.2126618" lon="11.3700732"><ele>224.5</ele><time>2026-05-02T10:17:27.251Z</time></trkpt><trkpt lat="43.2125945" lon="11.3699487"><ele>225.75</ele><time>2026-05-02T10:17:28.253Z</time></trkpt><trkpt lat="43.2125227" lon="11.3698255"><ele>227.0</ele><time>2026-05-02T10:17:29.253Z</time></trkpt><trkpt lat="43.2124487" lon="11.369703"><ele>226.5</ele><time>2026-05-02T10:17:30.251Z</time></trkpt><trkpt lat="43.2123707" lon="11.3695825"><ele>226.0</ele><time>2026-05-02T10:17:31.251Z</time></trkpt><trkpt lat="43.2122898" lon="11.36946"><ele>225.5</ele><time>2026-05-02T10:17:32.252Z</time></trkpt><trkpt lat="43.2122065" lon="11.369339"><ele>225.0</ele><time>2026-05-02T10:17:33.25Z</time></trkpt><trkpt lat="43.2121208" lon="11.3692282"><ele>227.25</ele><time>2026-05-02T10:17:34.25Z</time></trkpt><trkpt lat="43.212027" lon="11.369129"><ele>229.5</ele><time>2026-05-02T10:17:35.25Z</time></trkpt><trkpt lat="43.211923" lon="11.3690382"><ele>231.75</ele><time>2026-05-02T10:17:36.25Z</time></trkpt><trkpt lat="43.211812" lon="11.3689553"><ele>234.0</ele><time>2026-05-02T10:17:37.249Z</time></trkpt><trkpt lat="43.2116965" lon="11.368878"><ele>233.75</ele><time>2026-05-02T10:17:38.25Z</time></trkpt><trkpt lat="43.2115755" lon="11.3688088"><ele>233.5</ele><time>2026-05-02T10:17:39.25Z</time></trkpt><trkpt lat="43.2114492" lon="11.3687515"><ele>233.25</ele><time>2026-05-02T10:17:40.249Z</time></trkpt><trkpt lat="43.211315" lon="11.3687002"><ele>233.0</ele><time>2026-05-02T10:17:41.254Z</time></trkpt><trkpt lat="43.2111765" lon="11.368654"><ele>233.0</ele><time>2026-05-02T10:17:42.255Z</time></trkpt><trkpt lat="43.2110382" lon="11.3686103"><ele>233.0</ele><time>2026-05-02T10:17:43.252Z</time></trkpt><trkpt lat="43.2109058" lon="11.3685643"><ele>233.0</ele><time>2026-05-02T10:17:44.252Z</time></trkpt><trkpt lat="43.2107727" lon="11.3685178"><ele>233.0</ele><time>2026-05-02T10:17:45.251Z</time></trkpt><trkpt lat="43.2106385" lon="11.3684733"><ele>232.5</ele><time>2026-05-02T10:17:46.251Z</time></trkpt><trkpt lat="43.2105133" lon="11.3684288"><ele>232.0</ele><time>2026-05-02T10:17:47.254Z</time></trkpt><trkpt lat="43.2103887" lon="11.3683875"><ele>231.5</ele><time>2026-05-02T10:17:48.254Z</time></trkpt><trkpt lat="43.210259" lon="11.3683465"><ele>231.0</ele><time>2026-05-02T10:17:49.253Z</time></trkpt><trkpt lat="43.210137" lon="11.3683028"><ele>231.0</ele><time>2026-05-02T10:17:50.255Z</time></trkpt><trkpt lat="43.2100247" lon="11.3682603"><ele>231.00000000000003</ele><time>2026-05-02T10:17:51.252Z</time></trkpt><trkpt lat="43.2099208" lon="11.3682263"><ele>231.00000000000003</ele><time>2026-05-02T10:17:52.252Z</time></trkpt><trkpt lat="43.2098257" lon="11.3682082"><ele>231.0</ele><time>2026-05-02T10:17:53.251Z</time></trkpt><trkpt lat="43.209734" lon="11.368218"><ele>231.0</ele><time>2026-05-02T10:17:54.253Z</time></trkpt><trkpt lat="43.2096467" lon="11.3682638"><ele>233.8</ele><time>2026-05-02T10:17:55.253Z</time></trkpt><trkpt lat="43.2095647" lon="11.3683447"><ele>236.60000000000002</ele><time>2026-05-02T10:17:56.253Z</time></trkpt><trkpt lat="43.2094878" lon="11.3684503"><ele>239.4</ele><time>2026-05-02T10:17:57.254Z</time></trkpt><trkpt lat="43.20941" lon="11.368569"><ele>242.2</ele><time>2026-05-02T10:17:58.252Z</time></trkpt><trkpt lat="43.2093302" lon="11.3686912"><ele>245.0</ele><time>2026-05-02T10:17:59.253Z</time></trkpt><trkpt lat="43.2092505" lon="11.3688173"><ele>243.5</ele><time>2026-05-02T10:18:00.252Z</time></trkpt><trkpt lat="43.2091715" lon="11.368948"><ele>242.0</ele><time>2026-05-02T10:18:01.25Z</time></trkpt><trkpt lat="43.2090867" lon="11.3690775"><ele>240.5</ele><time>2026-05-02T10:18:02.25Z</time></trkpt><trkpt lat="43.2089987" lon="11.3692037"><ele>239.0</ele><time>2026-05-02T10:18:03.251Z</time></trkpt><trkpt lat="43.2089082" lon="11.3693295"><ele>242.5</ele><time>2026-05-02T10:18:04.251Z</time></trkpt><trkpt lat="43.2088173" lon="11.3694553"><ele>246.0</ele><time>2026-05-02T10:18:05.254Z</time></trkpt><trkpt lat="43.2087225" lon="11.3695847"><ele>249.5</ele><time>2026-05-02T10:18:06.251Z</time></trkpt><trkpt lat="43.2086267" lon="11.3697168"><ele>253.0</ele><time>2026-05-02T10:18:07.25Z</time></trkpt><trkpt lat="43.2085312" lon="11.3698512"><ele>253.0</ele><time>2026-05-02T10:18:08.251Z</time></trkpt><trkpt lat="43.2084383" lon="11.3699862"><ele>253.0</ele><time>2026-05-02T10:18:09.251Z</time></trkpt><trkpt lat="43.2083445" lon="11.3701195"><ele>253.0</ele><time>2026-05-02T10:18:10.251Z</time></trkpt><trkpt lat="43.2082493" lon="11.3702528"><ele>253.0</ele><time>2026-05-02T10:18:11.252Z</time></trkpt><trkpt lat="43.2081543" lon="11.3703868"><ele>257.25</ele><time>2026-05-02T10:18:12.25Z</time></trkpt><trkpt lat="43.208058" lon="11.370519"><ele>261.5</ele><time>2026-05-02T10:18:13.252Z</time></trkpt><trkpt lat="43.2079637" lon="11.370657"><ele>265.75</ele><time>2026-05-02T10:18:14.25Z</time></trkpt><trkpt lat="43.2078702" lon="11.3707895"><ele>270.0</ele><time>2026-05-02T10:18:15.252Z</time></trkpt><trkpt lat="43.2077772" lon="11.3709267"><ele>270.0</ele><time>2026-05-02T10:18:16.25Z</time></trkpt><trkpt lat="43.207681" lon="11.3710633"><ele>270.0</ele><time>2026-05-02T10:18:17.252Z</time></trkpt><trkpt lat="43.2075818" lon="11.3711988"><ele>270.0</ele><time>2026-05-02T10:18:18.251Z</time></trkpt><trkpt lat="43.2074808" lon="11.3713248"><ele>270.0</ele><time>2026-05-02T10:18:19.252Z</time></trkpt><trkpt lat="43.2073798" lon="11.3714527"><ele>274.25</ele><time>2026-05-02T10:18:20.25Z</time></trkpt><trkpt lat="43.2072852" lon="11.371579"><ele>278.5</ele><time>2026-05-02T10:18:21.252Z</time></trkpt><trkpt lat="43.2072012" lon="11.3717102"><ele>282.75</ele><time>2026-05-02T10:18:22.252Z</time></trkpt><trkpt lat="43.2071237" lon="11.3718503"><ele>287.0</ele><time>2026-05-02T10:18:23.25Z</time></trkpt><trkpt lat="43.2070532" lon="11.3719908"><ele>287.0</ele><time>2026-05-02T10:18:24.25Z</time></trkpt><trkpt lat="43.2069842" lon="11.3721282"><ele>287.0</ele><time>2026-05-02T10:18:25.251Z</time></trkpt><trkpt lat="43.2069175" lon="11.3722577"><ele>287.0</ele><time>2026-05-02T10:18:26.249Z</time></trkpt><trkpt lat="43.2068497" lon="11.3723803"><ele>287.0</ele><time>2026-05-02T10:18:27.251Z</time></trkpt><trkpt lat="43.2067733" lon="11.3725033"><ele>287.5</ele><time>2026-05-02T10:18:28.252Z</time></trkpt><trkpt lat="43.2066913" lon="11.3726193"><ele>288.0</ele><time>2026-05-02T10:18:29.25Z</time></trkpt><trkpt lat="43.2065997" lon="11.3727267"><ele>288.5</ele><time>2026-05-02T10:18:30.255Z</time></trkpt><trkpt lat="43.2064953" lon="11.3728242"><ele>289.0</ele><time>2026-05-02T10:18:31.252Z</time></trkpt><trkpt lat="43.2063778" lon="11.3729143"><ele>289.0</ele><time>2026-05-02T10:18:32.252Z</time></trkpt><trkpt lat="43.2062513" lon="11.3730047"><ele>289.0</ele><time>2026-05-02T10:18:33.251Z</time></trkpt><trkpt lat="43.2061287" lon="11.373089"><ele>289.0</ele><time>2026-05-02T10:18:34.25Z</time></trkpt><trkpt lat="43.206007" lon="11.3731665"><ele>289.0</ele><time>2026-05-02T10:18:35.252Z</time></trkpt><trkpt lat="43.2058893" lon="11.3732492"><ele>283.75</ele><time>2026-05-02T10:18:36.252Z</time></trkpt><trkpt lat="43.2057802" lon="11.3733445"><ele>278.5</ele><time>2026-05-02T10:18:37.251Z</time></trkpt><trkpt lat="43.205678" lon="11.373443"><ele>273.25</ele><time>2026-05-02T10:18:38.253Z</time></trkpt><trkpt lat="43.2055827" lon="11.3735398"><ele>268.0</ele><time>2026-05-02T10:18:39.252Z</time></trkpt><trkpt lat="43.2054878" lon="11.3736247"><ele>268.0</ele><time>2026-05-02T10:18:40.255Z</time></trkpt><trkpt lat="43.2053863" lon="11.3736867"><ele>268.0</ele><time>2026-05-02T10:18:41.252Z</time></trkpt><trkpt lat="43.205275" lon="11.373726"><ele>268.0</ele><time>2026-05-02T10:18:42.251Z</time></trkpt><trkpt lat="43.205152" lon="11.3737365"><ele>268.0</ele><time>2026-05-02T10:18:43.251Z</time></trkpt><trkpt lat="43.2050213" lon="11.3737282"><ele>268.0</ele><time>2026-05-02T10:18:44.253Z</time></trkpt><trkpt lat="43.2048868" lon="11.373723"><ele>268.0</ele><time>2026-05-02T10:18:45.251Z</time></trkpt><trkpt lat="43.20475" lon="11.3737342"><ele>268.0</ele><time>2026-05-02T10:18:46.254Z</time></trkpt><trkpt lat="43.2046173" lon="11.373763"><ele>268.0</ele><time>2026-05-02T10:18:47.252Z</time></trkpt><trkpt lat="43.2044765" lon="11.3738067"><ele>262.3333333333333</ele><time>2026-05-02T10:18:48.252Z</time></trkpt><trkpt lat="43.2043288" lon="11.3738588"><ele>256.6666666666667</ele><time>2026-05-02T10:18:49.253Z</time></trkpt><trkpt lat="43.2041802" lon="11.3739108"><ele>251.0</ele><time>2026-05-02T10:18:50.251Z</time></trkpt><trkpt lat="43.2040363" lon="11.3739568"><ele>252.75</ele><time>2026-05-02T10:18:51.249Z</time></trkpt><trkpt lat="43.2039035" lon="11.3740015"><ele>254.5</ele><time>2026-05-02T10:18:52.252Z</time></trkpt><trkpt lat="43.2037778" lon="11.3740667"><ele>256.25</ele><time>2026-05-02T10:18:53.25Z</time></trkpt><trkpt lat="43.2036552" lon="11.3741543"><ele>258.0</ele><time>2026-05-02T10:18:54.25Z</time></trkpt><trkpt lat="43.2035373" lon="11.3742603"><ele>258.0</ele><time>2026-05-02T10:18:55.252Z</time></trkpt><trkpt lat="43.2034278" lon="11.374358"><ele>258.0</ele><time>2026-05-02T10:18:56.253Z</time></trkpt><trkpt lat="43.2033147" lon="11.3744358"><ele>258.0</ele><time>2026-05-02T10:18:57.253Z</time></trkpt><trkpt lat="43.2031893" lon="11.3744927"><ele>258.0</ele><time>2026-05-02T10:18:58.252Z</time></trkpt><trkpt lat="43.2030542" lon="11.3745352"><ele>259.75</ele><time>2026-05-02T10:18:59.254Z</time></trkpt><trkpt lat="43.2029162" lon="11.374568"><ele>261.5</ele><time>2026-05-02T10:19:00.252Z</time></trkpt><trkpt lat="43.2027733" lon="11.3746022"><ele>263.25</ele><time>2026-05-02T10:19:01.252Z</time></trkpt><trkpt lat="43.2026312" lon="11.3746397"><ele>265.0</ele><time>2026-05-02T10:19:02.252Z</time></trkpt><trkpt lat="43.202486" lon="11.3746805"><ele>265.25</ele><time>2026-05-02T10:19:03.251Z</time></trkpt><trkpt lat="43.2023437" lon="11.3747185"><ele>265.5</ele><time>2026-05-02T10:19:04.251Z</time></trkpt><trkpt lat="43.2022093" lon="11.3747587"><ele>265.75</ele><time>2026-05-02T10:19:05.252Z</time></trkpt><trkpt lat="43.2020878" lon="11.3747945"><ele>266.0</ele><time>2026-05-02T10:19:06.253Z</time></trkpt><trkpt lat="43.2019803" lon="11.3748267"><ele>266.0</ele><time>2026-05-02T10:19:07.251Z</time></trkpt><trkpt lat="43.2018793" lon="11.374868"><ele>266.0</ele><time>2026-05-02T10:19:08.252Z</time></trkpt><trkpt lat="43.2017748" lon="11.3749272"><ele>266.0</ele><time>2026-05-02T10:19:09.251Z</time></trkpt><trkpt lat="43.2016723" lon="11.3749977"><ele>266.0</ele><time>2026-05-02T10:19:10.252Z</time></trkpt><trkpt lat="43.2015687" lon="11.3750743"><ele>267.0</ele><time>2026-05-02T10:19:11.251Z</time></trkpt><trkpt lat="43.2014663" lon="11.3751503"><ele>268.0</ele><time>2026-05-02T10:19:12.252Z</time></trkpt><trkpt lat="43.2013738" lon="11.3752177"><ele>269.0</ele><time>2026-05-02T10:19:13.251Z</time></trkpt><trkpt lat="43.2012965" lon="11.3752755"><ele>270.0</ele><time>2026-05-02T10:19:14.252Z</time></trkpt><trkpt lat="43.2012257" lon="11.375321"><ele>271.0</ele><time>2026-05-02T10:19:15.249Z</time></trkpt><trkpt lat="43.2011675" lon="11.3753592"><ele>271.0</ele><time>2026-05-02T10:19:16.25Z</time></trkpt><trkpt lat="43.2010678" lon="11.3753975"><ele>271.0</ele><time>2026-05-02T10:19:18.248Z</time></trkpt><trkpt lat="43.2009695" lon="11.3753935"><ele>271.0</ele><time>2026-05-02T10:19:20.25Z</time></trkpt><trkpt lat="43.2008438" lon="11.3753348"><ele>271.0</ele><time>2026-05-02T10:19:22.25Z</time></trkpt><trkpt lat="43.2007652" lon="11.375292"><ele>271.0</ele><time>2026-05-02T10:19:23.252Z</time></trkpt><trkpt lat="43.2006772" lon="11.3752427"><ele>268.0</ele><time>2026-05-02T10:19:24.249Z</time></trkpt><trkpt lat="43.200587" lon="11.3751878"><ele>265.0</ele><time>2026-05-02T10:19:25.25Z</time></trkpt><trkpt lat="43.2004973" lon="11.3751305"><ele>262.0</ele><time>2026-05-02T10:19:26.253Z</time></trkpt><trkpt lat="43.2004115" lon="11.3750772"><ele>259.0</ele><time>2026-05-02T10:19:27.252Z</time></trkpt><trkpt lat="43.2003292" lon="11.3750318"><ele>256.0</ele><time>2026-05-02T10:19:28.252Z</time></trkpt><trkpt lat="43.2002518" lon="11.375001"><ele>255.99999999999997</ele><time>2026-05-02T10:19:29.253Z</time></trkpt><trkpt lat="43.2001787" lon="11.374991"><ele>256.0</ele><time>2026-05-02T10:19:30.252Z</time></trkpt><trkpt lat="43.2001063" lon="11.3750093"><ele>256.0</ele><time>2026-05-02T10:19:31.252Z</time></trkpt><trkpt lat="43.2000432" lon="11.375061"><ele>256.0</ele><time>2026-05-02T10:19:32.254Z</time></trkpt><trkpt lat="43.1999927" lon="11.3751435"><ele>255.99999999999997</ele><time>2026-05-02T10:19:33.252Z</time></trkpt><trkpt lat="43.1999483" lon="11.3752417"><ele>256.0</ele><time>2026-05-02T10:19:34.254Z</time></trkpt><trkpt lat="43.1999007" lon="11.3753473"><ele>256.0</ele><time>2026-05-02T10:19:35.252Z</time></trkpt><trkpt lat="43.199844" lon="11.3754525"><ele>256.0</ele><time>2026-05-02T10:19:36.251Z</time></trkpt><trkpt lat="43.1997798" lon="11.3755527"><ele>256.0</ele><time>2026-05-02T10:19:37.253Z</time></trkpt><trkpt lat="43.1997035" lon="11.3756497"><ele>256.0</ele><time>2026-05-02T10:19:38.253Z</time></trkpt><trkpt lat="43.1996183" lon="11.3757495"><ele>256.0</ele><time>2026-05-02T10:19:39.252Z</time></trkpt><trkpt lat="43.1995337" lon="11.3758527"><ele>253.60000000000002</ele><time>2026-05-02T10:19:40.249Z</time></trkpt><trkpt lat="43.1994508" lon="11.375953"><ele>251.20000000000002</ele><time>2026-05-02T10:19:41.251Z</time></trkpt><trkpt lat="43.199364" lon="11.3760448"><ele>248.79999999999998</ele><time>2026-05-02T10:19:42.254Z</time></trkpt><trkpt lat="43.19927" lon="11.376118"><ele>246.39999999999998</ele><time>2026-05-02T10:19:43.254Z</time></trkpt><trkpt lat="43.199167" lon="11.3761628"><ele>244.0</ele><time>2026-05-02T10:19:44.254Z</time></trkpt><trkpt lat="43.1990547" lon="11.3761917"><ele>242.0</ele><time>2026-05-02T10:19:45.255Z</time></trkpt><trkpt lat="43.1989385" lon="11.3762185"><ele>240.0</ele><time>2026-05-02T10:19:46.254Z</time></trkpt><trkpt lat="43.1988227" lon="11.3762465"><ele>238.0</ele><time>2026-05-02T10:19:47.254Z</time></trkpt><trkpt lat="43.1987098" lon="11.376272"><ele>236.0</ele><time>2026-05-02T10:19:48.254Z</time></trkpt><trkpt lat="43.1986002" lon="11.3763047"><ele>236.0</ele><time>2026-05-02T10:19:49.252Z</time></trkpt><trkpt lat="43.1984948" lon="11.3763473"><ele>236.00000000000003</ele><time>2026-05-02T10:19:50.254Z</time></trkpt><trkpt lat="43.198395" lon="11.3764067"><ele>236.00000000000003</ele><time>2026-05-02T10:19:51.254Z</time></trkpt><trkpt lat="43.1982997" lon="11.3764817"><ele>236.0</ele><time>2026-05-02T10:19:52.253Z</time></trkpt><trkpt lat="43.1982075" lon="11.376574"><ele>236.0</ele><time>2026-05-02T10:19:53.253Z</time></trkpt><trkpt lat="43.1981153" lon="11.3766815"><ele>236.0</ele><time>2026-05-02T10:19:54.255Z</time></trkpt><trkpt lat="43.1980208" lon="11.3767905"><ele>236.0</ele><time>2026-05-02T10:19:55.253Z</time></trkpt><trkpt lat="43.1979207" lon="11.3768915"><ele>236.0</ele><time>2026-05-02T10:19:56.253Z</time></trkpt><trkpt lat="43.1978127" lon="11.3769895"><ele>236.0</ele><time>2026-05-02T10:19:57.252Z</time></trkpt><trkpt lat="43.197697" lon="11.3770855"><ele>236.0</ele><time>2026-05-02T10:19:58.254Z</time></trkpt><trkpt lat="43.1975767" lon="11.3771755"><ele>236.0</ele><time>2026-05-02T10:19:59.253Z</time></trkpt><trkpt lat="43.1974532" lon="11.3772585"><ele>236.0</ele><time>2026-05-02T10:20:00.252Z</time></trkpt><trkpt lat="43.1973268" lon="11.3773402"><ele>236.0</ele><time>2026-05-02T10:20:01.254Z</time></trkpt><trkpt lat="43.1972003" lon="11.3774215"><ele>235.0</ele><time>2026-05-02T10:20:02.253Z</time></trkpt><trkpt lat="43.1970797" lon="11.377501"><ele>234.0</ele><time>2026-05-02T10:20:03.253Z</time></trkpt><trkpt lat="43.1969613" lon="11.37758"><ele>233.0</ele><time>2026-05-02T10:20:04.249Z</time></trkpt><trkpt lat="43.1968422" lon="11.3776617"><ele>232.0</ele><time>2026-05-02T10:20:05.249Z</time></trkpt><trkpt lat="43.1967235" lon="11.3777475"><ele>232.0</ele><time>2026-05-02T10:20:06.249Z</time></trkpt><trkpt lat="43.196603" lon="11.377836"><ele>232.0</ele><time>2026-05-02T10:20:07.251Z</time></trkpt><trkpt lat="43.1964792" lon="11.3779272"><ele>232.0</ele><time>2026-05-02T10:20:08.252Z</time></trkpt><trkpt lat="43.1963513" lon="11.3780175"><ele>232.0</ele><time>2026-05-02T10:20:09.252Z</time></trkpt><trkpt lat="43.1962203" lon="11.3781048"><ele>232.5</ele><time>2026-05-02T10:20:10.251Z</time></trkpt><trkpt lat="43.1960868" lon="11.3781888"><ele>233.0</ele><time>2026-05-02T10:20:11.256Z</time></trkpt><trkpt lat="43.1959503" lon="11.3782665"><ele>233.5</ele><time>2026-05-02T10:20:12.253Z</time></trkpt><trkpt lat="43.1958157" lon="11.3783385"><ele>234.0</ele><time>2026-05-02T10:20:13.252Z</time></trkpt><trkpt lat="43.1956813" lon="11.3783978"><ele>233.0</ele><time>2026-05-02T10:20:14.253Z</time></trkpt><trkpt lat="43.1955538" lon="11.3784522"><ele>232.0</ele><time>2026-05-02T10:20:15.249Z</time></trkpt><trkpt lat="43.1954323" lon="11.3785087"><ele>231.0</ele><time>2026-05-02T10:20:16.25Z</time></trkpt><trkpt lat="43.1953203" lon="11.3785827"><ele>230.0</ele><time>2026-05-02T10:20:17.25Z</time></trkpt><trkpt lat="43.195214" lon="11.378679"><ele>230.0</ele><time>2026-05-02T10:20:18.25Z</time></trkpt><trkpt lat="43.1951115" lon="11.3787983"><ele>230.0</ele><time>2026-05-02T10:20:19.25Z</time></trkpt><trkpt lat="43.1950152" lon="11.3789273"><ele>230.0</ele><time>2026-05-02T10:20:20.252Z</time></trkpt><trkpt lat="43.1949263" lon="11.3790517"><ele>230.0</ele><time>2026-05-02T10:20:21.253Z</time></trkpt><trkpt lat="43.1948463" lon="11.3791782"><ele>229.25</ele><time>2026-05-02T10:20:22.255Z</time></trkpt><trkpt lat="43.1947753" lon="11.3793117"><ele>228.5</ele><time>2026-05-02T10:20:23.256Z</time></trkpt><trkpt lat="43.1947132" lon="11.3794572"><ele>227.75</ele><time>2026-05-02T10:20:24.255Z</time></trkpt><trkpt lat="43.1946583" lon="11.3796205"><ele>227.0</ele><time>2026-05-02T10:20:25.252Z</time></trkpt><trkpt lat="43.1946145" lon="11.3798013"><ele>227.0</ele><time>2026-05-02T10:20:26.254Z</time></trkpt><trkpt lat="43.1945807" lon="11.379996"><ele>227.0</ele><time>2026-05-02T10:20:27.253Z</time></trkpt><trkpt lat="43.1945578" lon="11.3801998"><ele>227.0</ele><time>2026-05-02T10:20:28.249Z</time></trkpt><trkpt lat="43.1945422" lon="11.3804053"><ele>227.0</ele><time>2026-05-02T10:20:29.249Z</time></trkpt><trkpt lat="43.1945297" lon="11.3806042"><ele>227.25</ele><time>2026-05-02T10:20:30.249Z</time></trkpt><trkpt lat="43.1945127" lon="11.3807837"><ele>227.5</ele><time>2026-05-02T10:20:31.25Z</time></trkpt><trkpt lat="43.194479" lon="11.3809525"><ele>227.75</ele><time>2026-05-02T10:20:32.255Z</time></trkpt><trkpt lat="43.1944317" lon="11.3811237"><ele>228.0</ele><time>2026-05-02T10:20:33.255Z</time></trkpt><trkpt lat="43.1943758" lon="11.381298"><ele>228.0</ele><time>2026-05-02T10:20:34.254Z</time></trkpt><trkpt lat="43.1943145" lon="11.3814763"><ele>228.0</ele><time>2026-05-02T10:20:35.254Z</time></trkpt><trkpt lat="43.1942495" lon="11.3816557"><ele>228.0</ele><time>2026-05-02T10:20:36.253Z</time></trkpt><trkpt lat="43.1941845" lon="11.3818383"><ele>228.0</ele><time>2026-05-02T10:20:37.255Z</time></trkpt><trkpt lat="43.1941193" lon="11.3820242"><ele>227.66666666666669</ele><time>2026-05-02T10:20:38.253Z</time></trkpt><trkpt lat="43.1940525" lon="11.3822118"><ele>227.33333333333334</ele><time>2026-05-02T10:20:39.254Z</time></trkpt><trkpt lat="43.193986" lon="11.3823988"><ele>227.0</ele><time>2026-05-02T10:20:40.25Z</time></trkpt><trkpt lat="43.1939197" lon="11.382588"><ele>226.75</ele><time>2026-05-02T10:20:41.255Z</time></trkpt><trkpt lat="43.1938542" lon="11.3827677"><ele>226.5</ele><time>2026-05-02T10:20:42.251Z</time></trkpt><trkpt lat="43.1937935" lon="11.3829317"><ele>226.25</ele><time>2026-05-02T10:20:43.253Z</time></trkpt><trkpt lat="43.1937372" lon="11.3830852"><ele>226.0</ele><time>2026-05-02T10:20:44.253Z</time></trkpt><trkpt lat="43.1936705" lon="11.3832223"><ele>226.0</ele><time>2026-05-02T10:20:45.252Z</time></trkpt><trkpt lat="43.1935885" lon="11.383338"><ele>226.0</ele><time>2026-05-02T10:20:46.252Z</time></trkpt><trkpt lat="43.1934925" lon="11.3834263"><ele>226.0</ele><time>2026-05-02T10:20:47.252Z</time></trkpt><trkpt lat="43.1933793" lon="11.3834938"><ele>226.0</ele><time>2026-05-02T10:20:48.252Z</time></trkpt><trkpt lat="43.1932552" lon="11.383549"><ele>224.75</ele><time>2026-05-02T10:20:49.253Z</time></trkpt><trkpt lat="43.193123" lon="11.3836053"><ele>223.5</ele><time>2026-05-02T10:20:50.251Z</time></trkpt><trkpt lat="43.1929883" lon="11.3836723"><ele>222.25</ele><time>2026-05-02T10:20:51.25Z</time></trkpt><trkpt lat="43.1928537" lon="11.3837467"><ele>221.0</ele><time>2026-05-02T10:20:52.252Z</time></trkpt><trkpt lat="43.1927245" lon="11.3838187"><ele>221.75</ele><time>2026-05-02T10:20:53.249Z</time></trkpt><trkpt lat="43.1925995" lon="11.3838802"><ele>222.5</ele><time>2026-05-02T10:20:54.251Z</time></trkpt><trkpt lat="43.1924732" lon="11.3839248"><ele>223.25</ele><time>2026-05-02T10:20:55.251Z</time></trkpt><trkpt lat="43.192346" lon="11.3839503"><ele>224.0</ele><time>2026-05-02T10:20:56.252Z</time></trkpt><trkpt lat="43.1922197" lon="11.383959"><ele>224.2</ele><time>2026-05-02T10:20:57.251Z</time></trkpt><trkpt lat="43.1921008" lon="11.3839537"><ele>224.39999999999998</ele><time>2026-05-02T10:20:58.253Z</time></trkpt><trkpt lat="43.1919918" lon="11.3839485"><ele>224.6</ele><time>2026-05-02T10:20:59.252Z</time></trkpt><trkpt lat="43.1918893" lon="11.3839622"><ele>224.8</ele><time>2026-05-02T10:21:00.253Z</time></trkpt><trkpt lat="43.1917933" lon="11.3840133"><ele>225.0</ele><time>2026-05-02T10:21:01.253Z</time></trkpt><trkpt lat="43.1916997" lon="11.3840928"><ele>225.0</ele><time>2026-05-02T10:21:02.252Z</time></trkpt><trkpt lat="43.1916085" lon="11.3841958"><ele>225.0</ele><time>2026-05-02T10:21:03.251Z</time></trkpt><trkpt lat="43.1915267" lon="11.3843125"><ele>225.0</ele><time>2026-05-02T10:21:04.252Z</time></trkpt><trkpt lat="43.1914502" lon="11.3844398"><ele>225.0</ele><time>2026-05-02T10:21:05.252Z</time></trkpt><trkpt lat="43.1913663" lon="11.3845702"><ele>225.75</ele><time>2026-05-02T10:21:06.25Z</time></trkpt><trkpt lat="43.1912803" lon="11.3846965"><ele>226.5</ele><time>2026-05-02T10:21:07.251Z</time></trkpt><trkpt lat="43.1911893" lon="11.3848183"><ele>227.25</ele><time>2026-05-02T10:21:08.256Z</time></trkpt><trkpt lat="43.1910935" lon="11.3849382"><ele>228.0</ele><time>2026-05-02T10:21:09.251Z</time></trkpt><trkpt lat="43.190987" lon="11.3850453"><ele>228.0</ele><time>2026-05-02T10:21:10.25Z</time></trkpt><trkpt lat="43.1908755" lon="11.3851468"><ele>228.0</ele><time>2026-05-02T10:21:11.252Z</time></trkpt><trkpt lat="43.1907605" lon="11.3852408"><ele>228.0</ele><time>2026-05-02T10:21:12.251Z</time></trkpt><trkpt lat="43.1906437" lon="11.3853245"><ele>228.0</ele><time>2026-05-02T10:21:13.251Z</time></trkpt><trkpt lat="43.1905263" lon="11.3853982"><ele>229.0</ele><time>2026-05-02T10:21:14.251Z</time></trkpt><trkpt lat="43.1904118" lon="11.3854577"><ele>230.0</ele><time>2026-05-02T10:21:15.25Z</time></trkpt><trkpt lat="43.1903012" lon="11.385506"><ele>231.0</ele><time>2026-05-02T10:21:16.249Z</time></trkpt><trkpt lat="43.1901832" lon="11.3855532"><ele>232.0</ele><time>2026-05-02T10:21:17.249Z</time></trkpt><trkpt lat="43.1900622" lon="11.385596"><ele>229.5</ele><time>2026-05-02T10:21:18.249Z</time></trkpt><trkpt lat="43.1899368" lon="11.3856213"><ele>227.0</ele><time>2026-05-02T10:21:19.248Z</time></trkpt><trkpt lat="43.1898058" lon="11.3856475"><ele>224.5</ele><time>2026-05-02T10:21:20.249Z</time></trkpt><trkpt lat="43.1896747" lon="11.3856762"><ele>222.0</ele><time>2026-05-02T10:21:21.249Z</time></trkpt><trkpt lat="43.189549" lon="11.3857063"><ele>221.25</ele><time>2026-05-02T10:21:22.252Z</time></trkpt><trkpt lat="43.1894253" lon="11.3857395"><ele>220.5</ele><time>2026-05-02T10:21:23.25Z</time></trkpt><trkpt lat="43.1893022" lon="11.3857752"><ele>219.75</ele><time>2026-05-02T10:21:24.25Z</time></trkpt><trkpt lat="43.1891732" lon="11.3858172"><ele>219.0</ele><time>2026-05-02T10:21:25.25Z</time></trkpt><trkpt lat="43.1890402" lon="11.3858618"><ele>220.75</ele><time>2026-05-02T10:21:26.251Z</time></trkpt><trkpt lat="43.1889053" lon="11.3859087"><ele>222.5</ele><time>2026-05-02T10:21:27.251Z</time></trkpt><trkpt lat="43.1887775" lon="11.3859395"><ele>224.25</ele><time>2026-05-02T10:21:28.252Z</time></trkpt><trkpt lat="43.1886593" lon="11.3859387"><ele>226.0</ele><time>2026-05-02T10:21:29.25Z</time></trkpt><trkpt lat="43.1885473" lon="11.3859025"><ele>226.0</ele><time>2026-05-02T10:21:30.251Z</time></trkpt><trkpt lat="43.1884418" lon="11.3858343"><ele>226.0</ele><time>2026-05-02T10:21:31.25Z</time></trkpt><trkpt lat="43.188335" lon="11.3857512"><ele>226.0</ele><time>2026-05-02T10:21:32.253Z</time></trkpt><trkpt lat="43.1882198" lon="11.3856552"><ele>226.0</ele><time>2026-05-02T10:21:33.249Z</time></trkpt><trkpt lat="43.1880965" lon="11.3855557"><ele>230.66666666666666</ele><time>2026-05-02T10:21:34.25Z</time></trkpt><trkpt lat="43.1879628" lon="11.3854697"><ele>235.33333333333331</ele><time>2026-05-02T10:21:35.25Z</time></trkpt><trkpt lat="43.1878182" lon="11.385394"><ele>240.0</ele><time>2026-05-02T10:21:36.249Z</time></trkpt><trkpt lat="43.1876717" lon="11.3853275"><ele>240.0</ele><time>2026-05-02T10:21:37.249Z</time></trkpt><trkpt lat="43.1875325" lon="11.3852795"><ele>240.0</ele><time>2026-05-02T10:21:38.251Z</time></trkpt><trkpt lat="43.1873948" lon="11.3852543"><ele>240.0</ele><time>2026-05-02T10:21:39.25Z</time></trkpt><trkpt lat="43.1872565" lon="11.3852507"><ele>240.0</ele><time>2026-05-02T10:21:40.249Z</time></trkpt><trkpt lat="43.1871145" lon="11.3852665"><ele>242.66666666666669</ele><time>2026-05-02T10:21:41.252Z</time></trkpt><trkpt lat="43.1869668" lon="11.3852955"><ele>245.33333333333334</ele><time>2026-05-02T10:21:42.247Z</time></trkpt><trkpt lat="43.1868152" lon="11.3853277"><ele>248.0</ele><time>2026-05-02T10:21:43.247Z</time></trkpt><trkpt lat="43.1866587" lon="11.3853602"><ele>250.66666666666669</ele><time>2026-05-02T10:21:44.249Z</time></trkpt><trkpt lat="43.1864962" lon="11.3853887"><ele>253.33333333333331</ele><time>2026-05-02T10:21:45.249Z</time></trkpt><trkpt lat="43.186328" lon="11.3854095"><ele>256.0</ele><time>2026-05-02T10:21:46.251Z</time></trkpt><trkpt lat="43.1861573" lon="11.3854178"><ele>256.0</ele><time>2026-05-02T10:21:47.251Z</time></trkpt><trkpt lat="43.185989" lon="11.385421"><ele>256.0</ele><time>2026-05-02T10:21:48.25Z</time></trkpt><trkpt lat="43.1858355" lon="11.3854257"><ele>256.0</ele><time>2026-05-02T10:21:49.251Z</time></trkpt><trkpt lat="43.1857025" lon="11.3854283"><ele>258.2</ele><time>2026-05-02T10:21:50.25Z</time></trkpt><trkpt lat="43.1855862" lon="11.3854188"><ele>260.40000000000003</ele><time>2026-05-02T10:21:51.252Z</time></trkpt><trkpt lat="43.1854857" lon="11.3853925"><ele>262.6</ele><time>2026-05-02T10:21:52.251Z</time></trkpt><trkpt lat="43.1853893" lon="11.3853373"><ele>264.8</ele><time>2026-05-02T10:21:53.251Z</time></trkpt><trkpt lat="43.1852932" lon="11.3852512"><ele>267.0</ele><time>2026-05-02T10:21:54.252Z</time></trkpt><trkpt lat="43.1851965" lon="11.3851423"><ele>267.0</ele><time>2026-05-02T10:21:55.252Z</time></trkpt><trkpt lat="43.185104" lon="11.3850135"><ele>267.0</ele><time>2026-05-02T10:21:56.252Z</time></trkpt><trkpt lat="43.1850213" lon="11.3848733"><ele>267.0</ele><time>2026-05-02T10:21:57.25Z</time></trkpt><trkpt lat="43.1849365" lon="11.3847308"><ele>267.0</ele><time>2026-05-02T10:21:58.25Z</time></trkpt><trkpt lat="43.1848422" lon="11.384594"><ele>269.0</ele><time>2026-05-02T10:21:59.253Z</time></trkpt><trkpt lat="43.1847385" lon="11.3844637"><ele>271.0</ele><time>2026-05-02T10:22:00.251Z</time></trkpt><trkpt lat="43.1846262" lon="11.3843405"><ele>273.0</ele><time>2026-05-02T10:22:01.252Z</time></trkpt><trkpt lat="43.1845125" lon="11.3842238"><ele>275.0</ele><time>2026-05-02T10:22:02.253Z</time></trkpt><trkpt lat="43.1843983" lon="11.3841145"><ele>275.0</ele><time>2026-05-02T10:22:03.254Z</time></trkpt><trkpt lat="43.184276" lon="11.384014"><ele>275.0</ele><time>2026-05-02T10:22:04.253Z</time></trkpt><trkpt lat="43.184142" lon="11.3839293"><ele>275.0</ele><time>2026-05-02T10:22:05.255Z</time></trkpt><trkpt lat="43.1839958" lon="11.3838607"><ele>275.0</ele><time>2026-05-02T10:22:06.25Z</time></trkpt><trkpt lat="43.183841" lon="11.3838023"><ele>274.6666666666667</ele><time>2026-05-02T10:22:07.249Z</time></trkpt><trkpt lat="43.183693" lon="11.3837465"><ele>274.3333333333333</ele><time>2026-05-02T10:22:08.251Z</time></trkpt><trkpt lat="43.183549" lon="11.383692"><ele>274.0</ele><time>2026-05-02T10:22:09.25Z</time></trkpt><trkpt lat="43.1834018" lon="11.3836378"><ele>274.0</ele><time>2026-05-02T10:22:10.251Z</time></trkpt><trkpt lat="43.1832478" lon="11.383578"><ele>274.0</ele><time>2026-05-02T10:22:11.252Z</time></trkpt><trkpt lat="43.1830858" lon="11.3835093"><ele>274.0</ele><time>2026-05-02T10:22:12.252Z</time></trkpt><trkpt lat="43.1829228" lon="11.3834363"><ele>273.0</ele><time>2026-05-02T10:22:13.251Z</time></trkpt><trkpt lat="43.1827563" lon="11.3833632"><ele>272.0</ele><time>2026-05-02T10:22:14.253Z</time></trkpt><trkpt lat="43.1825853" lon="11.383284"><ele>271.0</ele><time>2026-05-02T10:22:15.251Z</time></trkpt><trkpt lat="43.1824113" lon="11.3832123"><ele>270.3333333333333</ele><time>2026-05-02T10:22:16.252Z</time></trkpt><trkpt lat="43.1822375" lon="11.3831565"><ele>269.6666666666667</ele><time>2026-05-02T10:22:17.252Z</time></trkpt><trkpt lat="43.1820753" lon="11.383112"><ele>269.0</ele><time>2026-05-02T10:22:18.252Z</time></trkpt><trkpt lat="43.1819282" lon="11.3830727"><ele>269.0</ele><time>2026-05-02T10:22:19.251Z</time></trkpt><trkpt lat="43.1817962" lon="11.3830385"><ele>269.0</ele><time>2026-05-02T10:22:20.253Z</time></trkpt><trkpt lat="43.1816748" lon="11.3830087"><ele>269.0</ele><time>2026-05-02T10:22:21.249Z</time></trkpt><trkpt lat="43.1815677" lon="11.3829835"><ele>269.0</ele><time>2026-05-02T10:22:22.25Z</time></trkpt><trkpt lat="43.1814712" lon="11.3829635"><ele>268.5</ele><time>2026-05-02T10:22:23.251Z</time></trkpt><trkpt lat="43.1813847" lon="11.3829442"><ele>268.0</ele><time>2026-05-02T10:22:24.251Z</time></trkpt><trkpt lat="43.1813085" lon="11.3829213"><ele>267.5</ele><time>2026-05-02T10:22:25.254Z</time></trkpt><trkpt lat="43.1812417" lon="11.3828952"><ele>267.0</ele><time>2026-05-02T10:22:26.253Z</time></trkpt><trkpt lat="43.1811817" lon="11.382869"><ele>266.5</ele><time>2026-05-02T10:22:27.253Z</time></trkpt><trkpt lat="43.1810765" lon="11.3828143"><ele>266.0</ele><time>2026-05-02T10:22:29.252Z</time></trkpt><trkpt lat="43.1809868" lon="11.3827592"><ele>266.0</ele><time>2026-05-02T10:22:31.25Z</time></trkpt><trkpt lat="43.180918" lon="11.3827052"><ele>266.0</ele><time>2026-05-02T10:22:33.251Z</time></trkpt><trkpt lat="43.18083" lon="11.3826802"><ele>266.0</ele><time>2026-05-02T10:23:15.25Z</time></trkpt><trkpt lat="43.1807205" lon="11.382768"><ele>266.0</ele><time>2026-05-02T10:23:17.253Z</time></trkpt><trkpt lat="43.1806523" lon="11.3828338"><ele>266.0</ele><time>2026-05-02T10:23:18.251Z</time></trkpt><trkpt lat="43.1805722" lon="11.3829168"><ele>266.0</ele><time>2026-05-02T10:23:19.252Z</time></trkpt><trkpt lat="43.1804818" lon="11.3830077"><ele>266.0</ele><time>2026-05-02T10:23:20.25Z</time></trkpt><trkpt lat="43.1803827" lon="11.3831028"><ele>266.0</ele><time>2026-05-02T10:23:21.25Z</time></trkpt><trkpt lat="43.1802732" lon="11.3832067"><ele>266.0</ele><time>2026-05-02T10:23:22.252Z</time></trkpt><trkpt lat="43.1801503" lon="11.3833125"><ele>266.0</ele><time>2026-05-02T10:23:23.251Z</time></trkpt><trkpt lat="43.1800145" lon="11.3834053"><ele>266.0</ele><time>2026-05-02T10:23:24.253Z</time></trkpt><trkpt lat="43.1798647" lon="11.3834908"><ele>266.0</ele><time>2026-05-02T10:23:25.251Z</time></trkpt><trkpt lat="43.1797047" lon="11.3835768"><ele>265.0</ele><time>2026-05-02T10:23:26.25Z</time></trkpt><trkpt lat="43.1795367" lon="11.3836657"><ele>264.0</ele><time>2026-05-02T10:23:27.249Z</time></trkpt><trkpt lat="43.1793647" lon="11.3837555"><ele>263.0</ele><time>2026-05-02T10:23:28.25Z</time></trkpt><trkpt lat="43.1791933" lon="11.3838468"><ele>265.0</ele><time>2026-05-02T10:23:29.25Z</time></trkpt><trkpt lat="43.1790265" lon="11.3839405"><ele>267.0</ele><time>2026-05-02T10:23:30.249Z</time></trkpt><trkpt lat="43.1788677" lon="11.3840513"><ele>269.0</ele><time>2026-05-02T10:23:31.252Z</time></trkpt><trkpt lat="43.178716" lon="11.3841887"><ele>269.0</ele><time>2026-05-02T10:23:32.25Z</time></trkpt><trkpt lat="43.17857" lon="11.3843583"><ele>269.0</ele><time>2026-05-02T10:23:33.25Z</time></trkpt><trkpt lat="43.1784263" lon="11.3845457"><ele>269.0</ele><time>2026-05-02T10:23:34.251Z</time></trkpt><trkpt lat="43.1782772" lon="11.3847298"><ele>269.0</ele><time>2026-05-02T10:23:35.251Z</time></trkpt><trkpt lat="43.1781125" lon="11.384896"><ele>269.0</ele><time>2026-05-02T10:23:36.252Z</time></trkpt><trkpt lat="43.177937" lon="11.3850463"><ele>269.0</ele><time>2026-05-02T10:23:37.251Z</time></trkpt><trkpt lat="43.1777632" lon="11.3851855"><ele>269.0</ele><time>2026-05-02T10:23:38.251Z</time></trkpt><trkpt lat="43.1776012" lon="11.3853223"><ele>269.0</ele><time>2026-05-02T10:23:39.25Z</time></trkpt><trkpt lat="43.177456" lon="11.3854702"><ele>269.0</ele><time>2026-05-02T10:23:40.252Z</time></trkpt><trkpt lat="43.1773305" lon="11.3856485"><ele>270.0</ele><time>2026-05-02T10:23:41.253Z</time></trkpt><trkpt lat="43.1772222" lon="11.3858602"><ele>271.0</ele><time>2026-05-02T10:23:42.251Z</time></trkpt><trkpt lat="43.1771218" lon="11.386098"><ele>272.0</ele><time>2026-05-02T10:23:43.252Z</time></trkpt><trkpt lat="43.1770202" lon="11.3863488"><ele>272.0</ele><time>2026-05-02T10:23:44.252Z</time></trkpt><trkpt lat="43.176914" lon="11.3866057"><ele>272.0</ele><time>2026-05-02T10:23:45.251Z</time></trkpt><trkpt lat="43.1768082" lon="11.3868625"><ele>272.0</ele><time>2026-05-02T10:23:46.249Z</time></trkpt><trkpt lat="43.1767062" lon="11.387108"><ele>271.33333333333337</ele><time>2026-05-02T10:23:47.247Z</time></trkpt><trkpt lat="43.176607" lon="11.3873422"><ele>270.6666666666667</ele><time>2026-05-02T10:23:48.251Z</time></trkpt><trkpt lat="43.1765072" lon="11.3875678"><ele>270.0</ele><time>2026-05-02T10:23:49.251Z</time></trkpt><trkpt lat="43.1763977" lon="11.3877767"><ele>271.3333333333333</ele><time>2026-05-02T10:23:50.253Z</time></trkpt><trkpt lat="43.1762717" lon="11.3879595"><ele>272.66666666666663</ele><time>2026-05-02T10:23:51.253Z</time></trkpt><trkpt lat="43.1761318" lon="11.3881162"><ele>274.0</ele><time>2026-05-02T10:23:52.253Z</time></trkpt><trkpt lat="43.1759752" lon="11.3882488"><ele>274.0</ele><time>2026-05-02T10:23:53.253Z</time></trkpt><trkpt lat="43.1758007" lon="11.3883585"><ele>274.0</ele><time>2026-05-02T10:23:54.251Z</time></trkpt><trkpt lat="43.1756127" lon="11.3884493"><ele>274.0</ele><time>2026-05-02T10:23:55.253Z</time></trkpt><trkpt lat="43.1754137" lon="11.3885383"><ele>273.66666666666663</ele><time>2026-05-02T10:23:56.257Z</time></trkpt><trkpt lat="43.1752072" lon="11.3886317"><ele>273.3333333333333</ele><time>2026-05-02T10:23:57.252Z</time></trkpt><trkpt lat="43.1749985" lon="11.3887247"><ele>273.0</ele><time>2026-05-02T10:23:58.252Z</time></trkpt><trkpt lat="43.1747898" lon="11.3888148"><ele>275.0</ele><time>2026-05-02T10:23:59.254Z</time></trkpt><trkpt lat="43.174585" lon="11.3889015"><ele>277.0</ele><time>2026-05-02T10:24:00.253Z</time></trkpt><trkpt lat="43.1743908" lon="11.3889853"><ele>279.0</ele><time>2026-05-02T10:24:01.254Z</time></trkpt><trkpt lat="43.1742135" lon="11.3890733"><ele>279.0</ele><time>2026-05-02T10:24:02.255Z</time></trkpt><trkpt lat="43.1740502" lon="11.3891805"><ele>279.0</ele><time>2026-05-02T10:24:03.252Z</time></trkpt><trkpt lat="43.1739005" lon="11.3893182"><ele>279.0</ele><time>2026-05-02T10:24:04.253Z</time></trkpt><trkpt lat="43.1737732" lon="11.3894732"><ele>280.75</ele><time>2026-05-02T10:24:05.253Z</time></trkpt><trkpt lat="43.173668" lon="11.38963"><ele>282.5</ele><time>2026-05-02T10:24:06.251Z</time></trkpt><trkpt lat="43.1735755" lon="11.389782"><ele>284.25</ele><time>2026-05-02T10:24:07.252Z</time></trkpt><trkpt lat="43.1734905" lon="11.3899297"><ele>286.0</ele><time>2026-05-02T10:24:08.254Z</time></trkpt><trkpt lat="43.1734053" lon="11.3900787"><ele>286.0</ele><time>2026-05-02T10:24:09.251Z</time></trkpt><trkpt lat="43.1733207" lon="11.3902175"><ele>286.0</ele><time>2026-05-02T10:24:10.25Z</time></trkpt><trkpt lat="43.173245" lon="11.3903333"><ele>286.0</ele><time>2026-05-02T10:24:11.251Z</time></trkpt><trkpt lat="43.173168" lon="11.3904458"><ele>286.0</ele><time>2026-05-02T10:24:12.251Z</time></trkpt><trkpt lat="43.1730792" lon="11.3905607"><ele>289.0</ele><time>2026-05-02T10:24:13.253Z</time></trkpt><trkpt lat="43.1729763" lon="11.3906618"><ele>292.0</ele><time>2026-05-02T10:24:14.253Z</time></trkpt><trkpt lat="43.172855" lon="11.3907435"><ele>295.0</ele><time>2026-05-02T10:24:15.252Z</time></trkpt><trkpt lat="43.1727187" lon="11.3908143"><ele>298.0</ele><time>2026-05-02T10:24:16.254Z</time></trkpt><trkpt lat="43.1725775" lon="11.3908818"><ele>298.0</ele><time>2026-05-02T10:24:17.253Z</time></trkpt><trkpt lat="43.1724358" lon="11.3909533"><ele>298.0</ele><time>2026-05-02T10:24:18.254Z</time></trkpt><trkpt lat="43.1722983" lon="11.3910222"><ele>298.0</ele><time>2026-05-02T10:24:19.252Z</time></trkpt><trkpt lat="43.1721693" lon="11.3910837"><ele>298.0</ele><time>2026-05-02T10:24:20.252Z</time></trkpt><trkpt lat="43.1720437" lon="11.3911452"><ele>299.75</ele><time>2026-05-02T10:24:21.25Z</time></trkpt><trkpt lat="43.1719178" lon="11.3912053"><ele>301.5</ele><time>2026-05-02T10:24:22.251Z</time></trkpt><trkpt lat="43.171789" lon="11.3912563"><ele>303.25</ele><time>2026-05-02T10:24:23.25Z</time></trkpt><trkpt lat="43.1716652" lon="11.3912895"><ele>305.0</ele><time>2026-05-02T10:24:24.251Z</time></trkpt><trkpt lat="43.1715487" lon="11.3913047"><ele>304.25</ele><time>2026-05-02T10:24:25.252Z</time></trkpt><trkpt lat="43.171436" lon="11.3913178"><ele>303.5</ele><time>2026-05-02T10:24:26.251Z</time></trkpt><trkpt lat="43.1713137" lon="11.3913178"><ele>302.75</ele><time>2026-05-02T10:24:27.25Z</time></trkpt><trkpt lat="43.171197" lon="11.3912938"><ele>302.0</ele><time>2026-05-02T10:24:28.25Z</time></trkpt><trkpt lat="43.1710875" lon="11.3912473"><ele>302.0</ele><time>2026-05-02T10:24:29.252Z</time></trkpt><trkpt lat="43.1709842" lon="11.3911908"><ele>302.0</ele><time>2026-05-02T10:24:30.252Z</time></trkpt><trkpt lat="43.1708813" lon="11.3911328"><ele>302.0</ele><time>2026-05-02T10:24:31.25Z</time></trkpt><trkpt lat="43.1707757" lon="11.3910702"><ele>302.0</ele><time>2026-05-02T10:24:32.251Z</time></trkpt><trkpt lat="43.1706737" lon="11.3910102"><ele>302.0</ele><time>2026-05-02T10:24:33.25Z</time></trkpt><trkpt lat="43.1705823" lon="11.3909475"><ele>302.0</ele><time>2026-05-02T10:24:34.249Z</time></trkpt><trkpt lat="43.1704973" lon="11.3908857"><ele>302.0</ele><time>2026-05-02T10:24:35.249Z</time></trkpt><trkpt lat="43.1704077" lon="11.3908288"><ele>302.0</ele><time>2026-05-02T10:24:36.249Z</time></trkpt><trkpt lat="43.1703065" lon="11.3907602"><ele>302.0</ele><time>2026-05-02T10:24:37.25Z</time></trkpt><trkpt lat="43.1701972" lon="11.390675"><ele>302.0</ele><time>2026-05-02T10:24:38.253Z</time></trkpt><trkpt lat="43.1700815" lon="11.3905807"><ele>301.75</ele><time>2026-05-02T10:24:39.252Z</time></trkpt><trkpt lat="43.1699638" lon="11.3904815"><ele>301.5</ele><time>2026-05-02T10:24:40.25Z</time></trkpt><trkpt lat="43.169844" lon="11.3903818"><ele>301.25</ele><time>2026-05-02T10:24:41.251Z</time></trkpt><trkpt lat="43.1697218" lon="11.3902868"><ele>301.0</ele><time>2026-05-02T10:24:42.25Z</time></trkpt><trkpt lat="43.169595" lon="11.390201"><ele>298.25</ele><time>2026-05-02T10:24:43.25Z</time></trkpt><trkpt lat="43.1694673" lon="11.3901315"><ele>295.5</ele><time>2026-05-02T10:24:44.253Z</time></trkpt><trkpt lat="43.169343" lon="11.3900768"><ele>292.75</ele><time>2026-05-02T10:24:45.25Z</time></trkpt><trkpt lat="43.1692282" lon="11.3900372"><ele>290.0</ele><time>2026-05-02T10:24:46.25Z</time></trkpt><trkpt lat="43.1691212" lon="11.3900093"><ele>287.8</ele><time>2026-05-02T10:24:47.252Z</time></trkpt><trkpt lat="43.1690228" lon="11.3899903"><ele>285.6</ele><time>2026-05-02T10:24:48.25Z</time></trkpt><trkpt lat="43.1689265" lon="11.3899788"><ele>283.4</ele><time>2026-05-02T10:24:49.253Z</time></trkpt><trkpt lat="43.1688183" lon="11.3899753"><ele>281.2</ele><time>2026-05-02T10:24:50.252Z</time></trkpt><trkpt lat="43.168702" lon="11.3899723"><ele>279.0</ele><time>2026-05-02T10:24:51.253Z</time></trkpt><trkpt lat="43.1685777" lon="11.3899642"><ele>279.0</ele><time>2026-05-02T10:24:52.254Z</time></trkpt><trkpt lat="43.1684503" lon="11.3899525"><ele>279.0</ele><time>2026-05-02T10:24:53.252Z</time></trkpt><trkpt lat="43.168327" lon="11.3899425"><ele>279.0</ele><time>2026-05-02T10:24:54.251Z</time></trkpt><trkpt lat="43.1682093" lon="11.3899327"><ele>279.0</ele><time>2026-05-02T10:24:55.251Z</time></trkpt><trkpt lat="43.1680967" lon="11.3899217"><ele>277.8</ele><time>2026-05-02T10:24:56.252Z</time></trkpt><trkpt lat="43.1679857" lon="11.3899132"><ele>276.59999999999997</ele><time>2026-05-02T10:24:57.25Z</time></trkpt><trkpt lat="43.1678782" lon="11.3899078"><ele>275.4</ele><time>2026-05-02T10:24:58.248Z</time></trkpt><trkpt lat="43.1677743" lon="11.3899017"><ele>274.2</ele><time>2026-05-02T10:24:59.25Z</time></trkpt><trkpt lat="43.1676698" lon="11.3898942"><ele>273.0</ele><time>2026-05-02T10:25:00.249Z</time></trkpt><trkpt lat="43.1675585" lon="11.3898855"><ele>273.0</ele><time>2026-05-02T10:25:01.249Z</time></trkpt><trkpt lat="43.16744" lon="11.389876"><ele>273.0</ele><time>2026-05-02T10:25:02.252Z</time></trkpt><trkpt lat="43.1673157" lon="11.3898653"><ele>273.0</ele><time>2026-05-02T10:25:03.252Z</time></trkpt><trkpt lat="43.1671898" lon="11.3898562"><ele>273.0</ele><time>2026-05-02T10:25:04.253Z</time></trkpt><trkpt lat="43.1670645" lon="11.3898525"><ele>273.25</ele><time>2026-05-02T10:25:05.255Z</time></trkpt><trkpt lat="43.1669403" lon="11.3898735"><ele>273.5</ele><time>2026-05-02T10:25:06.252Z</time></trkpt><trkpt lat="43.1668205" lon="11.3899203"><ele>273.75</ele><time>2026-05-02T10:25:07.251Z</time></trkpt><trkpt lat="43.1667117" lon="11.3899873"><ele>274.0</ele><time>2026-05-02T10:25:08.253Z</time></trkpt><trkpt lat="43.1666145" lon="11.3900655"><ele>274.0</ele><time>2026-05-02T10:25:09.254Z</time></trkpt><trkpt lat="43.1665293" lon="11.390154"><ele>274.0</ele><time>2026-05-02T10:25:10.253Z</time></trkpt><trkpt lat="43.1664558" lon="11.3902495"><ele>274.0</ele><time>2026-05-02T10:25:11.253Z</time></trkpt><trkpt lat="43.1663933" lon="11.3903457"><ele>274.0</ele><time>2026-05-02T10:25:12.253Z</time></trkpt><trkpt lat="43.1663358" lon="11.3904367"><ele>274.0</ele><time>2026-05-02T10:25:13.251Z</time></trkpt><trkpt lat="43.1662787" lon="11.3905097"><ele>273.5</ele><time>2026-05-02T10:25:14.252Z</time></trkpt><trkpt lat="43.1662192" lon="11.390568"><ele>273.0</ele><time>2026-05-02T10:25:15.251Z</time></trkpt><trkpt lat="43.1661567" lon="11.3906198"><ele>272.5</ele><time>2026-05-02T10:25:16.252Z</time></trkpt><trkpt lat="43.1660887" lon="11.390668"><ele>272.0</ele><time>2026-05-02T10:25:17.255Z</time></trkpt><trkpt lat="43.1660138" lon="11.3907155"><ele>271.5</ele><time>2026-05-02T10:25:18.253Z</time></trkpt><trkpt lat="43.165929" lon="11.3907597"><ele>271.0</ele><time>2026-05-02T10:25:19.254Z</time></trkpt><trkpt lat="43.165836" lon="11.3907993"><ele>271.0</ele><time>2026-05-02T10:25:20.252Z</time></trkpt><trkpt lat="43.1657418" lon="11.3908398"><ele>271.0</ele><time>2026-05-02T10:25:21.25Z</time></trkpt><trkpt lat="43.1656443" lon="11.3908792"><ele>271.0</ele><time>2026-05-02T10:25:22.251Z</time></trkpt><trkpt lat="43.1655503" lon="11.3909115"><ele>271.0</ele><time>2026-05-02T10:25:23.249Z</time></trkpt><trkpt lat="43.1654602" lon="11.3909397"><ele>271.0</ele><time>2026-05-02T10:25:24.25Z</time></trkpt><trkpt lat="43.1653585" lon="11.3909733"><ele>271.75</ele><time>2026-05-02T10:25:25.249Z</time></trkpt><trkpt lat="43.1652332" lon="11.3910128"><ele>272.5</ele><time>2026-05-02T10:25:26.248Z</time></trkpt><trkpt lat="43.1650928" lon="11.3910525"><ele>273.25</ele><time>2026-05-02T10:25:27.251Z</time></trkpt><trkpt lat="43.16493" lon="11.3910945"><ele>274.0</ele><time>2026-05-02T10:25:28.252Z</time></trkpt><trkpt lat="43.1647472" lon="11.3911403"><ele>274.3333333333333</ele><time>2026-05-02T10:25:29.249Z</time></trkpt><trkpt lat="43.1645518" lon="11.3911858"><ele>274.6666666666667</ele><time>2026-05-02T10:25:30.251Z</time></trkpt><trkpt lat="43.1643425" lon="11.3912363"><ele>275.0</ele><time>2026-05-02T10:25:31.252Z</time></trkpt><trkpt lat="43.1641145" lon="11.3912923"><ele>276.0</ele><time>2026-05-02T10:25:32.252Z</time></trkpt><trkpt lat="43.1638808" lon="11.391346"><ele>277.0</ele><time>2026-05-02T10:25:33.252Z</time></trkpt><trkpt lat="43.1636508" lon="11.3913923"><ele>277.0</ele><time>2026-05-02T10:25:34.253Z</time></trkpt><trkpt lat="43.1634273" lon="11.3914408"><ele>277.0</ele><time>2026-05-02T10:25:35.253Z</time></trkpt><trkpt lat="43.1632113" lon="11.391492"><ele>277.0</ele><time>2026-05-02T10:25:36.25Z</time></trkpt><trkpt lat="43.1630005" lon="11.391538"><ele>278.66666666666663</ele><time>2026-05-02T10:25:37.252Z</time></trkpt><trkpt lat="43.1627977" lon="11.3915757"><ele>280.3333333333333</ele><time>2026-05-02T10:25:38.252Z</time></trkpt><trkpt lat="43.1626088" lon="11.3916052"><ele>282.0</ele><time>2026-05-02T10:25:39.253Z</time></trkpt><trkpt lat="43.1624338" lon="11.3916292"><ele>283.3333333333333</ele><time>2026-05-02T10:25:40.252Z</time></trkpt><trkpt lat="43.1622713" lon="11.3916517"><ele>284.66666666666663</ele><time>2026-05-02T10:25:41.252Z</time></trkpt><trkpt lat="43.1621212" lon="11.3916812"><ele>286.0</ele><time>2026-05-02T10:25:42.251Z</time></trkpt><trkpt lat="43.1619858" lon="11.3917318"><ele>286.0</ele><time>2026-05-02T10:25:43.25Z</time></trkpt><trkpt lat="43.1618703" lon="11.3918205"><ele>286.0</ele><time>2026-05-02T10:25:44.251Z</time></trkpt><trkpt lat="43.1617733" lon="11.3919525"><ele>286.0</ele><time>2026-05-02T10:25:45.248Z</time></trkpt><trkpt lat="43.1616978" lon="11.3921303"><ele>286.0</ele><time>2026-05-02T10:25:46.252Z</time></trkpt><trkpt lat="43.1616368" lon="11.392337"><ele>284.66666666666663</ele><time>2026-05-02T10:25:47.249Z</time></trkpt><trkpt lat="43.1615765" lon="11.3925438"><ele>283.3333333333333</ele><time>2026-05-02T10:25:48.251Z</time></trkpt><trkpt lat="43.1615017" lon="11.3927293"><ele>282.0</ele><time>2026-05-02T10:25:49.251Z</time></trkpt><trkpt lat="43.1613992" lon="11.3928875"><ele>281.0</ele><time>2026-05-02T10:25:50.252Z</time></trkpt><trkpt lat="43.1612635" lon="11.3930148"><ele>280.0</ele><time>2026-05-02T10:25:51.253Z</time></trkpt><trkpt lat="43.1610965" lon="11.393119"><ele>279.0</ele><time>2026-05-02T10:25:52.254Z</time></trkpt><trkpt lat="43.1609018" lon="11.3932108"><ele>278.3333333333333</ele><time>2026-05-02T10:25:53.252Z</time></trkpt><trkpt lat="43.1606977" lon="11.3932973"><ele>277.66666666666663</ele><time>2026-05-02T10:25:54.253Z</time></trkpt><trkpt lat="43.1604848" lon="11.393387"><ele>277.0</ele><time>2026-05-02T10:25:55.252Z</time></trkpt><trkpt lat="43.1602728" lon="11.3934777"><ele>277.0</ele><time>2026-05-02T10:25:56.253Z</time></trkpt><trkpt lat="43.160073" lon="11.3935712"><ele>277.0</ele><time>2026-05-02T10:25:57.255Z</time></trkpt><trkpt lat="43.15988" lon="11.3936742"><ele>277.0</ele><time>2026-05-02T10:25:58.252Z</time></trkpt><trkpt lat="43.1596955" lon="11.3937928"><ele>276.66666666666663</ele><time>2026-05-02T10:25:59.252Z</time></trkpt><trkpt lat="43.1595265" lon="11.3939275"><ele>276.3333333333333</ele><time>2026-05-02T10:26:00.254Z</time></trkpt><trkpt lat="43.1593702" lon="11.3940835"><ele>276.0</ele><time>2026-05-02T10:26:01.254Z</time></trkpt><trkpt lat="43.1592227" lon="11.3942567"><ele>276.0</ele><time>2026-05-02T10:26:02.255Z</time></trkpt><trkpt lat="43.159085" lon="11.3944452"><ele>276.0</ele><time>2026-05-02T10:26:03.253Z</time></trkpt><trkpt lat="43.1589617" lon="11.3946508"><ele>276.0</ele><time>2026-05-02T10:26:04.252Z</time></trkpt><trkpt lat="43.158857" lon="11.3948738"><ele>277.0</ele><time>2026-05-02T10:26:05.25Z</time></trkpt><trkpt lat="43.1587783" lon="11.3951158"><ele>278.0</ele><time>2026-05-02T10:26:06.251Z</time></trkpt><trkpt lat="43.1587288" lon="11.3953762"><ele>279.0</ele><time>2026-05-02T10:26:07.252Z</time></trkpt><trkpt lat="43.1587038" lon="11.3956557"><ele>279.0</ele><time>2026-05-02T10:26:08.256Z</time></trkpt><trkpt lat="43.1586905" lon="11.3959492"><ele>279.0</ele><time>2026-05-02T10:26:09.252Z</time></trkpt><trkpt lat="43.158685" lon="11.3962523"><ele>279.0</ele><time>2026-05-02T10:26:10.251Z</time></trkpt><trkpt lat="43.1586823" lon="11.3965528"><ele>279.3333333333333</ele><time>2026-05-02T10:26:11.25Z</time></trkpt><trkpt lat="43.1586777" lon="11.3968558"><ele>279.66666666666663</ele><time>2026-05-02T10:26:12.25Z</time></trkpt><trkpt lat="43.1586735" lon="11.3971577"><ele>280.0</ele><time>2026-05-02T10:26:13.251Z</time></trkpt><trkpt lat="43.1586732" lon="11.3974463"><ele>280.0</ele><time>2026-05-02T10:26:14.251Z</time></trkpt><trkpt lat="43.1586868" lon="11.3977238"><ele>280.0</ele><time>2026-05-02T10:26:15.249Z</time></trkpt><trkpt lat="43.1587198" lon="11.3979962"><ele>280.0</ele><time>2026-05-02T10:26:16.25Z</time></trkpt><trkpt lat="43.158768" lon="11.3982475"><ele>280.66666666666663</ele><time>2026-05-02T10:26:17.251Z</time></trkpt><trkpt lat="43.1588227" lon="11.3984772"><ele>281.3333333333333</ele><time>2026-05-02T10:26:18.251Z</time></trkpt><trkpt lat="43.1588733" lon="11.3986918"><ele>282.0</ele><time>2026-05-02T10:26:19.252Z</time></trkpt><trkpt lat="43.1589108" lon="11.3988975"><ele>282.5</ele><time>2026-05-02T10:26:20.252Z</time></trkpt><trkpt lat="43.1589307" lon="11.3990957"><ele>283.0</ele><time>2026-05-02T10:26:21.251Z</time></trkpt><trkpt lat="43.158923" lon="11.3992788"><ele>283.5</ele><time>2026-05-02T10:26:22.254Z</time></trkpt><trkpt lat="43.158884" lon="11.3994327"><ele>284.0</ele><time>2026-05-02T10:26:23.251Z</time></trkpt><trkpt lat="43.1588123" lon="11.3995463"><ele>284.0</ele><time>2026-05-02T10:26:24.251Z</time></trkpt><trkpt lat="43.1587123" lon="11.3996142"><ele>284.0</ele><time>2026-05-02T10:26:25.25Z</time></trkpt><trkpt lat="43.1585882" lon="11.399638"><ele>284.0</ele><time>2026-05-02T10:26:26.252Z</time></trkpt><trkpt lat="43.158447" lon="11.3996255"><ele>284.0</ele><time>2026-05-02T10:26:27.253Z</time></trkpt><trkpt lat="43.1582928" lon="11.3996135"><ele>286.0</ele><time>2026-05-02T10:26:28.254Z</time></trkpt><trkpt lat="43.1581362" lon="11.3996357"><ele>288.0</ele><time>2026-05-02T10:26:29.253Z</time></trkpt><trkpt lat="43.1579792" lon="11.399702"><ele>290.0</ele><time>2026-05-02T10:26:30.254Z</time></trkpt><trkpt lat="43.1578243" lon="11.3998138"><ele>290.0</ele><time>2026-05-02T10:26:31.254Z</time></trkpt><trkpt lat="43.1576725" lon="11.3999462"><ele>290.0</ele><time>2026-05-02T10:26:32.254Z</time></trkpt><trkpt lat="43.1575222" lon="11.4000652"><ele>290.0</ele><time>2026-05-02T10:26:33.254Z</time></trkpt><trkpt lat="43.1573728" lon="11.4001417"><ele>291.33333333333337</ele><time>2026-05-02T10:26:34.251Z</time></trkpt><trkpt lat="43.157215" lon="11.4001672"><ele>292.6666666666667</ele><time>2026-05-02T10:26:35.252Z</time></trkpt><trkpt lat="43.157048" lon="11.4001423"><ele>294.0</ele><time>2026-05-02T10:26:36.249Z</time></trkpt><trkpt lat="43.1568772" lon="11.4000805"><ele>294.0</ele><time>2026-05-02T10:26:37.251Z</time></trkpt><trkpt lat="43.1567157" lon="11.4000208"><ele>294.0</ele><time>2026-05-02T10:26:38.252Z</time></trkpt><trkpt lat="43.156573" lon="11.3999915"><ele>294.0</ele><time>2026-05-02T10:26:39.25Z</time></trkpt><trkpt lat="43.1564528" lon="11.4000112"><ele>294.0</ele><time>2026-05-02T10:26:40.251Z</time></trkpt><trkpt lat="43.1563602" lon="11.400093"><ele>297.25</ele><time>2026-05-02T10:26:41.251Z</time></trkpt><trkpt lat="43.1563057" lon="11.400221"><ele>300.5</ele><time>2026-05-02T10:26:42.251Z</time></trkpt><trkpt lat="43.1562995" lon="11.4003748"><ele>303.75</ele><time>2026-05-02T10:26:43.25Z</time></trkpt><trkpt lat="43.1563383" lon="11.4005427"><ele>307.0</ele><time>2026-05-02T10:26:44.25Z</time></trkpt><trkpt lat="43.1564127" lon="11.4007217"><ele>307.3333333333333</ele><time>2026-05-02T10:26:45.25Z</time></trkpt><trkpt lat="43.1565045" lon="11.400911"><ele>307.6666666666667</ele><time>2026-05-02T10:26:46.252Z</time></trkpt><trkpt lat="43.1565922" lon="11.4011053"><ele>308.0</ele><time>2026-05-02T10:26:47.251Z</time></trkpt><trkpt lat="43.1566627" lon="11.4012955"><ele>300.33333333333337</ele><time>2026-05-02T10:26:48.251Z</time></trkpt><trkpt lat="43.1567062" lon="11.4014903"><ele>292.6666666666667</ele><time>2026-05-02T10:26:49.25Z</time></trkpt><trkpt lat="43.1567128" lon="11.4016978"><ele>285.0</ele><time>2026-05-02T10:26:50.251Z</time></trkpt><trkpt lat="43.15669" lon="11.4019278"><ele>284.3333333333333</ele><time>2026-05-02T10:26:51.253Z</time></trkpt><trkpt lat="43.1566485" lon="11.4021825"><ele>283.66666666666663</ele><time>2026-05-02T10:26:52.251Z</time></trkpt><trkpt lat="43.1566017" lon="11.4024507"><ele>283.0</ele><time>2026-05-02T10:26:53.253Z</time></trkpt><trkpt lat="43.1565557" lon="11.4027195"><ele>288.0</ele><time>2026-05-02T10:26:54.249Z</time></trkpt><trkpt lat="43.1565162" lon="11.4029922"><ele>293.0</ele><time>2026-05-02T10:26:55.25Z</time></trkpt><trkpt lat="43.1564862" lon="11.403268"><ele>298.0</ele><time>2026-05-02T10:26:56.251Z</time></trkpt><trkpt lat="43.1564652" lon="11.4035298"><ele>298.0</ele><time>2026-05-02T10:26:57.251Z</time></trkpt><trkpt lat="43.1564445" lon="11.403777"><ele>298.0</ele><time>2026-05-02T10:26:58.251Z</time></trkpt><trkpt lat="43.1564195" lon="11.4040013"><ele>298.0</ele><time>2026-05-02T10:26:59.251Z</time></trkpt><trkpt lat="43.1563758" lon="11.404199"><ele>296.0</ele><time>2026-05-02T10:27:00.248Z</time></trkpt><trkpt lat="43.1563007" lon="11.4043707"><ele>294.0</ele><time>2026-05-02T10:27:01.248Z</time></trkpt><trkpt lat="43.1561932" lon="11.4045173"><ele>292.0</ele><time>2026-05-02T10:27:02.248Z</time></trkpt><trkpt lat="43.1560687" lon="11.4046457"><ele>289.66666666666663</ele><time>2026-05-02T10:27:03.246Z</time></trkpt><trkpt lat="43.1559285" lon="11.4047543"><ele>287.3333333333333</ele><time>2026-05-02T10:27:04.25Z</time></trkpt><trkpt lat="43.1557725" lon="11.4048322"><ele>285.0</ele><time>2026-05-02T10:27:05.251Z</time></trkpt><trkpt lat="43.1556013" lon="11.404869"><ele>285.0</ele><time>2026-05-02T10:27:06.251Z</time></trkpt><trkpt lat="43.1554202" lon="11.4048932"><ele>285.0</ele><time>2026-05-02T10:27:07.251Z</time></trkpt><trkpt lat="43.155231" lon="11.40494"><ele>285.0</ele><time>2026-05-02T10:27:08.251Z</time></trkpt><trkpt lat="43.155038" lon="11.4050137"><ele>288.0</ele><time>2026-05-02T10:27:09.252Z</time></trkpt><trkpt lat="43.1548467" lon="11.405098"><ele>291.0</ele><time>2026-05-02T10:27:10.251Z</time></trkpt><trkpt lat="43.1546638" lon="11.4051857"><ele>294.0</ele><time>2026-05-02T10:27:11.252Z</time></trkpt><trkpt lat="43.1544907" lon="11.4052853"><ele>294.0</ele><time>2026-05-02T10:27:12.249Z</time></trkpt><trkpt lat="43.1543267" lon="11.4054062"><ele>294.0</ele><time>2026-05-02T10:27:13.251Z</time></trkpt><trkpt lat="43.1541683" lon="11.4055267"><ele>294.0</ele><time>2026-05-02T10:27:14.252Z</time></trkpt><trkpt lat="43.1540013" lon="11.4056113"><ele>291.3333333333333</ele><time>2026-05-02T10:27:15.252Z</time></trkpt><trkpt lat="43.1538207" lon="11.4056533"><ele>288.66666666666663</ele><time>2026-05-02T10:27:16.252Z</time></trkpt><trkpt lat="43.1536387" lon="11.4056723"><ele>286.0</ele><time>2026-05-02T10:27:17.252Z</time></trkpt><trkpt lat="43.1534658" lon="11.405707"><ele>286.0</ele><time>2026-05-02T10:27:18.252Z</time></trkpt><trkpt lat="43.1532988" lon="11.405783"><ele>286.0</ele><time>2026-05-02T10:27:19.251Z</time></trkpt><trkpt lat="43.1531372" lon="11.4059073"><ele>286.0</ele><time>2026-05-02T10:27:20.251Z</time></trkpt><trkpt lat="43.152982" lon="11.4060672"><ele>285.0</ele><time>2026-05-02T10:27:21.249Z</time></trkpt><trkpt lat="43.1528225" lon="11.4062272"><ele>284.0</ele><time>2026-05-02T10:27:22.251Z</time></trkpt><trkpt lat="43.1526503" lon="11.4063638"><ele>283.0</ele><time>2026-05-02T10:27:23.252Z</time></trkpt><trkpt lat="43.1524667" lon="11.4064707"><ele>283.0</ele><time>2026-05-02T10:27:24.249Z</time></trkpt><trkpt lat="43.1522738" lon="11.4065437"><ele>283.0</ele><time>2026-05-02T10:27:25.25Z</time></trkpt><trkpt lat="43.15207" lon="11.4065825"><ele>283.0</ele><time>2026-05-02T10:27:26.249Z</time></trkpt><trkpt lat="43.1518535" lon="11.4066003"><ele>283.0</ele><time>2026-05-02T10:27:27.247Z</time></trkpt><trkpt lat="43.1516318" lon="11.4066217"><ele>283.0</ele><time>2026-05-02T10:27:28.249Z</time></trkpt><trkpt lat="43.151408" lon="11.406666"><ele>283.0</ele><time>2026-05-02T10:27:29.25Z</time></trkpt><trkpt lat="43.1511912" lon="11.4067328"><ele>282.3333333333333</ele><time>2026-05-02T10:27:30.251Z</time></trkpt><trkpt lat="43.1509813" lon="11.406783"><ele>281.6666666666667</ele><time>2026-05-02T10:27:31.251Z</time></trkpt><trkpt lat="43.1507678" lon="11.4067925"><ele>281.0</ele><time>2026-05-02T10:27:32.251Z</time></trkpt><trkpt lat="43.1505518" lon="11.4067655"><ele>281.0</ele><time>2026-05-02T10:27:33.25Z</time></trkpt><trkpt lat="43.1503575" lon="11.4067035"><ele>281.0</ele><time>2026-05-02T10:27:34.251Z</time></trkpt><trkpt lat="43.1501972" lon="11.406606"><ele>281.0</ele><time>2026-05-02T10:27:35.253Z</time></trkpt><trkpt lat="43.1500682" lon="11.4064695"><ele>284.25</ele><time>2026-05-02T10:27:36.251Z</time></trkpt><trkpt lat="43.1499582" lon="11.406328"><ele>287.5</ele><time>2026-05-02T10:27:37.252Z</time></trkpt><trkpt lat="43.1498387" lon="11.4062255"><ele>290.75</ele><time>2026-05-02T10:27:38.25Z</time></trkpt><trkpt lat="43.149702" lon="11.4061883"><ele>294.0</ele><time>2026-05-02T10:27:39.251Z</time></trkpt><trkpt lat="43.149567" lon="11.406223"><ele>294.25</ele><time>2026-05-02T10:27:40.252Z</time></trkpt><trkpt lat="43.149445" lon="11.4063218"><ele>294.5</ele><time>2026-05-02T10:27:41.251Z</time></trkpt><trkpt lat="43.1493385" lon="11.406464"><ele>294.75</ele><time>2026-05-02T10:27:42.25Z</time></trkpt><trkpt lat="43.1492355" lon="11.4065947"><ele>295.0</ele><time>2026-05-02T10:27:43.25Z</time></trkpt><trkpt lat="43.1491135" lon="11.406678"><ele>293.0</ele><time>2026-05-02T10:27:44.249Z</time></trkpt><trkpt lat="43.1489663" lon="11.4067185"><ele>291.0</ele><time>2026-05-02T10:27:45.249Z</time></trkpt><trkpt lat="43.148804" lon="11.4067462"><ele>289.0</ele><time>2026-05-02T10:27:46.25Z</time></trkpt><trkpt lat="43.1486438" lon="11.406805"><ele>289.0</ele><time>2026-05-02T10:27:47.252Z</time></trkpt><trkpt lat="43.1484955" lon="11.4069208"><ele>289.0</ele><time>2026-05-02T10:27:48.249Z</time></trkpt><trkpt lat="43.1483672" lon="11.407095"><ele>289.0</ele><time>2026-05-02T10:27:49.249Z</time></trkpt><trkpt lat="43.1482537" lon="11.4073137"><ele>290.0</ele><time>2026-05-02T10:27:50.246Z</time></trkpt><trkpt lat="43.1481473" lon="11.4075452"><ele>291.0</ele><time>2026-05-02T10:27:51.247Z</time></trkpt><trkpt lat="43.148047" lon="11.4077757"><ele>292.0</ele><time>2026-05-02T10:27:52.246Z</time></trkpt><trkpt lat="43.1479657" lon="11.4080257"><ele>290.0</ele><time>2026-05-02T10:27:53.249Z</time></trkpt><trkpt lat="43.1479142" lon="11.408307"><ele>288.0</ele><time>2026-05-02T10:27:54.249Z</time></trkpt><trkpt lat="43.1478842" lon="11.4086077"><ele>286.0</ele><time>2026-05-02T10:27:55.25Z</time></trkpt><trkpt lat="43.1478523" lon="11.4089117"><ele>284.0</ele><time>2026-05-02T10:27:56.249Z</time></trkpt><trkpt lat="43.1478162" lon="11.409204"><ele>282.0</ele><time>2026-05-02T10:27:57.25Z</time></trkpt><trkpt lat="43.147777" lon="11.4094798"><ele>280.0</ele><time>2026-05-02T10:27:58.249Z</time></trkpt><trkpt lat="43.1477343" lon="11.4097412"><ele>277.66666666666663</ele><time>2026-05-02T10:27:59.251Z</time></trkpt><trkpt lat="43.1476835" lon="11.409978"><ele>275.3333333333333</ele><time>2026-05-02T10:28:00.249Z</time></trkpt><trkpt lat="43.1476128" lon="11.4101847"><ele>273.0</ele><time>2026-05-02T10:28:01.249Z</time></trkpt><trkpt lat="43.147514" lon="11.4103608"><ele>270.6666666666667</ele><time>2026-05-02T10:28:02.248Z</time></trkpt><trkpt lat="43.147387" lon="11.410507"><ele>268.33333333333337</ele><time>2026-05-02T10:28:03.251Z</time></trkpt><trkpt lat="43.1472343" lon="11.4106252"><ele>266.0</ele><time>2026-05-02T10:28:04.251Z</time></trkpt><trkpt lat="43.1470707" lon="11.4107322"><ele>266.0</ele><time>2026-05-02T10:28:05.252Z</time></trkpt><trkpt lat="43.146906" lon="11.4108557"><ele>266.0</ele><time>2026-05-02T10:28:06.254Z</time></trkpt><trkpt lat="43.1467477" lon="11.4110138"><ele>266.0</ele><time>2026-05-02T10:28:07.253Z</time></trkpt><trkpt lat="43.1466025" lon="11.4112102"><ele>264.33333333333337</ele><time>2026-05-02T10:28:08.253Z</time></trkpt><trkpt lat="43.1464653" lon="11.4114295"><ele>262.6666666666667</ele><time>2026-05-02T10:28:09.251Z</time></trkpt><trkpt lat="43.1463353" lon="11.4116485"><ele>261.0</ele><time>2026-05-02T10:28:10.255Z</time></trkpt><trkpt lat="43.1462142" lon="11.4118622"><ele>261.0</ele><time>2026-05-02T10:28:11.253Z</time></trkpt><trkpt lat="43.1461053" lon="11.4120778"><ele>261.0</ele><time>2026-05-02T10:28:12.252Z</time></trkpt><trkpt lat="43.146013" lon="11.4123103"><ele>261.0</ele><time>2026-05-02T10:28:13.253Z</time></trkpt><trkpt lat="43.1459455" lon="11.4125537"><ele>258.3333333333333</ele><time>2026-05-02T10:28:14.25Z</time></trkpt><trkpt lat="43.1458937" lon="11.4127922"><ele>255.66666666666666</ele><time>2026-05-02T10:28:15.25Z</time></trkpt><trkpt lat="43.1458393" lon="11.4130218"><ele>253.0</ele><time>2026-05-02T10:28:16.25Z</time></trkpt><trkpt lat="43.1457653" lon="11.4132467"><ele>250.66666666666666</ele><time>2026-05-02T10:28:17.252Z</time></trkpt><trkpt lat="43.1456623" lon="11.413453"><ele>248.33333333333331</ele><time>2026-05-02T10:28:18.254Z</time></trkpt><trkpt lat="43.1455427" lon="11.4136297"><ele>246.0</ele><time>2026-05-02T10:28:19.255Z</time></trkpt><trkpt lat="43.1454247" lon="11.4137935"><ele>244.66666666666669</ele><time>2026-05-02T10:28:20.254Z</time></trkpt><trkpt lat="43.1453247" lon="11.413963"><ele>243.33333333333334</ele><time>2026-05-02T10:28:21.253Z</time></trkpt><trkpt lat="43.1452548" lon="11.4141502"><ele>242.0</ele><time>2026-05-02T10:28:22.255Z</time></trkpt><trkpt lat="43.1452263" lon="11.4143528"><ele>242.0</ele><time>2026-05-02T10:28:23.254Z</time></trkpt><trkpt lat="43.1452437" lon="11.4145568"><ele>242.0</ele><time>2026-05-02T10:28:24.251Z</time></trkpt><trkpt lat="43.1453072" lon="11.4147497"><ele>242.0</ele><time>2026-05-02T10:28:25.252Z</time></trkpt><trkpt lat="43.1454117" lon="11.414932"><ele>241.0</ele><time>2026-05-02T10:28:26.252Z</time></trkpt><trkpt lat="43.1455318" lon="11.4151118"><ele>240.0</ele><time>2026-05-02T10:28:27.254Z</time></trkpt><trkpt lat="43.1456375" lon="11.4152968"><ele>239.0</ele><time>2026-05-02T10:28:28.252Z</time></trkpt><trkpt lat="43.1457163" lon="11.4154938"><ele>239.0</ele><time>2026-05-02T10:28:29.252Z</time></trkpt><trkpt lat="43.145768" lon="11.4157022"><ele>239.0</ele><time>2026-05-02T10:28:30.253Z</time></trkpt><trkpt lat="43.145789" lon="11.4159238"><ele>239.0</ele><time>2026-05-02T10:28:31.253Z</time></trkpt><trkpt lat="43.1457838" lon="11.416163"><ele>238.0</ele><time>2026-05-02T10:28:32.252Z</time></trkpt><trkpt lat="43.1457632" lon="11.4164148"><ele>237.0</ele><time>2026-05-02T10:28:33.253Z</time></trkpt><trkpt lat="43.1457392" lon="11.4166673"><ele>236.0</ele><time>2026-05-02T10:28:34.255Z</time></trkpt><trkpt lat="43.1457108" lon="11.4169108"><ele>231.33333333333334</ele><time>2026-05-02T10:28:35.254Z</time></trkpt><trkpt lat="43.145667" lon="11.4171497"><ele>226.66666666666669</ele><time>2026-05-02T10:28:36.252Z</time></trkpt><trkpt lat="43.1456035" lon="11.417387"><ele>222.0</ele><time>2026-05-02T10:28:37.252Z</time></trkpt><trkpt lat="43.1455265" lon="11.4176242"><ele>220.33333333333331</ele><time>2026-05-02T10:28:38.252Z</time></trkpt><trkpt lat="43.1454577" lon="11.4178575"><ele>218.66666666666666</ele><time>2026-05-02T10:28:39.25Z</time></trkpt><trkpt lat="43.1454058" lon="11.4180893"><ele>217.0</ele><time>2026-05-02T10:28:40.253Z</time></trkpt><trkpt lat="43.145378" lon="11.4183273"><ele>216.0</ele><time>2026-05-02T10:28:41.251Z</time></trkpt><trkpt lat="43.145367" lon="11.4185685"><ele>215.0</ele><time>2026-05-02T10:28:42.252Z</time></trkpt><trkpt lat="43.1453607" lon="11.4188077"><ele>214.0</ele><time>2026-05-02T10:28:43.252Z</time></trkpt><trkpt lat="43.1453507" lon="11.4190388"><ele>213.66666666666666</ele><time>2026-05-02T10:28:44.253Z</time></trkpt><trkpt lat="43.1453267" lon="11.419267"><ele>213.33333333333331</ele><time>2026-05-02T10:28:45.252Z</time></trkpt><trkpt lat="43.1452825" lon="11.4194957"><ele>213.0</ele><time>2026-05-02T10:28:46.252Z</time></trkpt><trkpt lat="43.1452287" lon="11.4197235"><ele>212.0</ele><time>2026-05-02T10:28:47.253Z</time></trkpt><trkpt lat="43.1451863" lon="11.4199463"><ele>211.0</ele><time>2026-05-02T10:28:48.254Z</time></trkpt><trkpt lat="43.1451668" lon="11.4201652"><ele>210.0</ele><time>2026-05-02T10:28:49.255Z</time></trkpt><trkpt lat="43.1451678" lon="11.4203727"><ele>209.25</ele><time>2026-05-02T10:28:50.257Z</time></trkpt><trkpt lat="43.1451742" lon="11.4205612"><ele>208.5</ele><time>2026-05-02T10:28:51.256Z</time></trkpt><trkpt lat="43.1451768" lon="11.420737"><ele>207.75</ele><time>2026-05-02T10:28:52.254Z</time></trkpt><trkpt lat="43.1451732" lon="11.420897"><ele>207.0</ele><time>2026-05-02T10:28:53.259Z</time></trkpt><trkpt lat="43.145174" lon="11.4210425"><ele>207.0</ele><time>2026-05-02T10:28:54.257Z</time></trkpt><trkpt lat="43.1451875" lon="11.4211758"><ele>207.0</ele><time>2026-05-02T10:28:55.254Z</time></trkpt><trkpt lat="43.1452127" lon="11.4212965"><ele>207.0</ele><time>2026-05-02T10:28:56.254Z</time></trkpt><trkpt lat="43.1452442" lon="11.4214078"><ele>207.0</ele><time>2026-05-02T10:28:57.252Z</time></trkpt><trkpt lat="43.145275" lon="11.4215152"><ele>207.0</ele><time>2026-05-02T10:28:58.253Z</time></trkpt><trkpt lat="43.1453067" lon="11.4216222"><ele>207.0</ele><time>2026-05-02T10:28:59.253Z</time></trkpt><trkpt lat="43.1453423" lon="11.4217255"><ele>206.83333333333334</ele><time>2026-05-02T10:29:00.257Z</time></trkpt><trkpt lat="43.1453778" lon="11.4218293"><ele>206.66666666666669</ele><time>2026-05-02T10:29:01.252Z</time></trkpt><trkpt lat="43.1454132" lon="11.4219362"><ele>206.5</ele><time>2026-05-02T10:29:02.253Z</time></trkpt><trkpt lat="43.1454487" lon="11.4220477"><ele>206.33333333333334</ele><time>2026-05-02T10:29:03.251Z</time></trkpt><trkpt lat="43.1454865" lon="11.4221632"><ele>206.16666666666669</ele><time>2026-05-02T10:29:04.254Z</time></trkpt><trkpt lat="43.1455255" lon="11.422283"><ele>206.0</ele><time>2026-05-02T10:29:05.252Z</time></trkpt><trkpt lat="43.1455673" lon="11.4224045"><ele>206.20000000000002</ele><time>2026-05-02T10:29:06.253Z</time></trkpt><trkpt lat="43.1456113" lon="11.4225277"><ele>206.4</ele><time>2026-05-02T10:29:07.256Z</time></trkpt><trkpt lat="43.145656" lon="11.422655"><ele>206.6</ele><time>2026-05-02T10:29:08.254Z</time></trkpt><trkpt lat="43.145702" lon="11.4227848"><ele>206.8</ele><time>2026-05-02T10:29:09.255Z</time></trkpt><trkpt lat="43.1457488" lon="11.422917"><ele>207.0</ele><time>2026-05-02T10:29:10.254Z</time></trkpt><trkpt lat="43.1457955" lon="11.4230532"><ele>207.0</ele><time>2026-05-02T10:29:11.256Z</time></trkpt><trkpt lat="43.1458423" lon="11.4231888"><ele>207.0</ele><time>2026-05-02T10:29:12.253Z</time></trkpt><trkpt lat="43.1458923" lon="11.4233273"><ele>207.0</ele><time>2026-05-02T10:29:13.252Z</time></trkpt><trkpt lat="43.1459347" lon="11.4234737"><ele>207.0</ele><time>2026-05-02T10:29:14.252Z</time></trkpt><trkpt lat="43.1459602" lon="11.4236263"><ele>207.0</ele><time>2026-05-02T10:29:15.253Z</time></trkpt><trkpt lat="43.1459708" lon="11.4237805"><ele>207.0</ele><time>2026-05-02T10:29:16.259Z</time></trkpt><trkpt lat="43.1459653" lon="11.4239293"><ele>207.0</ele><time>2026-05-02T10:29:17.257Z</time></trkpt><trkpt lat="43.1459445" lon="11.4240722"><ele>207.0</ele><time>2026-05-02T10:29:18.254Z</time></trkpt><trkpt lat="43.1459085" lon="11.4242073"><ele>207.0</ele><time>2026-05-02T10:29:19.253Z</time></trkpt><trkpt lat="43.1458605" lon="11.4243355"><ele>206.8</ele><time>2026-05-02T10:29:20.254Z</time></trkpt><trkpt lat="43.1458088" lon="11.4244623"><ele>206.6</ele><time>2026-05-02T10:29:21.252Z</time></trkpt><trkpt lat="43.1457517" lon="11.4245857"><ele>206.4</ele><time>2026-05-02T10:29:22.255Z</time></trkpt><trkpt lat="43.1456898" lon="11.4247013"><ele>206.20000000000002</ele><time>2026-05-02T10:29:23.254Z</time></trkpt><trkpt lat="43.1456287" lon="11.4248072"><ele>206.0</ele><time>2026-05-02T10:29:24.253Z</time></trkpt><trkpt lat="43.1455803" lon="11.4249103"><ele>206.00000000000003</ele><time>2026-05-02T10:29:25.252Z</time></trkpt><trkpt lat="43.1455605" lon="11.425017"><ele>206.0</ele><time>2026-05-02T10:29:26.252Z</time></trkpt><trkpt lat="43.1455753" lon="11.4251173"><ele>206.0</ele><time>2026-05-02T10:29:27.25Z</time></trkpt><trkpt lat="43.145621" lon="11.4252068"><ele>206.0</ele><time>2026-05-02T10:29:28.25Z</time></trkpt><trkpt lat="43.14569" lon="11.4252857"><ele>206.00000000000003</ele><time>2026-05-02T10:29:29.25Z</time></trkpt><trkpt lat="43.145776" lon="11.4253448"><ele>206.0</ele><time>2026-05-02T10:29:30.249Z</time></trkpt><trkpt lat="43.1458757" lon="11.4253965"><ele>206.0</ele><time>2026-05-02T10:29:31.252Z</time></trkpt><trkpt lat="43.1459792" lon="11.4254598"><ele>206.0</ele><time>2026-05-02T10:29:32.252Z</time></trkpt><trkpt lat="43.1460777" lon="11.425539"><ele>206.0</ele><time>2026-05-02T10:29:33.256Z</time></trkpt><trkpt lat="43.1461705" lon="11.4256362"><ele>206.0</ele><time>2026-05-02T10:29:34.25Z</time></trkpt><trkpt lat="43.1462595" lon="11.4257468"><ele>204.75</ele><time>2026-05-02T10:29:35.253Z</time></trkpt><trkpt lat="43.1463503" lon="11.4258595"><ele>203.5</ele><time>2026-05-02T10:29:36.25Z</time></trkpt><trkpt lat="43.146448" lon="11.425968"><ele>202.25</ele><time>2026-05-02T10:29:37.251Z</time></trkpt><trkpt lat="43.1465508" lon="11.4260702"><ele>201.0</ele><time>2026-05-02T10:29:38.252Z</time></trkpt><trkpt lat="43.146656" lon="11.4261708"><ele>201.0</ele><time>2026-05-02T10:29:39.249Z</time></trkpt><trkpt lat="43.1467627" lon="11.426266"><ele>201.0</ele><time>2026-05-02T10:29:40.252Z</time></trkpt><trkpt lat="43.1468727" lon="11.4263488"><ele>201.0</ele><time>2026-05-02T10:29:41.251Z</time></trkpt><trkpt lat="43.1469807" lon="11.4264217"><ele>201.0</ele><time>2026-05-02T10:29:42.251Z</time></trkpt><trkpt lat="43.1470832" lon="11.4265055"><ele>201.0</ele><time>2026-05-02T10:29:43.25Z</time></trkpt><trkpt lat="43.147179" lon="11.4266023"><ele>201.0</ele><time>2026-05-02T10:29:44.249Z</time></trkpt><trkpt lat="43.1472692" lon="11.4267095"><ele>201.0</ele><time>2026-05-02T10:29:45.249Z</time></trkpt><trkpt lat="43.147354" lon="11.4268203"><ele>201.0</ele><time>2026-05-02T10:29:46.251Z</time></trkpt><trkpt lat="43.1474377" lon="11.4269275"><ele>201.0</ele><time>2026-05-02T10:29:47.252Z</time></trkpt><trkpt lat="43.147523" lon="11.4270228"><ele>201.0</ele><time>2026-05-02T10:29:48.251Z</time></trkpt><trkpt lat="43.147614" lon="11.4271008"><ele>201.0</ele><time>2026-05-02T10:29:49.25Z</time></trkpt><trkpt lat="43.1477117" lon="11.4271577"><ele>201.0</ele><time>2026-05-02T10:29:50.25Z</time></trkpt><trkpt lat="43.147816" lon="11.4271962"><ele>201.0</ele><time>2026-05-02T10:29:51.25Z</time></trkpt><trkpt lat="43.1479208" lon="11.4272195"><ele>201.8</ele><time>2026-05-02T10:29:52.249Z</time></trkpt><trkpt lat="43.1480167" lon="11.4272418"><ele>202.60000000000002</ele><time>2026-05-02T10:29:53.249Z</time></trkpt><trkpt lat="43.1481058" lon="11.4272725"><ele>203.4</ele><time>2026-05-02T10:29:54.248Z</time></trkpt><trkpt lat="43.1481903" lon="11.4273077"><ele>204.2</ele><time>2026-05-02T10:29:55.248Z</time></trkpt><trkpt lat="43.1482778" lon="11.4273493"><ele>205.0</ele><time>2026-05-02T10:29:56.252Z</time></trkpt><trkpt lat="43.1483672" lon="11.4273925"><ele>205.0</ele><time>2026-05-02T10:29:57.25Z</time></trkpt><trkpt lat="43.1484605" lon="11.4274375"><ele>205.0</ele><time>2026-05-02T10:29:58.253Z</time></trkpt><trkpt lat="43.1485542" lon="11.4274868"><ele>205.0</ele><time>2026-05-02T10:29:59.253Z</time></trkpt><trkpt lat="43.1486443" lon="11.427539"><ele>205.0</ele><time>2026-05-02T10:30:00.25Z</time></trkpt><trkpt lat="43.1487327" lon="11.4275843"><ele>205.0</ele><time>2026-05-02T10:30:01.25Z</time></trkpt><trkpt lat="43.1488208" lon="11.4276282"><ele>205.0</ele><time>2026-05-02T10:30:02.251Z</time></trkpt><trkpt lat="43.1489083" lon="11.4276767"><ele>205.0</ele><time>2026-05-02T10:30:03.25Z</time></trkpt><trkpt lat="43.1489967" lon="11.4277272"><ele>205.0</ele><time>2026-05-02T10:30:04.249Z</time></trkpt><trkpt lat="43.1490838" lon="11.4277785"><ele>205.0</ele><time>2026-05-02T10:30:05.25Z</time></trkpt><trkpt lat="43.1491667" lon="11.4278315"><ele>205.0</ele><time>2026-05-02T10:30:06.252Z</time></trkpt><trkpt lat="43.149245" lon="11.4278895"><ele>204.8</ele><time>2026-05-02T10:30:07.255Z</time></trkpt><trkpt lat="43.1493247" lon="11.4279632"><ele>204.6</ele><time>2026-05-02T10:30:08.253Z</time></trkpt><trkpt lat="43.1494083" lon="11.4280515"><ele>204.39999999999998</ele><time>2026-05-02T10:30:09.251Z</time></trkpt><trkpt lat="43.1494967" lon="11.4281502"><ele>204.2</ele><time>2026-05-02T10:30:10.251Z</time></trkpt><trkpt lat="43.1495893" lon="11.4282542"><ele>204.0</ele><time>2026-05-02T10:30:11.253Z</time></trkpt><trkpt lat="43.1496832" lon="11.428348"><ele>202.79999999999998</ele><time>2026-05-02T10:30:12.251Z</time></trkpt><trkpt lat="43.1497762" lon="11.4284373"><ele>201.6</ele><time>2026-05-02T10:30:13.251Z</time></trkpt><trkpt lat="43.149865" lon="11.4285238"><ele>200.4</ele><time>2026-05-02T10:30:14.251Z</time></trkpt><trkpt lat="43.1499468" lon="11.4286145"><ele>199.2</ele><time>2026-05-02T10:30:15.25Z</time></trkpt><trkpt lat="43.150023" lon="11.4287133"><ele>198.0</ele><time>2026-05-02T10:30:16.249Z</time></trkpt><trkpt lat="43.1500922" lon="11.428818"><ele>196.2</ele><time>2026-05-02T10:30:17.248Z</time></trkpt><trkpt lat="43.1501507" lon="11.4289272"><ele>194.4</ele><time>2026-05-02T10:30:18.249Z</time></trkpt><trkpt lat="43.1502038" lon="11.4290358"><ele>192.6</ele><time>2026-05-02T10:30:19.249Z</time></trkpt><trkpt lat="43.1502582" lon="11.4291375"><ele>190.79999999999998</ele><time>2026-05-02T10:30:20.252Z</time></trkpt><trkpt lat="43.1503137" lon="11.4292277"><ele>189.0</ele><time>2026-05-02T10:30:21.25Z</time></trkpt><trkpt lat="43.1503683" lon="11.4293087"><ele>189.0</ele><time>2026-05-02T10:30:22.251Z</time></trkpt><trkpt lat="43.1504233" lon="11.429386"><ele>189.0</ele><time>2026-05-02T10:30:23.251Z</time></trkpt><trkpt lat="43.1504792" lon="11.4294608"><ele>189.0</ele><time>2026-05-02T10:30:24.25Z</time></trkpt><trkpt lat="43.150535" lon="11.4295327"><ele>189.0</ele><time>2026-05-02T10:30:25.251Z</time></trkpt><trkpt lat="43.1505895" lon="11.4296003"><ele>189.0</ele><time>2026-05-02T10:30:26.25Z</time></trkpt><trkpt lat="43.150646" lon="11.429667"><ele>189.0</ele><time>2026-05-02T10:30:27.25Z</time></trkpt><trkpt lat="43.150704" lon="11.4297273"><ele>189.14285714285714</ele><time>2026-05-02T10:30:28.251Z</time></trkpt><trkpt lat="43.1507635" lon="11.4297828"><ele>189.28571428571428</ele><time>2026-05-02T10:30:29.25Z</time></trkpt><trkpt lat="43.1508227" lon="11.4298375"><ele>189.42857142857144</ele><time>2026-05-02T10:30:30.249Z</time></trkpt><trkpt lat="43.1508818" lon="11.4298893"><ele>189.57142857142856</ele><time>2026-05-02T10:30:31.25Z</time></trkpt><trkpt lat="43.1509408" lon="11.429945"><ele>189.71428571428572</ele><time>2026-05-02T10:30:32.251Z</time></trkpt><trkpt lat="43.1509968" lon="11.4300112"><ele>189.85714285714286</ele><time>2026-05-02T10:30:33.252Z</time></trkpt><trkpt lat="43.1510468" lon="11.4300877"><ele>190.0</ele><time>2026-05-02T10:30:34.252Z</time></trkpt><trkpt lat="43.1510882" lon="11.4301757"><ele>190.0</ele><time>2026-05-02T10:30:35.252Z</time></trkpt><trkpt lat="43.1511177" lon="11.4302738"><ele>190.0</ele><time>2026-05-02T10:30:36.251Z</time></trkpt><trkpt lat="43.1511343" lon="11.4303825"><ele>190.0</ele><time>2026-05-02T10:30:37.253Z</time></trkpt><trkpt lat="43.1511372" lon="11.4304923"><ele>190.0</ele><time>2026-05-02T10:30:38.253Z</time></trkpt><trkpt lat="43.1511338" lon="11.4305965"><ele>190.0</ele><time>2026-05-02T10:30:39.254Z</time></trkpt><trkpt lat="43.1511278" lon="11.4306998"><ele>190.0</ele><time>2026-05-02T10:30:40.253Z</time></trkpt><trkpt lat="43.1511207" lon="11.430803"><ele>188.83333333333334</ele><time>2026-05-02T10:30:41.252Z</time></trkpt><trkpt lat="43.1511115" lon="11.4309055"><ele>187.66666666666669</ele><time>2026-05-02T10:30:42.252Z</time></trkpt><trkpt lat="43.1511037" lon="11.4310093"><ele>186.5</ele><time>2026-05-02T10:30:43.252Z</time></trkpt><trkpt lat="43.1510972" lon="11.4311148"><ele>185.33333333333334</ele><time>2026-05-02T10:30:44.25Z</time></trkpt><trkpt lat="43.1510907" lon="11.4312282"><ele>184.16666666666666</ele><time>2026-05-02T10:30:45.252Z</time></trkpt><trkpt lat="43.1510868" lon="11.4313455"><ele>183.0</ele><time>2026-05-02T10:30:46.254Z</time></trkpt><trkpt lat="43.1510865" lon="11.43146"><ele>182.14285714285714</ele><time>2026-05-02T10:30:47.254Z</time></trkpt><trkpt lat="43.1510907" lon="11.4315695"><ele>181.28571428571428</ele><time>2026-05-02T10:30:48.252Z</time></trkpt><trkpt lat="43.1511002" lon="11.4316712"><ele>180.42857142857144</ele><time>2026-05-02T10:30:49.253Z</time></trkpt><trkpt lat="43.1511125" lon="11.4317662"><ele>179.57142857142856</ele><time>2026-05-02T10:30:50.254Z</time></trkpt><trkpt lat="43.1511233" lon="11.4318597"><ele>178.7142857142857</ele><time>2026-05-02T10:30:51.252Z</time></trkpt><trkpt lat="43.1511323" lon="11.4319558"><ele>177.85714285714286</ele><time>2026-05-02T10:30:52.253Z</time></trkpt><trkpt lat="43.1511378" lon="11.4320552"><ele>177.0</ele><time>2026-05-02T10:30:53.254Z</time></trkpt><trkpt lat="43.1511343" lon="11.4321558"><ele>176.5</ele><time>2026-05-02T10:30:54.253Z</time></trkpt><trkpt lat="43.1511252" lon="11.432254"><ele>176.0</ele><time>2026-05-02T10:30:55.256Z</time></trkpt><trkpt lat="43.151114" lon="11.432352"><ele>175.5</ele><time>2026-05-02T10:30:56.255Z</time></trkpt><trkpt lat="43.1511078" lon="11.4324533"><ele>175.0</ele><time>2026-05-02T10:30:57.252Z</time></trkpt><trkpt lat="43.1511112" lon="11.4325547"><ele>174.5</ele><time>2026-05-02T10:30:58.253Z</time></trkpt><trkpt lat="43.1511262" lon="11.4326585"><ele>174.0</ele><time>2026-05-02T10:30:59.253Z</time></trkpt><trkpt lat="43.1511565" lon="11.4327643"><ele>174.0</ele><time>2026-05-02T10:31:00.254Z</time></trkpt><trkpt lat="43.1511982" lon="11.4328628"><ele>174.0</ele><time>2026-05-02T10:31:01.25Z</time></trkpt><trkpt lat="43.1512467" lon="11.4329483"><ele>174.0</ele><time>2026-05-02T10:31:02.251Z</time></trkpt><trkpt lat="43.1512975" lon="11.4330235"><ele>174.0</ele><time>2026-05-02T10:31:03.25Z</time></trkpt><trkpt lat="43.1513502" lon="11.4330927"><ele>174.0</ele><time>2026-05-02T10:31:04.252Z</time></trkpt><trkpt lat="43.1514043" lon="11.43316"><ele>174.0</ele><time>2026-05-02T10:31:05.251Z</time></trkpt><trkpt lat="43.1514598" lon="11.4332243"><ele>173.33333333333334</ele><time>2026-05-02T10:31:06.249Z</time></trkpt><trkpt lat="43.1515192" lon="11.4332848"><ele>172.66666666666666</ele><time>2026-05-02T10:31:07.247Z</time></trkpt><trkpt lat="43.1515815" lon="11.4333422"><ele>172.0</ele><time>2026-05-02T10:31:08.251Z</time></trkpt><trkpt lat="43.1516442" lon="11.4333953"><ele>171.33333333333331</ele><time>2026-05-02T10:31:09.252Z</time></trkpt><trkpt lat="43.1517045" lon="11.4334392"><ele>170.66666666666666</ele><time>2026-05-02T10:31:10.252Z</time></trkpt><trkpt lat="43.1517635" lon="11.4334733"><ele>170.0</ele><time>2026-05-02T10:31:11.251Z</time></trkpt><trkpt lat="43.1518783" lon="11.4335117"><ele>171.33333333333331</ele><time>2026-05-02T10:31:13.25Z</time></trkpt><trkpt lat="43.1519983" lon="11.4334978"><ele>172.66666666666666</ele><time>2026-05-02T10:31:15.251Z</time></trkpt><trkpt lat="43.1520607" lon="11.4334685"><ele>174.0</ele><time>2026-05-02T10:31:16.251Z</time></trkpt><trkpt lat="43.1521253" lon="11.4334223"><ele>175.33333333333334</ele><time>2026-05-02T10:31:17.251Z</time></trkpt><trkpt lat="43.1521855" lon="11.4333653"><ele>176.66666666666669</ele><time>2026-05-02T10:31:18.25Z</time></trkpt><trkpt lat="43.1522417" lon="11.4333063"><ele>178.0</ele><time>2026-05-02T10:31:19.25Z</time></trkpt><trkpt lat="43.1522932" lon="11.433246"><ele>178.0</ele><time>2026-05-02T10:31:20.251Z</time></trkpt><trkpt lat="43.1523417" lon="11.433187"><ele>178.0</ele><time>2026-05-02T10:31:21.25Z</time></trkpt><trkpt lat="43.1524295" lon="11.4330765"><ele>178.0</ele><time>2026-05-02T10:31:23.25Z</time></trkpt><trkpt lat="43.1525023" lon="11.4329873"><ele>178.0</ele><time>2026-05-02T10:31:25.25Z</time></trkpt><trkpt lat="43.1525892" lon="11.4329397"><ele>178.0</ele><time>2026-05-02T10:31:27.249Z</time></trkpt><trkpt lat="43.152692" lon="11.43297"><ele>176.25</ele><time>2026-05-02T10:31:29.25Z</time></trkpt><trkpt lat="43.1527692" lon="11.4330977"><ele>174.5</ele><time>2026-05-02T10:31:31.249Z</time></trkpt><trkpt lat="43.1527668" lon="11.4332577"><ele>172.75</ele><time>2026-05-02T10:31:33.25Z</time></trkpt><trkpt lat="43.1526953" lon="11.4334085"><ele>171.0</ele><time>2026-05-02T10:31:35.25Z</time></trkpt><trkpt lat="43.1526387" lon="11.4334893"><ele>171.0</ele><time>2026-05-02T10:31:36.25Z</time></trkpt><trkpt lat="43.1525708" lon="11.433572"><ele>171.0</ele><time>2026-05-02T10:31:37.25Z</time></trkpt><trkpt lat="43.152495" lon="11.4336653"><ele>171.0</ele><time>2026-05-02T10:31:38.25Z</time></trkpt><trkpt lat="43.1524158" lon="11.433763"><ele>171.0</ele><time>2026-05-02T10:31:39.251Z</time></trkpt><trkpt lat="43.152336" lon="11.4338618"><ele>171.0</ele><time>2026-05-02T10:31:40.252Z</time></trkpt><trkpt lat="43.1522542" lon="11.433959"><ele>170.4</ele><time>2026-05-02T10:31:41.251Z</time></trkpt><trkpt lat="43.1521698" lon="11.4340557"><ele>169.8</ele><time>2026-05-02T10:31:42.25Z</time></trkpt><trkpt lat="43.1520828" lon="11.4341545"><ele>169.20000000000002</ele><time>2026-05-02T10:31:43.251Z</time></trkpt><trkpt lat="43.1519967" lon="11.4342552"><ele>168.60000000000002</ele><time>2026-05-02T10:31:44.25Z</time></trkpt><trkpt lat="43.1519143" lon="11.4343525"><ele>168.0</ele><time>2026-05-02T10:31:45.25Z</time></trkpt><trkpt lat="43.1518367" lon="11.4344433"><ele>168.0</ele><time>2026-05-02T10:31:46.25Z</time></trkpt><trkpt lat="43.1517627" lon="11.434536"><ele>168.0</ele><time>2026-05-02T10:31:47.25Z</time></trkpt><trkpt lat="43.1516943" lon="11.4346382"><ele>168.0</ele><time>2026-05-02T10:31:48.251Z</time></trkpt><trkpt lat="43.151638" lon="11.4347558"><ele>168.0</ele><time>2026-05-02T10:31:49.253Z</time></trkpt><trkpt lat="43.1515993" lon="11.4348925"><ele>168.0</ele><time>2026-05-02T10:31:50.251Z</time></trkpt><trkpt lat="43.1515795" lon="11.4350455"><ele>165.75</ele><time>2026-05-02T10:31:51.251Z</time></trkpt><trkpt lat="43.1515807" lon="11.435207"><ele>163.5</ele><time>2026-05-02T10:31:52.249Z</time></trkpt><trkpt lat="43.1515993" lon="11.4353732"><ele>161.25</ele><time>2026-05-02T10:31:53.252Z</time></trkpt><trkpt lat="43.1516257" lon="11.4355462"><ele>159.0</ele><time>2026-05-02T10:31:54.251Z</time></trkpt><trkpt lat="43.1516553" lon="11.43573"><ele>158.5</ele><time>2026-05-02T10:31:55.252Z</time></trkpt><trkpt lat="43.1516855" lon="11.4359213"><ele>158.0</ele><time>2026-05-02T10:31:56.249Z</time></trkpt><trkpt lat="43.1517143" lon="11.4361113"><ele>157.5</ele><time>2026-05-02T10:31:57.251Z</time></trkpt><trkpt lat="43.1517433" lon="11.4363012"><ele>157.0</ele><time>2026-05-02T10:31:58.251Z</time></trkpt><trkpt lat="43.1517705" lon="11.4364902"><ele>156.75</ele><time>2026-05-02T10:31:59.252Z</time></trkpt><trkpt lat="43.1517975" lon="11.4366762"><ele>156.5</ele><time>2026-05-02T10:32:00.251Z</time></trkpt><trkpt lat="43.151823" lon="11.4368582"><ele>156.25</ele><time>2026-05-02T10:32:01.251Z</time></trkpt><trkpt lat="43.1518478" lon="11.4370373"><ele>156.0</ele><time>2026-05-02T10:32:02.25Z</time></trkpt><trkpt lat="43.1518718" lon="11.4372158"><ele>156.0</ele><time>2026-05-02T10:32:03.249Z</time></trkpt><trkpt lat="43.1518967" lon="11.4373958"><ele>156.0</ele><time>2026-05-02T10:32:04.249Z</time></trkpt><trkpt lat="43.1519218" lon="11.4375742"><ele>156.0</ele><time>2026-05-02T10:32:05.252Z</time></trkpt><trkpt lat="43.1519467" lon="11.437738"><ele>156.0</ele><time>2026-05-02T10:32:06.249Z</time></trkpt><trkpt lat="43.1519712" lon="11.4378925"><ele>157.0</ele><time>2026-05-02T10:32:07.25Z</time></trkpt><trkpt lat="43.1519933" lon="11.43804"><ele>158.0</ele><time>2026-05-02T10:32:08.25Z</time></trkpt><trkpt lat="43.1520105" lon="11.4381852"><ele>159.0</ele><time>2026-05-02T10:32:09.252Z</time></trkpt><trkpt lat="43.1520167" lon="11.4383243"><ele>160.0</ele><time>2026-05-02T10:32:10.252Z</time></trkpt><trkpt lat="43.1520052" lon="11.4384537"><ele>161.0</ele><time>2026-05-02T10:32:11.251Z</time></trkpt><trkpt lat="43.1519792" lon="11.438575"><ele>161.0</ele><time>2026-05-02T10:32:12.25Z</time></trkpt><trkpt lat="43.1519373" lon="11.4386903"><ele>161.0</ele><time>2026-05-02T10:32:13.251Z</time></trkpt><trkpt lat="43.151881" lon="11.4388005"><ele>161.0</ele><time>2026-05-02T10:32:14.251Z</time></trkpt><trkpt lat="43.1518118" lon="11.4389115"><ele>161.0</ele><time>2026-05-02T10:32:15.249Z</time></trkpt><trkpt lat="43.1517385" lon="11.4390285"><ele>161.0</ele><time>2026-05-02T10:32:16.252Z</time></trkpt><trkpt lat="43.1516687" lon="11.4391447"><ele>161.20000000000002</ele><time>2026-05-02T10:32:17.25Z</time></trkpt><trkpt lat="43.1516048" lon="11.439254"><ele>161.4</ele><time>2026-05-02T10:32:18.249Z</time></trkpt><trkpt lat="43.1515428" lon="11.4393627"><ele>161.6</ele><time>2026-05-02T10:32:19.257Z</time></trkpt><trkpt lat="43.15148" lon="11.4394733"><ele>161.8</ele><time>2026-05-02T10:32:20.249Z</time></trkpt><trkpt lat="43.1514143" lon="11.4395902"><ele>162.0</ele><time>2026-05-02T10:32:21.269Z</time></trkpt><trkpt lat="43.1513482" lon="11.4397153"><ele>162.0</ele><time>2026-05-02T10:32:22.249Z</time></trkpt><trkpt lat="43.1512827" lon="11.4398425"><ele>162.0</ele><time>2026-05-02T10:32:23.252Z</time></trkpt><trkpt lat="43.1512188" lon="11.439979"><ele>162.0</ele><time>2026-05-02T10:32:24.252Z</time></trkpt><trkpt lat="43.1511563" lon="11.4401245"><ele>162.0</ele><time>2026-05-02T10:32:25.254Z</time></trkpt><trkpt lat="43.1510968" lon="11.4402697"><ele>162.0</ele><time>2026-05-02T10:32:26.251Z</time></trkpt><trkpt lat="43.1510418" lon="11.4404097"><ele>162.0</ele><time>2026-05-02T10:32:27.251Z</time></trkpt><trkpt lat="43.1509855" lon="11.440546"><ele>162.0</ele><time>2026-05-02T10:32:28.251Z</time></trkpt><trkpt lat="43.1509155" lon="11.4406677"><ele>162.0</ele><time>2026-05-02T10:32:29.25Z</time></trkpt><trkpt lat="43.1508268" lon="11.440772"><ele>162.25</ele><time>2026-05-02T10:32:30.249Z</time></trkpt><trkpt lat="43.1507212" lon="11.440875"><ele>162.5</ele><time>2026-05-02T10:32:31.249Z</time></trkpt><trkpt lat="43.1506027" lon="11.4409795"><ele>162.75</ele><time>2026-05-02T10:32:32.252Z</time></trkpt><trkpt lat="43.1504753" lon="11.4410878"><ele>163.0</ele><time>2026-05-02T10:32:33.25Z</time></trkpt><trkpt lat="43.1503383" lon="11.4412022"><ele>164.66666666666669</ele><time>2026-05-02T10:32:34.25Z</time></trkpt><trkpt lat="43.1501918" lon="11.4413213"><ele>166.33333333333334</ele><time>2026-05-02T10:32:35.25Z</time></trkpt><trkpt lat="43.1500442" lon="11.4414435"><ele>168.0</ele><time>2026-05-02T10:32:36.251Z</time></trkpt><trkpt lat="43.1498987" lon="11.4415638"><ele>166.33333333333334</ele><time>2026-05-02T10:32:37.25Z</time></trkpt><trkpt lat="43.1497528" lon="11.441682"><ele>164.66666666666669</ele><time>2026-05-02T10:32:38.251Z</time></trkpt><trkpt lat="43.1496057" lon="11.4417955"><ele>163.0</ele><time>2026-05-02T10:32:39.251Z</time></trkpt><trkpt lat="43.1494605" lon="11.4419075"><ele>163.0</ele><time>2026-05-02T10:32:40.25Z</time></trkpt><trkpt lat="43.1493173" lon="11.4420165"><ele>163.0</ele><time>2026-05-02T10:32:41.251Z</time></trkpt><trkpt lat="43.149176" lon="11.4421235"><ele>163.0</ele><time>2026-05-02T10:32:42.249Z</time></trkpt><trkpt lat="43.1490435" lon="11.4422312"><ele>163.25</ele><time>2026-05-02T10:32:43.249Z</time></trkpt><trkpt lat="43.1489207" lon="11.4423387"><ele>163.5</ele><time>2026-05-02T10:32:44.249Z</time></trkpt><trkpt lat="43.1488042" lon="11.4424528"><ele>163.75</ele><time>2026-05-02T10:32:45.25Z</time></trkpt><trkpt lat="43.1486962" lon="11.4425857"><ele>164.0</ele><time>2026-05-02T10:32:46.249Z</time></trkpt><trkpt lat="43.1485922" lon="11.442737"><ele>164.0</ele><time>2026-05-02T10:32:47.249Z</time></trkpt><trkpt lat="43.1484908" lon="11.4428955"><ele>164.0</ele><time>2026-05-02T10:32:48.25Z</time></trkpt><trkpt lat="43.1483848" lon="11.4430577"><ele>164.0</ele><time>2026-05-02T10:32:49.252Z</time></trkpt><trkpt lat="43.1482802" lon="11.4432142"><ele>164.0</ele><time>2026-05-02T10:32:50.251Z</time></trkpt><trkpt lat="43.148187" lon="11.443364"><ele>164.0</ele><time>2026-05-02T10:32:51.25Z</time></trkpt><trkpt lat="43.148113" lon="11.443511"><ele>164.0</ele><time>2026-05-02T10:32:52.249Z</time></trkpt><trkpt lat="43.1480675" lon="11.4436593"><ele>164.0</ele><time>2026-05-02T10:32:53.251Z</time></trkpt><trkpt lat="43.1480533" lon="11.4438013"><ele>164.0</ele><time>2026-05-02T10:32:54.252Z</time></trkpt><trkpt lat="43.1480655" lon="11.4439178"><ele>164.0</ele><time>2026-05-02T10:32:55.248Z</time></trkpt><trkpt lat="43.1480957" lon="11.4440142"><ele>164.0</ele><time>2026-05-02T10:32:56.249Z</time></trkpt><trkpt lat="43.1481367" lon="11.4441073"><ele>164.0</ele><time>2026-05-02T10:32:57.249Z</time></trkpt><trkpt lat="43.1481773" lon="11.4442152"><ele>164.0</ele><time>2026-05-02T10:32:58.25Z</time></trkpt><trkpt lat="43.1482095" lon="11.4443447"><ele>164.0</ele><time>2026-05-02T10:32:59.251Z</time></trkpt><trkpt lat="43.1482195" lon="11.4444865"><ele>164.0</ele><time>2026-05-02T10:33:00.25Z</time></trkpt><trkpt lat="43.1481968" lon="11.444616"><ele>164.0</ele><time>2026-05-02T10:33:01.251Z</time></trkpt><trkpt lat="43.1481447" lon="11.4447217"><ele>164.0</ele><time>2026-05-02T10:33:02.248Z</time></trkpt><trkpt lat="43.1480688" lon="11.4447933"><ele>164.0</ele><time>2026-05-02T10:33:03.25Z</time></trkpt><trkpt lat="43.1479815" lon="11.4448225"><ele>164.0</ele><time>2026-05-02T10:33:04.25Z</time></trkpt><trkpt lat="43.147886" lon="11.4448147"><ele>164.0</ele><time>2026-05-02T10:33:05.251Z</time></trkpt><trkpt lat="43.1477802" lon="11.4447728"><ele>164.0</ele><time>2026-05-02T10:33:06.249Z</time></trkpt><trkpt lat="43.1476647" lon="11.4447122"><ele>164.0</ele><time>2026-05-02T10:33:07.249Z</time></trkpt><trkpt lat="43.1475418" lon="11.4446505"><ele>164.0</ele><time>2026-05-02T10:33:08.248Z</time></trkpt><trkpt lat="43.1474112" lon="11.4446012"><ele>163.5</ele><time>2026-05-02T10:33:09.249Z</time></trkpt><trkpt lat="43.1472733" lon="11.4445628"><ele>163.0</ele><time>2026-05-02T10:33:10.248Z</time></trkpt><trkpt lat="43.1471328" lon="11.4445367"><ele>162.5</ele><time>2026-05-02T10:33:11.249Z</time></trkpt><trkpt lat="43.146989" lon="11.4445267"><ele>162.0</ele><time>2026-05-02T10:33:12.251Z</time></trkpt><trkpt lat="43.1468457" lon="11.4445263"><ele>162.0</ele><time>2026-05-02T10:33:13.249Z</time></trkpt><trkpt lat="43.1467092" lon="11.4445372"><ele>162.0</ele><time>2026-05-02T10:33:14.25Z</time></trkpt><trkpt lat="43.1465835" lon="11.4445598"><ele>162.0</ele><time>2026-05-02T10:33:15.25Z</time></trkpt><trkpt lat="43.1464695" lon="11.444599"><ele>162.0</ele><time>2026-05-02T10:33:16.25Z</time></trkpt><trkpt lat="43.1463728" lon="11.4446557"><ele>162.0</ele><time>2026-05-02T10:33:17.251Z</time></trkpt><trkpt lat="43.1462943" lon="11.4447317"><ele>162.0</ele><time>2026-05-02T10:33:18.25Z</time></trkpt><trkpt lat="43.1462353" lon="11.4448255"><ele>162.0</ele><time>2026-05-02T10:33:19.251Z</time></trkpt><trkpt lat="43.1461917" lon="11.4449323"><ele>162.0</ele><time>2026-05-02T10:33:20.25Z</time></trkpt><trkpt lat="43.1461552" lon="11.4450503"><ele>162.0</ele><time>2026-05-02T10:33:21.249Z</time></trkpt><trkpt lat="43.1461302" lon="11.4451722"><ele>162.0</ele><time>2026-05-02T10:33:22.252Z</time></trkpt><trkpt lat="43.146122" lon="11.4452975"><ele>162.0</ele><time>2026-05-02T10:33:23.251Z</time></trkpt><trkpt lat="43.1461333" lon="11.4454303"><ele>162.0</ele><time>2026-05-02T10:33:24.248Z</time></trkpt><trkpt lat="43.1461632" lon="11.4455735"><ele>162.0</ele><time>2026-05-02T10:33:25.249Z</time></trkpt><trkpt lat="43.1462012" lon="11.445727"><ele>162.0</ele><time>2026-05-02T10:33:26.251Z</time></trkpt><trkpt lat="43.1462372" lon="11.4458872"><ele>161.75</ele><time>2026-05-02T10:33:27.25Z</time></trkpt><trkpt lat="43.1462732" lon="11.446051"><ele>161.5</ele><time>2026-05-02T10:33:28.25Z</time></trkpt><trkpt lat="43.1463165" lon="11.4462153"><ele>161.25</ele><time>2026-05-02T10:33:29.25Z</time></trkpt><trkpt lat="43.1463612" lon="11.4463693"><ele>161.0</ele><time>2026-05-02T10:33:30.251Z</time></trkpt><trkpt lat="43.1464015" lon="11.4465115"><ele>161.83333333333331</ele><time>2026-05-02T10:33:31.25Z</time></trkpt><trkpt lat="43.1464315" lon="11.4466402"><ele>162.66666666666666</ele><time>2026-05-02T10:33:32.249Z</time></trkpt><trkpt lat="43.146433" lon="11.4467582"><ele>163.5</ele><time>2026-05-02T10:33:33.248Z</time></trkpt><trkpt lat="43.146402" lon="11.4468547"><ele>164.33333333333334</ele><time>2026-05-02T10:33:34.248Z</time></trkpt><trkpt lat="43.1463443" lon="11.4469142"><ele>165.16666666666669</ele><time>2026-05-02T10:33:35.248Z</time></trkpt><trkpt lat="43.1462748" lon="11.4469333"><ele>166.0</ele><time>2026-05-02T10:33:36.248Z</time></trkpt><trkpt lat="43.1461933" lon="11.4469225"><ele>166.0</ele><time>2026-05-02T10:33:37.249Z</time></trkpt><trkpt lat="43.1460992" lon="11.446896"><ele>166.0</ele><time>2026-05-02T10:33:38.25Z</time></trkpt><trkpt lat="43.145989" lon="11.4468748"><ele>166.0</ele><time>2026-05-02T10:33:39.249Z</time></trkpt><trkpt lat="43.1458677" lon="11.4468655"><ele>166.0</ele><time>2026-05-02T10:33:40.252Z</time></trkpt><trkpt lat="43.1457438" lon="11.446871"><ele>165.0</ele><time>2026-05-02T10:33:41.253Z</time></trkpt><trkpt lat="43.1456273" lon="11.4468895"><ele>164.0</ele><time>2026-05-02T10:33:42.252Z</time></trkpt><trkpt lat="43.1455188" lon="11.446927"><ele>163.0</ele><time>2026-05-02T10:33:43.251Z</time></trkpt><trkpt lat="43.1454185" lon="11.4469887"><ele>162.0</ele><time>2026-05-02T10:33:44.251Z</time></trkpt><trkpt lat="43.1453192" lon="11.4470773"><ele>163.2</ele><time>2026-05-02T10:33:45.253Z</time></trkpt><trkpt lat="43.1452222" lon="11.447181"><ele>164.39999999999998</ele><time>2026-05-02T10:33:46.251Z</time></trkpt><trkpt lat="43.1451318" lon="11.4472847"><ele>165.60000000000002</ele><time>2026-05-02T10:33:47.251Z</time></trkpt><trkpt lat="43.145049" lon="11.4473815"><ele>166.8</ele><time>2026-05-02T10:33:48.251Z</time></trkpt><trkpt lat="43.1449802" lon="11.4474753"><ele>168.0</ele><time>2026-05-02T10:33:49.25Z</time></trkpt><trkpt lat="43.1449347" lon="11.4475758"><ele>168.0</ele><time>2026-05-02T10:33:50.252Z</time></trkpt><trkpt lat="43.1449167" lon="11.4476802"><ele>168.0</ele><time>2026-05-02T10:33:51.25Z</time></trkpt><trkpt lat="43.1449162" lon="11.4477793"><ele>168.0</ele><time>2026-05-02T10:33:52.25Z</time></trkpt><trkpt lat="43.1449127" lon="11.4478768"><ele>168.0</ele><time>2026-05-02T10:33:53.252Z</time></trkpt><trkpt lat="43.1449047" lon="11.4479893"><ele>168.0</ele><time>2026-05-02T10:33:54.249Z</time></trkpt><trkpt lat="43.1448988" lon="11.4481157"><ele>168.0</ele><time>2026-05-02T10:33:55.25Z</time></trkpt><trkpt lat="43.1448902" lon="11.448238"><ele>167.83333333333334</ele><time>2026-05-02T10:33:56.252Z</time></trkpt><trkpt lat="43.1448663" lon="11.4483498"><ele>167.66666666666666</ele><time>2026-05-02T10:33:57.248Z</time></trkpt><trkpt lat="43.1448178" lon="11.448447"><ele>167.5</ele><time>2026-05-02T10:33:58.248Z</time></trkpt><trkpt lat="43.1447485" lon="11.4485195"><ele>167.33333333333331</ele><time>2026-05-02T10:33:59.249Z</time></trkpt><trkpt lat="43.1446707" lon="11.4485642"><ele>167.16666666666666</ele><time>2026-05-02T10:34:00.249Z</time></trkpt><trkpt lat="43.1445928" lon="11.4485893"><ele>167.0</ele><time>2026-05-02T10:34:01.249Z</time></trkpt><trkpt lat="43.1445165" lon="11.4485977"><ele>167.0</ele><time>2026-05-02T10:34:02.25Z</time></trkpt><trkpt lat="43.1444372" lon="11.4485898"><ele>167.0</ele><time>2026-05-02T10:34:03.25Z</time></trkpt><trkpt lat="43.1443607" lon="11.448579"><ele>167.0</ele><time>2026-05-02T10:34:04.251Z</time></trkpt><trkpt lat="43.1442867" lon="11.448558"><ele>167.0</ele><time>2026-05-02T10:34:05.252Z</time></trkpt><trkpt lat="43.1442107" lon="11.4485268"><ele>167.0</ele><time>2026-05-02T10:34:06.248Z</time></trkpt><trkpt lat="43.1441335" lon="11.4484987"><ele>167.0</ele><time>2026-05-02T10:34:07.249Z</time></trkpt><trkpt lat="43.144056" lon="11.4484677"><ele>167.83333333333331</ele><time>2026-05-02T10:34:08.248Z</time></trkpt><trkpt lat="43.1439815" lon="11.4484287"><ele>168.66666666666666</ele><time>2026-05-02T10:34:09.249Z</time></trkpt><trkpt lat="43.1439128" lon="11.448387"><ele>169.5</ele><time>2026-05-02T10:34:10.248Z</time></trkpt><trkpt lat="43.1438478" lon="11.4483492"><ele>170.33333333333334</ele><time>2026-05-02T10:34:11.25Z</time></trkpt><trkpt lat="43.1437858" lon="11.4483122"><ele>171.16666666666669</ele><time>2026-05-02T10:34:12.25Z</time></trkpt><trkpt lat="43.1436768" lon="11.448235"><ele>172.0</ele><time>2026-05-02T10:34:14.248Z</time></trkpt><trkpt lat="43.1435738" lon="11.4481687"><ele>172.0</ele><time>2026-05-02T10:34:16.251Z</time></trkpt><trkpt lat="43.1435178" lon="11.4481232"><ele>172.0</ele><time>2026-05-02T10:34:17.249Z</time></trkpt><trkpt lat="43.1434555" lon="11.4480737"><ele>172.0</ele><time>2026-05-02T10:34:18.248Z</time></trkpt><trkpt lat="43.1433858" lon="11.448024"><ele>172.0</ele><time>2026-05-02T10:34:19.249Z</time></trkpt><trkpt lat="43.1433132" lon="11.4479693"><ele>172.0</ele><time>2026-05-02T10:34:20.25Z</time></trkpt><trkpt lat="43.1432365" lon="11.4479107"><ele>172.0</ele><time>2026-05-02T10:34:21.249Z</time></trkpt><trkpt lat="43.1431557" lon="11.4478508"><ele>170.2</ele><time>2026-05-02T10:34:22.249Z</time></trkpt><trkpt lat="43.1430685" lon="11.4477977"><ele>168.39999999999998</ele><time>2026-05-02T10:34:23.249Z</time></trkpt><trkpt lat="43.1429757" lon="11.4477538"><ele>166.60000000000002</ele><time>2026-05-02T10:34:24.249Z</time></trkpt><trkpt lat="43.1428773" lon="11.4477202"><ele>164.8</ele><time>2026-05-02T10:34:25.25Z</time></trkpt><trkpt lat="43.142773" lon="11.4476985"><ele>163.0</ele><time>2026-05-02T10:34:26.251Z</time></trkpt><trkpt lat="43.142661" lon="11.4476937"><ele>163.0</ele><time>2026-05-02T10:34:27.252Z</time></trkpt><trkpt lat="43.1425427" lon="11.4477057"><ele>163.0</ele><time>2026-05-02T10:34:28.251Z</time></trkpt><trkpt lat="43.1424202" lon="11.4477343"><ele>163.0</ele><time>2026-05-02T10:34:29.251Z</time></trkpt><trkpt lat="43.1422907" lon="11.4477718"><ele>163.0</ele><time>2026-05-02T10:34:30.251Z</time></trkpt><trkpt lat="43.1421567" lon="11.4478123"><ele>162.75</ele><time>2026-05-02T10:34:31.251Z</time></trkpt><trkpt lat="43.142022" lon="11.447858"><ele>162.5</ele><time>2026-05-02T10:34:32.251Z</time></trkpt><trkpt lat="43.1418868" lon="11.4479077"><ele>162.25</ele><time>2026-05-02T10:34:33.251Z</time></trkpt><trkpt lat="43.1417553" lon="11.4479562"><ele>162.0</ele><time>2026-05-02T10:34:34.249Z</time></trkpt><trkpt lat="43.1416322" lon="11.4479983"><ele>164.25</ele><time>2026-05-02T10:34:35.252Z</time></trkpt><trkpt lat="43.1415163" lon="11.4480313"><ele>166.5</ele><time>2026-05-02T10:34:36.252Z</time></trkpt><trkpt lat="43.141405" lon="11.4480565"><ele>168.75</ele><time>2026-05-02T10:34:37.252Z</time></trkpt><trkpt lat="43.1412952" lon="11.4480788"><ele>171.0</ele><time>2026-05-02T10:34:38.253Z</time></trkpt><trkpt lat="43.1411842" lon="11.4481003"><ele>171.0</ele><time>2026-05-02T10:34:39.252Z</time></trkpt><trkpt lat="43.1410743" lon="11.4481205"><ele>171.0</ele><time>2026-05-02T10:34:40.254Z</time></trkpt><trkpt lat="43.1409688" lon="11.4481433"><ele>171.0</ele><time>2026-05-02T10:34:41.251Z</time></trkpt><trkpt lat="43.140864" lon="11.4481633"><ele>171.0</ele><time>2026-05-02T10:34:42.251Z</time></trkpt><trkpt lat="43.1407592" lon="11.4481788"><ele>171.0</ele><time>2026-05-02T10:34:43.252Z</time></trkpt><trkpt lat="43.1406527" lon="11.4481897"><ele>170.25</ele><time>2026-05-02T10:34:44.25Z</time></trkpt><trkpt lat="43.1405458" lon="11.4481853"><ele>169.5</ele><time>2026-05-02T10:34:45.248Z</time></trkpt><trkpt lat="43.1404375" lon="11.4481622"><ele>168.75</ele><time>2026-05-02T10:34:46.248Z</time></trkpt><trkpt lat="43.1403253" lon="11.4481258"><ele>168.0</ele><time>2026-05-02T10:34:47.248Z</time></trkpt><trkpt lat="43.140212" lon="11.4480778"><ele>168.0</ele><time>2026-05-02T10:34:48.248Z</time></trkpt><trkpt lat="43.1401022" lon="11.4480232"><ele>168.0</ele><time>2026-05-02T10:34:49.248Z</time></trkpt><trkpt lat="43.1399992" lon="11.4479645"><ele>168.0</ele><time>2026-05-02T10:34:50.251Z</time></trkpt><trkpt lat="43.1399077" lon="11.4479022"><ele>168.0</ele><time>2026-05-02T10:34:51.25Z</time></trkpt><trkpt lat="43.1398273" lon="11.4478495"><ele>168.0</ele><time>2026-05-02T10:34:52.252Z</time></trkpt><trkpt lat="43.1397482" lon="11.4478187"><ele>166.4</ele><time>2026-05-02T10:34:53.254Z</time></trkpt><trkpt lat="43.139664" lon="11.4478143"><ele>164.8</ele><time>2026-05-02T10:34:54.253Z</time></trkpt><trkpt lat="43.139578" lon="11.4478372"><ele>163.2</ele><time>2026-05-02T10:34:55.252Z</time></trkpt><trkpt lat="43.139497" lon="11.4478913"><ele>161.6</ele><time>2026-05-02T10:34:56.254Z</time></trkpt><trkpt lat="43.1394273" lon="11.4479772"><ele>160.0</ele><time>2026-05-02T10:34:57.251Z</time></trkpt><trkpt lat="43.1393743" lon="11.4480917"><ele>160.0</ele><time>2026-05-02T10:34:58.253Z</time></trkpt><trkpt lat="43.1393405" lon="11.448229"><ele>160.0</ele><time>2026-05-02T10:34:59.252Z</time></trkpt><trkpt lat="43.1393188" lon="11.4483855"><ele>160.0</ele><time>2026-05-02T10:35:00.252Z</time></trkpt><trkpt lat="43.139305" lon="11.4485505"><ele>160.0</ele><time>2026-05-02T10:35:01.254Z</time></trkpt><trkpt lat="43.1392938" lon="11.4487252"><ele>160.0</ele><time>2026-05-02T10:35:02.252Z</time></trkpt><trkpt lat="43.1392865" lon="11.4489047"><ele>160.0</ele><time>2026-05-02T10:35:03.252Z</time></trkpt><trkpt lat="43.1392832" lon="11.449085"><ele>160.0</ele><time>2026-05-02T10:35:04.253Z</time></trkpt><trkpt lat="43.1392812" lon="11.4492662"><ele>160.0</ele><time>2026-05-02T10:35:05.253Z</time></trkpt><trkpt lat="43.1392788" lon="11.4494478"><ele>160.0</ele><time>2026-05-02T10:35:06.253Z</time></trkpt><trkpt lat="43.1392762" lon="11.4496287"><ele>160.0</ele><time>2026-05-02T10:35:07.254Z</time></trkpt><trkpt lat="43.1392747" lon="11.4498093"><ele>160.0</ele><time>2026-05-02T10:35:08.254Z</time></trkpt><trkpt lat="43.1392787" lon="11.4499913"><ele>160.0</ele><time>2026-05-02T10:35:09.252Z</time></trkpt><trkpt lat="43.1392877" lon="11.450174"><ele>160.0</ele><time>2026-05-02T10:35:10.251Z</time></trkpt><trkpt lat="43.1392983" lon="11.4503552"><ele>160.0</ele><time>2026-05-02T10:35:11.252Z</time></trkpt><trkpt lat="43.1392993" lon="11.4505323"><ele>160.0</ele><time>2026-05-02T10:35:12.25Z</time></trkpt><trkpt lat="43.1392848" lon="11.450702"><ele>160.0</ele><time>2026-05-02T10:35:13.251Z</time></trkpt><trkpt lat="43.1392483" lon="11.450862"><ele>160.5</ele><time>2026-05-02T10:35:14.253Z</time></trkpt><trkpt lat="43.1391883" lon="11.4510147"><ele>161.0</ele><time>2026-05-02T10:35:15.251Z</time></trkpt><trkpt lat="43.139116" lon="11.4511648"><ele>161.5</ele><time>2026-05-02T10:35:16.251Z</time></trkpt><trkpt lat="43.1390423" lon="11.4513128"><ele>162.0</ele><time>2026-05-02T10:35:17.251Z</time></trkpt><trkpt lat="43.1389682" lon="11.4514628"><ele>160.25</ele><time>2026-05-02T10:35:18.251Z</time></trkpt><trkpt lat="43.1388913" lon="11.4516138"><ele>158.5</ele><time>2026-05-02T10:35:19.252Z</time></trkpt><trkpt lat="43.138811" lon="11.4517668"><ele>156.75</ele><time>2026-05-02T10:35:20.251Z</time></trkpt><trkpt lat="43.1387262" lon="11.4519187"><ele>155.0</ele><time>2026-05-02T10:35:21.252Z</time></trkpt><trkpt lat="43.1386383" lon="11.4520638"><ele>156.0</ele><time>2026-05-02T10:35:22.252Z</time></trkpt><trkpt lat="43.1385477" lon="11.4521993"><ele>157.0</ele><time>2026-05-02T10:35:23.252Z</time></trkpt><trkpt lat="43.1384538" lon="11.452325"><ele>158.0</ele><time>2026-05-02T10:35:24.252Z</time></trkpt><trkpt lat="43.1383548" lon="11.4524397"><ele>159.0</ele><time>2026-05-02T10:35:25.252Z</time></trkpt><trkpt lat="43.1382493" lon="11.4525458"><ele>157.5</ele><time>2026-05-02T10:35:26.251Z</time></trkpt><trkpt lat="43.1381355" lon="11.4526423"><ele>156.0</ele><time>2026-05-02T10:35:27.25Z</time></trkpt><trkpt lat="43.1380125" lon="11.4527338"><ele>154.5</ele><time>2026-05-02T10:35:28.251Z</time></trkpt><trkpt lat="43.1378853" lon="11.4528232"><ele>153.0</ele><time>2026-05-02T10:35:29.251Z</time></trkpt><trkpt lat="43.137756" lon="11.4529075"><ele>153.0</ele><time>2026-05-02T10:35:30.251Z</time></trkpt><trkpt lat="43.1376275" lon="11.4529828"><ele>153.0</ele><time>2026-05-02T10:35:31.252Z</time></trkpt><trkpt lat="43.137501" lon="11.4530585"><ele>153.0</ele><time>2026-05-02T10:35:32.254Z</time></trkpt><trkpt lat="43.1373777" lon="11.4531505"><ele>153.0</ele><time>2026-05-02T10:35:33.254Z</time></trkpt><trkpt lat="43.1372555" lon="11.4532565"><ele>153.0</ele><time>2026-05-02T10:35:34.253Z</time></trkpt><trkpt lat="43.1371338" lon="11.4533732"><ele>153.0</ele><time>2026-05-02T10:35:35.25Z</time></trkpt><trkpt lat="43.1370145" lon="11.4534955"><ele>153.0</ele><time>2026-05-02T10:35:36.25Z</time></trkpt><trkpt lat="43.1369017" lon="11.4536158"><ele>153.0</ele><time>2026-05-02T10:35:37.251Z</time></trkpt><trkpt lat="43.136789" lon="11.4537347"><ele>152.5</ele><time>2026-05-02T10:35:38.25Z</time></trkpt><trkpt lat="43.1366783" lon="11.4538632"><ele>152.0</ele><time>2026-05-02T10:35:39.252Z</time></trkpt><trkpt lat="43.1365712" lon="11.4540032"><ele>151.5</ele><time>2026-05-02T10:35:40.251Z</time></trkpt><trkpt lat="43.1364702" lon="11.4541493"><ele>151.0</ele><time>2026-05-02T10:35:41.253Z</time></trkpt><trkpt lat="43.1363743" lon="11.4543022"><ele>151.0</ele><time>2026-05-02T10:35:42.253Z</time></trkpt><trkpt lat="43.1362832" lon="11.4544632"><ele>151.0</ele><time>2026-05-02T10:35:43.254Z</time></trkpt><trkpt lat="43.1361962" lon="11.4546347"><ele>151.0</ele><time>2026-05-02T10:35:44.253Z</time></trkpt><trkpt lat="43.1361135" lon="11.4548133"><ele>152.25</ele><time>2026-05-02T10:35:45.252Z</time></trkpt><trkpt lat="43.1360372" lon="11.4549887"><ele>153.5</ele><time>2026-05-02T10:35:46.254Z</time></trkpt><trkpt lat="43.1359643" lon="11.4551572"><ele>154.75</ele><time>2026-05-02T10:35:47.253Z</time></trkpt><trkpt lat="43.1358867" lon="11.4553207"><ele>156.0</ele><time>2026-05-02T10:35:48.253Z</time></trkpt><trkpt lat="43.1357993" lon="11.4554733"><ele>155.0</ele><time>2026-05-02T10:35:49.254Z</time></trkpt><trkpt lat="43.1356968" lon="11.4556095"><ele>154.0</ele><time>2026-05-02T10:35:50.255Z</time></trkpt><trkpt lat="43.1355825" lon="11.4557345"><ele>153.0</ele><time>2026-05-02T10:35:51.255Z</time></trkpt><trkpt lat="43.1354638" lon="11.4558577"><ele>152.0</ele><time>2026-05-02T10:35:52.255Z</time></trkpt><trkpt lat="43.1353435" lon="11.4559818"><ele>152.0</ele><time>2026-05-02T10:35:53.256Z</time></trkpt><trkpt lat="43.1352213" lon="11.4561072"><ele>152.0</ele><time>2026-05-02T10:35:54.253Z</time></trkpt><trkpt lat="43.1350985" lon="11.4562337"><ele>152.0</ele><time>2026-05-02T10:35:55.253Z</time></trkpt><trkpt lat="43.134974" lon="11.4563602"><ele>152.0</ele><time>2026-05-02T10:35:56.253Z</time></trkpt><trkpt lat="43.1348485" lon="11.4564857"><ele>152.0</ele><time>2026-05-02T10:35:57.254Z</time></trkpt><trkpt lat="43.1347247" lon="11.4566115"><ele>152.0</ele><time>2026-05-02T10:35:58.254Z</time></trkpt><trkpt lat="43.1346022" lon="11.4567363"><ele>152.0</ele><time>2026-05-02T10:35:59.253Z</time></trkpt><trkpt lat="43.1344802" lon="11.4568583"><ele>152.0</ele><time>2026-05-02T10:36:00.249Z</time></trkpt><trkpt lat="43.1343593" lon="11.4569783"><ele>152.0</ele><time>2026-05-02T10:36:01.25Z</time></trkpt><trkpt lat="43.1342403" lon="11.457098"><ele>152.0</ele><time>2026-05-02T10:36:02.25Z</time></trkpt><trkpt lat="43.134121" lon="11.4572192"><ele>151.33333333333331</ele><time>2026-05-02T10:36:03.251Z</time></trkpt><trkpt lat="43.1339992" lon="11.4573405"><ele>150.66666666666666</ele><time>2026-05-02T10:36:04.255Z</time></trkpt><trkpt lat="43.133877" lon="11.4574605"><ele>150.0</ele><time>2026-05-02T10:36:05.255Z</time></trkpt><trkpt lat="43.1337552" lon="11.4575793"><ele>150.0</ele><time>2026-05-02T10:36:06.253Z</time></trkpt><trkpt lat="43.1336342" lon="11.4576943"><ele>150.0</ele><time>2026-05-02T10:36:07.252Z</time></trkpt><trkpt lat="43.1335128" lon="11.457802"><ele>150.0</ele><time>2026-05-02T10:36:08.252Z</time></trkpt><trkpt lat="43.133393" lon="11.4579048"><ele>150.0</ele><time>2026-05-02T10:36:09.254Z</time></trkpt><trkpt lat="43.1332765" lon="11.4580113"><ele>149.25</ele><time>2026-05-02T10:36:10.25Z</time></trkpt><trkpt lat="43.133165" lon="11.4581318"><ele>148.5</ele><time>2026-05-02T10:36:11.253Z</time></trkpt><trkpt lat="43.1330548" lon="11.4582652"><ele>147.75</ele><time>2026-05-02T10:36:12.252Z</time></trkpt><trkpt lat="43.1329447" lon="11.4584005"><ele>147.0</ele><time>2026-05-02T10:36:13.256Z</time></trkpt><trkpt lat="43.1328385" lon="11.458532"><ele>147.0</ele><time>2026-05-02T10:36:14.254Z</time></trkpt><trkpt lat="43.1327402" lon="11.4586637"><ele>147.0</ele><time>2026-05-02T10:36:15.253Z</time></trkpt><trkpt lat="43.1326567" lon="11.458798"><ele>147.0</ele><time>2026-05-02T10:36:16.251Z</time></trkpt><trkpt lat="43.1325925" lon="11.4589402"><ele>147.0</ele><time>2026-05-02T10:36:17.254Z</time></trkpt><trkpt lat="43.1325423" lon="11.4590983"><ele>146.5</ele><time>2026-05-02T10:36:18.253Z</time></trkpt><trkpt lat="43.1324988" lon="11.4592615"><ele>146.0</ele><time>2026-05-02T10:36:19.252Z</time></trkpt><trkpt lat="43.1324573" lon="11.4594263"><ele>145.5</ele><time>2026-05-02T10:36:20.252Z</time></trkpt><trkpt lat="43.1324173" lon="11.4595842"><ele>145.0</ele><time>2026-05-02T10:36:21.25Z</time></trkpt><trkpt lat="43.1323783" lon="11.4597422"><ele>145.0</ele><time>2026-05-02T10:36:22.249Z</time></trkpt><trkpt lat="43.1323423" lon="11.4598998"><ele>145.0</ele><time>2026-05-02T10:36:23.252Z</time></trkpt><trkpt lat="43.132306" lon="11.4600545"><ele>145.0</ele><time>2026-05-02T10:36:24.249Z</time></trkpt><trkpt lat="43.1322672" lon="11.4602097"><ele>145.0</ele><time>2026-05-02T10:36:25.252Z</time></trkpt><trkpt lat="43.1322278" lon="11.460366"><ele>145.25</ele><time>2026-05-02T10:36:26.252Z</time></trkpt><trkpt lat="43.1321875" lon="11.4605215"><ele>145.5</ele><time>2026-05-02T10:36:27.252Z</time></trkpt><trkpt lat="43.132152" lon="11.4606743"><ele>145.75</ele><time>2026-05-02T10:36:28.253Z</time></trkpt><trkpt lat="43.1321272" lon="11.4608268"><ele>146.0</ele><time>2026-05-02T10:36:29.253Z</time></trkpt><trkpt lat="43.13212" lon="11.4609785"><ele>146.0</ele><time>2026-05-02T10:36:30.252Z</time></trkpt><trkpt lat="43.13213" lon="11.4611263"><ele>146.0</ele><time>2026-05-02T10:36:31.251Z</time></trkpt><trkpt lat="43.1321463" lon="11.461269"><ele>146.0</ele><time>2026-05-02T10:36:32.251Z</time></trkpt><trkpt lat="43.1321637" lon="11.4613993"><ele>146.0</ele><time>2026-05-02T10:36:33.252Z</time></trkpt><trkpt lat="43.1321783" lon="11.461517"><ele>146.0</ele><time>2026-05-02T10:36:34.252Z</time></trkpt><trkpt lat="43.1321897" lon="11.461617"><ele>146.0</ele><time>2026-05-02T10:36:35.252Z</time></trkpt><trkpt lat="43.1321922" lon="11.4617043"><ele>146.0</ele><time>2026-05-02T10:36:36.253Z</time></trkpt><trkpt lat="43.1321733" lon="11.4618302"><ele>146.0</ele><time>2026-05-02T10:36:38.252Z</time></trkpt><trkpt lat="43.1321235" lon="11.4618855"><ele>146.0</ele><time>2026-05-02T10:36:42.251Z</time></trkpt><trkpt lat="43.1320525" lon="11.4618657"><ele>146.0</ele><time>2026-05-02T10:37:04.254Z</time></trkpt><trkpt lat="43.1319897" lon="11.4617545"><ele>146.0</ele><time>2026-05-02T10:37:06.251Z</time></trkpt><trkpt lat="43.1319275" lon="11.461658"><ele>146.0</ele><time>2026-05-02T10:37:08.253Z</time></trkpt><trkpt lat="43.131873" lon="11.461612"><ele>146.0</ele><time>2026-05-02T10:37:10.251Z</time></trkpt><trkpt lat="43.1317957" lon="11.4615888"><ele>146.0</ele><time>2026-05-02T10:37:13.248Z</time></trkpt><trkpt lat="43.1317257" lon="11.4615788"><ele>146.0</ele><time>2026-05-02T10:37:15.251Z</time></trkpt><trkpt lat="43.1316358" lon="11.4615713"><ele>146.0</ele><time>2026-05-02T10:37:17.253Z</time></trkpt><trkpt lat="43.1315418" lon="11.4615545"><ele>146.0</ele><time>2026-05-02T10:37:19.251Z</time></trkpt><trkpt lat="43.131459" lon="11.4615292"><ele>145.5</ele><time>2026-05-02T10:37:21.252Z</time></trkpt><trkpt lat="43.1313865" lon="11.4614808"><ele>145.0</ele><time>2026-05-02T10:37:23.258Z</time></trkpt><trkpt lat="43.131329" lon="11.461409"><ele>144.5</ele><time>2026-05-02T10:37:25.25Z</time></trkpt><trkpt lat="43.131269" lon="11.4613143"><ele>144.0</ele><time>2026-05-02T10:37:27.25Z</time></trkpt><trkpt lat="43.1312102" lon="11.4612027"><ele>143.5</ele><time>2026-05-02T10:37:29.249Z</time></trkpt><trkpt lat="43.1311527" lon="11.4610932"><ele>143.0</ele><time>2026-05-02T10:37:31.249Z</time></trkpt><trkpt lat="43.1310808" lon="11.4609838"><ele>143.0</ele><time>2026-05-02T10:37:33.25Z</time></trkpt><trkpt lat="43.131004" lon="11.4608995"><ele>143.0</ele><time>2026-05-02T10:37:35.25Z</time></trkpt><trkpt lat="43.1309242" lon="11.4608512"><ele>143.0</ele><time>2026-05-02T10:37:37.25Z</time></trkpt><trkpt lat="43.1308598" lon="11.4608292"><ele>143.0</ele><time>2026-05-02T10:37:39.25Z</time></trkpt><trkpt lat="43.130763" lon="11.4608165"><ele>143.0</ele><time>2026-05-02T10:37:42.25Z</time></trkpt><trkpt lat="43.130682" lon="11.4607965"><ele>143.0</ele><time>2026-05-02T10:37:44.252Z</time></trkpt><trkpt lat="43.1305993" lon="11.4607512"><ele>142.8</ele><time>2026-05-02T10:37:46.251Z</time></trkpt><trkpt lat="43.1305252" lon="11.4606733"><ele>142.60000000000002</ele><time>2026-05-02T10:37:48.253Z</time></trkpt><trkpt lat="43.1304692" lon="11.4605572"><ele>142.39999999999998</ele><time>2026-05-02T10:37:50.252Z</time></trkpt><trkpt lat="43.1304318" lon="11.4604098"><ele>142.2</ele><time>2026-05-02T10:37:52.252Z</time></trkpt><trkpt lat="43.1304038" lon="11.4602778"><ele>142.0</ele><time>2026-05-02T10:37:54.251Z</time></trkpt><trkpt lat="43.1303725" lon="11.460138"><ele>142.4</ele><time>2026-05-02T10:37:56.25Z</time></trkpt><trkpt lat="43.1303315" lon="11.4599698"><ele>142.79999999999998</ele><time>2026-05-02T10:37:58.249Z</time></trkpt><trkpt lat="43.1303065" lon="11.4598752"><ele>143.2</ele><time>2026-05-02T10:37:59.252Z</time></trkpt><trkpt lat="43.1302745" lon="11.4597685"><ele>143.6</ele><time>2026-05-02T10:38:00.251Z</time></trkpt><trkpt lat="43.1302408" lon="11.4596458"><ele>144.0</ele><time>2026-05-02T10:38:01.251Z</time></trkpt><trkpt lat="43.1302095" lon="11.4595083"><ele>144.25</ele><time>2026-05-02T10:38:02.25Z</time></trkpt><trkpt lat="43.130179" lon="11.4593575"><ele>144.5</ele><time>2026-05-02T10:38:03.248Z</time></trkpt><trkpt lat="43.1301468" lon="11.459199"><ele>144.75</ele><time>2026-05-02T10:38:04.248Z</time></trkpt><trkpt lat="43.1301143" lon="11.4590362"><ele>145.0</ele><time>2026-05-02T10:38:05.25Z</time></trkpt><trkpt lat="43.1300825" lon="11.4588713"><ele>146.2</ele><time>2026-05-02T10:38:06.25Z</time></trkpt><trkpt lat="43.1300513" lon="11.4587197"><ele>147.4</ele><time>2026-05-02T10:38:07.252Z</time></trkpt><trkpt lat="43.1300242" lon="11.4585857"><ele>148.6</ele><time>2026-05-02T10:38:08.255Z</time></trkpt><trkpt lat="43.1300123" lon="11.4584753"><ele>149.8</ele><time>2026-05-02T10:38:09.251Z</time></trkpt><trkpt lat="43.1300182" lon="11.4583195"><ele>151.0</ele><time>2026-05-02T10:38:11.252Z</time></trkpt><trkpt lat="43.1299752" lon="11.4581698"><ele>151.0</ele><time>2026-05-02T10:38:13.254Z</time></trkpt><trkpt lat="43.1299275" lon="11.4580807"><ele>151.0</ele><time>2026-05-02T10:38:14.251Z</time></trkpt><trkpt lat="43.1298695" lon="11.457974"><ele>151.0</ele><time>2026-05-02T10:38:15.249Z</time></trkpt><trkpt lat="43.1298045" lon="11.4578563"><ele>151.0</ele><time>2026-05-02T10:38:16.249Z</time></trkpt><trkpt lat="43.129733" lon="11.4577292"><ele>151.0</ele><time>2026-05-02T10:38:17.248Z</time></trkpt><trkpt lat="43.1296525" lon="11.4575927"><ele>153.5</ele><time>2026-05-02T10:38:18.25Z</time></trkpt><trkpt lat="43.1295693" lon="11.4574522"><ele>156.0</ele><time>2026-05-02T10:38:19.249Z</time></trkpt><trkpt lat="43.129486" lon="11.4573112"><ele>158.5</ele><time>2026-05-02T10:38:20.25Z</time></trkpt><trkpt lat="43.129398" lon="11.4571643"><ele>161.0</ele><time>2026-05-02T10:38:21.25Z</time></trkpt><trkpt lat="43.129306" lon="11.4570128"><ele>161.66666666666666</ele><time>2026-05-02T10:38:22.25Z</time></trkpt><trkpt lat="43.1292135" lon="11.4568557"><ele>162.33333333333334</ele><time>2026-05-02T10:38:23.251Z</time></trkpt><trkpt lat="43.1291212" lon="11.4566927"><ele>163.0</ele><time>2026-05-02T10:38:24.249Z</time></trkpt><trkpt lat="43.1290265" lon="11.4565247"><ele>166.33333333333334</ele><time>2026-05-02T10:38:25.251Z</time></trkpt><trkpt lat="43.1289317" lon="11.45635"><ele>169.66666666666666</ele><time>2026-05-02T10:38:26.249Z</time></trkpt><trkpt lat="43.1288382" lon="11.4561713"><ele>173.0</ele><time>2026-05-02T10:38:27.248Z</time></trkpt><trkpt lat="43.128745" lon="11.4559935"><ele>173.66666666666666</ele><time>2026-05-02T10:38:28.252Z</time></trkpt><trkpt lat="43.1286497" lon="11.4558243"><ele>174.33333333333334</ele><time>2026-05-02T10:38:29.25Z</time></trkpt><trkpt lat="43.1285465" lon="11.4556723"><ele>175.0</ele><time>2026-05-02T10:38:30.251Z</time></trkpt><trkpt lat="43.1284277" lon="11.4555455"><ele>176.0</ele><time>2026-05-02T10:38:31.251Z</time></trkpt><trkpt lat="43.1282878" lon="11.4554468"><ele>177.0</ele><time>2026-05-02T10:38:32.252Z</time></trkpt><trkpt lat="43.128129" lon="11.4553685"><ele>178.0</ele><time>2026-05-02T10:38:33.252Z</time></trkpt><trkpt lat="43.1279663" lon="11.455297"><ele>183.0</ele><time>2026-05-02T10:38:34.253Z</time></trkpt><trkpt lat="43.1278098" lon="11.4552218"><ele>188.0</ele><time>2026-05-02T10:38:35.252Z</time></trkpt><trkpt lat="43.1276607" lon="11.4551488"><ele>193.0</ele><time>2026-05-02T10:38:36.251Z</time></trkpt><trkpt lat="43.1275263" lon="11.455088"><ele>193.0</ele><time>2026-05-02T10:38:37.253Z</time></trkpt><trkpt lat="43.127406" lon="11.455032"><ele>193.0</ele><time>2026-05-02T10:38:38.254Z</time></trkpt><trkpt lat="43.1272952" lon="11.4549637"><ele>193.0</ele><time>2026-05-02T10:38:39.255Z</time></trkpt><trkpt lat="43.1271908" lon="11.4548722"><ele>193.0</ele><time>2026-05-02T10:38:40.253Z</time></trkpt><trkpt lat="43.1270955" lon="11.4547582"><ele>195.75</ele><time>2026-05-02T10:38:41.255Z</time></trkpt><trkpt lat="43.1270113" lon="11.4546263"><ele>198.5</ele><time>2026-05-02T10:38:42.253Z</time></trkpt><trkpt lat="43.1269425" lon="11.4544903"><ele>201.25</ele><time>2026-05-02T10:38:43.252Z</time></trkpt><trkpt lat="43.1268873" lon="11.454359"><ele>204.0</ele><time>2026-05-02T10:38:44.251Z</time></trkpt><trkpt lat="43.126845" lon="11.4542217"><ele>206.25</ele><time>2026-05-02T10:38:45.249Z</time></trkpt><trkpt lat="43.1268178" lon="11.4540758"><ele>208.5</ele><time>2026-05-02T10:38:46.252Z</time></trkpt><trkpt lat="43.1268027" lon="11.4539242"><ele>210.75</ele><time>2026-05-02T10:38:47.254Z</time></trkpt><trkpt lat="43.1267925" lon="11.4537677"><ele>213.0</ele><time>2026-05-02T10:38:48.254Z</time></trkpt><trkpt lat="43.1267833" lon="11.4536115"><ele>214.2</ele><time>2026-05-02T10:38:49.252Z</time></trkpt><trkpt lat="43.1267772" lon="11.4534745"><ele>215.4</ele><time>2026-05-02T10:38:50.251Z</time></trkpt><trkpt lat="43.1267723" lon="11.4533455"><ele>216.59999999999997</ele><time>2026-05-02T10:38:51.252Z</time></trkpt><trkpt lat="43.126768" lon="11.4532137"><ele>217.79999999999998</ele><time>2026-05-02T10:38:52.251Z</time></trkpt><trkpt lat="43.1267665" lon="11.4530747"><ele>219.0</ele><time>2026-05-02T10:38:53.251Z</time></trkpt><trkpt lat="43.1267685" lon="11.4529298"><ele>219.75</ele><time>2026-05-02T10:38:54.25Z</time></trkpt><trkpt lat="43.1267733" lon="11.452781"><ele>220.5</ele><time>2026-05-02T10:38:55.252Z</time></trkpt><trkpt lat="43.1267778" lon="11.452627"><ele>221.25</ele><time>2026-05-02T10:38:56.251Z</time></trkpt><trkpt lat="43.1267785" lon="11.4524642"><ele>222.0</ele><time>2026-05-02T10:38:57.251Z</time></trkpt><trkpt lat="43.1267727" lon="11.4522908"><ele>222.75</ele><time>2026-05-02T10:38:58.25Z</time></trkpt><trkpt lat="43.1267595" lon="11.4521092"><ele>223.5</ele><time>2026-05-02T10:38:59.275Z</time></trkpt><trkpt lat="43.1267433" lon="11.4519227"><ele>224.25</ele><time>2026-05-02T10:39:00.251Z</time></trkpt><trkpt lat="43.126728" lon="11.4517298"><ele>225.0</ele><time>2026-05-02T10:39:01.261Z</time></trkpt><trkpt lat="43.1267062" lon="11.451535"><ele>225.0</ele><time>2026-05-02T10:39:02.251Z</time></trkpt><trkpt lat="43.126673" lon="11.4513393"><ele>225.0</ele><time>2026-05-02T10:39:03.251Z</time></trkpt><trkpt lat="43.1266267" lon="11.4511447"><ele>225.0</ele><time>2026-05-02T10:39:04.25Z</time></trkpt><trkpt lat="43.1265735" lon="11.4509558"><ele>225.0</ele><time>2026-05-02T10:39:05.253Z</time></trkpt><trkpt lat="43.126517" lon="11.4507722"><ele>225.0</ele><time>2026-05-02T10:39:06.251Z</time></trkpt><trkpt lat="43.1264602" lon="11.4505895"><ele>225.0</ele><time>2026-05-02T10:39:07.252Z</time></trkpt><trkpt lat="43.1264048" lon="11.4504063"><ele>225.0</ele><time>2026-05-02T10:39:08.255Z</time></trkpt><trkpt lat="43.1263495" lon="11.4502262"><ele>225.0</ele><time>2026-05-02T10:39:09.254Z</time></trkpt><trkpt lat="43.1262978" lon="11.4500602"><ele>226.2</ele><time>2026-05-02T10:39:10.252Z</time></trkpt><trkpt lat="43.1262513" lon="11.4499055"><ele>227.4</ele><time>2026-05-02T10:39:11.255Z</time></trkpt><trkpt lat="43.126206" lon="11.4497582"><ele>228.60000000000002</ele><time>2026-05-02T10:39:12.252Z</time></trkpt><trkpt lat="43.1261603" lon="11.4496238"><ele>229.8</ele><time>2026-05-02T10:39:13.252Z</time></trkpt><trkpt lat="43.1261075" lon="11.449504"><ele>231.0</ele><time>2026-05-02T10:39:14.252Z</time></trkpt><trkpt lat="43.1260428" lon="11.4493998"><ele>232.60000000000002</ele><time>2026-05-02T10:39:15.251Z</time></trkpt><trkpt lat="43.1259638" lon="11.4493147"><ele>234.20000000000002</ele><time>2026-05-02T10:39:16.25Z</time></trkpt><trkpt lat="43.1258737" lon="11.449248"><ele>235.79999999999998</ele><time>2026-05-02T10:39:17.251Z</time></trkpt><trkpt lat="43.1257718" lon="11.4491952"><ele>237.39999999999998</ele><time>2026-05-02T10:39:18.251Z</time></trkpt><trkpt lat="43.1256608" lon="11.449151"><ele>239.0</ele><time>2026-05-02T10:39:19.252Z</time></trkpt><trkpt lat="43.1255432" lon="11.4491058"><ele>239.0</ele><time>2026-05-02T10:39:20.254Z</time></trkpt><trkpt lat="43.125421" lon="11.4490612"><ele>239.0</ele><time>2026-05-02T10:39:21.254Z</time></trkpt><trkpt lat="43.1253003" lon="11.4490183"><ele>239.0</ele><time>2026-05-02T10:39:22.255Z</time></trkpt><trkpt lat="43.1251888" lon="11.448977"><ele>239.0</ele><time>2026-05-02T10:39:23.254Z</time></trkpt><trkpt lat="43.1250873" lon="11.4489355"><ele>239.00000000000003</ele><time>2026-05-02T10:39:24.254Z</time></trkpt><trkpt lat="43.124997" lon="11.4488905"><ele>239.0</ele><time>2026-05-02T10:39:25.254Z</time></trkpt><trkpt lat="43.1249145" lon="11.4488432"><ele>239.0</ele><time>2026-05-02T10:39:26.254Z</time></trkpt><trkpt lat="43.1248383" lon="11.448803"><ele>239.0</ele><time>2026-05-02T10:39:27.253Z</time></trkpt><trkpt lat="43.1247675" lon="11.4487753"><ele>239.00000000000003</ele><time>2026-05-02T10:39:28.253Z</time></trkpt><trkpt lat="43.1247007" lon="11.4487695"><ele>239.0</ele><time>2026-05-02T10:39:29.254Z</time></trkpt><trkpt lat="43.1246378" lon="11.4487963"><ele>238.66666666666669</ele><time>2026-05-02T10:39:30.252Z</time></trkpt><trkpt lat="43.1245795" lon="11.4488493"><ele>238.33333333333334</ele><time>2026-05-02T10:39:31.25Z</time></trkpt><trkpt lat="43.1245218" lon="11.4489245"><ele>238.0</ele><time>2026-05-02T10:39:32.252Z</time></trkpt><trkpt lat="43.1244632" lon="11.4490102"><ele>237.66666666666669</ele><time>2026-05-02T10:39:33.252Z</time></trkpt><trkpt lat="43.124402" lon="11.4490942"><ele>237.33333333333334</ele><time>2026-05-02T10:39:34.252Z</time></trkpt><trkpt lat="43.1243303" lon="11.4491685"><ele>237.0</ele><time>2026-05-02T10:39:35.25Z</time></trkpt><trkpt lat="43.1242473" lon="11.4492215"><ele>237.0</ele><time>2026-05-02T10:39:36.253Z</time></trkpt><trkpt lat="43.1241615" lon="11.4492495"><ele>237.0</ele><time>2026-05-02T10:39:37.253Z</time></trkpt><trkpt lat="43.1240672" lon="11.4492512"><ele>237.0</ele><time>2026-05-02T10:39:38.252Z</time></trkpt><trkpt lat="43.1239642" lon="11.449229"><ele>237.0</ele><time>2026-05-02T10:39:39.252Z</time></trkpt><trkpt lat="43.1238545" lon="11.4491957"><ele>237.0</ele><time>2026-05-02T10:39:40.251Z</time></trkpt><trkpt lat="43.1237398" lon="11.4491607"><ele>236.39999999999998</ele><time>2026-05-02T10:39:41.253Z</time></trkpt><trkpt lat="43.1236262" lon="11.4491227"><ele>235.79999999999998</ele><time>2026-05-02T10:39:42.251Z</time></trkpt><trkpt lat="43.1235207" lon="11.449081"><ele>235.2</ele><time>2026-05-02T10:39:43.262Z</time></trkpt><trkpt lat="43.12342" lon="11.4490407"><ele>234.6</ele><time>2026-05-02T10:39:44.255Z</time></trkpt><trkpt lat="43.1233228" lon="11.4490065"><ele>234.0</ele><time>2026-05-02T10:39:45.254Z</time></trkpt><trkpt lat="43.123227" lon="11.4489742"><ele>233.39999999999998</ele><time>2026-05-02T10:39:46.254Z</time></trkpt><trkpt lat="43.1231272" lon="11.4489437"><ele>232.79999999999998</ele><time>2026-05-02T10:39:47.253Z</time></trkpt><trkpt lat="43.1230253" lon="11.4489113"><ele>232.20000000000002</ele><time>2026-05-02T10:39:48.25Z</time></trkpt><trkpt lat="43.1229248" lon="11.4488797"><ele>231.60000000000002</ele><time>2026-05-02T10:39:49.252Z</time></trkpt><trkpt lat="43.1228275" lon="11.4488508"><ele>231.0</ele><time>2026-05-02T10:39:50.252Z</time></trkpt><trkpt lat="43.1227322" lon="11.4488212"><ele>230.8</ele><time>2026-05-02T10:39:51.252Z</time></trkpt><trkpt lat="43.1226365" lon="11.4487878"><ele>230.60000000000002</ele><time>2026-05-02T10:39:52.256Z</time></trkpt><trkpt lat="43.1225383" lon="11.4487522"><ele>230.4</ele><time>2026-05-02T10:39:53.255Z</time></trkpt><trkpt lat="43.1224317" lon="11.4487183"><ele>230.2</ele><time>2026-05-02T10:39:54.255Z</time></trkpt><trkpt lat="43.1223107" lon="11.448683"><ele>230.0</ele><time>2026-05-02T10:39:55.254Z</time></trkpt><trkpt lat="43.1221795" lon="11.4486368"><ele>228.5</ele><time>2026-05-02T10:39:56.255Z</time></trkpt><trkpt lat="43.1220427" lon="11.4485845"><ele>227.0</ele><time>2026-05-02T10:39:57.255Z</time></trkpt><trkpt lat="43.121908" lon="11.448535"><ele>225.5</ele><time>2026-05-02T10:39:58.252Z</time></trkpt><trkpt lat="43.1217792" lon="11.4484882"><ele>224.0</ele><time>2026-05-02T10:39:59.257Z</time></trkpt><trkpt lat="43.1216573" lon="11.4484332"><ele>222.25</ele><time>2026-05-02T10:40:00.257Z</time></trkpt><trkpt lat="43.1215452" lon="11.448359"><ele>220.5</ele><time>2026-05-02T10:40:01.253Z</time></trkpt><trkpt lat="43.1214473" lon="11.4482565"><ele>218.75</ele><time>2026-05-02T10:40:02.254Z</time></trkpt><trkpt lat="43.1213652" lon="11.4481183"><ele>217.0</ele><time>2026-05-02T10:40:03.253Z</time></trkpt><trkpt lat="43.1212937" lon="11.4479543"><ele>217.0</ele><time>2026-05-02T10:40:04.251Z</time></trkpt><trkpt lat="43.1212277" lon="11.447777"><ele>217.0</ele><time>2026-05-02T10:40:05.25Z</time></trkpt><trkpt lat="43.1211658" lon="11.4475897"><ele>217.0</ele><time>2026-05-02T10:40:06.249Z</time></trkpt><trkpt lat="43.121104" lon="11.4473958"><ele>217.0</ele><time>2026-05-02T10:40:07.25Z</time></trkpt><trkpt lat="43.121042" lon="11.4472"><ele>217.0</ele><time>2026-05-02T10:40:08.239Z</time></trkpt><trkpt lat="43.1209818" lon="11.4470113"><ele>217.0</ele><time>2026-05-02T10:40:09.252Z</time></trkpt><trkpt lat="43.1209237" lon="11.446829"><ele>216.0</ele><time>2026-05-02T10:40:10.251Z</time></trkpt><trkpt lat="43.1208683" lon="11.4466557"><ele>215.0</ele><time>2026-05-02T10:40:11.251Z</time></trkpt><trkpt lat="43.120815" lon="11.4464908"><ele>214.0</ele><time>2026-05-02T10:40:12.251Z</time></trkpt><trkpt lat="43.1207667" lon="11.446333"><ele>213.0</ele><time>2026-05-02T10:40:13.25Z</time></trkpt><trkpt lat="43.1207272" lon="11.446177"><ele>212.5</ele><time>2026-05-02T10:40:14.251Z</time></trkpt><trkpt lat="43.1207077" lon="11.4460182"><ele>212.0</ele><time>2026-05-02T10:40:15.25Z</time></trkpt><trkpt lat="43.1207202" lon="11.4458605"><ele>211.5</ele><time>2026-05-02T10:40:16.253Z</time></trkpt><trkpt lat="43.120756" lon="11.4457005"><ele>211.0</ele><time>2026-05-02T10:40:17.252Z</time></trkpt><trkpt lat="43.1208035" lon="11.4455353"><ele>211.0</ele><time>2026-05-02T10:40:18.252Z</time></trkpt><trkpt lat="43.1208497" lon="11.4453748"><ele>211.0</ele><time>2026-05-02T10:40:19.251Z</time></trkpt><trkpt lat="43.120886" lon="11.4452097"><ele>211.0</ele><time>2026-05-02T10:40:20.253Z</time></trkpt><trkpt lat="43.120896" lon="11.445045"><ele>211.0</ele><time>2026-05-02T10:40:21.25Z</time></trkpt><trkpt lat="43.1208687" lon="11.444886"><ele>211.0</ele><time>2026-05-02T10:40:22.252Z</time></trkpt><trkpt lat="43.1208017" lon="11.4447383"><ele>211.0</ele><time>2026-05-02T10:40:23.252Z</time></trkpt><trkpt lat="43.1206997" lon="11.4446078"><ele>211.0</ele><time>2026-05-02T10:40:24.251Z</time></trkpt><trkpt lat="43.1205677" lon="11.4444953"><ele>211.0</ele><time>2026-05-02T10:40:25.251Z</time></trkpt><trkpt lat="43.1204148" lon="11.4443875"><ele>208.66666666666666</ele><time>2026-05-02T10:40:26.25Z</time></trkpt><trkpt lat="43.1202562" lon="11.4442787"><ele>206.33333333333331</ele><time>2026-05-02T10:40:27.248Z</time></trkpt><trkpt lat="43.1200913" lon="11.4441678"><ele>204.0</ele><time>2026-05-02T10:40:28.247Z</time></trkpt><trkpt lat="43.1199235" lon="11.4440552"><ele>201.33333333333331</ele><time>2026-05-02T10:40:29.248Z</time></trkpt><trkpt lat="43.1197585" lon="11.443948"><ele>198.66666666666666</ele><time>2026-05-02T10:40:30.247Z</time></trkpt><trkpt lat="43.119596" lon="11.44384"><ele>196.0</ele><time>2026-05-02T10:40:31.247Z</time></trkpt><trkpt lat="43.1194365" lon="11.443732"><ele>194.33333333333331</ele><time>2026-05-02T10:40:32.247Z</time></trkpt><trkpt lat="43.119275" lon="11.4436345"><ele>192.66666666666666</ele><time>2026-05-02T10:40:33.25Z</time></trkpt><trkpt lat="43.1191247" lon="11.4435137"><ele>191.0</ele><time>2026-05-02T10:40:34.251Z</time></trkpt><trkpt lat="43.118984" lon="11.44338"><ele>190.0</ele><time>2026-05-02T10:40:35.25Z</time></trkpt><trkpt lat="43.1188597" lon="11.4432313"><ele>189.0</ele><time>2026-05-02T10:40:36.248Z</time></trkpt><trkpt lat="43.1187527" lon="11.44309"><ele>188.0</ele><time>2026-05-02T10:40:37.249Z</time></trkpt><trkpt lat="43.1186525" lon="11.4429647"><ele>187.0</ele><time>2026-05-02T10:40:38.248Z</time></trkpt><trkpt lat="43.1185532" lon="11.442857"><ele>184.25</ele><time>2026-05-02T10:40:39.249Z</time></trkpt><trkpt lat="43.1184558" lon="11.4427595"><ele>181.5</ele><time>2026-05-02T10:40:40.248Z</time></trkpt><trkpt lat="43.1183553" lon="11.4426717"><ele>178.75</ele><time>2026-05-02T10:40:41.25Z</time></trkpt><trkpt lat="43.1182552" lon="11.4425818"><ele>176.0</ele><time>2026-05-02T10:40:42.249Z</time></trkpt><trkpt lat="43.1181528" lon="11.4424962"><ele>176.0</ele><time>2026-05-02T10:40:43.249Z</time></trkpt><trkpt lat="43.118052" lon="11.4424125"><ele>176.0</ele><time>2026-05-02T10:40:44.25Z</time></trkpt><trkpt lat="43.1179568" lon="11.4423323"><ele>176.0</ele><time>2026-05-02T10:40:45.248Z</time></trkpt><trkpt lat="43.1178615" lon="11.4422557"><ele>176.0</ele><time>2026-05-02T10:40:46.249Z</time></trkpt><trkpt lat="43.1177745" lon="11.4421835"><ele>176.0</ele><time>2026-05-02T10:40:47.247Z</time></trkpt><trkpt lat="43.1176928" lon="11.4421207"><ele>173.8</ele><time>2026-05-02T10:40:48.248Z</time></trkpt><trkpt lat="43.117608" lon="11.4420695"><ele>171.60000000000002</ele><time>2026-05-02T10:40:49.25Z</time></trkpt><trkpt lat="43.117519" lon="11.4420368"><ele>169.4</ele><time>2026-05-02T10:40:50.25Z</time></trkpt><trkpt lat="43.1174277" lon="11.4420287"><ele>167.2</ele><time>2026-05-02T10:40:51.249Z</time></trkpt><trkpt lat="43.1173352" lon="11.442047"><ele>165.0</ele><time>2026-05-02T10:40:52.251Z</time></trkpt><trkpt lat="43.117239" lon="11.4420917"><ele>165.6</ele><time>2026-05-02T10:40:53.249Z</time></trkpt><trkpt lat="43.1171427" lon="11.442149"><ele>166.2</ele><time>2026-05-02T10:40:54.249Z</time></trkpt><trkpt lat="43.1170535" lon="11.4422115"><ele>166.8</ele><time>2026-05-02T10:40:55.249Z</time></trkpt><trkpt lat="43.1169598" lon="11.442263"><ele>167.4</ele><time>2026-05-02T10:40:56.249Z</time></trkpt><trkpt lat="43.1168642" lon="11.4423047"><ele>168.0</ele><time>2026-05-02T10:40:57.25Z</time></trkpt><trkpt lat="43.116767" lon="11.4423245"><ele>168.0</ele><time>2026-05-02T10:40:58.251Z</time></trkpt><trkpt lat="43.1166675" lon="11.442317"><ele>168.0</ele><time>2026-05-02T10:40:59.251Z</time></trkpt><trkpt lat="43.1165747" lon="11.4422718"><ele>168.0</ele><time>2026-05-02T10:41:00.25Z</time></trkpt><trkpt lat="43.1164922" lon="11.4421925"><ele>168.0</ele><time>2026-05-02T10:41:01.252Z</time></trkpt><trkpt lat="43.1164118" lon="11.4420877"><ele>168.0</ele><time>2026-05-02T10:41:02.251Z</time></trkpt><trkpt lat="43.1163315" lon="11.441981"><ele>165.75</ele><time>2026-05-02T10:41:03.252Z</time></trkpt><trkpt lat="43.1162485" lon="11.4418767"><ele>163.5</ele><time>2026-05-02T10:41:04.25Z</time></trkpt><trkpt lat="43.1161587" lon="11.4417745"><ele>161.25</ele><time>2026-05-02T10:41:05.251Z</time></trkpt><trkpt lat="43.1160677" lon="11.4416758"><ele>159.0</ele><time>2026-05-02T10:41:06.25Z</time></trkpt><trkpt lat="43.115977" lon="11.441583"><ele>159.0</ele><time>2026-05-02T10:41:07.25Z</time></trkpt><trkpt lat="43.115889" lon="11.441488"><ele>159.0</ele><time>2026-05-02T10:41:08.251Z</time></trkpt><trkpt lat="43.1158078" lon="11.4413945"><ele>159.0</ele><time>2026-05-02T10:41:09.248Z</time></trkpt><trkpt lat="43.1157215" lon="11.4413207"><ele>159.0</ele><time>2026-05-02T10:41:10.247Z</time></trkpt><trkpt lat="43.1156237" lon="11.441279"><ele>159.0</ele><time>2026-05-02T10:41:11.249Z</time></trkpt><trkpt lat="43.1155163" lon="11.4412647"><ele>157.25</ele><time>2026-05-02T10:41:12.247Z</time></trkpt><trkpt lat="43.1154013" lon="11.4412743"><ele>155.5</ele><time>2026-05-02T10:41:13.25Z</time></trkpt><trkpt lat="43.1152822" lon="11.4412967"><ele>153.75</ele><time>2026-05-02T10:41:14.249Z</time></trkpt><trkpt lat="43.1151608" lon="11.44132"><ele>152.0</ele><time>2026-05-02T10:41:15.247Z</time></trkpt><trkpt lat="43.1150378" lon="11.4413408"><ele>152.0</ele><time>2026-05-02T10:41:16.247Z</time></trkpt><trkpt lat="43.1149148" lon="11.441353"><ele>152.0</ele><time>2026-05-02T10:41:17.247Z</time></trkpt><trkpt lat="43.1147932" lon="11.4413603"><ele>152.0</ele><time>2026-05-02T10:41:18.246Z</time></trkpt><trkpt lat="43.1146717" lon="11.4413687"><ele>152.0</ele><time>2026-05-02T10:41:19.249Z</time></trkpt><trkpt lat="43.1145495" lon="11.4413775"><ele>149.25</ele><time>2026-05-02T10:41:20.248Z</time></trkpt><trkpt lat="43.1144263" lon="11.4413865"><ele>146.5</ele><time>2026-05-02T10:41:21.249Z</time></trkpt><trkpt lat="43.114302" lon="11.4413937"><ele>143.75</ele><time>2026-05-02T10:41:22.249Z</time></trkpt><trkpt lat="43.1141772" lon="11.4414002"><ele>141.0</ele><time>2026-05-02T10:41:23.25Z</time></trkpt><trkpt lat="43.1140508" lon="11.4414088"><ele>140.25</ele><time>2026-05-02T10:41:24.254Z</time></trkpt><trkpt lat="43.1139227" lon="11.4414222"><ele>139.5</ele><time>2026-05-02T10:41:25.252Z</time></trkpt><trkpt lat="43.113793" lon="11.4414362"><ele>138.75</ele><time>2026-05-02T10:41:26.252Z</time></trkpt><trkpt lat="43.1136608" lon="11.4414473"><ele>138.0</ele><time>2026-05-02T10:41:27.252Z</time></trkpt><trkpt lat="43.1135223" lon="11.4414608"><ele>138.0</ele><time>2026-05-02T10:41:28.251Z</time></trkpt><trkpt lat="43.1133798" lon="11.4414737"><ele>138.0</ele><time>2026-05-02T10:41:29.252Z</time></trkpt><trkpt lat="43.1132325" lon="11.4414865"><ele>138.0</ele><time>2026-05-02T10:41:30.253Z</time></trkpt><trkpt lat="43.1130817" lon="11.4415013"><ele>138.0</ele><time>2026-05-02T10:41:31.251Z</time></trkpt><trkpt lat="43.1129297" lon="11.4415157"><ele>137.66666666666666</ele><time>2026-05-02T10:41:32.253Z</time></trkpt><trkpt lat="43.1127787" lon="11.4415295"><ele>137.33333333333331</ele><time>2026-05-02T10:41:33.253Z</time></trkpt><trkpt lat="43.1126283" lon="11.4415447"><ele>137.0</ele><time>2026-05-02T10:41:34.252Z</time></trkpt><trkpt lat="43.1124793" lon="11.4415608"><ele>136.75</ele><time>2026-05-02T10:41:35.253Z</time></trkpt><trkpt lat="43.1123367" lon="11.4415727"><ele>136.5</ele><time>2026-05-02T10:41:36.254Z</time></trkpt><trkpt lat="43.1121988" lon="11.4415827"><ele>136.25</ele><time>2026-05-02T10:41:37.251Z</time></trkpt><trkpt lat="43.1120648" lon="11.441592"><ele>136.0</ele><time>2026-05-02T10:41:38.253Z</time></trkpt><trkpt lat="43.1119352" lon="11.4416033"><ele>136.0</ele><time>2026-05-02T10:41:39.254Z</time></trkpt><trkpt lat="43.1118105" lon="11.4416142"><ele>136.0</ele><time>2026-05-02T10:41:40.252Z</time></trkpt><trkpt lat="43.1116918" lon="11.4416237"><ele>136.0</ele><time>2026-05-02T10:41:41.253Z</time></trkpt><trkpt lat="43.1115825" lon="11.441636"><ele>136.0</ele><time>2026-05-02T10:41:42.251Z</time></trkpt><trkpt lat="43.1114815" lon="11.4416543"><ele>135.75</ele><time>2026-05-02T10:41:43.252Z</time></trkpt><trkpt lat="43.1113798" lon="11.4416732"><ele>135.5</ele><time>2026-05-02T10:41:44.25Z</time></trkpt><trkpt lat="43.111271" lon="11.4416913"><ele>135.25</ele><time>2026-05-02T10:41:45.25Z</time></trkpt><trkpt lat="43.1111542" lon="11.441715"><ele>135.0</ele><time>2026-05-02T10:41:46.253Z</time></trkpt><trkpt lat="43.111029" lon="11.441736"><ele>135.0</ele><time>2026-05-02T10:41:47.256Z</time></trkpt><trkpt lat="43.110899" lon="11.4417467"><ele>135.0</ele><time>2026-05-02T10:41:48.253Z</time></trkpt><trkpt lat="43.1107638" lon="11.4417505"><ele>135.0</ele><time>2026-05-02T10:41:49.255Z</time></trkpt><trkpt lat="43.1106267" lon="11.4417505"><ele>135.0</ele><time>2026-05-02T10:41:50.252Z</time></trkpt><trkpt lat="43.1104877" lon="11.4417528"><ele>134.5</ele><time>2026-05-02T10:41:51.251Z</time></trkpt><trkpt lat="43.1103443" lon="11.4417653"><ele>134.0</ele><time>2026-05-02T10:41:52.252Z</time></trkpt><trkpt lat="43.1101985" lon="11.441794"><ele>133.5</ele><time>2026-05-02T10:41:53.253Z</time></trkpt><trkpt lat="43.1100512" lon="11.4418363"><ele>133.0</ele><time>2026-05-02T10:41:54.254Z</time></trkpt><trkpt lat="43.1099013" lon="11.4418895"><ele>133.0</ele><time>2026-05-02T10:41:55.252Z</time></trkpt><trkpt lat="43.1097493" lon="11.4419497"><ele>133.0</ele><time>2026-05-02T10:41:56.253Z</time></trkpt><trkpt lat="43.109594" lon="11.4420132"><ele>133.0</ele><time>2026-05-02T10:41:57.252Z</time></trkpt><trkpt lat="43.1094352" lon="11.4420742"><ele>133.0</ele><time>2026-05-02T10:41:58.253Z</time></trkpt><trkpt lat="43.109274" lon="11.4421285"><ele>133.0</ele><time>2026-05-02T10:41:59.254Z</time></trkpt><trkpt lat="43.1091103" lon="11.4421765"><ele>133.0</ele><time>2026-05-02T10:42:00.252Z</time></trkpt><trkpt lat="43.1089458" lon="11.442219"><ele>133.0</ele><time>2026-05-02T10:42:01.254Z</time></trkpt><trkpt lat="43.1087813" lon="11.4422558"><ele>133.0</ele><time>2026-05-02T10:42:02.253Z</time></trkpt><trkpt lat="43.1086178" lon="11.4422918"><ele>133.0</ele><time>2026-05-02T10:42:03.253Z</time></trkpt><trkpt lat="43.1084567" lon="11.4423257"><ele>133.0</ele><time>2026-05-02T10:42:04.253Z</time></trkpt><trkpt lat="43.1083048" lon="11.4423568"><ele>133.0</ele><time>2026-05-02T10:42:05.254Z</time></trkpt><trkpt lat="43.1081632" lon="11.4423862"><ele>133.0</ele><time>2026-05-02T10:42:06.253Z</time></trkpt><trkpt lat="43.108031" lon="11.4424145"><ele>133.0</ele><time>2026-05-02T10:42:07.252Z</time></trkpt><trkpt lat="43.1079087" lon="11.4424432"><ele>133.20000000000002</ele><time>2026-05-02T10:42:08.25Z</time></trkpt><trkpt lat="43.107795" lon="11.4424658"><ele>133.4</ele><time>2026-05-02T10:42:09.248Z</time></trkpt><trkpt lat="43.1076873" lon="11.4424715"><ele>133.60000000000002</ele><time>2026-05-02T10:42:10.249Z</time></trkpt><trkpt lat="43.1075843" lon="11.4424548"><ele>133.8</ele><time>2026-05-02T10:42:11.253Z</time></trkpt><trkpt lat="43.1074847" lon="11.442408"><ele>134.0</ele><time>2026-05-02T10:42:12.249Z</time></trkpt><trkpt lat="43.107389" lon="11.442326"><ele>133.25</ele><time>2026-05-02T10:42:13.251Z</time></trkpt><trkpt lat="43.1072973" lon="11.4422148"><ele>132.5</ele><time>2026-05-02T10:42:14.257Z</time></trkpt><trkpt lat="43.1072102" lon="11.4420955"><ele>131.75</ele><time>2026-05-02T10:42:15.251Z</time></trkpt><trkpt lat="43.1071273" lon="11.4419803"><ele>131.0</ele><time>2026-05-02T10:42:16.254Z</time></trkpt><trkpt lat="43.1070483" lon="11.4418667"><ele>131.0</ele><time>2026-05-02T10:42:17.254Z</time></trkpt><trkpt lat="43.1069693" lon="11.4417535"><ele>131.0</ele><time>2026-05-02T10:42:18.253Z</time></trkpt><trkpt lat="43.106887" lon="11.4416357"><ele>131.0</ele><time>2026-05-02T10:42:19.251Z</time></trkpt><trkpt lat="43.1068013" lon="11.4415138"><ele>131.0</ele><time>2026-05-02T10:42:20.252Z</time></trkpt><trkpt lat="43.106712" lon="11.4413872"><ele>131.0</ele><time>2026-05-02T10:42:21.25Z</time></trkpt><trkpt lat="43.106619" lon="11.4412572"><ele>131.0</ele><time>2026-05-02T10:42:22.251Z</time></trkpt><trkpt lat="43.1065272" lon="11.4411292"><ele>131.0</ele><time>2026-05-02T10:42:23.252Z</time></trkpt><trkpt lat="43.1064378" lon="11.4410037"><ele>131.0</ele><time>2026-05-02T10:42:24.248Z</time></trkpt><trkpt lat="43.1063497" lon="11.4408777"><ele>131.0</ele><time>2026-05-02T10:42:25.25Z</time></trkpt><trkpt lat="43.1062598" lon="11.44075"><ele>131.0</ele><time>2026-05-02T10:42:26.251Z</time></trkpt><trkpt lat="43.1061683" lon="11.4406193"><ele>131.0</ele><time>2026-05-02T10:42:27.25Z</time></trkpt><trkpt lat="43.1060748" lon="11.4404883"><ele>131.0</ele><time>2026-05-02T10:42:28.251Z</time></trkpt><trkpt lat="43.1059813" lon="11.4403595"><ele>131.0</ele><time>2026-05-02T10:42:29.263Z</time></trkpt><trkpt lat="43.1058887" lon="11.4402333"><ele>131.0</ele><time>2026-05-02T10:42:30.25Z</time></trkpt><trkpt lat="43.1057965" lon="11.4401082"><ele>131.0</ele><time>2026-05-02T10:42:31.252Z</time></trkpt><trkpt lat="43.105703" lon="11.4399872"><ele>131.0</ele><time>2026-05-02T10:42:32.254Z</time></trkpt><trkpt lat="43.1056103" lon="11.4398743"><ele>130.8</ele><time>2026-05-02T10:42:33.249Z</time></trkpt><trkpt lat="43.105522" lon="11.4397727"><ele>130.6</ele><time>2026-05-02T10:42:34.25Z</time></trkpt><trkpt lat="43.1054402" lon="11.4396812"><ele>130.4</ele><time>2026-05-02T10:42:35.253Z</time></trkpt><trkpt lat="43.1053668" lon="11.4395912"><ele>130.2</ele><time>2026-05-02T10:42:36.254Z</time></trkpt><trkpt lat="43.1053007" lon="11.4394905"><ele>130.0</ele><time>2026-05-02T10:42:37.254Z</time></trkpt><trkpt lat="43.1052353" lon="11.4393747"><ele>129.75</ele><time>2026-05-02T10:42:38.251Z</time></trkpt><trkpt lat="43.105166" lon="11.4392497"><ele>129.5</ele><time>2026-05-02T10:42:39.253Z</time></trkpt><trkpt lat="43.1050947" lon="11.4391248"><ele>129.25</ele><time>2026-05-02T10:42:40.252Z</time></trkpt><trkpt lat="43.1050232" lon="11.4390028"><ele>129.0</ele><time>2026-05-02T10:42:41.252Z</time></trkpt><trkpt lat="43.1049553" lon="11.438885"><ele>129.4</ele><time>2026-05-02T10:42:42.251Z</time></trkpt><trkpt lat="43.1048862" lon="11.438774"><ele>129.8</ele><time>2026-05-02T10:42:43.254Z</time></trkpt><trkpt lat="43.1048095" lon="11.4386672"><ele>130.2</ele><time>2026-05-02T10:42:44.253Z</time></trkpt><trkpt lat="43.1047353" lon="11.4385657"><ele>130.6</ele><time>2026-05-02T10:42:45.252Z</time></trkpt><trkpt lat="43.104661" lon="11.4384642"><ele>131.0</ele><time>2026-05-02T10:42:46.254Z</time></trkpt><trkpt lat="43.1045837" lon="11.4383563"><ele>131.0</ele><time>2026-05-02T10:42:47.254Z</time></trkpt><trkpt lat="43.1045037" lon="11.4382457"><ele>131.0</ele><time>2026-05-02T10:42:48.254Z</time></trkpt><trkpt lat="43.1044213" lon="11.4381318"><ele>131.0</ele><time>2026-05-02T10:42:49.255Z</time></trkpt><trkpt lat="43.1043382" lon="11.438011"><ele>131.0</ele><time>2026-05-02T10:42:50.254Z</time></trkpt><trkpt lat="43.1042515" lon="11.4378883"><ele>131.0</ele><time>2026-05-02T10:42:51.252Z</time></trkpt><trkpt lat="43.1041612" lon="11.4377687"><ele>131.0</ele><time>2026-05-02T10:42:52.254Z</time></trkpt><trkpt lat="43.1040708" lon="11.4376468"><ele>131.0</ele><time>2026-05-02T10:42:53.254Z</time></trkpt><trkpt lat="43.1039825" lon="11.437521"><ele>131.0</ele><time>2026-05-02T10:42:54.252Z</time></trkpt><trkpt lat="43.103896" lon="11.4373968"><ele>131.25</ele><time>2026-05-02T10:42:55.252Z</time></trkpt><trkpt lat="43.1038115" lon="11.4372798"><ele>131.5</ele><time>2026-05-02T10:42:56.25Z</time></trkpt><trkpt lat="43.1037282" lon="11.4371665"><ele>131.75</ele><time>2026-05-02T10:42:57.25Z</time></trkpt><trkpt lat="43.1036455" lon="11.4370527"><ele>132.0</ele><time>2026-05-02T10:42:58.251Z</time></trkpt><trkpt lat="43.1035613" lon="11.436936"><ele>132.5</ele><time>2026-05-02T10:42:59.25Z</time></trkpt><trkpt lat="43.1034762" lon="11.4368168"><ele>133.0</ele><time>2026-05-02T10:43:00.252Z</time></trkpt><trkpt lat="43.1033915" lon="11.436697"><ele>133.5</ele><time>2026-05-02T10:43:01.252Z</time></trkpt><trkpt lat="43.103308" lon="11.4365778"><ele>134.0</ele><time>2026-05-02T10:43:02.252Z</time></trkpt><trkpt lat="43.1032252" lon="11.4364582"><ele>134.5</ele><time>2026-05-02T10:43:03.253Z</time></trkpt><trkpt lat="43.1031403" lon="11.4363412"><ele>135.0</ele><time>2026-05-02T10:43:04.252Z</time></trkpt><trkpt lat="43.103052" lon="11.4362252"><ele>135.5</ele><time>2026-05-02T10:43:05.252Z</time></trkpt><trkpt lat="43.1029628" lon="11.4361037"><ele>136.0</ele><time>2026-05-02T10:43:06.253Z</time></trkpt><trkpt lat="43.1028757" lon="11.4359803"><ele>136.0</ele><time>2026-05-02T10:43:07.254Z</time></trkpt><trkpt lat="43.1027893" lon="11.4358595"><ele>136.0</ele><time>2026-05-02T10:43:08.253Z</time></trkpt><trkpt lat="43.1027057" lon="11.4357428"><ele>136.0</ele><time>2026-05-02T10:43:09.254Z</time></trkpt><trkpt lat="43.1026243" lon="11.4356272"><ele>136.0</ele><time>2026-05-02T10:43:10.256Z</time></trkpt><trkpt lat="43.1025435" lon="11.4355117"><ele>136.0</ele><time>2026-05-02T10:43:11.254Z</time></trkpt><trkpt lat="43.1024645" lon="11.4353917"><ele>136.0</ele><time>2026-05-02T10:43:12.254Z</time></trkpt><trkpt lat="43.102388" lon="11.4352677"><ele>136.0</ele><time>2026-05-02T10:43:13.254Z</time></trkpt><trkpt lat="43.1023147" lon="11.4351425"><ele>136.0</ele><time>2026-05-02T10:43:14.254Z</time></trkpt><trkpt lat="43.1022555" lon="11.4350128"><ele>136.75</ele><time>2026-05-02T10:43:15.254Z</time></trkpt><trkpt lat="43.102217" lon="11.4348738"><ele>137.5</ele><time>2026-05-02T10:43:16.253Z</time></trkpt><trkpt lat="43.1022007" lon="11.4347248"><ele>138.25</ele><time>2026-05-02T10:43:17.254Z</time></trkpt><trkpt lat="43.1022055" lon="11.4345693"><ele>139.0</ele><time>2026-05-02T10:43:18.255Z</time></trkpt><trkpt lat="43.1022275" lon="11.43441"><ele>140.5</ele><time>2026-05-02T10:43:19.252Z</time></trkpt><trkpt lat="43.1022582" lon="11.4342485"><ele>142.0</ele><time>2026-05-02T10:43:20.256Z</time></trkpt><trkpt lat="43.1022865" lon="11.4340845"><ele>143.5</ele><time>2026-05-02T10:43:21.25Z</time></trkpt><trkpt lat="43.1023102" lon="11.4339205"><ele>145.0</ele><time>2026-05-02T10:43:22.25Z</time></trkpt><trkpt lat="43.1023307" lon="11.4337588"><ele>146.25</ele><time>2026-05-02T10:43:23.251Z</time></trkpt><trkpt lat="43.1023418" lon="11.433598"><ele>147.5</ele><time>2026-05-02T10:43:24.253Z</time></trkpt><trkpt lat="43.10234" lon="11.4334412"><ele>148.75</ele><time>2026-05-02T10:43:25.252Z</time></trkpt><trkpt lat="43.1023258" lon="11.4332888"><ele>150.0</ele><time>2026-05-02T10:43:26.25Z</time></trkpt><trkpt lat="43.102303" lon="11.433148"><ele>150.0</ele><time>2026-05-02T10:43:27.252Z</time></trkpt><trkpt lat="43.1022743" lon="11.4330222"><ele>150.0</ele><time>2026-05-02T10:43:28.252Z</time></trkpt><trkpt lat="43.1022408" lon="11.4329147"><ele>150.0</ele><time>2026-05-02T10:43:29.252Z</time></trkpt><trkpt lat="43.1022057" lon="11.4328253"><ele>150.0</ele><time>2026-05-02T10:43:30.254Z</time></trkpt><trkpt lat="43.1021708" lon="11.4327495"><ele>150.0</ele><time>2026-05-02T10:43:31.252Z</time></trkpt><trkpt lat="43.1021012" lon="11.4326383"><ele>150.0</ele><time>2026-05-02T10:43:33.253Z</time></trkpt><trkpt lat="43.1020193" lon="11.4325747"><ele>150.4</ele><time>2026-05-02T10:43:35.254Z</time></trkpt><trkpt lat="43.1019252" lon="11.4325395"><ele>150.8</ele><time>2026-05-02T10:43:37.253Z</time></trkpt><trkpt lat="43.1018072" lon="11.4324977"><ele>151.2</ele><time>2026-05-02T10:43:39.251Z</time></trkpt><trkpt lat="43.1016987" lon="11.4324723"><ele>151.6</ele><time>2026-05-02T10:43:41.252Z</time></trkpt><trkpt lat="43.101601" lon="11.4324643"><ele>152.0</ele><time>2026-05-02T10:43:43.252Z</time></trkpt><trkpt lat="43.1014958" lon="11.4324492"><ele>152.0</ele><time>2026-05-02T10:43:45.248Z</time></trkpt><trkpt lat="43.1014175" lon="11.4324375"><ele>152.0</ele><time>2026-05-02T10:43:47.248Z</time></trkpt><trkpt lat="43.1013202" lon="11.4324447"><ele>152.0</ele><time>2026-05-02T10:46:06.253Z</time></trkpt><trkpt lat="43.1011905" lon="11.4324115"><ele>152.0</ele><time>2026-05-02T10:46:08.255Z</time></trkpt><trkpt lat="43.1011087" lon="11.4324027"><ele>152.0</ele><time>2026-05-02T10:46:09.252Z</time></trkpt><trkpt lat="43.1010268" lon="11.432397"><ele>152.0</ele><time>2026-05-02T10:46:10.252Z</time></trkpt><trkpt lat="43.1009432" lon="11.4323915"><ele>152.0</ele><time>2026-05-02T10:46:11.25Z</time></trkpt><trkpt lat="43.1008545" lon="11.4323823"><ele>152.0</ele><time>2026-05-02T10:46:12.248Z</time></trkpt><trkpt lat="43.1007575" lon="11.4323708"><ele>152.0</ele><time>2026-05-02T10:46:13.25Z</time></trkpt><trkpt lat="43.1006532" lon="11.4323593"><ele>152.0</ele><time>2026-05-02T10:46:14.25Z</time></trkpt><trkpt lat="43.1005405" lon="11.4323487"><ele>153.5</ele><time>2026-05-02T10:46:15.248Z</time></trkpt><trkpt lat="43.1004205" lon="11.4323382"><ele>155.0</ele><time>2026-05-02T10:46:16.252Z</time></trkpt><trkpt lat="43.100297" lon="11.432326"><ele>156.5</ele><time>2026-05-02T10:46:17.253Z</time></trkpt><trkpt lat="43.1001728" lon="11.4323128"><ele>158.0</ele><time>2026-05-02T10:46:18.252Z</time></trkpt><trkpt lat="43.1000432" lon="11.432301"><ele>158.75</ele><time>2026-05-02T10:46:19.252Z</time></trkpt><trkpt lat="43.0999072" lon="11.4322883"><ele>159.5</ele><time>2026-05-02T10:46:20.255Z</time></trkpt><trkpt lat="43.0997703" lon="11.4322772"><ele>160.25</ele><time>2026-05-02T10:46:21.252Z</time></trkpt><trkpt lat="43.0996328" lon="11.4322668"><ele>161.0</ele><time>2026-05-02T10:46:22.252Z</time></trkpt><trkpt lat="43.0994975" lon="11.4322552"><ele>161.0</ele><time>2026-05-02T10:46:23.252Z</time></trkpt><trkpt lat="43.0993607" lon="11.4322405"><ele>161.0</ele><time>2026-05-02T10:46:24.253Z</time></trkpt><trkpt lat="43.099227" lon="11.4322288"><ele>161.0</ele><time>2026-05-02T10:46:25.25Z</time></trkpt><trkpt lat="43.099094" lon="11.4322138"><ele>161.0</ele><time>2026-05-02T10:46:26.25Z</time></trkpt><trkpt lat="43.0989675" lon="11.432202"><ele>160.0</ele><time>2026-05-02T10:46:27.25Z</time></trkpt><trkpt lat="43.0988438" lon="11.4321827"><ele>159.0</ele><time>2026-05-02T10:46:28.25Z</time></trkpt><trkpt lat="43.098721" lon="11.4321477"><ele>158.0</ele><time>2026-05-02T10:46:29.249Z</time></trkpt><trkpt lat="43.0985972" lon="11.4320933"><ele>157.0</ele><time>2026-05-02T10:46:30.25Z</time></trkpt><trkpt lat="43.0984747" lon="11.4320162"><ele>158.5</ele><time>2026-05-02T10:46:31.249Z</time></trkpt><trkpt lat="43.0983528" lon="11.4319203"><ele>160.0</ele><time>2026-05-02T10:46:32.25Z</time></trkpt><trkpt lat="43.0982317" lon="11.4318192"><ele>161.5</ele><time>2026-05-02T10:46:33.249Z</time></trkpt><trkpt lat="43.098109" lon="11.4317175"><ele>163.0</ele><time>2026-05-02T10:46:34.252Z</time></trkpt><trkpt lat="43.097982" lon="11.4316197"><ele>163.0</ele><time>2026-05-02T10:46:35.252Z</time></trkpt><trkpt lat="43.0978538" lon="11.4315227"><ele>163.0</ele><time>2026-05-02T10:46:36.248Z</time></trkpt><trkpt lat="43.0977268" lon="11.431419"><ele>163.0</ele><time>2026-05-02T10:46:37.248Z</time></trkpt><trkpt lat="43.0976015" lon="11.4313095"><ele>163.0</ele><time>2026-05-02T10:46:38.248Z</time></trkpt><trkpt lat="43.0974768" lon="11.4312032"><ele>164.0</ele><time>2026-05-02T10:46:39.248Z</time></trkpt><trkpt lat="43.0973505" lon="11.4310993"><ele>165.0</ele><time>2026-05-02T10:46:40.252Z</time></trkpt><trkpt lat="43.097227" lon="11.430998"><ele>166.0</ele><time>2026-05-02T10:46:41.254Z</time></trkpt><trkpt lat="43.097107" lon="11.430901"><ele>167.0</ele><time>2026-05-02T10:46:42.253Z</time></trkpt><trkpt lat="43.0969867" lon="11.4308047"><ele>167.0</ele><time>2026-05-02T10:46:43.251Z</time></trkpt><trkpt lat="43.0968678" lon="11.4307065"><ele>167.0</ele><time>2026-05-02T10:46:44.252Z</time></trkpt><trkpt lat="43.0967542" lon="11.4305888"><ele>167.0</ele><time>2026-05-02T10:46:45.252Z</time></trkpt><trkpt lat="43.0966445" lon="11.430458"><ele>167.0</ele><time>2026-05-02T10:46:46.236Z</time></trkpt><trkpt lat="43.0965332" lon="11.4303228"><ele>168.33333333333331</ele><time>2026-05-02T10:46:47.251Z</time></trkpt><trkpt lat="43.0964218" lon="11.4301812"><ele>169.66666666666666</ele><time>2026-05-02T10:46:48.251Z</time></trkpt><trkpt lat="43.0963118" lon="11.4300412"><ele>171.0</ele><time>2026-05-02T10:46:49.252Z</time></trkpt><trkpt lat="43.0962012" lon="11.4299068"><ele>171.0</ele><time>2026-05-02T10:46:50.253Z</time></trkpt><trkpt lat="43.0960895" lon="11.429782"><ele>171.0</ele><time>2026-05-02T10:46:51.25Z</time></trkpt><trkpt lat="43.0959758" lon="11.4296727"><ele>171.0</ele><time>2026-05-02T10:46:52.25Z</time></trkpt><trkpt lat="43.0958583" lon="11.429578"><ele>171.0</ele><time>2026-05-02T10:46:53.251Z</time></trkpt><trkpt lat="43.0957412" lon="11.4294892"><ele>173.0</ele><time>2026-05-02T10:46:54.252Z</time></trkpt><trkpt lat="43.0956205" lon="11.429399"><ele>175.0</ele><time>2026-05-02T10:46:55.252Z</time></trkpt><trkpt lat="43.0954998" lon="11.4293113"><ele>177.0</ele><time>2026-05-02T10:46:56.253Z</time></trkpt><trkpt lat="43.0953768" lon="11.4292208"><ele>179.0</ele><time>2026-05-02T10:46:57.253Z</time></trkpt><trkpt lat="43.095255" lon="11.4291305"><ele>179.0</ele><time>2026-05-02T10:46:58.254Z</time></trkpt><trkpt lat="43.0951362" lon="11.4290405"><ele>179.0</ele><time>2026-05-02T10:46:59.253Z</time></trkpt><trkpt lat="43.0950187" lon="11.4289565"><ele>179.0</ele><time>2026-05-02T10:47:00.252Z</time></trkpt><trkpt lat="43.0949015" lon="11.4288767"><ele>179.0</ele><time>2026-05-02T10:47:01.263Z</time></trkpt><trkpt lat="43.0947857" lon="11.4287948"><ele>180.75</ele><time>2026-05-02T10:47:02.257Z</time></trkpt><trkpt lat="43.094672" lon="11.4287132"><ele>182.5</ele><time>2026-05-02T10:47:03.251Z</time></trkpt><trkpt lat="43.0945573" lon="11.4286347"><ele>184.25</ele><time>2026-05-02T10:47:04.254Z</time></trkpt><trkpt lat="43.0944435" lon="11.4285507"><ele>186.0</ele><time>2026-05-02T10:47:05.256Z</time></trkpt><trkpt lat="43.0943312" lon="11.4284635"><ele>186.0</ele><time>2026-05-02T10:47:06.255Z</time></trkpt><trkpt lat="43.094217" lon="11.428375"><ele>186.0</ele><time>2026-05-02T10:47:07.256Z</time></trkpt><trkpt lat="43.0940983" lon="11.428287"><ele>186.0</ele><time>2026-05-02T10:47:08.254Z</time></trkpt><trkpt lat="43.0939775" lon="11.4281965"><ele>186.0</ele><time>2026-05-02T10:47:09.254Z</time></trkpt><trkpt lat="43.0938535" lon="11.428105"><ele>186.5</ele><time>2026-05-02T10:47:10.256Z</time></trkpt><trkpt lat="43.0937278" lon="11.4280117"><ele>187.0</ele><time>2026-05-02T10:47:11.255Z</time></trkpt><trkpt lat="43.0936018" lon="11.4279197"><ele>187.5</ele><time>2026-05-02T10:47:12.259Z</time></trkpt><trkpt lat="43.0934743" lon="11.427827"><ele>188.0</ele><time>2026-05-02T10:47:13.255Z</time></trkpt><trkpt lat="43.0933475" lon="11.4277363"><ele>189.5</ele><time>2026-05-02T10:47:14.255Z</time></trkpt><trkpt lat="43.0932262" lon="11.4276475"><ele>191.0</ele><time>2026-05-02T10:47:15.255Z</time></trkpt><trkpt lat="43.0931085" lon="11.42756"><ele>192.5</ele><time>2026-05-02T10:47:16.256Z</time></trkpt><trkpt lat="43.092993" lon="11.4274753"><ele>194.0</ele><time>2026-05-02T10:47:17.254Z</time></trkpt><trkpt lat="43.0928775" lon="11.4273942"><ele>194.0</ele><time>2026-05-02T10:47:18.254Z</time></trkpt><trkpt lat="43.0927645" lon="11.4273088"><ele>194.0</ele><time>2026-05-02T10:47:19.255Z</time></trkpt><trkpt lat="43.0926508" lon="11.4272228"><ele>194.0</ele><time>2026-05-02T10:47:20.255Z</time></trkpt><trkpt lat="43.0925355" lon="11.427136"><ele>194.0</ele><time>2026-05-02T10:47:21.254Z</time></trkpt><trkpt lat="43.0924183" lon="11.4270462"><ele>195.5</ele><time>2026-05-02T10:47:22.256Z</time></trkpt><trkpt lat="43.0922928" lon="11.4269602"><ele>197.0</ele><time>2026-05-02T10:47:23.255Z</time></trkpt><trkpt lat="43.0921678" lon="11.4268677"><ele>198.5</ele><time>2026-05-02T10:47:24.253Z</time></trkpt><trkpt lat="43.0920408" lon="11.4267717"><ele>200.0</ele><time>2026-05-02T10:47:25.252Z</time></trkpt><trkpt lat="43.0919112" lon="11.4266775"><ele>200.0</ele><time>2026-05-02T10:47:26.251Z</time></trkpt><trkpt lat="43.0917853" lon="11.4265857"><ele>200.0</ele><time>2026-05-02T10:47:27.25Z</time></trkpt><trkpt lat="43.0916602" lon="11.4264968"><ele>200.0</ele><time>2026-05-02T10:47:28.252Z</time></trkpt><trkpt lat="43.0915405" lon="11.4264078"><ele>200.0</ele><time>2026-05-02T10:47:29.254Z</time></trkpt><trkpt lat="43.0914217" lon="11.4263178"><ele>200.75</ele><time>2026-05-02T10:47:30.252Z</time></trkpt><trkpt lat="43.0913065" lon="11.4262242"><ele>201.5</ele><time>2026-05-02T10:47:31.254Z</time></trkpt><trkpt lat="43.0911898" lon="11.4261403"><ele>202.25</ele><time>2026-05-02T10:47:32.253Z</time></trkpt><trkpt lat="43.0910717" lon="11.4260647"><ele>203.0</ele><time>2026-05-02T10:47:33.252Z</time></trkpt><trkpt lat="43.0909483" lon="11.4260018"><ele>203.0</ele><time>2026-05-02T10:47:34.254Z</time></trkpt><trkpt lat="43.0908138" lon="11.4259523"><ele>203.0</ele><time>2026-05-02T10:47:35.252Z</time></trkpt><trkpt lat="43.090673" lon="11.4259123"><ele>203.0</ele><time>2026-05-02T10:47:36.252Z</time></trkpt><trkpt lat="43.0905302" lon="11.4258758"><ele>203.0</ele><time>2026-05-02T10:47:37.251Z</time></trkpt><trkpt lat="43.0903925" lon="11.4258347"><ele>204.5</ele><time>2026-05-02T10:47:38.253Z</time></trkpt><trkpt lat="43.0902547" lon="11.4257955"><ele>206.0</ele><time>2026-05-02T10:47:39.255Z</time></trkpt><trkpt lat="43.0901232" lon="11.4257585"><ele>207.5</ele><time>2026-05-02T10:47:40.258Z</time></trkpt><trkpt lat="43.0899932" lon="11.4257238"><ele>209.0</ele><time>2026-05-02T10:47:41.257Z</time></trkpt><trkpt lat="43.0898653" lon="11.4256947"><ele>210.25</ele><time>2026-05-02T10:47:42.253Z</time></trkpt><trkpt lat="43.0897398" lon="11.4256615"><ele>211.5</ele><time>2026-05-02T10:47:43.253Z</time></trkpt><trkpt lat="43.089615" lon="11.4256268"><ele>212.75</ele><time>2026-05-02T10:47:44.255Z</time></trkpt><trkpt lat="43.0894928" lon="11.4255962"><ele>214.0</ele><time>2026-05-02T10:47:45.253Z</time></trkpt><trkpt lat="43.0893715" lon="11.4255647"><ele>214.0</ele><time>2026-05-02T10:47:46.254Z</time></trkpt><trkpt lat="43.0892612" lon="11.4255298"><ele>213.99999999999997</ele><time>2026-05-02T10:47:47.254Z</time></trkpt><trkpt lat="43.0891637" lon="11.4254932"><ele>213.99999999999997</ele><time>2026-05-02T10:47:48.253Z</time></trkpt><trkpt lat="43.0890805" lon="11.4254425"><ele>214.0</ele><time>2026-05-02T10:47:49.253Z</time></trkpt><trkpt lat="43.0890113" lon="11.4253735"><ele>214.0</ele><time>2026-05-02T10:47:50.251Z</time></trkpt><trkpt lat="43.0889677" lon="11.425276"><ele>219.2</ele><time>2026-05-02T10:47:51.252Z</time></trkpt><trkpt lat="43.0889485" lon="11.4251587"><ele>224.39999999999998</ele><time>2026-05-02T10:47:52.255Z</time></trkpt><trkpt lat="43.0889453" lon="11.4250335"><ele>229.6</ele><time>2026-05-02T10:47:53.25Z</time></trkpt><trkpt lat="43.0889538" lon="11.4249068"><ele>234.8</ele><time>2026-05-02T10:47:54.251Z</time></trkpt><trkpt lat="43.0889717" lon="11.4247733"><ele>240.0</ele><time>2026-05-02T10:47:55.251Z</time></trkpt><trkpt lat="43.0889963" lon="11.424634"><ele>237.75</ele><time>2026-05-02T10:47:56.25Z</time></trkpt><trkpt lat="43.0890242" lon="11.4244898"><ele>235.5</ele><time>2026-05-02T10:47:57.249Z</time></trkpt><trkpt lat="43.0890508" lon="11.4243393"><ele>233.25</ele><time>2026-05-02T10:47:58.247Z</time></trkpt><trkpt lat="43.0890755" lon="11.4241805"><ele>231.0</ele><time>2026-05-02T10:47:59.249Z</time></trkpt><trkpt lat="43.0891038" lon="11.4240213"><ele>231.0</ele><time>2026-05-02T10:48:00.248Z</time></trkpt><trkpt lat="43.0891328" lon="11.4238645"><ele>231.00000000000003</ele><time>2026-05-02T10:48:01.249Z</time></trkpt><trkpt lat="43.0891582" lon="11.4237117"><ele>231.00000000000003</ele><time>2026-05-02T10:48:02.25Z</time></trkpt><trkpt lat="43.0891678" lon="11.4235655"><ele>231.0</ele><time>2026-05-02T10:48:03.249Z</time></trkpt><trkpt lat="43.0891663" lon="11.4234205"><ele>231.0</ele><time>2026-05-02T10:48:04.248Z</time></trkpt><trkpt lat="43.0891478" lon="11.42328"><ele>232.75</ele><time>2026-05-02T10:48:05.249Z</time></trkpt><trkpt lat="43.0891125" lon="11.4231422"><ele>234.5</ele><time>2026-05-02T10:48:06.25Z</time></trkpt><trkpt lat="43.0890637" lon="11.4230062"><ele>236.25</ele><time>2026-05-02T10:48:07.248Z</time></trkpt><trkpt lat="43.0890093" lon="11.4228662"><ele>238.0</ele><time>2026-05-02T10:48:08.249Z</time></trkpt><trkpt lat="43.08895" lon="11.4227255"><ele>242.75</ele><time>2026-05-02T10:48:09.249Z</time></trkpt><trkpt lat="43.088891" lon="11.4225772"><ele>247.5</ele><time>2026-05-02T10:48:10.249Z</time></trkpt><trkpt lat="43.0888312" lon="11.4224262"><ele>252.25</ele><time>2026-05-02T10:48:11.249Z</time></trkpt><trkpt lat="43.0887742" lon="11.4222768"><ele>257.0</ele><time>2026-05-02T10:48:12.25Z</time></trkpt><trkpt lat="43.0887235" lon="11.422134"><ele>257.0</ele><time>2026-05-02T10:48:13.25Z</time></trkpt><trkpt lat="43.088678" lon="11.4220055"><ele>257.0</ele><time>2026-05-02T10:48:14.249Z</time></trkpt><trkpt lat="43.0886265" lon="11.4218967"><ele>257.0</ele><time>2026-05-02T10:48:15.247Z</time></trkpt><trkpt lat="43.0885642" lon="11.4218182"><ele>257.0</ele><time>2026-05-02T10:48:16.248Z</time></trkpt><trkpt lat="43.0884892" lon="11.4217615"><ele>257.0</ele><time>2026-05-02T10:48:17.249Z</time></trkpt><trkpt lat="43.0884057" lon="11.4217292"><ele>257.0</ele><time>2026-05-02T10:48:18.251Z</time></trkpt><trkpt lat="43.088324" lon="11.4217278"><ele>257.0</ele><time>2026-05-02T10:48:19.251Z</time></trkpt><trkpt lat="43.0882578" lon="11.4217613"><ele>257.0</ele><time>2026-05-02T10:48:20.249Z</time></trkpt><trkpt lat="43.0882042" lon="11.4218208"><ele>257.0</ele><time>2026-05-02T10:48:21.252Z</time></trkpt><trkpt lat="43.0881643" lon="11.4218928"><ele>257.0</ele><time>2026-05-02T10:48:22.251Z</time></trkpt><trkpt lat="43.0881327" lon="11.421973"><ele>257.0</ele><time>2026-05-02T10:48:23.25Z</time></trkpt><trkpt lat="43.0881063" lon="11.42207"><ele>257.0</ele><time>2026-05-02T10:48:24.253Z</time></trkpt><trkpt lat="43.088085" lon="11.4221847"><ele>262.0</ele><time>2026-05-02T10:48:25.251Z</time></trkpt><trkpt lat="43.0880622" lon="11.4223083"><ele>267.0</ele><time>2026-05-02T10:48:26.252Z</time></trkpt><trkpt lat="43.0880332" lon="11.4224367"><ele>272.0</ele><time>2026-05-02T10:48:27.25Z</time></trkpt><trkpt lat="43.0880022" lon="11.4225703"><ele>277.0</ele><time>2026-05-02T10:48:28.252Z</time></trkpt><trkpt lat="43.0879723" lon="11.4227043"><ele>282.0</ele><time>2026-05-02T10:48:29.251Z</time></trkpt><trkpt lat="43.08794" lon="11.422839"><ele>282.0</ele><time>2026-05-02T10:48:30.251Z</time></trkpt><trkpt lat="43.0879063" lon="11.4229728"><ele>282.0</ele><time>2026-05-02T10:48:31.257Z</time></trkpt><trkpt lat="43.087864" lon="11.4231062"><ele>282.0</ele><time>2026-05-02T10:48:32.249Z</time></trkpt><trkpt lat="43.0878148" lon="11.4232372"><ele>282.0</ele><time>2026-05-02T10:48:33.248Z</time></trkpt><trkpt lat="43.0877642" lon="11.4233517"><ele>282.0</ele><time>2026-05-02T10:48:34.249Z</time></trkpt><trkpt lat="43.0877198" lon="11.4234392"><ele>282.2</ele><time>2026-05-02T10:48:35.251Z</time></trkpt><trkpt lat="43.0876248" lon="11.4235292"><ele>282.4</ele><time>2026-05-02T10:48:37.249Z</time></trkpt><trkpt lat="43.0875345" lon="11.423472"><ele>282.6</ele><time>2026-05-02T10:48:39.246Z</time></trkpt><trkpt lat="43.0874875" lon="11.42335"><ele>282.8</ele><time>2026-05-02T10:48:41.248Z</time></trkpt><trkpt lat="43.0874452" lon="11.4231857"><ele>283.0</ele><time>2026-05-02T10:48:43.25Z</time></trkpt><trkpt lat="43.0874262" lon="11.4230888"><ele>287.5</ele><time>2026-05-02T10:48:44.25Z</time></trkpt><trkpt lat="43.087409" lon="11.4229843"><ele>292.0</ele><time>2026-05-02T10:48:45.248Z</time></trkpt><trkpt lat="43.0873877" lon="11.4228757"><ele>296.5</ele><time>2026-05-02T10:48:46.249Z</time></trkpt><trkpt lat="43.0873625" lon="11.4227768"><ele>301.0</ele><time>2026-05-02T10:48:47.249Z</time></trkpt><trkpt lat="43.0873333" lon="11.422699"><ele>305.5</ele><time>2026-05-02T10:48:48.248Z</time></trkpt><trkpt lat="43.0872488" lon="11.4226393"><ele>310.0</ele><time>2026-05-02T10:48:50.25Z</time></trkpt><trkpt lat="43.0871805" lon="11.4226953"><ele>310.0</ele><time>2026-05-02T10:48:52.248Z</time></trkpt><trkpt lat="43.087146" lon="11.4228402"><ele>310.0</ele><time>2026-05-02T10:48:54.248Z</time></trkpt><trkpt lat="43.0871268" lon="11.4229465"><ele>310.0</ele><time>2026-05-02T10:48:55.249Z</time></trkpt><trkpt lat="43.0871072" lon="11.4230685"><ele>310.0</ele><time>2026-05-02T10:48:56.251Z</time></trkpt><trkpt lat="43.0870792" lon="11.4232013"><ele>310.0</ele><time>2026-05-02T10:48:57.25Z</time></trkpt><trkpt lat="43.08705" lon="11.4233353"><ele>310.0</ele><time>2026-05-02T10:48:58.251Z</time></trkpt><trkpt lat="43.0870232" lon="11.4234645"><ele>310.0</ele><time>2026-05-02T10:48:59.252Z</time></trkpt><trkpt lat="43.0869977" lon="11.423592"><ele>310.0</ele><time>2026-05-02T10:49:00.25Z</time></trkpt><trkpt lat="43.0869627" lon="11.4236947"><ele>310.0</ele><time>2026-05-02T10:49:01.251Z</time></trkpt><trkpt lat="43.0869162" lon="11.4237733"><ele>310.0</ele><time>2026-05-02T10:49:02.251Z</time></trkpt><trkpt lat="43.0868613" lon="11.4238327"><ele>310.0</ele><time>2026-05-02T10:49:03.248Z</time></trkpt><trkpt lat="43.0867988" lon="11.4238683"><ele>311.14285714285717</ele><time>2026-05-02T10:49:04.25Z</time></trkpt><trkpt lat="43.086733" lon="11.4238793"><ele>312.2857142857143</ele><time>2026-05-02T10:49:05.248Z</time></trkpt><trkpt lat="43.0866633" lon="11.4238707"><ele>313.42857142857144</ele><time>2026-05-02T10:49:06.249Z</time></trkpt><trkpt lat="43.0865925" lon="11.4238425"><ele>314.57142857142856</ele><time>2026-05-02T10:49:07.248Z</time></trkpt><trkpt lat="43.0865267" lon="11.423804"><ele>315.7142857142857</ele><time>2026-05-02T10:49:08.25Z</time></trkpt><trkpt lat="43.0864665" lon="11.4237555"><ele>316.85714285714283</ele><time>2026-05-02T10:49:09.252Z</time></trkpt><trkpt lat="43.0864178" lon="11.4236893"><ele>318.0</ele><time>2026-05-02T10:49:10.249Z</time></trkpt><trkpt lat="43.0863865" lon="11.4235278"><ele>319.4285714285714</ele><time>2026-05-02T10:49:12.255Z</time></trkpt><trkpt lat="43.0864027" lon="11.4234443"><ele>320.8571428571429</ele><time>2026-05-02T10:49:13.253Z</time></trkpt><trkpt lat="43.0864365" lon="11.4233648"><ele>322.2857142857143</ele><time>2026-05-02T10:49:14.25Z</time></trkpt><trkpt lat="43.0864748" lon="11.4232822"><ele>323.71428571428567</ele><time>2026-05-02T10:49:15.249Z</time></trkpt><trkpt lat="43.086508" lon="11.4231882"><ele>325.1428571428571</ele><time>2026-05-02T10:49:16.249Z</time></trkpt><trkpt lat="43.0865303" lon="11.4230957"><ele>326.57142857142856</ele><time>2026-05-02T10:49:17.251Z</time></trkpt><trkpt lat="43.0865415" lon="11.4229932"><ele>328.0</ele><time>2026-05-02T10:49:18.248Z</time></trkpt><trkpt lat="43.0865348" lon="11.4228833"><ele>327.99999999999994</ele><time>2026-05-02T10:49:19.248Z</time></trkpt><trkpt lat="43.0865143" lon="11.4227807"><ele>328.0</ele><time>2026-05-02T10:49:20.249Z</time></trkpt><trkpt lat="43.086474" lon="11.4226982"><ele>328.0</ele><time>2026-05-02T10:49:21.248Z</time></trkpt><trkpt lat="43.0864147" lon="11.4226448"><ele>328.0</ele><time>2026-05-02T10:49:22.249Z</time></trkpt><trkpt lat="43.0863485" lon="11.4226288"><ele>328.0</ele><time>2026-05-02T10:49:23.25Z</time></trkpt><trkpt lat="43.0862845" lon="11.4226503"><ele>327.99999999999994</ele><time>2026-05-02T10:49:24.25Z</time></trkpt><trkpt lat="43.0862288" lon="11.4227063"><ele>328.0</ele><time>2026-05-02T10:49:25.252Z</time></trkpt><trkpt lat="43.0861803" lon="11.4227837"><ele>328.0</ele><time>2026-05-02T10:49:26.252Z</time></trkpt><trkpt lat="43.086135" lon="11.4228677"><ele>328.0</ele><time>2026-05-02T10:49:27.252Z</time></trkpt><trkpt lat="43.0860898" lon="11.4229547"><ele>328.0</ele><time>2026-05-02T10:49:28.248Z</time></trkpt><trkpt lat="43.0860425" lon="11.4230435"><ele>328.0</ele><time>2026-05-02T10:49:29.249Z</time></trkpt><trkpt lat="43.0859945" lon="11.4231313"><ele>328.0</ele><time>2026-05-02T10:49:30.249Z</time></trkpt><trkpt lat="43.0859483" lon="11.4232093"><ele>328.0</ele><time>2026-05-02T10:49:31.248Z</time></trkpt><trkpt lat="43.0858963" lon="11.4232688"><ele>328.16666666666663</ele><time>2026-05-02T10:49:32.252Z</time></trkpt><trkpt lat="43.085834" lon="11.4232977"><ele>328.3333333333333</ele><time>2026-05-02T10:49:33.252Z</time></trkpt><trkpt lat="43.0857635" lon="11.4232872"><ele>328.5</ele><time>2026-05-02T10:49:34.251Z</time></trkpt><trkpt lat="43.0856943" lon="11.4232342"><ele>328.6666666666667</ele><time>2026-05-02T10:49:35.252Z</time></trkpt><trkpt lat="43.0856327" lon="11.4231473"><ele>328.83333333333337</ele><time>2026-05-02T10:49:36.251Z</time></trkpt><trkpt lat="43.0855812" lon="11.4230402"><ele>329.0</ele><time>2026-05-02T10:49:37.252Z</time></trkpt><trkpt lat="43.0855415" lon="11.4229283"><ele>332.33333333333337</ele><time>2026-05-02T10:49:38.251Z</time></trkpt><trkpt lat="43.0855163" lon="11.4228275"><ele>335.6666666666667</ele><time>2026-05-02T10:49:39.25Z</time></trkpt><trkpt lat="43.0854977" lon="11.4227403"><ele>339.0</ele><time>2026-05-02T10:49:40.251Z</time></trkpt><trkpt lat="43.0854765" lon="11.422649"><ele>342.3333333333333</ele><time>2026-05-02T10:49:41.252Z</time></trkpt><trkpt lat="43.0854535" lon="11.4225457"><ele>345.66666666666663</ele><time>2026-05-02T10:49:42.251Z</time></trkpt><trkpt lat="43.0854252" lon="11.4224358"><ele>349.0</ele><time>2026-05-02T10:49:43.251Z</time></trkpt><trkpt lat="43.0853927" lon="11.422321"><ele>349.0</ele><time>2026-05-02T10:49:44.251Z</time></trkpt><trkpt lat="43.0853585" lon="11.4222108"><ele>349.0</ele><time>2026-05-02T10:49:45.25Z</time></trkpt><trkpt lat="43.0853177" lon="11.4221103"><ele>349.0</ele><time>2026-05-02T10:49:46.25Z</time></trkpt><trkpt lat="43.0852672" lon="11.4220192"><ele>349.0</ele><time>2026-05-02T10:49:47.251Z</time></trkpt><trkpt lat="43.0852082" lon="11.4219382"><ele>349.0</ele><time>2026-05-02T10:49:48.248Z</time></trkpt><trkpt lat="43.085137" lon="11.4218653"><ele>349.0</ele><time>2026-05-02T10:49:49.25Z</time></trkpt><trkpt lat="43.085056" lon="11.4217977"><ele>348.2</ele><time>2026-05-02T10:49:50.252Z</time></trkpt><trkpt lat="43.0849663" lon="11.42174"><ele>347.4</ele><time>2026-05-02T10:49:51.247Z</time></trkpt><trkpt lat="43.0848707" lon="11.4216923"><ele>346.6</ele><time>2026-05-02T10:49:52.249Z</time></trkpt><trkpt lat="43.0847728" lon="11.4216553"><ele>345.8</ele><time>2026-05-02T10:49:53.249Z</time></trkpt><trkpt lat="43.0846727" lon="11.4216248"><ele>345.0</ele><time>2026-05-02T10:49:54.249Z</time></trkpt><trkpt lat="43.0845728" lon="11.4215873"><ele>345.0</ele><time>2026-05-02T10:49:55.248Z</time></trkpt><trkpt lat="43.084474" lon="11.4215422"><ele>345.0</ele><time>2026-05-02T10:49:56.253Z</time></trkpt><trkpt lat="43.0843753" lon="11.4214885"><ele>345.0</ele><time>2026-05-02T10:49:57.25Z</time></trkpt><trkpt lat="43.0842783" lon="11.421421"><ele>345.0</ele><time>2026-05-02T10:49:58.249Z</time></trkpt><trkpt lat="43.0841813" lon="11.4213472"><ele>345.0</ele><time>2026-05-02T10:49:59.25Z</time></trkpt><trkpt lat="43.0840845" lon="11.4212707"><ele>345.5</ele><time>2026-05-02T10:50:00.252Z</time></trkpt><trkpt lat="43.0839873" lon="11.4211947"><ele>346.0</ele><time>2026-05-02T10:50:01.253Z</time></trkpt><trkpt lat="43.0838897" lon="11.4211187"><ele>346.5</ele><time>2026-05-02T10:50:02.251Z</time></trkpt><trkpt lat="43.083789" lon="11.421048"><ele>347.0</ele><time>2026-05-02T10:50:03.252Z</time></trkpt><trkpt lat="43.0836845" lon="11.4209912"><ele>347.0</ele><time>2026-05-02T10:50:04.25Z</time></trkpt><trkpt lat="43.0835793" lon="11.4209462"><ele>347.0</ele><time>2026-05-02T10:50:05.252Z</time></trkpt><trkpt lat="43.0834757" lon="11.4209088"><ele>347.0</ele><time>2026-05-02T10:50:06.252Z</time></trkpt><trkpt lat="43.0833718" lon="11.4208755"><ele>347.0</ele><time>2026-05-02T10:50:07.25Z</time></trkpt><trkpt lat="43.0832672" lon="11.4208428"><ele>347.0</ele><time>2026-05-02T10:50:08.252Z</time></trkpt><trkpt lat="43.0831608" lon="11.4208098"><ele>348.6</ele><time>2026-05-02T10:50:09.253Z</time></trkpt><trkpt lat="43.0830533" lon="11.4207748"><ele>350.20000000000005</ele><time>2026-05-02T10:50:10.253Z</time></trkpt><trkpt lat="43.0829455" lon="11.420737"><ele>351.8</ele><time>2026-05-02T10:50:11.253Z</time></trkpt><trkpt lat="43.0828373" lon="11.4207"><ele>353.4</ele><time>2026-05-02T10:50:12.251Z</time></trkpt><trkpt lat="43.0827293" lon="11.4206625"><ele>355.0</ele><time>2026-05-02T10:50:13.251Z</time></trkpt><trkpt lat="43.0826258" lon="11.4206338"><ele>355.0</ele><time>2026-05-02T10:50:14.264Z</time></trkpt><trkpt lat="43.0825268" lon="11.4206102"><ele>355.0</ele><time>2026-05-02T10:50:15.249Z</time></trkpt><trkpt lat="43.0824265" lon="11.420589"><ele>355.0</ele><time>2026-05-02T10:50:16.249Z</time></trkpt><trkpt lat="43.0823183" lon="11.4205692"><ele>355.0</ele><time>2026-05-02T10:50:17.247Z</time></trkpt><trkpt lat="43.0822068" lon="11.420559"><ele>355.0</ele><time>2026-05-02T10:50:18.25Z</time></trkpt><trkpt lat="43.0820937" lon="11.4205593"><ele>354.75</ele><time>2026-05-02T10:50:19.25Z</time></trkpt><trkpt lat="43.0819798" lon="11.4205575"><ele>354.5</ele><time>2026-05-02T10:50:20.251Z</time></trkpt><trkpt lat="43.0818673" lon="11.4205323"><ele>354.25</ele><time>2026-05-02T10:50:21.251Z</time></trkpt><trkpt lat="43.081757" lon="11.4204748"><ele>354.0</ele><time>2026-05-02T10:50:22.253Z</time></trkpt><trkpt lat="43.0816517" lon="11.4203885"><ele>358.0</ele><time>2026-05-02T10:50:23.253Z</time></trkpt><trkpt lat="43.0815502" lon="11.4202815"><ele>362.0</ele><time>2026-05-02T10:50:24.254Z</time></trkpt><trkpt lat="43.0814553" lon="11.4201565"><ele>366.0</ele><time>2026-05-02T10:50:25.252Z</time></trkpt><trkpt lat="43.0813698" lon="11.4200222"><ele>370.0</ele><time>2026-05-02T10:50:26.249Z</time></trkpt><trkpt lat="43.0812937" lon="11.419886"><ele>370.0</ele><time>2026-05-02T10:50:27.251Z</time></trkpt><trkpt lat="43.081227" lon="11.419756"><ele>370.0</ele><time>2026-05-02T10:50:28.25Z</time></trkpt><trkpt lat="43.0811518" lon="11.4196495"><ele>370.0</ele><time>2026-05-02T10:50:29.25Z</time></trkpt><trkpt lat="43.0810605" lon="11.4195683"><ele>370.0</ele><time>2026-05-02T10:50:30.25Z</time></trkpt><trkpt lat="43.0809648" lon="11.4195045"><ele>370.0</ele><time>2026-05-02T10:50:31.249Z</time></trkpt><trkpt lat="43.0808723" lon="11.4194582"><ele>369.2</ele><time>2026-05-02T10:50:32.251Z</time></trkpt><trkpt lat="43.0807832" lon="11.4194288"><ele>368.4</ele><time>2026-05-02T10:50:33.25Z</time></trkpt><trkpt lat="43.0806927" lon="11.4194115"><ele>367.6</ele><time>2026-05-02T10:50:34.254Z</time></trkpt><trkpt lat="43.0805983" lon="11.4193977"><ele>366.8</ele><time>2026-05-02T10:50:35.253Z</time></trkpt><trkpt lat="43.080501" lon="11.4193767"><ele>366.0</ele><time>2026-05-02T10:50:36.251Z</time></trkpt><trkpt lat="43.0804038" lon="11.4193398"><ele>369.8</ele><time>2026-05-02T10:50:37.251Z</time></trkpt><trkpt lat="43.0803142" lon="11.419279"><ele>373.6</ele><time>2026-05-02T10:50:38.252Z</time></trkpt><trkpt lat="43.080243" lon="11.4191907"><ele>377.4</ele><time>2026-05-02T10:50:39.254Z</time></trkpt><trkpt lat="43.0801905" lon="11.4190788"><ele>381.2</ele><time>2026-05-02T10:50:40.252Z</time></trkpt><trkpt lat="43.0801437" lon="11.4189632"><ele>385.0</ele><time>2026-05-02T10:50:41.253Z</time></trkpt><trkpt lat="43.0800847" lon="11.4188603"><ele>383.2</ele><time>2026-05-02T10:50:42.247Z</time></trkpt><trkpt lat="43.08001" lon="11.418768"><ele>381.4</ele><time>2026-05-02T10:50:43.247Z</time></trkpt><trkpt lat="43.0799238" lon="11.4186897"><ele>379.6</ele><time>2026-05-02T10:50:44.247Z</time></trkpt><trkpt lat="43.079826" lon="11.4186285"><ele>377.8</ele><time>2026-05-02T10:50:45.249Z</time></trkpt><trkpt lat="43.0797228" lon="11.418578"><ele>376.0</ele><time>2026-05-02T10:50:46.252Z</time></trkpt><trkpt lat="43.0796177" lon="11.4185327"><ele>381.25</ele><time>2026-05-02T10:50:47.252Z</time></trkpt><trkpt lat="43.0795082" lon="11.4184827"><ele>386.5</ele><time>2026-05-02T10:50:48.252Z</time></trkpt><trkpt lat="43.079396" lon="11.418432"><ele>391.75</ele><time>2026-05-02T10:50:49.251Z</time></trkpt><trkpt lat="43.0792897" lon="11.4183828"><ele>397.0</ele><time>2026-05-02T10:50:50.251Z</time></trkpt><trkpt lat="43.0791995" lon="11.4183118"><ele>397.0</ele><time>2026-05-02T10:50:51.251Z</time></trkpt><trkpt lat="43.0791223" lon="11.4182228"><ele>397.0</ele><time>2026-05-02T10:50:52.251Z</time></trkpt><trkpt lat="43.0790518" lon="11.4181447"><ele>397.0</ele><time>2026-05-02T10:50:53.251Z</time></trkpt><trkpt lat="43.0789793" lon="11.418084"><ele>397.0</ele><time>2026-05-02T10:50:54.258Z</time></trkpt><trkpt lat="43.0788968" lon="11.4180397"><ele>397.0</ele><time>2026-05-02T10:50:55.25Z</time></trkpt><trkpt lat="43.0788037" lon="11.4180087"><ele>396.6</ele><time>2026-05-02T10:50:56.25Z</time></trkpt><trkpt lat="43.0787007" lon="11.417988"><ele>396.20000000000005</ele><time>2026-05-02T10:50:57.249Z</time></trkpt><trkpt lat="43.0785938" lon="11.4179792"><ele>395.8</ele><time>2026-05-02T10:50:58.25Z</time></trkpt><trkpt lat="43.0784832" lon="11.4179743"><ele>395.4</ele><time>2026-05-02T10:50:59.25Z</time></trkpt><trkpt lat="43.0783668" lon="11.417967"><ele>395.0</ele><time>2026-05-02T10:51:00.25Z</time></trkpt><trkpt lat="43.0782458" lon="11.4179555"><ele>398.5</ele><time>2026-05-02T10:51:01.25Z</time></trkpt><trkpt lat="43.0781233" lon="11.4179375"><ele>402.0</ele><time>2026-05-02T10:51:02.252Z</time></trkpt><trkpt lat="43.0780022" lon="11.4179233"><ele>405.5</ele><time>2026-05-02T10:51:03.251Z</time></trkpt><trkpt lat="43.0778817" lon="11.4179205"><ele>409.0</ele><time>2026-05-02T10:51:04.249Z</time></trkpt><trkpt lat="43.0777682" lon="11.4179288"><ele>409.0</ele><time>2026-05-02T10:51:05.248Z</time></trkpt><trkpt lat="43.0776628" lon="11.4179347"><ele>409.0</ele><time>2026-05-02T10:51:06.245Z</time></trkpt><trkpt lat="43.0775563" lon="11.4179228"><ele>409.0</ele><time>2026-05-02T10:51:07.246Z</time></trkpt><trkpt lat="43.0774483" lon="11.417884"><ele>409.0</ele><time>2026-05-02T10:51:08.248Z</time></trkpt><trkpt lat="43.0773375" lon="11.417821"><ele>409.0</ele><time>2026-05-02T10:51:09.246Z</time></trkpt><trkpt lat="43.0772238" lon="11.4177435"><ele>412.6</ele><time>2026-05-02T10:51:10.248Z</time></trkpt><trkpt lat="43.077116" lon="11.4176668"><ele>416.2</ele><time>2026-05-02T10:51:11.25Z</time></trkpt><trkpt lat="43.0770235" lon="11.4175905"><ele>419.80000000000007</ele><time>2026-05-02T10:51:12.25Z</time></trkpt><trkpt lat="43.0769465" lon="11.4174987"><ele>423.40000000000003</ele><time>2026-05-02T10:51:13.25Z</time></trkpt><trkpt lat="43.0768867" lon="11.4173805"><ele>427.0</ele><time>2026-05-02T10:51:14.25Z</time></trkpt><trkpt lat="43.0768433" lon="11.4172622"><ele>427.50000000000006</ele><time>2026-05-02T10:51:15.248Z</time></trkpt><trkpt lat="43.0768025" lon="11.4171437"><ele>428.0</ele><time>2026-05-02T10:51:16.249Z</time></trkpt><trkpt lat="43.0767495" lon="11.417051"><ele>428.5</ele><time>2026-05-02T10:51:17.249Z</time></trkpt><trkpt lat="43.0766833" lon="11.4169808"><ele>429.0</ele><time>2026-05-02T10:51:18.248Z</time></trkpt><trkpt lat="43.0766065" lon="11.4169283"><ele>429.50000000000006</ele><time>2026-05-02T10:51:19.251Z</time></trkpt><trkpt lat="43.0765155" lon="11.4168895"><ele>430.0</ele><time>2026-05-02T10:51:20.25Z</time></trkpt><trkpt lat="43.0764157" lon="11.4168593"><ele>430.0</ele><time>2026-05-02T10:51:21.251Z</time></trkpt><trkpt lat="43.0763072" lon="11.4168307"><ele>430.0</ele><time>2026-05-02T10:51:22.252Z</time></trkpt><trkpt lat="43.0761928" lon="11.4167923"><ele>430.0</ele><time>2026-05-02T10:51:23.253Z</time></trkpt><trkpt lat="43.0760762" lon="11.416736"><ele>430.0</ele><time>2026-05-02T10:51:24.249Z</time></trkpt><trkpt lat="43.0759545" lon="11.4166565"><ele>430.0</ele><time>2026-05-02T10:51:25.248Z</time></trkpt><trkpt lat="43.075824" lon="11.4165628"><ele>430.0</ele><time>2026-05-02T10:51:26.248Z</time></trkpt><trkpt lat="43.075689" lon="11.4164592"><ele>430.0</ele><time>2026-05-02T10:51:27.249Z</time></trkpt><trkpt lat="43.0755658" lon="11.4163598"><ele>430.0</ele><time>2026-05-02T10:51:28.25Z</time></trkpt><trkpt lat="43.0754463" lon="11.416268"><ele>431.25</ele><time>2026-05-02T10:51:29.25Z</time></trkpt><trkpt lat="43.075333" lon="11.4161797"><ele>432.5</ele><time>2026-05-02T10:51:30.259Z</time></trkpt><trkpt lat="43.0752243" lon="11.4160958"><ele>433.75</ele><time>2026-05-02T10:51:31.249Z</time></trkpt><trkpt lat="43.0751155" lon="11.4160212"><ele>435.0</ele><time>2026-05-02T10:51:32.249Z</time></trkpt><trkpt lat="43.0750015" lon="11.4159548"><ele>436.25</ele><time>2026-05-02T10:51:33.249Z</time></trkpt><trkpt lat="43.0748775" lon="11.4158985"><ele>437.5</ele><time>2026-05-02T10:51:34.252Z</time></trkpt><trkpt lat="43.0747548" lon="11.4158522"><ele>438.75</ele><time>2026-05-02T10:51:35.25Z</time></trkpt><trkpt lat="43.0746487" lon="11.4158222"><ele>440.0</ele><time>2026-05-02T10:51:36.252Z</time></trkpt><trkpt lat="43.0745515" lon="11.415799"><ele>439.99999999999994</ele><time>2026-05-02T10:51:37.253Z</time></trkpt><trkpt lat="43.0744697" lon="11.4157608"><ele>440.0</ele><time>2026-05-02T10:51:38.252Z</time></trkpt><trkpt lat="43.0744087" lon="11.4156925"><ele>440.0</ele><time>2026-05-02T10:51:39.251Z</time></trkpt><trkpt lat="43.0743785" lon="11.4155993"><ele>440.0</ele><time>2026-05-02T10:51:40.251Z</time></trkpt><trkpt lat="43.0743682" lon="11.4154952"><ele>439.99999999999994</ele><time>2026-05-02T10:51:41.251Z</time></trkpt><trkpt lat="43.0743632" lon="11.4153817"><ele>440.0</ele><time>2026-05-02T10:51:42.252Z</time></trkpt><trkpt lat="43.0743607" lon="11.4152542"><ele>442.0</ele><time>2026-05-02T10:51:43.249Z</time></trkpt><trkpt lat="43.0743527" lon="11.4151182"><ele>444.0</ele><time>2026-05-02T10:51:44.25Z</time></trkpt><trkpt lat="43.0743322" lon="11.4149838"><ele>446.0</ele><time>2026-05-02T10:51:45.248Z</time></trkpt><trkpt lat="43.0742962" lon="11.4148515"><ele>448.0</ele><time>2026-05-02T10:51:46.251Z</time></trkpt><trkpt lat="43.0742547" lon="11.414718"><ele>450.0</ele><time>2026-05-02T10:51:47.25Z</time></trkpt><trkpt lat="43.0742082" lon="11.4146037"><ele>451.4</ele><time>2026-05-02T10:51:48.249Z</time></trkpt><trkpt lat="43.0741548" lon="11.414517"><ele>452.8</ele><time>2026-05-02T10:51:49.251Z</time></trkpt><trkpt lat="43.0740877" lon="11.4144578"><ele>454.20000000000005</ele><time>2026-05-02T10:51:50.253Z</time></trkpt><trkpt lat="43.0740043" lon="11.4144213"><ele>455.6</ele><time>2026-05-02T10:51:51.251Z</time></trkpt><trkpt lat="43.0739067" lon="11.4144035"><ele>457.0</ele><time>2026-05-02T10:51:52.252Z</time></trkpt><trkpt lat="43.0737987" lon="11.4143928"><ele>459.20000000000005</ele><time>2026-05-02T10:51:53.252Z</time></trkpt><trkpt lat="43.0736882" lon="11.4143803"><ele>461.40000000000003</ele><time>2026-05-02T10:51:54.253Z</time></trkpt><trkpt lat="43.0735777" lon="11.414364"><ele>463.59999999999997</ele><time>2026-05-02T10:51:55.252Z</time></trkpt><trkpt lat="43.0734677" lon="11.41434"><ele>465.79999999999995</ele><time>2026-05-02T10:51:56.251Z</time></trkpt><trkpt lat="43.0733582" lon="11.4143097"><ele>468.0</ele><time>2026-05-02T10:51:57.252Z</time></trkpt><trkpt lat="43.0732453" lon="11.4142837"><ele>470.25</ele><time>2026-05-02T10:51:58.25Z</time></trkpt><trkpt lat="43.0731285" lon="11.4142677"><ele>472.5</ele><time>2026-05-02T10:51:59.252Z</time></trkpt><trkpt lat="43.0730063" lon="11.4142677"><ele>474.75</ele><time>2026-05-02T10:52:00.254Z</time></trkpt><trkpt lat="43.0728848" lon="11.4142778"><ele>477.0</ele><time>2026-05-02T10:52:01.253Z</time></trkpt><trkpt lat="43.0727642" lon="11.4142842"><ele>477.0</ele><time>2026-05-02T10:52:02.252Z</time></trkpt><trkpt lat="43.0726487" lon="11.4142665"><ele>477.00000000000006</ele><time>2026-05-02T10:52:03.25Z</time></trkpt><trkpt lat="43.0725418" lon="11.4142228"><ele>477.00000000000006</ele><time>2026-05-02T10:52:04.252Z</time></trkpt><trkpt lat="43.0724382" lon="11.4141695"><ele>477.0</ele><time>2026-05-02T10:52:05.253Z</time></trkpt><trkpt lat="43.0723408" lon="11.4141153"><ele>477.0</ele><time>2026-05-02T10:52:06.25Z</time></trkpt><trkpt lat="43.0722535" lon="11.4140548"><ele>476.6</ele><time>2026-05-02T10:52:07.253Z</time></trkpt><trkpt lat="43.0721638" lon="11.4139922"><ele>476.20000000000005</ele><time>2026-05-02T10:52:08.253Z</time></trkpt><trkpt lat="43.072064" lon="11.4139397"><ele>475.8</ele><time>2026-05-02T10:52:09.252Z</time></trkpt><trkpt lat="43.0719622" lon="11.4139027"><ele>475.4</ele><time>2026-05-02T10:52:10.252Z</time></trkpt><trkpt lat="43.0718602" lon="11.4138603"><ele>475.0</ele><time>2026-05-02T10:52:11.252Z</time></trkpt><trkpt lat="43.0717553" lon="11.413792"><ele>477.2</ele><time>2026-05-02T10:52:12.251Z</time></trkpt><trkpt lat="43.071653" lon="11.413708"><ele>479.4</ele><time>2026-05-02T10:52:13.252Z</time></trkpt><trkpt lat="43.0715548" lon="11.4136278"><ele>481.6</ele><time>2026-05-02T10:52:14.252Z</time></trkpt><trkpt lat="43.071451" lon="11.4135735"><ele>483.8</ele><time>2026-05-02T10:52:15.251Z</time></trkpt><trkpt lat="43.071347" lon="11.4135605"><ele>486.0</ele><time>2026-05-02T10:52:16.26Z</time></trkpt><trkpt lat="43.0712415" lon="11.413582"><ele>486.0</ele><time>2026-05-02T10:52:17.253Z</time></trkpt><trkpt lat="43.071135" lon="11.4136045"><ele>486.0</ele><time>2026-05-02T10:52:18.251Z</time></trkpt><trkpt lat="43.0710347" lon="11.4135957"><ele>486.0</ele><time>2026-05-02T10:52:19.25Z</time></trkpt><trkpt lat="43.0709438" lon="11.4135477"><ele>486.0</ele><time>2026-05-02T10:52:20.251Z</time></trkpt><trkpt lat="43.0708577" lon="11.4134765"><ele>486.0</ele><time>2026-05-02T10:52:21.249Z</time></trkpt><trkpt lat="43.0707713" lon="11.4133813"><ele>487.8</ele><time>2026-05-02T10:52:22.248Z</time></trkpt><trkpt lat="43.0706837" lon="11.4132715"><ele>489.6</ele><time>2026-05-02T10:52:23.25Z</time></trkpt><trkpt lat="43.0705948" lon="11.4131612"><ele>491.4</ele><time>2026-05-02T10:52:24.251Z</time></trkpt><trkpt lat="43.070511" lon="11.4130608"><ele>493.2</ele><time>2026-05-02T10:52:25.251Z</time></trkpt><trkpt lat="43.0704338" lon="11.4129798"><ele>495.0</ele><time>2026-05-02T10:52:26.251Z</time></trkpt><trkpt lat="43.0703613" lon="11.4129272"><ele>495.0</ele><time>2026-05-02T10:52:27.251Z</time></trkpt><trkpt lat="43.0702897" lon="11.4129105"><ele>495.0</ele><time>2026-05-02T10:52:28.25Z</time></trkpt><trkpt lat="43.0702233" lon="11.412937"><ele>495.0</ele><time>2026-05-02T10:52:29.251Z</time></trkpt><trkpt lat="43.0701673" lon="11.4130023"><ele>495.0</ele><time>2026-05-02T10:52:30.25Z</time></trkpt><trkpt lat="43.0701182" lon="11.4131008"><ele>495.0</ele><time>2026-05-02T10:52:31.25Z</time></trkpt><trkpt lat="43.0700737" lon="11.4132163"><ele>495.0</ele><time>2026-05-02T10:52:32.251Z</time></trkpt><trkpt lat="43.0700315" lon="11.4133368"><ele>495.0</ele><time>2026-05-02T10:52:33.249Z</time></trkpt><trkpt lat="43.0699983" lon="11.4134592"><ele>495.0</ele><time>2026-05-02T10:52:34.251Z</time></trkpt><trkpt lat="43.0699842" lon="11.4135905"><ele>495.0</ele><time>2026-05-02T10:52:35.25Z</time></trkpt><trkpt lat="43.0699865" lon="11.4137312"><ele>495.0</ele><time>2026-05-02T10:52:36.25Z</time></trkpt><trkpt lat="43.0699983" lon="11.413877"><ele>495.0</ele><time>2026-05-02T10:52:37.25Z</time></trkpt><trkpt lat="43.0700117" lon="11.4140285"><ele>494.75</ele><time>2026-05-02T10:52:38.25Z</time></trkpt><trkpt lat="43.070019" lon="11.414185"><ele>494.5</ele><time>2026-05-02T10:52:39.25Z</time></trkpt><trkpt lat="43.070016" lon="11.4143388"><ele>494.25</ele><time>2026-05-02T10:52:40.251Z</time></trkpt><trkpt lat="43.0699933" lon="11.4144892"><ele>494.0</ele><time>2026-05-02T10:52:41.251Z</time></trkpt><trkpt lat="43.0699515" lon="11.414631"><ele>495.0</ele><time>2026-05-02T10:52:42.251Z</time></trkpt><trkpt lat="43.0698937" lon="11.4147607"><ele>496.0</ele><time>2026-05-02T10:52:43.248Z</time></trkpt><trkpt lat="43.0698237" lon="11.4148742"><ele>497.0</ele><time>2026-05-02T10:52:44.247Z</time></trkpt><trkpt lat="43.069738" lon="11.4149665"><ele>498.0</ele><time>2026-05-02T10:52:45.248Z</time></trkpt><trkpt lat="43.0696392" lon="11.4150455"><ele>499.0</ele><time>2026-05-02T10:52:46.251Z</time></trkpt><trkpt lat="43.06953" lon="11.4151277"><ele>499.0</ele><time>2026-05-02T10:52:47.251Z</time></trkpt><trkpt lat="43.0694187" lon="11.4152222"><ele>499.0</ele><time>2026-05-02T10:52:48.25Z</time></trkpt><trkpt lat="43.0693118" lon="11.4153255"><ele>499.0</ele><time>2026-05-02T10:52:49.252Z</time></trkpt><trkpt lat="43.0692108" lon="11.4154182"><ele>499.0</ele><time>2026-05-02T10:52:50.251Z</time></trkpt><trkpt lat="43.0691045" lon="11.4154865"><ele>496.25</ele><time>2026-05-02T10:52:51.25Z</time></trkpt><trkpt lat="43.0689863" lon="11.4155315"><ele>493.5</ele><time>2026-05-02T10:52:52.25Z</time></trkpt><trkpt lat="43.0688627" lon="11.415564"><ele>490.75</ele><time>2026-05-02T10:52:53.252Z</time></trkpt><trkpt lat="43.0687428" lon="11.4156077"><ele>488.0</ele><time>2026-05-02T10:52:54.253Z</time></trkpt><trkpt lat="43.0686317" lon="11.4156713"><ele>488.0</ele><time>2026-05-02T10:52:55.251Z</time></trkpt><trkpt lat="43.0685253" lon="11.4157613"><ele>488.0</ele><time>2026-05-02T10:52:56.252Z</time></trkpt><trkpt lat="43.0684205" lon="11.4158765"><ele>488.0</ele><time>2026-05-02T10:52:57.251Z</time></trkpt><trkpt lat="43.0683157" lon="11.4159995"><ele>488.0</ele><time>2026-05-02T10:52:58.252Z</time></trkpt><trkpt lat="43.068205" lon="11.4161215"><ele>487.75</ele><time>2026-05-02T10:52:59.253Z</time></trkpt><trkpt lat="43.0680885" lon="11.4162282"><ele>487.5</ele><time>2026-05-02T10:53:00.252Z</time></trkpt><trkpt lat="43.0679733" lon="11.4163145"><ele>487.25</ele><time>2026-05-02T10:53:01.25Z</time></trkpt><trkpt lat="43.0678727" lon="11.4163923"><ele>487.0</ele><time>2026-05-02T10:53:02.249Z</time></trkpt><trkpt lat="43.067796" lon="11.416482"><ele>489.0</ele><time>2026-05-02T10:53:03.251Z</time></trkpt><trkpt lat="43.0677412" lon="11.4165853"><ele>491.00000000000006</ele><time>2026-05-02T10:53:04.252Z</time></trkpt><trkpt lat="43.0677017" lon="11.4167012"><ele>493.00000000000006</ele><time>2026-05-02T10:53:05.251Z</time></trkpt><trkpt lat="43.0676685" lon="11.416831"><ele>495.0</ele><time>2026-05-02T10:53:06.253Z</time></trkpt><trkpt lat="43.0676248" lon="11.4169683"><ele>497.0</ele><time>2026-05-02T10:53:07.252Z</time></trkpt><trkpt lat="43.067559" lon="11.4171028"><ele>496.25</ele><time>2026-05-02T10:53:08.252Z</time></trkpt><trkpt lat="43.067481" lon="11.4172352"><ele>495.5</ele><time>2026-05-02T10:53:09.248Z</time></trkpt><trkpt lat="43.0674032" lon="11.4173563"><ele>494.75</ele><time>2026-05-02T10:53:10.248Z</time></trkpt><trkpt lat="43.0673208" lon="11.4174578"><ele>494.0</ele><time>2026-05-02T10:53:11.248Z</time></trkpt><trkpt lat="43.0672317" lon="11.417537"><ele>496.0</ele><time>2026-05-02T10:53:12.249Z</time></trkpt><trkpt lat="43.0671352" lon="11.4175912"><ele>498.0</ele><time>2026-05-02T10:53:13.251Z</time></trkpt><trkpt lat="43.0670313" lon="11.417629"><ele>500.0</ele><time>2026-05-02T10:53:14.25Z</time></trkpt><trkpt lat="43.0669347" lon="11.4176685"><ele>502.0</ele><time>2026-05-02T10:53:15.251Z</time></trkpt><trkpt lat="43.0668533" lon="11.4177235"><ele>504.0</ele><time>2026-05-02T10:53:16.249Z</time></trkpt><trkpt lat="43.0667902" lon="11.4178028"><ele>504.0</ele><time>2026-05-02T10:53:17.248Z</time></trkpt><trkpt lat="43.066738" lon="11.4179098"><ele>504.0</ele><time>2026-05-02T10:53:18.249Z</time></trkpt><trkpt lat="43.066693" lon="11.4180368"><ele>504.0</ele><time>2026-05-02T10:53:19.25Z</time></trkpt><trkpt lat="43.0666522" lon="11.4181765"><ele>504.0</ele><time>2026-05-02T10:53:20.25Z</time></trkpt><trkpt lat="43.0666162" lon="11.4183262"><ele>504.0</ele><time>2026-05-02T10:53:21.25Z</time></trkpt><trkpt lat="43.066588" lon="11.4184818"><ele>500.0</ele><time>2026-05-02T10:53:22.251Z</time></trkpt><trkpt lat="43.0665692" lon="11.4186427"><ele>496.0</ele><time>2026-05-02T10:53:23.25Z</time></trkpt><trkpt lat="43.0665578" lon="11.4188067"><ele>492.0</ele><time>2026-05-02T10:53:24.252Z</time></trkpt><trkpt lat="43.0665547" lon="11.4189728"><ele>488.0</ele><time>2026-05-02T10:53:25.249Z</time></trkpt><trkpt lat="43.066557" lon="11.4191392"><ele>487.25</ele><time>2026-05-02T10:53:26.25Z</time></trkpt><trkpt lat="43.0665633" lon="11.4193005"><ele>486.5</ele><time>2026-05-02T10:53:27.25Z</time></trkpt><trkpt lat="43.0665702" lon="11.4194608"><ele>485.75</ele><time>2026-05-02T10:53:28.249Z</time></trkpt><trkpt lat="43.0665748" lon="11.4196173"><ele>485.0</ele><time>2026-05-02T10:53:29.248Z</time></trkpt><trkpt lat="43.066574" lon="11.4197697"><ele>485.0</ele><time>2026-05-02T10:53:30.247Z</time></trkpt><trkpt lat="43.0665553" lon="11.419912"><ele>485.0</ele><time>2026-05-02T10:53:31.248Z</time></trkpt><trkpt lat="43.0665102" lon="11.4200498"><ele>485.0</ele><time>2026-05-02T10:53:32.252Z</time></trkpt><trkpt lat="43.0664445" lon="11.4201825"><ele>485.0</ele><time>2026-05-02T10:53:33.248Z</time></trkpt><trkpt lat="43.0663728" lon="11.4203202"><ele>485.0</ele><time>2026-05-02T10:53:34.252Z</time></trkpt><trkpt lat="43.0663045" lon="11.4204735"><ele>485.0</ele><time>2026-05-02T10:53:35.248Z</time></trkpt><trkpt lat="43.0662377" lon="11.4206373"><ele>485.0</ele><time>2026-05-02T10:53:36.248Z</time></trkpt><trkpt lat="43.0661603" lon="11.4208008"><ele>485.0</ele><time>2026-05-02T10:53:37.251Z</time></trkpt><trkpt lat="43.0660743" lon="11.4209563"><ele>485.25</ele><time>2026-05-02T10:53:38.252Z</time></trkpt><trkpt lat="43.0659888" lon="11.4211053"><ele>485.5</ele><time>2026-05-02T10:53:39.251Z</time></trkpt><trkpt lat="43.0659043" lon="11.4212578"><ele>485.75</ele><time>2026-05-02T10:53:40.251Z</time></trkpt><trkpt lat="43.0658263" lon="11.4214093"><ele>486.0</ele><time>2026-05-02T10:53:41.252Z</time></trkpt><trkpt lat="43.065755" lon="11.4215565"><ele>486.0</ele><time>2026-05-02T10:53:42.251Z</time></trkpt><trkpt lat="43.0656818" lon="11.4216933"><ele>486.0</ele><time>2026-05-02T10:53:43.25Z</time></trkpt><trkpt lat="43.0655937" lon="11.4218108"><ele>486.0</ele><time>2026-05-02T10:53:44.252Z</time></trkpt><trkpt lat="43.0654902" lon="11.4219132"><ele>486.0</ele><time>2026-05-02T10:53:45.251Z</time></trkpt><trkpt lat="43.0653888" lon="11.4220067"><ele>486.0</ele><time>2026-05-02T10:53:46.25Z</time></trkpt><trkpt lat="43.0652962" lon="11.422093"><ele>486.0</ele><time>2026-05-02T10:53:47.251Z</time></trkpt><trkpt lat="43.0652125" lon="11.42216"><ele>486.0</ele><time>2026-05-02T10:53:48.251Z</time></trkpt><trkpt lat="43.0651333" lon="11.422201"><ele>486.0</ele><time>2026-05-02T10:53:49.25Z</time></trkpt><trkpt lat="43.0650508" lon="11.4222235"><ele>486.0</ele><time>2026-05-02T10:53:50.25Z</time></trkpt><trkpt lat="43.0649585" lon="11.4222382"><ele>486.0</ele><time>2026-05-02T10:53:51.25Z</time></trkpt><trkpt lat="43.064858" lon="11.4222472"><ele>486.0</ele><time>2026-05-02T10:53:52.25Z</time></trkpt><trkpt lat="43.0647508" lon="11.422251"><ele>486.0</ele><time>2026-05-02T10:53:53.25Z</time></trkpt><trkpt lat="43.0646385" lon="11.4222448"><ele>486.0</ele><time>2026-05-02T10:53:54.25Z</time></trkpt><trkpt lat="43.0645212" lon="11.4222193"><ele>486.0</ele><time>2026-05-02T10:53:55.25Z</time></trkpt><trkpt lat="43.064401" lon="11.4221757"><ele>484.6</ele><time>2026-05-02T10:53:56.251Z</time></trkpt><trkpt lat="43.0642872" lon="11.4221235"><ele>483.20000000000005</ele><time>2026-05-02T10:53:57.248Z</time></trkpt><trkpt lat="43.0641827" lon="11.422067"><ele>481.79999999999995</ele><time>2026-05-02T10:53:58.247Z</time></trkpt><trkpt lat="43.0640868" lon="11.422011"><ele>480.4</ele><time>2026-05-02T10:53:59.249Z</time></trkpt><trkpt lat="43.0639898" lon="11.421978"><ele>479.0</ele><time>2026-05-02T10:54:00.25Z</time></trkpt><trkpt lat="43.063887" lon="11.421977"><ele>477.6</ele><time>2026-05-02T10:54:01.25Z</time></trkpt><trkpt lat="43.0637857" lon="11.4219953"><ele>476.2</ele><time>2026-05-02T10:54:02.252Z</time></trkpt><trkpt lat="43.0636898" lon="11.4220118"><ele>474.80000000000007</ele><time>2026-05-02T10:54:03.251Z</time></trkpt><trkpt lat="43.063609" lon="11.4220347"><ele>473.40000000000003</ele><time>2026-05-02T10:54:04.254Z</time></trkpt><trkpt lat="43.0635492" lon="11.4220742"><ele>472.0</ele><time>2026-05-02T10:54:05.253Z</time></trkpt><trkpt lat="43.063493" lon="11.4222242"><ele>472.00000000000006</ele><time>2026-05-02T10:54:07.253Z</time></trkpt><trkpt lat="43.0634938" lon="11.4223313"><ele>472.0</ele><time>2026-05-02T10:54:08.252Z</time></trkpt><trkpt lat="43.0635153" lon="11.4224485"><ele>472.0</ele><time>2026-05-02T10:54:09.249Z</time></trkpt><trkpt lat="43.0635445" lon="11.4225702"><ele>472.0</ele><time>2026-05-02T10:54:10.25Z</time></trkpt><trkpt lat="43.0635603" lon="11.4226922"><ele>472.00000000000006</ele><time>2026-05-02T10:54:11.249Z</time></trkpt><trkpt lat="43.06355" lon="11.4228262"><ele>472.0</ele><time>2026-05-02T10:54:12.249Z</time></trkpt><trkpt lat="43.0635138" lon="11.4229672"><ele>471.40000000000003</ele><time>2026-05-02T10:54:13.249Z</time></trkpt><trkpt lat="43.0634583" lon="11.4231017"><ele>470.80000000000007</ele><time>2026-05-02T10:54:14.251Z</time></trkpt><trkpt lat="43.0634062" lon="11.423228"><ele>470.2</ele><time>2026-05-02T10:54:15.25Z</time></trkpt><trkpt lat="43.0633677" lon="11.423349"><ele>469.6</ele><time>2026-05-02T10:54:16.254Z</time></trkpt><trkpt lat="43.063346" lon="11.4234675"><ele>469.0</ele><time>2026-05-02T10:54:17.252Z</time></trkpt><trkpt lat="43.063343" lon="11.4235835"><ele>469.00000000000006</ele><time>2026-05-02T10:54:18.25Z</time></trkpt><trkpt lat="43.0633595" lon="11.4237022"><ele>469.0</ele><time>2026-05-02T10:54:19.251Z</time></trkpt><trkpt lat="43.0633837" lon="11.4238145"><ele>469.0</ele><time>2026-05-02T10:54:20.251Z</time></trkpt><trkpt lat="43.0634015" lon="11.423925"><ele>469.0</ele><time>2026-05-02T10:54:21.254Z</time></trkpt><trkpt lat="43.0634053" lon="11.4240363"><ele>469.00000000000006</ele><time>2026-05-02T10:54:22.249Z</time></trkpt><trkpt lat="43.0633877" lon="11.424151"><ele>469.0</ele><time>2026-05-02T10:54:23.252Z</time></trkpt><trkpt lat="43.0633517" lon="11.4242697"><ele>468.2</ele><time>2026-05-02T10:54:24.249Z</time></trkpt><trkpt lat="43.0633125" lon="11.4244017"><ele>467.4</ele><time>2026-05-02T10:54:25.248Z</time></trkpt><trkpt lat="43.0632805" lon="11.4245445"><ele>466.6</ele><time>2026-05-02T10:54:26.252Z</time></trkpt><trkpt lat="43.0632595" lon="11.4246865"><ele>465.8</ele><time>2026-05-02T10:54:27.254Z</time></trkpt><trkpt lat="43.0632418" lon="11.4248282"><ele>465.0</ele><time>2026-05-02T10:54:28.25Z</time></trkpt><trkpt lat="43.0632153" lon="11.4249675"><ele>465.25</ele><time>2026-05-02T10:54:29.251Z</time></trkpt><trkpt lat="43.0631683" lon="11.4251027"><ele>465.5</ele><time>2026-05-02T10:54:30.251Z</time></trkpt><trkpt lat="43.063103" lon="11.4252323"><ele>465.75</ele><time>2026-05-02T10:54:31.251Z</time></trkpt><trkpt lat="43.063029" lon="11.4253653"><ele>466.0</ele><time>2026-05-02T10:54:32.252Z</time></trkpt><trkpt lat="43.0629562" lon="11.4255012"><ele>466.0</ele><time>2026-05-02T10:54:33.25Z</time></trkpt><trkpt lat="43.0629" lon="11.4256382"><ele>466.0</ele><time>2026-05-02T10:54:34.25Z</time></trkpt><trkpt lat="43.0628632" lon="11.4257847"><ele>466.0</ele><time>2026-05-02T10:54:35.249Z</time></trkpt><trkpt lat="43.0628438" lon="11.425938"><ele>466.0</ele><time>2026-05-02T10:54:36.251Z</time></trkpt><trkpt lat="43.0628402" lon="11.4260898"><ele>466.0</ele><time>2026-05-02T10:54:37.25Z</time></trkpt><trkpt lat="43.0628425" lon="11.4262415"><ele>466.0</ele><time>2026-05-02T10:54:38.25Z</time></trkpt><trkpt lat="43.06285" lon="11.4264005"><ele>466.0</ele><time>2026-05-02T10:54:39.25Z</time></trkpt><trkpt lat="43.062867" lon="11.4265627"><ele>466.0</ele><time>2026-05-02T10:54:40.248Z</time></trkpt><trkpt lat="43.0628883" lon="11.4267142"><ele>466.0</ele><time>2026-05-02T10:54:41.249Z</time></trkpt><trkpt lat="43.0629077" lon="11.4268517"><ele>466.0</ele><time>2026-05-02T10:54:42.249Z</time></trkpt><trkpt lat="43.0629108" lon="11.426976"><ele>466.0</ele><time>2026-05-02T10:54:43.255Z</time></trkpt><trkpt lat="43.0628888" lon="11.4270895"><ele>466.0</ele><time>2026-05-02T10:54:44.252Z</time></trkpt><trkpt lat="43.062841" lon="11.427196"><ele>466.0</ele><time>2026-05-02T10:54:45.25Z</time></trkpt><trkpt lat="43.0627727" lon="11.4272922"><ele>466.0</ele><time>2026-05-02T10:54:46.248Z</time></trkpt><trkpt lat="43.0626862" lon="11.42737"><ele>466.0</ele><time>2026-05-02T10:54:47.248Z</time></trkpt><trkpt lat="43.0625918" lon="11.4274253"><ele>466.0</ele><time>2026-05-02T10:54:48.247Z</time></trkpt><trkpt lat="43.0624958" lon="11.4274672"><ele>466.0</ele><time>2026-05-02T10:54:49.252Z</time></trkpt><trkpt lat="43.0623958" lon="11.4275105"><ele>466.0</ele><time>2026-05-02T10:54:50.249Z</time></trkpt><trkpt lat="43.0622988" lon="11.4275543"><ele>466.6666666666667</ele><time>2026-05-02T10:54:51.25Z</time></trkpt><trkpt lat="43.0622013" lon="11.4275885"><ele>467.33333333333337</ele><time>2026-05-02T10:54:52.251Z</time></trkpt><trkpt lat="43.0621068" lon="11.4276125"><ele>468.0</ele><time>2026-05-02T10:54:53.255Z</time></trkpt><trkpt lat="43.0620212" lon="11.4276227"><ele>468.66666666666663</ele><time>2026-05-02T10:54:54.252Z</time></trkpt><trkpt lat="43.0619447" lon="11.4276163"><ele>469.3333333333333</ele><time>2026-05-02T10:54:55.252Z</time></trkpt><trkpt lat="43.0618733" lon="11.4275937"><ele>470.0</ele><time>2026-05-02T10:54:56.254Z</time></trkpt><trkpt lat="43.0618092" lon="11.4275622"><ele>470.0</ele><time>2026-05-02T10:54:57.253Z</time></trkpt><trkpt lat="43.061748" lon="11.4275278"><ele>469.99999999999994</ele><time>2026-05-02T10:54:58.254Z</time></trkpt><trkpt lat="43.0616897" lon="11.4274878"><ele>470.0</ele><time>2026-05-02T10:54:59.252Z</time></trkpt><trkpt lat="43.0616292" lon="11.4274425"><ele>470.0</ele><time>2026-05-02T10:55:00.253Z</time></trkpt><trkpt lat="43.0615658" lon="11.4274055"><ele>469.99999999999994</ele><time>2026-05-02T10:55:01.254Z</time></trkpt><trkpt lat="43.0615002" lon="11.4273838"><ele>470.0</ele><time>2026-05-02T10:55:02.254Z</time></trkpt><trkpt lat="43.0614333" lon="11.4273767"><ele>470.0</ele><time>2026-05-02T10:55:03.254Z</time></trkpt><trkpt lat="43.0613692" lon="11.4273775"><ele>470.16666666666663</ele><time>2026-05-02T10:55:04.252Z</time></trkpt><trkpt lat="43.0612682" lon="11.4273935"><ele>470.3333333333333</ele><time>2026-05-02T10:55:06.251Z</time></trkpt><trkpt lat="43.0611942" lon="11.4274207"><ele>470.5</ele><time>2026-05-02T10:55:08.252Z</time></trkpt><trkpt lat="43.0611215" lon="11.4274483"><ele>470.66666666666663</ele><time>2026-05-02T10:55:11.248Z</time></trkpt><trkpt lat="43.0610367" lon="11.4274758"><ele>470.8333333333333</ele><time>2026-05-02T10:55:22.252Z</time></trkpt><trkpt lat="43.0609417" lon="11.42752"><ele>471.0</ele><time>2026-05-02T10:55:25.25Z</time></trkpt><trkpt lat="43.0608412" lon="11.4275067"><ele>472.6</ele><time>2026-05-02T10:55:27.252Z</time></trkpt><trkpt lat="43.0607372" lon="11.4274657"><ele>474.20000000000005</ele><time>2026-05-02T10:55:29.252Z</time></trkpt><trkpt lat="43.0606642" lon="11.4274152"><ele>475.79999999999995</ele><time>2026-05-02T10:55:31.251Z</time></trkpt><trkpt lat="43.0606057" lon="11.4273623"><ele>477.4</ele><time>2026-05-02T10:57:23.251Z</time></trkpt><trkpt lat="43.060498" lon="11.4272725"><ele>479.0</ele><time>2026-05-02T10:57:26.25Z</time></trkpt><trkpt lat="43.0604162" lon="11.4272603"><ele>479.0</ele><time>2026-05-02T10:57:28.251Z</time></trkpt><trkpt lat="43.0603448" lon="11.4273358"><ele>479.0</ele><time>2026-05-02T10:57:49.251Z</time></trkpt><trkpt lat="43.0603198" lon="11.427455"><ele>479.0</ele><time>2026-05-02T10:57:51.249Z</time></trkpt><trkpt lat="43.0603135" lon="11.427592"><ele>479.0</ele><time>2026-05-02T10:57:53.25Z</time></trkpt><trkpt lat="43.0602502" lon="11.4277235"><ele>479.0</ele><time>2026-05-02T10:57:55.25Z</time></trkpt><trkpt lat="43.0601937" lon="11.4277733"><ele>479.0</ele><time>2026-05-02T10:57:56.249Z</time></trkpt><trkpt lat="43.0601298" lon="11.4278115"><ele>479.0</ele><time>2026-05-02T10:57:57.249Z</time></trkpt><trkpt lat="43.0600665" lon="11.4278485"><ele>479.0</ele><time>2026-05-02T10:57:58.252Z</time></trkpt><trkpt lat="43.0599547" lon="11.4279042"><ele>479.0</ele><time>2026-05-02T10:58:00.253Z</time></trkpt><trkpt lat="43.0598267" lon="11.4278923"><ele>479.0</ele><time>2026-05-02T10:58:02.25Z</time></trkpt><trkpt lat="43.0597658" lon="11.427851"><ele>479.8333333333333</ele><time>2026-05-02T10:58:03.248Z</time></trkpt><trkpt lat="43.0597108" lon="11.4277872"><ele>480.66666666666663</ele><time>2026-05-02T10:58:04.248Z</time></trkpt><trkpt lat="43.0596563" lon="11.4277095"><ele>481.5</ele><time>2026-05-02T10:58:05.248Z</time></trkpt><trkpt lat="43.0595957" lon="11.4276245"><ele>482.33333333333337</ele><time>2026-05-02T10:58:06.248Z</time></trkpt><trkpt lat="43.0595292" lon="11.4275297"><ele>483.1666666666667</ele><time>2026-05-02T10:58:07.249Z</time></trkpt><trkpt lat="43.059459" lon="11.4274305"><ele>484.0</ele><time>2026-05-02T10:58:08.251Z</time></trkpt><trkpt lat="43.0593898" lon="11.4273468"><ele>484.00000000000006</ele><time>2026-05-02T10:58:09.248Z</time></trkpt><trkpt lat="43.0593208" lon="11.4272922"><ele>484.0</ele><time>2026-05-02T10:58:10.251Z</time></trkpt><trkpt lat="43.0592503" lon="11.4272723"><ele>484.0</ele><time>2026-05-02T10:58:11.247Z</time></trkpt><trkpt lat="43.0591808" lon="11.4272838"><ele>484.0</ele><time>2026-05-02T10:58:12.247Z</time></trkpt><trkpt lat="43.059114" lon="11.4273273"><ele>484.00000000000006</ele><time>2026-05-02T10:58:13.25Z</time></trkpt><trkpt lat="43.0590648" lon="11.4273922"><ele>484.0</ele><time>2026-05-02T10:58:14.25Z</time></trkpt><trkpt lat="43.0590435" lon="11.4275657"><ele>484.00000000000006</ele><time>2026-05-02T10:58:16.251Z</time></trkpt><trkpt lat="43.0590652" lon="11.4276668"><ele>484.0</ele><time>2026-05-02T10:58:17.251Z</time></trkpt><trkpt lat="43.059102" lon="11.427778"><ele>484.0</ele><time>2026-05-02T10:58:18.249Z</time></trkpt><trkpt lat="43.0591453" lon="11.4278965"><ele>484.0</ele><time>2026-05-02T10:58:19.249Z</time></trkpt><trkpt lat="43.0591828" lon="11.4280205"><ele>484.00000000000006</ele><time>2026-05-02T10:58:20.249Z</time></trkpt><trkpt lat="43.059205" lon="11.4281348"><ele>484.0</ele><time>2026-05-02T10:58:21.249Z</time></trkpt><trkpt lat="43.0592002" lon="11.4282315"><ele>485.4</ele><time>2026-05-02T10:58:22.25Z</time></trkpt><trkpt lat="43.0591173" lon="11.42835"><ele>486.79999999999995</ele><time>2026-05-02T10:58:24.25Z</time></trkpt><trkpt lat="43.059043" lon="11.4283813"><ele>488.20000000000005</ele><time>2026-05-02T10:58:25.25Z</time></trkpt><trkpt lat="43.0589628" lon="11.4284113"><ele>489.6</ele><time>2026-05-02T10:58:26.249Z</time></trkpt><trkpt lat="43.0588878" lon="11.4284588"><ele>491.0</ele><time>2026-05-02T10:58:27.247Z</time></trkpt><trkpt lat="43.0588187" lon="11.4285303"><ele>491.0</ele><time>2026-05-02T10:58:28.247Z</time></trkpt><trkpt lat="43.0587483" lon="11.428621"><ele>491.0</ele><time>2026-05-02T10:58:29.248Z</time></trkpt><trkpt lat="43.0586823" lon="11.4287263"><ele>491.0</ele><time>2026-05-02T10:58:30.247Z</time></trkpt><trkpt lat="43.0586238" lon="11.4288477"><ele>491.0</ele><time>2026-05-02T10:58:31.25Z</time></trkpt><trkpt lat="43.058574" lon="11.4289817"><ele>491.0</ele><time>2026-05-02T10:58:32.25Z</time></trkpt><trkpt lat="43.0585242" lon="11.4291223"><ele>489.75</ele><time>2026-05-02T10:58:33.249Z</time></trkpt><trkpt lat="43.058474" lon="11.4292668"><ele>488.5</ele><time>2026-05-02T10:58:34.253Z</time></trkpt><trkpt lat="43.0584298" lon="11.4294192"><ele>487.25</ele><time>2026-05-02T10:58:35.252Z</time></trkpt><trkpt lat="43.0583927" lon="11.4295802"><ele>486.0</ele><time>2026-05-02T10:58:36.25Z</time></trkpt><trkpt lat="43.0583595" lon="11.429742"><ele>486.0</ele><time>2026-05-02T10:58:37.249Z</time></trkpt><trkpt lat="43.0583308" lon="11.4298907"><ele>486.0</ele><time>2026-05-02T10:58:38.25Z</time></trkpt><trkpt lat="43.0583087" lon="11.4300218"><ele>486.0</ele><time>2026-05-02T10:58:39.251Z</time></trkpt><trkpt lat="43.0582963" lon="11.4301433"><ele>486.0</ele><time>2026-05-02T10:58:40.252Z</time></trkpt><trkpt lat="43.0582902" lon="11.4302598"><ele>486.0</ele><time>2026-05-02T10:58:41.254Z</time></trkpt><trkpt lat="43.0582933" lon="11.430383"><ele>485.8333333333333</ele><time>2026-05-02T10:58:42.254Z</time></trkpt><trkpt lat="43.0583013" lon="11.4305087"><ele>485.66666666666663</ele><time>2026-05-02T10:58:43.249Z</time></trkpt><trkpt lat="43.058302" lon="11.4306293"><ele>485.5</ele><time>2026-05-02T10:58:44.252Z</time></trkpt><trkpt lat="43.058287" lon="11.4307442"><ele>485.3333333333333</ele><time>2026-05-02T10:58:45.251Z</time></trkpt><trkpt lat="43.0582488" lon="11.4308517"><ele>485.16666666666663</ele><time>2026-05-02T10:58:46.252Z</time></trkpt><trkpt lat="43.0581847" lon="11.4309387"><ele>485.0</ele><time>2026-05-02T10:58:47.251Z</time></trkpt><trkpt lat="43.0581015" lon="11.4310093"><ele>483.75</ele><time>2026-05-02T10:58:48.25Z</time></trkpt><trkpt lat="43.0580035" lon="11.4310755"><ele>482.5</ele><time>2026-05-02T10:58:49.252Z</time></trkpt><trkpt lat="43.0578975" lon="11.4311448"><ele>481.25</ele><time>2026-05-02T10:58:50.251Z</time></trkpt><trkpt lat="43.0577897" lon="11.4312178"><ele>480.0</ele><time>2026-05-02T10:58:51.248Z</time></trkpt><trkpt lat="43.057683" lon="11.4312912"><ele>482.0</ele><time>2026-05-02T10:58:52.247Z</time></trkpt><trkpt lat="43.0575838" lon="11.4313742"><ele>484.0</ele><time>2026-05-02T10:58:53.249Z</time></trkpt><trkpt lat="43.0574938" lon="11.4314725"><ele>486.0</ele><time>2026-05-02T10:58:54.249Z</time></trkpt><trkpt lat="43.0574098" lon="11.431577"><ele>488.0</ele><time>2026-05-02T10:58:55.249Z</time></trkpt><trkpt lat="43.0573295" lon="11.4316788"><ele>488.2</ele><time>2026-05-02T10:58:56.252Z</time></trkpt><trkpt lat="43.057258" lon="11.431781"><ele>488.4</ele><time>2026-05-02T10:58:57.252Z</time></trkpt><trkpt lat="43.0571967" lon="11.4318813"><ele>488.59999999999997</ele><time>2026-05-02T10:58:58.254Z</time></trkpt><trkpt lat="43.0571415" lon="11.4319818"><ele>488.79999999999995</ele><time>2026-05-02T10:58:59.256Z</time></trkpt><trkpt lat="43.0570878" lon="11.4320853"><ele>489.0</ele><time>2026-05-02T10:59:00.252Z</time></trkpt><trkpt lat="43.0570335" lon="11.4321917"><ele>489.6</ele><time>2026-05-02T10:59:01.254Z</time></trkpt><trkpt lat="43.0569783" lon="11.4323002"><ele>490.2</ele><time>2026-05-02T10:59:02.254Z</time></trkpt><trkpt lat="43.0569207" lon="11.4324083"><ele>490.80000000000007</ele><time>2026-05-02T10:59:03.252Z</time></trkpt><trkpt lat="43.0568583" lon="11.4325167"><ele>491.40000000000003</ele><time>2026-05-02T10:59:04.253Z</time></trkpt><trkpt lat="43.0567897" lon="11.4326227"><ele>492.0</ele><time>2026-05-02T10:59:05.253Z</time></trkpt><trkpt lat="43.0567167" lon="11.4327237"><ele>492.0</ele><time>2026-05-02T10:59:06.251Z</time></trkpt><trkpt lat="43.0566462" lon="11.4328268"><ele>492.00000000000006</ele><time>2026-05-02T10:59:07.249Z</time></trkpt><trkpt lat="43.0565805" lon="11.432933"><ele>492.00000000000006</ele><time>2026-05-02T10:59:08.249Z</time></trkpt><trkpt lat="43.0565163" lon="11.4330297"><ele>492.0</ele><time>2026-05-02T10:59:09.249Z</time></trkpt><trkpt lat="43.0564418" lon="11.4331095"><ele>492.0</ele><time>2026-05-02T10:59:10.251Z</time></trkpt><trkpt lat="43.0563507" lon="11.433176"><ele>493.25</ele><time>2026-05-02T10:59:11.252Z</time></trkpt><trkpt lat="43.0562448" lon="11.4332352"><ele>494.5</ele><time>2026-05-02T10:59:12.254Z</time></trkpt><trkpt lat="43.0561302" lon="11.433289"><ele>495.75</ele><time>2026-05-02T10:59:13.254Z</time></trkpt><trkpt lat="43.0560117" lon="11.4333353"><ele>497.0</ele><time>2026-05-02T10:59:14.252Z</time></trkpt><trkpt lat="43.0558955" lon="11.4333765"><ele>497.0</ele><time>2026-05-02T10:59:15.25Z</time></trkpt><trkpt lat="43.055789" lon="11.4334138"><ele>497.00000000000006</ele><time>2026-05-02T10:59:16.249Z</time></trkpt><trkpt lat="43.0556893" lon="11.4334563"><ele>497.00000000000006</ele><time>2026-05-02T10:59:17.248Z</time></trkpt><trkpt lat="43.0555922" lon="11.4335112"><ele>497.0</ele><time>2026-05-02T10:59:18.246Z</time></trkpt><trkpt lat="43.0554975" lon="11.4335715"><ele>497.0</ele><time>2026-05-02T10:59:19.248Z</time></trkpt><trkpt lat="43.0553993" lon="11.4336273"><ele>496.8</ele><time>2026-05-02T10:59:20.251Z</time></trkpt><trkpt lat="43.0552952" lon="11.4336727"><ele>496.6</ele><time>2026-05-02T10:59:21.249Z</time></trkpt><trkpt lat="43.0551858" lon="11.4337063"><ele>496.40000000000003</ele><time>2026-05-02T10:59:22.249Z</time></trkpt><trkpt lat="43.055075" lon="11.4337407"><ele>496.20000000000005</ele><time>2026-05-02T10:59:23.25Z</time></trkpt><trkpt lat="43.0549677" lon="11.4337893"><ele>496.0</ele><time>2026-05-02T10:59:24.25Z</time></trkpt><trkpt lat="43.054863" lon="11.4338542"><ele>493.5</ele><time>2026-05-02T10:59:25.251Z</time></trkpt><trkpt lat="43.0547582" lon="11.4339255"><ele>491.0</ele><time>2026-05-02T10:59:26.252Z</time></trkpt><trkpt lat="43.0546507" lon="11.433993"><ele>488.5</ele><time>2026-05-02T10:59:27.251Z</time></trkpt><trkpt lat="43.0545448" lon="11.4340528"><ele>486.0</ele><time>2026-05-02T10:59:28.252Z</time></trkpt><trkpt lat="43.0544383" lon="11.4341125"><ele>486.0</ele><time>2026-05-02T10:59:29.253Z</time></trkpt><trkpt lat="43.054329" lon="11.4341677"><ele>486.0</ele><time>2026-05-02T10:59:30.253Z</time></trkpt><trkpt lat="43.0542193" lon="11.4342162"><ele>486.0</ele><time>2026-05-02T10:59:31.251Z</time></trkpt><trkpt lat="43.0541117" lon="11.434254"><ele>486.0</ele><time>2026-05-02T10:59:32.253Z</time></trkpt><trkpt lat="43.0540067" lon="11.4342812"><ele>485.6</ele><time>2026-05-02T10:59:33.252Z</time></trkpt><trkpt lat="43.0539042" lon="11.4343083"><ele>485.20000000000005</ele><time>2026-05-02T10:59:34.251Z</time></trkpt><trkpt lat="43.0538032" lon="11.4343438"><ele>484.79999999999995</ele><time>2026-05-02T10:59:35.253Z</time></trkpt><trkpt lat="43.0537073" lon="11.4343935"><ele>484.4</ele><time>2026-05-02T10:59:36.251Z</time></trkpt><trkpt lat="43.053621" lon="11.4344577"><ele>484.0</ele><time>2026-05-02T10:59:37.25Z</time></trkpt><trkpt lat="43.053542" lon="11.4345357"><ele>484.0</ele><time>2026-05-02T10:59:38.252Z</time></trkpt><trkpt lat="43.053468" lon="11.434628"><ele>484.0</ele><time>2026-05-02T10:59:39.251Z</time></trkpt><trkpt lat="43.0533967" lon="11.4347355"><ele>484.0</ele><time>2026-05-02T10:59:40.25Z</time></trkpt><trkpt lat="43.053333" lon="11.4348533"><ele>484.0</ele><time>2026-05-02T10:59:41.249Z</time></trkpt><trkpt lat="43.05328" lon="11.4349787"><ele>484.0</ele><time>2026-05-02T10:59:42.248Z</time></trkpt><trkpt lat="43.053235" lon="11.4351133"><ele>482.25</ele><time>2026-05-02T10:59:43.248Z</time></trkpt><trkpt lat="43.0531902" lon="11.4352575"><ele>480.5</ele><time>2026-05-02T10:59:44.249Z</time></trkpt><trkpt lat="43.0531507" lon="11.435413"><ele>478.75</ele><time>2026-05-02T10:59:45.249Z</time></trkpt><trkpt lat="43.0531213" lon="11.435579"><ele>477.0</ele><time>2026-05-02T10:59:46.249Z</time></trkpt><trkpt lat="43.0530993" lon="11.4357435"><ele>475.20000000000005</ele><time>2026-05-02T10:59:47.252Z</time></trkpt><trkpt lat="43.0530822" lon="11.4358992"><ele>473.40000000000003</ele><time>2026-05-02T10:59:48.251Z</time></trkpt><trkpt lat="43.0530647" lon="11.4360438"><ele>471.59999999999997</ele><time>2026-05-02T10:59:49.251Z</time></trkpt><trkpt lat="43.0530432" lon="11.4361788"><ele>469.79999999999995</ele><time>2026-05-02T10:59:50.252Z</time></trkpt><trkpt lat="43.0530123" lon="11.4363117"><ele>468.0</ele><time>2026-05-02T10:59:51.252Z</time></trkpt><trkpt lat="43.0529662" lon="11.4364397"><ele>468.0</ele><time>2026-05-02T10:59:52.254Z</time></trkpt><trkpt lat="43.0529045" lon="11.4365573"><ele>467.99999999999994</ele><time>2026-05-02T10:59:53.252Z</time></trkpt><trkpt lat="43.0528285" lon="11.4366595"><ele>467.99999999999994</ele><time>2026-05-02T10:59:54.249Z</time></trkpt><trkpt lat="43.0527435" lon="11.4367377"><ele>468.0</ele><time>2026-05-02T10:59:55.251Z</time></trkpt><trkpt lat="43.0526528" lon="11.4367865"><ele>468.0</ele><time>2026-05-02T10:59:56.249Z</time></trkpt><trkpt lat="43.0525578" lon="11.4368013"><ele>468.0</ele><time>2026-05-02T10:59:57.25Z</time></trkpt><trkpt lat="43.0524632" lon="11.436787"><ele>467.99999999999994</ele><time>2026-05-02T10:59:58.25Z</time></trkpt><trkpt lat="43.0523677" lon="11.4367607"><ele>467.99999999999994</ele><time>2026-05-02T10:59:59.25Z</time></trkpt><trkpt lat="43.0522685" lon="11.4367477"><ele>468.0</ele><time>2026-05-02T11:00:00.25Z</time></trkpt><trkpt lat="43.0521658" lon="11.4367567"><ele>468.0</ele><time>2026-05-02T11:00:01.249Z</time></trkpt><trkpt lat="43.052058" lon="11.4367827"><ele>468.2</ele><time>2026-05-02T11:00:02.249Z</time></trkpt><trkpt lat="43.051947" lon="11.4368143"><ele>468.4</ele><time>2026-05-02T11:00:03.251Z</time></trkpt><trkpt lat="43.051842" lon="11.436844"><ele>468.59999999999997</ele><time>2026-05-02T11:00:04.253Z</time></trkpt><trkpt lat="43.0517462" lon="11.4368747"><ele>468.79999999999995</ele><time>2026-05-02T11:00:05.249Z</time></trkpt><trkpt lat="43.0516633" lon="11.43691"><ele>469.0</ele><time>2026-05-02T11:00:06.25Z</time></trkpt><trkpt lat="43.0515923" lon="11.4369597"><ele>469.2</ele><time>2026-05-02T11:00:07.249Z</time></trkpt><trkpt lat="43.051528" lon="11.4370352"><ele>469.4</ele><time>2026-05-02T11:00:08.25Z</time></trkpt><trkpt lat="43.0514658" lon="11.4371353"><ele>469.6</ele><time>2026-05-02T11:00:09.251Z</time></trkpt><trkpt lat="43.0513972" lon="11.4372528"><ele>469.8</ele><time>2026-05-02T11:00:10.252Z</time></trkpt><trkpt lat="43.051316" lon="11.4373727"><ele>470.0</ele><time>2026-05-02T11:00:11.251Z</time></trkpt><trkpt lat="43.051215" lon="11.4374782"><ele>470.0</ele><time>2026-05-02T11:00:12.251Z</time></trkpt><trkpt lat="43.0511018" lon="11.4375745"><ele>470.0</ele><time>2026-05-02T11:00:13.249Z</time></trkpt><trkpt lat="43.0509842" lon="11.4376598"><ele>470.0</ele><time>2026-05-02T11:00:14.249Z</time></trkpt><trkpt lat="43.050871" lon="11.4377323"><ele>470.0</ele><time>2026-05-02T11:00:15.251Z</time></trkpt><trkpt lat="43.050768" lon="11.4377987"><ele>471.4</ele><time>2026-05-02T11:00:16.25Z</time></trkpt><trkpt lat="43.0506767" lon="11.4378692"><ele>472.8</ele><time>2026-05-02T11:00:17.25Z</time></trkpt><trkpt lat="43.0506017" lon="11.4379472"><ele>474.20000000000005</ele><time>2026-05-02T11:00:18.25Z</time></trkpt><trkpt lat="43.0505383" lon="11.4380408"><ele>475.6</ele><time>2026-05-02T11:00:19.25Z</time></trkpt><trkpt lat="43.0504908" lon="11.43815"><ele>477.0</ele><time>2026-05-02T11:00:20.255Z</time></trkpt><trkpt lat="43.0504638" lon="11.4382683"><ele>478.0</ele><time>2026-05-02T11:00:21.251Z</time></trkpt><trkpt lat="43.0504463" lon="11.4383933"><ele>479.00000000000006</ele><time>2026-05-02T11:00:22.252Z</time></trkpt><trkpt lat="43.0504272" lon="11.4385217"><ele>480.00000000000006</ele><time>2026-05-02T11:00:23.252Z</time></trkpt><trkpt lat="43.0504045" lon="11.43864"><ele>481.0</ele><time>2026-05-02T11:00:24.251Z</time></trkpt><trkpt lat="43.0503903" lon="11.4387582"><ele>482.0</ele><time>2026-05-02T11:00:25.249Z</time></trkpt><trkpt lat="43.0504023" lon="11.4388817"><ele>483.0</ele><time>2026-05-02T11:00:26.251Z</time></trkpt><trkpt lat="43.0504442" lon="11.4390005"><ele>484.00000000000006</ele><time>2026-05-02T11:00:27.25Z</time></trkpt><trkpt lat="43.0505053" lon="11.4391178"><ele>485.00000000000006</ele><time>2026-05-02T11:00:28.251Z</time></trkpt><trkpt lat="43.0505742" lon="11.4392387"><ele>486.0</ele><time>2026-05-02T11:00:29.253Z</time></trkpt><trkpt lat="43.0506363" lon="11.4393577"><ele>487.0</ele><time>2026-05-02T11:00:30.25Z</time></trkpt><trkpt lat="43.050682" lon="11.4394828"><ele>487.0</ele><time>2026-05-02T11:00:31.253Z</time></trkpt><trkpt lat="43.0507117" lon="11.4396153"><ele>487.00000000000006</ele><time>2026-05-02T11:00:32.25Z</time></trkpt><trkpt lat="43.0507262" lon="11.4397575"><ele>487.00000000000006</ele><time>2026-05-02T11:00:33.25Z</time></trkpt><trkpt lat="43.050723" lon="11.4399095"><ele>487.0</ele><time>2026-05-02T11:00:34.254Z</time></trkpt><trkpt lat="43.0507" lon="11.440065"><ele>487.0</ele><time>2026-05-02T11:00:35.253Z</time></trkpt><trkpt lat="43.0506573" lon="11.440211"><ele>485.5</ele><time>2026-05-02T11:00:36.252Z</time></trkpt><trkpt lat="43.050595" lon="11.4403407"><ele>484.0</ele><time>2026-05-02T11:00:37.253Z</time></trkpt><trkpt lat="43.0505125" lon="11.4404525"><ele>482.5</ele><time>2026-05-02T11:00:38.252Z</time></trkpt><trkpt lat="43.0504188" lon="11.4405422"><ele>481.0</ele><time>2026-05-02T11:00:39.251Z</time></trkpt><trkpt lat="43.0503218" lon="11.4406207"><ele>478.20000000000005</ele><time>2026-05-02T11:00:40.249Z</time></trkpt><trkpt lat="43.0502322" lon="11.4407058"><ele>475.40000000000003</ele><time>2026-05-02T11:00:41.251Z</time></trkpt><trkpt lat="43.0501605" lon="11.4408098"><ele>472.6</ele><time>2026-05-02T11:00:42.251Z</time></trkpt><trkpt lat="43.0501117" lon="11.440932"><ele>469.8</ele><time>2026-05-02T11:00:43.254Z</time></trkpt><trkpt lat="43.0500843" lon="11.4410727"><ele>467.0</ele><time>2026-05-02T11:00:44.252Z</time></trkpt><trkpt lat="43.0500745" lon="11.4412293"><ele>465.25</ele><time>2026-05-02T11:00:45.251Z</time></trkpt><trkpt lat="43.0500737" lon="11.4413972"><ele>463.5</ele><time>2026-05-02T11:00:46.252Z</time></trkpt><trkpt lat="43.050077" lon="11.4415683"><ele>461.75</ele><time>2026-05-02T11:00:47.251Z</time></trkpt><trkpt lat="43.0500818" lon="11.4417363"><ele>460.0</ele><time>2026-05-02T11:00:48.251Z</time></trkpt><trkpt lat="43.0500862" lon="11.4418925"><ele>460.0</ele><time>2026-05-02T11:00:49.251Z</time></trkpt><trkpt lat="43.0500917" lon="11.4420375"><ele>460.0</ele><time>2026-05-02T11:00:50.253Z</time></trkpt><trkpt lat="43.0500978" lon="11.4421795"><ele>460.0</ele><time>2026-05-02T11:00:51.25Z</time></trkpt><trkpt lat="43.0501038" lon="11.4423203"><ele>460.0</ele><time>2026-05-02T11:00:52.25Z</time></trkpt><trkpt lat="43.0501103" lon="11.4424602"><ele>460.0</ele><time>2026-05-02T11:00:53.25Z</time></trkpt><trkpt lat="43.0501147" lon="11.4426"><ele>460.8</ele><time>2026-05-02T11:00:54.247Z</time></trkpt><trkpt lat="43.0501195" lon="11.4427428"><ele>461.6</ele><time>2026-05-02T11:00:55.247Z</time></trkpt><trkpt lat="43.0501293" lon="11.4428863"><ele>462.4</ele><time>2026-05-02T11:00:56.25Z</time></trkpt><trkpt lat="43.0501447" lon="11.4430315"><ele>463.2</ele><time>2026-05-02T11:00:57.248Z</time></trkpt><trkpt lat="43.0501532" lon="11.4431832"><ele>464.0</ele><time>2026-05-02T11:00:58.252Z</time></trkpt><trkpt lat="43.0501453" lon="11.4433392"><ele>465.75</ele><time>2026-05-02T11:00:59.251Z</time></trkpt><trkpt lat="43.0501188" lon="11.443496"><ele>467.5</ele><time>2026-05-02T11:01:00.252Z</time></trkpt><trkpt lat="43.0500833" lon="11.443652"><ele>469.25</ele><time>2026-05-02T11:01:01.251Z</time></trkpt><trkpt lat="43.0500508" lon="11.4438077"><ele>471.0</ele><time>2026-05-02T11:01:02.251Z</time></trkpt><trkpt lat="43.0500202" lon="11.44396"><ele>470.8</ele><time>2026-05-02T11:01:03.249Z</time></trkpt><trkpt lat="43.049992" lon="11.4441058"><ele>470.6</ele><time>2026-05-02T11:01:04.251Z</time></trkpt><trkpt lat="43.0499657" lon="11.4442453"><ele>470.4</ele><time>2026-05-02T11:01:05.254Z</time></trkpt><trkpt lat="43.049947" lon="11.4443807"><ele>470.2</ele><time>2026-05-02T11:01:06.249Z</time></trkpt><trkpt lat="43.0499398" lon="11.4445185"><ele>470.0</ele><time>2026-05-02T11:01:07.25Z</time></trkpt><trkpt lat="43.049941" lon="11.4446645"><ele>468.2</ele><time>2026-05-02T11:01:08.25Z</time></trkpt><trkpt lat="43.0499427" lon="11.4448127"><ele>466.4</ele><time>2026-05-02T11:01:09.25Z</time></trkpt><trkpt lat="43.0499392" lon="11.4449528"><ele>464.6</ele><time>2026-05-02T11:01:10.249Z</time></trkpt><trkpt lat="43.0499272" lon="11.4450887"><ele>462.8</ele><time>2026-05-02T11:01:11.251Z</time></trkpt><trkpt lat="43.0499027" lon="11.445224"><ele>461.0</ele><time>2026-05-02T11:01:12.249Z</time></trkpt><trkpt lat="43.0498615" lon="11.4453593"><ele>461.0</ele><time>2026-05-02T11:01:13.248Z</time></trkpt><trkpt lat="43.0498095" lon="11.4454955"><ele>461.0</ele><time>2026-05-02T11:01:14.249Z</time></trkpt><trkpt lat="43.0497567" lon="11.445628"><ele>461.0</ele><time>2026-05-02T11:01:15.249Z</time></trkpt><trkpt lat="43.0497143" lon="11.4457698"><ele>461.0</ele><time>2026-05-02T11:01:16.248Z</time></trkpt><trkpt lat="43.0496833" lon="11.4459217"><ele>461.0</ele><time>2026-05-02T11:01:17.251Z</time></trkpt><trkpt lat="43.0496567" lon="11.4460792"><ele>461.0</ele><time>2026-05-02T11:01:18.245Z</time></trkpt><trkpt lat="43.0496352" lon="11.4462357"><ele>461.0</ele><time>2026-05-02T11:01:19.245Z</time></trkpt><trkpt lat="43.0496227" lon="11.4463957"><ele>461.0</ele><time>2026-05-02T11:01:20.245Z</time></trkpt><trkpt lat="43.0496167" lon="11.4465643"><ele>462.0</ele><time>2026-05-02T11:01:21.244Z</time></trkpt><trkpt lat="43.0496103" lon="11.4467417"><ele>463.0</ele><time>2026-05-02T11:01:22.245Z</time></trkpt><trkpt lat="43.0496063" lon="11.4469242"><ele>464.0</ele><time>2026-05-02T11:01:23.248Z</time></trkpt><trkpt lat="43.049602" lon="11.4471037"><ele>465.0</ele><time>2026-05-02T11:01:24.248Z</time></trkpt><trkpt lat="43.0495958" lon="11.4472712"><ele>465.2</ele><time>2026-05-02T11:01:25.249Z</time></trkpt><trkpt lat="43.0495905" lon="11.4474285"><ele>465.4</ele><time>2026-05-02T11:01:26.25Z</time></trkpt><trkpt lat="43.0495903" lon="11.4475743"><ele>465.6</ele><time>2026-05-02T11:01:27.248Z</time></trkpt><trkpt lat="43.049598" lon="11.4477135"><ele>465.8</ele><time>2026-05-02T11:01:28.248Z</time></trkpt><trkpt lat="43.0496177" lon="11.4478458"><ele>466.0</ele><time>2026-05-02T11:01:29.249Z</time></trkpt><trkpt lat="43.0496485" lon="11.447961"><ele>466.50000000000006</ele><time>2026-05-02T11:01:30.247Z</time></trkpt><trkpt lat="43.0496797" lon="11.4480635"><ele>467.0</ele><time>2026-05-02T11:01:31.249Z</time></trkpt><trkpt lat="43.0496998" lon="11.4481663"><ele>467.5</ele><time>2026-05-02T11:01:32.249Z</time></trkpt><trkpt lat="43.0496905" lon="11.4482732"><ele>468.0</ele><time>2026-05-02T11:01:33.248Z</time></trkpt><trkpt lat="43.0496525" lon="11.4483652"><ele>468.50000000000006</ele><time>2026-05-02T11:01:34.25Z</time></trkpt><trkpt lat="43.049605" lon="11.4484398"><ele>469.0</ele><time>2026-05-02T11:01:35.249Z</time></trkpt><trkpt lat="43.0495487" lon="11.4485158"><ele>469.00000000000006</ele><time>2026-05-02T11:01:36.25Z</time></trkpt><trkpt lat="43.0494847" lon="11.4485993"><ele>469.0</ele><time>2026-05-02T11:01:37.252Z</time></trkpt><trkpt lat="43.0494218" lon="11.4486898"><ele>469.0</ele><time>2026-05-02T11:01:38.25Z</time></trkpt><trkpt lat="43.0493608" lon="11.4487787"><ele>469.0</ele><time>2026-05-02T11:01:39.25Z</time></trkpt><trkpt lat="43.0492987" lon="11.4488663"><ele>469.00000000000006</ele><time>2026-05-02T11:01:40.25Z</time></trkpt><trkpt lat="43.0492362" lon="11.4489553"><ele>469.0</ele><time>2026-05-02T11:01:41.249Z</time></trkpt><trkpt lat="43.0491687" lon="11.4490515"><ele>469.4</ele><time>2026-05-02T11:01:42.25Z</time></trkpt><trkpt lat="43.0490998" lon="11.4491575"><ele>469.79999999999995</ele><time>2026-05-02T11:01:43.247Z</time></trkpt><trkpt lat="43.0490268" lon="11.4492627"><ele>470.20000000000005</ele><time>2026-05-02T11:01:44.247Z</time></trkpt><trkpt lat="43.0489485" lon="11.4493697"><ele>470.6</ele><time>2026-05-02T11:01:45.246Z</time></trkpt><trkpt lat="43.0488707" lon="11.4494802"><ele>471.0</ele><time>2026-05-02T11:01:46.247Z</time></trkpt><trkpt lat="43.048793" lon="11.4495957"><ele>473.6</ele><time>2026-05-02T11:01:47.25Z</time></trkpt><trkpt lat="43.0487167" lon="11.4497147"><ele>476.20000000000005</ele><time>2026-05-02T11:01:48.249Z</time></trkpt><trkpt lat="43.0486402" lon="11.4498278"><ele>478.79999999999995</ele><time>2026-05-02T11:01:49.249Z</time></trkpt><trkpt lat="43.0485655" lon="11.449933"><ele>481.4</ele><time>2026-05-02T11:01:50.251Z</time></trkpt><trkpt lat="43.0484908" lon="11.4500308"><ele>484.0</ele><time>2026-05-02T11:01:51.25Z</time></trkpt><trkpt lat="43.0484137" lon="11.4501213"><ele>484.0</ele><time>2026-05-02T11:01:52.249Z</time></trkpt><trkpt lat="43.04833" lon="11.4502005"><ele>484.0</ele><time>2026-05-02T11:01:53.252Z</time></trkpt><trkpt lat="43.0482508" lon="11.4502798"><ele>484.0</ele><time>2026-05-02T11:01:54.248Z</time></trkpt><trkpt lat="43.048186" lon="11.4503692"><ele>484.0</ele><time>2026-05-02T11:01:55.249Z</time></trkpt><trkpt lat="43.0481373" lon="11.450471"><ele>484.0</ele><time>2026-05-02T11:01:56.249Z</time></trkpt><trkpt lat="43.0481005" lon="11.4505823"><ele>484.2</ele><time>2026-05-02T11:01:57.252Z</time></trkpt><trkpt lat="43.0480732" lon="11.4507057"><ele>484.4</ele><time>2026-05-02T11:01:58.253Z</time></trkpt><trkpt lat="43.0480502" lon="11.4508447"><ele>484.6</ele><time>2026-05-02T11:01:59.251Z</time></trkpt><trkpt lat="43.0480297" lon="11.4509888"><ele>484.8</ele><time>2026-05-02T11:02:00.254Z</time></trkpt><trkpt lat="43.0480087" lon="11.451141"><ele>485.0</ele><time>2026-05-02T11:02:01.25Z</time></trkpt><trkpt lat="43.047984" lon="11.4512992"><ele>485.0</ele><time>2026-05-02T11:02:02.252Z</time></trkpt><trkpt lat="43.0479518" lon="11.4514505"><ele>485.0</ele><time>2026-05-02T11:02:03.257Z</time></trkpt><trkpt lat="43.047908" lon="11.4515948"><ele>485.0</ele><time>2026-05-02T11:02:04.249Z</time></trkpt><trkpt lat="43.0478567" lon="11.4517335"><ele>485.0</ele><time>2026-05-02T11:02:05.249Z</time></trkpt><trkpt lat="43.0478085" lon="11.451866"><ele>485.0</ele><time>2026-05-02T11:02:06.252Z</time></trkpt><trkpt lat="43.0477665" lon="11.4519922"><ele>485.0</ele><time>2026-05-02T11:02:07.25Z</time></trkpt><trkpt lat="43.0477322" lon="11.4521308"><ele>485.0</ele><time>2026-05-02T11:02:08.249Z</time></trkpt><trkpt lat="43.0477035" lon="11.4522852"><ele>485.0</ele><time>2026-05-02T11:02:09.249Z</time></trkpt><trkpt lat="43.0476747" lon="11.4524493"><ele>485.0</ele><time>2026-05-02T11:02:10.251Z</time></trkpt><trkpt lat="43.047647" lon="11.4526205"><ele>486.25</ele><time>2026-05-02T11:02:11.251Z</time></trkpt><trkpt lat="43.0476177" lon="11.4527953"><ele>487.5</ele><time>2026-05-02T11:02:12.254Z</time></trkpt><trkpt lat="43.0475905" lon="11.4529672"><ele>488.75</ele><time>2026-05-02T11:02:13.253Z</time></trkpt><trkpt lat="43.0475663" lon="11.4531335"><ele>490.0</ele><time>2026-05-02T11:02:14.253Z</time></trkpt><trkpt lat="43.0475483" lon="11.4532917"><ele>490.50000000000006</ele><time>2026-05-02T11:02:15.252Z</time></trkpt><trkpt lat="43.047534" lon="11.453435"><ele>491.0</ele><time>2026-05-02T11:02:16.252Z</time></trkpt><trkpt lat="43.0475173" lon="11.4535653"><ele>491.5</ele><time>2026-05-02T11:02:17.255Z</time></trkpt><trkpt lat="43.0474933" lon="11.4536777"><ele>492.0</ele><time>2026-05-02T11:02:18.252Z</time></trkpt><trkpt lat="43.047457" lon="11.4537653"><ele>492.50000000000006</ele><time>2026-05-02T11:02:19.25Z</time></trkpt><trkpt lat="43.047403" lon="11.4538362"><ele>493.0</ele><time>2026-05-02T11:02:20.252Z</time></trkpt><trkpt lat="43.0473345" lon="11.4538987"><ele>494.50000000000006</ele><time>2026-05-02T11:02:21.238Z</time></trkpt><trkpt lat="43.0472575" lon="11.4539515"><ele>496.0</ele><time>2026-05-02T11:02:22.252Z</time></trkpt><trkpt lat="43.0471777" lon="11.4540013"><ele>497.5</ele><time>2026-05-02T11:02:23.251Z</time></trkpt><trkpt lat="43.0470958" lon="11.4540513"><ele>499.0</ele><time>2026-05-02T11:02:24.252Z</time></trkpt><trkpt lat="43.0470148" lon="11.4541048"><ele>500.50000000000006</ele><time>2026-05-02T11:02:25.252Z</time></trkpt><trkpt lat="43.0469345" lon="11.4541603"><ele>502.0</ele><time>2026-05-02T11:02:26.253Z</time></trkpt><trkpt lat="43.0468585" lon="11.4542048"><ele>501.99999999999994</ele><time>2026-05-02T11:02:27.251Z</time></trkpt><trkpt lat="43.0467908" lon="11.4542383"><ele>502.0</ele><time>2026-05-02T11:02:28.252Z</time></trkpt><trkpt lat="43.0467277" lon="11.4542738"><ele>501.99999999999994</ele><time>2026-05-02T11:02:29.251Z</time></trkpt><trkpt lat="43.0466695" lon="11.4543148"><ele>501.99999999999994</ele><time>2026-05-02T11:02:30.252Z</time></trkpt><trkpt lat="43.0466095" lon="11.4543628"><ele>502.0</ele><time>2026-05-02T11:02:31.251Z</time></trkpt><trkpt lat="43.0465415" lon="11.45442"><ele>501.99999999999994</ele><time>2026-05-02T11:02:32.249Z</time></trkpt><trkpt lat="43.0464678" lon="11.4544857"><ele>501.99999999999994</ele><time>2026-05-02T11:02:33.25Z</time></trkpt><trkpt lat="43.0463908" lon="11.4545597"><ele>503.0</ele><time>2026-05-02T11:02:34.253Z</time></trkpt><trkpt lat="43.0463143" lon="11.4546358"><ele>504.00000000000006</ele><time>2026-05-02T11:02:35.252Z</time></trkpt><trkpt lat="43.0462352" lon="11.4547065"><ele>505.00000000000006</ele><time>2026-05-02T11:02:36.254Z</time></trkpt><trkpt lat="43.0461493" lon="11.454768"><ele>506.0</ele><time>2026-05-02T11:02:37.252Z</time></trkpt><trkpt lat="43.046056" lon="11.4548288"><ele>507.0</ele><time>2026-05-02T11:02:38.254Z</time></trkpt><trkpt lat="43.0459612" lon="11.45489"><ele>507.0</ele><time>2026-05-02T11:02:39.252Z</time></trkpt><trkpt lat="43.0458712" lon="11.4549478"><ele>507.00000000000006</ele><time>2026-05-02T11:02:40.252Z</time></trkpt><trkpt lat="43.0457832" lon="11.455"><ele>507.00000000000006</ele><time>2026-05-02T11:02:41.251Z</time></trkpt><trkpt lat="43.0456987" lon="11.4550523"><ele>507.0</ele><time>2026-05-02T11:02:42.252Z</time></trkpt><trkpt lat="43.0456185" lon="11.4551162"><ele>507.0</ele><time>2026-05-02T11:02:43.251Z</time></trkpt><trkpt lat="43.0455485" lon="11.4552003"><ele>506.8</ele><time>2026-05-02T11:02:44.254Z</time></trkpt><trkpt lat="43.0454878" lon="11.4553043"><ele>506.6</ele><time>2026-05-02T11:02:45.252Z</time></trkpt><trkpt lat="43.0454335" lon="11.4554182"><ele>506.40000000000003</ele><time>2026-05-02T11:02:46.252Z</time></trkpt><trkpt lat="43.0453778" lon="11.4555358"><ele>506.20000000000005</ele><time>2026-05-02T11:02:47.252Z</time></trkpt><trkpt lat="43.0453152" lon="11.4556573"><ele>506.0</ele><time>2026-05-02T11:02:48.253Z</time></trkpt><trkpt lat="43.0452477" lon="11.4557828"><ele>505.5</ele><time>2026-05-02T11:02:49.251Z</time></trkpt><trkpt lat="43.0451798" lon="11.4559118"><ele>505.0</ele><time>2026-05-02T11:02:50.252Z</time></trkpt><trkpt lat="43.04511" lon="11.4560463"><ele>504.5</ele><time>2026-05-02T11:02:51.252Z</time></trkpt><trkpt lat="43.045038" lon="11.4561848"><ele>504.0</ele><time>2026-05-02T11:02:52.252Z</time></trkpt><trkpt lat="43.0449682" lon="11.4563212"><ele>503.6</ele><time>2026-05-02T11:02:53.255Z</time></trkpt><trkpt lat="43.0449057" lon="11.456452"><ele>503.2</ele><time>2026-05-02T11:02:54.253Z</time></trkpt><trkpt lat="43.0448552" lon="11.456583"><ele>502.80000000000007</ele><time>2026-05-02T11:02:55.255Z</time></trkpt><trkpt lat="43.0448217" lon="11.4567255"><ele>502.40000000000003</ele><time>2026-05-02T11:02:56.252Z</time></trkpt><trkpt lat="43.0448003" lon="11.4568738"><ele>502.0</ele><time>2026-05-02T11:02:57.25Z</time></trkpt><trkpt lat="43.0447833" lon="11.4570212"><ele>503.6</ele><time>2026-05-02T11:02:58.252Z</time></trkpt><trkpt lat="43.0447623" lon="11.4571557"><ele>505.20000000000005</ele><time>2026-05-02T11:02:59.25Z</time></trkpt><trkpt lat="43.0447255" lon="11.457269"><ele>506.8</ele><time>2026-05-02T11:03:00.251Z</time></trkpt><trkpt lat="43.0446702" lon="11.4573625"><ele>508.4</ele><time>2026-05-02T11:03:01.253Z</time></trkpt><trkpt lat="43.0446002" lon="11.4574433"><ele>510.0</ele><time>2026-05-02T11:03:02.254Z</time></trkpt><trkpt lat="43.0445208" lon="11.4575182"><ele>510.0</ele><time>2026-05-02T11:03:03.254Z</time></trkpt><trkpt lat="43.0444387" lon="11.4575942"><ele>510.0</ele><time>2026-05-02T11:03:04.253Z</time></trkpt><trkpt lat="43.0443577" lon="11.4576705"><ele>510.0</ele><time>2026-05-02T11:03:05.254Z</time></trkpt><trkpt lat="43.044281" lon="11.4577482"><ele>510.0</ele><time>2026-05-02T11:03:06.253Z</time></trkpt><trkpt lat="43.0442078" lon="11.457834"><ele>510.0</ele><time>2026-05-02T11:03:07.252Z</time></trkpt><trkpt lat="43.0441362" lon="11.457932"><ele>509.25</ele><time>2026-05-02T11:03:08.251Z</time></trkpt><trkpt lat="43.0440595" lon="11.4580462"><ele>508.5</ele><time>2026-05-02T11:03:09.254Z</time></trkpt><trkpt lat="43.0439812" lon="11.4581687"><ele>507.75</ele><time>2026-05-02T11:03:10.252Z</time></trkpt><trkpt lat="43.0439" lon="11.4582972"><ele>507.0</ele><time>2026-05-02T11:03:11.253Z</time></trkpt><trkpt lat="43.0438142" lon="11.4584308"><ele>507.0</ele><time>2026-05-02T11:03:12.253Z</time></trkpt><trkpt lat="43.0437277" lon="11.458566"><ele>507.0</ele><time>2026-05-02T11:03:13.253Z</time></trkpt><trkpt lat="43.0436433" lon="11.4587003"><ele>507.0</ele><time>2026-05-02T11:03:14.254Z</time></trkpt><trkpt lat="43.0435583" lon="11.4588295"><ele>507.0</ele><time>2026-05-02T11:03:15.253Z</time></trkpt><trkpt lat="43.043467" lon="11.4589495"><ele>507.0</ele><time>2026-05-02T11:03:16.253Z</time></trkpt><trkpt lat="43.043371" lon="11.4590477"><ele>507.00000000000006</ele><time>2026-05-02T11:03:17.254Z</time></trkpt><trkpt lat="43.0432733" lon="11.4591228"><ele>507.00000000000006</ele><time>2026-05-02T11:03:18.255Z</time></trkpt><trkpt lat="43.0431765" lon="11.4591827"><ele>507.0</ele><time>2026-05-02T11:03:19.253Z</time></trkpt><trkpt lat="43.0430843" lon="11.4592402"><ele>507.0</ele><time>2026-05-02T11:03:20.253Z</time></trkpt><trkpt lat="43.0430018" lon="11.4593097"><ele>507.0</ele><time>2026-05-02T11:03:21.251Z</time></trkpt><trkpt lat="43.0429338" lon="11.459401"><ele>507.00000000000006</ele><time>2026-05-02T11:03:22.251Z</time></trkpt><trkpt lat="43.042881" lon="11.4595102"><ele>507.00000000000006</ele><time>2026-05-02T11:03:23.252Z</time></trkpt><trkpt lat="43.0428392" lon="11.4596308"><ele>507.0</ele><time>2026-05-02T11:03:24.252Z</time></trkpt><trkpt lat="43.0428053" lon="11.4597517"><ele>507.0</ele><time>2026-05-02T11:03:25.253Z</time></trkpt><trkpt lat="43.0427768" lon="11.4598702"><ele>507.6</ele><time>2026-05-02T11:03:26.252Z</time></trkpt><trkpt lat="43.0427508" lon="11.4599868"><ele>508.20000000000005</ele><time>2026-05-02T11:03:27.251Z</time></trkpt><trkpt lat="43.042737" lon="11.4601032"><ele>508.8</ele><time>2026-05-02T11:03:28.25Z</time></trkpt><trkpt lat="43.0427473" lon="11.4602205"><ele>509.4</ele><time>2026-05-02T11:03:29.253Z</time></trkpt><trkpt lat="43.04278" lon="11.4603415"><ele>510.0</ele><time>2026-05-02T11:03:30.25Z</time></trkpt><trkpt lat="43.0428287" lon="11.460463"><ele>510.0</ele><time>2026-05-02T11:03:31.249Z</time></trkpt><trkpt lat="43.0428835" lon="11.460579"><ele>510.0</ele><time>2026-05-02T11:03:32.252Z</time></trkpt><trkpt lat="43.0429417" lon="11.4606927"><ele>510.0</ele><time>2026-05-02T11:03:33.254Z</time></trkpt><trkpt lat="43.042999" lon="11.4608052"><ele>510.0</ele><time>2026-05-02T11:03:34.251Z</time></trkpt><trkpt lat="43.0430503" lon="11.4609167"><ele>510.0</ele><time>2026-05-02T11:03:35.252Z</time></trkpt><trkpt lat="43.0431023" lon="11.4610347"><ele>510.0</ele><time>2026-05-02T11:03:36.252Z</time></trkpt><trkpt lat="43.0431588" lon="11.4611568"><ele>510.0</ele><time>2026-05-02T11:03:37.252Z</time></trkpt><trkpt lat="43.043217" lon="11.4612878"><ele>510.0</ele><time>2026-05-02T11:03:38.254Z</time></trkpt><trkpt lat="43.0432778" lon="11.4614258"><ele>510.0</ele><time>2026-05-02T11:03:39.254Z</time></trkpt><trkpt lat="43.0433375" lon="11.4615702"><ele>507.75</ele><time>2026-05-02T11:03:40.254Z</time></trkpt><trkpt lat="43.043396" lon="11.4617155"><ele>505.5</ele><time>2026-05-02T11:03:41.255Z</time></trkpt><trkpt lat="43.0434535" lon="11.4618637"><ele>503.25</ele><time>2026-05-02T11:03:42.253Z</time></trkpt><trkpt lat="43.043511" lon="11.4620125"><ele>501.0</ele><time>2026-05-02T11:03:43.255Z</time></trkpt><trkpt lat="43.0435637" lon="11.4621535"><ele>501.0</ele><time>2026-05-02T11:03:44.256Z</time></trkpt><trkpt lat="43.0436078" lon="11.4622857"><ele>501.0</ele><time>2026-05-02T11:03:45.251Z</time></trkpt><trkpt lat="43.0436395" lon="11.4624115"><ele>501.0</ele><time>2026-05-02T11:03:46.254Z</time></trkpt><trkpt lat="43.0436562" lon="11.462535"><ele>501.0</ele><time>2026-05-02T11:03:47.251Z</time></trkpt><trkpt lat="43.0436533" lon="11.462652"><ele>501.0</ele><time>2026-05-02T11:03:48.251Z</time></trkpt><trkpt lat="43.0436272" lon="11.46276"><ele>501.0</ele><time>2026-05-02T11:03:49.253Z</time></trkpt><trkpt lat="43.0435772" lon="11.4628633"><ele>501.0</ele><time>2026-05-02T11:03:50.256Z</time></trkpt><trkpt lat="43.0435147" lon="11.4629585"><ele>501.0</ele><time>2026-05-02T11:03:51.253Z</time></trkpt><trkpt lat="43.0434463" lon="11.463058"><ele>501.0</ele><time>2026-05-02T11:03:52.254Z</time></trkpt><trkpt lat="43.0433757" lon="11.4631667"><ele>501.0</ele><time>2026-05-02T11:03:53.255Z</time></trkpt><trkpt lat="43.0433097" lon="11.4632835"><ele>500.6</ele><time>2026-05-02T11:03:54.255Z</time></trkpt><trkpt lat="43.0432542" lon="11.463402"><ele>500.20000000000005</ele><time>2026-05-02T11:03:55.254Z</time></trkpt><trkpt lat="43.0432145" lon="11.463523"><ele>499.79999999999995</ele><time>2026-05-02T11:03:56.253Z</time></trkpt><trkpt lat="43.0431897" lon="11.4636532"><ele>499.4</ele><time>2026-05-02T11:03:57.254Z</time></trkpt><trkpt lat="43.043175" lon="11.463795"><ele>499.0</ele><time>2026-05-02T11:03:58.254Z</time></trkpt><trkpt lat="43.0431585" lon="11.4639485"><ele>499.0</ele><time>2026-05-02T11:03:59.254Z</time></trkpt><trkpt lat="43.0431363" lon="11.4641023"><ele>499.0</ele><time>2026-05-02T11:04:00.253Z</time></trkpt><trkpt lat="43.0431107" lon="11.4642557"><ele>499.0</ele><time>2026-05-02T11:04:01.252Z</time></trkpt><trkpt lat="43.0430872" lon="11.4644015"><ele>499.0</ele><time>2026-05-02T11:04:02.253Z</time></trkpt><trkpt lat="43.0430633" lon="11.4645423"><ele>499.0</ele><time>2026-05-02T11:04:03.252Z</time></trkpt><trkpt lat="43.0430338" lon="11.4646827"><ele>499.79999999999995</ele><time>2026-05-02T11:04:04.254Z</time></trkpt><trkpt lat="43.0429975" lon="11.4648208"><ele>500.59999999999997</ele><time>2026-05-02T11:04:05.253Z</time></trkpt><trkpt lat="43.0429507" lon="11.4649595"><ele>501.4</ele><time>2026-05-02T11:04:06.254Z</time></trkpt><trkpt lat="43.0429002" lon="11.4650967"><ele>502.2</ele><time>2026-05-02T11:04:07.255Z</time></trkpt><trkpt lat="43.0428475" lon="11.4652277"><ele>503.0</ele><time>2026-05-02T11:04:08.255Z</time></trkpt><trkpt lat="43.042799" lon="11.4653563"><ele>502.75</ele><time>2026-05-02T11:04:09.255Z</time></trkpt><trkpt lat="43.0427603" lon="11.4654948"><ele>502.5</ele><time>2026-05-02T11:04:10.251Z</time></trkpt><trkpt lat="43.042735" lon="11.4656445"><ele>502.25</ele><time>2026-05-02T11:04:11.251Z</time></trkpt><trkpt lat="43.0427177" lon="11.4658025"><ele>502.0</ele><time>2026-05-02T11:04:12.251Z</time></trkpt><trkpt lat="43.0427062" lon="11.4659667"><ele>502.0</ele><time>2026-05-02T11:04:13.252Z</time></trkpt><trkpt lat="43.0426972" lon="11.4661332"><ele>502.0</ele><time>2026-05-02T11:04:14.255Z</time></trkpt><trkpt lat="43.0426885" lon="11.4663012"><ele>502.0</ele><time>2026-05-02T11:04:15.254Z</time></trkpt><trkpt lat="43.0426787" lon="11.466471"><ele>502.0</ele><time>2026-05-02T11:04:16.254Z</time></trkpt><trkpt lat="43.0426675" lon="11.4666392"><ele>501.75</ele><time>2026-05-02T11:04:17.254Z</time></trkpt><trkpt lat="43.0426573" lon="11.4668003"><ele>501.5</ele><time>2026-05-02T11:04:18.254Z</time></trkpt><trkpt lat="43.0426463" lon="11.4669518"><ele>501.25</ele><time>2026-05-02T11:04:19.254Z</time></trkpt><trkpt lat="43.0426233" lon="11.4670958"><ele>501.0</ele><time>2026-05-02T11:04:20.254Z</time></trkpt><trkpt lat="43.042582" lon="11.4672388"><ele>500.75</ele><time>2026-05-02T11:04:21.254Z</time></trkpt><trkpt lat="43.0425263" lon="11.4673863"><ele>500.5</ele><time>2026-05-02T11:04:22.257Z</time></trkpt><trkpt lat="43.0424667" lon="11.4675442"><ele>500.25</ele><time>2026-05-02T11:04:23.258Z</time></trkpt><trkpt lat="43.0424057" lon="11.4677145"><ele>500.0</ele><time>2026-05-02T11:04:24.257Z</time></trkpt><trkpt lat="43.0423485" lon="11.4678932"><ele>501.25</ele><time>2026-05-02T11:04:25.258Z</time></trkpt><trkpt lat="43.0423005" lon="11.4680752"><ele>502.5</ele><time>2026-05-02T11:04:26.257Z</time></trkpt><trkpt lat="43.042259" lon="11.4682575"><ele>503.75</ele><time>2026-05-02T11:04:27.257Z</time></trkpt><trkpt lat="43.0422197" lon="11.4684345"><ele>505.0</ele><time>2026-05-02T11:04:28.27Z</time></trkpt><trkpt lat="43.0421853" lon="11.468598"><ele>505.0</ele><time>2026-05-02T11:04:29.26Z</time></trkpt><trkpt lat="43.0421557" lon="11.4687447"><ele>505.0</ele><time>2026-05-02T11:04:30.257Z</time></trkpt><trkpt lat="43.042123" lon="11.4688743"><ele>505.0</ele><time>2026-05-02T11:04:31.257Z</time></trkpt><trkpt lat="43.0420787" lon="11.4689888"><ele>505.0</ele><time>2026-05-02T11:04:32.254Z</time></trkpt><trkpt lat="43.0420158" lon="11.4690897"><ele>505.0</ele><time>2026-05-02T11:04:33.255Z</time></trkpt><trkpt lat="43.041935" lon="11.469179"><ele>505.25</ele><time>2026-05-02T11:04:34.254Z</time></trkpt><trkpt lat="43.0418365" lon="11.4692592"><ele>505.5</ele><time>2026-05-02T11:04:35.253Z</time></trkpt><trkpt lat="43.0417275" lon="11.469326"><ele>505.75</ele><time>2026-05-02T11:04:36.251Z</time></trkpt><trkpt lat="43.0416147" lon="11.4693808"><ele>506.0</ele><time>2026-05-02T11:04:37.253Z</time></trkpt><trkpt lat="43.0415023" lon="11.4694345"><ele>507.20000000000005</ele><time>2026-05-02T11:04:38.258Z</time></trkpt><trkpt lat="43.0413988" lon="11.4694885"><ele>508.40000000000003</ele><time>2026-05-02T11:04:39.255Z</time></trkpt><trkpt lat="43.0413063" lon="11.4695432"><ele>509.6</ele><time>2026-05-02T11:04:40.253Z</time></trkpt><trkpt lat="43.0412182" lon="11.469606"><ele>510.8</ele><time>2026-05-02T11:04:41.259Z</time></trkpt><trkpt lat="43.0411352" lon="11.4696777"><ele>512.0</ele><time>2026-05-02T11:04:42.253Z</time></trkpt><trkpt lat="43.0410537" lon="11.4697522"><ele>512.8000000000001</ele><time>2026-05-02T11:04:43.257Z</time></trkpt><trkpt lat="43.0409728" lon="11.4698262"><ele>513.6</ele><time>2026-05-02T11:04:44.255Z</time></trkpt><trkpt lat="43.0408943" lon="11.4699113"><ele>514.4000000000001</ele><time>2026-05-02T11:04:45.252Z</time></trkpt><trkpt lat="43.0408177" lon="11.4700078"><ele>515.2</ele><time>2026-05-02T11:04:46.254Z</time></trkpt><trkpt lat="43.0407385" lon="11.4701115"><ele>516.0</ele><time>2026-05-02T11:04:47.254Z</time></trkpt><trkpt lat="43.0406608" lon="11.4702228"><ele>517.25</ele><time>2026-05-02T11:04:48.253Z</time></trkpt><trkpt lat="43.0405842" lon="11.47034"><ele>518.5</ele><time>2026-05-02T11:04:49.254Z</time></trkpt><trkpt lat="43.0405068" lon="11.4704562"><ele>519.75</ele><time>2026-05-02T11:04:50.254Z</time></trkpt><trkpt lat="43.0404223" lon="11.4705642"><ele>521.0</ele><time>2026-05-02T11:04:51.257Z</time></trkpt><trkpt lat="43.0403272" lon="11.470644"><ele>522.4</ele><time>2026-05-02T11:04:52.262Z</time></trkpt><trkpt lat="43.04023" lon="11.4706897"><ele>523.8</ele><time>2026-05-02T11:04:53.253Z</time></trkpt><trkpt lat="43.0401425" lon="11.4707192"><ele>525.1999999999999</ele><time>2026-05-02T11:04:54.253Z</time></trkpt><trkpt lat="43.0400632" lon="11.4707473"><ele>526.6</ele><time>2026-05-02T11:04:55.252Z</time></trkpt><trkpt lat="43.0399825" lon="11.4707763"><ele>528.0</ele><time>2026-05-02T11:04:56.252Z</time></trkpt><trkpt lat="43.0398915" lon="11.470815"><ele>529.0</ele><time>2026-05-02T11:04:57.251Z</time></trkpt><trkpt lat="43.0397915" lon="11.4708658"><ele>530.0</ele><time>2026-05-02T11:04:58.255Z</time></trkpt><trkpt lat="43.0396832" lon="11.4709278"><ele>531.0</ele><time>2026-05-02T11:04:59.252Z</time></trkpt><trkpt lat="43.0395685" lon="11.4709945"><ele>532.0</ele><time>2026-05-02T11:05:00.247Z</time></trkpt><trkpt lat="43.0394487" lon="11.4710613"><ele>532.0</ele><time>2026-05-02T11:05:01.249Z</time></trkpt><trkpt lat="43.0393267" lon="11.4711342"><ele>532.0</ele><time>2026-05-02T11:05:02.249Z</time></trkpt><trkpt lat="43.0392053" lon="11.4712207"><ele>532.0</ele><time>2026-05-02T11:05:03.249Z</time></trkpt><trkpt lat="43.0390925" lon="11.4713225"><ele>532.0</ele><time>2026-05-02T11:05:04.254Z</time></trkpt><trkpt lat="43.0389932" lon="11.4714373"><ele>532.25</ele><time>2026-05-02T11:05:05.25Z</time></trkpt><trkpt lat="43.0389062" lon="11.4715582"><ele>532.5</ele><time>2026-05-02T11:05:06.25Z</time></trkpt><trkpt lat="43.0388312" lon="11.4716875"><ele>532.75</ele><time>2026-05-02T11:05:07.251Z</time></trkpt><trkpt lat="43.0387713" lon="11.4718303"><ele>533.0</ele><time>2026-05-02T11:05:08.249Z</time></trkpt><trkpt lat="43.0387257" lon="11.471983"><ele>536.75</ele><time>2026-05-02T11:05:09.25Z</time></trkpt><trkpt lat="43.0386922" lon="11.4721435"><ele>540.5</ele><time>2026-05-02T11:05:10.252Z</time></trkpt><trkpt lat="43.0386772" lon="11.47231"><ele>544.25</ele><time>2026-05-02T11:05:11.252Z</time></trkpt><trkpt lat="43.0386858" lon="11.4724763"><ele>548.0</ele><time>2026-05-02T11:05:12.252Z</time></trkpt><trkpt lat="43.0387087" lon="11.4726397"><ele>548.0</ele><time>2026-05-02T11:05:13.249Z</time></trkpt><trkpt lat="43.0387325" lon="11.4728032"><ele>548.0</ele><time>2026-05-02T11:05:14.251Z</time></trkpt><trkpt lat="43.0387493" lon="11.4729657"><ele>548.0</ele><time>2026-05-02T11:05:15.249Z</time></trkpt><trkpt lat="43.0387643" lon="11.4731242"><ele>548.0</ele><time>2026-05-02T11:05:16.25Z</time></trkpt><trkpt lat="43.0387642" lon="11.4732817"><ele>551.0</ele><time>2026-05-02T11:05:17.252Z</time></trkpt><trkpt lat="43.0387432" lon="11.4734355"><ele>554.0</ele><time>2026-05-02T11:05:18.25Z</time></trkpt><trkpt lat="43.0386953" lon="11.4735772"><ele>557.0</ele><time>2026-05-02T11:05:19.25Z</time></trkpt><trkpt lat="43.038623" lon="11.4736968"><ele>560.0</ele><time>2026-05-02T11:05:20.253Z</time></trkpt><trkpt lat="43.0385298" lon="11.4737927"><ele>562.25</ele><time>2026-05-02T11:05:21.249Z</time></trkpt><trkpt lat="43.038421" lon="11.4738692"><ele>564.5</ele><time>2026-05-02T11:05:22.249Z</time></trkpt><trkpt lat="43.038306" lon="11.4739347"><ele>566.75</ele><time>2026-05-02T11:05:23.25Z</time></trkpt><trkpt lat="43.0381913" lon="11.4739945"><ele>569.0</ele><time>2026-05-02T11:05:24.249Z</time></trkpt><trkpt lat="43.0380833" lon="11.4740493"><ele>569.0</ele><time>2026-05-02T11:05:25.248Z</time></trkpt><trkpt lat="43.0379865" lon="11.4741015"><ele>569.0</ele><time>2026-05-02T11:05:26.248Z</time></trkpt><trkpt lat="43.037902" lon="11.474164"><ele>569.0</ele><time>2026-05-02T11:05:27.249Z</time></trkpt><trkpt lat="43.0378297" lon="11.4742413"><ele>569.0</ele><time>2026-05-02T11:05:28.252Z</time></trkpt><trkpt lat="43.0377715" lon="11.4743342"><ele>569.0</ele><time>2026-05-02T11:05:29.254Z</time></trkpt><trkpt lat="43.0377332" lon="11.4744407"><ele>569.0</ele><time>2026-05-02T11:05:30.25Z</time></trkpt><trkpt lat="43.037715" lon="11.474558"><ele>569.0</ele><time>2026-05-02T11:05:31.251Z</time></trkpt><trkpt lat="43.037712" lon="11.4746833"><ele>569.0</ele><time>2026-05-02T11:05:32.252Z</time></trkpt><trkpt lat="43.0377135" lon="11.474814"><ele>569.0</ele><time>2026-05-02T11:05:33.25Z</time></trkpt><trkpt lat="43.0377173" lon="11.4749482"><ele>569.0</ele><time>2026-05-02T11:05:34.253Z</time></trkpt><trkpt lat="43.0377248" lon="11.4750852"><ele>571.4</ele><time>2026-05-02T11:05:35.252Z</time></trkpt><trkpt lat="43.0377318" lon="11.475224"><ele>573.8</ele><time>2026-05-02T11:05:36.25Z</time></trkpt><trkpt lat="43.0377368" lon="11.4753618"><ele>576.2</ele><time>2026-05-02T11:05:37.251Z</time></trkpt><trkpt lat="43.0377413" lon="11.475498"><ele>578.6</ele><time>2026-05-02T11:05:38.251Z</time></trkpt><trkpt lat="43.037745" lon="11.4756335"><ele>581.0</ele><time>2026-05-02T11:05:39.249Z</time></trkpt><trkpt lat="43.0377483" lon="11.4757688"><ele>582.6</ele><time>2026-05-02T11:05:40.249Z</time></trkpt><trkpt lat="43.037754" lon="11.4759043"><ele>584.2</ele><time>2026-05-02T11:05:41.252Z</time></trkpt><trkpt lat="43.037761" lon="11.4760412"><ele>585.8</ele><time>2026-05-02T11:05:42.252Z</time></trkpt><trkpt lat="43.0377682" lon="11.4761788"><ele>587.4</ele><time>2026-05-02T11:05:43.253Z</time></trkpt><trkpt lat="43.0377748" lon="11.4763168"><ele>589.0</ele><time>2026-05-02T11:05:44.252Z</time></trkpt><trkpt lat="43.0377795" lon="11.4764552"><ele>589.6</ele><time>2026-05-02T11:05:45.253Z</time></trkpt><trkpt lat="43.0377838" lon="11.4765947"><ele>590.2</ele><time>2026-05-02T11:05:46.252Z</time></trkpt><trkpt lat="43.0377872" lon="11.4767352"><ele>590.8000000000001</ele><time>2026-05-02T11:05:47.252Z</time></trkpt><trkpt lat="43.0377912" lon="11.4768755"><ele>591.4</ele><time>2026-05-02T11:05:48.25Z</time></trkpt><trkpt lat="43.0377943" lon="11.4770165"><ele>592.0</ele><time>2026-05-02T11:05:49.251Z</time></trkpt><trkpt lat="43.0377962" lon="11.4771582"><ele>593.2</ele><time>2026-05-02T11:05:50.25Z</time></trkpt><trkpt lat="43.037795" lon="11.4773"><ele>594.4000000000001</ele><time>2026-05-02T11:05:51.25Z</time></trkpt><trkpt lat="43.0377858" lon="11.4774422"><ele>595.5999999999999</ele><time>2026-05-02T11:05:52.253Z</time></trkpt><trkpt lat="43.0377718" lon="11.4775847"><ele>596.8</ele><time>2026-05-02T11:05:53.254Z</time></trkpt><trkpt lat="43.0377535" lon="11.4777273"><ele>598.0</ele><time>2026-05-02T11:05:54.253Z</time></trkpt><trkpt lat="43.0377337" lon="11.4778715"><ele>598.0</ele><time>2026-05-02T11:05:55.252Z</time></trkpt><trkpt lat="43.0377115" lon="11.4780163"><ele>598.0</ele><time>2026-05-02T11:05:56.253Z</time></trkpt><trkpt lat="43.0376853" lon="11.478161"><ele>598.0</ele><time>2026-05-02T11:05:57.255Z</time></trkpt><trkpt lat="43.037652" lon="11.4783037"><ele>598.0</ele><time>2026-05-02T11:05:58.252Z</time></trkpt><trkpt lat="43.037609" lon="11.4784407"><ele>598.0</ele><time>2026-05-02T11:05:59.251Z</time></trkpt><trkpt lat="43.0375555" lon="11.4785697"><ele>598.0</ele><time>2026-05-02T11:06:00.251Z</time></trkpt><trkpt lat="43.0374928" lon="11.4786873"><ele>598.0</ele><time>2026-05-02T11:06:01.253Z</time></trkpt><trkpt lat="43.0374253" lon="11.478795"><ele>598.0</ele><time>2026-05-02T11:06:02.253Z</time></trkpt><trkpt lat="43.0373567" lon="11.4788958"><ele>598.0</ele><time>2026-05-02T11:06:03.251Z</time></trkpt><trkpt lat="43.0372925" lon="11.4789908"><ele>598.0</ele><time>2026-05-02T11:06:04.251Z</time></trkpt><trkpt lat="43.0372347" lon="11.4790748"><ele>598.1666666666667</ele><time>2026-05-02T11:06:05.252Z</time></trkpt><trkpt lat="43.0371812" lon="11.4791463"><ele>598.3333333333334</ele><time>2026-05-02T11:06:06.252Z</time></trkpt><trkpt lat="43.0371295" lon="11.4792055"><ele>598.5</ele><time>2026-05-02T11:06:07.25Z</time></trkpt><trkpt lat="43.0370492" lon="11.479297"><ele>598.6666666666666</ele><time>2026-05-02T11:06:09.251Z</time></trkpt><trkpt lat="43.0370167" lon="11.4793812"><ele>598.8333333333333</ele><time>2026-05-02T11:07:00.252Z</time></trkpt><trkpt lat="43.0369778" lon="11.4794823"><ele>599.0</ele><time>2026-05-02T11:07:08.252Z</time></trkpt><trkpt lat="43.0369123" lon="11.4795905"><ele>599.4</ele><time>2026-05-02T11:07:10.254Z</time></trkpt><trkpt lat="43.0368633" lon="11.479684"><ele>599.8</ele><time>2026-05-02T11:07:12.254Z</time></trkpt><trkpt lat="43.036854" lon="11.4798022"><ele>600.2</ele><time>2026-05-02T11:07:15.252Z</time></trkpt><trkpt lat="43.0369528" lon="11.4798983"><ele>600.6</ele><time>2026-05-02T11:07:17.254Z</time></trkpt><trkpt lat="43.0370272" lon="11.4799503"><ele>601.0</ele><time>2026-05-02T11:07:18.253Z</time></trkpt><trkpt lat="43.0371197" lon="11.4800197"><ele>601.0</ele><time>2026-05-02T11:07:19.252Z</time></trkpt><trkpt lat="43.0372255" lon="11.4801028"><ele>601.0</ele><time>2026-05-02T11:07:20.254Z</time></trkpt><trkpt lat="43.0373458" lon="11.4801998"><ele>601.0</ele><time>2026-05-02T11:07:21.252Z</time></trkpt><trkpt lat="43.0374748" lon="11.4803075"><ele>601.0</ele><time>2026-05-02T11:07:22.254Z</time></trkpt><trkpt lat="43.0376105" lon="11.480427"><ele>598.0</ele><time>2026-05-02T11:07:23.253Z</time></trkpt><trkpt lat="43.0377583" lon="11.4805595"><ele>595.0</ele><time>2026-05-02T11:07:24.255Z</time></trkpt><trkpt lat="43.0379158" lon="11.4806965"><ele>592.0</ele><time>2026-05-02T11:07:25.253Z</time></trkpt><trkpt lat="43.0380752" lon="11.4808323"><ele>592.0</ele><time>2026-05-02T11:07:26.25Z</time></trkpt><trkpt lat="43.0382353" lon="11.4809713"><ele>592.0</ele><time>2026-05-02T11:07:27.249Z</time></trkpt><trkpt lat="43.0383965" lon="11.4811138"><ele>592.0</ele><time>2026-05-02T11:07:28.25Z</time></trkpt><trkpt lat="43.0385592" lon="11.4812562"><ele>591.0</ele><time>2026-05-02T11:07:29.249Z</time></trkpt><trkpt lat="43.0387237" lon="11.4813998"><ele>590.0</ele><time>2026-05-02T11:07:30.253Z</time></trkpt><trkpt lat="43.038889" lon="11.4815432"><ele>589.0</ele><time>2026-05-02T11:07:31.253Z</time></trkpt><trkpt lat="43.0390533" lon="11.4816872"><ele>591.3333333333334</ele><time>2026-05-02T11:07:32.252Z</time></trkpt><trkpt lat="43.0392155" lon="11.481831"><ele>593.6666666666666</ele><time>2026-05-02T11:07:33.252Z</time></trkpt><trkpt lat="43.0393767" lon="11.481972"><ele>596.0</ele><time>2026-05-02T11:07:34.251Z</time></trkpt><trkpt lat="43.0395352" lon="11.4821117"><ele>599.0</ele><time>2026-05-02T11:07:35.251Z</time></trkpt><trkpt lat="43.0396917" lon="11.4822495"><ele>602.0</ele><time>2026-05-02T11:07:36.249Z</time></trkpt><trkpt lat="43.0398473" lon="11.4823845"><ele>605.0</ele><time>2026-05-02T11:07:37.25Z</time></trkpt><trkpt lat="43.0400053" lon="11.4825135"><ele>606.6666666666666</ele><time>2026-05-02T11:07:38.249Z</time></trkpt><trkpt lat="43.040168" lon="11.4826348"><ele>608.3333333333334</ele><time>2026-05-02T11:07:39.249Z</time></trkpt><trkpt lat="43.0403352" lon="11.482736"><ele>610.0</ele><time>2026-05-02T11:07:40.251Z</time></trkpt><trkpt lat="43.04051" lon="11.4828158"><ele>610.0</ele><time>2026-05-02T11:07:41.249Z</time></trkpt><trkpt lat="43.0406907" lon="11.4828795"><ele>610.0</ele><time>2026-05-02T11:07:42.249Z</time></trkpt><trkpt lat="43.0408762" lon="11.4829403"><ele>610.0</ele><time>2026-05-02T11:07:43.249Z</time></trkpt><trkpt lat="43.0410662" lon="11.4829992"><ele>610.6666666666667</ele><time>2026-05-02T11:07:44.249Z</time></trkpt><trkpt lat="43.0412583" lon="11.4830543"><ele>611.3333333333334</ele><time>2026-05-02T11:07:45.249Z</time></trkpt><trkpt lat="43.0414523" lon="11.483116"><ele>612.0</ele><time>2026-05-02T11:07:46.25Z</time></trkpt><trkpt lat="43.0416497" lon="11.4831757"><ele>612.0</ele><time>2026-05-02T11:07:47.253Z</time></trkpt><trkpt lat="43.0418503" lon="11.4832348"><ele>612.0</ele><time>2026-05-02T11:07:48.251Z</time></trkpt><trkpt lat="43.0420533" lon="11.4832957"><ele>612.0</ele><time>2026-05-02T11:07:49.254Z</time></trkpt><trkpt lat="43.0422548" lon="11.4833555"><ele>612.0</ele><time>2026-05-02T11:07:50.251Z</time></trkpt><trkpt lat="43.0424508" lon="11.4834105"><ele>612.0</ele><time>2026-05-02T11:07:51.249Z</time></trkpt><trkpt lat="43.042636" lon="11.4834633"><ele>612.0</ele><time>2026-05-02T11:07:52.248Z</time></trkpt><trkpt lat="43.0428122" lon="11.4835158"><ele>612.3333333333334</ele><time>2026-05-02T11:07:53.25Z</time></trkpt><trkpt lat="43.0429788" lon="11.4835662"><ele>612.6666666666667</ele><time>2026-05-02T11:07:54.25Z</time></trkpt><trkpt lat="43.043135" lon="11.4836145"><ele>613.0</ele><time>2026-05-02T11:07:55.251Z</time></trkpt><trkpt lat="43.0432827" lon="11.4836615"><ele>613.5</ele><time>2026-05-02T11:07:56.25Z</time></trkpt><trkpt lat="43.0434235" lon="11.4837115"><ele>614.0</ele><time>2026-05-02T11:07:57.251Z</time></trkpt><trkpt lat="43.0435625" lon="11.4837735"><ele>614.5</ele><time>2026-05-02T11:07:58.252Z</time></trkpt><trkpt lat="43.0436972" lon="11.4838587"><ele>615.0</ele><time>2026-05-02T11:07:59.252Z</time></trkpt><trkpt lat="43.0438263" lon="11.4839705"><ele>613.6666666666666</ele><time>2026-05-02T11:08:00.252Z</time></trkpt><trkpt lat="43.0439542" lon="11.484096"><ele>612.3333333333333</ele><time>2026-05-02T11:08:01.255Z</time></trkpt><trkpt lat="43.0440807" lon="11.4842225"><ele>611.0</ele><time>2026-05-02T11:08:02.255Z</time></trkpt><trkpt lat="43.0442015" lon="11.4843463"><ele>611.0</ele><time>2026-05-02T11:08:03.254Z</time></trkpt><trkpt lat="43.0443088" lon="11.4844647"><ele>611.0</ele><time>2026-05-02T11:08:04.254Z</time></trkpt><trkpt lat="43.044399" lon="11.4845848"><ele>611.0</ele><time>2026-05-02T11:08:05.253Z</time></trkpt><trkpt lat="43.0444738" lon="11.4847085"><ele>611.0</ele><time>2026-05-02T11:08:06.253Z</time></trkpt><trkpt lat="43.0445347" lon="11.48484"><ele>611.25</ele><time>2026-05-02T11:08:07.25Z</time></trkpt><trkpt lat="43.0445868" lon="11.4849878"><ele>611.5</ele><time>2026-05-02T11:08:08.251Z</time></trkpt><trkpt lat="43.044632" lon="11.485144"><ele>611.75</ele><time>2026-05-02T11:08:09.25Z</time></trkpt><trkpt lat="43.0446757" lon="11.4853013"><ele>612.0</ele><time>2026-05-02T11:08:10.25Z</time></trkpt><trkpt lat="43.0447232" lon="11.485457"><ele>612.5</ele><time>2026-05-02T11:08:11.251Z</time></trkpt><trkpt lat="43.0447703" lon="11.4856282"><ele>613.0</ele><time>2026-05-02T11:08:12.252Z</time></trkpt><trkpt lat="43.0448175" lon="11.4858137"><ele>613.5</ele><time>2026-05-02T11:08:13.252Z</time></trkpt><trkpt lat="43.0448687" lon="11.4860045"><ele>614.0</ele><time>2026-05-02T11:08:14.252Z</time></trkpt><trkpt lat="43.0449202" lon="11.4861943"><ele>614.25</ele><time>2026-05-02T11:08:15.249Z</time></trkpt><trkpt lat="43.044971" lon="11.4863758"><ele>614.5</ele><time>2026-05-02T11:08:16.251Z</time></trkpt><trkpt lat="43.0450187" lon="11.4865397"><ele>614.75</ele><time>2026-05-02T11:08:17.251Z</time></trkpt><trkpt lat="43.0450617" lon="11.4866858"><ele>615.0</ele><time>2026-05-02T11:08:18.251Z</time></trkpt><trkpt lat="43.0451102" lon="11.4868105"><ele>615.0</ele><time>2026-05-02T11:08:19.251Z</time></trkpt><trkpt lat="43.0451713" lon="11.4869083"><ele>615.0</ele><time>2026-05-02T11:08:20.252Z</time></trkpt><trkpt lat="43.0452468" lon="11.4869862"><ele>615.0</ele><time>2026-05-02T11:08:21.252Z</time></trkpt><trkpt lat="43.0453342" lon="11.487041"><ele>615.0</ele><time>2026-05-02T11:08:22.252Z</time></trkpt><trkpt lat="43.0454307" lon="11.4870708"><ele>615.0</ele><time>2026-05-02T11:08:23.251Z</time></trkpt><trkpt lat="43.0455332" lon="11.4870805"><ele>615.0</ele><time>2026-05-02T11:08:24.25Z</time></trkpt><trkpt lat="43.0456392" lon="11.4870898"><ele>615.0</ele><time>2026-05-02T11:08:25.252Z</time></trkpt><trkpt lat="43.0457397" lon="11.4871032"><ele>615.0</ele><time>2026-05-02T11:08:26.251Z</time></trkpt><trkpt lat="43.045835" lon="11.4871372"><ele>615.0</ele><time>2026-05-02T11:08:27.25Z</time></trkpt><trkpt lat="43.0459215" lon="11.487201"><ele>615.0</ele><time>2026-05-02T11:08:28.25Z</time></trkpt><trkpt lat="43.0459978" lon="11.4872905"><ele>614.6</ele><time>2026-05-02T11:08:29.251Z</time></trkpt><trkpt lat="43.0460665" lon="11.4873955"><ele>614.2</ele><time>2026-05-02T11:08:30.249Z</time></trkpt><trkpt lat="43.0461273" lon="11.4875168"><ele>613.8</ele><time>2026-05-02T11:08:31.251Z</time></trkpt><trkpt lat="43.0461808" lon="11.4876483"><ele>613.4</ele><time>2026-05-02T11:08:32.252Z</time></trkpt><trkpt lat="43.0462258" lon="11.487788"><ele>613.0</ele><time>2026-05-02T11:08:33.251Z</time></trkpt><trkpt lat="43.0462598" lon="11.4879342"><ele>610.25</ele><time>2026-05-02T11:08:34.252Z</time></trkpt><trkpt lat="43.0462888" lon="11.4880848"><ele>607.5</ele><time>2026-05-02T11:08:35.252Z</time></trkpt><trkpt lat="43.0463177" lon="11.4882457"><ele>604.75</ele><time>2026-05-02T11:08:36.251Z</time></trkpt><trkpt lat="43.0463498" lon="11.4884155"><ele>602.0</ele><time>2026-05-02T11:08:37.25Z</time></trkpt><trkpt lat="43.0463888" lon="11.4885973"><ele>600.0</ele><time>2026-05-02T11:08:38.251Z</time></trkpt><trkpt lat="43.0464323" lon="11.4887842"><ele>598.0</ele><time>2026-05-02T11:08:39.248Z</time></trkpt><trkpt lat="43.0464763" lon="11.4889625"><ele>596.0</ele><time>2026-05-02T11:08:40.247Z</time></trkpt><trkpt lat="43.0465338" lon="11.4891255"><ele>594.0</ele><time>2026-05-02T11:08:41.248Z</time></trkpt><trkpt lat="43.0466157" lon="11.489268"><ele>599.25</ele><time>2026-05-02T11:08:42.247Z</time></trkpt><trkpt lat="43.0467217" lon="11.4893882"><ele>604.5</ele><time>2026-05-02T11:08:43.252Z</time></trkpt><trkpt lat="43.0468525" lon="11.4894738"><ele>609.75</ele><time>2026-05-02T11:08:44.251Z</time></trkpt><trkpt lat="43.0470005" lon="11.4895167"><ele>615.0</ele><time>2026-05-02T11:08:45.252Z</time></trkpt><trkpt lat="43.0471523" lon="11.4895308"><ele>615.0</ele><time>2026-05-02T11:08:46.249Z</time></trkpt><trkpt lat="43.0473038" lon="11.4895588"><ele>615.0</ele><time>2026-05-02T11:08:47.25Z</time></trkpt><trkpt lat="43.0474487" lon="11.4896348"><ele>615.0</ele><time>2026-05-02T11:08:48.251Z</time></trkpt><trkpt lat="43.0475793" lon="11.4897563"><ele>612.0</ele><time>2026-05-02T11:08:49.252Z</time></trkpt><trkpt lat="43.047698" lon="11.489889"><ele>609.0</ele><time>2026-05-02T11:08:50.252Z</time></trkpt><trkpt lat="43.047818" lon="11.4899978"><ele>606.0</ele><time>2026-05-02T11:08:51.252Z</time></trkpt><trkpt lat="43.047948" lon="11.4900567"><ele>603.0</ele><time>2026-05-02T11:08:52.249Z</time></trkpt><trkpt lat="43.048088" lon="11.4900668"><ele>603.0</ele><time>2026-05-02T11:08:53.249Z</time></trkpt><trkpt lat="43.0482393" lon="11.4900362"><ele>603.0</ele><time>2026-05-02T11:08:54.259Z</time></trkpt><trkpt lat="43.0483847" lon="11.4899915"><ele>603.0</ele><time>2026-05-02T11:08:55.25Z</time></trkpt><trkpt lat="43.048521" lon="11.4899557"><ele>603.0</ele><time>2026-05-02T11:08:56.252Z</time></trkpt><trkpt lat="43.048647" lon="11.4899548"><ele>603.0</ele><time>2026-05-02T11:08:57.253Z</time></trkpt><trkpt lat="43.0487575" lon="11.49001"><ele>603.0</ele><time>2026-05-02T11:08:58.252Z</time></trkpt><trkpt lat="43.0488468" lon="11.4901223"><ele>603.0</ele><time>2026-05-02T11:08:59.251Z</time></trkpt><trkpt lat="43.048915" lon="11.490278"><ele>603.0</ele><time>2026-05-02T11:09:00.248Z</time></trkpt><trkpt lat="43.0489697" lon="11.490465"><ele>601.0</ele><time>2026-05-02T11:09:01.247Z</time></trkpt><trkpt lat="43.0490185" lon="11.4906493"><ele>599.0</ele><time>2026-05-02T11:09:02.251Z</time></trkpt><trkpt lat="43.0490652" lon="11.4908122"><ele>597.0</ele><time>2026-05-02T11:09:03.248Z</time></trkpt><trkpt lat="43.0491253" lon="11.4909427"><ele>595.0</ele><time>2026-05-02T11:09:04.249Z</time></trkpt><trkpt lat="43.0492093" lon="11.4910295"><ele>595.0</ele><time>2026-05-02T11:09:05.248Z</time></trkpt><trkpt lat="43.0493213" lon="11.4910673"><ele>595.0</ele><time>2026-05-02T11:09:06.248Z</time></trkpt><trkpt lat="43.049453" lon="11.4910555"><ele>595.0</ele><time>2026-05-02T11:09:07.248Z</time></trkpt><trkpt lat="43.049599" lon="11.4910198"><ele>595.0</ele><time>2026-05-02T11:09:08.251Z</time></trkpt><trkpt lat="43.0497487" lon="11.4910047"><ele>595.0</ele><time>2026-05-02T11:09:09.252Z</time></trkpt><trkpt lat="43.0498893" lon="11.4910173"><ele>595.0</ele><time>2026-05-02T11:09:10.252Z</time></trkpt><trkpt lat="43.0500182" lon="11.4910253"><ele>595.0</ele><time>2026-05-02T11:09:11.254Z</time></trkpt><trkpt lat="43.0501338" lon="11.4909948"><ele>595.0</ele><time>2026-05-02T11:09:12.251Z</time></trkpt><trkpt lat="43.050238" lon="11.4909112"><ele>595.5</ele><time>2026-05-02T11:09:13.254Z</time></trkpt><trkpt lat="43.0503305" lon="11.4907737"><ele>596.0</ele><time>2026-05-02T11:09:14.254Z</time></trkpt><trkpt lat="43.0504148" lon="11.4906038"><ele>596.5</ele><time>2026-05-02T11:09:15.251Z</time></trkpt><trkpt lat="43.0504995" lon="11.4904167"><ele>597.0</ele><time>2026-05-02T11:09:16.253Z</time></trkpt><trkpt lat="43.0505843" lon="11.4902252"><ele>595.0</ele><time>2026-05-02T11:09:17.252Z</time></trkpt><trkpt lat="43.0506642" lon="11.490046"><ele>593.0</ele><time>2026-05-02T11:09:18.252Z</time></trkpt><trkpt lat="43.0507377" lon="11.4898792"><ele>591.0</ele><time>2026-05-02T11:09:19.25Z</time></trkpt><trkpt lat="43.0508085" lon="11.4897312"><ele>589.0</ele><time>2026-05-02T11:09:20.252Z</time></trkpt><trkpt lat="43.0508893" lon="11.4896147"><ele>589.0</ele><time>2026-05-02T11:09:21.25Z</time></trkpt><trkpt lat="43.0509927" lon="11.4895487"><ele>589.0</ele><time>2026-05-02T11:09:22.25Z</time></trkpt><trkpt lat="43.051104" lon="11.4895453"><ele>589.0</ele><time>2026-05-02T11:09:23.252Z</time></trkpt><trkpt lat="43.051207" lon="11.4896052"><ele>589.0</ele><time>2026-05-02T11:09:24.251Z</time></trkpt><trkpt lat="43.051294" lon="11.489718"><ele>589.0</ele><time>2026-05-02T11:09:25.251Z</time></trkpt><trkpt lat="43.0513677" lon="11.4898682"><ele>589.0</ele><time>2026-05-02T11:09:26.252Z</time></trkpt><trkpt lat="43.0514378" lon="11.4900327"><ele>589.0</ele><time>2026-05-02T11:09:27.25Z</time></trkpt><trkpt lat="43.051507" lon="11.4902012"><ele>589.0</ele><time>2026-05-02T11:09:28.249Z</time></trkpt><trkpt lat="43.0515742" lon="11.4903578"><ele>585.0</ele><time>2026-05-02T11:09:29.251Z</time></trkpt><trkpt lat="43.0516448" lon="11.4905012"><ele>581.0</ele><time>2026-05-02T11:09:30.252Z</time></trkpt><trkpt lat="43.0517242" lon="11.4906212"><ele>577.0</ele><time>2026-05-02T11:09:31.25Z</time></trkpt><trkpt lat="43.0518107" lon="11.4907172"><ele>573.0</ele><time>2026-05-02T11:09:32.252Z</time></trkpt><trkpt lat="43.051897" lon="11.490801"><ele>573.0</ele><time>2026-05-02T11:09:33.252Z</time></trkpt><trkpt lat="43.051979" lon="11.4908793"><ele>573.0</ele><time>2026-05-02T11:09:34.253Z</time></trkpt><trkpt lat="43.0520613" lon="11.4909458"><ele>573.0</ele><time>2026-05-02T11:09:35.253Z</time></trkpt><trkpt lat="43.0521523" lon="11.4909893"><ele>573.0</ele><time>2026-05-02T11:09:36.254Z</time></trkpt><trkpt lat="43.0522512" lon="11.4910068"><ele>573.0</ele><time>2026-05-02T11:09:37.259Z</time></trkpt><trkpt lat="43.052356" lon="11.490998"><ele>574.0</ele><time>2026-05-02T11:09:38.252Z</time></trkpt><trkpt lat="43.0524637" lon="11.4909642"><ele>575.0</ele><time>2026-05-02T11:09:39.252Z</time></trkpt><trkpt lat="43.052573" lon="11.4909112"><ele>576.0</ele><time>2026-05-02T11:09:40.253Z</time></trkpt><trkpt lat="43.0526852" lon="11.490846"><ele>577.0</ele><time>2026-05-02T11:09:41.254Z</time></trkpt><trkpt lat="43.0527935" lon="11.4907817"><ele>577.0</ele><time>2026-05-02T11:09:42.254Z</time></trkpt><trkpt lat="43.0528933" lon="11.4907183"><ele>577.0</ele><time>2026-05-02T11:09:43.252Z</time></trkpt><trkpt lat="43.0529805" lon="11.4906447"><ele>577.0</ele><time>2026-05-02T11:09:44.251Z</time></trkpt><trkpt lat="43.0530502" lon="11.490554"><ele>577.0</ele><time>2026-05-02T11:09:45.251Z</time></trkpt><trkpt lat="43.053101" lon="11.4904463"><ele>577.0</ele><time>2026-05-02T11:09:46.252Z</time></trkpt><trkpt lat="43.0531435" lon="11.4903247"><ele>579.8000000000001</ele><time>2026-05-02T11:09:47.253Z</time></trkpt><trkpt lat="43.0531782" lon="11.4901998"><ele>582.6</ele><time>2026-05-02T11:09:48.252Z</time></trkpt><trkpt lat="43.0532065" lon="11.4900745"><ele>585.4000000000001</ele><time>2026-05-02T11:09:49.252Z</time></trkpt><trkpt lat="43.0532307" lon="11.4899517"><ele>588.2</ele><time>2026-05-02T11:09:50.255Z</time></trkpt><trkpt lat="43.053252" lon="11.4898315"><ele>591.0</ele><time>2026-05-02T11:09:51.252Z</time></trkpt><trkpt lat="43.0532725" lon="11.4897127"><ele>587.3333333333334</ele><time>2026-05-02T11:09:52.263Z</time></trkpt><trkpt lat="43.0532943" lon="11.4895978"><ele>583.6666666666666</ele><time>2026-05-02T11:09:53.251Z</time></trkpt><trkpt lat="43.0533193" lon="11.4894838"><ele>580.0</ele><time>2026-05-02T11:09:54.251Z</time></trkpt><trkpt lat="43.0533463" lon="11.4893675"><ele>576.3333333333333</ele><time>2026-05-02T11:09:55.253Z</time></trkpt><trkpt lat="43.0533765" lon="11.4892495"><ele>572.6666666666666</ele><time>2026-05-02T11:09:56.252Z</time></trkpt><trkpt lat="43.0534173" lon="11.4891402"><ele>569.0</ele><time>2026-05-02T11:09:57.253Z</time></trkpt><trkpt lat="43.0534787" lon="11.489051"><ele>569.0</ele><time>2026-05-02T11:09:58.253Z</time></trkpt><trkpt lat="43.0535602" lon="11.4889822"><ele>569.0</ele><time>2026-05-02T11:09:59.252Z</time></trkpt><trkpt lat="43.0536528" lon="11.4889275"><ele>569.0</ele><time>2026-05-02T11:10:00.251Z</time></trkpt><trkpt lat="43.0537512" lon="11.4888828"><ele>569.0</ele><time>2026-05-02T11:10:01.267Z</time></trkpt><trkpt lat="43.0538522" lon="11.4888482"><ele>569.0</ele><time>2026-05-02T11:10:02.254Z</time></trkpt><trkpt lat="43.0539507" lon="11.4888158"><ele>569.0</ele><time>2026-05-02T11:10:03.252Z</time></trkpt><trkpt lat="43.054042" lon="11.4887848"><ele>569.0</ele><time>2026-05-02T11:10:04.254Z</time></trkpt><trkpt lat="43.0541278" lon="11.4887552"><ele>569.0</ele><time>2026-05-02T11:10:05.255Z</time></trkpt><trkpt lat="43.0542055" lon="11.4887295"><ele>569.0</ele><time>2026-05-02T11:10:06.255Z</time></trkpt><trkpt lat="43.0542713" lon="11.4887112"><ele>569.0</ele><time>2026-05-02T11:10:07.255Z</time></trkpt><trkpt lat="43.0543637" lon="11.4887042"><ele>569.0</ele><time>2026-05-02T11:10:09.253Z</time></trkpt><trkpt lat="43.0544318" lon="11.4886992"><ele>568.4285714285714</ele><time>2026-05-02T11:10:11.254Z</time></trkpt><trkpt lat="43.054498" lon="11.4887108"><ele>567.8571428571429</ele><time>2026-05-02T11:10:13.251Z</time></trkpt><trkpt lat="43.0545898" lon="11.488739"><ele>567.2857142857142</ele><time>2026-05-02T11:10:16.25Z</time></trkpt><trkpt lat="43.0546603" lon="11.488765"><ele>566.7142857142858</ele><time>2026-05-02T11:10:19.249Z</time></trkpt><trkpt lat="43.0547288" lon="11.4887878"><ele>566.1428571428571</ele><time>2026-05-02T11:10:23.253Z</time></trkpt><trkpt lat="43.0547853" lon="11.4888278"><ele>565.5714285714286</ele><time>2026-05-02T11:10:28.254Z</time></trkpt><trkpt lat="43.054844" lon="11.4888705"><ele>565.0</ele><time>2026-05-02T11:10:34.253Z</time></trkpt><trkpt lat="43.0549152" lon="11.4889155"><ele>563.0</ele><time>2026-05-02T11:10:38.252Z</time></trkpt><trkpt lat="43.0549612" lon="11.488985"><ele>561.0</ele><time>2026-05-02T11:10:41.251Z</time></trkpt><trkpt lat="43.0550002" lon="11.4890622"><ele>559.0</ele><time>2026-05-02T11:11:26.25Z</time></trkpt><trkpt lat="43.0550633" lon="11.4890795"><ele>557.0</ele><time>2026-05-02T11:11:32.252Z</time></trkpt><trkpt lat="43.0551382" lon="11.4891085"><ele>555.0</ele><time>2026-05-02T11:11:35.255Z</time></trkpt><trkpt lat="43.0552217" lon="11.4890898"><ele>553.0</ele><time>2026-05-02T11:11:38.253Z</time></trkpt><trkpt lat="43.055327" lon="11.4890695"><ele>553.0</ele><time>2026-05-02T11:11:40.252Z</time></trkpt><trkpt lat="43.0554397" lon="11.4890387"><ele>553.0</ele><time>2026-05-02T11:11:42.254Z</time></trkpt><trkpt lat="43.0555522" lon="11.488989"><ele>553.0</ele><time>2026-05-02T11:11:44.253Z</time></trkpt><trkpt lat="43.0556677" lon="11.4889522"><ele>553.0</ele><time>2026-05-02T11:11:46.252Z</time></trkpt><trkpt lat="43.0557982" lon="11.4889762"><ele>552.3333333333334</ele><time>2026-05-02T11:11:48.252Z</time></trkpt><trkpt lat="43.0558723" lon="11.4890078"><ele>551.6666666666667</ele><time>2026-05-02T11:11:49.249Z</time></trkpt><trkpt lat="43.0559538" lon="11.4890405"><ele>551.0</ele><time>2026-05-02T11:11:50.252Z</time></trkpt><trkpt lat="43.0560418" lon="11.4890495"><ele>550.3333333333334</ele><time>2026-05-02T11:11:51.247Z</time></trkpt><trkpt lat="43.0561343" lon="11.489032"><ele>549.6666666666666</ele><time>2026-05-02T11:11:52.27Z</time></trkpt><trkpt lat="43.056226" lon="11.4890005"><ele>549.0</ele><time>2026-05-02T11:11:53.251Z</time></trkpt><trkpt lat="43.0563197" lon="11.48896"><ele>549.0</ele><time>2026-05-02T11:11:54.258Z</time></trkpt><trkpt lat="43.0564153" lon="11.4889218"><ele>549.0</ele><time>2026-05-02T11:11:55.25Z</time></trkpt><trkpt lat="43.0565065" lon="11.4888813"><ele>549.0</ele><time>2026-05-02T11:11:56.249Z</time></trkpt><trkpt lat="43.0565922" lon="11.4888452"><ele>549.0</ele><time>2026-05-02T11:11:57.256Z</time></trkpt><trkpt lat="43.0566722" lon="11.4888078"><ele>549.0</ele><time>2026-05-02T11:11:58.25Z</time></trkpt><trkpt lat="43.0567452" lon="11.4887577"><ele>546.8333333333334</ele><time>2026-05-02T11:11:59.259Z</time></trkpt><trkpt lat="43.0568132" lon="11.488691"><ele>544.6666666666666</ele><time>2026-05-02T11:12:00.253Z</time></trkpt><trkpt lat="43.0568742" lon="11.488604"><ele>542.5</ele><time>2026-05-02T11:12:01.258Z</time></trkpt><trkpt lat="43.0569307" lon="11.4885043"><ele>540.3333333333333</ele><time>2026-05-02T11:12:02.251Z</time></trkpt><trkpt lat="43.0569817" lon="11.4884063"><ele>538.1666666666666</ele><time>2026-05-02T11:12:03.255Z</time></trkpt><trkpt lat="43.0570288" lon="11.4883145"><ele>536.0</ele><time>2026-05-02T11:12:04.25Z</time></trkpt><trkpt lat="43.0570718" lon="11.4882277"><ele>536.0</ele><time>2026-05-02T11:12:05.251Z</time></trkpt><trkpt lat="43.0571127" lon="11.488146"><ele>536.0</ele><time>2026-05-02T11:12:06.25Z</time></trkpt><trkpt lat="43.0571478" lon="11.488072"><ele>536.0</ele><time>2026-05-02T11:12:07.249Z</time></trkpt><trkpt lat="43.0572192" lon="11.4879327"><ele>536.0</ele><time>2026-05-02T11:12:09.25Z</time></trkpt><trkpt lat="43.0572598" lon="11.4878553"><ele>536.0</ele><time>2026-05-02T11:12:10.251Z</time></trkpt><trkpt lat="43.0572985" lon="11.4877755"><ele>536.0</ele><time>2026-05-02T11:12:11.251Z</time></trkpt><trkpt lat="43.0573385" lon="11.4876938"><ele>536.8333333333333</ele><time>2026-05-02T11:12:12.249Z</time></trkpt><trkpt lat="43.0573802" lon="11.4876112"><ele>537.6666666666666</ele><time>2026-05-02T11:12:13.248Z</time></trkpt><trkpt lat="43.0574283" lon="11.4875255"><ele>538.5</ele><time>2026-05-02T11:12:14.25Z</time></trkpt><trkpt lat="43.0574852" lon="11.487441"><ele>539.3333333333334</ele><time>2026-05-02T11:12:15.249Z</time></trkpt><trkpt lat="43.05755" lon="11.4873593"><ele>540.1666666666667</ele><time>2026-05-02T11:12:16.248Z</time></trkpt><trkpt lat="43.0576215" lon="11.4872752"><ele>541.0</ele><time>2026-05-02T11:12:17.251Z</time></trkpt><trkpt lat="43.0576972" lon="11.487188"><ele>541.0</ele><time>2026-05-02T11:12:18.25Z</time></trkpt><trkpt lat="43.0577732" lon="11.4870997"><ele>541.0</ele><time>2026-05-02T11:12:19.25Z</time></trkpt><trkpt lat="43.0578523" lon="11.4870125"><ele>541.0</ele><time>2026-05-02T11:12:20.247Z</time></trkpt><trkpt lat="43.057931" lon="11.4869237"><ele>541.0</ele><time>2026-05-02T11:12:21.249Z</time></trkpt><trkpt lat="43.0580063" lon="11.48684"><ele>541.0</ele><time>2026-05-02T11:12:22.249Z</time></trkpt><trkpt lat="43.0580762" lon="11.4867582"><ele>542.1666666666667</ele><time>2026-05-02T11:12:23.248Z</time></trkpt><trkpt lat="43.0581445" lon="11.4866803"><ele>543.3333333333334</ele><time>2026-05-02T11:12:24.251Z</time></trkpt><trkpt lat="43.0582142" lon="11.4866025"><ele>544.5</ele><time>2026-05-02T11:12:25.251Z</time></trkpt><trkpt lat="43.0582805" lon="11.4865285"><ele>545.6666666666666</ele><time>2026-05-02T11:12:26.263Z</time></trkpt><trkpt lat="43.058335" lon="11.486467"><ele>546.8333333333333</ele><time>2026-05-02T11:12:27.248Z</time></trkpt><trkpt lat="43.058416" lon="11.4864125"><ele>548.0</ele><time>2026-05-02T11:12:29.251Z</time></trkpt><trkpt lat="43.0583497" lon="11.4864488"><ele>544.5714285714287</ele><time>2026-05-02T11:13:41.253Z</time></trkpt><trkpt lat="43.0582687" lon="11.4865043"><ele>541.1428571428571</ele><time>2026-05-02T11:13:43.251Z</time></trkpt><trkpt lat="43.0582172" lon="11.4865623"><ele>537.7142857142858</ele><time>2026-05-02T11:13:44.251Z</time></trkpt><trkpt lat="43.0581648" lon="11.4866263"><ele>534.2857142857143</ele><time>2026-05-02T11:13:45.251Z</time></trkpt><trkpt lat="43.0581153" lon="11.486691"><ele>530.8571428571429</ele><time>2026-05-02T11:13:46.25Z</time></trkpt><trkpt lat="43.0580655" lon="11.4867543"><ele>527.4285714285714</ele><time>2026-05-02T11:13:47.251Z</time></trkpt><trkpt lat="43.058012" lon="11.4868158"><ele>524.0</ele><time>2026-05-02T11:13:48.251Z</time></trkpt><trkpt lat="43.0579572" lon="11.4868757"><ele>524.0</ele><time>2026-05-02T11:13:49.251Z</time></trkpt><trkpt lat="43.0579022" lon="11.4869363"><ele>524.0</ele><time>2026-05-02T11:13:50.251Z</time></trkpt><trkpt lat="43.0578465" lon="11.4870028"><ele>524.0</ele><time>2026-05-02T11:13:51.251Z</time></trkpt><trkpt lat="43.057782" lon="11.4870773"><ele>524.0</ele><time>2026-05-02T11:13:52.25Z</time></trkpt><trkpt lat="43.0577158" lon="11.4871517"><ele>524.0</ele><time>2026-05-02T11:13:53.253Z</time></trkpt><trkpt lat="43.0576428" lon="11.4872295"><ele>524.0</ele><time>2026-05-02T11:13:54.253Z</time></trkpt><trkpt lat="43.0575673" lon="11.4873195"><ele>524.0</ele><time>2026-05-02T11:13:55.25Z</time></trkpt><trkpt lat="43.057492" lon="11.4874165"><ele>524.0</ele><time>2026-05-02T11:13:56.25Z</time></trkpt><trkpt lat="43.0574233" lon="11.4875177"><ele>524.0</ele><time>2026-05-02T11:13:57.254Z</time></trkpt><trkpt lat="43.057363" lon="11.4876207"><ele>524.0</ele><time>2026-05-02T11:13:58.247Z</time></trkpt><trkpt lat="43.0573095" lon="11.4877232"><ele>524.0</ele><time>2026-05-02T11:13:59.249Z</time></trkpt><trkpt lat="43.0572642" lon="11.4878185"><ele>524.0</ele><time>2026-05-02T11:14:00.248Z</time></trkpt><trkpt lat="43.057225" lon="11.4879053"><ele>524.0</ele><time>2026-05-02T11:14:01.25Z</time></trkpt><trkpt lat="43.0571675" lon="11.4880337"><ele>524.0</ele><time>2026-05-02T11:14:03.252Z</time></trkpt><trkpt lat="43.0571238" lon="11.4881207"><ele>524.0</ele><time>2026-05-02T11:14:05.253Z</time></trkpt><trkpt lat="43.0570833" lon="11.4881878"><ele>524.0</ele><time>2026-05-02T11:14:12.253Z</time></trkpt><trkpt lat="43.0571347" lon="11.4881132"><ele>524.0</ele><time>2026-05-02T11:14:18.25Z</time></trkpt><trkpt lat="43.0571777" lon="11.4880083"><ele>524.0</ele><time>2026-05-02T11:14:24.25Z</time></trkpt><trkpt lat="43.0572705" lon="11.4878625"><ele>524.0</ele><time>2026-05-02T11:14:26.25Z</time></trkpt><trkpt lat="43.0573263" lon="11.4877482"><ele>524.0</ele><time>2026-05-02T11:14:27.25Z</time></trkpt><trkpt lat="43.0573927" lon="11.4876198"><ele>524.0</ele><time>2026-05-02T11:14:28.249Z</time></trkpt><trkpt lat="43.0574725" lon="11.4874873"><ele>524.0</ele><time>2026-05-02T11:14:29.249Z</time></trkpt><trkpt lat="43.0575668" lon="11.4873642"><ele>524.0</ele><time>2026-05-02T11:14:30.248Z</time></trkpt><trkpt lat="43.0576693" lon="11.4872447"><ele>524.0</ele><time>2026-05-02T11:14:31.25Z</time></trkpt><trkpt lat="43.057772" lon="11.4871245"><ele>524.0</ele><time>2026-05-02T11:14:32.25Z</time></trkpt><trkpt lat="43.0578782" lon="11.487"><ele>524.0</ele><time>2026-05-02T11:14:33.25Z</time></trkpt><trkpt lat="43.0579815" lon="11.4868778"><ele>524.0</ele><time>2026-05-02T11:14:34.249Z</time></trkpt><trkpt lat="43.0580777" lon="11.4867668"><ele>524.0</ele><time>2026-05-02T11:14:35.248Z</time></trkpt><trkpt lat="43.0581615" lon="11.4866687"><ele>524.0</ele><time>2026-05-02T11:14:36.249Z</time></trkpt><trkpt lat="43.0582378" lon="11.486582"><ele>524.0</ele><time>2026-05-02T11:14:37.249Z</time></trkpt><trkpt lat="43.0582982" lon="11.4865148"><ele>524.0</ele><time>2026-05-02T11:14:38.252Z</time></trkpt><trkpt lat="43.0583767" lon="11.48645"><ele>524.0</ele><time>2026-05-02T11:14:40.249Z</time></trkpt><trkpt lat="43.0582702" lon="11.4865027"><ele>524.0</ele><time>2026-05-02T11:15:13.25Z</time></trkpt><trkpt lat="43.0582037" lon="11.486581"><ele>524.0</ele><time>2026-05-02T11:15:14.251Z</time></trkpt><trkpt lat="43.0581253" lon="11.4866723"><ele>524.0</ele><time>2026-05-02T11:15:15.252Z</time></trkpt><trkpt lat="43.0580415" lon="11.4867722"><ele>524.0</ele><time>2026-05-02T11:15:16.252Z</time></trkpt><trkpt lat="43.0579563" lon="11.486877"><ele>524.0</ele><time>2026-05-02T11:15:17.252Z</time></trkpt><trkpt lat="43.0578718" lon="11.4869792"><ele>524.0</ele><time>2026-05-02T11:15:18.253Z</time></trkpt><trkpt lat="43.0577883" lon="11.4870747"><ele>524.0</ele><time>2026-05-02T11:15:19.252Z</time></trkpt><trkpt lat="43.057709" lon="11.4871662"><ele>524.0</ele><time>2026-05-02T11:15:20.251Z</time></trkpt><trkpt lat="43.057634" lon="11.4872537"><ele>524.0</ele><time>2026-05-02T11:15:21.251Z</time></trkpt><trkpt lat="43.057497" lon="11.4874213"><ele>524.0</ele><time>2026-05-02T11:15:23.252Z</time></trkpt><trkpt lat="43.0574368" lon="11.4875075"><ele>524.0</ele><time>2026-05-02T11:15:24.251Z</time></trkpt><trkpt lat="43.0573823" lon="11.4875978"><ele>524.0</ele><time>2026-05-02T11:15:25.249Z</time></trkpt><trkpt lat="43.0573333" lon="11.4876862"><ele>524.0</ele><time>2026-05-02T11:15:26.251Z</time></trkpt><trkpt lat="43.0572888" lon="11.4877697"><ele>524.0</ele><time>2026-05-02T11:15:27.25Z</time></trkpt><trkpt lat="43.0572387" lon="11.4878665"><ele>524.0</ele><time>2026-05-02T11:15:29.252Z</time></trkpt><trkpt lat="43.0571948" lon="11.487939"><ele>536.0</ele><time>2026-05-02T11:15:42.251Z</time></trkpt><trkpt lat="43.0571582" lon="11.48801"><ele>536.0</ele><time>2026-05-02T11:15:46.251Z</time></trkpt><trkpt lat="43.057123" lon="11.48809"><ele>536.0</ele><time>2026-05-02T11:16:10.251Z</time></trkpt><trkpt lat="43.057123" lon="11.48809"><ele>536.0</ele><time>2026-05-02T11:16:10.251Z</time></trkpt></trkseg></trk></gpx>